<?xml version='1.0' encoding='UTF-8'?><gpx version="1.1" creator="JPX - https://github.com/jenetics/jpx" xmlns="http://www.topografix.com/GPX/1/1"><trk><trkseg><trkpt lat="-31.02037409255131" lon="115.33278472551339"><ele>5.0</ele><time>2026-04-12T06:23:33Z</time></trkpt><trkpt lat="-31.020379015612118" lon="115.33270320078915"><ele>5.0</ele><time>2026-04-12T06:23:37Z</time></trkpt><trkpt lat="-31.020373358995094" lon="115.3326195522594"><ele>5.0</ele><time>2026-04-12T06:23:42Z</time></trkpt><trkpt lat="-31.020388017754268" lon="115.33252755180916"><ele>5.0</ele><time>2026-04-12T06:23:48Z</time></trkpt><trkpt lat="-31.020376120401185" lon="115.33267347804562"><ele>5.0</ele><time>2026-04-12T06:24:21Z</time></trkpt><trkpt lat="-31.02038305768074" lon="115.3327497189455"><ele>5.0</ele><time>2026-04-12T06:24:22Z</time></trkpt><trkpt lat="-31.02038818745413" lon="115.3328485609748"><ele>5.0</ele><time>2026-04-12T06:24:24Z</time></trkpt><trkpt lat="-31.020330924471974" lon="115.33288313429068"><ele>5.0</ele><time>2026-04-12T06:24:27Z</time></trkpt><trkpt lat="-31.02029956892288" lon="115.33295743629853"><ele>5.0</ele><time>2026-04-12T06:24:32Z</time></trkpt><trkpt lat="-31.020318482998494" lon="115.33288669149425"><ele>5.0</ele><time>2026-04-12T06:25:10Z</time></trkpt><trkpt lat="-31.020300093828883" lon="115.33296512186664"><ele>5.0</ele><time>2026-04-12T06:42:39Z</time></trkpt><trkpt lat="-31.020353857894666" lon="115.33292226440891"><ele>5.0</ele><time>2026-04-12T07:14:21Z</time></trkpt><trkpt lat="-31.020423533946733" lon="115.33292872641852"><ele>5.0</ele><time>2026-04-12T07:14:26Z</time></trkpt><trkpt lat="-31.020468333560892" lon="115.33286938530252"><ele>5.0</ele><time>2026-04-12T07:14:32Z</time></trkpt><trkpt lat="-31.020513766419676" lon="115.33281304003792"><ele>5.0</ele><time>2026-04-12T07:14:38Z</time></trkpt><trkpt lat="-31.02044995729995" lon="115.3328374465728"><ele>5.0</ele><time>2026-04-12T07:14:58Z</time></trkpt><trkpt lat="-31.02038441007071" lon="115.33288079607898"><ele>5.0</ele><time>2026-04-12T07:15:03Z</time></trkpt><trkpt lat="-31.02033072801273" lon="115.33292712541062"><ele>5.0</ele><time>2026-04-12T07:15:08Z</time></trkpt><trkpt lat="-31.020279349957335" lon="115.33300048950038"><ele>5.0</ele><time>2026-04-12T07:17:41.999Z</time></trkpt><trkpt lat="-31.020345539964882" lon="115.33306768646347"><ele>5.0</ele><time>2026-04-12T07:17:44.999Z</time></trkpt><trkpt lat="-31.02040125335403" lon="115.33301998741311"><ele>5.0</ele><time>2026-04-12T07:17:46.999Z</time></trkpt><trkpt lat="-31.02041712930507" lon="115.33290763324612"><ele>5.0</ele><time>2026-04-12T07:17:49.998Z</time></trkpt><trkpt lat="-31.020444562267194" lon="115.33277666603905"><ele>5.0</ele><time>2026-04-12T07:17:51.998Z</time></trkpt><trkpt lat="-31.02044637094642" lon="115.33264978706288"><ele>5.0</ele><time>2026-04-12T07:17:53.998Z</time></trkpt><trkpt lat="-31.02044511189888" lon="115.33251839695392"><ele>5.0</ele><time>2026-04-12T07:17:55.998Z</time></trkpt><trkpt lat="-31.020449982019578" lon="115.33238211172367"><ele>5.0</ele><time>2026-04-12T07:17:57.998Z</time></trkpt><trkpt lat="-31.02044332995959" lon="115.33226694062877"><ele>5.0</ele><time>2026-04-12T07:17:59.998Z</time></trkpt><trkpt lat="-31.020445054778097" lon="115.33217055827765"><ele>5.0</ele><time>2026-04-12T07:18:01.998Z</time></trkpt><trkpt lat="-31.02044294802879" lon="115.33208212015481"><ele>5.0</ele><time>2026-04-12T07:18:03.998Z</time></trkpt><trkpt lat="-31.0202934595501" lon="115.33204918603363"><ele>5.0</ele><time>2026-04-12T07:18:05.998Z</time></trkpt><trkpt lat="-31.020198329286305" lon="115.33206376992"><ele>4.75</ele><time>2026-04-12T07:18:06.998Z</time></trkpt><trkpt lat="-31.02009685057669" lon="115.33207529223559"><ele>4.5</ele><time>2026-04-12T07:18:07.998Z</time></trkpt><trkpt lat="-31.019983593075754" lon="115.3320770562196"><ele>4.25</ele><time>2026-04-12T07:18:08.998Z</time></trkpt><trkpt lat="-31.01985297557547" lon="115.33207437193568"><ele>4.0</ele><time>2026-04-12T07:18:09.998Z</time></trkpt><trkpt lat="-31.019718492081573" lon="115.33207525375637"><ele>4.75</ele><time>2026-04-12T07:18:10.997Z</time></trkpt><trkpt lat="-31.019591883968328" lon="115.33208195415298"><ele>5.5</ele><time>2026-04-12T07:18:11.997Z</time></trkpt><trkpt lat="-31.019473968358874" lon="115.33209497864587"><ele>6.25</ele><time>2026-04-12T07:18:12.997Z</time></trkpt><trkpt lat="-31.019361661904632" lon="115.33210372245543"><ele>7.0</ele><time>2026-04-12T07:18:13.997Z</time></trkpt><trkpt lat="-31.019239248912008" lon="115.33210125843425"><ele>7.5</ele><time>2026-04-12T07:18:14.997Z</time></trkpt><trkpt lat="-31.01910655561045" lon="115.33209259249739"><ele>8.0</ele><time>2026-04-12T07:18:15.997Z</time></trkpt><trkpt lat="-31.018966352058175" lon="115.33208249620219"><ele>8.5</ele><time>2026-04-12T07:18:16.997Z</time></trkpt><trkpt lat="-31.018820412391467" lon="115.33206265471175"><ele>9.0</ele><time>2026-04-12T07:18:17.997Z</time></trkpt><trkpt lat="-31.018661476051673" lon="115.33202742827326"><ele>9.0</ele><time>2026-04-12T07:18:18.997Z</time></trkpt><trkpt lat="-31.01849176889211" lon="115.33198102423091"><ele>9.0</ele><time>2026-04-12T07:18:19.997Z</time></trkpt><trkpt lat="-31.018324827759336" lon="115.33192643496045"><ele>9.0</ele><time>2026-04-12T07:18:20.997Z</time></trkpt><trkpt lat="-31.018155791649296" lon="115.33186965370705"><ele>8.333333333333334</ele><time>2026-04-12T07:18:21.997Z</time></trkpt><trkpt lat="-31.017984439396717" lon="115.3318189432749"><ele>7.666666666666667</ele><time>2026-04-12T07:18:22.997Z</time></trkpt><trkpt lat="-31.01780945843335" lon="115.33177373718316"><ele>7.0</ele><time>2026-04-12T07:18:23.997Z</time></trkpt><trkpt lat="-31.01763558654113" lon="115.3317281548994"><ele>7.333333333333334</ele><time>2026-04-12T07:18:24.997Z</time></trkpt><trkpt lat="-31.01746499981538" lon="115.3316780656868"><ele>7.666666666666666</ele><time>2026-04-12T07:18:25.997Z</time></trkpt><trkpt lat="-31.017300318645592" lon="115.33162430207942"><ele>8.0</ele><time>2026-04-12T07:18:26.997Z</time></trkpt><trkpt lat="-31.017144243390565" lon="115.33156294207599"><ele>8.0</ele><time>2026-04-12T07:18:27.997Z</time></trkpt><trkpt lat="-31.016989103085702" lon="115.33148789323569"><ele>8.0</ele><time>2026-04-12T07:18:28.997Z</time></trkpt><trkpt lat="-31.01683469657795" lon="115.33139278791562"><ele>8.0</ele><time>2026-04-12T07:18:29.997Z</time></trkpt><trkpt lat="-31.016680834387103" lon="115.33129196548714"><ele>8.333333333333332</ele><time>2026-04-12T07:18:30.997Z</time></trkpt><trkpt lat="-31.016535727242427" lon="115.3311927636747"><ele>8.666666666666666</ele><time>2026-04-12T07:18:31.997Z</time></trkpt><trkpt lat="-31.016389926531545" lon="115.33109133006381"><ele>9.0</ele><time>2026-04-12T07:18:32.997Z</time></trkpt><trkpt lat="-31.016247514641055" lon="115.3309968175604"><ele>9.0</ele><time>2026-04-12T07:18:33.997Z</time></trkpt><trkpt lat="-31.016100579123638" lon="115.33090411269576"><ele>9.0</ele><time>2026-04-12T07:18:34.997Z</time></trkpt><trkpt lat="-31.015948984820106" lon="115.33081328714125"><ele>9.0</ele><time>2026-04-12T07:18:35.997Z</time></trkpt><trkpt lat="-31.015787619342223" lon="115.3307131216786"><ele>8.666666666666666</ele><time>2026-04-12T07:18:36.997Z</time></trkpt><trkpt lat="-31.0156247633776" lon="115.33060909429774"><ele>8.333333333333332</ele><time>2026-04-12T07:18:37.997Z</time></trkpt><trkpt lat="-31.01545820005462" lon="115.33050269717772"><ele>8.0</ele><time>2026-04-12T07:18:38.997Z</time></trkpt><trkpt lat="-31.015286497113227" lon="115.33039141647164"><ele>7.333333333333333</ele><time>2026-04-12T07:18:39.997Z</time></trkpt><trkpt lat="-31.015116265858914" lon="115.33028166049823"><ele>6.666666666666666</ele><time>2026-04-12T07:18:40.997Z</time></trkpt><trkpt lat="-31.014950918777362" lon="115.33017330453157"><ele>6.0</ele><time>2026-04-12T07:18:41.997Z</time></trkpt><trkpt lat="-31.014789388704216" lon="115.33006650555228"><ele>6.0</ele><time>2026-04-12T07:18:42.997Z</time></trkpt><trkpt lat="-31.014626295609368" lon="115.32996065329901"><ele>6.0</ele><time>2026-04-12T07:18:43.997Z</time></trkpt><trkpt lat="-31.014462128679245" lon="115.32985428068679"><ele>6.0</ele><time>2026-04-12T07:18:44.997Z</time></trkpt><trkpt lat="-31.014304717381094" lon="115.32975013836227"><ele>6.333333333333334</ele><time>2026-04-12T07:18:45.997Z</time></trkpt><trkpt lat="-31.01415100636359" lon="115.32965237050603"><ele>6.666666666666667</ele><time>2026-04-12T07:18:46.997Z</time></trkpt><trkpt lat="-31.01399795103597" lon="115.32955685951386"><ele>7.0</ele><time>2026-04-12T07:18:47.997Z</time></trkpt><trkpt lat="-31.013845316338166" lon="115.3294674797068"><ele>7.0</ele><time>2026-04-12T07:18:48.997Z</time></trkpt><trkpt lat="-31.01368866501934" lon="115.32940144456639"><ele>7.0</ele><time>2026-04-12T07:18:49.997Z</time></trkpt><trkpt lat="-31.01352898209204" lon="115.32936906853372"><ele>7.0</ele><time>2026-04-12T07:18:50.997Z</time></trkpt><trkpt lat="-31.013370572317434" lon="115.32936820956638"><ele>7.666666666666667</ele><time>2026-04-12T07:18:51.997Z</time></trkpt><trkpt lat="-31.013203697356623" lon="115.32938513735878"><ele>8.333333333333334</ele><time>2026-04-12T07:18:52.997Z</time></trkpt><trkpt lat="-31.013032109104547" lon="115.32941660499202"><ele>9.0</ele><time>2026-04-12T07:18:53.997Z</time></trkpt><trkpt lat="-31.012865770976738" lon="115.32946019762143"><ele>9.0</ele><time>2026-04-12T07:18:54.997Z</time></trkpt><trkpt lat="-31.012704148156526" lon="115.32950972646067"><ele>9.0</ele><time>2026-04-12T07:18:55.997Z</time></trkpt><trkpt lat="-31.012541845812816" lon="115.32955811313134"><ele>9.0</ele><time>2026-04-12T07:18:56.997Z</time></trkpt><trkpt lat="-31.01237894100174" lon="115.32959709216681"><ele>9.0</ele><time>2026-04-12T07:18:57.997Z</time></trkpt><trkpt lat="-31.012211378654737" lon="115.32961834747435"><ele>9.0</ele><time>2026-04-12T07:18:58.997Z</time></trkpt><trkpt lat="-31.01203523025348" lon="115.3296107029721"><ele>9.0</ele><time>2026-04-12T07:18:59.997Z</time></trkpt><trkpt lat="-31.011852831552726" lon="115.32957260601975"><ele>9.0</ele><time>2026-04-12T07:19:00.997Z</time></trkpt><trkpt lat="-31.011666330596785" lon="115.32952026211298"><ele>9.0</ele><time>2026-04-12T07:19:01.997Z</time></trkpt><trkpt lat="-31.011476071097754" lon="115.3294616565511"><ele>9.0</ele><time>2026-04-12T07:19:02.997Z</time></trkpt><trkpt lat="-31.01128457745666" lon="115.32938737760738"><ele>9.0</ele><time>2026-04-12T07:19:03.997Z</time></trkpt><trkpt lat="-31.01108571100267" lon="115.32930399485747"><ele>9.0</ele><time>2026-04-12T07:19:04.997Z</time></trkpt><trkpt lat="-31.0108894946515" lon="115.32922914834059"><ele>9.0</ele><time>2026-04-12T07:19:05.997Z</time></trkpt><trkpt lat="-31.01070439338708" lon="115.32915789098195"><ele>8.666666666666666</ele><time>2026-04-12T07:19:06.997Z</time></trkpt><trkpt lat="-31.01052392591446" lon="115.32908495326582"><ele>8.333333333333332</ele><time>2026-04-12T07:19:07.997Z</time></trkpt><trkpt lat="-31.010338937273016" lon="115.3290101242679"><ele>8.0</ele><time>2026-04-12T07:19:08.997Z</time></trkpt><trkpt lat="-31.010148573147333" lon="115.32892834740267"><ele>7.666666666666666</ele><time>2026-04-12T07:19:09.997Z</time></trkpt><trkpt lat="-31.009958745546367" lon="115.32885482266205"><ele>7.333333333333334</ele><time>2026-04-12T07:19:10.997Z</time></trkpt><trkpt lat="-31.009775792207183" lon="115.32879223500012"><ele>7.0</ele><time>2026-04-12T07:19:11.997Z</time></trkpt><trkpt lat="-31.009588110355505" lon="115.32873785782678"><ele>7.0</ele><time>2026-04-12T07:19:12.997Z</time></trkpt><trkpt lat="-31.009397117625785" lon="115.32868970520703"><ele>7.0</ele><time>2026-04-12T07:19:13.997Z</time></trkpt><trkpt lat="-31.009211267782515" lon="115.32864390276369"><ele>7.0</ele><time>2026-04-12T07:19:14.997Z</time></trkpt><trkpt lat="-31.00902572429168" lon="115.32859175733758"><ele>7.666666666666667</ele><time>2026-04-12T07:19:15.997Z</time></trkpt><trkpt lat="-31.008843973298525" lon="115.3285318911909"><ele>8.333333333333334</ele><time>2026-04-12T07:19:16.997Z</time></trkpt><trkpt lat="-31.008665369274365" lon="115.32845825721857"><ele>9.0</ele><time>2026-04-12T07:19:17.997Z</time></trkpt><trkpt lat="-31.008484896522198" lon="115.32836192187503"><ele>9.666666666666666</ele><time>2026-04-12T07:19:18.997Z</time></trkpt><trkpt lat="-31.00830229494607" lon="115.32824757098722"><ele>10.333333333333332</ele><time>2026-04-12T07:19:19.997Z</time></trkpt><trkpt lat="-31.00811878661356" lon="115.328124382561"><ele>11.0</ele><time>2026-04-12T07:19:20.997Z</time></trkpt><trkpt lat="-31.00793587296496" lon="115.32800177590029"><ele>10.333333333333332</ele><time>2026-04-12T07:19:21.997Z</time></trkpt><trkpt lat="-31.007758833847664" lon="115.3278892796751"><ele>9.666666666666666</ele><time>2026-04-12T07:19:22.997Z</time></trkpt><trkpt lat="-31.007594517717404" lon="115.32778755738475"><ele>9.0</ele><time>2026-04-12T07:19:23.997Z</time></trkpt><trkpt lat="-31.007441926954414" lon="115.32769331099786"><ele>9.0</ele><time>2026-04-12T07:19:24.997Z</time></trkpt><trkpt lat="-31.007294471485977" lon="115.32760486057104"><ele>9.0</ele><time>2026-04-12T07:19:25.997Z</time></trkpt><trkpt lat="-31.007158304167557" lon="115.327522495454"><ele>9.0</ele><time>2026-04-12T07:19:26.997Z</time></trkpt><trkpt lat="-31.007039533180834" lon="115.32744723991212"><ele>9.0</ele><time>2026-04-12T07:19:27.997Z</time></trkpt><trkpt lat="-31.006936498383315" lon="115.3273824877785"><ele>9.0</ele><time>2026-04-12T07:19:28.997Z</time></trkpt><trkpt lat="-31.006853926126716" lon="115.32734143945052"><ele>9.0</ele><time>2026-04-12T07:19:29.997Z</time></trkpt><trkpt lat="-31.006747891544347" lon="115.32737664379786"><ele>9.0</ele><time>2026-04-12T07:19:31.997Z</time></trkpt><trkpt lat="-31.00671339562672" lon="115.32745224024325"><ele>9.0</ele><time>2026-04-12T07:19:32.997Z</time></trkpt><trkpt lat="-31.0066983487163" lon="115.32755017316383"><ele>9.0</ele><time>2026-04-12T07:19:33.996Z</time></trkpt><trkpt lat="-31.006702890699266" lon="115.32766630521792"><ele>9.0</ele><time>2026-04-12T07:19:34.997Z</time></trkpt><trkpt lat="-31.006711613545367" lon="115.32779514145719"><ele>9.0</ele><time>2026-04-12T07:19:35.997Z</time></trkpt><trkpt lat="-31.006714345898477" lon="115.32793718684289"><ele>9.0</ele><time>2026-04-12T07:19:36.997Z</time></trkpt><trkpt lat="-31.00671205552947" lon="115.32808055475664"><ele>8.6</ele><time>2026-04-12T07:19:37.997Z</time></trkpt><trkpt lat="-31.006708725228712" lon="115.32821740344706"><ele>8.2</ele><time>2026-04-12T07:19:38.997Z</time></trkpt><trkpt lat="-31.00670801234261" lon="115.32833619152838"><ele>7.799999999999999</ele><time>2026-04-12T07:19:39.997Z</time></trkpt><trkpt lat="-31.006706690078108" lon="115.32844462216678"><ele>7.3999999999999995</ele><time>2026-04-12T07:19:40.998Z</time></trkpt><trkpt lat="-31.00668706377057" lon="115.3285456435029"><ele>7.0</ele><time>2026-04-12T07:19:41.998Z</time></trkpt><trkpt lat="-31.006693146045375" lon="115.32862388743109"><ele>7.0</ele><time>2026-04-12T07:19:42.998Z</time></trkpt><trkpt lat="-31.006453705261475" lon="115.32860314791128"><ele>7.0</ele><time>2026-04-12T07:19:44.998Z</time></trkpt><trkpt lat="-31.0063360137224" lon="115.32856371675737"><ele>7.0</ele><time>2026-04-12T07:19:45.998Z</time></trkpt><trkpt lat="-31.00620341457376" lon="115.3285307545941"><ele>7.0</ele><time>2026-04-12T07:19:46.998Z</time></trkpt><trkpt lat="-31.00605484356815" lon="115.32849566866157"><ele>7.0</ele><time>2026-04-12T07:19:47.998Z</time></trkpt><trkpt lat="-31.00590664247772" lon="115.32844943812051"><ele>7.0</ele><time>2026-04-12T07:19:48.998Z</time></trkpt><trkpt lat="-31.00574565177133" lon="115.32840597384568"><ele>8.0</ele><time>2026-04-12T07:19:49.998Z</time></trkpt><trkpt lat="-31.00556978817654" lon="115.32836204758813"><ele>9.0</ele><time>2026-04-12T07:19:50.998Z</time></trkpt><trkpt lat="-31.005386609000624" lon="115.32831647199649"><ele>10.0</ele><time>2026-04-12T07:19:51.998Z</time></trkpt><trkpt lat="-31.0052125293428" lon="115.32827147199595"><ele>10.0</ele><time>2026-04-12T07:19:52.998Z</time></trkpt><trkpt lat="-31.005048712654773" lon="115.32822621497981"><ele>10.0</ele><time>2026-04-12T07:19:53.999Z</time></trkpt><trkpt lat="-31.004883875796754" lon="115.32818388367676"><ele>10.0</ele><time>2026-04-12T07:19:54.999Z</time></trkpt><trkpt lat="-31.004717652610093" lon="115.32814135245198"><ele>10.0</ele><time>2026-04-12T07:19:55.999Z</time></trkpt><trkpt lat="-31.004551747350426" lon="115.32810269130454"><ele>10.0</ele><time>2026-04-12T07:19:56.999Z</time></trkpt><trkpt lat="-31.004383677569788" lon="115.32806336882737"><ele>10.0</ele><time>2026-04-12T07:19:57.999Z</time></trkpt><trkpt lat="-31.004223163331176" lon="115.32802932651646"><ele>9.6</ele><time>2026-04-12T07:19:58.999Z</time></trkpt><trkpt lat="-31.00406960274592" lon="115.32799121332371"><ele>9.2</ele><time>2026-04-12T07:19:59.999Z</time></trkpt><trkpt lat="-31.003952192737493" lon="115.32796055832398"><ele>8.8</ele><time>2026-04-12T07:20:00.999Z</time></trkpt><trkpt lat="-31.003861372161875" lon="115.32793337805582"><ele>8.4</ele><time>2026-04-12T07:20:01.999Z</time></trkpt><trkpt lat="-31.003791205647087" lon="115.32790481164137"><ele>8.0</ele><time>2026-04-12T07:20:02.999Z</time></trkpt><trkpt lat="-31.00371134360436" lon="115.3278677220612"><ele>7.999999999999999</ele><time>2026-04-12T07:20:04.999Z</time></trkpt><trkpt lat="-31.003779256646972" lon="115.32798080639367"><ele>8.0</ele><time>2026-04-12T07:20:09.999Z</time></trkpt><trkpt lat="-31.003855107499817" lon="115.32798034966989"><ele>8.0</ele><time>2026-04-12T07:20:10.999Z</time></trkpt><trkpt lat="-31.003944938552053" lon="115.32802599936583"><ele>8.0</ele><time>2026-04-12T07:20:12.999Z</time></trkpt><trkpt lat="-31.00395653782483" lon="115.32810187876056"><ele>7.999999999999999</ele><time>2026-04-12T07:20:14.999Z</time></trkpt><trkpt lat="-31.00392480611797" lon="115.32818132320092"><ele>8.0</ele><time>2026-04-12T07:20:16.999Z</time></trkpt><trkpt lat="-31.00384015038742" lon="115.32826263513037"><ele>7.833333333333333</ele><time>2026-04-12T07:21:06Z</time></trkpt><trkpt lat="-31.003719921079753" lon="115.32831334752649"><ele>7.666666666666666</ele><time>2026-04-12T07:21:08Z</time></trkpt><trkpt lat="-31.00367110096109" lon="115.32836510128209"><ele>7.5</ele><time>2026-04-12T07:21:09Z</time></trkpt><trkpt lat="-31.003621927722655" lon="115.32841715588206"><ele>7.333333333333334</ele><time>2026-04-12T07:21:10Z</time></trkpt><trkpt lat="-31.003550286388133" lon="115.3284476983235"><ele>7.166666666666667</ele><time>2026-04-12T07:21:11Z</time></trkpt><trkpt lat="-31.003492028699938" lon="115.32851352885143"><ele>7.0</ele><time>2026-04-12T07:21:12Z</time></trkpt><trkpt lat="-31.00344037612805" lon="115.32859377932935"><ele>7.0</ele><time>2026-04-12T07:21:13Z</time></trkpt><trkpt lat="-31.003407362374283" lon="115.32869916808292"><ele>6.999999999999999</ele><time>2026-04-12T07:21:14Z</time></trkpt><trkpt lat="-31.00335982651177" lon="115.32880457657892"><ele>6.999999999999999</ele><time>2026-04-12T07:21:15Z</time></trkpt><trkpt lat="-31.003319195456434" lon="115.32891891988939"><ele>7.0</ele><time>2026-04-12T07:21:16Z</time></trkpt><trkpt lat="-31.003286223935213" lon="115.32902376451017"><ele>7.0</ele><time>2026-04-12T07:21:17Z</time></trkpt><trkpt lat="-31.003251555544786" lon="115.32911551486505"><ele>7.500000000000001</ele><time>2026-04-12T07:21:18Z</time></trkpt><trkpt lat="-31.003211721095465" lon="115.32919423709646"><ele>8.0</ele><time>2026-04-12T07:21:19Z</time></trkpt><trkpt lat="-31.003158696261693" lon="115.32926821175076"><ele>8.5</ele><time>2026-04-12T07:21:20Z</time></trkpt><trkpt lat="-31.00308753126811" lon="115.3293000390321"><ele>9.0</ele><time>2026-04-12T07:21:21Z</time></trkpt><trkpt lat="-31.003021850466364" lon="115.32932244989011"><ele>9.5</ele><time>2026-04-12T07:21:22Z</time></trkpt><trkpt lat="-31.002899664376525" lon="115.32933002066912"><ele>10.0</ele><time>2026-04-12T07:21:24Z</time></trkpt><trkpt lat="-31.002829351406184" lon="115.3293382362424"><ele>10.0</ele><time>2026-04-12T07:21:25Z</time></trkpt><trkpt lat="-31.002760163179556" lon="115.32934636262551"><ele>10.0</ele><time>2026-04-12T07:21:26Z</time></trkpt><trkpt lat="-31.002675672054284" lon="115.32936749905483"><ele>10.0</ele><time>2026-04-12T07:21:28Z</time></trkpt><trkpt lat="-31.0025870812743" lon="115.32939100770477"><ele>10.0</ele><time>2026-04-12T07:21:30Z</time></trkpt><trkpt lat="-31.002524521861304" lon="115.32940760879808"><ele>10.0</ele><time>2026-04-12T07:21:31Z</time></trkpt><trkpt lat="-31.002452418615135" lon="115.32942674245052"><ele>10.0</ele><time>2026-04-12T07:21:32Z</time></trkpt><trkpt lat="-31.002359337877294" lon="115.32945144277387"><ele>10.2</ele><time>2026-04-12T07:21:33Z</time></trkpt><trkpt lat="-31.002251735200346" lon="115.32948252485363"><ele>10.4</ele><time>2026-04-12T07:21:34Z</time></trkpt><trkpt lat="-31.002150091826802" lon="115.32950002854734"><ele>10.600000000000001</ele><time>2026-04-12T07:21:35Z</time></trkpt><trkpt lat="-31.00205292466393" lon="115.32949506686934"><ele>10.8</ele><time>2026-04-12T07:21:36Z</time></trkpt><trkpt lat="-31.00194845778956" lon="115.3294770018218"><ele>11.0</ele><time>2026-04-12T07:21:37Z</time></trkpt><trkpt lat="-31.00184442812459" lon="115.32946881577116"><ele>11.0</ele><time>2026-04-12T07:21:38Z</time></trkpt><trkpt lat="-31.00174966564435" lon="115.3294321308026"><ele>11.0</ele><time>2026-04-12T07:21:39Z</time></trkpt><trkpt lat="-31.001668736748673" lon="115.32939584413306"><ele>11.0</ele><time>2026-04-12T07:21:40Z</time></trkpt><trkpt lat="-31.00159777475658" lon="115.32936835566754"><ele>11.0</ele><time>2026-04-12T07:21:41Z</time></trkpt><trkpt lat="-31.001501447495265" lon="115.32932350793399"><ele>11.0</ele><time>2026-04-12T07:21:43Z</time></trkpt><trkpt lat="-31.001412761283795" lon="115.32923332123846"><ele>10.833333333333332</ele><time>2026-04-12T07:21:45Z</time></trkpt><trkpt lat="-31.001356653920666" lon="115.32916350936287"><ele>10.666666666666666</ele><time>2026-04-12T07:21:46Z</time></trkpt><trkpt lat="-31.00130133316127" lon="115.32908197258286"><ele>10.5</ele><time>2026-04-12T07:21:47Z</time></trkpt><trkpt lat="-31.00124509816447" lon="115.32899460891548"><ele>10.333333333333334</ele><time>2026-04-12T07:21:48Z</time></trkpt><trkpt lat="-31.001189375816974" lon="115.32893713019779"><ele>10.166666666666668</ele><time>2026-04-12T07:21:49Z</time></trkpt><trkpt lat="-31.00114035488701" lon="115.32883520200043"><ele>10.0</ele><time>2026-04-12T07:21:51Z</time></trkpt><trkpt lat="-31.00108795736379" lon="115.32875913957909"><ele>10.0</ele><time>2026-04-12T07:21:52Z</time></trkpt><trkpt lat="-31.00102097254218" lon="115.32865989191613"><ele>10.0</ele><time>2026-04-12T07:21:53Z</time></trkpt><trkpt lat="-31.000956649248906" lon="115.32856245751424"><ele>10.0</ele><time>2026-04-12T07:21:54Z</time></trkpt><trkpt lat="-31.000893824511873" lon="115.32846561899427"><ele>10.0</ele><time>2026-04-12T07:21:55Z</time></trkpt><trkpt lat="-31.000830469055053" lon="115.32836796245996"><ele>10.0</ele><time>2026-04-12T07:21:56Z</time></trkpt><trkpt lat="-31.000774012100003" lon="115.32828093896875"><ele>9.8</ele><time>2026-04-12T07:21:57Z</time></trkpt><trkpt lat="-31.000714175555277" lon="115.32820887475327"><ele>9.6</ele><time>2026-04-12T07:21:58Z</time></trkpt><trkpt lat="-31.000649638395757" lon="115.32814784522277"><ele>9.4</ele><time>2026-04-12T07:21:59Z</time></trkpt><trkpt lat="-31.000566122105834" lon="115.32808467504896"><ele>9.2</ele><time>2026-04-12T07:22:00Z</time></trkpt><trkpt lat="-31.000471558746835" lon="115.3280174613927"><ele>9.0</ele><time>2026-04-12T07:22:01Z</time></trkpt><trkpt lat="-31.000368743435395" lon="115.32794257156338"><ele>9.0</ele><time>2026-04-12T07:22:02Z</time></trkpt><trkpt lat="-31.000268818905344" lon="115.32786965444961"><ele>9.0</ele><time>2026-04-12T07:22:03Z</time></trkpt><trkpt lat="-31.000168764976753" lon="115.32779956585607"><ele>9.0</ele><time>2026-04-12T07:22:04Z</time></trkpt><trkpt lat="-31.00007166958926" lon="115.32773588131599"><ele>9.0</ele><time>2026-04-12T07:22:05Z</time></trkpt><trkpt lat="-30.999976422215514" lon="115.32767475492702"><ele>9.0</ele><time>2026-04-12T07:22:06Z</time></trkpt><trkpt lat="-30.999877755003823" lon="115.32761246153132"><ele>9.0</ele><time>2026-04-12T07:22:07Z</time></trkpt><trkpt lat="-30.999777998364994" lon="115.3275500429153"><ele>9.0</ele><time>2026-04-12T07:22:08Z</time></trkpt><trkpt lat="-30.9996828168826" lon="115.32749219550473"><ele>9.0</ele><time>2026-04-12T07:22:09Z</time></trkpt><trkpt lat="-30.999590643256983" lon="115.32743944352814"><ele>9.0</ele><time>2026-04-12T07:22:10Z</time></trkpt><trkpt lat="-30.999508150299878" lon="115.32739432660928"><ele>9.0</ele><time>2026-04-12T07:22:11Z</time></trkpt><trkpt lat="-30.999432147028532" lon="115.32735314948856"><ele>9.0</ele><time>2026-04-12T07:22:12Z</time></trkpt><trkpt lat="-30.99936124991624" lon="115.32731648670843"><ele>9.0</ele><time>2026-04-12T07:22:13Z</time></trkpt><trkpt lat="-30.99928839557054" lon="115.3272984681524"><ele>9.0</ele><time>2026-04-12T07:22:14Z</time></trkpt><trkpt lat="-30.999226251824435" lon="115.32725741070247"><ele>9.0</ele><time>2026-04-12T07:22:15Z</time></trkpt><trkpt lat="-30.999113635410385" lon="115.32720007532299"><ele>9.0</ele><time>2026-04-12T07:22:17Z</time></trkpt><trkpt lat="-30.99901368722485" lon="115.32714164195971"><ele>8.833333333333334</ele><time>2026-04-12T07:22:19Z</time></trkpt><trkpt lat="-30.9989373255268" lon="115.32710668940317"><ele>8.666666666666666</ele><time>2026-04-12T07:22:21Z</time></trkpt><trkpt lat="-30.99886457043409" lon="115.32707485101575"><ele>8.5</ele><time>2026-04-12T07:22:23Z</time></trkpt><trkpt lat="-30.998773691849898" lon="115.32703690497317"><ele>8.333333333333332</ele><time>2026-04-12T07:22:25Z</time></trkpt><trkpt lat="-30.99871196480201" lon="115.32701224534898"><ele>8.166666666666666</ele><time>2026-04-12T07:22:26Z</time></trkpt><trkpt lat="-30.998637986497467" lon="115.32698345610645"><ele>8.0</ele><time>2026-04-12T07:22:27Z</time></trkpt><trkpt lat="-30.998550348450397" lon="115.326952589275"><ele>8.0</ele><time>2026-04-12T07:22:28Z</time></trkpt><trkpt lat="-30.998429181618885" lon="115.32691485461523"><ele>8.0</ele><time>2026-04-12T07:22:29Z</time></trkpt><trkpt lat="-30.998282943473313" lon="115.32687672552578"><ele>8.0</ele><time>2026-04-12T07:22:30Z</time></trkpt><trkpt lat="-30.998107764926917" lon="115.32683205813665"><ele>8.5</ele><time>2026-04-12T07:22:31Z</time></trkpt><trkpt lat="-30.99794370336081" lon="115.3267903529092"><ele>9.0</ele><time>2026-04-12T07:22:32Z</time></trkpt><trkpt lat="-30.997798778708308" lon="115.32677124335068"><ele>9.5</ele><time>2026-04-12T07:22:33Z</time></trkpt><trkpt lat="-30.997678733187353" lon="115.32674087014769"><ele>10.0</ele><time>2026-04-12T07:22:34Z</time></trkpt><trkpt lat="-30.997559397361126" lon="115.3267081726908"><ele>10.2</ele><time>2026-04-12T07:22:35Z</time></trkpt><trkpt lat="-30.99744493675678" lon="115.32667712944108"><ele>10.4</ele><time>2026-04-12T07:22:36Z</time></trkpt><trkpt lat="-30.997339081768676" lon="115.32662985516552"><ele>10.600000000000001</ele><time>2026-04-12T07:22:37Z</time></trkpt><trkpt lat="-30.997236718442174" lon="115.32659872443192"><ele>10.8</ele><time>2026-04-12T07:22:38Z</time></trkpt><trkpt lat="-30.997142083857042" lon="115.32656643300847"><ele>11.0</ele><time>2026-04-12T07:22:39Z</time></trkpt><trkpt lat="-30.997077992067613" lon="115.32653734071073"><ele>11.0</ele><time>2026-04-12T07:22:40Z</time></trkpt><trkpt lat="-30.99697906595612" lon="115.32650985554174"><ele>11.0</ele><time>2026-04-12T07:22:42Z</time></trkpt><trkpt lat="-30.996909716398687" lon="115.32649944391537"><ele>11.0</ele><time>2026-04-12T07:22:43Z</time></trkpt><trkpt lat="-30.996827745917816" lon="115.32645883558901"><ele>11.0</ele><time>2026-04-12T07:22:44Z</time></trkpt><trkpt lat="-30.996734944603034" lon="115.32642371188746"><ele>11.0</ele><time>2026-04-12T07:22:45Z</time></trkpt><trkpt lat="-30.996642786746786" lon="115.32638917306168"><ele>10.4</ele><time>2026-04-12T07:22:46Z</time></trkpt><trkpt lat="-30.996547860036898" lon="115.3263538067794"><ele>9.8</ele><time>2026-04-12T07:22:47Z</time></trkpt><trkpt lat="-30.996452570095506" lon="115.32631863271052"><ele>9.200000000000001</ele><time>2026-04-12T07:22:48Z</time></trkpt><trkpt lat="-30.99636534011844" lon="115.32628447691089"><ele>8.600000000000001</ele><time>2026-04-12T07:22:49Z</time></trkpt><trkpt lat="-30.99626771403171" lon="115.32624606855342"><ele>8.0</ele><time>2026-04-12T07:22:50Z</time></trkpt><trkpt lat="-30.99615226757729" lon="115.32619958023626"><ele>8.0</ele><time>2026-04-12T07:22:51Z</time></trkpt><trkpt lat="-30.99602909001987" lon="115.32614718091345"><ele>8.0</ele><time>2026-04-12T07:22:52Z</time></trkpt><trkpt lat="-30.99592509362829" lon="115.32610122290914"><ele>8.0</ele><time>2026-04-12T07:22:53Z</time></trkpt><trkpt lat="-30.995835235064355" lon="115.32606091155223"><ele>8.0</ele><time>2026-04-12T07:22:54Z</time></trkpt><trkpt lat="-30.99574281975661" lon="115.3260184106996"><ele>8.0</ele><time>2026-04-12T07:22:55Z</time></trkpt><trkpt lat="-30.99564618339379" lon="115.32597243777359"><ele>8.75</ele><time>2026-04-12T07:22:56Z</time></trkpt><trkpt lat="-30.995474405764522" lon="115.32611181507359"><ele>9.5</ele><time>2026-04-12T07:22:57Z</time></trkpt><trkpt lat="-30.9953673388636" lon="115.32606091127435"><ele>10.25</ele><time>2026-04-12T07:22:58Z</time></trkpt><trkpt lat="-30.99525741529552" lon="115.3260045709716"><ele>11.0</ele><time>2026-04-12T07:22:59Z</time></trkpt><trkpt lat="-30.995144039147714" lon="115.3259416770425"><ele>11.0</ele><time>2026-04-12T07:23:00Z</time></trkpt><trkpt lat="-30.995024442585645" lon="115.32586922269178"><ele>11.0</ele><time>2026-04-12T07:23:01Z</time></trkpt><trkpt lat="-30.994898965706167" lon="115.32579231536172"><ele>11.0</ele><time>2026-04-12T07:23:02Z</time></trkpt><trkpt lat="-30.994786486269998" lon="115.32572710378801"><ele>11.0</ele><time>2026-04-12T07:23:03Z</time></trkpt><trkpt lat="-30.99466578450301" lon="115.32566399629403"><ele>10.75</ele><time>2026-04-12T07:23:04Z</time></trkpt><trkpt lat="-30.994541591800395" lon="115.32559807353609"><ele>10.5</ele><time>2026-04-12T07:23:05Z</time></trkpt><trkpt lat="-30.994410957452676" lon="115.32552503859783"><ele>10.25</ele><time>2026-04-12T07:23:06Z</time></trkpt><trkpt lat="-30.994278898647863" lon="115.32545179400742"><ele>10.0</ele><time>2026-04-12T07:23:07Z</time></trkpt><trkpt lat="-30.994141893045768" lon="115.32537591542678"><ele>10.0</ele><time>2026-04-12T07:23:08Z</time></trkpt><trkpt lat="-30.994009743485385" lon="115.3253039425231"><ele>10.0</ele><time>2026-04-12T07:23:09Z</time></trkpt><trkpt lat="-30.993868703610755" lon="115.32522503717648"><ele>10.0</ele><time>2026-04-12T07:23:10Z</time></trkpt><trkpt lat="-30.993802540161727" lon="115.32498443877132"><ele>10.0</ele><time>2026-04-12T07:23:11Z</time></trkpt><trkpt lat="-30.99368520395818" lon="115.32491438295142"><ele>10.0</ele><time>2026-04-12T07:23:12Z</time></trkpt><trkpt lat="-30.99356906148162" lon="115.32484392669039"><ele>10.0</ele><time>2026-04-12T07:23:13Z</time></trkpt><trkpt lat="-30.993461209281758" lon="115.3247771153857"><ele>10.0</ele><time>2026-04-12T07:23:14Z</time></trkpt><trkpt lat="-30.993351667874965" lon="115.32470659678286"><ele>9.25</ele><time>2026-04-12T07:23:15Z</time></trkpt><trkpt lat="-30.993241786026218" lon="115.32463428498782"><ele>8.5</ele><time>2026-04-12T07:23:16Z</time></trkpt><trkpt lat="-30.993138147610157" lon="115.32456466920704"><ele>7.75</ele><time>2026-04-12T07:23:17Z</time></trkpt><trkpt lat="-30.99303347305769" lon="115.32449138080916"><ele>7.0</ele><time>2026-04-12T07:23:18Z</time></trkpt><trkpt lat="-30.99293365748405" lon="115.3244190428318"><ele>7.0</ele><time>2026-04-12T07:23:19Z</time></trkpt><trkpt lat="-30.992826632509633" lon="115.32434144951198"><ele>7.0</ele><time>2026-04-12T07:23:20Z</time></trkpt><trkpt lat="-30.992719236579177" lon="115.32426259567764"><ele>7.0</ele><time>2026-04-12T07:23:21Z</time></trkpt><trkpt lat="-30.992615909261225" lon="115.32418672923194"><ele>7.0</ele><time>2026-04-12T07:23:22Z</time></trkpt><trkpt lat="-30.99250968801251" lon="115.32410913974351"><ele>7.25</ele><time>2026-04-12T07:23:23Z</time></trkpt><trkpt lat="-30.992403480718178" lon="115.32403194449303"><ele>7.5</ele><time>2026-04-12T07:23:24Z</time></trkpt><trkpt lat="-30.99229876369668" lon="115.32395476842623"><ele>7.75</ele><time>2026-04-12T07:23:25Z</time></trkpt><trkpt lat="-30.992202213750655" lon="115.32387969074513"><ele>8.0</ele><time>2026-04-12T07:23:26Z</time></trkpt><trkpt lat="-30.992095084232115" lon="115.32379195795961"><ele>7.5</ele><time>2026-04-12T07:23:27Z</time></trkpt><trkpt lat="-30.99200050909026" lon="115.32371287425124"><ele>7.0</ele><time>2026-04-12T07:23:28Z</time></trkpt><trkpt lat="-30.991909069538732" lon="115.32363480307387"><ele>6.5</ele><time>2026-04-12T07:23:29Z</time></trkpt><trkpt lat="-30.99181815206017" lon="115.32355410862769"><ele>6.0</ele><time>2026-04-12T07:23:30Z</time></trkpt><trkpt lat="-30.99173410627517" lon="115.32347755730362"><ele>6.199999999999999</ele><time>2026-04-12T07:23:31Z</time></trkpt><trkpt lat="-30.991655431834367" lon="115.32340351933219"><ele>6.3999999999999995</ele><time>2026-04-12T07:23:32Z</time></trkpt><trkpt lat="-30.99158713277355" lon="115.32333691595633"><ele>6.6</ele><time>2026-04-12T07:23:33Z</time></trkpt><trkpt lat="-30.991516230413474" lon="115.32326198615084"><ele>6.8</ele><time>2026-04-12T07:23:34Z</time></trkpt><trkpt lat="-30.99145262797701" lon="115.32319229375906"><ele>7.0</ele><time>2026-04-12T07:23:35Z</time></trkpt><trkpt lat="-30.99139735950949" lon="115.32311385975316"><ele>6.6</ele><time>2026-04-12T07:23:36Z</time></trkpt><trkpt lat="-30.991342854932885" lon="115.32301930417302"><ele>6.199999999999999</ele><time>2026-04-12T07:23:37Z</time></trkpt><trkpt lat="-30.99128284247422" lon="115.32291075983338"><ele>5.8</ele><time>2026-04-12T07:23:38Z</time></trkpt><trkpt lat="-30.991207797150416" lon="115.32280689250253"><ele>5.4</ele><time>2026-04-12T07:23:39Z</time></trkpt><trkpt lat="-30.991123885812467" lon="115.32270492168585"><ele>5.0</ele><time>2026-04-12T07:23:40Z</time></trkpt><trkpt lat="-30.991024647423128" lon="115.32258651203044"><ele>5.0</ele><time>2026-04-12T07:23:41Z</time></trkpt><trkpt lat="-30.990906021782934" lon="115.32248746589853"><ele>5.0</ele><time>2026-04-12T07:23:42Z</time></trkpt><trkpt lat="-30.990767236215188" lon="115.32242188858795"><ele>5.0</ele><time>2026-04-12T07:23:43Z</time></trkpt><trkpt lat="-30.990623807397043" lon="115.32235548484473"><ele>5.333333333333334</ele><time>2026-04-12T07:23:44Z</time></trkpt><trkpt lat="-30.99046989616753" lon="115.32232738609508"><ele>5.666666666666667</ele><time>2026-04-12T07:23:45Z</time></trkpt><trkpt lat="-30.990300297251387" lon="115.32229086885744"><ele>6.0</ele><time>2026-04-12T07:23:46Z</time></trkpt><trkpt lat="-30.990147845581458" lon="115.322252659503"><ele>4.5</ele><time>2026-04-12T07:23:47Z</time></trkpt><trkpt lat="-30.990042438817618" lon="115.32184362637018"><ele>3.0</ele><time>2026-04-12T07:23:48Z</time></trkpt><trkpt lat="-30.98990115617992" lon="115.32175436462268"><ele>3.0</ele><time>2026-04-12T07:23:49Z</time></trkpt><trkpt lat="-30.98975205736982" lon="115.32165928524724"><ele>3.0</ele><time>2026-04-12T07:23:50Z</time></trkpt><trkpt lat="-30.989621304200966" lon="115.32156515839273"><ele>3.0</ele><time>2026-04-12T07:23:51Z</time></trkpt><trkpt lat="-30.98951271128207" lon="115.32148227785825"><ele>3.0</ele><time>2026-04-12T07:23:52Z</time></trkpt><trkpt lat="-30.989425503746826" lon="115.32140325892512"><ele>3.0</ele><time>2026-04-12T07:23:53Z</time></trkpt><trkpt lat="-30.98935835853064" lon="115.32133542704248"><ele>3.0</ele><time>2026-04-12T07:23:54Z</time></trkpt><trkpt lat="-30.98929687036323" lon="115.32126734805054"><ele>3.0</ele><time>2026-04-12T07:23:55Z</time></trkpt><trkpt lat="-30.98924487920087" lon="115.32117794282172"><ele>3.0</ele><time>2026-04-12T07:23:57Z</time></trkpt><trkpt lat="-30.989185462942757" lon="115.32120458292093"><ele>3.0</ele><time>2026-04-12T07:25:15Z</time></trkpt><trkpt lat="-30.989243334883238" lon="115.32117080531627"><ele>3.0</ele><time>2026-04-12T07:29:03Z</time></trkpt><trkpt lat="-30.989277702278034" lon="115.3212337554947"><ele>3.0</ele><time>2026-04-12T07:30:22.999Z</time></trkpt><trkpt lat="-30.98931829064938" lon="115.32129045521143"><ele>3.0</ele><time>2026-04-12T07:30:24.999Z</time></trkpt><trkpt lat="-30.989354038488333" lon="115.32135190227629"><ele>3.0</ele><time>2026-04-12T07:30:26.999Z</time></trkpt><trkpt lat="-30.98942200265853" lon="115.32143503931943"><ele>3.0</ele><time>2026-04-12T07:30:28.999Z</time></trkpt><trkpt lat="-30.989493735727372" lon="115.32150681651663"><ele>3.0</ele><time>2026-04-12T07:30:30.999Z</time></trkpt><trkpt lat="-30.989592632593332" lon="115.3215949608232"><ele>3.0</ele><time>2026-04-12T07:30:32.999Z</time></trkpt><trkpt lat="-30.98965517746645" lon="115.32164303661672"><ele>3.0</ele><time>2026-04-12T07:30:33.999Z</time></trkpt><trkpt lat="-30.98972885459919" lon="115.32169343953123"><ele>3.0</ele><time>2026-04-12T07:30:34.999Z</time></trkpt><trkpt lat="-30.98980933623969" lon="115.32174225755462"><ele>3.0</ele><time>2026-04-12T07:30:35.999Z</time></trkpt><trkpt lat="-30.989893642511824" lon="115.32179192728185"><ele>3.0</ele><time>2026-04-12T07:30:36.999Z</time></trkpt><trkpt lat="-30.98998685008562" lon="115.32184650491801"><ele>2.8</ele><time>2026-04-12T07:30:37.999Z</time></trkpt><trkpt lat="-30.99007664114157" lon="115.32191662803349"><ele>2.5999999999999996</ele><time>2026-04-12T07:30:38.999Z</time></trkpt><trkpt lat="-30.990160437532637" lon="115.32199443221336"><ele>2.4000000000000004</ele><time>2026-04-12T07:30:39.999Z</time></trkpt><trkpt lat="-30.990235160374674" lon="115.32206420619245"><ele>2.2</ele><time>2026-04-12T07:30:41Z</time></trkpt><trkpt lat="-30.990302752612482" lon="115.32212613704164"><ele>2.0</ele><time>2026-04-12T07:30:42Z</time></trkpt><trkpt lat="-30.990367400231154" lon="115.32217469795619"><ele>1.9999999999999998</ele><time>2026-04-12T07:30:43Z</time></trkpt><trkpt lat="-30.990432944200723" lon="115.32221938859568"><ele>2.0</ele><time>2026-04-12T07:30:44Z</time></trkpt><trkpt lat="-30.990495887473223" lon="115.32225818445016"><ele>2.0</ele><time>2026-04-12T07:30:45Z</time></trkpt><trkpt lat="-30.990556015839147" lon="115.32229898956909"><ele>2.0</ele><time>2026-04-12T07:30:46Z</time></trkpt><trkpt lat="-30.99062321443343" lon="115.32234646178172"><ele>1.9999999999999998</ele><time>2026-04-12T07:30:47Z</time></trkpt><trkpt lat="-30.990701401890156" lon="115.32240604663927"><ele>2.0</ele><time>2026-04-12T07:30:48Z</time></trkpt><trkpt lat="-30.990784600392978" lon="115.32246686104119"><ele>2.6</ele><time>2026-04-12T07:30:49Z</time></trkpt><trkpt lat="-30.99087118551301" lon="115.32252745881468"><ele>3.2</ele><time>2026-04-12T07:30:50Z</time></trkpt><trkpt lat="-30.990956216805003" lon="115.32258831046808"><ele>3.8</ele><time>2026-04-12T07:30:51Z</time></trkpt><trkpt lat="-30.991031635593885" lon="115.32264565264538"><ele>4.4</ele><time>2026-04-12T07:30:52Z</time></trkpt><trkpt lat="-30.991113445784006" lon="115.32271686988703"><ele>5.0</ele><time>2026-04-12T07:30:53Z</time></trkpt><trkpt lat="-30.991188374890577" lon="115.32279910469849"><ele>5.0</ele><time>2026-04-12T07:30:54Z</time></trkpt><trkpt lat="-30.99124066823352" lon="115.32288527756786"><ele>5.0</ele><time>2026-04-12T07:30:55Z</time></trkpt><trkpt lat="-30.991286563004476" lon="115.32297993290064"><ele>5.0</ele><time>2026-04-12T07:30:56Z</time></trkpt><trkpt lat="-30.99133277340953" lon="115.32308887704029"><ele>5.0</ele><time>2026-04-12T07:30:57Z</time></trkpt><trkpt lat="-30.991380687451112" lon="115.32318368581561"><ele>5.0</ele><time>2026-04-12T07:30:58Z</time></trkpt><trkpt lat="-30.991424123142306" lon="115.3232436694226"><ele>5.4</ele><time>2026-04-12T07:30:59Z</time></trkpt><trkpt lat="-30.991474672691155" lon="115.32329980981235"><ele>5.8</ele><time>2026-04-12T07:31:01Z</time></trkpt><trkpt lat="-30.99129086526388" lon="115.32339574440904"><ele>6.199999999999999</ele><time>2026-04-12T07:31:39Z</time></trkpt><trkpt lat="-30.99123145807429" lon="115.32336538335946"><ele>6.6</ele><time>2026-04-12T07:31:40Z</time></trkpt><trkpt lat="-30.991150023829192" lon="115.32333730269633"><ele>7.0</ele><time>2026-04-12T07:31:41Z</time></trkpt><trkpt lat="-30.99106648468203" lon="115.32330028708101"><ele>7.0</ele><time>2026-04-12T07:31:42Z</time></trkpt><trkpt lat="-30.990980271387368" lon="115.32325104858053"><ele>6.999999999999999</ele><time>2026-04-12T07:31:43Z</time></trkpt><trkpt lat="-30.99089081959086" lon="115.32320180712576"><ele>6.999999999999999</ele><time>2026-04-12T07:31:44Z</time></trkpt><trkpt lat="-30.990788808143645" lon="115.32315101234025"><ele>7.0</ele><time>2026-04-12T07:31:45Z</time></trkpt><trkpt lat="-30.99069999633967" lon="115.32310608905598"><ele>7.0</ele><time>2026-04-12T07:31:46Z</time></trkpt><trkpt lat="-30.99061699940328" lon="115.32306344317243"><ele>6.833333333333334</ele><time>2026-04-12T07:31:47Z</time></trkpt><trkpt lat="-30.990539605595995" lon="115.32301430464868"><ele>6.666666666666667</ele><time>2026-04-12T07:31:48Z</time></trkpt><trkpt lat="-30.990479031250953" lon="115.32295857282071"><ele>6.5</ele><time>2026-04-12T07:31:49Z</time></trkpt><trkpt lat="-30.990417301763827" lon="115.32290021901436"><ele>6.333333333333334</ele><time>2026-04-12T07:31:50Z</time></trkpt><trkpt lat="-30.990346624211597" lon="115.32284958085846"><ele>6.166666666666667</ele><time>2026-04-12T07:31:51Z</time></trkpt><trkpt lat="-30.990260626777978" lon="115.32280484583698"><ele>6.0</ele><time>2026-04-12T07:31:52Z</time></trkpt><trkpt lat="-30.990176521371183" lon="115.32278304553884"><ele>6.0</ele><time>2026-04-12T07:31:53Z</time></trkpt><trkpt lat="-30.99009386178676" lon="115.3227747251268"><ele>6.0</ele><time>2026-04-12T07:31:54Z</time></trkpt><trkpt lat="-30.990016850029203" lon="115.32274062357325"><ele>6.0</ele><time>2026-04-12T07:31:55Z</time></trkpt><trkpt lat="-30.989934205431812" lon="115.32273341552404"><ele>6.0</ele><time>2026-04-12T07:31:56Z</time></trkpt><trkpt lat="-30.989839652095153" lon="115.32272007750824"><ele>6.0</ele><time>2026-04-12T07:31:57Z</time></trkpt><trkpt lat="-30.989758173533605" lon="115.3227037311289"><ele>6.0</ele><time>2026-04-12T07:31:58Z</time></trkpt><trkpt lat="-30.989694010846556" lon="115.32268942987443"><ele>6.5</ele><time>2026-04-12T07:31:59Z</time></trkpt><trkpt lat="-30.989630798099842" lon="115.32267564770204"><ele>7.0</ele><time>2026-04-12T07:32:00Z</time></trkpt><trkpt lat="-30.989523349642038" lon="115.3226396237969"><ele>7.5</ele><time>2026-04-12T07:32:02Z</time></trkpt><trkpt lat="-30.98945844280339" lon="115.32262236769338"><ele>8.0</ele><time>2026-04-12T07:32:03Z</time></trkpt><trkpt lat="-30.989386763209502" lon="115.32260282683444"><ele>8.5</ele><time>2026-04-12T07:32:04Z</time></trkpt><trkpt lat="-30.989319105843506" lon="115.32259425615447"><ele>9.0</ele><time>2026-04-12T07:32:23Z</time></trkpt><trkpt lat="-30.98923586961958" lon="115.32256733705712"><ele>9.857142857142858</ele><time>2026-04-12T07:32:29Z</time></trkpt><trkpt lat="-30.98917537743486" lon="115.32252688497755"><ele>10.714285714285715</ele><time>2026-04-12T07:32:31Z</time></trkpt><trkpt lat="-30.989112943077718" lon="115.32251290942713"><ele>11.571428571428573</ele><time>2026-04-12T07:32:51Z</time></trkpt><trkpt lat="-30.98904199879146" lon="115.3224785987176"><ele>12.428571428571429</ele><time>2026-04-12T07:32:57Z</time></trkpt><trkpt lat="-30.98897399826127" lon="115.32244407180082"><ele>13.285714285714285</ele><time>2026-04-12T07:33:00Z</time></trkpt><trkpt lat="-30.988903965496526" lon="115.32242015059703"><ele>14.142857142857144</ele><time>2026-04-12T07:33:02Z</time></trkpt><trkpt lat="-30.988832722103606" lon="115.32238255928401"><ele>15.0</ele><time>2026-04-12T07:33:05Z</time></trkpt><trkpt lat="-30.988767373987084" lon="115.32235065561868"><ele>15.0</ele><time>2026-04-12T07:33:13Z</time></trkpt><trkpt lat="-30.988708307104876" lon="115.322323134063"><ele>15.0</ele><time>2026-04-12T07:33:15Z</time></trkpt><trkpt lat="-30.98865029438634" lon="115.32229141409248"><ele>15.0</ele><time>2026-04-12T07:33:18Z</time></trkpt><trkpt lat="-30.98859012782173" lon="115.32221562841342"><ele>15.0</ele><time>2026-04-12T07:33:21Z</time></trkpt><trkpt lat="-30.988534528761978" lon="115.32216989956568"><ele>15.0</ele><time>2026-04-12T07:33:31Z</time></trkpt><trkpt lat="-30.98847521391582" lon="115.32213947499353"><ele>15.0</ele><time>2026-04-12T07:33:53Z</time></trkpt><trkpt lat="-30.988415925849257" lon="115.32208921669807"><ele>15.0</ele><time>2026-04-12T07:34:01Z</time></trkpt><trkpt lat="-30.988325688016094" lon="115.32205307560545"><ele>14.8</ele><time>2026-04-12T07:34:04Z</time></trkpt><trkpt lat="-30.98821820175924" lon="115.32201187948732"><ele>14.6</ele><time>2026-04-12T07:34:06Z</time></trkpt><trkpt lat="-30.988141253926297" lon="115.32198963184216"><ele>14.399999999999999</ele><time>2026-04-12T07:34:07Z</time></trkpt><trkpt lat="-30.988068292275372" lon="115.32192980066573"><ele>14.2</ele><time>2026-04-12T07:34:08Z</time></trkpt><trkpt lat="-30.98799993900341" lon="115.32190572929035"><ele>14.0</ele><time>2026-04-12T07:34:09Z</time></trkpt><trkpt lat="-30.98789467496507" lon="115.32188805943369"><ele>14.000000000000002</ele><time>2026-04-12T07:34:11Z</time></trkpt><trkpt lat="-30.987830149543537" lon="115.32189004596064"><ele>14.0</ele><time>2026-04-12T07:34:22Z</time></trkpt><trkpt lat="-30.987746554982778" lon="115.32188522144004"><ele>14.0</ele><time>2026-04-12T07:34:25Z</time></trkpt><trkpt lat="-30.987683760562795" lon="115.32185729380329"><ele>14.0</ele><time>2026-04-12T07:34:27Z</time></trkpt><trkpt lat="-30.98759930998967" lon="115.32177158294039"><ele>14.000000000000002</ele><time>2026-04-12T07:34:29Z</time></trkpt><trkpt lat="-30.987541678387814" lon="115.3216882886881"><ele>14.0</ele><time>2026-04-12T07:34:31Z</time></trkpt><trkpt lat="-30.987496741697047" lon="115.32161092089486"><ele>13.857142857142858</ele><time>2026-04-12T07:34:34Z</time></trkpt><trkpt lat="-30.98747473244196" lon="115.32154207683988"><ele>13.714285714285715</ele><time>2026-04-12T07:34:36Z</time></trkpt><trkpt lat="-30.98745490954391" lon="115.32146051221069"><ele>13.571428571428571</ele><time>2026-04-12T07:34:40Z</time></trkpt><trkpt lat="-30.98744713009085" lon="115.32138293452424"><ele>13.428571428571429</ele><time>2026-04-12T07:34:42Z</time></trkpt><trkpt lat="-30.987396836081334" lon="115.32132506621473"><ele>13.285714285714286</ele><time>2026-04-12T07:34:45Z</time></trkpt><trkpt lat="-30.987326857907338" lon="115.32134082023094"><ele>13.142857142857142</ele><time>2026-04-12T07:34:59Z</time></trkpt><trkpt lat="-30.987263536823075" lon="115.32139760205061"><ele>13.0</ele><time>2026-04-12T07:35:03Z</time></trkpt><trkpt lat="-30.987177286551816" lon="115.32145015092667"><ele>12.999999999999998</ele><time>2026-04-12T07:35:05Z</time></trkpt><trkpt lat="-30.987072754699966" lon="115.32141080697821"><ele>13.0</ele><time>2026-04-12T07:35:07Z</time></trkpt><trkpt lat="-30.987017434186125" lon="115.32136393599865"><ele>13.0</ele><time>2026-04-12T07:35:08Z</time></trkpt><trkpt lat="-30.986927303759956" lon="115.32136300410522"><ele>13.0</ele><time>2026-04-12T07:35:10Z</time></trkpt><trkpt lat="-30.986862431822495" lon="115.32139194443307"><ele>12.999999999999998</ele><time>2026-04-12T07:35:11Z</time></trkpt><trkpt lat="-30.986792182471284" lon="115.32141331999756"><ele>13.0</ele><time>2026-04-12T07:35:12Z</time></trkpt><trkpt lat="-30.98671488890495" lon="115.32141525484403"><ele>11.999999999999998</ele><time>2026-04-12T07:35:13Z</time></trkpt><trkpt lat="-30.986648042848614" lon="115.32140843596133"><ele>11.0</ele><time>2026-04-12T07:35:14Z</time></trkpt><trkpt lat="-30.986593083448124" lon="115.32145681958666"><ele>10.0</ele><time>2026-04-12T07:35:36Z</time></trkpt><trkpt lat="-30.986546797147017" lon="115.32151833892856"><ele>9.0</ele><time>2026-04-12T07:35:39Z</time></trkpt><trkpt lat="-30.986450837940566" lon="115.32155969380837"><ele>8.0</ele><time>2026-04-12T07:35:42Z</time></trkpt><trkpt lat="-30.986378778927417" lon="115.32151792246384"><ele>7.0</ele><time>2026-04-12T07:35:43Z</time></trkpt><trkpt lat="-30.986310157897233" lon="115.32151348244747"><ele>7.000000000000001</ele><time>2026-04-12T07:35:44Z</time></trkpt><trkpt lat="-30.986241075564934" lon="115.32151223142938"><ele>7.0</ele><time>2026-04-12T07:35:45Z</time></trkpt><trkpt lat="-30.9861597974297" lon="115.32151145278954"><ele>7.0</ele><time>2026-04-12T07:35:46Z</time></trkpt><trkpt lat="-30.986071549514648" lon="115.32152599657793"><ele>7.0</ele><time>2026-04-12T07:35:47Z</time></trkpt><trkpt lat="-30.985986392472757" lon="115.32152578919539"><ele>7.000000000000001</ele><time>2026-04-12T07:35:48Z</time></trkpt><trkpt lat="-30.985917337680313" lon="115.32153737317657"><ele>7.0</ele><time>2026-04-12T07:35:49Z</time></trkpt><trkpt lat="-30.98585034646868" lon="115.32156126039831"><ele>6.833333333333334</ele><time>2026-04-12T07:35:50Z</time></trkpt><trkpt lat="-30.985784661997027" lon="115.32158152952238"><ele>6.666666666666667</ele><time>2026-04-12T07:35:51Z</time></trkpt><trkpt lat="-30.985710931370672" lon="115.32161247201383"><ele>6.5</ele><time>2026-04-12T07:35:52Z</time></trkpt><trkpt lat="-30.985646399363038" lon="115.32165600670925"><ele>6.333333333333334</ele><time>2026-04-12T07:35:53Z</time></trkpt><trkpt lat="-30.985596278838457" lon="115.32171700854485"><ele>6.166666666666667</ele><time>2026-04-12T07:35:54Z</time></trkpt><trkpt lat="-30.985542234549374" lon="115.32178534074754"><ele>6.0</ele><time>2026-04-12T07:35:55Z</time></trkpt><trkpt lat="-30.985476106763727" lon="115.32185144119481"><ele>6.0</ele><time>2026-04-12T07:35:56Z</time></trkpt><trkpt lat="-30.985421777407954" lon="115.32190029748536"><ele>6.0</ele><time>2026-04-12T07:35:57Z</time></trkpt><trkpt lat="-30.985348311074148" lon="115.32195695794992"><ele>6.0</ele><time>2026-04-12T07:35:58Z</time></trkpt><trkpt lat="-30.985257348774688" lon="115.32201720706917"><ele>6.0</ele><time>2026-04-12T07:35:59Z</time></trkpt><trkpt lat="-30.985168973271254" lon="115.32206906000299"><ele>6.0</ele><time>2026-04-12T07:36:00Z</time></trkpt><trkpt lat="-30.98508681318828" lon="115.32211851823152"><ele>6.0</ele><time>2026-04-12T07:36:01Z</time></trkpt><trkpt lat="-30.98501527228568" lon="115.32215943497351"><ele>6.0</ele><time>2026-04-12T07:36:02Z</time></trkpt><trkpt lat="-30.984948462283207" lon="115.32218546268541"><ele>6.0</ele><time>2026-04-12T07:36:03Z</time></trkpt><trkpt lat="-30.984876226523358" lon="115.32217213688743"><ele>6.0</ele><time>2026-04-12T07:36:04Z</time></trkpt><trkpt lat="-30.984739070210825" lon="115.32216537722637"><ele>6.0</ele><time>2026-04-12T07:36:06Z</time></trkpt><trkpt lat="-30.98465928721512" lon="115.3221339749757"><ele>6.0</ele><time>2026-04-12T07:36:07Z</time></trkpt><trkpt lat="-30.98457697059829" lon="115.32211214471006"><ele>5.999999999999999</ele><time>2026-04-12T07:36:08Z</time></trkpt><trkpt lat="-30.984505601438375" lon="115.32210316626748"><ele>6.0</ele><time>2026-04-12T07:36:09Z</time></trkpt><trkpt lat="-30.98443660837" lon="115.32210057933968"><ele>6.0</ele><time>2026-04-12T07:36:10Z</time></trkpt><trkpt lat="-30.984367676575662" lon="115.32209475008361"><ele>6.0</ele><time>2026-04-12T07:36:11Z</time></trkpt><trkpt lat="-30.98429830251941" lon="115.32209543173592"><ele>6.0</ele><time>2026-04-12T07:36:12Z</time></trkpt><trkpt lat="-30.984231077397805" lon="115.32209845832342"><ele>5.999999999999999</ele><time>2026-04-12T07:36:13Z</time></trkpt><trkpt lat="-30.98415088298748" lon="115.32208539230318"><ele>6.0</ele><time>2026-04-12T07:36:14Z</time></trkpt><trkpt lat="-30.984068936661032" lon="115.32206771375864"><ele>6.25</ele><time>2026-04-12T07:36:15Z</time></trkpt><trkpt lat="-30.983970777343842" lon="115.32205008364113"><ele>6.5</ele><time>2026-04-12T07:36:16Z</time></trkpt><trkpt lat="-30.983848285936116" lon="115.32202746277206"><ele>6.75</ele><time>2026-04-12T07:36:17Z</time></trkpt><trkpt lat="-30.983722038624457" lon="115.32200944175796"><ele>7.0</ele><time>2026-04-12T07:36:18Z</time></trkpt><trkpt lat="-30.983614663898294" lon="115.32199194470749"><ele>7.0</ele><time>2026-04-12T07:36:19Z</time></trkpt><trkpt lat="-30.98351139720677" lon="115.32198437645735"><ele>6.999999999999999</ele><time>2026-04-12T07:36:20Z</time></trkpt><trkpt lat="-30.983409012358273" lon="115.32195946398834"><ele>6.999999999999999</ele><time>2026-04-12T07:36:21Z</time></trkpt><trkpt lat="-30.983314565525834" lon="115.32194669252365"><ele>7.0</ele><time>2026-04-12T07:36:22Z</time></trkpt><trkpt lat="-30.983220121949778" lon="115.32193392150705"><ele>7.0</ele><time>2026-04-12T07:36:23Z</time></trkpt><trkpt lat="-30.98313429823265" lon="115.32195229440343"><ele>7.199999999999999</ele><time>2026-04-12T07:36:24Z</time></trkpt><trkpt lat="-30.983055006418912" lon="115.32193905216843"><ele>7.3999999999999995</ele><time>2026-04-12T07:36:25Z</time></trkpt><trkpt lat="-30.98296978854724" lon="115.32192572653011"><ele>7.6000000000000005</ele><time>2026-04-12T07:36:26Z</time></trkpt><trkpt lat="-30.9828710770918" lon="115.32191656748884"><ele>7.800000000000001</ele><time>2026-04-12T07:36:27Z</time></trkpt><trkpt lat="-30.98276231969359" lon="115.32190923237854"><ele>8.0</ele><time>2026-04-12T07:36:28Z</time></trkpt><trkpt lat="-30.982664958741918" lon="115.32189807780846"><ele>8.0</ele><time>2026-04-12T07:36:29Z</time></trkpt><trkpt lat="-30.982578423369336" lon="115.3218827989884"><ele>8.0</ele><time>2026-04-12T07:36:30Z</time></trkpt><trkpt lat="-30.98248003236757" lon="115.32186511249196"><ele>8.0</ele><time>2026-04-12T07:36:31Z</time></trkpt><trkpt lat="-30.982388780339654" lon="115.32184928033253"><ele>8.0</ele><time>2026-04-12T07:36:32Z</time></trkpt><trkpt lat="-30.982282907474282" lon="115.32184115301934"><ele>8.0</ele><time>2026-04-12T07:36:33Z</time></trkpt><trkpt lat="-30.98217466003142" lon="115.32182238203248"><ele>8.200000000000001</ele><time>2026-04-12T07:36:34Z</time></trkpt><trkpt lat="-30.982079461333306" lon="115.32180607895161"><ele>8.4</ele><time>2026-04-12T07:36:35Z</time></trkpt><trkpt lat="-30.98198951028952" lon="115.32179347017312"><ele>8.600000000000001</ele><time>2026-04-12T07:36:36Z</time></trkpt><trkpt lat="-30.981901113902207" lon="115.32177883685036"><ele>8.8</ele><time>2026-04-12T07:36:37Z</time></trkpt><trkpt lat="-30.981811393519195" lon="115.32176552737755"><ele>9.0</ele><time>2026-04-12T07:36:38Z</time></trkpt><trkpt lat="-30.981714441431013" lon="115.3217560803248"><ele>8.833333333333334</ele><time>2026-04-12T07:36:39Z</time></trkpt><trkpt lat="-30.981610193261613" lon="115.32175240738982"><ele>8.666666666666666</ele><time>2026-04-12T07:36:40Z</time></trkpt><trkpt lat="-30.981514156308496" lon="115.32175732203369"><ele>8.5</ele><time>2026-04-12T07:36:41Z</time></trkpt><trkpt lat="-30.98143169112156" lon="115.32176329771214"><ele>8.333333333333332</ele><time>2026-04-12T07:36:42Z</time></trkpt><trkpt lat="-30.98135502759531" lon="115.32175781453978"><ele>8.166666666666666</ele><time>2026-04-12T07:36:43Z</time></trkpt><trkpt lat="-30.981286839387632" lon="115.32172726699862"><ele>8.0</ele><time>2026-04-12T07:36:44Z</time></trkpt><trkpt lat="-30.981209724849656" lon="115.32168614398432"><ele>8.0</ele><time>2026-04-12T07:36:45Z</time></trkpt><trkpt lat="-30.981109770460442" lon="115.32165581429373"><ele>8.0</ele><time>2026-04-12T07:36:46Z</time></trkpt><trkpt lat="-30.98098616393938" lon="115.32164839185704"><ele>8.0</ele><time>2026-04-12T07:36:47Z</time></trkpt><trkpt lat="-30.98085350704381" lon="115.32165347484114"><ele>8.0</ele><time>2026-04-12T07:36:48Z</time></trkpt><trkpt lat="-30.98072989247926" lon="115.32163942975191"><ele>8.0</ele><time>2026-04-12T07:36:49Z</time></trkpt><trkpt lat="-30.98061190817463" lon="115.3216115975134"><ele>8.0</ele><time>2026-04-12T07:36:50Z</time></trkpt><trkpt lat="-30.980510693283858" lon="115.32157341549905"><ele>8.0</ele><time>2026-04-12T07:36:51Z</time></trkpt><trkpt lat="-30.980420367459825" lon="115.32154849226688"><ele>8.0</ele><time>2026-04-12T07:36:52Z</time></trkpt><trkpt lat="-30.98032023003461" lon="115.32154146490933"><ele>8.0</ele><time>2026-04-12T07:36:53Z</time></trkpt><trkpt lat="-30.980212506549737" lon="115.32154195712556"><ele>8.0</ele><time>2026-04-12T07:36:54Z</time></trkpt><trkpt lat="-30.98011474534472" lon="115.32153951026126"><ele>8.0</ele><time>2026-04-12T07:36:55Z</time></trkpt><trkpt lat="-30.980031073580022" lon="115.32153383816596"><ele>8.0</ele><time>2026-04-12T07:36:56Z</time></trkpt><trkpt lat="-30.979947222573124" lon="115.32152130615242"><ele>8.0</ele><time>2026-04-12T07:36:57Z</time></trkpt><trkpt lat="-30.979855328689613" lon="115.32150364006958"><ele>8.0</ele><time>2026-04-12T07:36:58Z</time></trkpt><trkpt lat="-30.979766651688106" lon="115.32148325647897"><ele>7.999999999999999</ele><time>2026-04-12T07:36:59Z</time></trkpt><trkpt lat="-30.979678908669047" lon="115.32146872743571"><ele>8.0</ele><time>2026-04-12T07:37:00Z</time></trkpt><trkpt lat="-30.97958828809968" lon="115.32145603598183"><ele>8.0</ele><time>2026-04-12T07:37:01Z</time></trkpt><trkpt lat="-30.979504052527272" lon="115.32144618565437"><ele>8.0</ele><time>2026-04-12T07:37:02Z</time></trkpt><trkpt lat="-30.97942749927481" lon="115.32143763489285"><ele>7.999999999999999</ele><time>2026-04-12T07:37:03Z</time></trkpt><trkpt lat="-30.97935770377976" lon="115.3214303994694"><ele>8.0</ele><time>2026-04-12T07:37:04Z</time></trkpt><trkpt lat="-30.979276124164098" lon="115.32141310746167"><ele>7.999999999999999</ele><time>2026-04-12T07:37:05Z</time></trkpt><trkpt lat="-30.97919522189244" lon="115.3213984667048"><ele>8.0</ele><time>2026-04-12T07:37:06Z</time></trkpt><trkpt lat="-30.97912182012779" lon="115.32138077078181"><ele>8.0</ele><time>2026-04-12T07:37:07Z</time></trkpt><trkpt lat="-30.979044501326236" lon="115.32137288389931"><ele>8.0</ele><time>2026-04-12T07:37:08Z</time></trkpt><trkpt lat="-30.978957720029495" lon="115.32136446857196"><ele>7.999999999999999</ele><time>2026-04-12T07:37:09Z</time></trkpt><trkpt lat="-30.978869680017368" lon="115.32135006187194"><ele>8.0</ele><time>2026-04-12T07:37:10Z</time></trkpt><trkpt lat="-30.978786283752083" lon="115.32133518623343"><ele>7.999999999999999</ele><time>2026-04-12T07:37:11Z</time></trkpt><trkpt lat="-30.978708577433263" lon="115.32132916562806"><ele>8.0</ele><time>2026-04-12T07:37:12Z</time></trkpt><trkpt lat="-30.978620658090055" lon="115.32132317398374"><ele>8.0</ele><time>2026-04-12T07:37:13Z</time></trkpt><trkpt lat="-30.978528015571467" lon="115.32131778165042"><ele>8.0</ele><time>2026-04-12T07:37:14Z</time></trkpt><trkpt lat="-30.978437864804654" lon="115.3213042200584"><ele>7.999999999999999</ele><time>2026-04-12T07:37:15Z</time></trkpt><trkpt lat="-30.978352722657064" lon="115.32128683843767"><ele>8.0</ele><time>2026-04-12T07:37:16Z</time></trkpt><trkpt lat="-30.978272881471533" lon="115.32126569088318"><ele>7.666666666666666</ele><time>2026-04-12T07:37:17Z</time></trkpt><trkpt lat="-30.978187360993104" lon="115.32123850170554"><ele>7.333333333333333</ele><time>2026-04-12T07:37:18Z</time></trkpt><trkpt lat="-30.978110699470456" lon="115.3212226579361"><ele>7.0</ele><time>2026-04-12T07:37:19Z</time></trkpt><trkpt lat="-30.97803092329032" lon="115.32122375579718"><ele>6.666666666666666</ele><time>2026-04-12T07:37:20Z</time></trkpt><trkpt lat="-30.97794608616918" lon="115.32122308298045"><ele>6.333333333333333</ele><time>2026-04-12T07:37:21Z</time></trkpt><trkpt lat="-30.97786033393158" lon="115.32121465101733"><ele>6.0</ele><time>2026-04-12T07:37:22Z</time></trkpt><trkpt lat="-30.97778772410825" lon="115.32120506566702"><ele>6.0</ele><time>2026-04-12T07:37:23Z</time></trkpt><trkpt lat="-30.97772261067726" lon="115.32120005203743"><ele>6.0</ele><time>2026-04-12T07:37:24Z</time></trkpt><trkpt lat="-30.977648032159784" lon="115.32119313135844"><ele>6.0</ele><time>2026-04-12T07:37:26Z</time></trkpt><trkpt lat="-30.97755467978733" lon="115.32117600333042"><ele>6.0</ele><time>2026-04-12T07:37:41Z</time></trkpt><trkpt lat="-30.97748476154989" lon="115.32115291835684"><ele>6.0</ele><time>2026-04-12T07:37:42Z</time></trkpt><trkpt lat="-30.977392025794547" lon="115.32113422879453"><ele>6.0</ele><time>2026-04-12T07:37:43Z</time></trkpt><trkpt lat="-30.977291338257697" lon="115.32112323657051"><ele>6.199999999999999</ele><time>2026-04-12T07:37:44Z</time></trkpt><trkpt lat="-30.977189510176203" lon="115.32110017408796"><ele>6.3999999999999995</ele><time>2026-04-12T07:37:45Z</time></trkpt><trkpt lat="-30.97709414724815" lon="115.32108958817362"><ele>6.6</ele><time>2026-04-12T07:37:46Z</time></trkpt><trkpt lat="-30.977005751867903" lon="115.32108056140015"><ele>6.8</ele><time>2026-04-12T07:37:47Z</time></trkpt><trkpt lat="-30.976915936795375" lon="115.32107502159698"><ele>7.0</ele><time>2026-04-12T07:37:48Z</time></trkpt><trkpt lat="-30.976831596226" lon="115.3210655503888"><ele>7.0</ele><time>2026-04-12T07:37:49Z</time></trkpt><trkpt lat="-30.97672624065054" lon="115.32104675812535"><ele>6.999999999999999</ele><time>2026-04-12T07:37:50Z</time></trkpt><trkpt lat="-30.976618835257423" lon="115.3210314112229"><ele>6.999999999999999</ele><time>2026-04-12T07:37:51Z</time></trkpt><trkpt lat="-30.976517791582964" lon="115.32101224334366"><ele>7.0</ele><time>2026-04-12T07:37:52Z</time></trkpt><trkpt lat="-30.976417866386512" lon="115.32096768600229"><ele>7.0</ele><time>2026-04-12T07:37:53Z</time></trkpt><trkpt lat="-30.976310714664432" lon="115.32093550343023"><ele>7.0</ele><time>2026-04-12T07:37:54Z</time></trkpt><trkpt lat="-30.976210244802296" lon="115.32089248827835"><ele>6.999999999999999</ele><time>2026-04-12T07:37:55Z</time></trkpt><trkpt lat="-30.976117472306996" lon="115.32084878603843"><ele>6.999999999999999</ele><time>2026-04-12T07:37:56Z</time></trkpt><trkpt lat="-30.976012034414676" lon="115.32080535074671"><ele>7.0</ele><time>2026-04-12T07:37:57Z</time></trkpt><trkpt lat="-30.9759037621223" lon="115.32077330741258"><ele>7.0</ele><time>2026-04-12T07:37:58Z</time></trkpt><trkpt lat="-30.97580676284592" lon="115.32076393602276"><ele>6.8</ele><time>2026-04-12T07:37:59Z</time></trkpt><trkpt lat="-30.975704447236982" lon="115.32073984516688"><ele>6.6</ele><time>2026-04-12T07:38:00Z</time></trkpt><trkpt lat="-30.975597581053037" lon="115.32073416191568"><ele>6.3999999999999995</ele><time>2026-04-12T07:38:01Z</time></trkpt><trkpt lat="-30.975501514421875" lon="115.320710182429"><ele>6.199999999999999</ele><time>2026-04-12T07:38:02Z</time></trkpt><trkpt lat="-30.97541714309185" lon="115.3206963116794"><ele>6.0</ele><time>2026-04-12T07:38:03Z</time></trkpt><trkpt lat="-30.975339204791524" lon="115.32068122457933"><ele>6.0</ele><time>2026-04-12T07:38:04Z</time></trkpt><trkpt lat="-30.975268623377875" lon="115.32067728432425"><ele>6.0</ele><time>2026-04-12T07:38:05Z</time></trkpt><trkpt lat="-30.97516870634528" lon="115.320646128291"><ele>6.0</ele><time>2026-04-12T07:38:07.001Z</time></trkpt><trkpt lat="-30.975119219831168" lon="115.32080187341906"><ele>6.0</ele><time>2026-04-12T07:38:09.001Z</time></trkpt><trkpt lat="-30.975119237711933" lon="115.32089017955678"><ele>6.0</ele><time>2026-04-12T07:38:10.001Z</time></trkpt><trkpt lat="-30.975116191577744" lon="115.32097818340867"><ele>6.0</ele><time>2026-04-12T07:38:11.001Z</time></trkpt><trkpt lat="-30.97511359612384" lon="115.32106280786775"><ele>6.0</ele><time>2026-04-12T07:38:12.001Z</time></trkpt><trkpt lat="-30.975104525766977" lon="115.32117766019606"><ele>6.0</ele><time>2026-04-12T07:38:13.001Z</time></trkpt><trkpt lat="-30.975102168962938" lon="115.32132069615656"><ele>6.0</ele><time>2026-04-12T07:38:14.001Z</time></trkpt><trkpt lat="-30.975099363647967" lon="115.32147392299676"><ele>6.0</ele><time>2026-04-12T07:38:15.001Z</time></trkpt><trkpt lat="-30.97509156276829" lon="115.32162014062132"><ele>6.0</ele><time>2026-04-12T07:38:16.001Z</time></trkpt><trkpt lat="-30.97508389276103" lon="115.32175829359788"><ele>6.0</ele><time>2026-04-12T07:38:17.001Z</time></trkpt><trkpt lat="-30.975067837717894" lon="115.32190462107762"><ele>6.0</ele><time>2026-04-12T07:38:18.001Z</time></trkpt><trkpt lat="-30.97505293960273" lon="115.32207188003592"><ele>6.0</ele><time>2026-04-12T07:38:19.001Z</time></trkpt><trkpt lat="-30.975039181858126" lon="115.32224504489783"><ele>6.0</ele><time>2026-04-12T07:38:20.001Z</time></trkpt><trkpt lat="-30.975034148403576" lon="115.32240493807257"><ele>6.0</ele><time>2026-04-12T07:38:21.001Z</time></trkpt><trkpt lat="-30.975030435383182" lon="115.32254936660564"><ele>6.0</ele><time>2026-04-12T07:38:22.001Z</time></trkpt><trkpt lat="-30.97501941905211" lon="115.32267416222456"><ele>6.0</ele><time>2026-04-12T07:38:23.001Z</time></trkpt><trkpt lat="-30.975008736572853" lon="115.32279492519491"><ele>6.0</ele><time>2026-04-12T07:38:24.001Z</time></trkpt><trkpt lat="-30.975004808536386" lon="115.3229125864362"><ele>6.0</ele><time>2026-04-12T07:38:25.001Z</time></trkpt><trkpt lat="-30.975002586637316" lon="115.32304367467333"><ele>6.0</ele><time>2026-04-12T07:38:26.001Z</time></trkpt><trkpt lat="-30.97499501557847" lon="115.32318934343687"><ele>6.0</ele><time>2026-04-12T07:38:27.001Z</time></trkpt><trkpt lat="-30.974991096462055" lon="115.32333308961714"><ele>6.75</ele><time>2026-04-12T07:38:28.001Z</time></trkpt><trkpt lat="-30.974988695802832" lon="115.32347310931189"><ele>7.5</ele><time>2026-04-12T07:38:29.001Z</time></trkpt><trkpt lat="-30.97498633914635" lon="115.32361593505921"><ele>8.25</ele><time>2026-04-12T07:38:30.001Z</time></trkpt><trkpt lat="-30.974988917338898" lon="115.32375500363231"><ele>9.0</ele><time>2026-04-12T07:38:31.001Z</time></trkpt><trkpt lat="-30.974986641509638" lon="115.32388603979044"><ele>9.6</ele><time>2026-04-12T07:38:32.001Z</time></trkpt><trkpt lat="-30.97497080901946" lon="115.32401041542192"><ele>10.2</ele><time>2026-04-12T07:38:33.001Z</time></trkpt><trkpt lat="-30.974954140975907" lon="115.32412604214335"><ele>10.799999999999999</ele><time>2026-04-12T07:38:34.001Z</time></trkpt><trkpt lat="-30.974949593495204" lon="115.3242379060376"><ele>11.4</ele><time>2026-04-12T07:38:35.001Z</time></trkpt><trkpt lat="-30.974948417367663" lon="115.32434314095549"><ele>12.0</ele><time>2026-04-12T07:38:36.001Z</time></trkpt><trkpt lat="-30.974951881071977" lon="115.32445698279031"><ele>12.0</ele><time>2026-04-12T07:38:37.001Z</time></trkpt><trkpt lat="-30.97494098716857" lon="115.3245676227657"><ele>12.0</ele><time>2026-04-12T07:38:38.001Z</time></trkpt><trkpt lat="-30.974899929866325" lon="115.32465571900373"><ele>12.0</ele><time>2026-04-12T07:38:39.001Z</time></trkpt><trkpt lat="-30.97479907628008" lon="115.32470957490978"><ele>12.0</ele><time>2026-04-12T07:38:40.001Z</time></trkpt><trkpt lat="-30.97474759816721" lon="115.32480129412939"><ele>12.0</ele><time>2026-04-12T07:38:41.001Z</time></trkpt><trkpt lat="-30.97469571599449" lon="115.32487358408137"><ele>12.5</ele><time>2026-04-12T07:38:42.001Z</time></trkpt><trkpt lat="-30.974656246961484" lon="115.32496028686143"><ele>13.0</ele><time>2026-04-12T07:38:43.001Z</time></trkpt><trkpt lat="-30.974632566502446" lon="115.32505360230397"><ele>13.5</ele><time>2026-04-12T07:38:44.001Z</time></trkpt><trkpt lat="-30.974618425120394" lon="115.32516527206106"><ele>14.0</ele><time>2026-04-12T07:38:45.001Z</time></trkpt><trkpt lat="-30.974609718846878" lon="115.32527100674983"><ele>14.5</ele><time>2026-04-12T07:38:46.001Z</time></trkpt><trkpt lat="-30.974610205148554" lon="115.3253806751822"><ele>15.0</ele><time>2026-04-12T07:38:47.001Z</time></trkpt><trkpt lat="-30.974620280888065" lon="115.32546656655146"><ele>15.4</ele><time>2026-04-12T07:38:48.001Z</time></trkpt><trkpt lat="-30.974658170835273" lon="115.3256051663301"><ele>15.8</ele><time>2026-04-12T07:38:50.001Z</time></trkpt><trkpt lat="-30.97472911273572" lon="115.32572111859422"><ele>16.2</ele><time>2026-04-12T07:38:52.001Z</time></trkpt><trkpt lat="-30.97475652109589" lon="115.32579045719066"><ele>16.6</ele><time>2026-04-12T07:38:53.001Z</time></trkpt><trkpt lat="-30.974753628583674" lon="115.32591647600893"><ele>17.0</ele><time>2026-04-12T07:38:55.001Z</time></trkpt><trkpt lat="-30.974786661329993" lon="115.32602529272032"><ele>17.0</ele><time>2026-04-12T07:40:40.001Z</time></trkpt><trkpt lat="-30.974815172927432" lon="115.32610925973813"><ele>17.0</ele><time>2026-04-12T07:40:42.001Z</time></trkpt><trkpt lat="-30.97483040144088" lon="115.3261891356773"><ele>17.0</ele><time>2026-04-12T07:40:44.001Z</time></trkpt><trkpt lat="-30.974859492814776" lon="115.3262682683254"><ele>17.0</ele><time>2026-04-12T07:40:46.001Z</time></trkpt><trkpt lat="-30.974928099375987" lon="115.32636932858178"><ele>17.0</ele><time>2026-04-12T07:40:48.001Z</time></trkpt><trkpt lat="-30.974979770165657" lon="115.32643291896898"><ele>17.0</ele><time>2026-04-12T07:40:49.001Z</time></trkpt><trkpt lat="-30.975024280031842" lon="115.32649269978961"><ele>17.166666666666668</ele><time>2026-04-12T07:40:50.001Z</time></trkpt><trkpt lat="-30.975080249355322" lon="115.3265779762763"><ele>17.333333333333336</ele><time>2026-04-12T07:40:52.001Z</time></trkpt><trkpt lat="-30.975119246603914" lon="115.32664355118732"><ele>17.5</ele><time>2026-04-12T07:40:54.001Z</time></trkpt><trkpt lat="-30.975171513979898" lon="115.32670009314496"><ele>17.666666666666668</ele><time>2026-04-12T07:42:04.001Z</time></trkpt><trkpt lat="-30.97524076190182" lon="115.32677584694764"><ele>17.833333333333332</ele><time>2026-04-12T07:42:06.001Z</time></trkpt><trkpt lat="-30.975331452465976" lon="115.32685498863225"><ele>18.0</ele><time>2026-04-12T07:42:08.001Z</time></trkpt><trkpt lat="-30.97541778980625" lon="115.32694479218236"><ele>18.000000000000004</ele><time>2026-04-12T07:42:10.001Z</time></trkpt><trkpt lat="-30.975460494072372" lon="115.32700426512919"><ele>18.0</ele><time>2026-04-12T07:42:11.001Z</time></trkpt><trkpt lat="-30.975502220018562" lon="115.32707692085184"><ele>18.0</ele><time>2026-04-12T07:42:12.001Z</time></trkpt><trkpt lat="-30.97553829469053" lon="115.3271571361839"><ele>18.0</ele><time>2026-04-12T07:42:13.001Z</time></trkpt><trkpt lat="-30.97557111265889" lon="115.32724241436303"><ele>18.0</ele><time>2026-04-12T07:42:14.001Z</time></trkpt><trkpt lat="-30.975602241845607" lon="115.32731790478059"><ele>18.000000000000004</ele><time>2026-04-12T07:42:15.001Z</time></trkpt><trkpt lat="-30.975642167892474" lon="115.32739353294916"><ele>18.0</ele><time>2026-04-12T07:42:16.001Z</time></trkpt><trkpt lat="-30.975692085702892" lon="115.32747868789946"><ele>17.0</ele><time>2026-04-12T07:42:17.001Z</time></trkpt><trkpt lat="-30.97574449439319" lon="115.32756705363104"><ele>16.0</ele><time>2026-04-12T07:42:18.001Z</time></trkpt><trkpt lat="-30.97579433458533" lon="115.3276577207557"><ele>15.0</ele><time>2026-04-12T07:42:19.001Z</time></trkpt><trkpt lat="-30.975841312413877" lon="115.32774793439033"><ele>14.0</ele><time>2026-04-12T07:42:20.001Z</time></trkpt><trkpt lat="-30.975892842310085" lon="115.32784357193968"><ele>13.0</ele><time>2026-04-12T07:42:21.001Z</time></trkpt><trkpt lat="-30.97595333488284" lon="115.32794298534282"><ele>13.0</ele><time>2026-04-12T07:42:22.001Z</time></trkpt><trkpt lat="-30.976009600158513" lon="115.32803862934577"><ele>13.0</ele><time>2026-04-12T07:42:23.001Z</time></trkpt><trkpt lat="-30.97605976592082" lon="115.32813364057778"><ele>13.0</ele><time>2026-04-12T07:42:24.001Z</time></trkpt><trkpt lat="-30.976096086472815" lon="115.32822478831969"><ele>13.0</ele><time>2026-04-12T07:42:25.001Z</time></trkpt><trkpt lat="-30.97613890572604" lon="115.32832985343165"><ele>13.0</ele><time>2026-04-12T07:42:26.001Z</time></trkpt><trkpt lat="-30.976184072643647" lon="115.32842723357896"><ele>13.0</ele><time>2026-04-12T07:42:27.001Z</time></trkpt><trkpt lat="-30.976238626921617" lon="115.32853409240377"><ele>13.0</ele><time>2026-04-12T07:42:28.001Z</time></trkpt><trkpt lat="-30.97629455632093" lon="115.32864626530406"><ele>13.0</ele><time>2026-04-12T07:42:29.001Z</time></trkpt><trkpt lat="-30.976351399635863" lon="115.32876227739311"><ele>13.0</ele><time>2026-04-12T07:42:30.001Z</time></trkpt><trkpt lat="-30.976399496242227" lon="115.32886838843"><ele>13.0</ele><time>2026-04-12T07:42:31.001Z</time></trkpt><trkpt lat="-30.97645385049634" lon="115.32897389325913"><ele>13.0</ele><time>2026-04-12T07:42:32.001Z</time></trkpt><trkpt lat="-30.97650689954396" lon="115.3290690606681"><ele>13.0</ele><time>2026-04-12T07:42:33.001Z</time></trkpt><trkpt lat="-30.97654908459244" lon="115.32916402603622"><ele>13.0</ele><time>2026-04-12T07:42:34.001Z</time></trkpt><trkpt lat="-30.976596034507683" lon="115.32924758424979"><ele>13.0</ele><time>2026-04-12T07:42:35.001Z</time></trkpt><trkpt lat="-30.97664784060964" lon="115.32933406183552"><ele>13.0</ele><time>2026-04-12T07:42:36.001Z</time></trkpt><trkpt lat="-30.97670206885971" lon="115.32941232496668"><ele>12.8</ele><time>2026-04-12T07:42:37.001Z</time></trkpt><trkpt lat="-30.976748717308098" lon="115.32949973285258"><ele>12.600000000000001</ele><time>2026-04-12T07:42:38.001Z</time></trkpt><trkpt lat="-30.97681967515895" lon="115.32965858690248"><ele>12.399999999999999</ele><time>2026-04-12T07:42:40.001Z</time></trkpt><trkpt lat="-30.976872208190954" lon="115.32975998730541"><ele>12.2</ele><time>2026-04-12T07:42:41.001Z</time></trkpt><trkpt lat="-30.976928581996678" lon="115.32986459300936"><ele>12.0</ele><time>2026-04-12T07:42:42.001Z</time></trkpt><trkpt lat="-30.976990562043127" lon="115.32997713427794"><ele>11.8</ele><time>2026-04-12T07:42:43.001Z</time></trkpt><trkpt lat="-30.977046315273824" lon="115.33008181447552"><ele>11.6</ele><time>2026-04-12T07:42:44.001Z</time></trkpt><trkpt lat="-30.977088470101222" lon="115.33018108869682"><ele>11.4</ele><time>2026-04-12T07:42:45.001Z</time></trkpt><trkpt lat="-30.977145454210206" lon="115.33025650951483"><ele>11.200000000000001</ele><time>2026-04-12T07:42:46.001Z</time></trkpt><trkpt lat="-30.97718041654823" lon="115.33032235062761"><ele>11.0</ele><time>2026-04-12T07:42:47.001Z</time></trkpt><trkpt lat="-30.97723265283687" lon="115.33042425312729"><ele>11.0</ele><time>2026-04-12T07:42:49.001Z</time></trkpt><trkpt lat="-30.977283695761066" lon="115.3305251256198"><ele>11.0</ele><time>2026-04-12T07:42:51.001Z</time></trkpt><trkpt lat="-30.977309791598437" lon="115.33060365518202"><ele>11.0</ele><time>2026-04-12T07:42:52.001Z</time></trkpt><trkpt lat="-30.977355541227304" lon="115.33067282372399"><ele>11.0</ele><time>2026-04-12T07:42:53.001Z</time></trkpt><trkpt lat="-30.977396985122784" lon="115.33075182121189"><ele>11.0</ele><time>2026-04-12T07:42:54.001Z</time></trkpt><trkpt lat="-30.977442282327043" lon="115.33082599303665"><ele>11.0</ele><time>2026-04-12T07:42:55.001Z</time></trkpt><trkpt lat="-30.97748495807725" lon="115.33090391288961"><ele>11.166666666666666</ele><time>2026-04-12T07:42:56.001Z</time></trkpt><trkpt lat="-30.97752290937056" lon="115.33097547089541"><ele>11.333333333333332</ele><time>2026-04-12T07:42:57.001Z</time></trkpt><trkpt lat="-30.977560509551058" lon="115.331041146225"><ele>11.5</ele><time>2026-04-12T07:42:58.001Z</time></trkpt><trkpt lat="-30.977596808241287" lon="115.33112382177201"><ele>11.666666666666666</ele><time>2026-04-12T07:42:59.001Z</time></trkpt><trkpt lat="-30.9776412243416" lon="115.33121938383604"><ele>11.833333333333334</ele><time>2026-04-12T07:43:00.001Z</time></trkpt><trkpt lat="-30.977695417729016" lon="115.33131566482245"><ele>12.0</ele><time>2026-04-12T07:43:01.001Z</time></trkpt><trkpt lat="-30.97775169013717" lon="115.33142246503364"><ele>12.8</ele><time>2026-04-12T07:43:02.001Z</time></trkpt><trkpt lat="-30.97780687321453" lon="115.3315152782674"><ele>13.6</ele><time>2026-04-12T07:43:03.001Z</time></trkpt><trkpt lat="-30.97787301391497" lon="115.33162193035845"><ele>14.400000000000002</ele><time>2026-04-12T07:43:04.001Z</time></trkpt><trkpt lat="-30.977921687341407" lon="115.33173002923019"><ele>15.200000000000001</ele><time>2026-04-12T07:43:05.001Z</time></trkpt><trkpt lat="-30.977970360600185" lon="115.33184483157169"><ele>16.0</ele><time>2026-04-12T07:43:06.001Z</time></trkpt><trkpt lat="-30.978023788746647" lon="115.33197355108052"><ele>16.0</ele><time>2026-04-12T07:43:07.001Z</time></trkpt><trkpt lat="-30.9780967342152" lon="115.33210405460025"><ele>16.0</ele><time>2026-04-12T07:43:08.001Z</time></trkpt><trkpt lat="-30.97816887091715" lon="115.3322302315247"><ele>16.0</ele><time>2026-04-12T07:43:09.001Z</time></trkpt><trkpt lat="-30.978231627024538" lon="115.33236045098789"><ele>16.0</ele><time>2026-04-12T07:43:10.001Z</time></trkpt><trkpt lat="-30.9782948894526" lon="115.3325013477511"><ele>16.5</ele><time>2026-04-12T07:43:11.001Z</time></trkpt><trkpt lat="-30.978367095044128" lon="115.33262395964532"><ele>17.0</ele><time>2026-04-12T07:43:12.001Z</time></trkpt><trkpt lat="-30.978444464337283" lon="115.33273680623103"><ele>17.5</ele><time>2026-04-12T07:43:13.001Z</time></trkpt><trkpt lat="-30.978514768235634" lon="115.33283760069915"><ele>18.0</ele><time>2026-04-12T07:43:14.001Z</time></trkpt><trkpt lat="-30.97856669528132" lon="115.33292779428928"><ele>18.0</ele><time>2026-04-12T07:43:15.001Z</time></trkpt><trkpt lat="-30.978583100190257" lon="115.33301452913108"><ele>18.0</ele><time>2026-04-12T07:43:16.001Z</time></trkpt><trkpt lat="-30.978592700101537" lon="115.3331045437238"><ele>18.0</ele><time>2026-04-12T07:43:17.001Z</time></trkpt><trkpt lat="-30.97858387860573" lon="115.33319073586175"><ele>18.0</ele><time>2026-04-12T07:43:18.001Z</time></trkpt><trkpt lat="-30.978572135368054" lon="115.33329651413736"><ele>18.0</ele><time>2026-04-12T07:43:19.001Z</time></trkpt><trkpt lat="-30.978548918970493" lon="115.33343598609854"><ele>18.0</ele><time>2026-04-12T07:43:20.001Z</time></trkpt><trkpt lat="-30.978531499000155" lon="115.33358885021093"><ele>18.75</ele><time>2026-04-12T07:43:21.001Z</time></trkpt><trkpt lat="-30.978488631948068" lon="115.33373417812047"><ele>19.5</ele><time>2026-04-12T07:43:22.001Z</time></trkpt><trkpt lat="-30.97845698224376" lon="115.33388388440977"><ele>20.25</ele><time>2026-04-12T07:43:23.001Z</time></trkpt><trkpt lat="-30.978439898314573" lon="115.33404852466957"><ele>21.0</ele><time>2026-04-12T07:43:24.001Z</time></trkpt><trkpt lat="-30.978423561401385" lon="115.33422552715732"><ele>22.0</ele><time>2026-04-12T07:43:25.001Z</time></trkpt><trkpt lat="-30.978403687389335" lon="115.33439914377641"><ele>23.0</ele><time>2026-04-12T07:43:26.001Z</time></trkpt><trkpt lat="-30.97837450215999" lon="115.33457658709477"><ele>24.0</ele><time>2026-04-12T07:43:27.001Z</time></trkpt><trkpt lat="-30.97834600941061" lon="115.33474407212883"><ele>24.0</ele><time>2026-04-12T07:43:28.001Z</time></trkpt><trkpt lat="-30.978320457311856" lon="115.33491968005977"><ele>24.0</ele><time>2026-04-12T07:43:29.001Z</time></trkpt><trkpt lat="-30.97830674800137" lon="115.3350914026195"><ele>24.0</ele><time>2026-04-12T07:43:30.001Z</time></trkpt><trkpt lat="-30.97829563272203" lon="115.33526684283787"><ele>24.0</ele><time>2026-04-12T07:43:31.001Z</time></trkpt><trkpt lat="-30.978286184662903" lon="115.33542906185025"><ele>24.0</ele><time>2026-04-12T07:43:32.001Z</time></trkpt><trkpt lat="-30.978279029311352" lon="115.33558405054649"><ele>24.0</ele><time>2026-04-12T07:43:33.001Z</time></trkpt><trkpt lat="-30.97828046125002" lon="115.33572746820981"><ele>24.0</ele><time>2026-04-12T07:43:34.001Z</time></trkpt><trkpt lat="-30.978254031462495" lon="115.33586844192133"><ele>24.5</ele><time>2026-04-12T07:43:35.001Z</time></trkpt><trkpt lat="-30.978223552754233" lon="115.33601342615448"><ele>25.0</ele><time>2026-04-12T07:43:36.001Z</time></trkpt><trkpt lat="-30.97819971437456" lon="115.33615758897312"><ele>25.5</ele><time>2026-04-12T07:43:37.001Z</time></trkpt><trkpt lat="-30.97816409241827" lon="115.33629725903266"><ele>26.0</ele><time>2026-04-12T07:43:38.001Z</time></trkpt><trkpt lat="-30.97814952576012" lon="115.33643761290547"><ele>27.0</ele><time>2026-04-12T07:43:39.001Z</time></trkpt><trkpt lat="-30.978122612688654" lon="115.33658922514576"><ele>28.0</ele><time>2026-04-12T07:43:40.001Z</time></trkpt><trkpt lat="-30.97809296921786" lon="115.33670790699658"><ele>29.0</ele><time>2026-04-12T07:43:41.001Z</time></trkpt><trkpt lat="-30.9780581627929" lon="115.33681269593471"><ele>30.0</ele><time>2026-04-12T07:43:42.001Z</time></trkpt><trkpt lat="-30.978021547908664" lon="115.33694598039678"><ele>30.0</ele><time>2026-04-12T07:43:43.001Z</time></trkpt><trkpt lat="-30.978007309132582" lon="115.33709038563141"><ele>30.0</ele><time>2026-04-12T07:43:44.001Z</time></trkpt><trkpt lat="-30.97801101372935" lon="115.33723633267637"><ele>30.0</ele><time>2026-04-12T07:43:45.001Z</time></trkpt><trkpt lat="-30.97800493184739" lon="115.33739370423807"><ele>30.0</ele><time>2026-04-12T07:43:46.001Z</time></trkpt><trkpt lat="-30.97797415424884" lon="115.33757554208404"><ele>30.0</ele><time>2026-04-12T07:43:47.001Z</time></trkpt><trkpt lat="-30.977935045916343" lon="115.33778180289153"><ele>30.0</ele><time>2026-04-12T07:43:48.001Z</time></trkpt><trkpt lat="-30.977907024129433" lon="115.33795850598536"><ele>30.0</ele><time>2026-04-12T07:43:49.001Z</time></trkpt><trkpt lat="-30.97789602648987" lon="115.33813219302972"><ele>29.0</ele><time>2026-04-12T07:43:50.001Z</time></trkpt><trkpt lat="-30.97787382571682" lon="115.33827939788682"><ele>28.0</ele><time>2026-04-12T07:43:51.001Z</time></trkpt><trkpt lat="-30.977856987456814" lon="115.33840863548303"><ele>27.0</ele><time>2026-04-12T07:43:52.001Z</time></trkpt><trkpt lat="-30.97784501793579" lon="115.33853544208077"><ele>26.0</ele><time>2026-04-12T07:43:53.001Z</time></trkpt><trkpt lat="-30.977823121413856" lon="115.33865730427206"><ele>26.0</ele><time>2026-04-12T07:43:54.001Z</time></trkpt><trkpt lat="-30.97783240645038" lon="115.33879021560442"><ele>26.0</ele><time>2026-04-12T07:43:55.001Z</time></trkpt><trkpt lat="-30.977884034525612" lon="115.33893087713379"><ele>26.0</ele><time>2026-04-12T07:43:56.001Z</time></trkpt><trkpt lat="-30.97794343644489" lon="115.33906900439146"><ele>26.0</ele><time>2026-04-12T07:43:57.001Z</time></trkpt><trkpt lat="-30.978026894464396" lon="115.3392018304019"><ele>26.25</ele><time>2026-04-12T07:43:58.001Z</time></trkpt><trkpt lat="-30.978123935701067" lon="115.33932024116427"><ele>26.5</ele><time>2026-04-12T07:43:59.001Z</time></trkpt><trkpt lat="-30.978228939033983" lon="115.33941072702471"><ele>26.75</ele><time>2026-04-12T07:44:00.001Z</time></trkpt><trkpt lat="-30.97834865839488" lon="115.33950315810338"><ele>27.0</ele><time>2026-04-12T07:44:01.001Z</time></trkpt><trkpt lat="-30.978476427031378" lon="115.33959219384295"><ele>27.333333333333336</ele><time>2026-04-12T07:44:02.001Z</time></trkpt><trkpt lat="-30.978619274105252" lon="115.3397061833536"><ele>27.666666666666668</ele><time>2026-04-12T07:44:03.001Z</time></trkpt><trkpt lat="-30.978783452161906" lon="115.33979090151536"><ele>28.0</ele><time>2026-04-12T07:44:04.001Z</time></trkpt><trkpt lat="-30.978925683429427" lon="115.33988703371827"><ele>28.4</ele><time>2026-04-12T07:44:05.001Z</time></trkpt><trkpt lat="-30.979044562340807" lon="115.33997326523104"><ele>28.799999999999997</ele><time>2026-04-12T07:44:06.001Z</time></trkpt><trkpt lat="-30.97914084690467" lon="115.3400407999571"><ele>29.2</ele><time>2026-04-12T07:44:07.001Z</time></trkpt><trkpt lat="-30.979206884183995" lon="115.34012448939464"><ele>29.6</ele><time>2026-04-12T07:44:08.001Z</time></trkpt><trkpt lat="-30.979267086485912" lon="115.34020824192135"><ele>30.0</ele><time>2026-04-12T07:44:09.001Z</time></trkpt><trkpt lat="-30.979291981040838" lon="115.34032428250991"><ele>30.0</ele><time>2026-04-12T07:44:10.001Z</time></trkpt><trkpt lat="-30.979310560175715" lon="115.34046198558495"><ele>30.0</ele><time>2026-04-12T07:44:11.001Z</time></trkpt><trkpt lat="-30.97928003006361" lon="115.3406120355068"><ele>30.0</ele><time>2026-04-12T07:44:12.001Z</time></trkpt><trkpt lat="-30.9792352929697" lon="115.34072974176918"><ele>30.0</ele><time>2026-04-12T07:44:13.001Z</time></trkpt><trkpt lat="-30.979196718010343" lon="115.34082854723114"><ele>30.4</ele><time>2026-04-12T07:44:14.001Z</time></trkpt><trkpt lat="-30.979182009788083" lon="115.34091425061013"><ele>30.8</ele><time>2026-04-12T07:44:15.001Z</time></trkpt><trkpt lat="-30.97918945747741" lon="115.34099871264863"><ele>31.200000000000003</ele><time>2026-04-12T07:44:16.001Z</time></trkpt><trkpt lat="-30.979236470191267" lon="115.34109537604404"><ele>31.6</ele><time>2026-04-12T07:44:17.001Z</time></trkpt><trkpt lat="-30.97930033919459" lon="115.3412011441298"><ele>32.0</ele><time>2026-04-12T07:44:18.001Z</time></trkpt><trkpt lat="-30.979358792903337" lon="115.3413108486874"><ele>32.5</ele><time>2026-04-12T07:44:19.001Z</time></trkpt><trkpt lat="-30.979419243969406" lon="115.34143004802384"><ele>33.0</ele><time>2026-04-12T07:44:20.001Z</time></trkpt><trkpt lat="-30.97946953195992" lon="115.34156214162748"><ele>33.5</ele><time>2026-04-12T07:44:21.001Z</time></trkpt><trkpt lat="-30.979513065351878" lon="115.34170867988774"><ele>34.0</ele><time>2026-04-12T07:44:22.001Z</time></trkpt><trkpt lat="-30.97955124887844" lon="115.34186089137636"><ele>34.0</ele><time>2026-04-12T07:44:23.001Z</time></trkpt><trkpt lat="-30.979571899814253" lon="115.34201135782709"><ele>34.0</ele><time>2026-04-12T07:44:24.001Z</time></trkpt><trkpt lat="-30.979585533895232" lon="115.34218132730985"><ele>34.0</ele><time>2026-04-12T07:44:25.001Z</time></trkpt><trkpt lat="-30.979596051766052" lon="115.34234988480675"><ele>34.0</ele><time>2026-04-12T07:44:26.001Z</time></trkpt><trkpt lat="-30.97960114464342" lon="115.34252005890214"><ele>34.333333333333336</ele><time>2026-04-12T07:44:27.001Z</time></trkpt><trkpt lat="-30.979597218523683" lon="115.34270335287854"><ele>34.666666666666664</ele><time>2026-04-12T07:44:28.001Z</time></trkpt><trkpt lat="-30.979581503473682" lon="115.3428982397025"><ele>35.0</ele><time>2026-04-12T07:44:29.001Z</time></trkpt><trkpt lat="-30.97956392755136" lon="115.34309156979617"><ele>34.33333333333333</ele><time>2026-04-12T07:44:30.001Z</time></trkpt><trkpt lat="-30.97955045449098" lon="115.34327629646417"><ele>33.666666666666664</ele><time>2026-04-12T07:44:31.001Z</time></trkpt><trkpt lat="-30.979549904044518" lon="115.3434535453591"><ele>33.0</ele><time>2026-04-12T07:44:32.001Z</time></trkpt><trkpt lat="-30.97955250318063" lon="115.3436498725646"><ele>33.0</ele><time>2026-04-12T07:44:33.001Z</time></trkpt><trkpt lat="-30.97955123274926" lon="115.34384153034782"><ele>33.0</ele><time>2026-04-12T07:44:34.001Z</time></trkpt><trkpt lat="-30.97954535253562" lon="115.34404854755816"><ele>33.0</ele><time>2026-04-12T07:44:35.001Z</time></trkpt><trkpt lat="-30.979536663614418" lon="115.34427449396686"><ele>33.666666666666664</ele><time>2026-04-12T07:44:36.001Z</time></trkpt><trkpt lat="-30.97952846874226" lon="115.34451028451906"><ele>34.33333333333333</ele><time>2026-04-12T07:44:37.001Z</time></trkpt><trkpt lat="-30.97952436539132" lon="115.34474118605412"><ele>35.0</ele><time>2026-04-12T07:44:38.001Z</time></trkpt><trkpt lat="-30.979518165391717" lon="115.34496258737494"><ele>36.33333333333333</ele><time>2026-04-12T07:44:39.001Z</time></trkpt><trkpt lat="-30.979508630941556" lon="115.3451740632391"><ele>37.666666666666664</ele><time>2026-04-12T07:44:40.001Z</time></trkpt><trkpt lat="-30.979499727384596" lon="115.34538537895143"><ele>39.0</ele><time>2026-04-12T07:44:41.001Z</time></trkpt><trkpt lat="-30.979487467627585" lon="115.34558191079527"><ele>39.0</ele><time>2026-04-12T07:44:42.001Z</time></trkpt><trkpt lat="-30.97947329833687" lon="115.34576599112086"><ele>39.0</ele><time>2026-04-12T07:44:43.001Z</time></trkpt><trkpt lat="-30.979461358869095" lon="115.34593333166478"><ele>39.0</ele><time>2026-04-12T07:44:44.001Z</time></trkpt><trkpt lat="-30.979459028575953" lon="115.34608887456633"><ele>39.0</ele><time>2026-04-12T07:44:45.001Z</time></trkpt><trkpt lat="-30.979458856003287" lon="115.34623450559425"><ele>39.0</ele><time>2026-04-12T07:44:46.001Z</time></trkpt><trkpt lat="-30.979456311188663" lon="115.3463688922039"><ele>39.0</ele><time>2026-04-12T07:44:47.001Z</time></trkpt><trkpt lat="-30.979450761009648" lon="115.34649221071594"><ele>39.0</ele><time>2026-04-12T07:44:48.001Z</time></trkpt><trkpt lat="-30.979451687257733" lon="115.34660488549501"><ele>39.0</ele><time>2026-04-12T07:44:49.001Z</time></trkpt><trkpt lat="-30.979454237430065" lon="115.34670277357127"><ele>39.0</ele><time>2026-04-12T07:44:50.001Z</time></trkpt><trkpt lat="-30.979449701236742" lon="115.34679227884939"><ele>39.666666666666664</ele><time>2026-04-12T07:44:51.001Z</time></trkpt><trkpt lat="-30.979448225993345" lon="115.34690501628369"><ele>40.333333333333336</ele><time>2026-04-12T07:44:53.001Z</time></trkpt><trkpt lat="-30.979443237008102" lon="115.34701621600941"><ele>41.0</ele><time>2026-04-12T07:45:06.001Z</time></trkpt><trkpt lat="-30.97943812487855" lon="115.34710003923665"><ele>41.66666666666667</ele><time>2026-04-12T07:45:07.001Z</time></trkpt><trkpt lat="-30.979434401959512" lon="115.34719859843034"><ele>42.333333333333336</ele><time>2026-04-12T07:45:08.001Z</time></trkpt><trkpt lat="-30.979427497184147" lon="115.3473057925981"><ele>43.0</ele><time>2026-04-12T07:45:09.001Z</time></trkpt><trkpt lat="-30.979418420854298" lon="115.34742749837692"><ele>43.5</ele><time>2026-04-12T07:45:10.001Z</time></trkpt><trkpt lat="-30.979412376660882" lon="115.34756061260025"><ele>44.0</ele><time>2026-04-12T07:45:11.001Z</time></trkpt><trkpt lat="-30.97940439092792" lon="115.34769407013052"><ele>44.5</ele><time>2026-04-12T07:45:12.001Z</time></trkpt><trkpt lat="-30.979391414848923" lon="115.34783563611533"><ele>45.0</ele><time>2026-04-12T07:45:13.001Z</time></trkpt><trkpt lat="-30.979379460110707" lon="115.34797753151197"><ele>44.4</ele><time>2026-04-12T07:45:14.001Z</time></trkpt><trkpt lat="-30.9793677107627" lon="115.34812299051964"><ele>43.8</ele><time>2026-04-12T07:45:15Z</time></trkpt><trkpt lat="-30.979359869438664" lon="115.34824815196662"><ele>43.2</ele><time>2026-04-12T07:45:16Z</time></trkpt><trkpt lat="-30.97935952439464" lon="115.3483609003737"><ele>42.6</ele><time>2026-04-12T07:45:17Z</time></trkpt><trkpt lat="-30.97934922637447" lon="115.34846245403361"><ele>42.0</ele><time>2026-04-12T07:45:18Z</time></trkpt><trkpt lat="-30.9793586054198" lon="115.3485666407695"><ele>42.0</ele><time>2026-04-12T07:45:19Z</time></trkpt><trkpt lat="-30.979391900123556" lon="115.34867543460848"><ele>42.0</ele><time>2026-04-12T07:45:20Z</time></trkpt><trkpt lat="-30.979415533921372" lon="115.34879141241532"><ele>42.0</ele><time>2026-04-12T07:45:21Z</time></trkpt><trkpt lat="-30.97945842544082" lon="115.3489007269308"><ele>42.0</ele><time>2026-04-12T07:45:22Z</time></trkpt><trkpt lat="-30.979523539345994" lon="115.34900544556328"><ele>42.0</ele><time>2026-04-12T07:45:23Z</time></trkpt><trkpt lat="-30.979601393474937" lon="115.34912090999767"><ele>42.25</ele><time>2026-04-12T07:45:24Z</time></trkpt><trkpt lat="-30.9796860687169" lon="115.3492484862506"><ele>42.5</ele><time>2026-04-12T07:45:25Z</time></trkpt><trkpt lat="-30.979775638706727" lon="115.34937293824446"><ele>42.75</ele><time>2026-04-12T07:45:26Z</time></trkpt><trkpt lat="-30.979874125275998" lon="115.3494946055005"><ele>43.0</ele><time>2026-04-12T07:45:27Z</time></trkpt><trkpt lat="-30.979976492365253" lon="115.3495994658694"><ele>42.66666666666667</ele><time>2026-04-12T07:45:28Z</time></trkpt><trkpt lat="-30.980089265761784" lon="115.34970943707103"><ele>42.333333333333336</ele><time>2026-04-12T07:45:29Z</time></trkpt><trkpt lat="-30.980202147969898" lon="115.34982208302861"><ele>42.0</ele><time>2026-04-12T07:45:30Z</time></trkpt><trkpt lat="-30.98031878250447" lon="115.34994445063883"><ele>42.0</ele><time>2026-04-12T07:45:31Z</time></trkpt><trkpt lat="-30.980432801371958" lon="115.3500682068709"><ele>42.0</ele><time>2026-04-12T07:45:32Z</time></trkpt><trkpt lat="-30.980550703918784" lon="115.35019978371322"><ele>42.0</ele><time>2026-04-12T07:45:33Z</time></trkpt><trkpt lat="-30.980668741751256" lon="115.35032986957067"><ele>42.0</ele><time>2026-04-12T07:45:34Z</time></trkpt><trkpt lat="-30.980788514297764" lon="115.35045502528395"><ele>42.0</ele><time>2026-04-12T07:45:35Z</time></trkpt><trkpt lat="-30.980912541752627" lon="115.350581350251"><ele>42.0</ele><time>2026-04-12T07:45:36Z</time></trkpt><trkpt lat="-30.981036708658326" lon="115.35071009013406"><ele>43.0</ele><time>2026-04-12T07:45:37Z</time></trkpt><trkpt lat="-30.98114394509394" lon="115.35082617449531"><ele>44.0</ele><time>2026-04-12T07:45:38Z</time></trkpt><trkpt lat="-30.98123774224559" lon="115.35094268337859"><ele>45.0</ele><time>2026-04-12T07:45:39Z</time></trkpt><trkpt lat="-30.98133121626206" lon="115.3510522114552"><ele>46.0</ele><time>2026-04-12T07:45:40Z</time></trkpt><trkpt lat="-30.98143960266036" lon="115.35116292376149"><ele>46.0</ele><time>2026-04-12T07:45:41Z</time></trkpt><trkpt lat="-30.981547139221966" lon="115.35127964843886"><ele>46.0</ele><time>2026-04-12T07:45:42Z</time></trkpt><trkpt lat="-30.98164497178871" lon="115.35140253347454"><ele>46.0</ele><time>2026-04-12T07:45:43Z</time></trkpt><trkpt lat="-30.981741614821978" lon="115.35152325989456"><ele>46.0</ele><time>2026-04-12T07:45:44Z</time></trkpt><trkpt lat="-30.98183785675642" lon="115.35163107228273"><ele>45.8</ele><time>2026-04-12T07:45:45Z</time></trkpt><trkpt lat="-30.981918536270083" lon="115.35173107819358"><ele>45.599999999999994</ele><time>2026-04-12T07:45:46Z</time></trkpt><trkpt lat="-30.981998746920105" lon="115.35182354294207"><ele>45.4</ele><time>2026-04-12T07:45:47Z</time></trkpt><trkpt lat="-30.982078968488096" lon="115.35190548560641"><ele>45.2</ele><time>2026-04-12T07:45:48Z</time></trkpt><trkpt lat="-30.982169863411485" lon="115.35197711838437"><ele>45.0</ele><time>2026-04-12T07:45:49Z</time></trkpt><trkpt lat="-30.982267948353826" lon="115.35203477581436"><ele>45.0</ele><time>2026-04-12T07:45:50Z</time></trkpt><trkpt lat="-30.98237863300594" lon="115.35209561588209"><ele>45.0</ele><time>2026-04-12T07:45:51Z</time></trkpt><trkpt lat="-30.982490088853393" lon="115.35216176267744"><ele>45.0</ele><time>2026-04-12T07:45:52Z</time></trkpt><trkpt lat="-30.982612705399987" lon="115.3522392116076"><ele>45.0</ele><time>2026-04-12T07:45:53Z</time></trkpt><trkpt lat="-30.98274745729212" lon="115.3523094484494"><ele>45.0</ele><time>2026-04-12T07:45:54Z</time></trkpt><trkpt lat="-30.982884753034778" lon="115.3523773999829"><ele>45.0</ele><time>2026-04-12T07:45:55Z</time></trkpt><trkpt lat="-30.983019257151565" lon="115.3524566338417"><ele>45.0</ele><time>2026-04-12T07:45:56Z</time></trkpt><trkpt lat="-30.98315283636625" lon="115.352531769862"><ele>45.0</ele><time>2026-04-12T07:45:57Z</time></trkpt><trkpt lat="-30.983287492805957" lon="115.35261877773758"><ele>45.666666666666664</ele><time>2026-04-12T07:45:58Z</time></trkpt><trkpt lat="-30.98343756334446" lon="115.35270777232685"><ele>46.33333333333333</ele><time>2026-04-12T07:45:59Z</time></trkpt><trkpt lat="-30.983605072066542" lon="115.35279512518198"><ele>47.0</ele><time>2026-04-12T07:46:00Z</time></trkpt><trkpt lat="-30.983770623900146" lon="115.35287215490241"><ele>47.0</ele><time>2026-04-12T07:46:01Z</time></trkpt><trkpt lat="-30.983934806388525" lon="115.35294527177953"><ele>47.0</ele><time>2026-04-12T07:46:02Z</time></trkpt><trkpt lat="-30.984083136368533" lon="115.35302911741562"><ele>47.0</ele><time>2026-04-12T07:46:03Z</time></trkpt><trkpt lat="-30.98421976607075" lon="115.35311337248238"><ele>47.0</ele><time>2026-04-12T07:46:04Z</time></trkpt><trkpt lat="-30.984361069439377" lon="115.35319701923444"><ele>47.0</ele><time>2026-04-12T07:46:05Z</time></trkpt><trkpt lat="-30.984489214001105" lon="115.35326530884792"><ele>47.0</ele><time>2026-04-12T07:46:06Z</time></trkpt><trkpt lat="-30.984611442735357" lon="115.35334131695383"><ele>47.0</ele><time>2026-04-12T07:46:07Z</time></trkpt><trkpt lat="-30.98472630504036" lon="115.35341353972744"><ele>47.0</ele><time>2026-04-12T07:46:08Z</time></trkpt><trkpt lat="-30.984840386576195" lon="115.35347807158743"><ele>47.0</ele><time>2026-04-12T07:46:09Z</time></trkpt><trkpt lat="-30.984958959957602" lon="115.35354107639378"><ele>47.0</ele><time>2026-04-12T07:46:10Z</time></trkpt><trkpt lat="-30.985079840856383" lon="115.35360622724382"><ele>47.0</ele><time>2026-04-12T07:46:11Z</time></trkpt><trkpt lat="-30.98520448237515" lon="115.35367486310868"><ele>47.25</ele><time>2026-04-12T07:46:12Z</time></trkpt><trkpt lat="-30.98533619916648" lon="115.35375266436381"><ele>47.5</ele><time>2026-04-12T07:46:13Z</time></trkpt><trkpt lat="-30.98546950606959" lon="115.3538221673391"><ele>47.75</ele><time>2026-04-12T07:46:14Z</time></trkpt><trkpt lat="-30.985610939081226" lon="115.35389816690194"><ele>48.0</ele><time>2026-04-12T07:46:15Z</time></trkpt><trkpt lat="-30.985752715580603" lon="115.35397499383076"><ele>46.666666666666664</ele><time>2026-04-12T07:46:16Z</time></trkpt><trkpt lat="-30.98589912239544" lon="115.3540611648869"><ele>45.33333333333333</ele><time>2026-04-12T07:46:17Z</time></trkpt><trkpt lat="-30.98603617861474" lon="115.35413808227986"><ele>44.0</ele><time>2026-04-12T07:46:18Z</time></trkpt><trkpt lat="-30.986166672803073" lon="115.35421137495955"><ele>44.0</ele><time>2026-04-12T07:46:19Z</time></trkpt><trkpt lat="-30.98627756719023" lon="115.35428028991072"><ele>44.0</ele><time>2026-04-12T07:46:20Z</time></trkpt><trkpt lat="-30.986379682779457" lon="115.35434251110752"><ele>44.0</ele><time>2026-04-12T07:46:21Z</time></trkpt><trkpt lat="-30.986472670722552" lon="115.35441273118253"><ele>44.0</ele><time>2026-04-12T07:46:22Z</time></trkpt><trkpt lat="-30.98657081939932" lon="115.35452395363407"><ele>44.0</ele><time>2026-04-12T07:46:23Z</time></trkpt><trkpt lat="-30.98666582230272" lon="115.35466195103812"><ele>44.0</ele><time>2026-04-12T07:46:24Z</time></trkpt><trkpt lat="-30.98675906508303" lon="115.35482549503274"><ele>44.0</ele><time>2026-04-12T07:46:25Z</time></trkpt><trkpt lat="-30.986839447895328" lon="115.35497748977096"><ele>44.33333333333333</ele><time>2026-04-12T07:46:26Z</time></trkpt><trkpt lat="-30.98692237555289" lon="115.35514035198293"><ele>44.666666666666664</ele><time>2026-04-12T07:46:27Z</time></trkpt><trkpt lat="-30.98701006495958" lon="115.35529701701935"><ele>45.0</ele><time>2026-04-12T07:46:28Z</time></trkpt><trkpt lat="-30.98710098348685" lon="115.35543962163005"><ele>44.333333333333336</ele><time>2026-04-12T07:46:29Z</time></trkpt><trkpt lat="-30.98717902299946" lon="115.35557816206908"><ele>43.66666666666667</ele><time>2026-04-12T07:46:30Z</time></trkpt><trkpt lat="-30.987257196982856" lon="115.35572838781107"><ele>43.0</ele><time>2026-04-12T07:46:31Z</time></trkpt><trkpt lat="-30.987340784724182" lon="115.35588501949996"><ele>43.0</ele><time>2026-04-12T07:46:32Z</time></trkpt><trkpt lat="-30.987429356204597" lon="115.35604450575674"><ele>43.0</ele><time>2026-04-12T07:46:33Z</time></trkpt><trkpt lat="-30.98751837248399" lon="115.35619563497693"><ele>43.0</ele><time>2026-04-12T07:46:34Z</time></trkpt><trkpt lat="-30.98760485541556" lon="115.3563482184262"><ele>43.66666666666667</ele><time>2026-04-12T07:46:35Z</time></trkpt><trkpt lat="-30.98769238665763" lon="115.35649512914348"><ele>44.333333333333336</ele><time>2026-04-12T07:46:36Z</time></trkpt><trkpt lat="-30.987772305120362" lon="115.35664407600427"><ele>45.0</ele><time>2026-04-12T07:46:37Z</time></trkpt><trkpt lat="-30.987854720912058" lon="115.35679937745306"><ele>45.0</ele><time>2026-04-12T07:46:38Z</time></trkpt><trkpt lat="-30.98793848736251" lon="115.35694206040023"><ele>45.0</ele><time>2026-04-12T07:46:39Z</time></trkpt><trkpt lat="-30.988019444353295" lon="115.35708757409954"><ele>45.0</ele><time>2026-04-12T07:46:40Z</time></trkpt><trkpt lat="-30.98809248923079" lon="115.3572287493251"><ele>45.0</ele><time>2026-04-12T07:46:41Z</time></trkpt><trkpt lat="-30.988165125381297" lon="115.35736445509153"><ele>47.0</ele><time>2026-04-12T07:46:42Z</time></trkpt><trkpt lat="-30.988241033822735" lon="115.35749802936968"><ele>49.0</ele><time>2026-04-12T07:46:43Z</time></trkpt><trkpt lat="-30.988318953013668" lon="115.35763319093404"><ele>51.0</ele><time>2026-04-12T07:46:44Z</time></trkpt><trkpt lat="-30.988396399784325" lon="115.35776718693845"><ele>53.0</ele><time>2026-04-12T07:46:45Z</time></trkpt><trkpt lat="-30.98846780653638" lon="115.35790880564637"><ele>54.75</ele><time>2026-04-12T07:46:46Z</time></trkpt><trkpt lat="-30.98854663245662" lon="115.35805007185779"><ele>56.5</ele><time>2026-04-12T07:46:47Z</time></trkpt><trkpt lat="-30.9886330469101" lon="115.35819190157669"><ele>58.25</ele><time>2026-04-12T07:46:48Z</time></trkpt><trkpt lat="-30.988712814954756" lon="115.35832742112225"><ele>60.0</ele><time>2026-04-12T07:46:49Z</time></trkpt><trkpt lat="-30.98879088011993" lon="115.35847002801123"><ele>60.0</ele><time>2026-04-12T07:46:50Z</time></trkpt><trkpt lat="-30.988861386735273" lon="115.35860908836749"><ele>60.0</ele><time>2026-04-12T07:46:51Z</time></trkpt><trkpt lat="-30.98892571708424" lon="115.35873862837913"><ele>60.0</ele><time>2026-04-12T07:46:52Z</time></trkpt><trkpt lat="-30.98897285203301" lon="115.35886584864096"><ele>60.0</ele><time>2026-04-12T07:46:53Z</time></trkpt><trkpt lat="-30.98899439728613" lon="115.35900343676168"><ele>60.0</ele><time>2026-04-12T07:46:54Z</time></trkpt><trkpt lat="-30.988993994119934" lon="115.35914698641632"><ele>60.0</ele><time>2026-04-12T07:46:55Z</time></trkpt><trkpt lat="-30.988982833923945" lon="115.3592755853944"><ele>60.0</ele><time>2026-04-12T07:46:56Z</time></trkpt><trkpt lat="-30.988955614002585" lon="115.35940230814224"><ele>60.0</ele><time>2026-04-12T07:46:57Z</time></trkpt><trkpt lat="-30.98890212306514" lon="115.35952573683127"><ele>60.0</ele><time>2026-04-12T07:46:58Z</time></trkpt><trkpt lat="-30.988811505231855" lon="115.35964380112694"><ele>60.0</ele><time>2026-04-12T07:46:59Z</time></trkpt><trkpt lat="-30.988708509467934" lon="115.35977513046633"><ele>60.0</ele><time>2026-04-12T07:47:00Z</time></trkpt><trkpt lat="-30.988619022097097" lon="115.3599146326214"><ele>60.0</ele><time>2026-04-12T07:47:01Z</time></trkpt><trkpt lat="-30.98854164907825" lon="115.36006060712724"><ele>61.75</ele><time>2026-04-12T07:47:02Z</time></trkpt><trkpt lat="-30.988456291386473" lon="115.36020221204976"><ele>63.5</ele><time>2026-04-12T07:47:03Z</time></trkpt><trkpt lat="-30.988370078731474" lon="115.36033925047205"><ele>65.25</ele><time>2026-04-12T07:47:04Z</time></trkpt><trkpt lat="-30.98829003611214" lon="115.36047798803621"><ele>67.0</ele><time>2026-04-12T07:47:05Z</time></trkpt><trkpt lat="-30.988212844358195" lon="115.36060618652732"><ele>68.66666666666666</ele><time>2026-04-12T07:47:06Z</time></trkpt><trkpt lat="-30.988127369791087" lon="115.3607434560408"><ele>70.33333333333333</ele><time>2026-04-12T07:47:07Z</time></trkpt><trkpt lat="-30.988044466227237" lon="115.36088627979787"><ele>72.0</ele><time>2026-04-12T07:47:08Z</time></trkpt><trkpt lat="-30.987951791002725" lon="115.36103586575133"><ele>72.0</ele><time>2026-04-12T07:47:09Z</time></trkpt><trkpt lat="-30.98787040094777" lon="115.36117894859939"><ele>72.0</ele><time>2026-04-12T07:47:10Z</time></trkpt><trkpt lat="-30.98779540196835" lon="115.36131412663465"><ele>72.0</ele><time>2026-04-12T07:47:11Z</time></trkpt><trkpt lat="-30.987718764604164" lon="115.3614505275761"><ele>72.0</ele><time>2026-04-12T07:47:12Z</time></trkpt><trkpt lat="-30.98763430831884" lon="115.36158970920516"><ele>72.25</ele><time>2026-04-12T07:47:13Z</time></trkpt><trkpt lat="-30.98754974504974" lon="115.36172426626601"><ele>72.5</ele><time>2026-04-12T07:47:14Z</time></trkpt><trkpt lat="-30.987464026858746" lon="115.36185578924042"><ele>72.75</ele><time>2026-04-12T07:47:15Z</time></trkpt><trkpt lat="-30.987375615401334" lon="115.3619873627922"><ele>73.0</ele><time>2026-04-12T07:47:16Z</time></trkpt><trkpt lat="-30.987292368091545" lon="115.3621119948498"><ele>73.5</ele><time>2026-04-12T07:47:17Z</time></trkpt><trkpt lat="-30.987222470840532" lon="115.3622315179744"><ele>74.0</ele><time>2026-04-12T07:47:18Z</time></trkpt><trkpt lat="-30.987176726621875" lon="115.36235570433976"><ele>74.5</ele><time>2026-04-12T07:47:19Z</time></trkpt><trkpt lat="-30.987162877542165" lon="115.36248958361924"><ele>75.0</ele><time>2026-04-12T07:47:20Z</time></trkpt><trkpt lat="-30.98717237090996" lon="115.36262956811684"><ele>75.0</ele><time>2026-04-12T07:47:21Z</time></trkpt><trkpt lat="-30.987197463909094" lon="115.36277863768107"><ele>75.0</ele><time>2026-04-12T07:47:22Z</time></trkpt><trkpt lat="-30.987242601711472" lon="115.3629298008138"><ele>75.0</ele><time>2026-04-12T07:47:23Z</time></trkpt><trkpt lat="-30.987302039611023" lon="115.3630931834552"><ele>75.0</ele><time>2026-04-12T07:47:24Z</time></trkpt><trkpt lat="-30.98735720275698" lon="115.36326180767685"><ele>75.5</ele><time>2026-04-12T07:47:25Z</time></trkpt><trkpt lat="-30.98741138426691" lon="115.3634267914966"><ele>76.0</ele><time>2026-04-12T07:47:26Z</time></trkpt><trkpt lat="-30.987467383613453" lon="115.36358342924473"><ele>76.5</ele><time>2026-04-12T07:47:27Z</time></trkpt><trkpt lat="-30.987521994330603" lon="115.36373797819083"><ele>77.0</ele><time>2026-04-12T07:47:28Z</time></trkpt><trkpt lat="-30.987576448644095" lon="115.36388231851876"><ele>77.66666666666667</ele><time>2026-04-12T07:47:29Z</time></trkpt><trkpt lat="-30.987639652278627" lon="115.36401561889036"><ele>78.33333333333333</ele><time>2026-04-12T07:47:30Z</time></trkpt><trkpt lat="-30.987725211828167" lon="115.36416062706196"><ele>79.0</ele><time>2026-04-12T07:47:31Z</time></trkpt><trkpt lat="-30.987829410506606" lon="115.36433136041957"><ele>79.0</ele><time>2026-04-12T07:47:32Z</time></trkpt><trkpt lat="-30.98795063460783" lon="115.36451016224667"><ele>79.0</ele><time>2026-04-12T07:47:33Z</time></trkpt><trkpt lat="-30.988064843696126" lon="115.36466745949052"><ele>79.0</ele><time>2026-04-12T07:47:34Z</time></trkpt><trkpt lat="-30.988172307335965" lon="115.36482862623512"><ele>79.0</ele><time>2026-04-12T07:47:35Z</time></trkpt><trkpt lat="-30.98827536544619" lon="115.36498411612862"><ele>79.0</ele><time>2026-04-12T07:47:36Z</time></trkpt><trkpt lat="-30.98837040946513" lon="115.3651175254655"><ele>79.0</ele><time>2026-04-12T07:47:37Z</time></trkpt><trkpt lat="-30.988457598220002" lon="115.36523869844446"><ele>79.0</ele><time>2026-04-12T07:47:38Z</time></trkpt><trkpt lat="-30.988538226440387" lon="115.36534860156813"><ele>79.0</ele><time>2026-04-12T07:47:39Z</time></trkpt><trkpt lat="-30.98859842918887" lon="115.3654571120972"><ele>79.0</ele><time>2026-04-12T07:47:40Z</time></trkpt><trkpt lat="-30.988643182208083" lon="115.36556685522947"><ele>79.0</ele><time>2026-04-12T07:47:41Z</time></trkpt><trkpt lat="-30.98869574729705" lon="115.36567032220749"><ele>79.0</ele><time>2026-04-12T07:47:42Z</time></trkpt><trkpt lat="-30.988693403629938" lon="115.36581787455727"><ele>77.5</ele><time>2026-04-12T07:47:43Z</time></trkpt><trkpt lat="-30.988720339757617" lon="115.36594838602457"><ele>76.0</ele><time>2026-04-12T07:47:44Z</time></trkpt><trkpt lat="-30.988767716334078" lon="115.36607855232815"><ele>74.5</ele><time>2026-04-12T07:47:45Z</time></trkpt><trkpt lat="-30.98882374064058" lon="115.36621734802179"><ele>73.0</ele><time>2026-04-12T07:47:46Z</time></trkpt><trkpt lat="-30.98886999904557" lon="115.36636460001986"><ele>72.83333333333333</ele><time>2026-04-12T07:47:47Z</time></trkpt><trkpt lat="-30.988903122096012" lon="115.36647017418242"><ele>72.66666666666666</ele><time>2026-04-12T07:47:48Z</time></trkpt><trkpt lat="-30.988920858245102" lon="115.36655065587182"><ele>72.5</ele><time>2026-04-12T07:47:49Z</time></trkpt><trkpt lat="-30.98893232413267" lon="115.36664300442912"><ele>72.33333333333333</ele><time>2026-04-12T07:47:51Z</time></trkpt><trkpt lat="-30.988860116302078" lon="115.36668793061246"><ele>72.16666666666667</ele><time>2026-04-12T07:48:26Z</time></trkpt><trkpt lat="-30.988754551264993" lon="115.36669151707366"><ele>72.0</ele><time>2026-04-12T07:48:28Z</time></trkpt><trkpt lat="-30.988669076123013" lon="115.36667422571598"><ele>72.0</ele><time>2026-04-12T07:48:29Z</time></trkpt><trkpt lat="-30.988564559670383" lon="115.36665690914528"><ele>72.0</ele><time>2026-04-12T07:48:30Z</time></trkpt><trkpt lat="-30.98844907722234" lon="115.36664874438857"><ele>72.0</ele><time>2026-04-12T07:48:31Z</time></trkpt><trkpt lat="-30.988329968899187" lon="115.3666437572831"><ele>72.0</ele><time>2026-04-12T07:48:32Z</time></trkpt><trkpt lat="-30.98819393164177" lon="115.36664142334226"><ele>71.66666666666667</ele><time>2026-04-12T07:48:33Z</time></trkpt><trkpt lat="-30.98804064769158" lon="115.36663705873053"><ele>71.33333333333334</ele><time>2026-04-12T07:48:34Z</time></trkpt><trkpt lat="-30.987881781191092" lon="115.36663521017454"><ele>71.0</ele><time>2026-04-12T07:48:35Z</time></trkpt><trkpt lat="-30.98771529481234" lon="115.36663558027604"><ele>71.0</ele><time>2026-04-12T07:48:36Z</time></trkpt><trkpt lat="-30.98753501221884" lon="115.36663913960851"><ele>71.0</ele><time>2026-04-12T07:48:37Z</time></trkpt><trkpt lat="-30.987337277826406" lon="115.36664229614502"><ele>71.0</ele><time>2026-04-12T07:48:38Z</time></trkpt><trkpt lat="-30.98713537360168" lon="115.3666404593282"><ele>71.33333333333334</ele><time>2026-04-12T07:48:39Z</time></trkpt><trkpt lat="-30.98692729143902" lon="115.36663829638763"><ele>71.66666666666667</ele><time>2026-04-12T07:48:40Z</time></trkpt><trkpt lat="-30.986710883890407" lon="115.36663646783252"><ele>72.0</ele><time>2026-04-12T07:48:41Z</time></trkpt><trkpt lat="-30.986488746684415" lon="115.36663491499029"><ele>72.0</ele><time>2026-04-12T07:48:42Z</time></trkpt><trkpt lat="-30.986254364033947" lon="115.36663289353469"><ele>72.0</ele><time>2026-04-12T07:48:43Z</time></trkpt><trkpt lat="-30.986015584369902" lon="115.36663389796152"><ele>70.0</ele><time>2026-04-12T07:48:44Z</time></trkpt><trkpt lat="-30.985774202358314" lon="115.36663849467433"><ele>68.0</ele><time>2026-04-12T07:48:45Z</time></trkpt><trkpt lat="-30.98552124559666" lon="115.36664100614753"><ele>68.0</ele><time>2026-04-12T07:48:46Z</time></trkpt><trkpt lat="-30.985256370041157" lon="115.36664187868118"><ele>68.0</ele><time>2026-04-12T07:48:47Z</time></trkpt><trkpt lat="-30.984994162717292" lon="115.36664142764673"><ele>67.5</ele><time>2026-04-12T07:48:48Z</time></trkpt><trkpt lat="-30.984752949870522" lon="115.36664304959865"><ele>67.0</ele><time>2026-04-12T07:48:49Z</time></trkpt><trkpt lat="-30.984522564670883" lon="115.36664374535394"><ele>67.0</ele><time>2026-04-12T07:48:50Z</time></trkpt><trkpt lat="-30.984287507397234" lon="115.36664507292232"><ele>67.0</ele><time>2026-04-12T07:48:51Z</time></trkpt><trkpt lat="-30.98404782571184" lon="115.3666464233068"><ele>68.0</ele><time>2026-04-12T07:48:52Z</time></trkpt><trkpt lat="-30.98380734036044" lon="115.36664785739202"><ele>69.0</ele><time>2026-04-12T07:48:53Z</time></trkpt><trkpt lat="-30.9835602312507" lon="115.36664544417488"><ele>71.0</ele><time>2026-04-12T07:48:54Z</time></trkpt><trkpt lat="-30.983309659238447" lon="115.36663964434995"><ele>73.0</ele><time>2026-04-12T07:48:55Z</time></trkpt><trkpt lat="-30.983057375814628" lon="115.36663590979016"><ele>73.0</ele><time>2026-04-12T07:48:56Z</time></trkpt><trkpt lat="-30.982804200081766" lon="115.36663831523066"><ele>73.0</ele><time>2026-04-12T07:48:57Z</time></trkpt><trkpt lat="-30.982549546981453" lon="115.36664311277934"><ele>73.0</ele><time>2026-04-12T07:48:58Z</time></trkpt><trkpt lat="-30.982292037263047" lon="115.366645106788"><ele>73.0</ele><time>2026-04-12T07:48:59Z</time></trkpt><trkpt lat="-30.98203298169235" lon="115.36664371896676"><ele>73.0</ele><time>2026-04-12T07:49:00Z</time></trkpt><trkpt lat="-30.981773847996703" lon="115.36664224112671"><ele>73.0</ele><time>2026-04-12T07:49:01Z</time></trkpt><trkpt lat="-30.98151592991746" lon="115.3666403921607"><ele>73.5</ele><time>2026-04-12T07:49:02Z</time></trkpt><trkpt lat="-30.98125592795751" lon="115.36664042934869"><ele>74.0</ele><time>2026-04-12T07:49:03Z</time></trkpt><trkpt lat="-30.980998531883824" lon="115.3666409739684"><ele>74.5</ele><time>2026-04-12T07:49:04Z</time></trkpt><trkpt lat="-30.98074262184859" lon="115.36664148922098"><ele>75.0</ele><time>2026-04-12T07:49:05Z</time></trkpt><trkpt lat="-30.98048490328814" lon="115.36664446134087"><ele>75.0</ele><time>2026-04-12T07:49:06Z</time></trkpt><trkpt lat="-30.98022641588291" lon="115.36664587987686"><ele>75.0</ele><time>2026-04-12T07:49:07Z</time></trkpt><trkpt lat="-30.979968039535326" lon="115.3666454929412"><ele>76.0</ele><time>2026-04-12T07:49:08Z</time></trkpt><trkpt lat="-30.979707991402545" lon="115.36664320901387"><ele>77.0</ele><time>2026-04-12T07:49:09Z</time></trkpt><trkpt lat="-30.979446445168193" lon="115.36664185218973"><ele>76.0</ele><time>2026-04-12T07:49:10Z</time></trkpt><trkpt lat="-30.979181639453145" lon="115.3666402555786"><ele>75.0</ele><time>2026-04-12T07:49:11Z</time></trkpt><trkpt lat="-30.97891074779589" lon="115.36664103121895"><ele>75.0</ele><time>2026-04-12T07:49:12Z</time></trkpt><trkpt lat="-30.978637562837857" lon="115.36664324089568"><ele>75.0</ele><time>2026-04-12T07:49:13Z</time></trkpt><trkpt lat="-30.978362577624875" lon="115.36664402968711"><ele>76.0</ele><time>2026-04-12T07:49:14Z</time></trkpt><trkpt lat="-30.97808563999931" lon="115.36664489787469"><ele>77.0</ele><time>2026-04-12T07:49:15Z</time></trkpt><trkpt lat="-30.97780749227979" lon="115.36664440962777"><ele>77.0</ele><time>2026-04-12T07:49:16Z</time></trkpt><trkpt lat="-30.97752776236594" lon="115.366645943321"><ele>77.0</ele><time>2026-04-12T07:49:17Z</time></trkpt><trkpt lat="-30.977246509945203" lon="115.366648019594"><ele>78.0</ele><time>2026-04-12T07:49:18Z</time></trkpt><trkpt lat="-30.976963718053835" lon="115.3666494610142"><ele>79.0</ele><time>2026-04-12T07:49:19Z</time></trkpt><trkpt lat="-30.97668244961782" lon="115.36664956214167"><ele>79.5</ele><time>2026-04-12T07:49:20Z</time></trkpt><trkpt lat="-30.97640247463454" lon="115.36664822345547"><ele>80.0</ele><time>2026-04-12T07:49:21Z</time></trkpt><trkpt lat="-30.976124964984493" lon="115.36664646470444"><ele>79.5</ele><time>2026-04-12T07:49:22Z</time></trkpt><trkpt lat="-30.97584867867319" lon="115.36664493178816"><ele>79.0</ele><time>2026-04-12T07:49:23Z</time></trkpt><trkpt lat="-30.975573391339573" lon="115.3666434097454"><ele>79.0</ele><time>2026-04-12T07:49:24Z</time></trkpt><trkpt lat="-30.975300387558974" lon="115.36664318823078"><ele>79.0</ele><time>2026-04-12T07:49:25Z</time></trkpt><trkpt lat="-30.975030094840672" lon="115.36664258938228"><ele>80.0</ele><time>2026-04-12T07:49:26Z</time></trkpt><trkpt lat="-30.974761692841557" lon="115.36664166049243"><ele>81.0</ele><time>2026-04-12T07:49:27Z</time></trkpt><trkpt lat="-30.974494543237032" lon="115.36664069353294"><ele>81.0</ele><time>2026-04-12T07:49:28Z</time></trkpt><trkpt lat="-30.974230643995625" lon="115.3666401673521"><ele>81.0</ele><time>2026-04-12T07:49:29Z</time></trkpt><trkpt lat="-30.97397042584423" lon="115.36664079681304"><ele>80.0</ele><time>2026-04-12T07:49:30Z</time></trkpt><trkpt lat="-30.973717099046986" lon="115.3666417521271"><ele>79.0</ele><time>2026-04-12T07:49:31Z</time></trkpt><trkpt lat="-30.9734846647812" lon="115.36663971750363"><ele>80.0</ele><time>2026-04-12T07:49:32Z</time></trkpt><trkpt lat="-30.973266240885412" lon="115.36663874468354"><ele>81.0</ele><time>2026-04-12T07:49:33Z</time></trkpt><trkpt lat="-30.97306005965303" lon="115.36663844942713"><ele>82.0</ele><time>2026-04-12T07:49:34Z</time></trkpt><trkpt lat="-30.972865481318284" lon="115.366637576705"><ele>82.0</ele><time>2026-04-12T07:49:35Z</time></trkpt><trkpt lat="-30.97268329031982" lon="115.36663857541045"><ele>82.0</ele><time>2026-04-12T07:49:36Z</time></trkpt><trkpt lat="-30.972510185241354" lon="115.36663902355284"><ele>82.0</ele><time>2026-04-12T07:49:37Z</time></trkpt><trkpt lat="-30.97234843141127" lon="115.3666373544884"><ele>83.0</ele><time>2026-04-12T07:49:38Z</time></trkpt><trkpt lat="-30.972192178310845" lon="115.36663145207581"><ele>84.0</ele><time>2026-04-12T07:49:39Z</time></trkpt><trkpt lat="-30.972046811581176" lon="115.36662108319224"><ele>85.0</ele><time>2026-04-12T07:49:40Z</time></trkpt><trkpt lat="-30.971902275792445" lon="115.36661140346912"><ele>86.0</ele><time>2026-04-12T07:49:41Z</time></trkpt><trkpt lat="-30.97175096933279" lon="115.36660848630294"><ele>86.5</ele><time>2026-04-12T07:49:42Z</time></trkpt><trkpt lat="-30.971601939523673" lon="115.36660884194819"><ele>87.0</ele><time>2026-04-12T07:49:43Z</time></trkpt><trkpt lat="-30.971468253170325" lon="115.36660654533614"><ele>87.5</ele><time>2026-04-12T07:49:44Z</time></trkpt><trkpt lat="-30.971345725542978" lon="115.36660560954618"><ele>88.0</ele><time>2026-04-12T07:49:45Z</time></trkpt><trkpt lat="-30.97123742974861" lon="115.36662529654359"><ele>88.0</ele><time>2026-04-12T07:49:46Z</time></trkpt><trkpt lat="-30.971146218734827" lon="115.36668631008932"><ele>88.0</ele><time>2026-04-12T07:49:47Z</time></trkpt><trkpt lat="-30.971089218627327" lon="115.36678543824195"><ele>88.0</ele><time>2026-04-12T07:49:48Z</time></trkpt><trkpt lat="-30.97106892321649" lon="115.36691233380022"><ele>88.0</ele><time>2026-04-12T07:49:49Z</time></trkpt><trkpt lat="-30.971090193137037" lon="115.36704986101786"><ele>88.0</ele><time>2026-04-12T07:49:50Z</time></trkpt><trkpt lat="-30.97111804518025" lon="115.36720076154816"><ele>88.66666666666666</ele><time>2026-04-12T07:49:51Z</time></trkpt><trkpt lat="-30.971131346613706" lon="115.3673680846058"><ele>89.33333333333333</ele><time>2026-04-12T07:49:52Z</time></trkpt><trkpt lat="-30.97113059809173" lon="115.36755362757748"><ele>90.0</ele><time>2026-04-12T07:49:53Z</time></trkpt><trkpt lat="-30.971124961021292" lon="115.36775871199146"><ele>90.0</ele><time>2026-04-12T07:49:54Z</time></trkpt><trkpt lat="-30.97112408571542" lon="115.36797247867419"><ele>90.0</ele><time>2026-04-12T07:49:55Z</time></trkpt><trkpt lat="-30.97112460259163" lon="115.36818194823951"><ele>90.0</ele><time>2026-04-12T07:49:56Z</time></trkpt><trkpt lat="-30.97111955526151" lon="115.36838470083265"><ele>90.66666666666667</ele><time>2026-04-12T07:49:57Z</time></trkpt><trkpt lat="-30.971099879840057" lon="115.36858042325551"><ele>91.33333333333334</ele><time>2026-04-12T07:49:58Z</time></trkpt><trkpt lat="-30.971055646651326" lon="115.36877882529436"><ele>92.0</ele><time>2026-04-12T07:49:59Z</time></trkpt><trkpt lat="-30.970989077919672" lon="115.36898262665883"><ele>92.66666666666667</ele><time>2026-04-12T07:50:00Z</time></trkpt><trkpt lat="-30.97090787969291" lon="115.36919273205248"><ele>93.33333333333333</ele><time>2026-04-12T07:50:01Z</time></trkpt><trkpt lat="-30.97081371333935" lon="115.36939501597666"><ele>94.0</ele><time>2026-04-12T07:50:02Z</time></trkpt><trkpt lat="-30.970702890670985" lon="115.36959981721782"><ele>96.66666666666666</ele><time>2026-04-12T07:50:03Z</time></trkpt><trkpt lat="-30.97058900617725" lon="115.36981430943469"><ele>99.33333333333333</ele><time>2026-04-12T07:50:04Z</time></trkpt><trkpt lat="-30.970476475589027" lon="115.37004184035433"><ele>102.0</ele><time>2026-04-12T07:50:05Z</time></trkpt><trkpt lat="-30.970367684033324" lon="115.37027135380613"><ele>102.0</ele><time>2026-04-12T07:50:06Z</time></trkpt><trkpt lat="-30.970258540941128" lon="115.37049668955346"><ele>102.0</ele><time>2026-04-12T07:50:07Z</time></trkpt><trkpt lat="-30.97014626040379" lon="115.37071862683574"><ele>102.0</ele><time>2026-04-12T07:50:08Z</time></trkpt><trkpt lat="-30.970030378553655" lon="115.3709437147421"><ele>102.66666666666666</ele><time>2026-04-12T07:50:09Z</time></trkpt><trkpt lat="-30.969919735028846" lon="115.37116169140477"><ele>103.33333333333333</ele><time>2026-04-12T07:50:10Z</time></trkpt><trkpt lat="-30.969815151650717" lon="115.37136908071801"><ele>104.0</ele><time>2026-04-12T07:50:11Z</time></trkpt><trkpt lat="-30.969716786247226" lon="115.37156917026921"><ele>105.0</ele><time>2026-04-12T07:50:12Z</time></trkpt><trkpt lat="-30.969622336736382" lon="115.37176372993852"><ele>106.0</ele><time>2026-04-12T07:50:13Z</time></trkpt><trkpt lat="-30.969526639981275" lon="115.37195695603458"><ele>107.0</ele><time>2026-04-12T07:50:14Z</time></trkpt><trkpt lat="-30.969422390721803" lon="115.37216612729202"><ele>108.33333333333333</ele><time>2026-04-12T07:50:15Z</time></trkpt><trkpt lat="-30.96931540776845" lon="115.37238562075403"><ele>109.66666666666666</ele><time>2026-04-12T07:50:16Z</time></trkpt><trkpt lat="-30.96920884379149" lon="115.37261090965043"><ele>111.0</ele><time>2026-04-12T07:50:17Z</time></trkpt><trkpt lat="-30.969099595045396" lon="115.37284260618094"><ele>111.5</ele><time>2026-04-12T07:50:18Z</time></trkpt><trkpt lat="-30.96898287399592" lon="115.37307994181668"><ele>112.0</ele><time>2026-04-12T07:50:19Z</time></trkpt><trkpt lat="-30.968869734139716" lon="115.37330624232004"><ele>112.0</ele><time>2026-04-12T07:50:20Z</time></trkpt><trkpt lat="-30.968747934376392" lon="115.3735399129774"><ele>112.0</ele><time>2026-04-12T07:50:21Z</time></trkpt><trkpt lat="-30.968625254325445" lon="115.37378097075973"><ele>113.5</ele><time>2026-04-12T07:50:22Z</time></trkpt><trkpt lat="-30.968503874794546" lon="115.37402731441874"><ele>115.0</ele><time>2026-04-12T07:50:23Z</time></trkpt><trkpt lat="-30.968381938224752" lon="115.37427716506946"><ele>115.5</ele><time>2026-04-12T07:50:24Z</time></trkpt><trkpt lat="-30.968264913093677" lon="115.37451773773678"><ele>116.0</ele><time>2026-04-12T07:50:25Z</time></trkpt><trkpt lat="-30.968149476754153" lon="115.37475521304602"><ele>116.0</ele><time>2026-04-12T07:50:26Z</time></trkpt><trkpt lat="-30.968034834501516" lon="115.3749923430092"><ele>116.0</ele><time>2026-04-12T07:50:27Z</time></trkpt><trkpt lat="-30.96792096012209" lon="115.37522057591981"><ele>116.0</ele><time>2026-04-12T07:50:28Z</time></trkpt><trkpt lat="-30.967811810194064" lon="115.37543841066798"><ele>116.0</ele><time>2026-04-12T07:50:29Z</time></trkpt><trkpt lat="-30.967715788215468" lon="115.3756293490054"><ele>116.0</ele><time>2026-04-12T07:50:30Z</time></trkpt><trkpt lat="-30.96763168975761" lon="115.3757937290077"><ele>117.4</ele><time>2026-04-12T07:50:31Z</time></trkpt><trkpt lat="-30.967573537266386" lon="115.3759022111756"><ele>118.8</ele><time>2026-04-12T07:50:32Z</time></trkpt><trkpt lat="-30.96752954526349" lon="115.37595660691939"><ele>120.20000000000002</ele><time>2026-04-12T07:50:33Z</time></trkpt><trkpt lat="-30.96747349404508" lon="115.37600449057042"><ele>121.60000000000001</ele><time>2026-04-12T07:50:35Z</time></trkpt><trkpt lat="-30.967358333751516" lon="115.3758800092952"><ele>123.0</ele><time>2026-04-12T07:50:36Z</time></trkpt><trkpt lat="-30.967276699698694" lon="115.37580773299989"><ele>123.5</ele><time>2026-04-12T07:50:37Z</time></trkpt><trkpt lat="-30.96717622404851" lon="115.37572188283086"><ele>124.0</ele><time>2026-04-12T07:50:38Z</time></trkpt><trkpt lat="-30.967062511558055" lon="115.37562256795678"><ele>124.5</ele><time>2026-04-12T07:50:39Z</time></trkpt><trkpt lat="-30.966934630015786" lon="115.37552163400777"><ele>125.0</ele><time>2026-04-12T07:50:40Z</time></trkpt><trkpt lat="-30.96679718557863" lon="115.37541962632282"><ele>125.0</ele><time>2026-04-12T07:50:41Z</time></trkpt><trkpt lat="-30.966647288249913" lon="115.37532392366535"><ele>125.0</ele><time>2026-04-12T07:50:42Z</time></trkpt><trkpt lat="-30.966490454505834" lon="115.37523890612081"><ele>125.0</ele><time>2026-04-12T07:50:43Z</time></trkpt><trkpt lat="-30.966324718428368" lon="115.37516275988673"><ele>125.0</ele><time>2026-04-12T07:50:44Z</time></trkpt><trkpt lat="-30.96617201740198" lon="115.37507519106246"><ele>125.0</ele><time>2026-04-12T07:50:45Z</time></trkpt><trkpt lat="-30.966026456694042" lon="115.37500652013605"><ele>125.0</ele><time>2026-04-12T07:50:46Z</time></trkpt><trkpt lat="-30.96588472460854" lon="115.37495934469939"><ele>125.0</ele><time>2026-04-12T07:50:47Z</time></trkpt><trkpt lat="-30.96575668550058" lon="115.3748953729674"><ele>125.0</ele><time>2026-04-12T07:50:48Z</time></trkpt><trkpt lat="-30.96563275702146" lon="115.3748355186582"><ele>125.0</ele><time>2026-04-12T07:50:49Z</time></trkpt><trkpt lat="-30.965516116908926" lon="115.37478216723369"><ele>125.0</ele><time>2026-04-12T07:50:50Z</time></trkpt><trkpt lat="-30.965404048786816" lon="115.37473589034337"><ele>125.0</ele><time>2026-04-12T07:50:51Z</time></trkpt><trkpt lat="-30.96530107543414" lon="115.37469085935521"><ele>125.0</ele><time>2026-04-12T07:50:52Z</time></trkpt><trkpt lat="-30.965203413382472" lon="115.37464733935414"><ele>125.0</ele><time>2026-04-12T07:50:53Z</time></trkpt><trkpt lat="-30.96511138606648" lon="115.37460846467886"><ele>125.0</ele><time>2026-04-12T07:50:54Z</time></trkpt><trkpt lat="-30.965027360666493" lon="115.37456802806949"><ele>125.0</ele><time>2026-04-12T07:50:55Z</time></trkpt><trkpt lat="-30.96494631070227" lon="115.37453077423001"><ele>124.99999999999999</ele><time>2026-04-12T07:50:56Z</time></trkpt><trkpt lat="-30.964870790694775" lon="115.3744993448177"><ele>125.0</ele><time>2026-04-12T07:50:57Z</time></trkpt><trkpt lat="-30.964798723083195" lon="115.37446610246613"><ele>125.0</ele><time>2026-04-12T07:50:58Z</time></trkpt><trkpt lat="-30.964732314928217" lon="115.3744329243393"><ele>125.0</ele><time>2026-04-12T07:50:59Z</time></trkpt><trkpt lat="-30.96467076932824" lon="115.37440005311556"><ele>124.99999999999999</ele><time>2026-04-12T07:51:00Z</time></trkpt><trkpt lat="-30.964578153551404" lon="115.37435717703201"><ele>125.0</ele><time>2026-04-12T07:51:02Z</time></trkpt><trkpt lat="-30.964516962832565" lon="115.37433116840856"><ele>125.0</ele><time>2026-04-12T07:51:05Z</time></trkpt><trkpt lat="-30.96440046205927" lon="115.37427178404364"><ele>125.0</ele><time>2026-04-12T07:52:03Z</time></trkpt><trkpt lat="-30.964322247999082" lon="115.37424384445156"><ele>125.0</ele><time>2026-04-12T07:52:04Z</time></trkpt><trkpt lat="-30.964212907412985" lon="115.37420272131169"><ele>125.0</ele><time>2026-04-12T07:52:05Z</time></trkpt><trkpt lat="-30.96410075164497" lon="115.37415317847699"><ele>125.0</ele><time>2026-04-12T07:52:06Z</time></trkpt><trkpt lat="-30.96396545620793" lon="115.37409391808963"><ele>124.33333333333333</ele><time>2026-04-12T07:52:07Z</time></trkpt><trkpt lat="-30.963797185392995" lon="115.37402972313649"><ele>123.66666666666666</ele><time>2026-04-12T07:52:08Z</time></trkpt><trkpt lat="-30.963608579738423" lon="115.37396043594006"><ele>123.0</ele><time>2026-04-12T07:52:09Z</time></trkpt><trkpt lat="-30.963418356080876" lon="115.37390587609721"><ele>123.33333333333334</ele><time>2026-04-12T07:52:10Z</time></trkpt><trkpt lat="-30.96322256733017" lon="115.37385483114028"><ele>123.66666666666667</ele><time>2026-04-12T07:52:11Z</time></trkpt><trkpt lat="-30.9630172527881" lon="115.37382832380868"><ele>124.0</ele><time>2026-04-12T07:52:12Z</time></trkpt><trkpt lat="-30.962813894916252" lon="115.37380618836511"><ele>124.0</ele><time>2026-04-12T07:52:13Z</time></trkpt><trkpt lat="-30.96261208940678" lon="115.3737923771959"><ele>124.0</ele><time>2026-04-12T07:52:14Z</time></trkpt><trkpt lat="-30.962410493552817" lon="115.37377671355316"><ele>124.0</ele><time>2026-04-12T07:52:15Z</time></trkpt><trkpt lat="-30.962209872996915" lon="115.37373936861445"><ele>125.0</ele><time>2026-04-12T07:52:16Z</time></trkpt><trkpt lat="-30.962011089321596" lon="115.3737183557647"><ele>126.0</ele><time>2026-04-12T07:52:17Z</time></trkpt><trkpt lat="-30.961813017667016" lon="115.37371878148734"><ele>127.0</ele><time>2026-04-12T07:52:18Z</time></trkpt><trkpt lat="-30.961620187488464" lon="115.37371179815217"><ele>127.33333333333334</ele><time>2026-04-12T07:52:19Z</time></trkpt><trkpt lat="-30.96142950667233" lon="115.37372199673796"><ele>127.66666666666666</ele><time>2026-04-12T07:52:20Z</time></trkpt><trkpt lat="-30.961235528907235" lon="115.37374311278157"><ele>128.0</ele><time>2026-04-12T07:52:21Z</time></trkpt><trkpt lat="-30.961035060949044" lon="115.37378060290081"><ele>128.0</ele><time>2026-04-12T07:52:22Z</time></trkpt><trkpt lat="-30.96084380996194" lon="115.37383467229058"><ele>128.0</ele><time>2026-04-12T07:52:23Z</time></trkpt><trkpt lat="-30.960657826341894" lon="115.37389199191729"><ele>128.0</ele><time>2026-04-12T07:52:24Z</time></trkpt><trkpt lat="-30.960468428730795" lon="115.37394479873974"><ele>127.33333333333333</ele><time>2026-04-12T07:52:25Z</time></trkpt><trkpt lat="-30.960280728961973" lon="115.37402164495961"><ele>126.66666666666666</ele><time>2026-04-12T07:52:26Z</time></trkpt><trkpt lat="-30.960096503947796" lon="115.37412203440296"><ele>126.0</ele><time>2026-04-12T07:52:27Z</time></trkpt><trkpt lat="-30.959929305661618" lon="115.37426469940407"><ele>125.66666666666666</ele><time>2026-04-12T07:52:28Z</time></trkpt><trkpt lat="-30.959770386302814" lon="115.37443904500569"><ele>125.33333333333333</ele><time>2026-04-12T07:52:29Z</time></trkpt><trkpt lat="-30.959613675924437" lon="115.37462956274794"><ele>125.0</ele><time>2026-04-12T07:52:30Z</time></trkpt><trkpt lat="-30.959456647664492" lon="115.37482137804196"><ele>124.0</ele><time>2026-04-12T07:52:31Z</time></trkpt><trkpt lat="-30.959298021100462" lon="115.37500850209402"><ele>123.0</ele><time>2026-04-12T07:52:32Z</time></trkpt><trkpt lat="-30.959148170965765" lon="115.37519358703159"><ele>122.0</ele><time>2026-04-12T07:52:33Z</time></trkpt><trkpt lat="-30.95901124406402" lon="115.37538832355952"><ele>121.66666666666666</ele><time>2026-04-12T07:52:34Z</time></trkpt><trkpt lat="-30.958900309660525" lon="115.37559282046716"><ele>121.33333333333334</ele><time>2026-04-12T07:52:35Z</time></trkpt><trkpt lat="-30.95882096244175" lon="115.37581188755648"><ele>121.0</ele><time>2026-04-12T07:52:36Z</time></trkpt><trkpt lat="-30.95876043084109" lon="115.3760492972366"><ele>121.0</ele><time>2026-04-12T07:52:37Z</time></trkpt><trkpt lat="-30.95871213632796" lon="115.37629912924476"><ele>121.0</ele><time>2026-04-12T07:52:38Z</time></trkpt><trkpt lat="-30.958665029990783" lon="115.37655088450718"><ele>121.0</ele><time>2026-04-12T07:52:39Z</time></trkpt><trkpt lat="-30.958615494512618" lon="115.37680194856692"><ele>120.0</ele><time>2026-04-12T07:52:40Z</time></trkpt><trkpt lat="-30.958571423674865" lon="115.37703748683019"><ele>119.0</ele><time>2026-04-12T07:52:41Z</time></trkpt><trkpt lat="-30.95853623876748" lon="115.37727464896146"><ele>118.0</ele><time>2026-04-12T07:52:42Z</time></trkpt><trkpt lat="-30.958510333622815" lon="115.37751572474544"><ele>118.0</ele><time>2026-04-12T07:52:43Z</time></trkpt><trkpt lat="-30.958497852942116" lon="115.37778123733011"><ele>118.0</ele><time>2026-04-12T07:52:44Z</time></trkpt><trkpt lat="-30.95850609446664" lon="115.37805219123187"><ele>120.0</ele><time>2026-04-12T07:52:45Z</time></trkpt><trkpt lat="-30.95852946058846" lon="115.3783373832216"><ele>122.0</ele><time>2026-04-12T07:52:46Z</time></trkpt><trkpt lat="-30.958553312347668" lon="115.3786212380922"><ele>122.0</ele><time>2026-04-12T07:52:47Z</time></trkpt><trkpt lat="-30.95857094424955" lon="115.37891466671587"><ele>122.0</ele><time>2026-04-12T07:52:48Z</time></trkpt><trkpt lat="-30.958584452790838" lon="115.37920668893574"><ele>122.0</ele><time>2026-04-12T07:52:49Z</time></trkpt><trkpt lat="-30.958597547783906" lon="115.37949096597353"><ele>122.0</ele><time>2026-04-12T07:52:50Z</time></trkpt><trkpt lat="-30.95860979884471" lon="115.37974748440537"><ele>121.5</ele><time>2026-04-12T07:52:51Z</time></trkpt><trkpt lat="-30.95862283720226" lon="115.38000717957651"><ele>121.0</ele><time>2026-04-12T07:52:52Z</time></trkpt><trkpt lat="-30.95863574137964" lon="115.38027778914828"><ele>121.0</ele><time>2026-04-12T07:52:53Z</time></trkpt><trkpt lat="-30.95864615439145" lon="115.3805491166069"><ele>121.0</ele><time>2026-04-12T07:52:54Z</time></trkpt><trkpt lat="-30.95865029564459" lon="115.38083010202692"><ele>121.0</ele><time>2026-04-12T07:52:55Z</time></trkpt><trkpt lat="-30.958644741630515" lon="115.3811188146423"><ele>121.0</ele><time>2026-04-12T07:52:56Z</time></trkpt><trkpt lat="-30.958630079792037" lon="115.38140387341797"><ele>119.5</ele><time>2026-04-12T07:52:57Z</time></trkpt><trkpt lat="-30.95861294841554" lon="115.38169910047428"><ele>118.0</ele><time>2026-04-12T07:52:58Z</time></trkpt><trkpt lat="-30.958596280063116" lon="115.38199725599797"><ele>119.0</ele><time>2026-04-12T07:52:59Z</time></trkpt><trkpt lat="-30.958579275378035" lon="115.38228766310021"><ele>120.0</ele><time>2026-04-12T07:53:00Z</time></trkpt><trkpt lat="-30.9585580820342" lon="115.38256360965326"><ele>120.0</ele><time>2026-04-12T07:53:01Z</time></trkpt><trkpt lat="-30.958542677768257" lon="115.38282097168594"><ele>120.0</ele><time>2026-04-12T07:53:02Z</time></trkpt><trkpt lat="-30.958528174433987" lon="115.38307093849978"><ele>120.0</ele><time>2026-04-12T07:53:03Z</time></trkpt><trkpt lat="-30.958512640172017" lon="115.38331231492015"><ele>121.33333333333334</ele><time>2026-04-12T07:53:04Z</time></trkpt><trkpt lat="-30.958500201216047" lon="115.38354244205777"><ele>122.66666666666667</ele><time>2026-04-12T07:53:05Z</time></trkpt><trkpt lat="-30.958501692492614" lon="115.3837744994473"><ele>124.0</ele><time>2026-04-12T07:53:06Z</time></trkpt><trkpt lat="-30.95852588280618" lon="115.38401088959029"><ele>125.33333333333334</ele><time>2026-04-12T07:53:07Z</time></trkpt><trkpt lat="-30.958569931278774" lon="115.3842597482855"><ele>126.66666666666666</ele><time>2026-04-12T07:53:08Z</time></trkpt><trkpt lat="-30.958623716577286" lon="115.38451636080629"><ele>128.0</ele><time>2026-04-12T07:53:09Z</time></trkpt><trkpt lat="-30.95867407245187" lon="115.38478197612376"><ele>128.0</ele><time>2026-04-12T07:53:10Z</time></trkpt><trkpt lat="-30.95872234696891" lon="115.38504290940195"><ele>128.0</ele><time>2026-04-12T07:53:11Z</time></trkpt><trkpt lat="-30.958767659205215" lon="115.38529029511344"><ele>128.0</ele><time>2026-04-12T07:53:12Z</time></trkpt><trkpt lat="-30.958811289609283" lon="115.3855226655395"><ele>126.33333333333333</ele><time>2026-04-12T07:53:13Z</time></trkpt><trkpt lat="-30.958860145494548" lon="115.38576133190348"><ele>124.66666666666666</ele><time>2026-04-12T07:53:14Z</time></trkpt><trkpt lat="-30.958920230632298" lon="115.38601096521123"><ele>123.0</ele><time>2026-04-12T07:53:15Z</time></trkpt><trkpt lat="-30.958996359996707" lon="115.38627568736"><ele>122.0</ele><time>2026-04-12T07:53:16Z</time></trkpt><trkpt lat="-30.95909542126786" lon="115.38653914453776"><ele>121.0</ele><time>2026-04-12T07:53:17Z</time></trkpt><trkpt lat="-30.959208468708326" lon="115.38680312688368"><ele>119.5</ele><time>2026-04-12T07:53:18Z</time></trkpt><trkpt lat="-30.959327802452872" lon="115.38706667113568"><ele>118.0</ele><time>2026-04-12T07:53:19Z</time></trkpt><trkpt lat="-30.959446612134197" lon="115.38733285273145"><ele>116.0</ele><time>2026-04-12T07:53:20Z</time></trkpt><trkpt lat="-30.95956148379943" lon="115.38760038730838"><ele>114.0</ele><time>2026-04-12T07:53:21Z</time></trkpt><trkpt lat="-30.95965883190242" lon="115.38788301115243"><ele>114.5</ele><time>2026-04-12T07:53:22Z</time></trkpt><trkpt lat="-30.95977168866653" lon="115.3881628916916"><ele>115.0</ele><time>2026-04-12T07:53:23Z</time></trkpt><trkpt lat="-30.959903356830964" lon="115.38842487588705"><ele>115.0</ele><time>2026-04-12T07:53:24Z</time></trkpt><trkpt lat="-30.96000904018214" lon="115.38868423488019"><ele>115.0</ele><time>2026-04-12T07:53:25Z</time></trkpt><trkpt lat="-30.960115779178157" lon="115.3889342248612"><ele>115.5</ele><time>2026-04-12T07:53:26Z</time></trkpt><trkpt lat="-30.96022078506274" lon="115.38917803684767"><ele>116.0</ele><time>2026-04-12T07:53:27Z</time></trkpt><trkpt lat="-30.96032314243433" lon="115.38941441385892"><ele>116.0</ele><time>2026-04-12T07:53:28Z</time></trkpt><trkpt lat="-30.96041924337855" lon="115.38965405428141"><ele>116.0</ele><time>2026-04-12T07:53:29Z</time></trkpt><trkpt lat="-30.960499586374603" lon="115.38989769836485"><ele>115.0</ele><time>2026-04-12T07:53:30Z</time></trkpt><trkpt lat="-30.960560968168295" lon="115.39014803562806"><ele>114.0</ele><time>2026-04-12T07:53:31Z</time></trkpt><trkpt lat="-30.960602785301624" lon="115.39041847795254"><ele>114.0</ele><time>2026-04-12T07:53:32Z</time></trkpt><trkpt lat="-30.960637267492086" lon="115.3906967123475"><ele>114.0</ele><time>2026-04-12T07:53:33Z</time></trkpt><trkpt lat="-30.96067219265773" lon="115.39097116008453"><ele>114.0</ele><time>2026-04-12T07:53:34Z</time></trkpt><trkpt lat="-30.960706549103804" lon="115.39124508766983"><ele>114.0</ele><time>2026-04-12T07:53:35Z</time></trkpt><trkpt lat="-30.960740348992605" lon="115.3915171410383"><ele>112.5</ele><time>2026-04-12T07:53:36Z</time></trkpt><trkpt lat="-30.960769177376395" lon="115.3917923539599"><ele>111.0</ele><time>2026-04-12T07:53:37Z</time></trkpt><trkpt lat="-30.96079031441544" lon="115.3920784083579"><ele>110.0</ele><time>2026-04-12T07:53:38Z</time></trkpt><trkpt lat="-30.960800350491557" lon="115.39237175006427"><ele>109.0</ele><time>2026-04-12T07:53:39Z</time></trkpt><trkpt lat="-30.96080973495442" lon="115.39266642201287"><ele>109.0</ele><time>2026-04-12T07:53:40Z</time></trkpt><trkpt lat="-30.960812477108817" lon="115.3929594841264"><ele>109.0</ele><time>2026-04-12T07:53:41Z</time></trkpt><trkpt lat="-30.96080064862019" lon="115.39325273028847"><ele>110.0</ele><time>2026-04-12T07:53:42Z</time></trkpt><trkpt lat="-30.960776247621254" lon="115.39354337211094"><ele>111.0</ele><time>2026-04-12T07:53:43Z</time></trkpt><trkpt lat="-30.96074246470231" lon="115.39382740161545"><ele>113.0</ele><time>2026-04-12T07:53:44Z</time></trkpt><trkpt lat="-30.960702585952983" lon="115.3941117846866"><ele>115.0</ele><time>2026-04-12T07:53:45Z</time></trkpt><trkpt lat="-30.960661649067244" lon="115.39439084722048"><ele>116.0</ele><time>2026-04-12T07:53:46Z</time></trkpt><trkpt lat="-30.96061855645295" lon="115.39467843820712"><ele>117.0</ele><time>2026-04-12T07:53:47Z</time></trkpt><trkpt lat="-30.960580470559666" lon="115.39497163635569"><ele>117.0</ele><time>2026-04-12T07:53:48Z</time></trkpt><trkpt lat="-30.960545956285234" lon="115.39526109241497"><ele>117.0</ele><time>2026-04-12T07:53:49Z</time></trkpt><trkpt lat="-30.960508962446195" lon="115.3955496614714"><ele>117.0</ele><time>2026-04-12T07:53:50Z</time></trkpt><trkpt lat="-30.96046877594809" lon="115.39584362385261"><ele>117.0</ele><time>2026-04-12T07:53:51Z</time></trkpt><trkpt lat="-30.96042794524499" lon="115.39614266965982"><ele>117.0</ele><time>2026-04-12T07:53:52Z</time></trkpt><trkpt lat="-30.960385203520204" lon="115.39644847357003"><ele>117.0</ele><time>2026-04-12T07:53:53Z</time></trkpt><trkpt lat="-30.96034545707918" lon="115.39675076229415"><ele>117.0</ele><time>2026-04-12T07:53:54Z</time></trkpt><trkpt lat="-30.960303651724086" lon="115.39705851127128"><ele>117.0</ele><time>2026-04-12T07:53:55Z</time></trkpt><trkpt lat="-30.96026236573584" lon="115.3973625880162"><ele>117.5</ele><time>2026-04-12T07:53:56Z</time></trkpt><trkpt lat="-30.960224356676818" lon="115.39765500526006"><ele>118.0</ele><time>2026-04-12T07:53:57Z</time></trkpt><trkpt lat="-30.960191579808033" lon="115.39793545691161"><ele>118.0</ele><time>2026-04-12T07:53:58Z</time></trkpt><trkpt lat="-30.960158875354967" lon="115.39820411129686"><ele>118.0</ele><time>2026-04-12T07:53:59Z</time></trkpt><trkpt lat="-30.96014014614295" lon="115.3984752572939"><ele>118.0</ele><time>2026-04-12T07:54:00Z</time></trkpt><trkpt lat="-30.960149367668183" lon="115.39875835387627"><ele>118.0</ele><time>2026-04-12T07:54:01Z</time></trkpt><trkpt lat="-30.9601832247759" lon="115.39904638034945"><ele>117.0</ele><time>2026-04-12T07:54:02Z</time></trkpt><trkpt lat="-30.96023424364532" lon="115.39933574576554"><ele>116.0</ele><time>2026-04-12T07:54:03Z</time></trkpt><trkpt lat="-30.96029784175629" lon="115.39961029551206"><ele>116.66666666666666</ele><time>2026-04-12T07:54:04Z</time></trkpt><trkpt lat="-30.9603857463079" lon="115.39985693916222"><ele>117.33333333333334</ele><time>2026-04-12T07:54:05Z</time></trkpt><trkpt lat="-30.96049792874506" lon="115.40007128010436"><ele>118.0</ele><time>2026-04-12T07:54:06Z</time></trkpt><trkpt lat="-30.96062625276343" lon="115.40027294709122"><ele>118.0</ele><time>2026-04-12T07:54:07Z</time></trkpt><trkpt lat="-30.960757475760293" lon="115.40044885481551"><ele>118.0</ele><time>2026-04-12T07:54:08Z</time></trkpt><trkpt lat="-30.96090014808212" lon="115.40060058947843"><ele>118.0</ele><time>2026-04-12T07:54:09Z</time></trkpt><trkpt lat="-30.961059109356288" lon="115.40074468873937"><ele>119.33333333333334</ele><time>2026-04-12T07:54:10Z</time></trkpt><trkpt lat="-30.96122694885488" lon="115.40088090247646"><ele>120.66666666666666</ele><time>2026-04-12T07:54:11Z</time></trkpt><trkpt lat="-30.96139430234493" lon="115.40099375440903"><ele>122.0</ele><time>2026-04-12T07:54:12Z</time></trkpt><trkpt lat="-30.961574299063408" lon="115.40108861286093"><ele>122.0</ele><time>2026-04-12T07:54:13Z</time></trkpt><trkpt lat="-30.961762064913643" lon="115.40116611414645"><ele>122.0</ele><time>2026-04-12T07:54:14Z</time></trkpt><trkpt lat="-30.961950521732735" lon="115.40122325474186"><ele>122.0</ele><time>2026-04-12T07:54:15Z</time></trkpt><trkpt lat="-30.96214090652764" lon="115.40127119687162"><ele>122.0</ele><time>2026-04-12T07:54:16Z</time></trkpt><trkpt lat="-30.962325916224017" lon="115.40130851844827"><ele>122.0</ele><time>2026-04-12T07:54:17Z</time></trkpt><trkpt lat="-30.962505097296937" lon="115.40132599509663"><ele>122.0</ele><time>2026-04-12T07:54:18Z</time></trkpt><trkpt lat="-30.962677002108958" lon="115.40132971808471"><ele>120.66666666666666</ele><time>2026-04-12T07:54:19Z</time></trkpt><trkpt lat="-30.96284251270862" lon="115.40132390792843"><ele>119.33333333333334</ele><time>2026-04-12T07:54:20Z</time></trkpt><trkpt lat="-30.96299233718382" lon="115.40131608324256"><ele>118.0</ele><time>2026-04-12T07:54:21Z</time></trkpt><trkpt lat="-30.96312837144584" lon="115.40131239669262"><ele>118.00000000000001</ele><time>2026-04-12T07:54:22Z</time></trkpt><trkpt lat="-30.963247163692586" lon="115.40131298682174"><ele>118.0</ele><time>2026-04-12T07:54:23Z</time></trkpt><trkpt lat="-30.963340782519403" lon="115.40131968832941"><ele>118.0</ele><time>2026-04-12T07:54:24Z</time></trkpt><trkpt lat="-30.963412234577135" lon="115.40135297182778"><ele>118.0</ele><time>2026-04-12T07:54:25Z</time></trkpt><trkpt lat="-30.963454042329776" lon="115.40142025754822"><ele>118.00000000000001</ele><time>2026-04-12T07:54:26Z</time></trkpt><trkpt lat="-30.96346670774237" lon="115.40151522424804"><ele>118.0</ele><time>2026-04-12T07:54:27Z</time></trkpt><trkpt lat="-30.963457276282742" lon="115.40162841510818"><ele>115.33333333333334</ele><time>2026-04-12T07:54:28Z</time></trkpt><trkpt lat="-30.96341882668879" lon="115.401776600768"><ele>112.66666666666666</ele><time>2026-04-12T07:54:29Z</time></trkpt><trkpt lat="-30.96341771631649" lon="115.40195586568734"><ele>110.0</ele><time>2026-04-12T07:54:30Z</time></trkpt><trkpt lat="-30.96343163121428" lon="115.40215813969488"><ele>109.33333333333333</ele><time>2026-04-12T07:54:31Z</time></trkpt><trkpt lat="-30.963424815747288" lon="115.40236110101795"><ele>108.66666666666666</ele><time>2026-04-12T07:54:32Z</time></trkpt><trkpt lat="-30.963417952652755" lon="115.4025754563044"><ele>108.0</ele><time>2026-04-12T07:54:33Z</time></trkpt><trkpt lat="-30.963413532256748" lon="115.40279904683183"><ele>109.33333333333334</ele><time>2026-04-12T07:54:34Z</time></trkpt><trkpt lat="-30.96341162910113" lon="115.40303279303161"><ele>110.66666666666667</ele><time>2026-04-12T07:54:35Z</time></trkpt><trkpt lat="-30.963409253091775" lon="115.40327278236616"><ele>112.0</ele><time>2026-04-12T07:54:36Z</time></trkpt><trkpt lat="-30.96340738355915" lon="115.40351196043385"><ele>112.0</ele><time>2026-04-12T07:54:37Z</time></trkpt><trkpt lat="-30.963404340296186" lon="115.40375723622951"><ele>112.0</ele><time>2026-04-12T07:54:38Z</time></trkpt><trkpt lat="-30.96340158608376" lon="115.40400417815677"><ele>112.0</ele><time>2026-04-12T07:54:39Z</time></trkpt><trkpt lat="-30.963397564783982" lon="115.40425236124047"><ele>112.0</ele><time>2026-04-12T07:54:40Z</time></trkpt><trkpt lat="-30.963393880951475" lon="115.40450082468152"><ele>112.0</ele><time>2026-04-12T07:54:41Z</time></trkpt><trkpt lat="-30.963389078440652" lon="115.40475199514594"><ele>112.0</ele><time>2026-04-12T07:54:42Z</time></trkpt><trkpt lat="-30.96337816212832" lon="115.40500789511925"><ele>113.33333333333334</ele><time>2026-04-12T07:54:43Z</time></trkpt><trkpt lat="-30.96335773844008" lon="115.40526749837046"><ele>114.66666666666666</ele><time>2026-04-12T07:54:44Z</time></trkpt><trkpt lat="-30.963329266319413" lon="115.40551660660277"><ele>116.0</ele><time>2026-04-12T07:54:45Z</time></trkpt><trkpt lat="-30.963297998027485" lon="115.40574976216953"><ele>116.33333333333333</ele><time>2026-04-12T07:54:46Z</time></trkpt><trkpt lat="-30.96325480254631" lon="115.40596901030885"><ele>116.66666666666666</ele><time>2026-04-12T07:54:47Z</time></trkpt><trkpt lat="-30.96319683900981" lon="115.40617253114385"><ele>117.0</ele><time>2026-04-12T07:54:48Z</time></trkpt><trkpt lat="-30.963137962543193" lon="115.40637106883293"><ele>118.33333333333334</ele><time>2026-04-12T07:54:49Z</time></trkpt><trkpt lat="-30.96307945599551" lon="115.40656910519111"><ele>119.66666666666667</ele><time>2026-04-12T07:54:50Z</time></trkpt><trkpt lat="-30.963017843720475" lon="115.40677059120782"><ele>121.0</ele><time>2026-04-12T07:54:51Z</time></trkpt><trkpt lat="-30.962955765735856" lon="115.4069722303113"><ele>122.66666666666667</ele><time>2026-04-12T07:54:52Z</time></trkpt><trkpt lat="-30.962894624564512" lon="115.40718074279076"><ele>124.33333333333334</ele><time>2026-04-12T07:54:53Z</time></trkpt><trkpt lat="-30.96282915288413" lon="115.40740006439043"><ele>126.0</ele><time>2026-04-12T07:54:54Z</time></trkpt><trkpt lat="-30.96275982468679" lon="115.40762491939212"><ele>126.0</ele><time>2026-04-12T07:54:55Z</time></trkpt><trkpt lat="-30.962684487699573" lon="115.40786679416983"><ele>126.0</ele><time>2026-04-12T07:54:56Z</time></trkpt><trkpt lat="-30.962607830469047" lon="115.4081150247293"><ele>126.0</ele><time>2026-04-12T07:54:57Z</time></trkpt><trkpt lat="-30.962533181288734" lon="115.40836726151997"><ele>127.0</ele><time>2026-04-12T07:54:58Z</time></trkpt><trkpt lat="-30.962459879467037" lon="115.40862700470026"><ele>128.0</ele><time>2026-04-12T07:54:59Z</time></trkpt><trkpt lat="-30.96238113984779" lon="115.40889563181963"><ele>131.0</ele><time>2026-04-12T07:55:00Z</time></trkpt><trkpt lat="-30.96229666920319" lon="115.40916706129688"><ele>134.0</ele><time>2026-04-12T07:55:01Z</time></trkpt><trkpt lat="-30.96221287581647" lon="115.40943996405474"><ele>134.5</ele><time>2026-04-12T07:55:02Z</time></trkpt><trkpt lat="-30.962125282956393" lon="115.40972131376084"><ele>135.0</ele><time>2026-04-12T07:55:03Z</time></trkpt><trkpt lat="-30.96204103942007" lon="115.41000132785112"><ele>135.0</ele><time>2026-04-12T07:55:04Z</time></trkpt><trkpt lat="-30.961961585405522" lon="115.41027193804675"><ele>135.0</ele><time>2026-04-12T07:55:05Z</time></trkpt><trkpt lat="-30.9618845574857" lon="115.410547806098"><ele>136.5</ele><time>2026-04-12T07:55:06Z</time></trkpt><trkpt lat="-30.961814925369335" lon="115.4108175394241"><ele>138.0</ele><time>2026-04-12T07:55:07Z</time></trkpt><trkpt lat="-30.96175261557947" lon="115.41109760906514"><ele>138.5</ele><time>2026-04-12T07:55:08Z</time></trkpt><trkpt lat="-30.961706192275496" lon="115.41138592791134"><ele>139.0</ele><time>2026-04-12T07:55:09Z</time></trkpt><trkpt lat="-30.961682403253327" lon="115.4116844967877"><ele>135.5</ele><time>2026-04-12T07:55:10Z</time></trkpt><trkpt lat="-30.96167163034051" lon="115.41199306778005"><ele>132.0</ele><time>2026-04-12T07:55:11Z</time></trkpt><trkpt lat="-30.961667987693914" lon="115.41230380036241"><ele>131.5</ele><time>2026-04-12T07:55:12Z</time></trkpt><trkpt lat="-30.96166813452261" lon="115.41261158501435"><ele>131.0</ele><time>2026-04-12T07:55:13Z</time></trkpt><trkpt lat="-30.961669583091208" lon="115.41292068590833"><ele>130.0</ele><time>2026-04-12T07:55:14Z</time></trkpt><trkpt lat="-30.96167178759482" lon="115.41322885890038"><ele>129.0</ele><time>2026-04-12T07:55:15Z</time></trkpt><trkpt lat="-30.961673400125015" lon="115.41354034007902"><ele>130.0</ele><time>2026-04-12T07:55:16Z</time></trkpt><trkpt lat="-30.961675861449823" lon="115.41384679966657"><ele>131.0</ele><time>2026-04-12T07:55:17Z</time></trkpt><trkpt lat="-30.961676929417948" lon="115.41415732619619"><ele>131.0</ele><time>2026-04-12T07:55:18Z</time></trkpt><trkpt lat="-30.961679013341435" lon="115.4144632151641"><ele>131.0</ele><time>2026-04-12T07:55:19Z</time></trkpt><trkpt lat="-30.961680973609948" lon="115.41476627832814"><ele>132.5</ele><time>2026-04-12T07:55:20Z</time></trkpt><trkpt lat="-30.961690663697475" lon="115.4150651547436"><ele>134.0</ele><time>2026-04-12T07:55:21Z</time></trkpt><trkpt lat="-30.961707910819015" lon="115.41536107230785"><ele>135.5</ele><time>2026-04-12T07:55:22Z</time></trkpt><trkpt lat="-30.961729288891785" lon="115.41566081723985"><ele>137.0</ele><time>2026-04-12T07:55:23Z</time></trkpt><trkpt lat="-30.961752351184593" lon="115.41595418711573"><ele>137.0</ele><time>2026-04-12T07:55:24Z</time></trkpt><trkpt lat="-30.9617769113881" lon="115.41622428261374"><ele>137.0</ele><time>2026-04-12T07:55:25Z</time></trkpt><trkpt lat="-30.961797230054838" lon="115.41647270944601"><ele>137.0</ele><time>2026-04-12T07:55:26Z</time></trkpt><trkpt lat="-30.961818517099125" lon="115.41670762304888"><ele>137.0</ele><time>2026-04-12T07:55:27Z</time></trkpt><trkpt lat="-30.961838357305783" lon="115.4169256197952"><ele>137.0</ele><time>2026-04-12T07:55:28Z</time></trkpt><trkpt lat="-30.961856968202667" lon="115.41713036475944"><ele>137.0</ele><time>2026-04-12T07:55:29Z</time></trkpt><trkpt lat="-30.961875729576985" lon="115.41730266250177"><ele>136.79999999999998</ele><time>2026-04-12T07:55:30Z</time></trkpt><trkpt lat="-30.961890601541413" lon="115.4174453595187"><ele>136.6</ele><time>2026-04-12T07:55:31Z</time></trkpt><trkpt lat="-30.961898254379452" lon="115.41755606929362"><ele>136.39999999999998</ele><time>2026-04-12T07:55:32Z</time></trkpt><trkpt lat="-30.96189071657428" lon="115.41762942567952"><ele>136.2</ele><time>2026-04-12T07:55:33Z</time></trkpt><trkpt lat="-30.961757880583527" lon="115.41769433915486"><ele>136.0</ele><time>2026-04-12T07:55:36Z</time></trkpt><trkpt lat="-30.961664119853573" lon="115.41770433722462"><ele>136.0</ele><time>2026-04-12T07:55:37Z</time></trkpt><trkpt lat="-30.96154994237299" lon="115.41773321563099"><ele>136.0</ele><time>2026-04-12T07:55:38Z</time></trkpt><trkpt lat="-30.96141380564324" lon="115.41773819578272"><ele>136.0</ele><time>2026-04-12T07:55:39Z</time></trkpt><trkpt lat="-30.96126292495202" lon="115.41775455437889"><ele>136.0</ele><time>2026-04-12T07:55:40Z</time></trkpt><trkpt lat="-30.961099874781066" lon="115.41777554689219"><ele>136.0</ele><time>2026-04-12T07:55:41Z</time></trkpt><trkpt lat="-30.96093164308357" lon="115.41779605882775"><ele>136.0</ele><time>2026-04-12T07:55:42Z</time></trkpt><trkpt lat="-30.960763374012636" lon="115.41781555560418"><ele>136.0</ele><time>2026-04-12T07:55:43Z</time></trkpt><trkpt lat="-30.960586236620944" lon="115.41783100556943"><ele>134.66666666666669</ele><time>2026-04-12T07:55:44Z</time></trkpt><trkpt lat="-30.960401767042562" lon="115.41784759391562"><ele>133.33333333333334</ele><time>2026-04-12T07:55:45Z</time></trkpt><trkpt lat="-30.960202959242885" lon="115.41786715040142"><ele>132.0</ele><time>2026-04-12T07:55:46Z</time></trkpt><trkpt lat="-30.95999422094467" lon="115.41789009751626"><ele>131.0</ele><time>2026-04-12T07:55:47Z</time></trkpt><trkpt lat="-30.959778772103682" lon="115.41791572540437"><ele>130.0</ele><time>2026-04-12T07:55:48Z</time></trkpt><trkpt lat="-30.959562227001097" lon="115.41793981923416"><ele>129.0</ele><time>2026-04-12T07:55:49Z</time></trkpt><trkpt lat="-30.959332891104587" lon="115.41796418472538"><ele>127.5</ele><time>2026-04-12T07:55:50Z</time></trkpt><trkpt lat="-30.959097839651907" lon="115.41798831092693"><ele>126.0</ele><time>2026-04-12T07:55:51Z</time></trkpt><trkpt lat="-30.958858660578315" lon="115.41801499881315"><ele>126.0</ele><time>2026-04-12T07:55:52Z</time></trkpt><trkpt lat="-30.958616369139783" lon="115.4180420085995"><ele>126.0</ele><time>2026-04-12T07:55:53Z</time></trkpt><trkpt lat="-30.95836771631244" lon="115.41807106092574"><ele>123.5</ele><time>2026-04-12T07:55:54Z</time></trkpt><trkpt lat="-30.95812386296404" lon="115.41809999095045"><ele>121.0</ele><time>2026-04-12T07:55:55Z</time></trkpt><trkpt lat="-30.957870326926134" lon="115.41812760804976"><ele>121.0</ele><time>2026-04-12T07:55:56Z</time></trkpt><trkpt lat="-30.957619665196756" lon="115.41815304038828"><ele>121.0</ele><time>2026-04-12T07:55:57Z</time></trkpt><trkpt lat="-30.957376986763524" lon="115.41817707671889"><ele>119.0</ele><time>2026-04-12T07:55:58Z</time></trkpt><trkpt lat="-30.957136847987783" lon="115.41819973099179"><ele>117.0</ele><time>2026-04-12T07:55:59Z</time></trkpt><trkpt lat="-30.95689714693173" lon="115.41822352517217"><ele>116.5</ele><time>2026-04-12T07:56:00Z</time></trkpt><trkpt lat="-30.956660596226325" lon="115.41824778574083"><ele>116.0</ele><time>2026-04-12T07:56:01Z</time></trkpt><trkpt lat="-30.956421934397348" lon="115.41827654364626"><ele>116.0</ele><time>2026-04-12T07:56:02Z</time></trkpt><trkpt lat="-30.956168363365943" lon="115.41830534267758"><ele>116.0</ele><time>2026-04-12T07:56:03Z</time></trkpt><trkpt lat="-30.955904143146793" lon="115.41833362570875"><ele>111.5</ele><time>2026-04-12T07:56:04Z</time></trkpt><trkpt lat="-30.955629747914113" lon="115.41836275631476"><ele>107.0</ele><time>2026-04-12T07:56:05Z</time></trkpt><trkpt lat="-30.955348283136004" lon="115.418393153209"><ele>107.0</ele><time>2026-04-12T07:56:06Z</time></trkpt><trkpt lat="-30.95508333827382" lon="115.4184184969361"><ele>107.0</ele><time>2026-04-12T07:56:07Z</time></trkpt><trkpt lat="-30.954823567072687" lon="115.4184421541683"><ele>105.0</ele><time>2026-04-12T07:56:08Z</time></trkpt><trkpt lat="-30.954559313959386" lon="115.41846652081162"><ele>103.0</ele><time>2026-04-12T07:56:09Z</time></trkpt><trkpt lat="-30.95429533115217" lon="115.4184963750894"><ele>102.0</ele><time>2026-04-12T07:56:10Z</time></trkpt><trkpt lat="-30.954035882604316" lon="115.41852955855464"><ele>101.0</ele><time>2026-04-12T07:56:11Z</time></trkpt><trkpt lat="-30.953772246114166" lon="115.41855949851596"><ele>101.0</ele><time>2026-04-12T07:56:12Z</time></trkpt><trkpt lat="-30.953509463187235" lon="115.41858541148612"><ele>101.0</ele><time>2026-04-12T07:56:13Z</time></trkpt><trkpt lat="-30.95324271191532" lon="115.41861252243703"><ele>101.0</ele><time>2026-04-12T07:56:14Z</time></trkpt><trkpt lat="-30.95297773724891" lon="115.41863898891458"><ele>101.0</ele><time>2026-04-12T07:56:15Z</time></trkpt><trkpt lat="-30.952716187698066" lon="115.4186673631511"><ele>101.5</ele><time>2026-04-12T07:56:16Z</time></trkpt><trkpt lat="-30.952454862458765" lon="115.41869866784984"><ele>102.0</ele><time>2026-04-12T07:56:17Z</time></trkpt><trkpt lat="-30.952191249386676" lon="115.41873128206272"><ele>102.0</ele><time>2026-04-12T07:56:18Z</time></trkpt><trkpt lat="-30.951919947640793" lon="115.41876401562743"><ele>102.0</ele><time>2026-04-12T07:56:19Z</time></trkpt><trkpt lat="-30.95164707160381" lon="115.41879591774492"><ele>101.5</ele><time>2026-04-12T07:56:20Z</time></trkpt><trkpt lat="-30.951374610406493" lon="115.41882524587658"><ele>101.0</ele><time>2026-04-12T07:56:21Z</time></trkpt><trkpt lat="-30.95110506713588" lon="115.4188535291325"><ele>100.5</ele><time>2026-04-12T07:56:22Z</time></trkpt><trkpt lat="-30.950843362198146" lon="115.41888013699447"><ele>100.0</ele><time>2026-04-12T07:56:23Z</time></trkpt><trkpt lat="-30.950583634242516" lon="115.41890581549065"><ele>100.0</ele><time>2026-04-12T07:56:24Z</time></trkpt><trkpt lat="-30.950328499089437" lon="115.41893261708883"><ele>100.0</ele><time>2026-04-12T07:56:25Z</time></trkpt><trkpt lat="-30.950071219348388" lon="115.41896046316108"><ele>100.0</ele><time>2026-04-12T07:56:26Z</time></trkpt><trkpt lat="-30.949817112529804" lon="115.41898878028766"><ele>100.0</ele><time>2026-04-12T07:56:27Z</time></trkpt><trkpt lat="-30.949569575384487" lon="115.419014454748"><ele>100.0</ele><time>2026-04-12T07:56:28Z</time></trkpt><trkpt lat="-30.949334744971324" lon="115.41903906184956"><ele>100.0</ele><time>2026-04-12T07:56:29Z</time></trkpt><trkpt lat="-30.949110674734488" lon="115.41906381275496"><ele>99.5</ele><time>2026-04-12T07:56:30Z</time></trkpt><trkpt lat="-30.94888757689337" lon="115.41908906516942"><ele>99.0</ele><time>2026-04-12T07:56:31Z</time></trkpt><trkpt lat="-30.948660921827475" lon="115.41911496360242"><ele>99.0</ele><time>2026-04-12T07:56:32Z</time></trkpt><trkpt lat="-30.948429966114652" lon="115.41913979414443"><ele>99.0</ele><time>2026-04-12T07:56:33Z</time></trkpt><trkpt lat="-30.948211100195444" lon="115.41916360093549"><ele>97.33333333333333</ele><time>2026-04-12T07:56:34Z</time></trkpt><trkpt lat="-30.948009334593365" lon="115.41918588901746"><ele>95.66666666666666</ele><time>2026-04-12T07:56:35Z</time></trkpt><trkpt lat="-30.94781286841445" lon="115.41921053337974"><ele>94.0</ele><time>2026-04-12T07:56:36Z</time></trkpt><trkpt lat="-30.947627307449764" lon="115.41923287820167"><ele>93.66666666666666</ele><time>2026-04-12T07:56:37Z</time></trkpt><trkpt lat="-30.947441239736484" lon="115.41925155840646"><ele>93.33333333333333</ele><time>2026-04-12T07:56:38Z</time></trkpt><trkpt lat="-30.947256660940685" lon="115.41926800611618"><ele>93.0</ele><time>2026-04-12T07:56:39Z</time></trkpt><trkpt lat="-30.94706576606419" lon="115.41928113933191"><ele>93.0</ele><time>2026-04-12T07:56:40Z</time></trkpt><trkpt lat="-30.946887022160286" lon="115.4192978853924"><ele>93.0</ele><time>2026-04-12T07:56:41Z</time></trkpt><trkpt lat="-30.946698641150736" lon="115.41931982917019"><ele>93.0</ele><time>2026-04-12T07:56:42Z</time></trkpt><trkpt lat="-30.94649750627657" lon="115.41934507128387"><ele>92.0</ele><time>2026-04-12T07:56:43Z</time></trkpt><trkpt lat="-30.946291782827927" lon="115.41937060739895"><ele>91.0</ele><time>2026-04-12T07:56:44Z</time></trkpt><trkpt lat="-30.946076709127688" lon="115.41939383951485"><ele>90.0</ele><time>2026-04-12T07:56:45Z</time></trkpt><trkpt lat="-30.945858864064533" lon="115.41941574324355"><ele>88.0</ele><time>2026-04-12T07:56:46Z</time></trkpt><trkpt lat="-30.94563541028812" lon="115.41943885727655"><ele>86.0</ele><time>2026-04-12T07:56:47Z</time></trkpt><trkpt lat="-30.945398315354478" lon="115.41946364874828"><ele>86.0</ele><time>2026-04-12T07:56:48Z</time></trkpt><trkpt lat="-30.945147968802967" lon="115.4194917729859"><ele>86.0</ele><time>2026-04-12T07:56:49Z</time></trkpt><trkpt lat="-30.94489474471119" lon="115.4195219444012"><ele>86.5</ele><time>2026-04-12T07:56:50Z</time></trkpt><trkpt lat="-30.944645057367836" lon="115.41954828345128"><ele>87.0</ele><time>2026-04-12T07:56:51Z</time></trkpt><trkpt lat="-30.944393166636893" lon="115.4195740639297"><ele>86.0</ele><time>2026-04-12T07:56:52Z</time></trkpt><trkpt lat="-30.94414861012637" lon="115.41960296347675"><ele>85.0</ele><time>2026-04-12T07:56:53Z</time></trkpt><trkpt lat="-30.943900852204106" lon="115.4196303174088"><ele>85.0</ele><time>2026-04-12T07:56:54Z</time></trkpt><trkpt lat="-30.943648005314632" lon="115.4196588994007"><ele>85.0</ele><time>2026-04-12T07:56:55Z</time></trkpt><trkpt lat="-30.943398248580213" lon="115.41968742238902"><ele>85.0</ele><time>2026-04-12T07:56:56Z</time></trkpt><trkpt lat="-30.94314843924815" lon="115.41971575450486"><ele>85.0</ele><time>2026-04-12T07:56:57Z</time></trkpt><trkpt lat="-30.942905386957065" lon="115.41974126582447"><ele>85.0</ele><time>2026-04-12T07:56:58Z</time></trkpt><trkpt lat="-30.94266111175888" lon="115.41976400639635"><ele>85.0</ele><time>2026-04-12T07:56:59Z</time></trkpt><trkpt lat="-30.94241963740132" lon="115.41979100050365"><ele>84.5</ele><time>2026-04-12T07:57:00Z</time></trkpt><trkpt lat="-30.942178208961778" lon="115.4198232343603"><ele>84.0</ele><time>2026-04-12T07:57:01Z</time></trkpt><trkpt lat="-30.941945126081777" lon="115.4198489846563"><ele>85.0</ele><time>2026-04-12T07:57:02Z</time></trkpt><trkpt lat="-30.941705145887344" lon="115.41986789787275"><ele>86.0</ele><time>2026-04-12T07:57:03Z</time></trkpt><trkpt lat="-30.941455025034557" lon="115.41989331669626"><ele>86.0</ele><time>2026-04-12T07:57:04Z</time></trkpt><trkpt lat="-30.941189639304415" lon="115.41992301600997"><ele>86.0</ele><time>2026-04-12T07:57:05Z</time></trkpt><trkpt lat="-30.940907485421064" lon="115.41995339086785"><ele>85.0</ele><time>2026-04-12T07:57:06Z</time></trkpt><trkpt lat="-30.940626199404594" lon="115.41998384272408"><ele>84.0</ele><time>2026-04-12T07:57:07Z</time></trkpt><trkpt lat="-30.940365710557074" lon="115.42001337147357"><ele>84.0</ele><time>2026-04-12T07:57:08Z</time></trkpt><trkpt lat="-30.94011578244226" lon="115.42004405724342"><ele>84.0</ele><time>2026-04-12T07:57:09Z</time></trkpt><trkpt lat="-30.93986639226979" lon="115.42007263021931"><ele>82.0</ele><time>2026-04-12T07:57:10Z</time></trkpt><trkpt lat="-30.939608247996016" lon="115.42009935706358"><ele>80.0</ele><time>2026-04-12T07:57:11Z</time></trkpt><trkpt lat="-30.939349581792772" lon="115.4201234549775"><ele>80.5</ele><time>2026-04-12T07:57:12Z</time></trkpt><trkpt lat="-30.939094396336543" lon="115.42014872424963"><ele>81.0</ele><time>2026-04-12T07:57:13Z</time></trkpt><trkpt lat="-30.938837879686858" lon="115.42017827187311"><ele>81.0</ele><time>2026-04-12T07:57:14Z</time></trkpt><trkpt lat="-30.938576788473075" lon="115.42020631046569"><ele>81.0</ele><time>2026-04-12T07:57:15Z</time></trkpt><trkpt lat="-30.938312787280868" lon="115.42023316795805"><ele>81.0</ele><time>2026-04-12T07:57:16Z</time></trkpt><trkpt lat="-30.93804715681018" lon="115.42026180761266"><ele>81.0</ele><time>2026-04-12T07:57:17Z</time></trkpt><trkpt lat="-30.937789599012707" lon="115.42028921263592"><ele>80.5</ele><time>2026-04-12T07:57:18Z</time></trkpt><trkpt lat="-30.93753639305525" lon="115.42032030200205"><ele>80.0</ele><time>2026-04-12T07:57:19Z</time></trkpt><trkpt lat="-30.937286752079682" lon="115.42034943661459"><ele>80.0</ele><time>2026-04-12T07:57:20Z</time></trkpt><trkpt lat="-30.937031545830408" lon="115.42037760799907"><ele>80.0</ele><time>2026-04-12T07:57:21Z</time></trkpt><trkpt lat="-30.936768837678567" lon="115.4204058498198"><ele>78.0</ele><time>2026-04-12T07:57:22Z</time></trkpt><trkpt lat="-30.936507358128345" lon="115.42043453849978"><ele>76.0</ele><time>2026-04-12T07:57:23Z</time></trkpt><trkpt lat="-30.936267963939027" lon="115.4204622532568"><ele>78.0</ele><time>2026-04-12T07:57:24Z</time></trkpt><trkpt lat="-30.93603444618588" lon="115.42048789802082"><ele>80.0</ele><time>2026-04-12T07:57:25Z</time></trkpt><trkpt lat="-30.935796586976195" lon="115.4205120875977"><ele>80.5</ele><time>2026-04-12T07:57:26Z</time></trkpt><trkpt lat="-30.935567405561553" lon="115.42053512149974"><ele>81.0</ele><time>2026-04-12T07:57:27Z</time></trkpt><trkpt lat="-30.93534670514081" lon="115.42056028232521"><ele>81.0</ele><time>2026-04-12T07:57:28Z</time></trkpt><trkpt lat="-30.93512024810511" lon="115.4205875806496"><ele>81.0</ele><time>2026-04-12T07:57:29Z</time></trkpt><trkpt lat="-30.934880650589093" lon="115.42061509234878"><ele>79.0</ele><time>2026-04-12T07:57:30Z</time></trkpt><trkpt lat="-30.934633530796475" lon="115.42064138980516"><ele>77.0</ele><time>2026-04-12T07:57:31Z</time></trkpt><trkpt lat="-30.934376823745392" lon="115.42066787662192"><ele>77.5</ele><time>2026-04-12T07:57:32Z</time></trkpt><trkpt lat="-30.934103625449044" lon="115.42069851678929"><ele>78.0</ele><time>2026-04-12T07:57:33Z</time></trkpt><trkpt lat="-30.93382528770292" lon="115.42072995873717"><ele>78.0</ele><time>2026-04-12T07:57:34Z</time></trkpt><trkpt lat="-30.93355481339822" lon="115.42075879042206"><ele>78.0</ele><time>2026-04-12T07:57:35Z</time></trkpt><trkpt lat="-30.93329476486301" lon="115.42078812376445"><ele>75.5</ele><time>2026-04-12T07:57:36Z</time></trkpt><trkpt lat="-30.933023072582355" lon="115.42081582031389"><ele>73.0</ele><time>2026-04-12T07:57:37Z</time></trkpt><trkpt lat="-30.93275214807274" lon="115.42084295821341"><ele>71.5</ele><time>2026-04-12T07:57:38Z</time></trkpt><trkpt lat="-30.932480145257504" lon="115.42087186077232"><ele>70.0</ele><time>2026-04-12T07:57:39Z</time></trkpt><trkpt lat="-30.932202148795295" lon="115.42090103661205"><ele>70.0</ele><time>2026-04-12T07:57:40Z</time></trkpt><trkpt lat="-30.931930874829586" lon="115.42093006411717"><ele>70.0</ele><time>2026-04-12T07:57:41Z</time></trkpt><trkpt lat="-30.931661051914723" lon="115.42095951955145"><ele>67.5</ele><time>2026-04-12T07:57:42Z</time></trkpt><trkpt lat="-30.93140073868715" lon="115.42098837231865"><ele>65.0</ele><time>2026-04-12T07:57:43Z</time></trkpt><trkpt lat="-30.93115757270794" lon="115.4210131864161"><ele>65.0</ele><time>2026-04-12T07:57:44Z</time></trkpt><trkpt lat="-30.93092911887231" lon="115.42103646658482"><ele>65.0</ele><time>2026-04-12T07:57:45Z</time></trkpt><trkpt lat="-30.930710387949276" lon="115.42105974679588"><ele>65.0</ele><time>2026-04-12T07:57:46Z</time></trkpt><trkpt lat="-30.930502145631113" lon="115.42108215318027"><ele>64.33333333333334</ele><time>2026-04-12T07:57:47Z</time></trkpt><trkpt lat="-30.930309131594786" lon="115.42110540022551"><ele>63.66666666666667</ele><time>2026-04-12T07:57:48Z</time></trkpt><trkpt lat="-30.93013252744731" lon="115.42112377226579"><ele>63.0</ele><time>2026-04-12T07:57:49Z</time></trkpt><trkpt lat="-30.92998105900263" lon="115.42113822167201"><ele>63.0</ele><time>2026-04-12T07:57:50Z</time></trkpt><trkpt lat="-30.92985087439307" lon="115.42115343439042"><ele>63.0</ele><time>2026-04-12T07:57:51Z</time></trkpt><trkpt lat="-30.9297423245744" lon="115.4211668738929"><ele>63.0</ele><time>2026-04-12T07:57:52Z</time></trkpt><trkpt lat="-30.929655644079638" lon="115.42117715447841"><ele>63.0</ele><time>2026-04-12T07:57:53Z</time></trkpt><trkpt lat="-30.929591513173666" lon="115.4211833188567"><ele>63.0</ele><time>2026-04-12T07:57:54Z</time></trkpt><trkpt lat="-30.929525213507635" lon="115.4211882912673"><ele>63.0</ele><time>2026-04-12T07:57:57Z</time></trkpt><trkpt lat="-30.92945682073588" lon="115.42118996713418"><ele>63.0</ele><time>2026-04-12T08:00:33Z</time></trkpt><trkpt lat="-30.929361681900836" lon="115.42119953247635"><ele>63.0</ele><time>2026-04-12T08:00:34Z</time></trkpt><trkpt lat="-30.929237802119392" lon="115.42121361629209"><ele>63.0</ele><time>2026-04-12T08:00:35Z</time></trkpt><trkpt lat="-30.92911475351644" lon="115.4212297874732"><ele>63.0</ele><time>2026-04-12T08:00:36Z</time></trkpt><trkpt lat="-30.92894826560236" lon="115.4212476552382"><ele>63.33333333333333</ele><time>2026-04-12T08:00:37Z</time></trkpt><trkpt lat="-30.928765913790713" lon="115.42127222547553"><ele>63.666666666666664</ele><time>2026-04-12T08:00:38Z</time></trkpt><trkpt lat="-30.92856487964866" lon="115.42129509212083"><ele>64.0</ele><time>2026-04-12T08:00:39Z</time></trkpt><trkpt lat="-30.928353831731204" lon="115.42131950591038"><ele>65.33333333333333</ele><time>2026-04-12T08:00:40Z</time></trkpt><trkpt lat="-30.928136481694015" lon="115.42134665688413"><ele>66.66666666666667</ele><time>2026-04-12T08:00:41Z</time></trkpt><trkpt lat="-30.92791874656376" lon="115.42137285102183"><ele>68.0</ele><time>2026-04-12T08:00:42Z</time></trkpt><trkpt lat="-30.92768712394837" lon="115.42139862413711"><ele>70.0</ele><time>2026-04-12T08:00:43Z</time></trkpt><trkpt lat="-30.927448035157713" lon="115.42142704497347"><ele>72.0</ele><time>2026-04-12T08:00:44Z</time></trkpt><trkpt lat="-30.927220752663136" lon="115.42145447219596"><ele>72.0</ele><time>2026-04-12T08:00:45Z</time></trkpt><trkpt lat="-30.927002086469358" lon="115.42148164957119"><ele>72.0</ele><time>2026-04-12T08:00:46Z</time></trkpt><trkpt lat="-30.92677332975646" lon="115.42148749610357"><ele>72.0</ele><time>2026-04-12T08:00:47Z</time></trkpt><trkpt lat="-30.926539863857567" lon="115.42151140178188"><ele>70.5</ele><time>2026-04-12T08:00:48Z</time></trkpt><trkpt lat="-30.926297620099515" lon="115.42153564267838"><ele>69.0</ele><time>2026-04-12T08:00:49Z</time></trkpt><trkpt lat="-30.926042724690056" lon="115.42156204319821"><ele>67.0</ele><time>2026-04-12T08:00:50Z</time></trkpt><trkpt lat="-30.92578247619945" lon="115.42160696524734"><ele>65.0</ele><time>2026-04-12T08:00:51Z</time></trkpt><trkpt lat="-30.925505404809268" lon="115.42163584442329"><ele>65.0</ele><time>2026-04-12T08:00:52Z</time></trkpt><trkpt lat="-30.925232741431962" lon="115.42166404500458"><ele>65.0</ele><time>2026-04-12T08:00:53Z</time></trkpt><trkpt lat="-30.924975790120914" lon="115.4216914389366"><ele>65.5</ele><time>2026-04-12T08:00:54Z</time></trkpt><trkpt lat="-30.924727784399252" lon="115.42171551460775"><ele>66.0</ele><time>2026-04-12T08:00:55Z</time></trkpt><trkpt lat="-30.92447989989718" lon="115.42173967501745"><ele>66.0</ele><time>2026-04-12T08:00:56Z</time></trkpt><trkpt lat="-30.92423381317064" lon="115.4217645407664"><ele>66.0</ele><time>2026-04-12T08:00:57Z</time></trkpt><trkpt lat="-30.923985053522728" lon="115.42179091735744"><ele>64.0</ele><time>2026-04-12T08:00:58Z</time></trkpt><trkpt lat="-30.92372972166952" lon="115.42181753386275"><ele>62.0</ele><time>2026-04-12T08:00:59Z</time></trkpt><trkpt lat="-30.923479175492457" lon="115.42184477879017"><ele>61.0</ele><time>2026-04-12T08:01:00Z</time></trkpt><trkpt lat="-30.923229988179408" lon="115.42187282893117"><ele>60.0</ele><time>2026-04-12T08:01:01Z</time></trkpt><trkpt lat="-30.922991408845576" lon="115.42190348237806"><ele>60.0</ele><time>2026-04-12T08:01:02Z</time></trkpt><trkpt lat="-30.922751438451375" lon="115.42193364934269"><ele>60.0</ele><time>2026-04-12T08:01:03Z</time></trkpt><trkpt lat="-30.922512489316965" lon="115.42195960439814"><ele>61.0</ele><time>2026-04-12T08:01:04Z</time></trkpt><trkpt lat="-30.92227292373585" lon="115.42198210878998"><ele>62.0</ele><time>2026-04-12T08:01:05Z</time></trkpt><trkpt lat="-30.92202956628822" lon="115.42200672795639"><ele>62.0</ele><time>2026-04-12T08:01:06Z</time></trkpt><trkpt lat="-30.921802647695056" lon="115.42203662643938"><ele>62.0</ele><time>2026-04-12T08:01:07Z</time></trkpt><trkpt lat="-30.921566987644624" lon="115.4220650207588"><ele>65.5</ele><time>2026-04-12T08:01:08Z</time></trkpt><trkpt lat="-30.921329110515114" lon="115.42208984062087"><ele>69.0</ele><time>2026-04-12T08:01:09Z</time></trkpt><trkpt lat="-30.921092215614074" lon="115.42211283050166"><ele>71.0</ele><time>2026-04-12T08:01:10Z</time></trkpt><trkpt lat="-30.920857864986925" lon="115.42213887010767"><ele>73.0</ele><time>2026-04-12T08:01:11Z</time></trkpt><trkpt lat="-30.92061302969223" lon="115.42216391340828"><ele>74.0</ele><time>2026-04-12T08:01:12Z</time></trkpt><trkpt lat="-30.92036454247759" lon="115.42219099018914"><ele>75.0</ele><time>2026-04-12T08:01:13Z</time></trkpt><trkpt lat="-30.92011124774729" lon="115.42222022549333"><ele>78.0</ele><time>2026-04-12T08:01:14Z</time></trkpt><trkpt lat="-30.919856985506154" lon="115.4222504898131"><ele>81.0</ele><time>2026-04-12T08:01:15Z</time></trkpt><trkpt lat="-30.91960037484314" lon="115.42227918914433"><ele>81.0</ele><time>2026-04-12T08:01:16Z</time></trkpt><trkpt lat="-30.919355329676954" lon="115.42230518665863"><ele>81.0</ele><time>2026-04-12T08:01:17Z</time></trkpt><trkpt lat="-30.919119201553187" lon="115.4223277451"><ele>85.0</ele><time>2026-04-12T08:01:18Z</time></trkpt><trkpt lat="-30.91888196393149" lon="115.42234988871058"><ele>89.0</ele><time>2026-04-12T08:01:19Z</time></trkpt><trkpt lat="-30.918642597672378" lon="115.4223758695427"><ele>89.0</ele><time>2026-04-12T08:01:20Z</time></trkpt><trkpt lat="-30.91840423736414" lon="115.42240519865878"><ele>89.0</ele><time>2026-04-12T08:01:21Z</time></trkpt><trkpt lat="-30.918167589415123" lon="115.42243259539423"><ele>92.5</ele><time>2026-04-12T08:01:22Z</time></trkpt><trkpt lat="-30.917931622092333" lon="115.42245682570427"><ele>96.0</ele><time>2026-04-12T08:01:23Z</time></trkpt><trkpt lat="-30.917696564455486" lon="115.42248094457861"><ele>97.0</ele><time>2026-04-12T08:01:24Z</time></trkpt><trkpt lat="-30.91745840920627" lon="115.42250930794417"><ele>98.0</ele><time>2026-04-12T08:01:25Z</time></trkpt><trkpt lat="-30.917216024791813" lon="115.42253930596672"><ele>98.0</ele><time>2026-04-12T08:01:26Z</time></trkpt><trkpt lat="-30.91696853133362" lon="115.42256884760026"><ele>98.0</ele><time>2026-04-12T08:01:27Z</time></trkpt><trkpt lat="-30.916722425410168" lon="115.42259513568267"><ele>98.0</ele><time>2026-04-12T08:01:28Z</time></trkpt><trkpt lat="-30.916475109315" lon="115.42262018946307"><ele>98.0</ele><time>2026-04-12T08:01:29Z</time></trkpt><trkpt lat="-30.91623702008926" lon="115.4226481254323"><ele>98.0</ele><time>2026-04-12T08:01:30Z</time></trkpt><trkpt lat="-30.916000882406642" lon="115.422674045735"><ele>98.0</ele><time>2026-04-12T08:01:31Z</time></trkpt><trkpt lat="-30.915761376960166" lon="115.42269688719168"><ele>99.5</ele><time>2026-04-12T08:01:32Z</time></trkpt><trkpt lat="-30.91551745412428" lon="115.42272165574195"><ele>101.0</ele><time>2026-04-12T08:01:33Z</time></trkpt><trkpt lat="-30.91527860390786" lon="115.42274704335881"><ele>102.5</ele><time>2026-04-12T08:01:34Z</time></trkpt><trkpt lat="-30.915035618268472" lon="115.42277491677694"><ele>104.0</ele><time>2026-04-12T08:01:35Z</time></trkpt><trkpt lat="-30.91479270110049" lon="115.42280435944639"><ele>104.0</ele><time>2026-04-12T08:01:36Z</time></trkpt><trkpt lat="-30.914550790493145" lon="115.4228311470095"><ele>104.0</ele><time>2026-04-12T08:01:37Z</time></trkpt><trkpt lat="-30.914305550864803" lon="115.42286117465453"><ele>102.5</ele><time>2026-04-12T08:01:38Z</time></trkpt><trkpt lat="-30.914054880920045" lon="115.42287253494112"><ele>101.0</ele><time>2026-04-12T08:01:39Z</time></trkpt><trkpt lat="-30.91381071468626" lon="115.422900255033"><ele>101.0</ele><time>2026-04-12T08:01:40Z</time></trkpt><trkpt lat="-30.91355277730494" lon="115.42292895901694"><ele>101.0</ele><time>2026-04-12T08:01:41Z</time></trkpt><trkpt lat="-30.91329230248786" lon="115.42295489275548"><ele>104.5</ele><time>2026-04-12T08:01:42Z</time></trkpt><trkpt lat="-30.913021639611536" lon="115.4229812749781"><ele>108.0</ele><time>2026-04-12T08:01:43Z</time></trkpt><trkpt lat="-30.91274698770375" lon="115.42300975239036"><ele>106.0</ele><time>2026-04-12T08:01:44Z</time></trkpt><trkpt lat="-30.91245610959792" lon="115.42304036815987"><ele>104.0</ele><time>2026-04-12T08:01:45Z</time></trkpt><trkpt lat="-30.912156057790384" lon="115.42307370724923"><ele>104.0</ele><time>2026-04-12T08:01:46Z</time></trkpt><trkpt lat="-30.91186612379741" lon="115.42312383640915"><ele>104.0</ele><time>2026-04-12T08:01:47Z</time></trkpt><trkpt lat="-30.911591847582045" lon="115.42315205201862"><ele>108.5</ele><time>2026-04-12T08:01:48Z</time></trkpt><trkpt lat="-30.91132018121278" lon="115.42317737482546"><ele>113.0</ele><time>2026-04-12T08:01:49Z</time></trkpt><trkpt lat="-30.911050945002955" lon="115.42320555602969"><ele>117.0</ele><time>2026-04-12T08:01:50Z</time></trkpt><trkpt lat="-30.910780951076138" lon="115.42323455238392"><ele>121.0</ele><time>2026-04-12T08:01:51Z</time></trkpt><trkpt lat="-30.910519781167178" lon="115.4232643971181"><ele>121.0</ele><time>2026-04-12T08:01:52Z</time></trkpt><trkpt lat="-30.910265176535507" lon="115.42329414721524"><ele>121.0</ele><time>2026-04-12T08:01:53Z</time></trkpt><trkpt lat="-30.910014569497847" lon="115.42332065132815"><ele>120.5</ele><time>2026-04-12T08:01:54Z</time></trkpt><trkpt lat="-30.909751171802057" lon="115.42334767363168"><ele>120.0</ele><time>2026-04-12T08:01:55Z</time></trkpt><trkpt lat="-30.90948736003763" lon="115.42337546749076"><ele>117.5</ele><time>2026-04-12T08:01:56Z</time></trkpt><trkpt lat="-30.909216305591876" lon="115.42340605385323"><ele>115.0</ele><time>2026-04-12T08:01:57Z</time></trkpt><trkpt lat="-30.90894049153985" lon="115.42343673184376"><ele>115.0</ele><time>2026-04-12T08:01:58Z</time></trkpt><trkpt lat="-30.90866054971052" lon="115.42346752963857"><ele>115.0</ele><time>2026-04-12T08:01:59Z</time></trkpt><trkpt lat="-30.908379681177852" lon="115.42349705293316"><ele>114.5</ele><time>2026-04-12T08:02:00Z</time></trkpt><trkpt lat="-30.908099103297946" lon="115.4235262874984"><ele>114.0</ele><time>2026-04-12T08:02:01Z</time></trkpt><trkpt lat="-30.90782057829999" lon="115.42355453987588"><ele>113.5</ele><time>2026-04-12T08:02:02Z</time></trkpt><trkpt lat="-30.907540008357383" lon="115.42358248999881"><ele>113.0</ele><time>2026-04-12T08:02:03Z</time></trkpt><trkpt lat="-30.907258718736298" lon="115.42361232019883"><ele>113.0</ele><time>2026-04-12T08:02:04Z</time></trkpt><trkpt lat="-30.906983100711" lon="115.42364129751552"><ele>113.0</ele><time>2026-04-12T08:02:05Z</time></trkpt><trkpt lat="-30.90671267206353" lon="115.42366940915477"><ele>113.5</ele><time>2026-04-12T08:02:06Z</time></trkpt><trkpt lat="-30.906443771861035" lon="115.42369964110335"><ele>114.0</ele><time>2026-04-12T08:02:07Z</time></trkpt><trkpt lat="-30.90617495172518" lon="115.42372748956726"><ele>114.0</ele><time>2026-04-12T08:02:08Z</time></trkpt><trkpt lat="-30.90591409491674" lon="115.4237528120197"><ele>114.0</ele><time>2026-04-12T08:02:09Z</time></trkpt><trkpt lat="-30.905666370101407" lon="115.42378523036442"><ele>116.5</ele><time>2026-04-12T08:02:10Z</time></trkpt><trkpt lat="-30.905425046320797" lon="115.42381852252939"><ele>119.0</ele><time>2026-04-12T08:02:11Z</time></trkpt><trkpt lat="-30.905187246080267" lon="115.42384981834776"><ele>120.5</ele><time>2026-04-12T08:02:12Z</time></trkpt><trkpt lat="-30.90494385517308" lon="115.42388070110037"><ele>122.0</ele><time>2026-04-12T08:02:13Z</time></trkpt><trkpt lat="-30.90469413298204" lon="115.42390992523673"><ele>122.0</ele><time>2026-04-12T08:02:14Z</time></trkpt><trkpt lat="-30.904430908027855" lon="115.42393862892064"><ele>122.0</ele><time>2026-04-12T08:02:15Z</time></trkpt><trkpt lat="-30.90416918363457" lon="115.42396712354247"><ele>123.0</ele><time>2026-04-12T08:02:16Z</time></trkpt><trkpt lat="-30.903904965873426" lon="115.42399731792842"><ele>124.0</ele><time>2026-04-12T08:02:17Z</time></trkpt><trkpt lat="-30.903648236632996" lon="115.42402594003131"><ele>122.5</ele><time>2026-04-12T08:02:18Z</time></trkpt><trkpt lat="-30.903383075637105" lon="115.42405276427783"><ele>121.0</ele><time>2026-04-12T08:02:19Z</time></trkpt><trkpt lat="-30.903123119870266" lon="115.42408114024147"><ele>121.0</ele><time>2026-04-12T08:02:20Z</time></trkpt><trkpt lat="-30.9028616778827" lon="115.424111263539"><ele>121.0</ele><time>2026-04-12T08:02:21Z</time></trkpt><trkpt lat="-30.90260560374418" lon="115.42413875397688"><ele>119.5</ele><time>2026-04-12T08:02:22Z</time></trkpt><trkpt lat="-30.902350558376103" lon="115.42416591304855"><ele>118.0</ele><time>2026-04-12T08:02:23Z</time></trkpt><trkpt lat="-30.902098718682122" lon="115.4241924429383"><ele>118.0</ele><time>2026-04-12T08:02:24Z</time></trkpt><trkpt lat="-30.90184524397617" lon="115.42421938693981"><ele>118.0</ele><time>2026-04-12T08:02:25Z</time></trkpt><trkpt lat="-30.901582279959026" lon="115.42424668779474"><ele>115.5</ele><time>2026-04-12T08:02:26Z</time></trkpt><trkpt lat="-30.901320533486462" lon="115.42427354155248"><ele>113.0</ele><time>2026-04-12T08:02:27Z</time></trkpt><trkpt lat="-30.901054635421303" lon="115.42430184098245"><ele>111.0</ele><time>2026-04-12T08:02:28Z</time></trkpt><trkpt lat="-30.90079053933855" lon="115.42433153259596"><ele>109.0</ele><time>2026-04-12T08:02:29Z</time></trkpt><trkpt lat="-30.900541970976043" lon="115.4243617083205"><ele>109.0</ele><time>2026-04-12T08:02:30Z</time></trkpt><trkpt lat="-30.90031221386282" lon="115.42438604637103"><ele>109.0</ele><time>2026-04-12T08:02:31Z</time></trkpt><trkpt lat="-30.90008518571118" lon="115.42440983045873"><ele>109.0</ele><time>2026-04-12T08:02:32Z</time></trkpt><trkpt lat="-30.899862731322507" lon="115.42443285645375"><ele>109.0</ele><time>2026-04-12T08:02:33Z</time></trkpt><trkpt lat="-30.8996534519574" lon="115.42445192319104"><ele>109.0</ele><time>2026-04-12T08:02:34Z</time></trkpt><trkpt lat="-30.899454086472765" lon="115.42446447335199"><ele>109.0</ele><time>2026-04-12T08:02:35Z</time></trkpt><trkpt lat="-30.899260513880655" lon="115.42447569909434"><ele>109.0</ele><time>2026-04-12T08:02:36Z</time></trkpt><trkpt lat="-30.899102990718934" lon="115.42448947665119"><ele>109.0</ele><time>2026-04-12T08:02:37Z</time></trkpt><trkpt lat="-30.898978287748527" lon="115.42450376225183"><ele>108.83333333333334</ele><time>2026-04-12T08:02:38Z</time></trkpt><trkpt lat="-30.89888302991917" lon="115.42451780430484"><ele>108.66666666666667</ele><time>2026-04-12T08:02:39Z</time></trkpt><trkpt lat="-30.898809434557332" lon="115.42454283691346"><ele>108.5</ele><time>2026-04-12T08:02:40Z</time></trkpt><trkpt lat="-30.898727991882627" lon="115.42463994416067"><ele>108.33333333333334</ele><time>2026-04-12T08:02:42Z</time></trkpt><trkpt lat="-30.898701194501367" lon="115.42471608241335"><ele>108.16666666666667</ele><time>2026-04-12T08:02:43Z</time></trkpt><trkpt lat="-30.898688659359255" lon="115.42480024308351"><ele>108.0</ele><time>2026-04-12T08:02:44Z</time></trkpt><trkpt lat="-30.89869295555358" lon="115.4248892047353"><ele>108.0</ele><time>2026-04-12T08:02:45Z</time></trkpt><trkpt lat="-30.898698721825617" lon="115.4249951011781"><ele>108.0</ele><time>2026-04-12T08:02:46Z</time></trkpt><trkpt lat="-30.898704825584826" lon="115.42511212797217"><ele>108.0</ele><time>2026-04-12T08:02:47Z</time></trkpt><trkpt lat="-30.898708340708165" lon="115.42526198427848"><ele>108.0</ele><time>2026-04-12T08:02:48Z</time></trkpt><trkpt lat="-30.898708129127357" lon="115.42544344114671"><ele>108.66666666666666</ele><time>2026-04-12T08:02:49Z</time></trkpt><trkpt lat="-30.89871075426718" lon="115.42565114231222"><ele>109.33333333333333</ele><time>2026-04-12T08:02:50Z</time></trkpt><trkpt lat="-30.898716045038658" lon="115.42588900050487"><ele>110.0</ele><time>2026-04-12T08:02:51Z</time></trkpt><trkpt lat="-30.898718165439917" lon="115.42614498140955"><ele>110.0</ele><time>2026-04-12T08:02:52Z</time></trkpt><trkpt lat="-30.898716209615454" lon="115.4264182950345"><ele>110.0</ele><time>2026-04-12T08:02:53Z</time></trkpt><trkpt lat="-30.898715699883628" lon="115.42670635459235"><ele>110.0</ele><time>2026-04-12T08:02:54Z</time></trkpt><trkpt lat="-30.898715911728175" lon="115.42699225426796"><ele>110.0</ele><time>2026-04-12T08:02:55Z</time></trkpt><trkpt lat="-30.898717236983238" lon="115.4272821812142"><ele>108.0</ele><time>2026-04-12T08:02:56Z</time></trkpt><trkpt lat="-30.89872107005134" lon="115.42757464900673"><ele>106.0</ele><time>2026-04-12T08:02:57Z</time></trkpt><trkpt lat="-30.898723181551016" lon="115.42787578183122"><ele>106.5</ele><time>2026-04-12T08:02:58Z</time></trkpt><trkpt lat="-30.89872187336446" lon="115.42818710171457"><ele>107.0</ele><time>2026-04-12T08:02:59Z</time></trkpt><trkpt lat="-30.89871788781835" lon="115.42851018212463"><ele>107.5</ele><time>2026-04-12T08:03:00Z</time></trkpt><trkpt lat="-30.898717341207433" lon="115.42882873746122"><ele>108.0</ele><time>2026-04-12T08:03:01Z</time></trkpt><trkpt lat="-30.89872160938754" lon="115.42915357598406"><ele>108.0</ele><time>2026-04-12T08:03:02Z</time></trkpt><trkpt lat="-30.898726628772536" lon="115.42948514242401"><ele>108.0</ele><time>2026-04-12T08:03:03Z</time></trkpt><trkpt lat="-30.898725457948665" lon="115.42981516060306"><ele>106.0</ele><time>2026-04-12T08:03:04Z</time></trkpt><trkpt lat="-30.898724276031064" lon="115.43014008683144"><ele>104.0</ele><time>2026-04-12T08:03:05Z</time></trkpt><trkpt lat="-30.89872229179567" lon="115.43045284465202"><ele>104.5</ele><time>2026-04-12T08:03:06Z</time></trkpt><trkpt lat="-30.898722766217475" lon="115.43076810594197"><ele>105.0</ele><time>2026-04-12T08:03:07Z</time></trkpt><trkpt lat="-30.898724119334766" lon="115.43108328541066"><ele>107.5</ele><time>2026-04-12T08:03:08Z</time></trkpt><trkpt lat="-30.898726308632476" lon="115.4314003063812"><ele>110.0</ele><time>2026-04-12T08:03:09Z</time></trkpt><trkpt lat="-30.898726875447917" lon="115.43171430141695"><ele>110.0</ele><time>2026-04-12T08:03:10Z</time></trkpt><trkpt lat="-30.898726579272807" lon="115.43202640292598"><ele>110.0</ele><time>2026-04-12T08:03:11Z</time></trkpt><trkpt lat="-30.898725764085007" lon="115.43233322570194"><ele>110.0</ele><time>2026-04-12T08:03:12Z</time></trkpt><trkpt lat="-30.89872633408339" lon="115.43263904719257"><ele>110.0</ele><time>2026-04-12T08:03:13Z</time></trkpt><trkpt lat="-30.898725581848876" lon="115.43294630367635"><ele>108.5</ele><time>2026-04-12T08:03:14Z</time></trkpt><trkpt lat="-30.898727926593097" lon="115.43325576084558"><ele>107.0</ele><time>2026-04-12T08:03:15Z</time></trkpt><trkpt lat="-30.89873134312546" lon="115.43356822316495"><ele>108.0</ele><time>2026-04-12T08:03:16Z</time></trkpt><trkpt lat="-30.898733097906902" lon="115.43388217881534"><ele>109.0</ele><time>2026-04-12T08:03:17Z</time></trkpt><trkpt lat="-30.89873247608418" lon="115.43419588315848"><ele>109.0</ele><time>2026-04-12T08:03:18Z</time></trkpt><trkpt lat="-30.898731843563066" lon="115.43450868556191"><ele>109.0</ele><time>2026-04-12T08:03:19Z</time></trkpt><trkpt lat="-30.898732986022488" lon="115.43482322698105"><ele>107.5</ele><time>2026-04-12T08:03:20Z</time></trkpt><trkpt lat="-30.8987334050063" lon="115.43513846694684"><ele>106.0</ele><time>2026-04-12T08:03:21Z</time></trkpt><trkpt lat="-30.898732327407703" lon="115.43545579784163"><ele>100.5</ele><time>2026-04-12T08:03:22Z</time></trkpt><trkpt lat="-30.898732019678476" lon="115.43577455186296"><ele>95.0</ele><time>2026-04-12T08:03:23Z</time></trkpt><trkpt lat="-30.898733011569586" lon="115.43609569446116"><ele>93.5</ele><time>2026-04-12T08:03:24Z</time></trkpt><trkpt lat="-30.898733528321042" lon="115.43642018479204"><ele>92.0</ele><time>2026-04-12T08:03:25Z</time></trkpt><trkpt lat="-30.898732795715684" lon="115.43674309670084"><ele>92.0</ele><time>2026-04-12T08:03:26Z</time></trkpt><trkpt lat="-30.898731579625785" lon="115.43706220531924"><ele>92.0</ele><time>2026-04-12T08:03:27Z</time></trkpt><trkpt lat="-30.898729946007716" lon="115.43738237951668"><ele>92.5</ele><time>2026-04-12T08:03:28Z</time></trkpt><trkpt lat="-30.898728930269332" lon="115.43770484557974"><ele>93.0</ele><time>2026-04-12T08:03:29Z</time></trkpt><trkpt lat="-30.898729586329715" lon="115.43802708860034"><ele>91.0</ele><time>2026-04-12T08:03:30Z</time></trkpt><trkpt lat="-30.89872981294865" lon="115.43835589872491"><ele>89.0</ele><time>2026-04-12T08:03:31Z</time></trkpt><trkpt lat="-30.89872859926252" lon="115.43868299491247"><ele>84.5</ele><time>2026-04-12T08:03:32Z</time></trkpt><trkpt lat="-30.898728971391044" lon="115.43901097915278"><ele>80.0</ele><time>2026-04-12T08:03:33Z</time></trkpt><trkpt lat="-30.898729614667513" lon="115.4393368211375"><ele>80.0</ele><time>2026-04-12T08:03:34Z</time></trkpt><trkpt lat="-30.898731396245672" lon="115.43965683226443"><ele>80.0</ele><time>2026-04-12T08:03:35Z</time></trkpt><trkpt lat="-30.898732570498947" lon="115.43997893085475"><ele>80.0</ele><time>2026-04-12T08:03:36Z</time></trkpt><trkpt lat="-30.898731155796998" lon="115.44030144867139"><ele>80.0</ele><time>2026-04-12T08:03:37Z</time></trkpt><trkpt lat="-30.898728254256692" lon="115.44062446273958"><ele>81.0</ele><time>2026-04-12T08:03:38Z</time></trkpt><trkpt lat="-30.89872870421703" lon="115.44094599930924"><ele>82.0</ele><time>2026-04-12T08:03:39Z</time></trkpt><trkpt lat="-30.89873234812612" lon="115.44126705594732"><ele>83.0</ele><time>2026-04-12T08:03:40Z</time></trkpt><trkpt lat="-30.898734945270373" lon="115.44158886616569"><ele>84.0</ele><time>2026-04-12T08:03:41Z</time></trkpt><trkpt lat="-30.898733758396528" lon="115.44190688439676"><ele>85.5</ele><time>2026-04-12T08:03:42Z</time></trkpt><trkpt lat="-30.898730895970125" lon="115.44222349774935"><ele>87.0</ele><time>2026-04-12T08:03:43Z</time></trkpt><trkpt lat="-30.898729846995042" lon="115.44253845475708"><ele>87.0</ele><time>2026-04-12T08:03:44Z</time></trkpt><trkpt lat="-30.898732774628265" lon="115.44285190351258"><ele>87.0</ele><time>2026-04-12T08:03:45Z</time></trkpt><trkpt lat="-30.898736231442083" lon="115.44316493591657"><ele>88.0</ele><time>2026-04-12T08:03:46Z</time></trkpt><trkpt lat="-30.89873679489244" lon="115.44347848115488"><ele>89.0</ele><time>2026-04-12T08:03:47Z</time></trkpt><trkpt lat="-30.898735050844987" lon="115.44379651458542"><ele>86.5</ele><time>2026-04-12T08:03:48Z</time></trkpt><trkpt lat="-30.898735936079" lon="115.44411393143989"><ele>84.0</ele><time>2026-04-12T08:03:49Z</time></trkpt><trkpt lat="-30.898737985963425" lon="115.44443620986296"><ele>82.5</ele><time>2026-04-12T08:03:50Z</time></trkpt><trkpt lat="-30.898739416723767" lon="115.44475814389061"><ele>81.0</ele><time>2026-04-12T08:03:51Z</time></trkpt><trkpt lat="-30.898741188326813" lon="115.4450772284548"><ele>81.0</ele><time>2026-04-12T08:03:52Z</time></trkpt><trkpt lat="-30.898742742297717" lon="115.44539023308701"><ele>81.0</ele><time>2026-04-12T08:03:53Z</time></trkpt><trkpt lat="-30.898744332795665" lon="115.445691731212"><ele>77.5</ele><time>2026-04-12T08:03:54Z</time></trkpt><trkpt lat="-30.898743313084093" lon="115.44597316344554"><ele>74.0</ele><time>2026-04-12T08:03:55Z</time></trkpt><trkpt lat="-30.898740581743084" lon="115.44622363799799"><ele>73.0</ele><time>2026-04-12T08:03:56Z</time></trkpt><trkpt lat="-30.89873779180306" lon="115.44644650310802"><ele>72.0</ele><time>2026-04-12T08:03:57Z</time></trkpt><trkpt lat="-30.898735615515175" lon="115.44664120612042"><ele>71.0</ele><time>2026-04-12T08:03:58Z</time></trkpt><trkpt lat="-30.898732983074908" lon="115.44680776507857"><ele>71.0</ele><time>2026-04-12T08:03:59Z</time></trkpt><trkpt lat="-30.898732190816396" lon="115.44694908526326"><ele>71.0</ele><time>2026-04-12T08:04:00Z</time></trkpt><trkpt lat="-30.89872972002043" lon="115.44706695867502"><ele>71.0</ele><time>2026-04-12T08:04:01Z</time></trkpt><trkpt lat="-30.898726996400736" lon="115.44716524832899"><ele>71.0</ele><time>2026-04-12T08:04:02Z</time></trkpt><trkpt lat="-30.89872490723486" lon="115.4472410240997"><ele>71.0</ele><time>2026-04-12T08:04:03Z</time></trkpt><trkpt lat="-30.898722401322356" lon="115.44732360243529"><ele>71.0</ele><time>2026-04-12T08:04:05Z</time></trkpt><trkpt lat="-30.89874671489479" lon="115.4473970866212"><ele>71.0</ele><time>2026-04-12T08:04:09Z</time></trkpt><trkpt lat="-30.89879651214211" lon="115.44733656499047"><ele>71.0</ele><time>2026-04-12T08:06:05Z</time></trkpt><trkpt lat="-30.898752581408992" lon="115.44739506283084"><ele>71.0</ele><time>2026-04-12T08:06:16Z</time></trkpt><trkpt lat="-30.898735734501216" lon="115.44747394221213"><ele>71.0</ele><time>2026-04-12T08:11:03.999Z</time></trkpt><trkpt lat="-30.8987433923341" lon="115.44757005602739"><ele>71.0</ele><time>2026-04-12T08:12:01Z</time></trkpt><trkpt lat="-30.89873866473898" lon="115.4476594441999"><ele>71.0</ele><time>2026-04-12T08:12:02.998Z</time></trkpt><trkpt lat="-30.898740697136045" lon="115.44773777164761"><ele>71.0</ele><time>2026-04-12T08:12:03.998Z</time></trkpt><trkpt lat="-30.898745803283536" lon="115.44782151392337"><ele>71.0</ele><time>2026-04-12T08:12:04.998Z</time></trkpt><trkpt lat="-30.898752156395947" lon="115.44791549544962"><ele>71.0</ele><time>2026-04-12T08:12:05.998Z</time></trkpt><trkpt lat="-30.898754383426468" lon="115.44801918414782"><ele>71.0</ele><time>2026-04-12T08:12:06.998Z</time></trkpt><trkpt lat="-30.898755491511796" lon="115.44812837014845"><ele>71.0</ele><time>2026-04-12T08:12:07.998Z</time></trkpt><trkpt lat="-30.89875474489952" lon="115.44824677238883"><ele>71.0</ele><time>2026-04-12T08:12:08.998Z</time></trkpt><trkpt lat="-30.898754139895903" lon="115.44837365236013"><ele>69.75</ele><time>2026-04-12T08:12:09.998Z</time></trkpt><trkpt lat="-30.898754201743394" lon="115.44850360876117"><ele>68.5</ele><time>2026-04-12T08:12:10.998Z</time></trkpt><trkpt lat="-30.898755266968017" lon="115.44864504238522"><ele>67.25</ele><time>2026-04-12T08:12:11.998Z</time></trkpt><trkpt lat="-30.898756012662606" lon="115.44880072724776"><ele>66.0</ele><time>2026-04-12T08:12:12.998Z</time></trkpt><trkpt lat="-30.89875428642888" lon="115.4489723070346"><ele>64.33333333333333</ele><time>2026-04-12T08:12:13.998Z</time></trkpt><trkpt lat="-30.898752614818058" lon="115.44915096676229"><ele>62.666666666666664</ele><time>2026-04-12T08:12:14.998Z</time></trkpt><trkpt lat="-30.898756064982305" lon="115.44934212213695"><ele>61.0</ele><time>2026-04-12T08:12:15.998Z</time></trkpt><trkpt lat="-30.8987567455166" lon="115.44954157258084"><ele>60.33333333333333</ele><time>2026-04-12T08:12:16.998Z</time></trkpt><trkpt lat="-30.89875857754233" lon="115.44974935035323"><ele>59.66666666666667</ele><time>2026-04-12T08:12:17.998Z</time></trkpt><trkpt lat="-30.898757472779202" lon="115.4499661515796"><ele>59.0</ele><time>2026-04-12T08:12:18.999Z</time></trkpt><trkpt lat="-30.898753396431974" lon="115.45018883126217"><ele>59.0</ele><time>2026-04-12T08:12:19.999Z</time></trkpt><trkpt lat="-30.898749829901554" lon="115.45042022685459"><ele>59.0</ele><time>2026-04-12T08:12:20.999Z</time></trkpt><trkpt lat="-30.898749713265158" lon="115.45066976293036"><ele>59.0</ele><time>2026-04-12T08:12:21.999Z</time></trkpt><trkpt lat="-30.898750070678577" lon="115.4509316553546"><ele>58.0</ele><time>2026-04-12T08:12:22.999Z</time></trkpt><trkpt lat="-30.89874894590619" lon="115.45119541456195"><ele>57.0</ele><time>2026-04-12T08:12:23.999Z</time></trkpt><trkpt lat="-30.89874424182113" lon="115.45146838219225"><ele>61.5</ele><time>2026-04-12T08:12:24.999Z</time></trkpt><trkpt lat="-30.89874072330112" lon="115.45174959074374"><ele>66.0</ele><time>2026-04-12T08:12:25.999Z</time></trkpt><trkpt lat="-30.898743028326702" lon="115.45203812603297"><ele>69.5</ele><time>2026-04-12T08:12:26.999Z</time></trkpt><trkpt lat="-30.898746780984904" lon="115.45233043804043"><ele>73.0</ele><time>2026-04-12T08:12:27.999Z</time></trkpt><trkpt lat="-30.89874730313095" lon="115.45261262683263"><ele>73.0</ele><time>2026-04-12T08:12:28.999Z</time></trkpt><trkpt lat="-30.89874433947148" lon="115.45289862004252"><ele>73.0</ele><time>2026-04-12T08:12:29.999Z</time></trkpt><trkpt lat="-30.898738901063332" lon="115.4531894561699"><ele>72.0</ele><time>2026-04-12T08:12:30.999Z</time></trkpt><trkpt lat="-30.898735146771674" lon="115.4534736548982"><ele>71.0</ele><time>2026-04-12T08:12:31.999Z</time></trkpt><trkpt lat="-30.89873440198169" lon="115.45375048998503"><ele>70.5</ele><time>2026-04-12T08:12:32.999Z</time></trkpt><trkpt lat="-30.898734363893343" lon="115.4540228686713"><ele>70.0</ele><time>2026-04-12T08:12:33.999Z</time></trkpt><trkpt lat="-30.898728733301812" lon="115.45430108091693"><ele>70.0</ele><time>2026-04-12T08:12:34.999Z</time></trkpt><trkpt lat="-30.898717367774143" lon="115.45458304880907"><ele>70.0</ele><time>2026-04-12T08:12:35.999Z</time></trkpt><trkpt lat="-30.898698913695146" lon="115.45486568803939"><ele>71.0</ele><time>2026-04-12T08:12:36.999Z</time></trkpt><trkpt lat="-30.8986663119098" lon="115.45514516254623"><ele>72.0</ele><time>2026-04-12T08:12:37.999Z</time></trkpt><trkpt lat="-30.898614925080068" lon="115.45541640773702"><ele>73.5</ele><time>2026-04-12T08:12:38.999Z</time></trkpt><trkpt lat="-30.898535279910433" lon="115.45568853695619"><ele>75.0</ele><time>2026-04-12T08:12:39.999Z</time></trkpt><trkpt lat="-30.898433529425265" lon="115.45595976198904"><ele>74.0</ele><time>2026-04-12T08:12:40.999Z</time></trkpt><trkpt lat="-30.898328425458306" lon="115.45621867873969"><ele>73.0</ele><time>2026-04-12T08:12:41.999Z</time></trkpt><trkpt lat="-30.89824041716128" lon="115.45647015551862"><ele>71.5</ele><time>2026-04-12T08:12:42.999Z</time></trkpt><trkpt lat="-30.898167937482928" lon="115.45672978277094"><ele>70.0</ele><time>2026-04-12T08:12:43.999Z</time></trkpt><trkpt lat="-30.898113259011332" lon="115.45698958600971"><ele>71.5</ele><time>2026-04-12T08:12:44.999Z</time></trkpt><trkpt lat="-30.89807928168811" lon="115.457249596559"><ele>73.0</ele><time>2026-04-12T08:12:45.999Z</time></trkpt><trkpt lat="-30.898064812093715" lon="115.45752209896827"><ele>73.0</ele><time>2026-04-12T08:12:46.999Z</time></trkpt><trkpt lat="-30.898077294950305" lon="115.45779008358069"><ele>73.0</ele><time>2026-04-12T08:12:47.999Z</time></trkpt><trkpt lat="-30.898121835588228" lon="115.4580604323984"><ele>72.0</ele><time>2026-04-12T08:12:48.999Z</time></trkpt><trkpt lat="-30.898192659241076" lon="115.45834371856296"><ele>71.0</ele><time>2026-04-12T08:12:49.999Z</time></trkpt><trkpt lat="-30.898278530309064" lon="115.45863456158254"><ele>72.0</ele><time>2026-04-12T08:12:50.999Z</time></trkpt><trkpt lat="-30.898370173034508" lon="115.45892995597536"><ele>73.0</ele><time>2026-04-12T08:12:51.999Z</time></trkpt><trkpt lat="-30.89845733109777" lon="115.45923043335152"><ele>73.0</ele><time>2026-04-12T08:12:52.999Z</time></trkpt><trkpt lat="-30.89853904494675" lon="115.45953919817458"><ele>73.0</ele><time>2026-04-12T08:12:53.999Z</time></trkpt><trkpt lat="-30.898612832425172" lon="115.4598522400501"><ele>69.5</ele><time>2026-04-12T08:12:54.999Z</time></trkpt><trkpt lat="-30.89867273954764" lon="115.46015885434045"><ele>66.0</ele><time>2026-04-12T08:12:55.999Z</time></trkpt><trkpt lat="-30.89871683636332" lon="115.46046724452205"><ele>63.5</ele><time>2026-04-12T08:12:56.999Z</time></trkpt><trkpt lat="-30.898740606472796" lon="115.46078312122096"><ele>61.0</ele><time>2026-04-12T08:12:57.999Z</time></trkpt><trkpt lat="-30.898747482170435" lon="115.46110811005414"><ele>60.5</ele><time>2026-04-12T08:12:58.999Z</time></trkpt><trkpt lat="-30.898742835855245" lon="115.46144063232082"><ele>60.0</ele><time>2026-04-12T08:12:59.999Z</time></trkpt><trkpt lat="-30.898739898996897" lon="115.46177630870405"><ele>60.5</ele><time>2026-04-12T08:13:00.999Z</time></trkpt><trkpt lat="-30.898741015005704" lon="115.46211533950152"><ele>61.0</ele><time>2026-04-12T08:13:01.999Z</time></trkpt><trkpt lat="-30.898742730135382" lon="115.46245678165684"><ele>61.0</ele><time>2026-04-12T08:13:02.999Z</time></trkpt><trkpt lat="-30.89874462306771" lon="115.46279548807527"><ele>61.0</ele><time>2026-04-12T08:13:03.999Z</time></trkpt><trkpt lat="-30.898747177733085" lon="115.46313483310841"><ele>62.0</ele><time>2026-04-12T08:13:04.999Z</time></trkpt><trkpt lat="-30.898749116784423" lon="115.46347330276754"><ele>63.0</ele><time>2026-04-12T08:13:05.999Z</time></trkpt><trkpt lat="-30.898750663743588" lon="115.46381517494885"><ele>63.0</ele><time>2026-04-12T08:13:06.999Z</time></trkpt><trkpt lat="-30.898751905584714" lon="115.46416138879361"><ele>63.0</ele><time>2026-04-12T08:13:07.999Z</time></trkpt><trkpt lat="-30.898751459890665" lon="115.46451058120735"><ele>65.0</ele><time>2026-04-12T08:13:08.999Z</time></trkpt><trkpt lat="-30.89875389071073" lon="115.46486129314242"><ele>67.0</ele><time>2026-04-12T08:13:09.999Z</time></trkpt><trkpt lat="-30.89875469757606" lon="115.46521143243088"><ele>67.0</ele><time>2026-04-12T08:13:10.999Z</time></trkpt><trkpt lat="-30.898753609148073" lon="115.46555748571035"><ele>67.0</ele><time>2026-04-12T08:13:11.999Z</time></trkpt><trkpt lat="-30.898752777558798" lon="115.46590287768808"><ele>67.0</ele><time>2026-04-12T08:13:12.999Z</time></trkpt><trkpt lat="-30.898752354261834" lon="115.4662452099896"><ele>67.0</ele><time>2026-04-12T08:13:13.999Z</time></trkpt><trkpt lat="-30.898754673629416" lon="115.46657347894907"><ele>67.5</ele><time>2026-04-12T08:13:14.999Z</time></trkpt><trkpt lat="-30.898757884091076" lon="115.4668889110834"><ele>68.0</ele><time>2026-04-12T08:13:15.999Z</time></trkpt><trkpt lat="-30.89875733765543" lon="115.46719226714193"><ele>69.0</ele><time>2026-04-12T08:13:16.999Z</time></trkpt><trkpt lat="-30.898757219318547" lon="115.46748833081739"><ele>70.0</ele><time>2026-04-12T08:13:17.999Z</time></trkpt><trkpt lat="-30.898760803928223" lon="115.46778196675942"><ele>68.0</ele><time>2026-04-12T08:13:18.999Z</time></trkpt><trkpt lat="-30.89876713855548" lon="115.46808038175787"><ele>66.0</ele><time>2026-04-12T08:13:19.999Z</time></trkpt><trkpt lat="-30.898769119479265" lon="115.46838628384211"><ele>66.0</ele><time>2026-04-12T08:13:20.999Z</time></trkpt><trkpt lat="-30.89876735157019" lon="115.46870529255557"><ele>66.0</ele><time>2026-04-12T08:13:21.999Z</time></trkpt><trkpt lat="-30.89876079290872" lon="115.46902966008247"><ele>65.0</ele><time>2026-04-12T08:13:22.999Z</time></trkpt><trkpt lat="-30.898755050997682" lon="115.46935201298521"><ele>64.0</ele><time>2026-04-12T08:13:23.999Z</time></trkpt><trkpt lat="-30.898755454529418" lon="115.46966943517016"><ele>64.0</ele><time>2026-04-12T08:13:24.999Z</time></trkpt><trkpt lat="-30.898758674023988" lon="115.46997622822363"><ele>64.0</ele><time>2026-04-12T08:13:25.999Z</time></trkpt><trkpt lat="-30.898759711843176" lon="115.47026476207"><ele>64.33333333333333</ele><time>2026-04-12T08:13:26.999Z</time></trkpt><trkpt lat="-30.898759244293604" lon="115.47053182428971"><ele>64.66666666666667</ele><time>2026-04-12T08:13:27.999Z</time></trkpt><trkpt lat="-30.89876096382129" lon="115.47078399225424"><ele>65.0</ele><time>2026-04-12T08:13:28.999Z</time></trkpt><trkpt lat="-30.898761884515345" lon="115.47102581248933"><ele>65.0</ele><time>2026-04-12T08:13:29.999Z</time></trkpt><trkpt lat="-30.898766026820848" lon="115.47124853005356"><ele>65.0</ele><time>2026-04-12T08:13:30.999Z</time></trkpt><trkpt lat="-30.89877260905037" lon="115.4714529873467"><ele>65.0</ele><time>2026-04-12T08:13:31.999Z</time></trkpt><trkpt lat="-30.8987785315135" lon="115.47164539444788"><ele>64.8</ele><time>2026-04-12T08:13:32.999Z</time></trkpt><trkpt lat="-30.898779779524226" lon="115.47181222791612"><ele>64.6</ele><time>2026-04-12T08:13:33.999Z</time></trkpt><trkpt lat="-30.89876761467293" lon="115.47194249353338"><ele>64.4</ele><time>2026-04-12T08:13:34.999Z</time></trkpt><trkpt lat="-30.89874088961489" lon="115.4720393860707"><ele>64.2</ele><time>2026-04-12T08:13:35.999Z</time></trkpt><trkpt lat="-30.898703926707146" lon="115.47210571760799"><ele>64.0</ele><time>2026-04-12T08:13:36.999Z</time></trkpt><trkpt lat="-30.89859478330787" lon="115.47216779831354"><ele>63.6</ele><time>2026-04-12T08:13:38.999Z</time></trkpt><trkpt lat="-30.89852288648791" lon="115.4721571939539"><ele>63.2</ele><time>2026-04-12T08:13:39.999Z</time></trkpt><trkpt lat="-30.89843772985135" lon="115.47213479567382"><ele>62.800000000000004</ele><time>2026-04-12T08:13:40.999Z</time></trkpt><trkpt lat="-30.898333664519935" lon="115.47210682825015"><ele>62.400000000000006</ele><time>2026-04-12T08:13:41.999Z</time></trkpt><trkpt lat="-30.89821305809639" lon="115.47206780455332"><ele>62.0</ele><time>2026-04-12T08:13:42.999Z</time></trkpt><trkpt lat="-30.898073053800005" lon="115.47201842583364"><ele>62.0</ele><time>2026-04-12T08:13:43.999Z</time></trkpt><trkpt lat="-30.897928144012372" lon="115.47197039043402"><ele>62.0</ele><time>2026-04-12T08:13:44.999Z</time></trkpt><trkpt lat="-30.897764415546206" lon="115.47191500655806"><ele>62.0</ele><time>2026-04-12T08:13:45.999Z</time></trkpt><trkpt lat="-30.897582249664183" lon="115.47185237090628"><ele>61.66666666666667</ele><time>2026-04-12T08:13:46.999Z</time></trkpt><trkpt lat="-30.89738830763597" lon="115.47179023544685"><ele>61.33333333333333</ele><time>2026-04-12T08:13:47.999Z</time></trkpt><trkpt lat="-30.89718439800707" lon="115.47172446146241"><ele>61.0</ele><time>2026-04-12T08:13:49Z</time></trkpt><trkpt lat="-30.896966665030135" lon="115.4716506048907"><ele>61.5</ele><time>2026-04-12T08:13:50Z</time></trkpt><trkpt lat="-30.896737339632946" lon="115.47157380477744"><ele>62.0</ele><time>2026-04-12T08:13:51Z</time></trkpt><trkpt lat="-30.896505244749168" lon="115.47149517281132"><ele>62.0</ele><time>2026-04-12T08:13:52Z</time></trkpt><trkpt lat="-30.89626878405727" lon="115.47141446304111"><ele>62.0</ele><time>2026-04-12T08:13:53Z</time></trkpt><trkpt lat="-30.896019797563742" lon="115.47132926794744"><ele>63.5</ele><time>2026-04-12T08:13:54Z</time></trkpt><trkpt lat="-30.895785955550313" lon="115.47124717341705"><ele>65.0</ele><time>2026-04-12T08:13:55Z</time></trkpt><trkpt lat="-30.8955472401306" lon="115.47115974472868"><ele>65.0</ele><time>2026-04-12T08:13:56Z</time></trkpt><trkpt lat="-30.895306255516854" lon="115.47106829299595"><ele>65.0</ele><time>2026-04-12T08:13:57Z</time></trkpt><trkpt lat="-30.895062921527913" lon="115.47097235192018"><ele>64.0</ele><time>2026-04-12T08:13:58Z</time></trkpt><trkpt lat="-30.89481674824251" lon="115.47087229116424"><ele>63.0</ele><time>2026-04-12T08:13:59Z</time></trkpt><trkpt lat="-30.89457108802137" lon="115.47077229329199"><ele>63.0</ele><time>2026-04-12T08:14:00Z</time></trkpt><trkpt lat="-30.89432270096358" lon="115.47067566458402"><ele>63.0</ele><time>2026-04-12T08:14:01Z</time></trkpt><trkpt lat="-30.89407562229762" lon="115.47058311536844"><ele>63.0</ele><time>2026-04-12T08:14:02Z</time></trkpt><trkpt lat="-30.893830399214437" lon="115.47049238867656"><ele>63.0</ele><time>2026-04-12T08:14:03Z</time></trkpt><trkpt lat="-30.893588746737823" lon="115.47039994500155"><ele>63.5</ele><time>2026-04-12T08:14:04Z</time></trkpt><trkpt lat="-30.893343778763793" lon="115.47030346428254"><ele>64.0</ele><time>2026-04-12T08:14:05Z</time></trkpt><trkpt lat="-30.893097669292327" lon="115.47020939678207"><ele>64.0</ele><time>2026-04-12T08:14:06Z</time></trkpt><trkpt lat="-30.892853603350506" lon="115.47011554864794"><ele>64.0</ele><time>2026-04-12T08:14:07Z</time></trkpt><trkpt lat="-30.892605512132732" lon="115.47001909131407"><ele>64.5</ele><time>2026-04-12T08:14:08Z</time></trkpt><trkpt lat="-30.892361286200334" lon="115.46992611458266"><ele>65.0</ele><time>2026-04-12T08:14:08.999Z</time></trkpt><trkpt lat="-30.892114317195624" lon="115.46983339405884"><ele>65.0</ele><time>2026-04-12T08:14:09.999Z</time></trkpt><trkpt lat="-30.891871515879117" lon="115.46973792348173"><ele>65.0</ele><time>2026-04-12T08:14:10.999Z</time></trkpt><trkpt lat="-30.891632865616824" lon="115.46963143157467"><ele>64.5</ele><time>2026-04-12T08:14:11.999Z</time></trkpt><trkpt lat="-30.891398445125517" lon="115.4695144438088"><ele>64.0</ele><time>2026-04-12T08:14:12.999Z</time></trkpt><trkpt lat="-30.891172042280395" lon="115.46938363528773"><ele>64.0</ele><time>2026-04-12T08:14:13.999Z</time></trkpt><trkpt lat="-30.890949077974394" lon="115.46923972543266"><ele>64.0</ele><time>2026-04-12T08:14:14.999Z</time></trkpt><trkpt lat="-30.89073251474079" lon="115.4690846988843"><ele>64.0</ele><time>2026-04-12T08:14:15.999Z</time></trkpt><trkpt lat="-30.890519274762806" lon="115.46891982260071"><ele>64.0</ele><time>2026-04-12T08:14:16.999Z</time></trkpt><trkpt lat="-30.890307661134305" lon="115.46875114319205"><ele>63.5</ele><time>2026-04-12T08:14:17.999Z</time></trkpt><trkpt lat="-30.890091558713777" lon="115.46858284195079"><ele>63.0</ele><time>2026-04-12T08:14:18.999Z</time></trkpt><trkpt lat="-30.889873698260914" lon="115.4684192462459"><ele>63.0</ele><time>2026-04-12T08:14:19.999Z</time></trkpt><trkpt lat="-30.889654437402914" lon="115.46825355105067"><ele>63.0</ele><time>2026-04-12T08:14:20.999Z</time></trkpt><trkpt lat="-30.88943856327984" lon="115.46808340155737"><ele>61.5</ele><time>2026-04-12T08:14:21.999Z</time></trkpt><trkpt lat="-30.889223967599037" lon="115.46791128266763"><ele>60.0</ele><time>2026-04-12T08:14:22.999Z</time></trkpt><trkpt lat="-30.889006630310202" lon="115.46774078298952"><ele>60.0</ele><time>2026-04-12T08:14:23.999Z</time></trkpt><trkpt lat="-30.888789208756794" lon="115.46757450526508"><ele>60.0</ele><time>2026-04-12T08:14:24.999Z</time></trkpt><trkpt lat="-30.88856789935291" lon="115.46740746004039"><ele>60.5</ele><time>2026-04-12T08:14:25.999Z</time></trkpt><trkpt lat="-30.888347242482922" lon="115.46724210047563"><ele>61.0</ele><time>2026-04-12T08:14:26.999Z</time></trkpt><trkpt lat="-30.888124653216824" lon="115.46707709251262"><ele>61.0</ele><time>2026-04-12T08:14:27.999Z</time></trkpt><trkpt lat="-30.887897804148455" lon="115.46690423867459"><ele>61.0</ele><time>2026-04-12T08:14:28.999Z</time></trkpt><trkpt lat="-30.887661707754166" lon="115.46672607846514"><ele>61.5</ele><time>2026-04-12T08:14:29.999Z</time></trkpt><trkpt lat="-30.887425729929465" lon="115.46655007600963"><ele>62.0</ele><time>2026-04-12T08:14:30.999Z</time></trkpt><trkpt lat="-30.887185880704052" lon="115.46637489269143"><ele>62.5</ele><time>2026-04-12T08:14:31.999Z</time></trkpt><trkpt lat="-30.88694610447774" lon="115.46620387938216"><ele>63.0</ele><time>2026-04-12T08:14:32.999Z</time></trkpt><trkpt lat="-30.886705265035697" lon="115.46602863925888"><ele>63.0</ele><time>2026-04-12T08:14:33.999Z</time></trkpt><trkpt lat="-30.886468545298584" lon="115.46585450367702"><ele>63.0</ele><time>2026-04-12T08:14:34.999Z</time></trkpt><trkpt lat="-30.88623316104998" lon="115.46567765431983"><ele>63.0</ele><time>2026-04-12T08:14:35.999Z</time></trkpt><trkpt lat="-30.88599580112429" lon="115.46550091891963"><ele>63.0</ele><time>2026-04-12T08:14:36.999Z</time></trkpt><trkpt lat="-30.885760506539206" lon="115.46533059714874"><ele>62.0</ele><time>2026-04-12T08:14:37.999Z</time></trkpt><trkpt lat="-30.885526662886722" lon="115.46516279470835"><ele>61.0</ele><time>2026-04-12T08:14:38.999Z</time></trkpt><trkpt lat="-30.885293473157137" lon="115.46499206028145"><ele>61.5</ele><time>2026-04-12T08:14:39.999Z</time></trkpt><trkpt lat="-30.885062276660147" lon="115.46482197421425"><ele>62.0</ele><time>2026-04-12T08:14:40.999Z</time></trkpt><trkpt lat="-30.884830370964245" lon="115.4646523545326"><ele>62.0</ele><time>2026-04-12T08:14:41.999Z</time></trkpt><trkpt lat="-30.884599925762924" lon="115.46448472435"><ele>62.0</ele><time>2026-04-12T08:14:42.999Z</time></trkpt><trkpt lat="-30.884367559795177" lon="115.46431266685117"><ele>61.5</ele><time>2026-04-12T08:14:43.999Z</time></trkpt><trkpt lat="-30.884138638370764" lon="115.46414346963415"><ele>61.0</ele><time>2026-04-12T08:14:44.999Z</time></trkpt><trkpt lat="-30.88390215112936" lon="115.46397466035947"><ele>61.0</ele><time>2026-04-12T08:14:45.999Z</time></trkpt><trkpt lat="-30.88366632362003" lon="115.46380945339696"><ele>61.0</ele><time>2026-04-12T08:14:46.999Z</time></trkpt><trkpt lat="-30.883428205288705" lon="115.4636476324469"><ele>62.0</ele><time>2026-04-12T08:14:47.999Z</time></trkpt><trkpt lat="-30.883184831148522" lon="115.46348954714321"><ele>63.0</ele><time>2026-04-12T08:14:48.999Z</time></trkpt><trkpt lat="-30.88294337896165" lon="115.46333028127404"><ele>63.0</ele><time>2026-04-12T08:14:50Z</time></trkpt><trkpt lat="-30.88270312095214" lon="115.46317445155806"><ele>63.0</ele><time>2026-04-12T08:14:51Z</time></trkpt><trkpt lat="-30.882466886743682" lon="115.46302362639247"><ele>65.0</ele><time>2026-04-12T08:14:52Z</time></trkpt><trkpt lat="-30.882229624358185" lon="115.46287399190311"><ele>67.0</ele><time>2026-04-12T08:14:53Z</time></trkpt><trkpt lat="-30.881998864946883" lon="115.46273462409293"><ele>67.0</ele><time>2026-04-12T08:14:54Z</time></trkpt><trkpt lat="-30.881778004233606" lon="115.46261537634507"><ele>67.0</ele><time>2026-04-12T08:14:55Z</time></trkpt><trkpt lat="-30.88157227587258" lon="115.46249320362864"><ele>66.0</ele><time>2026-04-12T08:14:56Z</time></trkpt><trkpt lat="-30.881350537578076" lon="115.46240306552066"><ele>65.0</ele><time>2026-04-12T08:14:57Z</time></trkpt><trkpt lat="-30.881125786378806" lon="115.46233882962647"><ele>65.5</ele><time>2026-04-12T08:14:58Z</time></trkpt><trkpt lat="-30.880904627534328" lon="115.4622383621272"><ele>66.0</ele><time>2026-04-12T08:14:59Z</time></trkpt><trkpt lat="-30.88066820936287" lon="115.46214921940118"><ele>67.5</ele><time>2026-04-12T08:15:00Z</time></trkpt><trkpt lat="-30.880431742046117" lon="115.46205559551441"><ele>69.0</ele><time>2026-04-12T08:15:01Z</time></trkpt><trkpt lat="-30.880208829551997" lon="115.46195120220393"><ele>66.5</ele><time>2026-04-12T08:15:02Z</time></trkpt><trkpt lat="-30.879997906147143" lon="115.46183952167114"><ele>64.0</ele><time>2026-04-12T08:15:03Z</time></trkpt><trkpt lat="-30.879778962128263" lon="115.46172380339092"><ele>64.0</ele><time>2026-04-12T08:15:04Z</time></trkpt><trkpt lat="-30.87957613312578" lon="115.46155134729385"><ele>64.0</ele><time>2026-04-12T08:15:05Z</time></trkpt><trkpt lat="-30.87937169881874" lon="115.46137412255258"><ele>64.0</ele><time>2026-04-12T08:15:06Z</time></trkpt><trkpt lat="-30.879176748481402" lon="115.46119137624585"><ele>64.0</ele><time>2026-04-12T08:15:07Z</time></trkpt><trkpt lat="-30.878981601598703" lon="115.46100846233146"><ele>64.0</ele><time>2026-04-12T08:15:08Z</time></trkpt><trkpt lat="-30.87880793908591" lon="115.46079032891713"><ele>64.0</ele><time>2026-04-12T08:15:09Z</time></trkpt><trkpt lat="-30.878638193159865" lon="115.46057405869446"><ele>65.0</ele><time>2026-04-12T08:15:10Z</time></trkpt><trkpt lat="-30.87846626827312" lon="115.46036609959891"><ele>66.0</ele><time>2026-04-12T08:15:11Z</time></trkpt><trkpt lat="-30.87829307017525" lon="115.46016098550344"><ele>66.0</ele><time>2026-04-12T08:15:12Z</time></trkpt><trkpt lat="-30.87812302679351" lon="115.45996084897463"><ele>66.0</ele><time>2026-04-12T08:15:13Z</time></trkpt><trkpt lat="-30.8779508669182" lon="115.45976723880231"><ele>65.5</ele><time>2026-04-12T08:15:14Z</time></trkpt><trkpt lat="-30.877776056995717" lon="115.45958333477616"><ele>65.0</ele><time>2026-04-12T08:15:15Z</time></trkpt><trkpt lat="-30.877594721321028" lon="115.45940666564113"><ele>64.0</ele><time>2026-04-12T08:15:16Z</time></trkpt><trkpt lat="-30.877402633012327" lon="115.45924141839703"><ele>63.0</ele><time>2026-04-12T08:15:17Z</time></trkpt><trkpt lat="-30.877198424113523" lon="115.45909108213078"><ele>63.0</ele><time>2026-04-12T08:15:18Z</time></trkpt><trkpt lat="-30.876981618182985" lon="115.45895767291275"><ele>63.0</ele><time>2026-04-12T08:15:19Z</time></trkpt><trkpt lat="-30.87675622324899" lon="115.45882980483266"><ele>64.5</ele><time>2026-04-12T08:15:20Z</time></trkpt><trkpt lat="-30.876528666928486" lon="115.45871122196579"><ele>66.0</ele><time>2026-04-12T08:15:21Z</time></trkpt><trkpt lat="-30.876298365527802" lon="115.45859396778694"><ele>66.0</ele><time>2026-04-12T08:15:22Z</time></trkpt><trkpt lat="-30.87606589675839" lon="115.45847548365413"><ele>66.0</ele><time>2026-04-12T08:15:23Z</time></trkpt><trkpt lat="-30.875830197652707" lon="115.45835784417429"><ele>65.0</ele><time>2026-04-12T08:15:24Z</time></trkpt><trkpt lat="-30.875594271832743" lon="115.45824384541247"><ele>64.0</ele><time>2026-04-12T08:15:25Z</time></trkpt><trkpt lat="-30.875356447185343" lon="115.45812642553764"><ele>64.0</ele><time>2026-04-12T08:15:26Z</time></trkpt><trkpt lat="-30.875116427150328" lon="115.45800934636058"><ele>64.0</ele><time>2026-04-12T08:15:27Z</time></trkpt><trkpt lat="-30.874119225086" lon="115.45754406519742"><ele>65.0</ele><time>2026-04-12T08:15:31Z</time></trkpt><trkpt lat="-30.873866121602912" lon="115.45743063125612"><ele>66.0</ele><time>2026-04-12T08:15:32Z</time></trkpt><trkpt lat="-30.873612451081986" lon="115.457317797089"><ele>66.0</ele><time>2026-04-12T08:15:33Z</time></trkpt><trkpt lat="-30.87335907686966" lon="115.45720833369387"><ele>66.0</ele><time>2026-04-12T08:15:34Z</time></trkpt><trkpt lat="-30.873104242379966" lon="115.45709697345717"><ele>66.0</ele><time>2026-04-12T08:15:35Z</time></trkpt><trkpt lat="-30.872857954296" lon="115.45697849600512"><ele>66.0</ele><time>2026-04-12T08:15:36Z</time></trkpt><trkpt lat="-30.8726077093175" lon="115.4568694899262"><ele>66.5</ele><time>2026-04-12T08:15:37Z</time></trkpt><trkpt lat="-30.872360468756938" lon="115.45675485200626"><ele>67.0</ele><time>2026-04-12T08:15:38Z</time></trkpt><trkpt lat="-30.872108425958906" lon="115.45663963975004"><ele>67.0</ele><time>2026-04-12T08:15:39Z</time></trkpt><trkpt lat="-30.87185778653355" lon="115.45652230504818"><ele>67.0</ele><time>2026-04-12T08:15:40Z</time></trkpt><trkpt lat="-30.87161070440055" lon="115.45640569620139"><ele>65.0</ele><time>2026-04-12T08:15:41Z</time></trkpt><trkpt lat="-30.871360963941143" lon="115.45628613311328"><ele>63.0</ele><time>2026-04-12T08:15:42Z</time></trkpt><trkpt lat="-30.871109711418033" lon="115.45616735073042"><ele>63.0</ele><time>2026-04-12T08:15:43Z</time></trkpt><trkpt lat="-30.870857644599727" lon="115.45604600496155"><ele>63.0</ele><time>2026-04-12T08:15:44Z</time></trkpt><trkpt lat="-30.870605935485337" lon="115.45592375236596"><ele>63.0</ele><time>2026-04-12T08:15:45Z</time></trkpt><trkpt lat="-30.870354098369972" lon="115.45580305330084"><ele>63.0</ele><time>2026-04-12T08:15:46Z</time></trkpt><trkpt lat="-30.870100888689617" lon="115.45568509534469"><ele>63.5</ele><time>2026-04-12T08:15:47Z</time></trkpt><trkpt lat="-30.869848348421836" lon="115.45556562578005"><ele>64.0</ele><time>2026-04-12T08:15:48Z</time></trkpt><trkpt lat="-30.869595350296507" lon="115.45544309890803"><ele>64.0</ele><time>2026-04-12T08:15:49Z</time></trkpt><trkpt lat="-30.869341022597254" lon="115.45531808427793"><ele>64.0</ele><time>2026-04-12T08:15:50Z</time></trkpt><trkpt lat="-30.869087908033137" lon="115.45519349370063"><ele>64.5</ele><time>2026-04-12T08:15:51Z</time></trkpt><trkpt lat="-30.868833950264047" lon="115.45506840413839"><ele>65.0</ele><time>2026-04-12T08:15:52Z</time></trkpt><trkpt lat="-30.868580543099295" lon="115.45494382721886"><ele>64.0</ele><time>2026-04-12T08:15:53Z</time></trkpt><trkpt lat="-30.868325234911595" lon="115.45482250395395"><ele>63.0</ele><time>2026-04-12T08:15:54Z</time></trkpt><trkpt lat="-30.86806852855188" lon="115.45469854449628"><ele>63.0</ele><time>2026-04-12T08:15:55Z</time></trkpt><trkpt lat="-30.867817079695364" lon="115.45457946112406"><ele>63.0</ele><time>2026-04-12T08:15:56Z</time></trkpt><trkpt lat="-30.867564298315017" lon="115.45445271476581"><ele>63.0</ele><time>2026-04-12T08:15:57Z</time></trkpt><trkpt lat="-30.867316294534984" lon="115.45432298983381"><ele>63.0</ele><time>2026-04-12T08:15:58Z</time></trkpt><trkpt lat="-30.867069585831196" lon="115.45419035000431"><ele>63.0</ele><time>2026-04-12T08:15:59Z</time></trkpt><trkpt lat="-30.866824217730603" lon="115.4540593850729"><ele>63.0</ele><time>2026-04-12T08:16:00Z</time></trkpt><trkpt lat="-30.866584281799962" lon="115.4539284159948"><ele>62.0</ele><time>2026-04-12T08:16:01Z</time></trkpt><trkpt lat="-30.866347549089088" lon="115.4537937909722"><ele>61.0</ele><time>2026-04-12T08:16:02Z</time></trkpt><trkpt lat="-30.86611467020171" lon="115.45365323338935"><ele>62.0</ele><time>2026-04-12T08:16:03Z</time></trkpt><trkpt lat="-30.86588835100194" lon="115.45351072881498"><ele>63.0</ele><time>2026-04-12T08:16:04Z</time></trkpt><trkpt lat="-30.865664433793874" lon="115.45336716643214"><ele>63.0</ele><time>2026-04-12T08:16:05Z</time></trkpt><trkpt lat="-30.865439580134744" lon="115.4532230608642"><ele>63.0</ele><time>2026-04-12T08:16:06Z</time></trkpt><trkpt lat="-30.865216812630962" lon="115.45308225502524"><ele>62.5</ele><time>2026-04-12T08:16:07Z</time></trkpt><trkpt lat="-30.8649942383856" lon="115.45294487977357"><ele>62.0</ele><time>2026-04-12T08:16:08Z</time></trkpt><trkpt lat="-30.86476996361934" lon="115.45281216623611"><ele>62.0</ele><time>2026-04-12T08:16:09Z</time></trkpt><trkpt lat="-30.864538444430018" lon="115.45268802165761"><ele>62.0</ele><time>2026-04-12T08:16:10Z</time></trkpt><trkpt lat="-30.86429875783388" lon="115.45257014325249"><ele>62.5</ele><time>2026-04-12T08:16:11Z</time></trkpt><trkpt lat="-30.86405682627671" lon="115.45246499889159"><ele>63.0</ele><time>2026-04-12T08:16:12Z</time></trkpt><trkpt lat="-30.863807299404407" lon="115.4523773903004"><ele>63.0</ele><time>2026-04-12T08:16:13Z</time></trkpt><trkpt lat="-30.86354999823764" lon="115.45230764027444"><ele>63.0</ele><time>2026-04-12T08:16:14Z</time></trkpt><trkpt lat="-30.863287745526083" lon="115.45224749384987"><ele>63.5</ele><time>2026-04-12T08:16:15Z</time></trkpt><trkpt lat="-30.86302029932925" lon="115.45219938374767"><ele>64.0</ele><time>2026-04-12T08:16:16Z</time></trkpt><trkpt lat="-30.8627569517973" lon="115.45216998568458"><ele>63.0</ele><time>2026-04-12T08:16:17Z</time></trkpt><trkpt lat="-30.86249758557216" lon="115.45216403241893"><ele>62.0</ele><time>2026-04-12T08:16:18Z</time></trkpt><trkpt lat="-30.86223597865205" lon="115.45217523309837"><ele>62.0</ele><time>2026-04-12T08:16:19Z</time></trkpt><trkpt lat="-30.861975932258417" lon="115.45220067099942"><ele>62.0</ele><time>2026-04-12T08:16:20Z</time></trkpt><trkpt lat="-30.861719233837164" lon="115.4522337316523"><ele>62.0</ele><time>2026-04-12T08:16:21Z</time></trkpt><trkpt lat="-30.861466079405222" lon="115.45227593047944"><ele>62.0</ele><time>2026-04-12T08:16:22Z</time></trkpt><trkpt lat="-30.86121739890888" lon="115.45233716059256"><ele>62.0</ele><time>2026-04-12T08:16:23Z</time></trkpt><trkpt lat="-30.86096946683449" lon="115.45241765735669"><ele>62.0</ele><time>2026-04-12T08:16:24Z</time></trkpt><trkpt lat="-30.860725162916275" lon="115.45251719350497"><ele>61.5</ele><time>2026-04-12T08:16:25Z</time></trkpt><trkpt lat="-30.860484959617754" lon="115.45263594740015"><ele>61.0</ele><time>2026-04-12T08:16:26Z</time></trkpt><trkpt lat="-30.860243656355085" lon="115.4527696771519"><ele>61.5</ele><time>2026-04-12T08:16:27Z</time></trkpt><trkpt lat="-30.86000442659078" lon="115.45291349711526"><ele>62.0</ele><time>2026-04-12T08:16:28Z</time></trkpt><trkpt lat="-30.85975726750173" lon="115.45306470583124"><ele>62.0</ele><time>2026-04-12T08:16:29Z</time></trkpt><trkpt lat="-30.859513507417624" lon="115.45321818440087"><ele>62.0</ele><time>2026-04-12T08:16:30Z</time></trkpt><trkpt lat="-30.85926827301015" lon="115.45337192448554"><ele>61.5</ele><time>2026-04-12T08:16:31Z</time></trkpt><trkpt lat="-30.85902969921322" lon="115.45352306554844"><ele>61.0</ele><time>2026-04-12T08:16:32Z</time></trkpt><trkpt lat="-30.858797140421764" lon="115.45367557100417"><ele>61.0</ele><time>2026-04-12T08:16:33Z</time></trkpt><trkpt lat="-30.85856627189487" lon="115.45382166444756"><ele>61.0</ele><time>2026-04-12T08:16:34Z</time></trkpt><trkpt lat="-30.858340637605043" lon="115.453959868819"><ele>61.0</ele><time>2026-04-12T08:16:35Z</time></trkpt><trkpt lat="-30.85811755126886" lon="115.45409758229702"><ele>61.0</ele><time>2026-04-12T08:16:36Z</time></trkpt><trkpt lat="-30.857891051778637" lon="115.4542395491988"><ele>61.0</ele><time>2026-04-12T08:16:37Z</time></trkpt><trkpt lat="-30.857659942494838" lon="115.45438490271627"><ele>61.0</ele><time>2026-04-12T08:16:38Z</time></trkpt><trkpt lat="-30.857421050174086" lon="115.45452937712004"><ele>63.0</ele><time>2026-04-12T08:16:39Z</time></trkpt><trkpt lat="-30.857178528976082" lon="115.45467409807797"><ele>65.0</ele><time>2026-04-12T08:16:40Z</time></trkpt><trkpt lat="-30.856932792588967" lon="115.4548091199007"><ele>64.0</ele><time>2026-04-12T08:16:41Z</time></trkpt><trkpt lat="-30.856690983955286" lon="115.45492624021682"><ele>63.0</ele><time>2026-04-12T08:16:42Z</time></trkpt><trkpt lat="-30.856450053590905" lon="115.455016508184"><ele>63.0</ele><time>2026-04-12T08:16:43Z</time></trkpt><trkpt lat="-30.856211113904685" lon="115.45507755071372"><ele>63.0</ele><time>2026-04-12T08:16:44Z</time></trkpt><trkpt lat="-30.855966065131334" lon="115.45511687203532"><ele>63.0</ele><time>2026-04-12T08:16:45Z</time></trkpt><trkpt lat="-30.85571921170765" lon="115.45513540969938"><ele>63.0</ele><time>2026-04-12T08:16:46Z</time></trkpt><trkpt lat="-30.855473064946413" lon="115.45512811401095"><ele>63.0</ele><time>2026-04-12T08:16:47Z</time></trkpt><trkpt lat="-30.85522753681958" lon="115.45507170369616"><ele>63.0</ele><time>2026-04-12T08:16:48Z</time></trkpt><trkpt lat="-30.854985949549757" lon="115.45500527388374"><ele>64.5</ele><time>2026-04-12T08:16:49Z</time></trkpt><trkpt lat="-30.85474984753481" lon="115.45491934056237"><ele>66.0</ele><time>2026-04-12T08:16:50Z</time></trkpt><trkpt lat="-30.854506437545805" lon="115.45483287144427"><ele>65.0</ele><time>2026-04-12T08:16:51Z</time></trkpt><trkpt lat="-30.854272529159662" lon="115.45470630554111"><ele>64.0</ele><time>2026-04-12T08:16:52Z</time></trkpt><trkpt lat="-30.854043767040952" lon="115.4545714225542"><ele>64.0</ele><time>2026-04-12T08:16:53Z</time></trkpt><trkpt lat="-30.853822547645684" lon="115.45443620053426"><ele>64.0</ele><time>2026-04-12T08:16:54Z</time></trkpt><trkpt lat="-30.85362236931606" lon="115.4543139763735"><ele>64.5</ele><time>2026-04-12T08:16:55Z</time></trkpt><trkpt lat="-30.853416112934067" lon="115.45419192299897"><ele>65.0</ele><time>2026-04-12T08:16:56Z</time></trkpt><trkpt lat="-30.853198886608542" lon="115.45406625989321"><ele>65.0</ele><time>2026-04-12T08:16:57Z</time></trkpt><trkpt lat="-30.852975225518243" lon="115.45393685007691"><ele>65.0</ele><time>2026-04-12T08:16:58Z</time></trkpt><trkpt lat="-30.852747014468783" lon="115.45380310748412"><ele>63.5</ele><time>2026-04-12T08:16:59Z</time></trkpt><trkpt lat="-30.852522894909292" lon="115.45367056471034"><ele>62.0</ele><time>2026-04-12T08:17:00Z</time></trkpt><trkpt lat="-30.852294925628076" lon="115.45353233083055"><ele>62.0</ele><time>2026-04-12T08:17:01Z</time></trkpt><trkpt lat="-30.85207183659616" lon="115.45339729300973"><ele>62.0</ele><time>2026-04-12T08:17:02Z</time></trkpt><trkpt lat="-30.851845039445845" lon="115.4532622279631"><ele>62.5</ele><time>2026-04-12T08:17:03Z</time></trkpt><trkpt lat="-30.85161515119011" lon="115.45312890224073"><ele>63.0</ele><time>2026-04-12T08:17:04Z</time></trkpt><trkpt lat="-30.8513897994367" lon="115.45299649194259"><ele>63.5</ele><time>2026-04-12T08:17:05Z</time></trkpt><trkpt lat="-30.851167982808136" lon="115.4528665714844"><ele>64.0</ele><time>2026-04-12T08:17:06Z</time></trkpt><trkpt lat="-30.850944521071547" lon="115.45273460774628"><ele>64.5</ele><time>2026-04-12T08:17:07Z</time></trkpt><trkpt lat="-30.85072198242245" lon="115.45260309520225"><ele>65.0</ele><time>2026-04-12T08:17:08Z</time></trkpt><trkpt lat="-30.85049669596559" lon="115.45247100554708"><ele>65.0</ele><time>2026-04-12T08:17:09Z</time></trkpt><trkpt lat="-30.85027091536575" lon="115.45233749841269"><ele>65.0</ele><time>2026-04-12T08:17:10Z</time></trkpt><trkpt lat="-30.850045344559554" lon="115.45220141613179"><ele>64.5</ele><time>2026-04-12T08:17:11Z</time></trkpt><trkpt lat="-30.849821978516687" lon="115.45206624715077"><ele>64.0</ele><time>2026-04-12T08:17:12Z</time></trkpt><trkpt lat="-30.849595058718297" lon="115.45192825751634"><ele>64.0</ele><time>2026-04-12T08:17:13Z</time></trkpt><trkpt lat="-30.849369263912543" lon="115.4517921789633"><ele>64.0</ele><time>2026-04-12T08:17:14Z</time></trkpt><trkpt lat="-30.849144631710665" lon="115.45165565452719"><ele>64.0</ele><time>2026-04-12T08:17:15Z</time></trkpt><trkpt lat="-30.84891931458989" lon="115.45151606198199"><ele>64.0</ele><time>2026-04-12T08:17:16Z</time></trkpt><trkpt lat="-30.84869622395295" lon="115.45137783737543"><ele>64.5</ele><time>2026-04-12T08:17:17Z</time></trkpt><trkpt lat="-30.84847026049813" lon="115.45123729748926"><ele>65.0</ele><time>2026-04-12T08:17:18Z</time></trkpt><trkpt lat="-30.848245745789416" lon="115.45110053228228"><ele>65.0</ele><time>2026-04-12T08:17:19Z</time></trkpt><trkpt lat="-30.848018840705002" lon="115.45097019426"><ele>65.0</ele><time>2026-04-12T08:17:20Z</time></trkpt><trkpt lat="-30.847791868309248" lon="115.45084126909039"><ele>65.0</ele><time>2026-04-12T08:17:21Z</time></trkpt><trkpt lat="-30.847565641137624" lon="115.4507092512898"><ele>65.0</ele><time>2026-04-12T08:17:22Z</time></trkpt><trkpt lat="-30.84734334718914" lon="115.45057482752809"><ele>65.0</ele><time>2026-04-12T08:17:23Z</time></trkpt><trkpt lat="-30.847120983507295" lon="115.45043882898173"><ele>65.0</ele><time>2026-04-12T08:17:24Z</time></trkpt><trkpt lat="-30.846897795931028" lon="115.45030066459218"><ele>65.0</ele><time>2026-04-12T08:17:25Z</time></trkpt><trkpt lat="-30.846668458824542" lon="115.45016231502775"><ele>65.0</ele><time>2026-04-12T08:17:26Z</time></trkpt><trkpt lat="-30.8464346086557" lon="115.45002452705553"><ele>65.0</ele><time>2026-04-12T08:17:27Z</time></trkpt><trkpt lat="-30.84619701470696" lon="115.44988537225252"><ele>65.0</ele><time>2026-04-12T08:17:28Z</time></trkpt><trkpt lat="-30.845956116164267" lon="115.44974504514884"><ele>65.0</ele><time>2026-04-12T08:17:29Z</time></trkpt><trkpt lat="-30.84572266878798" lon="115.44958689232303"><ele>65.0</ele><time>2026-04-12T08:17:30Z</time></trkpt><trkpt lat="-30.84547395477585" lon="115.44945607725387"><ele>65.0</ele><time>2026-04-12T08:17:31Z</time></trkpt><trkpt lat="-30.84523696934414" lon="115.44930866998268"><ele>65.0</ele><time>2026-04-12T08:17:32Z</time></trkpt><trkpt lat="-30.845000481640316" lon="115.44916185080248"><ele>65.0</ele><time>2026-04-12T08:17:33Z</time></trkpt><trkpt lat="-30.84476417962725" lon="115.44902029986214"><ele>65.0</ele><time>2026-04-12T08:17:34Z</time></trkpt><trkpt lat="-30.844529450617713" lon="115.44888559895357"><ele>65.0</ele><time>2026-04-12T08:17:35Z</time></trkpt><trkpt lat="-30.844305357779344" lon="115.44876295993413"><ele>65.0</ele><time>2026-04-12T08:17:36Z</time></trkpt><trkpt lat="-30.844098048954624" lon="115.4486558498929"><ele>65.0</ele><time>2026-04-12T08:17:37Z</time></trkpt><trkpt lat="-30.843905494260085" lon="115.44856707961766"><ele>65.0</ele><time>2026-04-12T08:17:38Z</time></trkpt><trkpt lat="-30.843713585078937" lon="115.44850349381555"><ele>65.0</ele><time>2026-04-12T08:17:39Z</time></trkpt><trkpt lat="-30.843516492643836" lon="115.44847223332641"><ele>64.66666666666667</ele><time>2026-04-12T08:17:40Z</time></trkpt><trkpt lat="-30.84331529494897" lon="115.44846837512975"><ele>64.33333333333333</ele><time>2026-04-12T08:17:41Z</time></trkpt><trkpt lat="-30.843099942702825" lon="115.44848792830747"><ele>64.0</ele><time>2026-04-12T08:17:42Z</time></trkpt><trkpt lat="-30.84288873686947" lon="115.44853345637598"><ele>64.0</ele><time>2026-04-12T08:17:43Z</time></trkpt><trkpt lat="-30.842674108062287" lon="115.44860599145457"><ele>64.0</ele><time>2026-04-12T08:17:44Z</time></trkpt><trkpt lat="-30.842445416961606" lon="115.4486915319983"><ele>64.0</ele><time>2026-04-12T08:17:45.001Z</time></trkpt><trkpt lat="-30.842211407046552" lon="115.4487777932904"><ele>64.0</ele><time>2026-04-12T08:17:46.001Z</time></trkpt><trkpt lat="-30.84197359277383" lon="115.44886253260454"><ele>63.5</ele><time>2026-04-12T08:17:47.001Z</time></trkpt><trkpt lat="-30.84173240642817" lon="115.4489411094588"><ele>63.0</ele><time>2026-04-12T08:17:48.001Z</time></trkpt><trkpt lat="-30.841485929085234" lon="115.44902096705268"><ele>63.0</ele><time>2026-04-12T08:17:49.001Z</time></trkpt><trkpt lat="-30.841237342458772" lon="115.44910281102898"><ele>63.0</ele><time>2026-04-12T08:17:50.001Z</time></trkpt><trkpt lat="-30.840989809500115" lon="115.44918801502554"><ele>63.0</ele><time>2026-04-12T08:17:51.001Z</time></trkpt><trkpt lat="-30.840736713767875" lon="115.44927327722841"><ele>63.0</ele><time>2026-04-12T08:17:52.001Z</time></trkpt><trkpt lat="-30.840491460009734" lon="115.4493569947112"><ele>63.0</ele><time>2026-04-12T08:17:53.001Z</time></trkpt><trkpt lat="-30.840242903092186" lon="115.44943791349954"><ele>63.0</ele><time>2026-04-12T08:17:54.001Z</time></trkpt><trkpt lat="-30.839993219947843" lon="115.4495196381112"><ele>65.0</ele><time>2026-04-12T08:17:55.001Z</time></trkpt><trkpt lat="-30.839739474800176" lon="115.44960301443415"><ele>67.0</ele><time>2026-04-12T08:17:56.001Z</time></trkpt><trkpt lat="-30.839487275267935" lon="115.44968638296346"><ele>67.5</ele><time>2026-04-12T08:17:57.001Z</time></trkpt><trkpt lat="-30.83924101929421" lon="115.44977290526795"><ele>68.0</ele><time>2026-04-12T08:17:58.001Z</time></trkpt><trkpt lat="-30.838995851538066" lon="115.4498600429736"><ele>68.0</ele><time>2026-04-12T08:17:59.001Z</time></trkpt><trkpt lat="-30.838745143823576" lon="115.44994952430194"><ele>68.0</ele><time>2026-04-12T08:18:00.001Z</time></trkpt><trkpt lat="-30.838490490182615" lon="115.45003282501209"><ele>66.5</ele><time>2026-04-12T08:18:01.001Z</time></trkpt><trkpt lat="-30.838228550080935" lon="115.45010563153147"><ele>65.0</ele><time>2026-04-12T08:18:02.001Z</time></trkpt><trkpt lat="-30.83796986262312" lon="115.4501706911483"><ele>65.0</ele><time>2026-04-12T08:18:03.001Z</time></trkpt><trkpt lat="-30.837712845727467" lon="115.45023149226456"><ele>65.0</ele><time>2026-04-12T08:18:04.001Z</time></trkpt><trkpt lat="-30.83745982820361" lon="115.45029048436521"><ele>65.5</ele><time>2026-04-12T08:18:05.001Z</time></trkpt><trkpt lat="-30.837209279736634" lon="115.45034995816688"><ele>66.0</ele><time>2026-04-12T08:18:06.001Z</time></trkpt><trkpt lat="-30.836958720438627" lon="115.45041013225814"><ele>65.0</ele><time>2026-04-12T08:18:07.001Z</time></trkpt><trkpt lat="-30.8367066612805" lon="115.45047075897314"><ele>64.0</ele><time>2026-04-12T08:18:08.001Z</time></trkpt><trkpt lat="-30.836448756453283" lon="115.45053020534544"><ele>64.0</ele><time>2026-04-12T08:18:09.001Z</time></trkpt><trkpt lat="-30.836192528871134" lon="115.45058747851448"><ele>64.0</ele><time>2026-04-12T08:18:10.001Z</time></trkpt><trkpt lat="-30.835939743978127" lon="115.45064644436303"><ele>68.0</ele><time>2026-04-12T08:18:11.001Z</time></trkpt><trkpt lat="-30.835699867176007" lon="115.4507008044943"><ele>72.0</ele><time>2026-04-12T08:18:12.001Z</time></trkpt><trkpt lat="-30.835477235904367" lon="115.45075276286484"><ele>72.0</ele><time>2026-04-12T08:18:13.001Z</time></trkpt><trkpt lat="-30.83525496719362" lon="115.45081739246011"><ele>72.0</ele><time>2026-04-12T08:18:14.001Z</time></trkpt><trkpt lat="-30.83502390427617" lon="115.45089990013642"><ele>71.0</ele><time>2026-04-12T08:18:15.001Z</time></trkpt><trkpt lat="-30.834788188524413" lon="115.45100147221788"><ele>70.0</ele><time>2026-04-12T08:18:16.001Z</time></trkpt><trkpt lat="-30.834550322429322" lon="115.4511155582284"><ele>70.0</ele><time>2026-04-12T08:18:17.001Z</time></trkpt><trkpt lat="-30.834305804726284" lon="115.45123343638105"><ele>70.0</ele><time>2026-04-12T08:18:18.001Z</time></trkpt><trkpt lat="-30.83406066925188" lon="115.4513528167198"><ele>69.0</ele><time>2026-04-12T08:18:19.001Z</time></trkpt><trkpt lat="-30.83381493999472" lon="115.45147318213573"><ele>68.0</ele><time>2026-04-12T08:18:20.001Z</time></trkpt><trkpt lat="-30.83357628567993" lon="115.4515933841604"><ele>70.5</ele><time>2026-04-12T08:18:21.001Z</time></trkpt><trkpt lat="-30.833336755447498" lon="115.45171281948026"><ele>73.0</ele><time>2026-04-12T08:18:22.001Z</time></trkpt><trkpt lat="-30.8330987588998" lon="115.45182799013453"><ele>73.0</ele><time>2026-04-12T08:18:23.001Z</time></trkpt><trkpt lat="-30.832854289087418" lon="115.45194162147007"><ele>73.0</ele><time>2026-04-12T08:18:24.001Z</time></trkpt><trkpt lat="-30.832610828866517" lon="115.4520569607722"><ele>72.5</ele><time>2026-04-12T08:18:25.001Z</time></trkpt><trkpt lat="-30.832366949237073" lon="115.45217535024778"><ele>72.0</ele><time>2026-04-12T08:18:26.001Z</time></trkpt><trkpt lat="-30.832120565742095" lon="115.45229202644794"><ele>72.0</ele><time>2026-04-12T08:18:27.001Z</time></trkpt><trkpt lat="-30.83187691093153" lon="115.45240858728278"><ele>72.0</ele><time>2026-04-12T08:18:28.001Z</time></trkpt><trkpt lat="-30.831632194659704" lon="115.45252902752162"><ele>71.0</ele><time>2026-04-12T08:18:29.001Z</time></trkpt><trkpt lat="-30.831383954489493" lon="115.4526547994408"><ele>70.0</ele><time>2026-04-12T08:18:30.001Z</time></trkpt><trkpt lat="-30.83113256703979" lon="115.4527794617832"><ele>70.5</ele><time>2026-04-12T08:18:31.001Z</time></trkpt><trkpt lat="-30.830878273157843" lon="115.45290173040542"><ele>71.0</ele><time>2026-04-12T08:18:32.001Z</time></trkpt><trkpt lat="-30.830624681381458" lon="115.45302003595032"><ele>71.0</ele><time>2026-04-12T08:18:33.001Z</time></trkpt><trkpt lat="-30.830372380443052" lon="115.4531374306494"><ele>71.0</ele><time>2026-04-12T08:18:34.001Z</time></trkpt><trkpt lat="-30.83011939382486" lon="115.45325543341723"><ele>69.5</ele><time>2026-04-12T08:18:35.001Z</time></trkpt><trkpt lat="-30.82986960418434" lon="115.45337276364471"><ele>68.0</ele><time>2026-04-12T08:18:36.001Z</time></trkpt><trkpt lat="-30.82961932843676" lon="115.45349126811774"><ele>68.0</ele><time>2026-04-12T08:18:37.001Z</time></trkpt><trkpt lat="-30.82937112381107" lon="115.45360723875473"><ele>68.0</ele><time>2026-04-12T08:18:38.001Z</time></trkpt><trkpt lat="-30.829122465553258" lon="115.45372373651759"><ele>69.5</ele><time>2026-04-12T08:18:39.001Z</time></trkpt><trkpt lat="-30.828870022804242" lon="115.45384093128642"><ele>71.0</ele><time>2026-04-12T08:18:40.001Z</time></trkpt><trkpt lat="-30.82861635462113" lon="115.45395693164755"><ele>71.0</ele><time>2026-04-12T08:18:41.001Z</time></trkpt><trkpt lat="-30.828366573366395" lon="115.454067836868"><ele>71.0</ele><time>2026-04-12T08:18:42.001Z</time></trkpt><trkpt lat="-30.828115818337366" lon="115.45417462022955"><ele>71.0</ele><time>2026-04-12T08:18:43.001Z</time></trkpt><trkpt lat="-30.82786870820381" lon="115.45428174963673"><ele>71.0</ele><time>2026-04-12T08:18:44.001Z</time></trkpt><trkpt lat="-30.827620915467953" lon="115.45439654509468"><ele>71.5</ele><time>2026-04-12T08:18:45.001Z</time></trkpt><trkpt lat="-30.82737211711846" lon="115.45450626789764"><ele>72.0</ele><time>2026-04-12T08:18:46.001Z</time></trkpt><trkpt lat="-30.827120988463065" lon="115.45460819611544"><ele>70.5</ele><time>2026-04-12T08:18:47.001Z</time></trkpt><trkpt lat="-30.826872910105354" lon="115.45470849625666"><ele>69.0</ele><time>2026-04-12T08:18:48.001Z</time></trkpt><trkpt lat="-30.826622161170917" lon="115.45481289465835"><ele>69.0</ele><time>2026-04-12T08:18:49Z</time></trkpt><trkpt lat="-30.826369778685326" lon="115.45491468686417"><ele>69.0</ele><time>2026-04-12T08:18:50Z</time></trkpt><trkpt lat="-30.826113307965766" lon="115.45501496060922"><ele>71.5</ele><time>2026-04-12T08:18:51Z</time></trkpt><trkpt lat="-30.82585586988268" lon="115.45512222408242"><ele>74.0</ele><time>2026-04-12T08:18:52Z</time></trkpt><trkpt lat="-30.825594504615808" lon="115.45523485052996"><ele>74.0</ele><time>2026-04-12T08:18:53Z</time></trkpt><trkpt lat="-30.825338170842194" lon="115.45534751556585"><ele>74.0</ele><time>2026-04-12T08:18:54Z</time></trkpt><trkpt lat="-30.82507592363602" lon="115.4554627647062"><ele>73.0</ele><time>2026-04-12T08:18:55Z</time></trkpt><trkpt lat="-30.82481676002317" lon="115.45557944937052"><ele>72.0</ele><time>2026-04-12T08:18:56Z</time></trkpt><trkpt lat="-30.82456045673348" lon="115.45569320767463"><ele>72.0</ele><time>2026-04-12T08:18:57.001Z</time></trkpt><trkpt lat="-30.824303704286375" lon="115.45581387239399"><ele>72.0</ele><time>2026-04-12T08:18:58.001Z</time></trkpt><trkpt lat="-30.82405139094128" lon="115.4559479957721"><ele>72.0</ele><time>2026-04-12T08:18:59.001Z</time></trkpt><trkpt lat="-30.823801395500404" lon="115.4560932081108"><ele>72.0</ele><time>2026-04-12T08:19:00.001Z</time></trkpt><trkpt lat="-30.82354964638279" lon="115.45624334400655"><ele>70.0</ele><time>2026-04-12T08:19:01.001Z</time></trkpt><trkpt lat="-30.823297756688927" lon="115.4563935344188"><ele>68.0</ele><time>2026-04-12T08:19:02.001Z</time></trkpt><trkpt lat="-30.82304765120876" lon="115.45654009467547"><ele>68.0</ele><time>2026-04-12T08:19:03.001Z</time></trkpt><trkpt lat="-30.82279859288285" lon="115.45668503262907"><ele>68.0</ele><time>2026-04-12T08:19:04.001Z</time></trkpt><trkpt lat="-30.82255264205631" lon="115.45682947297306"><ele>68.0</ele><time>2026-04-12T08:19:05.001Z</time></trkpt><trkpt lat="-30.82230646602897" lon="115.45697479128039"><ele>68.0</ele><time>2026-04-12T08:19:06.001Z</time></trkpt><trkpt lat="-30.822062352720998" lon="115.45711813030643"><ele>68.5</ele><time>2026-04-12T08:19:07.001Z</time></trkpt><trkpt lat="-30.821814372095346" lon="115.45726130987305"><ele>69.0</ele><time>2026-04-12T08:19:08.001Z</time></trkpt><trkpt lat="-30.82156869715629" lon="115.45739788472828"><ele>69.0</ele><time>2026-04-12T08:19:09.001Z</time></trkpt><trkpt lat="-30.82132833878327" lon="115.45752656519534"><ele>69.0</ele><time>2026-04-12T08:19:10.001Z</time></trkpt><trkpt lat="-30.821087085794954" lon="115.45761470188732"><ele>70.0</ele><time>2026-04-12T08:19:11.001Z</time></trkpt><trkpt lat="-30.82085081352497" lon="115.45769720824444"><ele>71.0</ele><time>2026-04-12T08:19:12.001Z</time></trkpt><trkpt lat="-30.820610593344135" lon="115.45774587293927"><ele>71.0</ele><time>2026-04-12T08:19:13.001Z</time></trkpt><trkpt lat="-30.820366628282947" lon="115.4577632977048"><ele>71.0</ele><time>2026-04-12T08:19:14.001Z</time></trkpt><trkpt lat="-30.820111176122907" lon="115.45777323240048"><ele>70.0</ele><time>2026-04-12T08:19:15.001Z</time></trkpt><trkpt lat="-30.819849977961958" lon="115.45777737001754"><ele>69.0</ele><time>2026-04-12T08:19:16.001Z</time></trkpt><trkpt lat="-30.81958727496962" lon="115.45779095296828"><ele>69.0</ele><time>2026-04-12T08:19:17.001Z</time></trkpt><trkpt lat="-30.819328198712686" lon="115.45778236703975"><ele>69.0</ele><time>2026-04-12T08:19:18.001Z</time></trkpt><trkpt lat="-30.81906504828237" lon="115.4577591049934"><ele>68.0</ele><time>2026-04-12T08:19:19.001Z</time></trkpt><trkpt lat="-30.818799136703472" lon="115.4577492193211"><ele>67.0</ele><time>2026-04-12T08:19:20.001Z</time></trkpt><trkpt lat="-30.818533539072476" lon="115.45774118441932"><ele>67.0</ele><time>2026-04-12T08:19:21.001Z</time></trkpt><trkpt lat="-30.818265673346847" lon="115.45773406112953"><ele>67.0</ele><time>2026-04-12T08:19:22.001Z</time></trkpt><trkpt lat="-30.817998304077726" lon="115.45772760519975"><ele>67.0</ele><time>2026-04-12T08:19:23.001Z</time></trkpt><trkpt lat="-30.817729280009146" lon="115.45772128299554"><ele>67.0</ele><time>2026-04-12T08:19:24.001Z</time></trkpt><trkpt lat="-30.81745367396425" lon="115.45771590358936"><ele>68.5</ele><time>2026-04-12T08:19:25.001Z</time></trkpt><trkpt lat="-30.81718109004956" lon="115.45770894090546"><ele>70.0</ele><time>2026-04-12T08:19:26.001Z</time></trkpt><trkpt lat="-30.816903239434474" lon="115.45770184360262"><ele>70.0</ele><time>2026-04-12T08:19:27.001Z</time></trkpt><trkpt lat="-30.816633233792064" lon="115.45769624520274"><ele>70.0</ele><time>2026-04-12T08:19:28.001Z</time></trkpt><trkpt lat="-30.8163608127865" lon="115.45771173625543"><ele>70.0</ele><time>2026-04-12T08:19:29.001Z</time></trkpt><trkpt lat="-30.816093944766656" lon="115.45770415728468"><ele>70.0</ele><time>2026-04-12T08:19:30.001Z</time></trkpt><trkpt lat="-30.815829002666366" lon="115.45769709029969"><ele>70.5</ele><time>2026-04-12T08:19:31.001Z</time></trkpt><trkpt lat="-30.815560353600272" lon="115.4576881103844"><ele>71.0</ele><time>2026-04-12T08:19:32.001Z</time></trkpt><trkpt lat="-30.815292770916514" lon="115.4576791026836"><ele>70.5</ele><time>2026-04-12T08:19:33.001Z</time></trkpt><trkpt lat="-30.81502309872296" lon="115.4576739544722"><ele>70.0</ele><time>2026-04-12T08:19:34.001Z</time></trkpt><trkpt lat="-30.814748597271077" lon="115.45767038459897"><ele>70.0</ele><time>2026-04-12T08:19:35.001Z</time></trkpt><trkpt lat="-30.81446993026648" lon="115.45766255939984"><ele>70.0</ele><time>2026-04-12T08:19:36.001Z</time></trkpt><trkpt lat="-30.814190526012442" lon="115.4576522288448"><ele>69.5</ele><time>2026-04-12T08:19:37.001Z</time></trkpt><trkpt lat="-30.81391203243145" lon="115.45764445017481"><ele>69.0</ele><time>2026-04-12T08:19:38.001Z</time></trkpt><trkpt lat="-30.813633084476614" lon="115.45763877808176"><ele>69.5</ele><time>2026-04-12T08:19:39.001Z</time></trkpt><trkpt lat="-30.813355993322386" lon="115.45763485981195"><ele>70.0</ele><time>2026-04-12T08:19:40.001Z</time></trkpt><trkpt lat="-30.81307911644176" lon="115.4576276177867"><ele>70.0</ele><time>2026-04-12T08:19:41.001Z</time></trkpt><trkpt lat="-30.81280556303567" lon="115.45762018255748"><ele>70.0</ele><time>2026-04-12T08:19:42.001Z</time></trkpt><trkpt lat="-30.812533953915665" lon="115.45761439322938"><ele>70.0</ele><time>2026-04-12T08:19:43.001Z</time></trkpt><trkpt lat="-30.812262713180075" lon="115.4576085003856"><ele>70.0</ele><time>2026-04-12T08:19:44.001Z</time></trkpt><trkpt lat="-30.81198864970245" lon="115.45760384561805"><ele>70.5</ele><time>2026-04-12T08:19:45.001Z</time></trkpt><trkpt lat="-30.811711830965482" lon="115.4576001010294"><ele>71.0</ele><time>2026-04-12T08:19:46.001Z</time></trkpt><trkpt lat="-30.81143197097719" lon="115.45759199857609"><ele>71.0</ele><time>2026-04-12T08:19:47.001Z</time></trkpt><trkpt lat="-30.811152493181204" lon="115.45758073966549"><ele>71.0</ele><time>2026-04-12T08:19:48.001Z</time></trkpt><trkpt lat="-30.810876019098355" lon="115.45756777610409"><ele>70.5</ele><time>2026-04-12T08:19:49.001Z</time></trkpt><trkpt lat="-30.81061491237367" lon="115.45755629253452"><ele>70.0</ele><time>2026-04-12T08:19:50.001Z</time></trkpt><trkpt lat="-30.810372237242134" lon="115.45754984444095"><ele>70.0</ele><time>2026-04-12T08:19:51.001Z</time></trkpt><trkpt lat="-30.810147261184888" lon="115.45754690002757"><ele>70.0</ele><time>2026-04-12T08:19:52.001Z</time></trkpt><trkpt lat="-30.809924977671464" lon="115.45755253728045"><ele>70.0</ele><time>2026-04-12T08:19:53.001Z</time></trkpt><trkpt lat="-30.80969732572256" lon="115.45757438802043"><ele>70.0</ele><time>2026-04-12T08:19:54.001Z</time></trkpt><trkpt lat="-30.80947513270898" lon="115.45762194866438"><ele>70.0</ele><time>2026-04-12T08:19:55.001Z</time></trkpt><trkpt lat="-30.809258855399435" lon="115.45769329047711"><ele>70.5</ele><time>2026-04-12T08:19:56.001Z</time></trkpt><trkpt lat="-30.809046557341006" lon="115.45778392895754"><ele>71.0</ele><time>2026-04-12T08:19:57.001Z</time></trkpt><trkpt lat="-30.808836920640438" lon="115.45789511592375"><ele>71.0</ele><time>2026-04-12T08:19:58.001Z</time></trkpt><trkpt lat="-30.80862621017951" lon="115.4580253098405"><ele>71.0</ele><time>2026-04-12T08:19:59.001Z</time></trkpt><trkpt lat="-30.808409160773532" lon="115.45816394503034"><ele>71.0</ele><time>2026-04-12T08:20:00.001Z</time></trkpt><trkpt lat="-30.80818724438646" lon="115.45830493282035"><ele>71.0</ele><time>2026-04-12T08:20:01.001Z</time></trkpt><trkpt lat="-30.807963846271395" lon="115.45844407325102"><ele>71.0</ele><time>2026-04-12T08:20:02.001Z</time></trkpt><trkpt lat="-30.807738757783632" lon="115.45858473322977"><ele>71.0</ele><time>2026-04-12T08:20:03.001Z</time></trkpt><trkpt lat="-30.80751543044514" lon="115.45872790447787"><ele>72.5</ele><time>2026-04-12T08:20:04.001Z</time></trkpt><trkpt lat="-30.80729241248155" lon="115.45886649669777"><ele>74.0</ele><time>2026-04-12T08:20:05.001Z</time></trkpt><trkpt lat="-30.80706121714215" lon="115.45900173197063"><ele>74.0</ele><time>2026-04-12T08:20:06.001Z</time></trkpt><trkpt lat="-30.806828098282327" lon="115.45913816698015"><ele>74.0</ele><time>2026-04-12T08:20:07.001Z</time></trkpt><trkpt lat="-30.806598830729484" lon="115.4592781955195"><ele>75.0</ele><time>2026-04-12T08:20:08.001Z</time></trkpt><trkpt lat="-30.80636718080207" lon="115.45942143808618"><ele>76.0</ele><time>2026-04-12T08:20:09.001Z</time></trkpt><trkpt lat="-30.806136778630503" lon="115.45956847404628"><ele>76.0</ele><time>2026-04-12T08:20:10.001Z</time></trkpt><trkpt lat="-30.805904897162307" lon="115.45971495607611"><ele>76.0</ele><time>2026-04-12T08:20:11.001Z</time></trkpt><trkpt lat="-30.80566968391303" lon="115.45985771959052"><ele>76.0</ele><time>2026-04-12T08:20:12.001Z</time></trkpt><trkpt lat="-30.805430507058027" lon="115.45999993533724"><ele>76.0</ele><time>2026-04-12T08:20:13.001Z</time></trkpt><trkpt lat="-30.805188716993793" lon="115.46014234932541"><ele>75.5</ele><time>2026-04-12T08:20:14.001Z</time></trkpt><trkpt lat="-30.80494593216524" lon="115.46028477973634"><ele>75.0</ele><time>2026-04-12T08:20:15.001Z</time></trkpt><trkpt lat="-30.804703756606468" lon="115.46042689108815"><ele>75.5</ele><time>2026-04-12T08:20:16.001Z</time></trkpt><trkpt lat="-30.804463683482307" lon="115.4605697912873"><ele>76.0</ele><time>2026-04-12T08:20:17.001Z</time></trkpt><trkpt lat="-30.804231793848253" lon="115.46071284601231"><ele>74.5</ele><time>2026-04-12T08:20:18.001Z</time></trkpt><trkpt lat="-30.803999915310683" lon="115.46085675985238"><ele>73.0</ele><time>2026-04-12T08:20:19.001Z</time></trkpt><trkpt lat="-30.80376829350065" lon="115.46099223288898"><ele>73.0</ele><time>2026-04-12T08:20:20.001Z</time></trkpt><trkpt lat="-30.803535374971133" lon="115.46112205707982"><ele>73.0</ele><time>2026-04-12T08:20:21.001Z</time></trkpt><trkpt lat="-30.803304041988408" lon="115.46124957601153"><ele>74.5</ele><time>2026-04-12T08:20:22.001Z</time></trkpt><trkpt lat="-30.80306956713836" lon="115.46137595061506"><ele>76.0</ele><time>2026-04-12T08:20:23.001Z</time></trkpt><trkpt lat="-30.802833813480323" lon="115.4614884543918"><ele>75.0</ele><time>2026-04-12T08:20:24.001Z</time></trkpt><trkpt lat="-30.80258809925423" lon="115.46158711131143"><ele>74.0</ele><time>2026-04-12T08:20:25.001Z</time></trkpt><trkpt lat="-30.802342460639732" lon="115.46167548503568"><ele>74.0</ele><time>2026-04-12T08:20:26.001Z</time></trkpt><trkpt lat="-30.80209361431477" lon="115.46176137128825"><ele>74.0</ele><time>2026-04-12T08:20:27.001Z</time></trkpt><trkpt lat="-30.801841415659098" lon="115.46184773271798"><ele>74.0</ele><time>2026-04-12T08:20:28.001Z</time></trkpt><trkpt lat="-30.801583285339728" lon="115.46193195218878"><ele>74.0</ele><time>2026-04-12T08:20:29.001Z</time></trkpt><trkpt lat="-30.801325427675298" lon="115.46201682581405"><ele>74.0</ele><time>2026-04-12T08:20:30.001Z</time></trkpt><trkpt lat="-30.80107094663667" lon="115.46210343012747"><ele>74.0</ele><time>2026-04-12T08:20:31.001Z</time></trkpt><trkpt lat="-30.80082102111921" lon="115.46219104025977"><ele>74.5</ele><time>2026-04-12T08:20:32.001Z</time></trkpt><trkpt lat="-30.80057058463194" lon="115.4622734358496"><ele>75.0</ele><time>2026-04-12T08:20:33.001Z</time></trkpt><trkpt lat="-30.800334156751784" lon="115.46233108928654"><ele>75.5</ele><time>2026-04-12T08:20:34.001Z</time></trkpt><trkpt lat="-30.800103052706262" lon="115.46235668778925"><ele>76.0</ele><time>2026-04-12T08:20:35.001Z</time></trkpt><trkpt lat="-30.799875826580113" lon="115.46235097480049"><ele>76.0</ele><time>2026-04-12T08:20:36.001Z</time></trkpt><trkpt lat="-30.799641525780793" lon="115.46232473802425"><ele>76.0</ele><time>2026-04-12T08:20:37.001Z</time></trkpt><trkpt lat="-30.799397411492613" lon="115.46228155995709"><ele>75.5</ele><time>2026-04-12T08:20:38.001Z</time></trkpt><trkpt lat="-30.799164790855304" lon="115.46223278560723"><ele>75.0</ele><time>2026-04-12T08:20:39.001Z</time></trkpt><trkpt lat="-30.798946545208086" lon="115.46217507764723"><ele>75.66666666666667</ele><time>2026-04-12T08:20:40.001Z</time></trkpt><trkpt lat="-30.79875574326792" lon="115.46208620978395"><ele>76.33333333333334</ele><time>2026-04-12T08:20:41.001Z</time></trkpt><trkpt lat="-30.798574157904216" lon="115.46200609981736"><ele>77.0</ele><time>2026-04-12T08:20:42.001Z</time></trkpt><trkpt lat="-30.79841270276728" lon="115.46191596184465"><ele>77.33333333333334</ele><time>2026-04-12T08:20:43.001Z</time></trkpt><trkpt lat="-30.798264018953123" lon="115.46182616541442"><ele>77.66666666666667</ele><time>2026-04-12T08:20:44.001Z</time></trkpt><trkpt lat="-30.798119693358824" lon="115.46173097052394"><ele>78.0</ele><time>2026-04-12T08:20:45.001Z</time></trkpt><trkpt lat="-30.797970842699964" lon="115.46162330728751"><ele>78.0</ele><time>2026-04-12T08:20:46.001Z</time></trkpt><trkpt lat="-30.797818982152762" lon="115.46149854308524"><ele>78.0</ele><time>2026-04-12T08:20:47.001Z</time></trkpt><trkpt lat="-30.797662620512792" lon="115.46135896438524"><ele>78.0</ele><time>2026-04-12T08:20:48.001Z</time></trkpt><trkpt lat="-30.79750793055422" lon="115.46120207927068"><ele>77.66666666666667</ele><time>2026-04-12T08:20:49.001Z</time></trkpt><trkpt lat="-30.797360119850683" lon="115.4610314885157"><ele>77.33333333333334</ele><time>2026-04-12T08:20:50.001Z</time></trkpt><trkpt lat="-30.797215099998667" lon="115.46084281380844"><ele>77.0</ele><time>2026-04-12T08:20:51.001Z</time></trkpt><trkpt lat="-30.797067049870773" lon="115.46064918771856"><ele>77.0</ele><time>2026-04-12T08:20:52.001Z</time></trkpt><trkpt lat="-30.796922300681274" lon="115.46045980784217"><ele>77.0</ele><time>2026-04-12T08:20:53.001Z</time></trkpt><trkpt lat="-30.79678850021079" lon="115.46028440308358"><ele>77.0</ele><time>2026-04-12T08:20:54.001Z</time></trkpt><trkpt lat="-30.796663280780407" lon="115.4601207091732"><ele>76.5</ele><time>2026-04-12T08:20:55.001Z</time></trkpt><trkpt lat="-30.796551929878138" lon="115.45997595306342"><ele>76.0</ele><time>2026-04-12T08:20:56.001Z</time></trkpt><trkpt lat="-30.79645560767626" lon="115.45985204864584"><ele>75.5</ele><time>2026-04-12T08:20:57.001Z</time></trkpt><trkpt lat="-30.79636547866181" lon="115.45976099821814"><ele>75.0</ele><time>2026-04-12T08:20:58.001Z</time></trkpt><trkpt lat="-30.796302700353174" lon="115.45967226817673"><ele>75.0</ele><time>2026-04-12T08:20:59.001Z</time></trkpt><trkpt lat="-30.796241140504318" lon="115.45959628758479"><ele>75.0</ele><time>2026-04-12T08:21:00.001Z</time></trkpt><trkpt lat="-30.796196581943263" lon="115.45952609811611"><ele>75.0</ele><time>2026-04-12T08:21:01.001Z</time></trkpt><trkpt lat="-30.7961435380195" lon="115.45945600749347"><ele>75.0</ele><time>2026-04-12T08:21:03.001Z</time></trkpt><trkpt lat="-30.795950077750437" lon="115.45956668434266"><ele>75.5</ele><time>2026-04-12T08:21:06.001Z</time></trkpt><trkpt lat="-30.795865438255994" lon="115.45964823909759"><ele>76.0</ele><time>2026-04-12T08:21:07.001Z</time></trkpt><trkpt lat="-30.795768855838542" lon="115.45975475496945"><ele>76.5</ele><time>2026-04-12T08:21:08.001Z</time></trkpt><trkpt lat="-30.795654234119347" lon="115.45988331489882"><ele>77.0</ele><time>2026-04-12T08:21:09.001Z</time></trkpt><trkpt lat="-30.795525582999073" lon="115.46001471185347"><ele>77.0</ele><time>2026-04-12T08:21:10.001Z</time></trkpt><trkpt lat="-30.795381673535893" lon="115.46016199751804"><ele>77.0</ele><time>2026-04-12T08:21:11.001Z</time></trkpt><trkpt lat="-30.795219185064536" lon="115.46033042356798"><ele>77.0</ele><time>2026-04-12T08:21:12.001Z</time></trkpt><trkpt lat="-30.795053417723874" lon="115.4605114055133"><ele>77.0</ele><time>2026-04-12T08:21:13.001Z</time></trkpt><trkpt lat="-30.794879002533907" lon="115.46069852547468"><ele>77.0</ele><time>2026-04-12T08:21:14.001Z</time></trkpt><trkpt lat="-30.794691719925066" lon="115.46088967855714"><ele>77.0</ele><time>2026-04-12T08:21:15.001Z</time></trkpt><trkpt lat="-30.794503027636356" lon="115.46108061646564"><ele>77.0</ele><time>2026-04-12T08:21:16.001Z</time></trkpt><trkpt lat="-30.794310761831202" lon="115.46127443225225"><ele>77.5</ele><time>2026-04-12T08:21:17.001Z</time></trkpt><trkpt lat="-30.794106286242396" lon="115.46147248938846"><ele>78.0</ele><time>2026-04-12T08:21:18.001Z</time></trkpt><trkpt lat="-30.79389481455674" lon="115.46165852403077"><ele>78.0</ele><time>2026-04-12T08:21:19.001Z</time></trkpt><trkpt lat="-30.7936842525709" lon="115.46183074422075"><ele>78.0</ele><time>2026-04-12T08:21:20.001Z</time></trkpt><trkpt lat="-30.79346300635769" lon="115.46199401776776"><ele>79.5</ele><time>2026-04-12T08:21:21.001Z</time></trkpt><trkpt lat="-30.79323363870463" lon="115.46214719060907"><ele>81.0</ele><time>2026-04-12T08:21:22.001Z</time></trkpt><trkpt lat="-30.792997527161475" lon="115.46229743311564"><ele>81.0</ele><time>2026-04-12T08:21:23.001Z</time></trkpt><trkpt lat="-30.792757963662112" lon="115.4624492369669"><ele>81.0</ele><time>2026-04-12T08:21:24.001Z</time></trkpt><trkpt lat="-30.7925144418542" lon="115.46259320999879"><ele>81.5</ele><time>2026-04-12T08:21:25.001Z</time></trkpt><trkpt lat="-30.79226286615493" lon="115.46272245517554"><ele>82.0</ele><time>2026-04-12T08:21:26.001Z</time></trkpt><trkpt lat="-30.792006940873968" lon="115.46283854632591"><ele>82.0</ele><time>2026-04-12T08:21:27.001Z</time></trkpt><trkpt lat="-30.791747570904196" lon="115.46294295902031"><ele>82.0</ele><time>2026-04-12T08:21:28.001Z</time></trkpt><trkpt lat="-30.791487731402842" lon="115.46303719717214"><ele>82.0</ele><time>2026-04-12T08:21:29.001Z</time></trkpt><trkpt lat="-30.7912268109729" lon="115.46312081160251"><ele>82.0</ele><time>2026-04-12T08:21:30.001Z</time></trkpt><trkpt lat="-30.7909620192296" lon="115.46319475332983"><ele>82.0</ele><time>2026-04-12T08:21:31.001Z</time></trkpt><trkpt lat="-30.79069940794503" lon="115.46326328074665"><ele>82.0</ele><time>2026-04-12T08:21:32.001Z</time></trkpt><trkpt lat="-30.790435349013894" lon="115.46332504581392"><ele>82.5</ele><time>2026-04-12T08:21:33.001Z</time></trkpt><trkpt lat="-30.79017060974238" lon="115.46337888307103"><ele>83.0</ele><time>2026-04-12T08:21:34.001Z</time></trkpt><trkpt lat="-30.789907297263433" lon="115.4634334413499"><ele>83.0</ele><time>2026-04-12T08:21:35.001Z</time></trkpt><trkpt lat="-30.789646578916503" lon="115.46349549587987"><ele>83.0</ele><time>2026-04-12T08:21:36.001Z</time></trkpt><trkpt lat="-30.789384192720217" lon="115.46356360538452"><ele>83.0</ele><time>2026-04-12T08:21:37.001Z</time></trkpt><trkpt lat="-30.78912326765157" lon="115.46362942502309"><ele>83.0</ele><time>2026-04-12T08:21:38.001Z</time></trkpt><trkpt lat="-30.788858175130997" lon="115.46369099047644"><ele>83.0</ele><time>2026-04-12T08:21:39.001Z</time></trkpt><trkpt lat="-30.78859217569392" lon="115.4637495714998"><ele>83.0</ele><time>2026-04-12T08:21:40.001Z</time></trkpt><trkpt lat="-30.788326578510883" lon="115.46380855756992"><ele>82.5</ele><time>2026-04-12T08:21:41.001Z</time></trkpt><trkpt lat="-30.788061521235903" lon="115.46386618170897"><ele>82.0</ele><time>2026-04-12T08:21:42.001Z</time></trkpt><trkpt lat="-30.78779580257443" lon="115.46392348327336"><ele>80.5</ele><time>2026-04-12T08:21:43.001Z</time></trkpt><trkpt lat="-30.787530897972648" lon="115.46398515708546"><ele>79.0</ele><time>2026-04-12T08:21:44.001Z</time></trkpt><trkpt lat="-30.78726862829152" lon="115.46404797969915"><ele>79.0</ele><time>2026-04-12T08:21:45.001Z</time></trkpt><trkpt lat="-30.78701410243408" lon="115.4641064931729"><ele>79.0</ele><time>2026-04-12T08:21:46.001Z</time></trkpt><trkpt lat="-30.786774555414688" lon="115.4641607898483"><ele>79.0</ele><time>2026-04-12T08:21:47.001Z</time></trkpt><trkpt lat="-30.78653463199136" lon="115.46421822568797"><ele>79.0</ele><time>2026-04-12T08:21:48.001Z</time></trkpt><trkpt lat="-30.78629475058757" lon="115.46429063772993"><ele>79.0</ele><time>2026-04-12T08:21:49.001Z</time></trkpt><trkpt lat="-30.786053255455514" lon="115.46438117763282"><ele>79.0</ele><time>2026-04-12T08:21:50.001Z</time></trkpt><trkpt lat="-30.785807592042744" lon="115.46448870401738"><ele>78.5</ele><time>2026-04-12T08:21:51.001Z</time></trkpt><trkpt lat="-30.785556140901768" lon="115.46460497773501"><ele>78.0</ele><time>2026-04-12T08:21:52.001Z</time></trkpt><trkpt lat="-30.785302203882313" lon="115.46472982141735"><ele>78.0</ele><time>2026-04-12T08:21:53.001Z</time></trkpt><trkpt lat="-30.78504759207162" lon="115.46486385428275"><ele>78.0</ele><time>2026-04-12T08:21:54.001Z</time></trkpt><trkpt lat="-30.784794855102838" lon="115.46500307185454"><ele>78.0</ele><time>2026-04-12T08:21:55.001Z</time></trkpt><trkpt lat="-30.784544951072586" lon="115.4651488906841"><ele>78.0</ele><time>2026-04-12T08:21:56.001Z</time></trkpt><trkpt lat="-30.784290997420573" lon="115.46529564154584"><ele>78.0</ele><time>2026-04-12T08:21:57.001Z</time></trkpt><trkpt lat="-30.784035334936497" lon="115.46543509243855"><ele>78.0</ele><time>2026-04-12T08:21:58.001Z</time></trkpt><trkpt lat="-30.783780165671" lon="115.46557051094796"><ele>78.0</ele><time>2026-04-12T08:21:59.001Z</time></trkpt><trkpt lat="-30.783530744719634" lon="115.4657075794151"><ele>78.0</ele><time>2026-04-12T08:22:00.001Z</time></trkpt><trkpt lat="-30.78327476129769" lon="115.46585066738565"><ele>79.5</ele><time>2026-04-12T08:22:01.001Z</time></trkpt><trkpt lat="-30.783026385131357" lon="115.46599764826746"><ele>81.0</ele><time>2026-04-12T08:22:02.001Z</time></trkpt><trkpt lat="-30.782787373336767" lon="115.46615065467353"><ele>80.5</ele><time>2026-04-12T08:22:03.001Z</time></trkpt><trkpt lat="-30.782547468869993" lon="115.46631696385265"><ele>80.0</ele><time>2026-04-12T08:22:04.001Z</time></trkpt><trkpt lat="-30.782313549967206" lon="115.46649374277628"><ele>80.0</ele><time>2026-04-12T08:22:05.001Z</time></trkpt><trkpt lat="-30.782078840832483" lon="115.4666796300823"><ele>80.0</ele><time>2026-04-12T08:22:06.001Z</time></trkpt><trkpt lat="-30.78184551355917" lon="115.4668696986437"><ele>80.0</ele><time>2026-04-12T08:22:07.001Z</time></trkpt><trkpt lat="-30.781613155641363" lon="115.46706029517341"><ele>80.0</ele><time>2026-04-12T08:22:08.001Z</time></trkpt><trkpt lat="-30.7813793396595" lon="115.46724533112993"><ele>80.0</ele><time>2026-04-12T08:22:09.001Z</time></trkpt><trkpt lat="-30.78114407628218" lon="115.46742684060612"><ele>80.0</ele><time>2026-04-12T08:22:10.001Z</time></trkpt><trkpt lat="-30.780913842963784" lon="115.46760866842489"><ele>80.5</ele><time>2026-04-12T08:22:11.001Z</time></trkpt><trkpt lat="-30.78068266677373" lon="115.46778991455975"><ele>81.0</ele><time>2026-04-12T08:22:12.001Z</time></trkpt><trkpt lat="-30.780449870488663" lon="115.467962580316"><ele>81.5</ele><time>2026-04-12T08:22:13.001Z</time></trkpt><trkpt lat="-30.78021310721007" lon="115.46812555779807"><ele>82.0</ele><time>2026-04-12T08:22:14.001Z</time></trkpt><trkpt lat="-30.779976924432532" lon="115.46828387580578"><ele>82.0</ele><time>2026-04-12T08:22:15.001Z</time></trkpt><trkpt lat="-30.77973980536979" lon="115.46843705613152"><ele>82.0</ele><time>2026-04-12T08:22:16.001Z</time></trkpt><trkpt lat="-30.779503252400684" lon="115.46858844434794"><ele>82.0</ele><time>2026-04-12T08:22:17.001Z</time></trkpt><trkpt lat="-30.779265378306448" lon="115.4687349835206"><ele>82.0</ele><time>2026-04-12T08:22:18.001Z</time></trkpt><trkpt lat="-30.77902231562745" lon="115.46887806665217"><ele>82.0</ele><time>2026-04-12T08:22:19.001Z</time></trkpt><trkpt lat="-30.778777115175973" lon="115.46901651255149"><ele>82.0</ele><time>2026-04-12T08:22:20.001Z</time></trkpt><trkpt lat="-30.778528930453824" lon="115.46914777284856"><ele>82.5</ele><time>2026-04-12T08:22:21.001Z</time></trkpt><trkpt lat="-30.77828294632424" lon="115.4692745674551"><ele>83.0</ele><time>2026-04-12T08:22:22.001Z</time></trkpt><trkpt lat="-30.77803381220988" lon="115.46939915596785"><ele>83.0</ele><time>2026-04-12T08:22:23.001Z</time></trkpt><trkpt lat="-30.777784994004865" lon="115.46951799247523"><ele>83.0</ele><time>2026-04-12T08:22:24.001Z</time></trkpt><trkpt lat="-30.777553425048712" lon="115.46962607826912"><ele>83.0</ele><time>2026-04-12T08:22:25.001Z</time></trkpt><trkpt lat="-30.777333212427937" lon="115.4697283874845"><ele>83.0</ele><time>2026-04-12T08:22:26.001Z</time></trkpt><trkpt lat="-30.777114448156134" lon="115.46983471196701"><ele>83.0</ele><time>2026-04-12T08:22:27.001Z</time></trkpt><trkpt lat="-30.776898294601352" lon="115.46994767128068"><ele>83.0</ele><time>2026-04-12T08:22:28.001Z</time></trkpt><trkpt lat="-30.77668733194895" lon="115.4700693216431"><ele>82.0</ele><time>2026-04-12T08:22:29.001Z</time></trkpt><trkpt lat="-30.776479720351926" lon="115.47021238633634"><ele>81.0</ele><time>2026-04-12T08:22:30.001Z</time></trkpt><trkpt lat="-30.776276605539483" lon="115.47037580734734"><ele>81.5</ele><time>2026-04-12T08:22:31.001Z</time></trkpt><trkpt lat="-30.776083214355264" lon="115.47055543933956"><ele>82.0</ele><time>2026-04-12T08:22:32.001Z</time></trkpt><trkpt lat="-30.775904631121417" lon="115.47074763011445"><ele>81.0</ele><time>2026-04-12T08:22:33.001Z</time></trkpt><trkpt lat="-30.775739484891442" lon="115.47095276106727"><ele>80.0</ele><time>2026-04-12T08:22:34.001Z</time></trkpt><trkpt lat="-30.775580443386012" lon="115.47117313163922"><ele>79.5</ele><time>2026-04-12T08:22:35.001Z</time></trkpt><trkpt lat="-30.77542904247434" lon="115.47141137402163"><ele>79.0</ele><time>2026-04-12T08:22:36.001Z</time></trkpt><trkpt lat="-30.77528460983999" lon="115.47166264651183"><ele>79.5</ele><time>2026-04-12T08:22:37.001Z</time></trkpt><trkpt lat="-30.77515652632901" lon="115.47192454049608"><ele>80.0</ele><time>2026-04-12T08:22:38.001Z</time></trkpt><trkpt lat="-30.775045904174142" lon="115.47219236269237"><ele>80.0</ele><time>2026-04-12T08:22:39.001Z</time></trkpt><trkpt lat="-30.7749520967085" lon="115.4724658881537"><ele>80.0</ele><time>2026-04-12T08:22:40.001Z</time></trkpt><trkpt lat="-30.77486122583635" lon="115.47274290309682"><ele>80.5</ele><time>2026-04-12T08:22:41.001Z</time></trkpt><trkpt lat="-30.774768434977414" lon="115.47301504117249"><ele>81.0</ele><time>2026-04-12T08:22:42.001Z</time></trkpt><trkpt lat="-30.77467048055445" lon="115.47328212369182"><ele>81.0</ele><time>2026-04-12T08:22:43.001Z</time></trkpt><trkpt lat="-30.77456829921746" lon="115.47354114536766"><ele>81.0</ele><time>2026-04-12T08:22:44.001Z</time></trkpt><trkpt lat="-30.774456486697254" lon="115.47379294594623"><ele>81.5</ele><time>2026-04-12T08:22:45.001Z</time></trkpt><trkpt lat="-30.774336010648568" lon="115.47403463785118"><ele>82.0</ele><time>2026-04-12T08:22:46.001Z</time></trkpt><trkpt lat="-30.77421014005476" lon="115.47426950160228"><ele>82.0</ele><time>2026-04-12T08:22:47.001Z</time></trkpt><trkpt lat="-30.77408013529258" lon="115.47449779232015"><ele>82.0</ele><time>2026-04-12T08:22:48.001Z</time></trkpt><trkpt lat="-30.77394604933062" lon="115.4747216451599"><ele>81.0</ele><time>2026-04-12T08:22:49Z</time></trkpt><trkpt lat="-30.773809821553996" lon="115.47494902048854"><ele>80.0</ele><time>2026-04-12T08:22:50Z</time></trkpt><trkpt lat="-30.77367198437421" lon="115.47518647442621"><ele>80.0</ele><time>2026-04-12T08:22:51Z</time></trkpt><trkpt lat="-30.77352929658262" lon="115.47542588222358"><ele>80.0</ele><time>2026-04-12T08:22:52Z</time></trkpt><trkpt lat="-30.77338107135156" lon="115.47565358528782"><ele>80.33333333333334</ele><time>2026-04-12T08:22:53Z</time></trkpt><trkpt lat="-30.77323123807525" lon="115.47585519798994"><ele>80.66666666666667</ele><time>2026-04-12T08:22:54Z</time></trkpt><trkpt lat="-30.773073416886326" lon="115.47603334566493"><ele>81.0</ele><time>2026-04-12T08:22:55Z</time></trkpt><trkpt lat="-30.77290062103781" lon="115.47619914642065"><ele>80.5</ele><time>2026-04-12T08:22:56Z</time></trkpt><trkpt lat="-30.772712500348547" lon="115.4763570804166"><ele>80.0</ele><time>2026-04-12T08:22:57Z</time></trkpt><trkpt lat="-30.77251193354889" lon="115.47650625066792"><ele>80.0</ele><time>2026-04-12T08:22:58Z</time></trkpt><trkpt lat="-30.772302932163626" lon="115.47664536076422"><ele>80.0</ele><time>2026-04-12T08:22:59Z</time></trkpt><trkpt lat="-30.77210063800606" lon="115.47677300963429"><ele>80.0</ele><time>2026-04-12T08:23:00Z</time></trkpt><trkpt lat="-30.771905181149148" lon="115.47689243568746"><ele>80.0</ele><time>2026-04-12T08:23:01Z</time></trkpt><trkpt lat="-30.771724430678066" lon="115.4770056192838"><ele>80.0</ele><time>2026-04-12T08:23:02Z</time></trkpt><trkpt lat="-30.771556812762082" lon="115.47711339892759"><ele>81.0</ele><time>2026-04-12T08:23:03Z</time></trkpt><trkpt lat="-30.77139788573717" lon="115.47721393694194"><ele>82.0</ele><time>2026-04-12T08:23:04Z</time></trkpt><trkpt lat="-30.771247906846686" lon="115.47730443700758"><ele>83.0</ele><time>2026-04-12T08:23:05Z</time></trkpt><trkpt lat="-30.77110723855501" lon="115.47738655427965"><ele>83.25</ele><time>2026-04-12T08:23:06Z</time></trkpt><trkpt lat="-30.770978926513646" lon="115.47746508784643"><ele>83.5</ele><time>2026-04-12T08:23:07Z</time></trkpt><trkpt lat="-30.770865703663212" lon="115.47753649798494"><ele>83.75</ele><time>2026-04-12T08:23:08Z</time></trkpt><trkpt lat="-30.77076977957083" lon="115.47759717700522"><ele>84.0</ele><time>2026-04-12T08:23:09Z</time></trkpt><trkpt lat="-30.770686560216816" lon="115.4776452772782"><ele>84.0</ele><time>2026-04-12T08:23:10Z</time></trkpt><trkpt lat="-30.770619642598568" lon="115.47767906745023"><ele>84.0</ele><time>2026-04-12T08:23:11Z</time></trkpt><trkpt lat="-30.77055022967526" lon="115.47769073083123"><ele>84.0</ele><time>2026-04-12T08:23:13Z</time></trkpt><trkpt lat="-30.77046769853621" lon="115.47770447224354"><ele>84.0</ele><time>2026-04-12T08:23:17Z</time></trkpt><trkpt lat="-30.770449164757032" lon="115.47777558200477"><ele>84.0</ele><time>2026-04-12T08:23:40Z</time></trkpt><trkpt lat="-30.770378686781186" lon="115.47786899234482"><ele>84.0</ele><time>2026-04-12T08:23:42Z</time></trkpt><trkpt lat="-30.77030566126321" lon="115.47791156527492"><ele>84.25</ele><time>2026-04-12T08:23:43Z</time></trkpt><trkpt lat="-30.770211741756878" lon="115.47796319717956"><ele>84.5</ele><time>2026-04-12T08:23:44Z</time></trkpt><trkpt lat="-30.7701117870239" lon="115.47802424328461"><ele>84.75</ele><time>2026-04-12T08:23:45Z</time></trkpt><trkpt lat="-30.769990628516318" lon="115.4781052884657"><ele>85.0</ele><time>2026-04-12T08:23:46Z</time></trkpt><trkpt lat="-30.76985752725764" lon="115.47820083341003"><ele>85.0</ele><time>2026-04-12T08:23:47Z</time></trkpt><trkpt lat="-30.7697128732741" lon="115.47830843061308"><ele>85.0</ele><time>2026-04-12T08:23:48Z</time></trkpt><trkpt lat="-30.769555456306733" lon="115.4784364216174"><ele>85.0</ele><time>2026-04-12T08:23:49Z</time></trkpt><trkpt lat="-30.769403615078563" lon="115.47857933335531"><ele>84.66666666666666</ele><time>2026-04-12T08:23:50Z</time></trkpt><trkpt lat="-30.769261439189723" lon="115.4787342958708"><ele>84.33333333333333</ele><time>2026-04-12T08:23:51Z</time></trkpt><trkpt lat="-30.769133454255897" lon="115.47889435699683"><ele>84.0</ele><time>2026-04-12T08:23:52Z</time></trkpt><trkpt lat="-30.76901373054206" lon="115.47905058600493"><ele>84.0</ele><time>2026-04-12T08:23:53Z</time></trkpt><trkpt lat="-30.768897085656533" lon="115.4792103584957"><ele>84.0</ele><time>2026-04-12T08:23:54Z</time></trkpt><trkpt lat="-30.768786124731403" lon="115.47937355492695"><ele>84.0</ele><time>2026-04-12T08:23:55Z</time></trkpt><trkpt lat="-30.76867992732472" lon="115.47954842486449"><ele>84.66666666666667</ele><time>2026-04-12T08:23:56Z</time></trkpt><trkpt lat="-30.768582260518063" lon="115.47973261672556"><ele>85.33333333333334</ele><time>2026-04-12T08:23:57Z</time></trkpt><trkpt lat="-30.76849759287528" lon="115.4799216418494"><ele>86.0</ele><time>2026-04-12T08:23:58Z</time></trkpt><trkpt lat="-30.76842436792786" lon="115.48011858507753"><ele>86.0</ele><time>2026-04-12T08:23:59Z</time></trkpt><trkpt lat="-30.768358381841285" lon="115.48033040322034"><ele>86.0</ele><time>2026-04-12T08:24:00Z</time></trkpt><trkpt lat="-30.768296309270834" lon="115.48055418360345"><ele>86.0</ele><time>2026-04-12T08:24:01Z</time></trkpt><trkpt lat="-30.768236801845244" lon="115.48079310923778"><ele>86.0</ele><time>2026-04-12T08:24:02Z</time></trkpt><trkpt lat="-30.76818576623547" lon="115.48104879978331"><ele>86.0</ele><time>2026-04-12T08:24:03Z</time></trkpt><trkpt lat="-30.768149401561285" lon="115.48132344395717"><ele>86.0</ele><time>2026-04-12T08:24:04Z</time></trkpt><trkpt lat="-30.76813060110538" lon="115.48161301493666"><ele>86.0</ele><time>2026-04-12T08:24:05Z</time></trkpt><trkpt lat="-30.768126784151836" lon="115.4819128225291"><ele>85.5</ele><time>2026-04-12T08:24:06Z</time></trkpt><trkpt lat="-30.76813044471662" lon="115.48221926663408"><ele>85.0</ele><time>2026-04-12T08:24:07Z</time></trkpt><trkpt lat="-30.768137002157875" lon="115.48253257341158"><ele>85.0</ele><time>2026-04-12T08:24:08Z</time></trkpt><trkpt lat="-30.768139553608304" lon="115.48283761231514"><ele>85.0</ele><time>2026-04-12T08:24:09Z</time></trkpt><trkpt lat="-30.768136968212442" lon="115.48313642425974"><ele>86.5</ele><time>2026-04-12T08:24:10Z</time></trkpt><trkpt lat="-30.768133898659915" lon="115.48343988303857"><ele>88.0</ele><time>2026-04-12T08:24:11Z</time></trkpt><trkpt lat="-30.76813234446761" lon="115.48374985096757"><ele>87.5</ele><time>2026-04-12T08:24:12Z</time></trkpt><trkpt lat="-30.7681305185417" lon="115.4840639581521"><ele>87.0</ele><time>2026-04-12T08:24:13Z</time></trkpt><trkpt lat="-30.7681296586659" lon="115.48437659174563"><ele>85.5</ele><time>2026-04-12T08:24:14Z</time></trkpt><trkpt lat="-30.76813312031801" lon="115.48468193792723"><ele>84.0</ele><time>2026-04-12T08:24:15Z</time></trkpt><trkpt lat="-30.76813750322943" lon="115.48498142088906"><ele>84.0</ele><time>2026-04-12T08:24:16Z</time></trkpt><trkpt lat="-30.768139848216673" lon="115.48528152548701"><ele>84.0</ele><time>2026-04-12T08:24:17Z</time></trkpt><trkpt lat="-30.768140466041462" lon="115.48558398093678"><ele>85.0</ele><time>2026-04-12T08:24:18Z</time></trkpt><trkpt lat="-30.768139371283944" lon="115.485887002472"><ele>86.0</ele><time>2026-04-12T08:24:19Z</time></trkpt><trkpt lat="-30.768136460946476" lon="115.48619028637624"><ele>88.0</ele><time>2026-04-12T08:24:20Z</time></trkpt><trkpt lat="-30.768131741499488" lon="115.4864885401624"><ele>90.0</ele><time>2026-04-12T08:24:21Z</time></trkpt><trkpt lat="-30.76812973371645" lon="115.48678534936444"><ele>90.0</ele><time>2026-04-12T08:24:22Z</time></trkpt><trkpt lat="-30.76812831337388" lon="115.48708112965845"><ele>90.0</ele><time>2026-04-12T08:24:23Z</time></trkpt><trkpt lat="-30.768130845910257" lon="115.48737775734256"><ele>89.5</ele><time>2026-04-12T08:24:24Z</time></trkpt><trkpt lat="-30.76813208146651" lon="115.48766996278422"><ele>89.0</ele><time>2026-04-12T08:24:25Z</time></trkpt><trkpt lat="-30.768133627120573" lon="115.48795884113059"><ele>88.5</ele><time>2026-04-12T08:24:26Z</time></trkpt><trkpt lat="-30.768135479698195" lon="115.48824383652892"><ele>88.0</ele><time>2026-04-12T08:24:27.001Z</time></trkpt><trkpt lat="-30.768135414639804" lon="115.488527214057"><ele>86.5</ele><time>2026-04-12T08:24:28.001Z</time></trkpt><trkpt lat="-30.76813477631863" lon="115.48880894718731"><ele>85.0</ele><time>2026-04-12T08:24:29.001Z</time></trkpt><trkpt lat="-30.76813459778336" lon="115.4890866678085"><ele>85.0</ele><time>2026-04-12T08:24:30.001Z</time></trkpt><trkpt lat="-30.768133177811993" lon="115.48936590225752"><ele>85.0</ele><time>2026-04-12T08:24:31.001Z</time></trkpt><trkpt lat="-30.768131854483066" lon="115.4896447362144"><ele>85.0</ele><time>2026-04-12T08:24:32.001Z</time></trkpt><trkpt lat="-30.768130209839516" lon="115.48992366113136"><ele>85.0</ele><time>2026-04-12T08:24:33.001Z</time></trkpt><trkpt lat="-30.768128654983073" lon="115.49020325657668"><ele>84.5</ele><time>2026-04-12T08:24:34.001Z</time></trkpt><trkpt lat="-30.76813003705442" lon="115.49048067974391"><ele>84.0</ele><time>2026-04-12T08:24:35.001Z</time></trkpt><trkpt lat="-30.768131230234534" lon="115.49075701903476"><ele>84.0</ele><time>2026-04-12T08:24:36.001Z</time></trkpt><trkpt lat="-30.76813086318994" lon="115.49102789794728"><ele>84.0</ele><time>2026-04-12T08:24:37.001Z</time></trkpt><trkpt lat="-30.76812992365993" lon="115.49129800288675"><ele>84.5</ele><time>2026-04-12T08:24:38Z</time></trkpt><trkpt lat="-30.768132303863577" lon="115.49156745260505"><ele>85.0</ele><time>2026-04-12T08:24:39Z</time></trkpt><trkpt lat="-30.768137795825275" lon="115.49183429907536"><ele>86.0</ele><time>2026-04-12T08:24:40Z</time></trkpt><trkpt lat="-30.76814059787303" lon="115.4921047453055"><ele>87.0</ele><time>2026-04-12T08:24:41Z</time></trkpt><trkpt lat="-30.768137557961406" lon="115.49237690183747"><ele>87.0</ele><time>2026-04-12T08:24:42Z</time></trkpt><trkpt lat="-30.76812994193066" lon="115.49264584599314"><ele>87.0</ele><time>2026-04-12T08:24:43Z</time></trkpt><trkpt lat="-30.76812618611123" lon="115.49291316124008"><ele>87.0</ele><time>2026-04-12T08:24:44Z</time></trkpt><trkpt lat="-30.768130136084597" lon="115.49317714613126"><ele>87.0</ele><time>2026-04-12T08:24:45Z</time></trkpt><trkpt lat="-30.768134515754316" lon="115.49344378288129"><ele>87.0</ele><time>2026-04-12T08:24:46Z</time></trkpt><trkpt lat="-30.768133825270944" lon="115.49371409221239"><ele>87.0</ele><time>2026-04-12T08:24:47Z</time></trkpt><trkpt lat="-30.7681298255988" lon="115.49398417639947"><ele>86.0</ele><time>2026-04-12T08:24:48Z</time></trkpt><trkpt lat="-30.76813216356837" lon="115.4942573225516"><ele>85.0</ele><time>2026-04-12T08:24:49Z</time></trkpt><trkpt lat="-30.76813530123551" lon="115.49453487559582"><ele>85.5</ele><time>2026-04-12T08:24:50Z</time></trkpt><trkpt lat="-30.768135183577765" lon="115.49481717515906"><ele>86.0</ele><time>2026-04-12T08:24:51Z</time></trkpt><trkpt lat="-30.768131370155743" lon="115.49510085364075"><ele>86.0</ele><time>2026-04-12T08:24:52Z</time></trkpt><trkpt lat="-30.76812877715896" lon="115.49538705620233"><ele>86.0</ele><time>2026-04-12T08:24:53Z</time></trkpt><trkpt lat="-30.768133068054727" lon="115.49567244300715"><ele>86.5</ele><time>2026-04-12T08:24:54Z</time></trkpt><trkpt lat="-30.768136718400935" lon="115.4959638927654"><ele>87.0</ele><time>2026-04-12T08:24:55Z</time></trkpt><trkpt lat="-30.76813802919997" lon="115.49626011505683"><ele>88.0</ele><time>2026-04-12T08:24:56Z</time></trkpt><trkpt lat="-30.76813772458698" lon="115.49656564356407"><ele>89.0</ele><time>2026-04-12T08:24:57Z</time></trkpt><trkpt lat="-30.768136786786243" lon="115.496874710982"><ele>88.5</ele><time>2026-04-12T08:24:58Z</time></trkpt><trkpt lat="-30.768133489282313" lon="115.497185527976"><ele>88.0</ele><time>2026-04-12T08:24:59Z</time></trkpt><trkpt lat="-30.76813257782586" lon="115.49749649666681"><ele>88.0</ele><time>2026-04-12T08:25:00Z</time></trkpt><trkpt lat="-30.768134166922312" lon="115.49780886001008"><ele>88.0</ele><time>2026-04-12T08:25:01Z</time></trkpt><trkpt lat="-30.768133748452215" lon="115.4981239063177"><ele>88.5</ele><time>2026-04-12T08:25:02Z</time></trkpt><trkpt lat="-30.76812985736564" lon="115.49844052971461"><ele>89.0</ele><time>2026-04-12T08:25:03Z</time></trkpt><trkpt lat="-30.768124271025368" lon="115.49875982562395"><ele>89.0</ele><time>2026-04-12T08:25:04Z</time></trkpt><trkpt lat="-30.768118924454257" lon="115.49908165085888"><ele>89.0</ele><time>2026-04-12T08:25:05Z</time></trkpt><trkpt lat="-30.76811619955232" lon="115.49939722691833"><ele>88.5</ele><time>2026-04-12T08:25:06Z</time></trkpt><trkpt lat="-30.768110509224854" lon="115.49970334945294"><ele>88.0</ele><time>2026-04-12T08:25:07Z</time></trkpt><trkpt lat="-30.768104044409256" lon="115.50000354605605"><ele>88.0</ele><time>2026-04-12T08:25:08Z</time></trkpt><trkpt lat="-30.76810075045698" lon="115.50028507282605"><ele>88.0</ele><time>2026-04-12T08:25:09Z</time></trkpt><trkpt lat="-30.768101935913975" lon="115.50057133693355"><ele>88.0</ele><time>2026-04-12T08:25:10Z</time></trkpt><trkpt lat="-30.768111812037983" lon="115.50086645565678"><ele>88.0</ele><time>2026-04-12T08:25:11Z</time></trkpt><trkpt lat="-30.768137988244096" lon="115.50116080036805"><ele>89.0</ele><time>2026-04-12T08:25:12Z</time></trkpt><trkpt lat="-30.768180335519478" lon="115.50144815629947"><ele>90.0</ele><time>2026-04-12T08:25:13Z</time></trkpt><trkpt lat="-30.76824818786541" lon="115.50172005635983"><ele>90.0</ele><time>2026-04-12T08:25:14Z</time></trkpt><trkpt lat="-30.768342753887477" lon="115.50198876688614"><ele>90.0</ele><time>2026-04-12T08:25:15Z</time></trkpt><trkpt lat="-30.768458865602604" lon="115.50225915157047"><ele>90.5</ele><time>2026-04-12T08:25:16Z</time></trkpt><trkpt lat="-30.768590252519697" lon="115.50252884238583"><ele>91.0</ele><time>2026-04-12T08:25:17Z</time></trkpt><trkpt lat="-30.768732631007296" lon="115.5027888351718"><ele>93.0</ele><time>2026-04-12T08:25:18Z</time></trkpt><trkpt lat="-30.76888520895588" lon="115.50303820809863"><ele>95.0</ele><time>2026-04-12T08:25:19Z</time></trkpt><trkpt lat="-30.769052923868568" lon="115.50327479079561"><ele>95.0</ele><time>2026-04-12T08:25:20Z</time></trkpt><trkpt lat="-30.76923515999551" lon="115.50349825661965"><ele>95.0</ele><time>2026-04-12T08:25:21Z</time></trkpt><trkpt lat="-30.76942715913345" lon="115.5037185943979"><ele>93.0</ele><time>2026-04-12T08:25:22Z</time></trkpt><trkpt lat="-30.769620113999405" lon="115.50394279096113"><ele>91.0</ele><time>2026-04-12T08:25:23Z</time></trkpt><trkpt lat="-30.769806434499085" lon="115.5041702818277"><ele>91.0</ele><time>2026-04-12T08:25:24Z</time></trkpt><trkpt lat="-30.769984498011254" lon="115.5043966174842"><ele>91.0</ele><time>2026-04-12T08:25:25Z</time></trkpt><trkpt lat="-30.770155910363428" lon="115.50461790532039"><ele>91.5</ele><time>2026-04-12T08:25:26Z</time></trkpt><trkpt lat="-30.770328120272662" lon="115.50483994326875"><ele>92.0</ele><time>2026-04-12T08:25:27Z</time></trkpt><trkpt lat="-30.77050052802834" lon="115.50506587713932"><ele>92.0</ele><time>2026-04-12T08:25:28Z</time></trkpt><trkpt lat="-30.770661455203395" lon="115.5053007237354"><ele>92.0</ele><time>2026-04-12T08:25:29Z</time></trkpt><trkpt lat="-30.770808593060323" lon="115.50554897901593"><ele>91.0</ele><time>2026-04-12T08:25:30Z</time></trkpt><trkpt lat="-30.770936141649578" lon="115.50581306259384"><ele>90.0</ele><time>2026-04-12T08:25:31Z</time></trkpt><trkpt lat="-30.771047825049088" lon="115.50609766589238"><ele>89.5</ele><time>2026-04-12T08:25:32Z</time></trkpt><trkpt lat="-30.77114012365691" lon="115.50639425198182"><ele>89.0</ele><time>2026-04-12T08:25:33Z</time></trkpt><trkpt lat="-30.771211388736724" lon="115.50670099861452"><ele>89.0</ele><time>2026-04-12T08:25:34Z</time></trkpt><trkpt lat="-30.771259049581385" lon="115.50701108634807"><ele>89.0</ele><time>2026-04-12T08:25:35Z</time></trkpt><trkpt lat="-30.771291574856885" lon="115.50732677090926"><ele>89.0</ele><time>2026-04-12T08:25:36Z</time></trkpt><trkpt lat="-30.771313269395044" lon="115.50764669313962"><ele>89.0</ele><time>2026-04-12T08:25:37Z</time></trkpt><trkpt lat="-30.771320993996152" lon="115.50796744150989"><ele>89.5</ele><time>2026-04-12T08:25:38Z</time></trkpt><trkpt lat="-30.771318663217876" lon="115.50829202199276"><ele>90.0</ele><time>2026-04-12T08:25:39Z</time></trkpt><trkpt lat="-30.77131616288956" lon="115.50861857324912"><ele>90.0</ele><time>2026-04-12T08:25:40Z</time></trkpt><trkpt lat="-30.771319426496905" lon="115.50894821629538"><ele>90.0</ele><time>2026-04-12T08:25:41Z</time></trkpt><trkpt lat="-30.77132222941009" lon="115.50927750497"><ele>89.0</ele><time>2026-04-12T08:25:42Z</time></trkpt><trkpt lat="-30.771326498653377" lon="115.5096101467557"><ele>88.0</ele><time>2026-04-12T08:25:43Z</time></trkpt><trkpt lat="-30.771329376644562" lon="115.50994385589037"><ele>88.0</ele><time>2026-04-12T08:25:44Z</time></trkpt><trkpt lat="-30.77133226290278" lon="115.51027585280384"><ele>88.0</ele><time>2026-04-12T08:25:45Z</time></trkpt><trkpt lat="-30.771335590479996" lon="115.51060614195104"><ele>90.0</ele><time>2026-04-12T08:25:46Z</time></trkpt><trkpt lat="-30.771336215943496" lon="115.51093570028415"><ele>92.0</ele><time>2026-04-12T08:25:47Z</time></trkpt><trkpt lat="-30.77133725898059" lon="115.51126147511496"><ele>92.0</ele><time>2026-04-12T08:25:48Z</time></trkpt><trkpt lat="-30.771336950389347" lon="115.51158455652933"><ele>92.0</ele><time>2026-04-12T08:25:49Z</time></trkpt><trkpt lat="-30.771336891280818" lon="115.51190153471913"><ele>90.0</ele><time>2026-04-12T08:25:50Z</time></trkpt><trkpt lat="-30.771336811229336" lon="115.51221746717904"><ele>88.0</ele><time>2026-04-12T08:25:51Z</time></trkpt><trkpt lat="-30.77133515361938" lon="115.51253114290016"><ele>88.0</ele><time>2026-04-12T08:25:52Z</time></trkpt><trkpt lat="-30.771331526254308" lon="115.5128403254603"><ele>88.0</ele><time>2026-04-12T08:25:53Z</time></trkpt><trkpt lat="-30.771330205818" lon="115.51314588967878"><ele>89.5</ele><time>2026-04-12T08:25:54Z</time></trkpt><trkpt lat="-30.771329364298726" lon="115.51344801841954"><ele>91.0</ele><time>2026-04-12T08:25:55Z</time></trkpt><trkpt lat="-30.771330515351764" lon="115.51374631310945"><ele>91.0</ele><time>2026-04-12T08:25:56Z</time></trkpt><trkpt lat="-30.771333034508388" lon="115.51404287903483"><ele>91.0</ele><time>2026-04-12T08:25:57Z</time></trkpt><trkpt lat="-30.771334324325476" lon="115.5143374084577"><ele>90.0</ele><time>2026-04-12T08:25:58Z</time></trkpt><trkpt lat="-30.77133361088246" lon="115.51463568428227"><ele>89.0</ele><time>2026-04-12T08:25:59Z</time></trkpt><trkpt lat="-30.771334796368855" lon="115.51492982608158"><ele>89.0</ele><time>2026-04-12T08:26:00Z</time></trkpt><trkpt lat="-30.771332892772076" lon="115.51522414705123"><ele>89.0</ele><time>2026-04-12T08:26:01Z</time></trkpt><trkpt lat="-30.771330582643653" lon="115.51551385502951"><ele>90.0</ele><time>2026-04-12T08:26:02Z</time></trkpt><trkpt lat="-30.7713296885549" lon="115.51580297789505"><ele>91.0</ele><time>2026-04-12T08:26:03Z</time></trkpt><trkpt lat="-30.771331649751726" lon="115.51609203099098"><ele>92.5</ele><time>2026-04-12T08:26:04Z</time></trkpt><trkpt lat="-30.77133186327163" lon="115.5163790985553"><ele>94.0</ele><time>2026-04-12T08:26:05Z</time></trkpt><trkpt lat="-30.77133128386066" lon="115.51666442102768"><ele>94.0</ele><time>2026-04-12T08:26:06Z</time></trkpt><trkpt lat="-30.771332204515538" lon="115.51694824592953"><ele>94.0</ele><time>2026-04-12T08:26:07Z</time></trkpt><trkpt lat="-30.77133313825002" lon="115.5172282662855"><ele>94.0</ele><time>2026-04-12T08:26:08Z</time></trkpt><trkpt lat="-30.771329053743003" lon="115.5175088822855"><ele>94.0</ele><time>2026-04-12T08:26:09Z</time></trkpt><trkpt lat="-30.771325391290326" lon="115.51778414245861"><ele>92.5</ele><time>2026-04-12T08:26:10Z</time></trkpt><trkpt lat="-30.771325560525383" lon="115.51806130907664"><ele>91.0</ele><time>2026-04-12T08:26:11Z</time></trkpt><trkpt lat="-30.77133053954572" lon="115.51834395448327"><ele>91.0</ele><time>2026-04-12T08:26:12Z</time></trkpt><trkpt lat="-30.771336412539974" lon="115.5186275410511"><ele>91.0</ele><time>2026-04-12T08:26:13Z</time></trkpt><trkpt lat="-30.77133830652885" lon="115.51891206290887"><ele>92.5</ele><time>2026-04-12T08:26:14Z</time></trkpt><trkpt lat="-30.771338505751995" lon="115.51920189542457"><ele>94.0</ele><time>2026-04-12T08:26:15Z</time></trkpt><trkpt lat="-30.77134100870697" lon="115.51949320291773"><ele>94.0</ele><time>2026-04-12T08:26:16Z</time></trkpt><trkpt lat="-30.77133979510707" lon="115.51979203079993"><ele>94.0</ele><time>2026-04-12T08:26:17Z</time></trkpt><trkpt lat="-30.771337187146866" lon="115.52010068736695"><ele>96.5</ele><time>2026-04-12T08:26:18Z</time></trkpt><trkpt lat="-30.771333677401397" lon="115.52041595586562"><ele>99.0</ele><time>2026-04-12T08:26:19Z</time></trkpt><trkpt lat="-30.771333700428663" lon="115.52073379893942"><ele>99.0</ele><time>2026-04-12T08:26:20Z</time></trkpt><trkpt lat="-30.771336320595672" lon="115.52104080455378"><ele>99.0</ele><time>2026-04-12T08:26:21Z</time></trkpt><trkpt lat="-30.771338295953893" lon="115.52133470111495"><ele>98.5</ele><time>2026-04-12T08:26:22Z</time></trkpt><trkpt lat="-30.771334767549504" lon="115.52163118519707"><ele>98.0</ele><time>2026-04-12T08:26:23Z</time></trkpt><trkpt lat="-30.771333667683084" lon="115.52193054146444"><ele>99.0</ele><time>2026-04-12T08:26:24Z</time></trkpt><trkpt lat="-30.77133433460845" lon="115.52223292623107"><ele>100.0</ele><time>2026-04-12T08:26:25Z</time></trkpt><trkpt lat="-30.7713346619679" lon="115.52253790815988"><ele>100.0</ele><time>2026-04-12T08:26:26Z</time></trkpt><trkpt lat="-30.771335580557288" lon="115.52284423911291"><ele>100.0</ele><time>2026-04-12T08:26:27Z</time></trkpt><trkpt lat="-30.771336703749437" lon="115.52315206212035"><ele>100.5</ele><time>2026-04-12T08:26:28Z</time></trkpt><trkpt lat="-30.771338208294996" lon="115.52345996642747"><ele>101.0</ele><time>2026-04-12T08:26:29Z</time></trkpt><trkpt lat="-30.77134032775721" lon="115.52376110092152"><ele>102.5</ele><time>2026-04-12T08:26:30Z</time></trkpt><trkpt lat="-30.77134305720489" lon="115.52404802538801"><ele>104.0</ele><time>2026-04-12T08:26:31Z</time></trkpt><trkpt lat="-30.771350516282745" lon="115.52433263953809"><ele>102.0</ele><time>2026-04-12T08:26:32Z</time></trkpt><trkpt lat="-30.771370127332638" lon="115.5246181496809"><ele>100.0</ele><time>2026-04-12T08:26:33Z</time></trkpt><trkpt lat="-30.771404891838486" lon="115.52490542060013"><ele>100.0</ele><time>2026-04-12T08:26:34Z</time></trkpt><trkpt lat="-30.771453642679955" lon="115.52519535318271"><ele>100.0</ele><time>2026-04-12T08:26:35Z</time></trkpt><trkpt lat="-30.771513097788315" lon="115.52548548826634"><ele>99.0</ele><time>2026-04-12T08:26:36Z</time></trkpt><trkpt lat="-30.771583210189124" lon="115.52577502712458"><ele>98.0</ele><time>2026-04-12T08:26:37Z</time></trkpt><trkpt lat="-30.771663935496306" lon="115.52605809906194"><ele>98.0</ele><time>2026-04-12T08:26:38Z</time></trkpt><trkpt lat="-30.771756023666207" lon="115.52633736820155"><ele>98.0</ele><time>2026-04-12T08:26:39Z</time></trkpt><trkpt lat="-30.771859379164766" lon="115.52661460332742"><ele>98.0</ele><time>2026-04-12T08:26:40Z</time></trkpt><trkpt lat="-30.771974637530864" lon="115.52689640569983"><ele>98.0</ele><time>2026-04-12T08:26:41Z</time></trkpt><trkpt lat="-30.77209719310941" lon="115.5271762167546"><ele>100.5</ele><time>2026-04-12T08:26:42Z</time></trkpt><trkpt lat="-30.7722228072473" lon="115.52745140828229"><ele>103.0</ele><time>2026-04-12T08:26:43Z</time></trkpt><trkpt lat="-30.7723469536449" lon="115.52772546556552"><ele>103.0</ele><time>2026-04-12T08:26:44Z</time></trkpt><trkpt lat="-30.77246858817792" lon="115.52799836622037"><ele>103.0</ele><time>2026-04-12T08:26:45Z</time></trkpt><trkpt lat="-30.772587615323843" lon="115.52826877824363"><ele>103.0</ele><time>2026-04-12T08:26:46Z</time></trkpt><trkpt lat="-30.772704348577566" lon="115.52853250778999"><ele>103.0</ele><time>2026-04-12T08:26:47Z</time></trkpt><trkpt lat="-30.772819750344624" lon="115.52879471747879"><ele>104.5</ele><time>2026-04-12T08:26:48Z</time></trkpt><trkpt lat="-30.772937762808795" lon="115.52905757063247"><ele>106.0</ele><time>2026-04-12T08:26:49Z</time></trkpt><trkpt lat="-30.773057884368402" lon="115.52932798978131"><ele>106.5</ele><time>2026-04-12T08:26:50Z</time></trkpt><trkpt lat="-30.77317965760763" lon="115.5296003988837"><ele>107.0</ele><time>2026-04-12T08:26:51Z</time></trkpt><trkpt lat="-30.773418893259123" lon="115.53013961923487"><ele>109.0</ele><time>2026-04-12T08:26:53Z</time></trkpt><trkpt lat="-30.77353680459874" lon="115.53039993733162"><ele>111.0</ele><time>2026-04-12T08:26:54Z</time></trkpt><trkpt lat="-30.7736441043199" lon="115.5306519467955"><ele>111.0</ele><time>2026-04-12T08:26:55Z</time></trkpt><trkpt lat="-30.773733457969765" lon="115.53089529554042"><ele>111.0</ele><time>2026-04-12T08:26:56Z</time></trkpt><trkpt lat="-30.773809790098177" lon="115.5311497882414"><ele>111.5</ele><time>2026-04-12T08:26:57Z</time></trkpt><trkpt lat="-30.773868337496758" lon="115.53141627613127"><ele>112.0</ele><time>2026-04-12T08:26:58Z</time></trkpt><trkpt lat="-30.77390787231722" lon="115.53170107324543"><ele>112.0</ele><time>2026-04-12T08:26:59Z</time></trkpt><trkpt lat="-30.773935035795418" lon="115.53200256201795"><ele>112.0</ele><time>2026-04-12T08:27:00Z</time></trkpt><trkpt lat="-30.773950544358776" lon="115.53231116320573"><ele>111.5</ele><time>2026-04-12T08:27:01Z</time></trkpt><trkpt lat="-30.773947660303598" lon="115.53261892417927"><ele>111.0</ele><time>2026-04-12T08:27:02Z</time></trkpt><trkpt lat="-30.773919099815153" lon="115.53293066284488"><ele>110.5</ele><time>2026-04-12T08:27:03Z</time></trkpt><trkpt lat="-30.773865983762633" lon="115.53323783400323"><ele>110.0</ele><time>2026-04-12T08:27:04Z</time></trkpt><trkpt lat="-30.77379270462537" lon="115.5335383905004"><ele>112.5</ele><time>2026-04-12T08:27:05Z</time></trkpt><trkpt lat="-30.773700413573746" lon="115.5338354813836"><ele>115.0</ele><time>2026-04-12T08:27:06Z</time></trkpt><trkpt lat="-30.77359092827613" lon="115.53412915619494"><ele>115.0</ele><time>2026-04-12T08:27:07Z</time></trkpt><trkpt lat="-30.773463673075568" lon="115.53441793613403"><ele>115.0</ele><time>2026-04-12T08:27:08Z</time></trkpt><trkpt lat="-30.773324428883175" lon="115.53470238880584"><ele>113.0</ele><time>2026-04-12T08:27:09Z</time></trkpt><trkpt lat="-30.773187178119702" lon="115.5349868162966"><ele>111.0</ele><time>2026-04-12T08:27:10Z</time></trkpt><trkpt lat="-30.773055593970895" lon="115.53527287611033"><ele>112.5</ele><time>2026-04-12T08:27:11Z</time></trkpt><trkpt lat="-30.772929756906148" lon="115.5355619594624"><ele>114.0</ele><time>2026-04-12T08:27:12Z</time></trkpt><trkpt lat="-30.77280408981258" lon="115.53585105274682"><ele>113.0</ele><time>2026-04-12T08:27:13Z</time></trkpt><trkpt lat="-30.772675657886175" lon="115.53613939449052"><ele>112.0</ele><time>2026-04-12T08:27:14Z</time></trkpt><trkpt lat="-30.77254748727152" lon="115.53642132528162"><ele>112.0</ele><time>2026-04-12T08:27:15Z</time></trkpt><trkpt lat="-30.77242192363159" lon="115.53669929077108"><ele>112.0</ele><time>2026-04-12T08:27:16Z</time></trkpt><trkpt lat="-30.772295768248846" lon="115.53697618587402"><ele>111.5</ele><time>2026-04-12T08:27:17Z</time></trkpt><trkpt lat="-30.772172278944506" lon="115.53724748225119"><ele>111.0</ele><time>2026-04-12T08:27:18Z</time></trkpt><trkpt lat="-30.772050331920774" lon="115.53751928288149"><ele>111.0</ele><time>2026-04-12T08:27:19Z</time></trkpt><trkpt lat="-30.771936126839762" lon="115.53778903301466"><ele>111.0</ele><time>2026-04-12T08:27:20Z</time></trkpt><trkpt lat="-30.771826698642652" lon="115.53805959066788"><ele>111.0</ele><time>2026-04-12T08:27:21Z</time></trkpt><trkpt lat="-30.771731381844653" lon="115.53833458413702"><ele>111.0</ele><time>2026-04-12T08:27:22Z</time></trkpt><trkpt lat="-30.77165142493308" lon="115.5386162794298"><ele>114.0</ele><time>2026-04-12T08:27:23Z</time></trkpt><trkpt lat="-30.771585466017093" lon="115.53890249572088"><ele>117.0</ele><time>2026-04-12T08:27:24Z</time></trkpt><trkpt lat="-30.77152601810145" lon="115.53917908778593"><ele>117.0</ele><time>2026-04-12T08:27:25Z</time></trkpt><trkpt lat="-30.771483078570437" lon="115.53943698830594"><ele>117.0</ele><time>2026-04-12T08:27:26Z</time></trkpt><trkpt lat="-30.77144930379404" lon="115.53967950225059"><ele>117.0</ele><time>2026-04-12T08:27:27Z</time></trkpt><trkpt lat="-30.771430353356827" lon="115.53990857223718"><ele>117.66666666666666</ele><time>2026-04-12T08:27:28Z</time></trkpt><trkpt lat="-30.771413987166486" lon="115.54014038127025"><ele>118.33333333333333</ele><time>2026-04-12T08:27:29Z</time></trkpt><trkpt lat="-30.77139654798117" lon="115.54037304773101"><ele>119.0</ele><time>2026-04-12T08:27:30Z</time></trkpt><trkpt lat="-30.77138522374598" lon="115.5406202549199"><ele>116.0</ele><time>2026-04-12T08:27:31Z</time></trkpt><trkpt lat="-30.771378374087767" lon="115.54088609752769"><ele>113.0</ele><time>2026-04-12T08:27:32Z</time></trkpt><trkpt lat="-30.77137815005574" lon="115.54116396209454"><ele>113.0</ele><time>2026-04-12T08:27:33Z</time></trkpt><trkpt lat="-30.771380147581937" lon="115.54144679643011"><ele>113.0</ele><time>2026-04-12T08:27:34Z</time></trkpt><trkpt lat="-30.771380738812077" lon="115.5417319179144"><ele>113.0</ele><time>2026-04-12T08:27:35Z</time></trkpt><trkpt lat="-30.771378043382782" lon="115.54202181841308"><ele>113.0</ele><time>2026-04-12T08:27:36Z</time></trkpt><trkpt lat="-30.771372802370944" lon="115.54231071025004"><ele>112.5</ele><time>2026-04-12T08:27:37Z</time></trkpt><trkpt lat="-30.771370323364263" lon="115.54259897928972"><ele>112.0</ele><time>2026-04-12T08:27:38Z</time></trkpt><trkpt lat="-30.77136940759562" lon="115.54288549913535"><ele>114.0</ele><time>2026-04-12T08:27:39Z</time></trkpt><trkpt lat="-30.771372057538137" lon="115.54317467749325"><ele>116.0</ele><time>2026-04-12T08:27:40Z</time></trkpt><trkpt lat="-30.771376484663687" lon="115.54346332406368"><ele>118.5</ele><time>2026-04-12T08:27:41Z</time></trkpt><trkpt lat="-30.77137665201536" lon="115.54375295208476"><ele>121.0</ele><time>2026-04-12T08:27:42Z</time></trkpt><trkpt lat="-30.771374634083283" lon="115.54404444057606"><ele>121.0</ele><time>2026-04-12T08:27:43Z</time></trkpt><trkpt lat="-30.771374743221898" lon="115.54433984007439"><ele>121.0</ele><time>2026-04-12T08:27:44Z</time></trkpt><trkpt lat="-30.77137660356468" lon="115.54463890243072"><ele>119.5</ele><time>2026-04-12T08:27:45Z</time></trkpt><trkpt lat="-30.771382203281217" lon="115.54493821506223"><ele>118.0</ele><time>2026-04-12T08:27:46Z</time></trkpt><trkpt lat="-30.771385410959688" lon="115.54523988515584"><ele>120.0</ele><time>2026-04-12T08:27:47Z</time></trkpt><trkpt lat="-30.771383395948153" lon="115.54554701034992"><ele>122.0</ele><time>2026-04-12T08:27:48Z</time></trkpt><trkpt lat="-30.77138184985305" lon="115.54585138997656"><ele>122.0</ele><time>2026-04-12T08:27:49Z</time></trkpt><trkpt lat="-30.771379951274398" lon="115.54615340326764"><ele>122.0</ele><time>2026-04-12T08:27:50Z</time></trkpt><trkpt lat="-30.771380849427782" lon="115.54645415304608"><ele>124.0</ele><time>2026-04-12T08:27:51Z</time></trkpt><trkpt lat="-30.77138349257929" lon="115.5467509666287"><ele>126.0</ele><time>2026-04-12T08:27:52Z</time></trkpt><trkpt lat="-30.771384112683513" lon="115.54704684537096"><ele>126.5</ele><time>2026-04-12T08:27:53Z</time></trkpt><trkpt lat="-30.77138139106847" lon="115.54734135004374"><ele>127.0</ele><time>2026-04-12T08:27:54Z</time></trkpt><trkpt lat="-30.771378736333737" lon="115.54763555642573"><ele>126.0</ele><time>2026-04-12T08:27:55Z</time></trkpt><trkpt lat="-30.771377739216543" lon="115.54793374628747"><ele>125.0</ele><time>2026-04-12T08:27:56Z</time></trkpt><trkpt lat="-30.771377442398293" lon="115.54823444698697"><ele>125.0</ele><time>2026-04-12T08:27:57Z</time></trkpt><trkpt lat="-30.771381253595088" lon="115.54853510569426"><ele>125.0</ele><time>2026-04-12T08:27:58Z</time></trkpt><trkpt lat="-30.77138384837735" lon="115.5488333195111"><ele>122.5</ele><time>2026-04-12T08:27:59Z</time></trkpt><trkpt lat="-30.771385582645138" lon="115.54912406919715"><ele>120.0</ele><time>2026-04-12T08:28:00Z</time></trkpt><trkpt lat="-30.771385298409864" lon="115.54940699205495"><ele>119.0</ele><time>2026-04-12T08:28:01Z</time></trkpt><trkpt lat="-30.771381527563552" lon="115.54968324285825"><ele>118.0</ele><time>2026-04-12T08:28:02Z</time></trkpt><trkpt lat="-30.771380058381492" lon="115.54995367023147"><ele>118.0</ele><time>2026-04-12T08:28:03Z</time></trkpt><trkpt lat="-30.77137957923512" lon="115.55022277581024"><ele>118.0</ele><time>2026-04-12T08:28:04Z</time></trkpt><trkpt lat="-30.77137948185313" lon="115.55048654626925"><ele>119.0</ele><time>2026-04-12T08:28:05Z</time></trkpt><trkpt lat="-30.77138001622345" lon="115.5507152667865"><ele>120.0</ele><time>2026-04-12T08:28:06Z</time></trkpt><trkpt lat="-30.771380100926066" lon="115.55089093833017"><ele>121.0</ele><time>2026-04-12T08:28:07Z</time></trkpt><trkpt lat="-30.771380346813828" lon="115.55103677822026"><ele>121.0</ele><time>2026-04-12T08:28:08Z</time></trkpt><trkpt lat="-30.771382871858467" lon="115.551184655753"><ele>121.0</ele><time>2026-04-12T08:28:09Z</time></trkpt><trkpt lat="-30.771384316101344" lon="115.55134713473569"><ele>121.0</ele><time>2026-04-12T08:28:10Z</time></trkpt><trkpt lat="-30.771383550607975" lon="115.55152772921981"><ele>121.0</ele><time>2026-04-12T08:28:11Z</time></trkpt><trkpt lat="-30.77137997191009" lon="115.55173198864712"><ele>120.66666666666667</ele><time>2026-04-12T08:28:12Z</time></trkpt><trkpt lat="-30.771378993636556" lon="115.551949295792"><ele>120.33333333333334</ele><time>2026-04-12T08:28:13Z</time></trkpt><trkpt lat="-30.771381926312184" lon="115.55218070545307"><ele>120.0</ele><time>2026-04-12T08:28:14Z</time></trkpt><trkpt lat="-30.77138415824539" lon="115.55241850209973"><ele>119.66666666666666</ele><time>2026-04-12T08:28:15Z</time></trkpt><trkpt lat="-30.771382655752376" lon="115.55266762975738"><ele>119.33333333333333</ele><time>2026-04-12T08:28:16Z</time></trkpt><trkpt lat="-30.771380445552886" lon="115.55292056220014"><ele>119.0</ele><time>2026-04-12T08:28:17Z</time></trkpt><trkpt lat="-30.77138046036178" lon="115.55317720777649"><ele>120.0</ele><time>2026-04-12T08:28:18Z</time></trkpt><trkpt lat="-30.771379483622233" lon="115.55369096601765"><ele>121.0</ele><time>2026-04-12T08:28:20Z</time></trkpt><trkpt lat="-30.771376991590905" lon="115.55395055544354"><ele>121.0</ele><time>2026-04-12T08:28:21Z</time></trkpt><trkpt lat="-30.771376843837903" lon="115.55421654110513"><ele>121.0</ele><time>2026-04-12T08:28:22Z</time></trkpt><trkpt lat="-30.77137791400895" lon="115.55448221837632"><ele>122.5</ele><time>2026-04-12T08:28:23Z</time></trkpt><trkpt lat="-30.77138104053672" lon="115.55474801406058"><ele>124.0</ele><time>2026-04-12T08:28:24Z</time></trkpt><trkpt lat="-30.7713829131741" lon="115.55502266408452"><ele>124.0</ele><time>2026-04-12T08:28:25Z</time></trkpt><trkpt lat="-30.77138050050881" lon="115.55529418408504"><ele>124.0</ele><time>2026-04-12T08:28:26Z</time></trkpt><trkpt lat="-30.77137625063946" lon="115.55556586638993"><ele>125.0</ele><time>2026-04-12T08:28:27Z</time></trkpt><trkpt lat="-30.771372768919353" lon="115.55583315743058"><ele>126.0</ele><time>2026-04-12T08:28:28Z</time></trkpt><trkpt lat="-30.77136889167143" lon="115.55609741541306"><ele>126.5</ele><time>2026-04-12T08:28:29Z</time></trkpt><trkpt lat="-30.77136800843257" lon="115.55636147828191"><ele>127.0</ele><time>2026-04-12T08:28:30Z</time></trkpt><trkpt lat="-30.77137000964692" lon="115.55663273568491"><ele>127.0</ele><time>2026-04-12T08:28:31Z</time></trkpt><trkpt lat="-30.77137597456092" lon="115.55690925507291"><ele>127.0</ele><time>2026-04-12T08:28:32Z</time></trkpt><trkpt lat="-30.771378241636025" lon="115.55718623326192"><ele>127.5</ele><time>2026-04-12T08:28:33Z</time></trkpt><trkpt lat="-30.771377061212306" lon="115.55746008788739"><ele>128.0</ele><time>2026-04-12T08:28:34Z</time></trkpt><trkpt lat="-30.77137314702821" lon="115.55773908708774"><ele>128.0</ele><time>2026-04-12T08:28:35Z</time></trkpt><trkpt lat="-30.77136793454756" lon="115.55802399997975"><ele>128.0</ele><time>2026-04-12T08:28:36Z</time></trkpt><trkpt lat="-30.771366187568002" lon="115.55831393991883"><ele>128.0</ele><time>2026-04-12T08:28:37Z</time></trkpt><trkpt lat="-30.771367580202103" lon="115.55860498516884"><ele>128.0</ele><time>2026-04-12T08:28:38Z</time></trkpt><trkpt lat="-30.771371977941072" lon="115.55889732255692"><ele>129.5</ele><time>2026-04-12T08:28:39Z</time></trkpt><trkpt lat="-30.771375940568426" lon="115.55919457258608"><ele>131.0</ele><time>2026-04-12T08:28:40Z</time></trkpt><trkpt lat="-30.771376136396963" lon="115.55950067939989"><ele>129.5</ele><time>2026-04-12T08:28:41Z</time></trkpt><trkpt lat="-30.771371544493" lon="115.55980201724391"><ele>128.0</ele><time>2026-04-12T08:28:42Z</time></trkpt><trkpt lat="-30.771367638076722" lon="115.560097347728"><ele>128.0</ele><time>2026-04-12T08:28:43Z</time></trkpt><trkpt lat="-30.77136806958465" lon="115.56039102234902"><ele>128.0</ele><time>2026-04-12T08:28:44Z</time></trkpt><trkpt lat="-30.77136801405801" lon="115.56068274494505"><ele>128.0</ele><time>2026-04-12T08:28:45Z</time></trkpt><trkpt lat="-30.771368591144796" lon="115.56097525391816"><ele>128.0</ele><time>2026-04-12T08:28:46Z</time></trkpt><trkpt lat="-30.771368486287844" lon="115.56126662534919"><ele>130.0</ele><time>2026-04-12T08:28:47Z</time></trkpt><trkpt lat="-30.771367377167245" lon="115.56156347125238"><ele>132.0</ele><time>2026-04-12T08:28:48Z</time></trkpt><trkpt lat="-30.77136379516859" lon="115.56186622135641"><ele>133.0</ele><time>2026-04-12T08:28:49Z</time></trkpt><trkpt lat="-30.771362220324196" lon="115.5621712784569"><ele>134.0</ele><time>2026-04-12T08:28:50Z</time></trkpt><trkpt lat="-30.771362764768355" lon="115.56247160259123"><ele>134.0</ele><time>2026-04-12T08:28:51Z</time></trkpt><trkpt lat="-30.771364182597235" lon="115.56276543221836"><ele>134.0</ele><time>2026-04-12T08:28:52Z</time></trkpt><trkpt lat="-30.771365703167547" lon="115.56305327161009"><ele>134.5</ele><time>2026-04-12T08:28:53Z</time></trkpt><trkpt lat="-30.771366687758984" lon="115.56333153395028"><ele>135.0</ele><time>2026-04-12T08:28:54Z</time></trkpt><trkpt lat="-30.77136684090506" lon="115.5636039011595"><ele>136.0</ele><time>2026-04-12T08:28:55Z</time></trkpt><trkpt lat="-30.77136612110334" lon="115.56388278891595"><ele>137.0</ele><time>2026-04-12T08:28:56Z</time></trkpt><trkpt lat="-30.771365191186938" lon="115.56416059490647"><ele>137.0</ele><time>2026-04-12T08:28:57Z</time></trkpt><trkpt lat="-30.771369035540072" lon="115.56443439290358"><ele>137.0</ele><time>2026-04-12T08:28:58Z</time></trkpt><trkpt lat="-30.771385531086032" lon="115.56470481427743"><ele>137.33333333333331</ele><time>2026-04-12T08:28:59Z</time></trkpt><trkpt lat="-30.771410864954635" lon="115.56496023996644"><ele>137.66666666666666</ele><time>2026-04-12T08:29:00Z</time></trkpt><trkpt lat="-30.771445535131235" lon="115.56519763291192"><ele>138.0</ele><time>2026-04-12T08:29:01Z</time></trkpt><trkpt lat="-30.771484376363855" lon="115.56541746100108"><ele>138.33333333333334</ele><time>2026-04-12T08:29:02Z</time></trkpt><trkpt lat="-30.771520838849632" lon="115.56561529205723"><ele>138.66666666666669</ele><time>2026-04-12T08:29:03Z</time></trkpt><trkpt lat="-30.771552534095402" lon="115.56579177664725"><ele>139.0</ele><time>2026-04-12T08:29:04Z</time></trkpt><trkpt lat="-30.771574393385745" lon="115.56594979109369"><ele>139.0</ele><time>2026-04-12T08:29:05Z</time></trkpt><trkpt lat="-30.771578304691317" lon="115.56609088680506"><ele>139.0</ele><time>2026-04-12T08:29:06Z</time></trkpt><trkpt lat="-30.77155993478548" lon="115.56621251647452"><ele>139.0</ele><time>2026-04-12T08:29:07Z</time></trkpt><trkpt lat="-30.771519027880895" lon="115.56630613589934"><ele>139.0</ele><time>2026-04-12T08:29:08Z</time></trkpt><trkpt lat="-30.77145895211756" lon="115.56637083478532"><ele>139.0</ele><time>2026-04-12T08:29:09Z</time></trkpt><trkpt lat="-30.77138739750745" lon="115.56640138037308"><ele>139.2</ele><time>2026-04-12T08:29:10Z</time></trkpt><trkpt lat="-30.771312396844273" lon="115.56638987374703"><ele>139.4</ele><time>2026-04-12T08:29:11Z</time></trkpt><trkpt lat="-30.771235671762394" lon="115.56634252696799"><ele>139.6</ele><time>2026-04-12T08:29:12Z</time></trkpt><trkpt lat="-30.771142718363706" lon="115.56627292890573"><ele>139.8</ele><time>2026-04-12T08:29:13Z</time></trkpt><trkpt lat="-30.77103536228183" lon="115.5662121856954"><ele>140.0</ele><time>2026-04-12T08:29:14Z</time></trkpt><trkpt lat="-30.770904957309334" lon="115.5661367778517"><ele>139.33333333333331</ele><time>2026-04-12T08:29:15Z</time></trkpt><trkpt lat="-30.770753328626302" lon="115.56604791791534"><ele>138.66666666666666</ele><time>2026-04-12T08:29:16Z</time></trkpt><trkpt lat="-30.77060040018568" lon="115.56595729638917"><ele>138.0</ele><time>2026-04-12T08:29:17Z</time></trkpt><trkpt lat="-30.770427673509996" lon="115.56585652151136"><ele>138.0</ele><time>2026-04-12T08:29:18Z</time></trkpt><trkpt lat="-30.770245195335498" lon="115.5657494667978"><ele>138.0</ele><time>2026-04-12T08:29:19Z</time></trkpt><trkpt lat="-30.770042134768875" lon="115.56562975321395"><ele>138.0</ele><time>2026-04-12T08:29:20Z</time></trkpt><trkpt lat="-30.769833296606006" lon="115.56550607395012"><ele>138.0</ele><time>2026-04-12T08:29:21Z</time></trkpt><trkpt lat="-30.769617464827157" lon="115.56537877737762"><ele>138.0</ele><time>2026-04-12T08:29:22Z</time></trkpt><trkpt lat="-30.769395081249897" lon="115.56525050308463"><ele>137.5</ele><time>2026-04-12T08:29:23Z</time></trkpt><trkpt lat="-30.769161425606068" lon="115.56511470023973"><ele>137.0</ele><time>2026-04-12T08:29:24Z</time></trkpt><trkpt lat="-30.768933888654743" lon="115.56498259065025"><ele>137.0</ele><time>2026-04-12T08:29:25Z</time></trkpt><trkpt lat="-30.76870738756856" lon="115.56485081043014"><ele>137.0</ele><time>2026-04-12T08:29:26Z</time></trkpt><trkpt lat="-30.768478335852866" lon="115.56471358693287"><ele>137.5</ele><time>2026-04-12T08:29:27Z</time></trkpt><trkpt lat="-30.76824758930185" lon="115.5645775486475"><ele>138.0</ele><time>2026-04-12T08:29:28Z</time></trkpt><trkpt lat="-30.768013493119096" lon="115.56444199742204"><ele>138.0</ele><time>2026-04-12T08:29:29Z</time></trkpt><trkpt lat="-30.767777728411506" lon="115.56430536860739"><ele>138.0</ele><time>2026-04-12T08:29:30Z</time></trkpt><trkpt lat="-30.767539041187028" lon="115.56416407622028"><ele>139.0</ele><time>2026-04-12T08:29:31Z</time></trkpt><trkpt lat="-30.767297331248116" lon="115.56402555137915"><ele>140.0</ele><time>2026-04-12T08:29:32Z</time></trkpt><trkpt lat="-30.767055525440615" lon="115.56388740557045"><ele>139.5</ele><time>2026-04-12T08:29:33Z</time></trkpt><trkpt lat="-30.766812331799112" lon="115.56374350118324"><ele>139.0</ele><time>2026-04-12T08:29:34Z</time></trkpt><trkpt lat="-30.766565515342265" lon="115.5635984936724"><ele>138.5</ele><time>2026-04-12T08:29:35Z</time></trkpt><trkpt lat="-30.766318435435235" lon="115.56345175831858"><ele>138.0</ele><time>2026-04-12T08:29:36Z</time></trkpt><trkpt lat="-30.7660806671683" lon="115.5633163238243"><ele>138.0</ele><time>2026-04-12T08:29:37Z</time></trkpt><trkpt lat="-30.76584512388152" lon="115.56317926852117"><ele>138.0</ele><time>2026-04-12T08:29:38Z</time></trkpt><trkpt lat="-30.765607296416636" lon="115.56304096634314"><ele>138.0</ele><time>2026-04-12T08:29:39Z</time></trkpt><trkpt lat="-30.765369601151225" lon="115.5629003850653"><ele>138.0</ele><time>2026-04-12T08:29:40Z</time></trkpt><trkpt lat="-30.76513291412544" lon="115.5627625159499"><ele>137.0</ele><time>2026-04-12T08:29:41Z</time></trkpt><trkpt lat="-30.764895454077077" lon="115.56262550395941"><ele>136.0</ele><time>2026-04-12T08:29:42Z</time></trkpt><trkpt lat="-30.764656534814204" lon="115.56248709898473"><ele>136.0</ele><time>2026-04-12T08:29:43Z</time></trkpt><trkpt lat="-30.764419497598936" lon="115.56234791294713"><ele>136.0</ele><time>2026-04-12T08:29:44Z</time></trkpt><trkpt lat="-30.76418394322653" lon="115.56220768957517"><ele>137.0</ele><time>2026-04-12T08:29:45Z</time></trkpt><trkpt lat="-30.763947813331512" lon="115.56207032237897"><ele>138.0</ele><time>2026-04-12T08:29:46Z</time></trkpt><trkpt lat="-30.763711628477918" lon="115.5619330385716"><ele>140.0</ele><time>2026-04-12T08:29:47Z</time></trkpt><trkpt lat="-30.763474779056708" lon="115.56179633325311"><ele>142.0</ele><time>2026-04-12T08:29:48Z</time></trkpt><trkpt lat="-30.76323559214137" lon="115.56166118102414"><ele>142.0</ele><time>2026-04-12T08:29:49Z</time></trkpt><trkpt lat="-30.76299657626883" lon="115.56152385766136"><ele>142.0</ele><time>2026-04-12T08:29:50Z</time></trkpt><trkpt lat="-30.762753774013294" lon="115.56138438539311"><ele>142.0</ele><time>2026-04-12T08:29:51Z</time></trkpt><trkpt lat="-30.762510244883178" lon="115.56124209021652"><ele>142.0</ele><time>2026-04-12T08:29:52Z</time></trkpt><trkpt lat="-30.762266268407828" lon="115.56110160860867"><ele>141.5</ele><time>2026-04-12T08:29:53Z</time></trkpt><trkpt lat="-30.762017975533613" lon="115.56095916641758"><ele>141.0</ele><time>2026-04-12T08:29:54Z</time></trkpt><trkpt lat="-30.761770039544412" lon="115.56081463683655"><ele>141.0</ele><time>2026-04-12T08:29:55Z</time></trkpt><trkpt lat="-30.761521286550856" lon="115.5606715383572"><ele>141.0</ele><time>2026-04-12T08:29:56Z</time></trkpt><trkpt lat="-30.761270702140266" lon="115.56053307013032"><ele>140.5</ele><time>2026-04-12T08:29:57Z</time></trkpt><trkpt lat="-30.761016993236495" lon="115.5603973783437"><ele>140.0</ele><time>2026-04-12T08:29:58Z</time></trkpt><trkpt lat="-30.760765696790376" lon="115.56026150710441"><ele>137.5</ele><time>2026-04-12T08:29:59Z</time></trkpt><trkpt lat="-30.760519705870657" lon="115.56012510092958"><ele>135.0</ele><time>2026-04-12T08:30:00Z</time></trkpt><trkpt lat="-30.760275855535642" lon="115.55999052614054"><ele>136.5</ele><time>2026-04-12T08:30:01Z</time></trkpt><trkpt lat="-30.760031483470765" lon="115.55986226911986"><ele>138.0</ele><time>2026-04-12T08:30:02Z</time></trkpt><trkpt lat="-30.759783718468242" lon="115.5597429962013"><ele>138.0</ele><time>2026-04-12T08:30:03Z</time></trkpt><trkpt lat="-30.759532824612414" lon="115.5596319853346"><ele>138.0</ele><time>2026-04-12T08:30:04Z</time></trkpt><trkpt lat="-30.75927833010118" lon="115.55953518899139"><ele>138.5</ele><time>2026-04-12T08:30:05Z</time></trkpt><trkpt lat="-30.759020352038213" lon="115.55944445664714"><ele>139.0</ele><time>2026-04-12T08:30:06Z</time></trkpt><trkpt lat="-30.758761900265316" lon="115.55935983996419"><ele>140.5</ele><time>2026-04-12T08:30:07Z</time></trkpt><trkpt lat="-30.758505214918177" lon="115.5592849581591"><ele>142.0</ele><time>2026-04-12T08:30:08Z</time></trkpt><trkpt lat="-30.758248351136004" lon="115.55922395786612"><ele>142.0</ele><time>2026-04-12T08:30:09Z</time></trkpt><trkpt lat="-30.757986734485527" lon="115.55917306804594"><ele>142.0</ele><time>2026-04-12T08:30:10Z</time></trkpt><trkpt lat="-30.757724730495337" lon="115.55912889892625"><ele>142.5</ele><time>2026-04-12T08:30:11Z</time></trkpt><trkpt lat="-30.757462508389462" lon="115.5590924744773"><ele>143.0</ele><time>2026-04-12T08:30:12Z</time></trkpt><trkpt lat="-30.757200615994815" lon="115.55906929259947"><ele>143.0</ele><time>2026-04-12T08:30:13Z</time></trkpt><trkpt lat="-30.75693727772895" lon="115.55905960986699"><ele>143.0</ele><time>2026-04-12T08:30:14Z</time></trkpt><trkpt lat="-30.75667211936738" lon="115.55905851271483"><ele>143.5</ele><time>2026-04-12T08:30:15Z</time></trkpt><trkpt lat="-30.756403053870113" lon="115.55906011191536"><ele>144.0</ele><time>2026-04-12T08:30:16Z</time></trkpt><trkpt lat="-30.756135341834113" lon="115.55906538794964"><ele>144.5</ele><time>2026-04-12T08:30:17Z</time></trkpt><trkpt lat="-30.75586574530525" lon="115.55907579496888"><ele>145.0</ele><time>2026-04-12T08:30:18Z</time></trkpt><trkpt lat="-30.755597572802838" lon="115.5590840260461"><ele>145.0</ele><time>2026-04-12T08:30:19Z</time></trkpt><trkpt lat="-30.755326005895647" lon="115.55909249201011"><ele>145.0</ele><time>2026-04-12T08:30:20Z</time></trkpt><trkpt lat="-30.75505606233213" lon="115.55909982508824"><ele>147.0</ele><time>2026-04-12T08:30:21Z</time></trkpt><trkpt lat="-30.75478707118722" lon="115.55910152862673"><ele>149.0</ele><time>2026-04-12T08:30:22Z</time></trkpt><trkpt lat="-30.754517500798272" lon="115.55910498090154"><ele>149.5</ele><time>2026-04-12T08:30:23Z</time></trkpt><trkpt lat="-30.754248722874756" lon="115.55911377038746"><ele>150.0</ele><time>2026-04-12T08:30:24Z</time></trkpt><trkpt lat="-30.753978864662585" lon="115.55912189545397"><ele>150.0</ele><time>2026-04-12T08:30:25Z</time></trkpt><trkpt lat="-30.75371223422904" lon="115.55912946732678"><ele>150.0</ele><time>2026-04-12T08:30:26Z</time></trkpt><trkpt lat="-30.753444929975117" lon="115.55913509734391"><ele>152.0</ele><time>2026-04-12T08:30:27Z</time></trkpt><trkpt lat="-30.7531786595632" lon="115.55913904741129"><ele>154.0</ele><time>2026-04-12T08:30:28Z</time></trkpt><trkpt lat="-30.752912546320857" lon="115.5591397465705"><ele>154.5</ele><time>2026-04-12T08:30:29Z</time></trkpt><trkpt lat="-30.75264678188526" lon="115.55914200535884"><ele>155.0</ele><time>2026-04-12T08:30:30Z</time></trkpt><trkpt lat="-30.752382352608656" lon="115.5591428786669"><ele>155.0</ele><time>2026-04-12T08:30:31Z</time></trkpt><trkpt lat="-30.75212012178141" lon="115.55913565322275"><ele>155.0</ele><time>2026-04-12T08:30:32Z</time></trkpt><trkpt lat="-30.751858012125076" lon="115.5591224678426"><ele>153.0</ele><time>2026-04-12T08:30:33Z</time></trkpt><trkpt lat="-30.751592508138447" lon="115.55909382333382"><ele>151.0</ele><time>2026-04-12T08:30:34Z</time></trkpt><trkpt lat="-30.751330738712507" lon="115.55905039426916"><ele>151.0</ele><time>2026-04-12T08:30:35Z</time></trkpt><trkpt lat="-30.75106421746699" lon="115.55899626142333"><ele>151.0</ele><time>2026-04-12T08:30:36Z</time></trkpt><trkpt lat="-30.75079641519067" lon="115.55893088184082"><ele>151.5</ele><time>2026-04-12T08:30:37Z</time></trkpt><trkpt lat="-30.750530322213457" lon="115.5588523715248"><ele>152.0</ele><time>2026-04-12T08:30:38Z</time></trkpt><trkpt lat="-30.750268863132696" lon="115.55876841711084"><ele>151.0</ele><time>2026-04-12T08:30:39Z</time></trkpt><trkpt lat="-30.750005723560818" lon="115.55867534058562"><ele>150.0</ele><time>2026-04-12T08:30:40Z</time></trkpt><trkpt lat="-30.749745449236045" lon="115.5585775362914"><ele>150.0</ele><time>2026-04-12T08:30:41Z</time></trkpt><trkpt lat="-30.749487793864436" lon="115.55847332696034"><ele>150.0</ele><time>2026-04-12T08:30:42Z</time></trkpt><trkpt lat="-30.749232740689305" lon="115.55836732589749"><ele>149.5</ele><time>2026-04-12T08:30:43Z</time></trkpt><trkpt lat="-30.74897678237655" lon="115.55826352266935"><ele>149.0</ele><time>2026-04-12T08:30:44Z</time></trkpt><trkpt lat="-30.748725464574626" lon="115.55816684364407"><ele>150.0</ele><time>2026-04-12T08:30:45Z</time></trkpt><trkpt lat="-30.748468945609066" lon="115.55807305880937"><ele>151.0</ele><time>2026-04-12T08:30:46Z</time></trkpt><trkpt lat="-30.748218070354085" lon="115.5579812095329"><ele>151.0</ele><time>2026-04-12T08:30:47Z</time></trkpt><trkpt lat="-30.747965320934743" lon="115.55788623631516"><ele>151.0</ele><time>2026-04-12T08:30:48Z</time></trkpt><trkpt lat="-30.747715915689795" lon="115.55779111607208"><ele>152.5</ele><time>2026-04-12T08:30:49Z</time></trkpt><trkpt lat="-30.747467355105506" lon="115.55769367567599"><ele>154.0</ele><time>2026-04-12T08:30:50Z</time></trkpt><trkpt lat="-30.747218038502503" lon="115.55759189093497"><ele>154.0</ele><time>2026-04-12T08:30:51Z</time></trkpt><trkpt lat="-30.746969264713854" lon="115.5574816283955"><ele>154.0</ele><time>2026-04-12T08:30:52Z</time></trkpt><trkpt lat="-30.746718874766398" lon="115.55735809889217"><ele>154.0</ele><time>2026-04-12T08:30:53Z</time></trkpt><trkpt lat="-30.74646950478828" lon="115.55722314106859"><ele>154.0</ele><time>2026-04-12T08:30:54Z</time></trkpt><trkpt lat="-30.74622481750099" lon="115.55707710262328"><ele>154.5</ele><time>2026-04-12T08:30:55Z</time></trkpt><trkpt lat="-30.7459772188148" lon="115.55691850256994"><ele>155.0</ele><time>2026-04-12T08:30:56Z</time></trkpt><trkpt lat="-30.74573268759816" lon="115.55675179127675"><ele>155.0</ele><time>2026-04-12T08:30:57Z</time></trkpt><trkpt lat="-30.74549890902057" lon="115.55658327853747"><ele>155.0</ele><time>2026-04-12T08:30:58Z</time></trkpt><trkpt lat="-30.745269848576147" lon="115.55640139012203"><ele>153.5</ele><time>2026-04-12T08:30:59Z</time></trkpt><trkpt lat="-30.745046432394563" lon="115.55621109994419"><ele>152.0</ele><time>2026-04-12T08:31:00Z</time></trkpt><trkpt lat="-30.74483091863871" lon="115.55601193638147"><ele>150.0</ele><time>2026-04-12T08:31:01Z</time></trkpt><trkpt lat="-30.744622110545823" lon="115.55580449702298"><ele>148.0</ele><time>2026-04-12T08:31:02Z</time></trkpt><trkpt lat="-30.744419362457876" lon="115.55558924190352"><ele>146.5</ele><time>2026-04-12T08:31:03Z</time></trkpt><trkpt lat="-30.744224003122174" lon="115.55536858687879"><ele>145.0</ele><time>2026-04-12T08:31:04Z</time></trkpt><trkpt lat="-30.744035329507643" lon="115.55513913515594"><ele>145.0</ele><time>2026-04-12T08:31:05Z</time></trkpt><trkpt lat="-30.743853819922457" lon="115.5549061199526"><ele>145.0</ele><time>2026-04-12T08:31:06Z</time></trkpt><trkpt lat="-30.74368035144565" lon="115.5546655504927"><ele>143.0</ele><time>2026-04-12T08:31:07Z</time></trkpt><trkpt lat="-30.74350977162005" lon="115.55441978959917"><ele>141.0</ele><time>2026-04-12T08:31:08Z</time></trkpt><trkpt lat="-30.743344026777052" lon="115.55417064596314"><ele>141.0</ele><time>2026-04-12T08:31:09Z</time></trkpt><trkpt lat="-30.743181444569046" lon="115.55391586026879"><ele>141.0</ele><time>2026-04-12T08:31:10Z</time></trkpt><trkpt lat="-30.743023070692594" lon="115.55366091225024"><ele>140.5</ele><time>2026-04-12T08:31:11Z</time></trkpt><trkpt lat="-30.74286279657898" lon="115.55340920516954"><ele>140.0</ele><time>2026-04-12T08:31:12Z</time></trkpt><trkpt lat="-30.742699097714713" lon="115.55316031255295"><ele>139.5</ele><time>2026-04-12T08:31:13Z</time></trkpt><trkpt lat="-30.742534643392197" lon="115.55291142770257"><ele>139.0</ele><time>2026-04-12T08:31:14Z</time></trkpt><trkpt lat="-30.742373828803622" lon="115.55266146943471"><ele>139.0</ele><time>2026-04-12T08:31:15Z</time></trkpt><trkpt lat="-30.742214263095995" lon="115.55240912137884"><ele>139.0</ele><time>2026-04-12T08:31:16Z</time></trkpt><trkpt lat="-30.74205659168354" lon="115.55215433287151"><ele>139.0</ele><time>2026-04-12T08:31:17Z</time></trkpt><trkpt lat="-30.74189927955136" lon="115.5519030755208"><ele>139.0</ele><time>2026-04-12T08:31:18Z</time></trkpt><trkpt lat="-30.74173943016318" lon="115.55165243829576"><ele>138.5</ele><time>2026-04-12T08:31:19Z</time></trkpt><trkpt lat="-30.74157916111091" lon="115.5514078570586"><ele>138.0</ele><time>2026-04-12T08:31:20Z</time></trkpt><trkpt lat="-30.741419565906536" lon="115.55115922017671"><ele>138.0</ele><time>2026-04-12T08:31:21Z</time></trkpt><trkpt lat="-30.741261350613968" lon="115.55091258536481"><ele>138.0</ele><time>2026-04-12T08:31:22Z</time></trkpt><trkpt lat="-30.74110170691896" lon="115.55066526175578"><ele>137.5</ele><time>2026-04-12T08:31:23Z</time></trkpt><trkpt lat="-30.740942235753337" lon="115.55041525808514"><ele>137.0</ele><time>2026-04-12T08:31:24Z</time></trkpt><trkpt lat="-30.740782984413176" lon="115.55015961037756"><ele>136.5</ele><time>2026-04-12T08:31:25Z</time></trkpt><trkpt lat="-30.740626877044903" lon="115.54990685060297"><ele>136.0</ele><time>2026-04-12T08:31:26Z</time></trkpt><trkpt lat="-30.740466379269513" lon="115.54965661555858"><ele>136.0</ele><time>2026-04-12T08:31:27Z</time></trkpt><trkpt lat="-30.740304705695458" lon="115.54940745821337"><ele>136.0</ele><time>2026-04-12T08:31:28Z</time></trkpt><trkpt lat="-30.740143229798747" lon="115.54915817536185"><ele>136.0</ele><time>2026-04-12T08:31:29Z</time></trkpt><trkpt lat="-30.739978027509753" lon="115.54890359205578"><ele>136.0</ele><time>2026-04-12T08:31:30Z</time></trkpt><trkpt lat="-30.739817085241757" lon="115.54865038956925"><ele>135.5</ele><time>2026-04-12T08:31:31Z</time></trkpt><trkpt lat="-30.73965712771942" lon="115.54839594977867"><ele>135.0</ele><time>2026-04-12T08:31:32Z</time></trkpt><trkpt lat="-30.739499026028692" lon="115.54814472911374"><ele>135.0</ele><time>2026-04-12T08:31:33Z</time></trkpt><trkpt lat="-30.73933513561161" lon="115.54789584468763"><ele>135.0</ele><time>2026-04-12T08:31:34Z</time></trkpt><trkpt lat="-30.73916980776708" lon="115.54764944974838"><ele>134.5</ele><time>2026-04-12T08:31:35Z</time></trkpt><trkpt lat="-30.73900670666376" lon="115.54739852071914"><ele>134.0</ele><time>2026-04-12T08:31:36Z</time></trkpt><trkpt lat="-30.73884770474257" lon="115.54714826367339"><ele>133.5</ele><time>2026-04-12T08:31:37Z</time></trkpt><trkpt lat="-30.73869239817094" lon="115.54690116088105"><ele>133.0</ele><time>2026-04-12T08:31:38Z</time></trkpt><trkpt lat="-30.73854176879924" lon="115.5466516099308"><ele>133.0</ele><time>2026-04-12T08:31:39Z</time></trkpt><trkpt lat="-30.738401012410343" lon="115.54639520244173"><ele>133.0</ele><time>2026-04-12T08:31:40Z</time></trkpt><trkpt lat="-30.738268125300266" lon="115.54613284727041"><ele>133.0</ele><time>2026-04-12T08:31:41Z</time></trkpt><trkpt lat="-30.738146048319916" lon="115.54586738836001"><ele>133.0</ele><time>2026-04-12T08:31:42Z</time></trkpt><trkpt lat="-30.73802695558851" lon="115.54559947877705"><ele>131.5</ele><time>2026-04-12T08:31:43Z</time></trkpt><trkpt lat="-30.737911873550654" lon="115.54532565762538"><ele>130.0</ele><time>2026-04-12T08:31:44Z</time></trkpt><trkpt lat="-30.737799672021982" lon="115.5450517694684"><ele>131.0</ele><time>2026-04-12T08:31:45Z</time></trkpt><trkpt lat="-30.737687183271206" lon="115.54477564214017"><ele>132.0</ele><time>2026-04-12T08:31:46Z</time></trkpt><trkpt lat="-30.737573028285684" lon="115.5445022948134"><ele>132.0</ele><time>2026-04-12T08:31:47Z</time></trkpt><trkpt lat="-30.73745630918773" lon="115.54423408941543"><ele>132.0</ele><time>2026-04-12T08:31:48Z</time></trkpt><trkpt lat="-30.737341243077275" lon="115.54396856697734"><ele>131.0</ele><time>2026-04-12T08:31:49Z</time></trkpt><trkpt lat="-30.737228321884533" lon="115.54370285462814"><ele>130.0</ele><time>2026-04-12T08:31:50Z</time></trkpt><trkpt lat="-30.737118194364047" lon="115.54343904405584"><ele>130.0</ele><time>2026-04-12T08:31:51Z</time></trkpt><trkpt lat="-30.737011190877016" lon="115.54317423511637"><ele>130.0</ele><time>2026-04-12T08:31:52Z</time></trkpt><trkpt lat="-30.736902511005564" lon="115.54290887968484"><ele>131.5</ele><time>2026-04-12T08:31:53Z</time></trkpt><trkpt lat="-30.736791960265066" lon="115.54264675036161"><ele>133.0</ele><time>2026-04-12T08:31:54Z</time></trkpt><trkpt lat="-30.736680585651918" lon="115.54238541109115"><ele>133.0</ele><time>2026-04-12T08:31:55Z</time></trkpt><trkpt lat="-30.736569235857434" lon="115.54212201157718"><ele>133.0</ele><time>2026-04-12T08:31:56Z</time></trkpt><trkpt lat="-30.7364605074079" lon="115.54185725963647"><ele>132.0</ele><time>2026-04-12T08:31:57Z</time></trkpt><trkpt lat="-30.736352116077402" lon="115.54159418441726"><ele>131.0</ele><time>2026-04-12T08:31:58Z</time></trkpt><trkpt lat="-30.736242898131998" lon="115.54133295414276"><ele>132.5</ele><time>2026-04-12T08:31:59Z</time></trkpt><trkpt lat="-30.736131717246685" lon="115.5410662174767"><ele>134.0</ele><time>2026-04-12T08:32:00Z</time></trkpt><trkpt lat="-30.73601966887257" lon="115.54079878913805"><ele>134.0</ele><time>2026-04-12T08:32:01Z</time></trkpt><trkpt lat="-30.735904275852594" lon="115.54052668565244"><ele>134.0</ele><time>2026-04-12T08:32:02Z</time></trkpt><trkpt lat="-30.73578901473659" lon="115.54025491417067"><ele>134.5</ele><time>2026-04-12T08:32:03Z</time></trkpt><trkpt lat="-30.73567016510986" lon="115.5399836032296"><ele>135.0</ele><time>2026-04-12T08:32:04Z</time></trkpt><trkpt lat="-30.735549887477028" lon="115.53971206543882"><ele>132.5</ele><time>2026-04-12T08:32:05Z</time></trkpt><trkpt lat="-30.735432515544233" lon="115.53943578079745"><ele>130.0</ele><time>2026-04-12T08:32:06Z</time></trkpt><trkpt lat="-30.73531701081287" lon="115.53916464141253"><ele>130.0</ele><time>2026-04-12T08:32:07Z</time></trkpt><trkpt lat="-30.735192041540582" lon="115.53889251517379"><ele>130.0</ele><time>2026-04-12T08:32:08Z</time></trkpt><trkpt lat="-30.73505833781372" lon="115.5386227123909"><ele>129.5</ele><time>2026-04-12T08:32:09Z</time></trkpt><trkpt lat="-30.734923640718414" lon="115.53835427405859"><ele>129.0</ele><time>2026-04-12T08:32:10Z</time></trkpt><trkpt lat="-30.73478672142483" lon="115.53808923137056"><ele>127.0</ele><time>2026-04-12T08:32:11Z</time></trkpt><trkpt lat="-30.73464549137474" lon="115.53783151616435"><ele>125.0</ele><time>2026-04-12T08:32:12Z</time></trkpt><trkpt lat="-30.73449754852346" lon="115.53757582470115"><ele>126.0</ele><time>2026-04-12T08:32:13Z</time></trkpt><trkpt lat="-30.73434919810562" lon="115.53731889344932"><ele>127.0</ele><time>2026-04-12T08:32:14Z</time></trkpt><trkpt lat="-30.73419761639456" lon="115.53705934273559"><ele>125.5</ele><time>2026-04-12T08:32:15Z</time></trkpt><trkpt lat="-30.734047584737766" lon="115.53680527779777"><ele>124.0</ele><time>2026-04-12T08:32:16Z</time></trkpt><trkpt lat="-30.733898073125548" lon="115.53655063476499"><ele>124.0</ele><time>2026-04-12T08:32:17Z</time></trkpt><trkpt lat="-30.733753463443815" lon="115.53629672545735"><ele>124.0</ele><time>2026-04-12T08:32:18Z</time></trkpt><trkpt lat="-30.733610313613877" lon="115.5360398724378"><ele>122.0</ele><time>2026-04-12T08:32:19Z</time></trkpt><trkpt lat="-30.73346943599084" lon="115.53578560547673"><ele>120.0</ele><time>2026-04-12T08:32:20Z</time></trkpt><trkpt lat="-30.73333187693258" lon="115.53552850045915"><ele>119.0</ele><time>2026-04-12T08:32:21Z</time></trkpt><trkpt lat="-30.733199743187253" lon="115.53527054890243"><ele>118.0</ele><time>2026-04-12T08:32:22Z</time></trkpt><trkpt lat="-30.733075209117793" lon="115.53500877713205"><ele>118.0</ele><time>2026-04-12T08:32:23Z</time></trkpt><trkpt lat="-30.732960607740576" lon="115.53474210670734"><ele>118.0</ele><time>2026-04-12T08:32:24Z</time></trkpt><trkpt lat="-30.732855613107322" lon="115.53447087251307"><ele>118.0</ele><time>2026-04-12T08:32:25Z</time></trkpt><trkpt lat="-30.732759415920558" lon="115.53419871352581"><ele>118.0</ele><time>2026-04-12T08:32:26Z</time></trkpt><trkpt lat="-30.73266704415972" lon="115.53392203187201"><ele>118.0</ele><time>2026-04-12T08:32:27Z</time></trkpt><trkpt lat="-30.73258240792851" lon="115.53364344026896"><ele>118.0</ele><time>2026-04-12T08:32:28Z</time></trkpt><trkpt lat="-30.73250926153479" lon="115.53336615500598"><ele>118.0</ele><time>2026-04-12T08:32:29Z</time></trkpt><trkpt lat="-30.732443809630684" lon="115.53308131881258"><ele>118.0</ele><time>2026-04-12T08:32:30Z</time></trkpt><trkpt lat="-30.73238153015023" lon="115.532799624835"><ele>118.0</ele><time>2026-04-12T08:32:31Z</time></trkpt><trkpt lat="-30.732324290512068" lon="115.53251619137704"><ele>118.0</ele><time>2026-04-12T08:32:32Z</time></trkpt><trkpt lat="-30.732267716786104" lon="115.53222900262713"><ele>117.0</ele><time>2026-04-12T08:32:33Z</time></trkpt><trkpt lat="-30.73220903522162" lon="115.5319502700745"><ele>116.0</ele><time>2026-04-12T08:32:34Z</time></trkpt><trkpt lat="-30.73215068856916" lon="115.53166552283773"><ele>116.0</ele><time>2026-04-12T08:32:35Z</time></trkpt><trkpt lat="-30.73209162454347" lon="115.53138547211589"><ele>116.0</ele><time>2026-04-12T08:32:36Z</time></trkpt><trkpt lat="-30.732030317743046" lon="115.5311029283417"><ele>116.0</ele><time>2026-04-12T08:32:37Z</time></trkpt><trkpt lat="-30.731969830272682" lon="115.53082318445924"><ele>116.0</ele><time>2026-04-12T08:32:38Z</time></trkpt><trkpt lat="-30.731910139928036" lon="115.5305365628191"><ele>119.0</ele><time>2026-04-12T08:32:39Z</time></trkpt><trkpt lat="-30.73185293357493" lon="115.53025353512201"><ele>122.0</ele><time>2026-04-12T08:32:40Z</time></trkpt><trkpt lat="-30.731792266102556" lon="115.52996447729444"><ele>122.0</ele><time>2026-04-12T08:32:41Z</time></trkpt><trkpt lat="-30.731725291929557" lon="115.52967836100791"><ele>122.0</ele><time>2026-04-12T08:32:42Z</time></trkpt><trkpt lat="-30.73164655055384" lon="115.52939443409034"><ele>120.5</ele><time>2026-04-12T08:32:43Z</time></trkpt><trkpt lat="-30.7315573960382" lon="115.52911265703447"><ele>119.0</ele><time>2026-04-12T08:32:44Z</time></trkpt><trkpt lat="-30.73145571991266" lon="115.52883223499249"><ele>119.0</ele><time>2026-04-12T08:32:45Z</time></trkpt><trkpt lat="-30.731344173061103" lon="115.52855687708836"><ele>119.0</ele><time>2026-04-12T08:32:46Z</time></trkpt><trkpt lat="-30.731228453397364" lon="115.52828343242643"><ele>119.0</ele><time>2026-04-12T08:32:47Z</time></trkpt><trkpt lat="-30.73110943813007" lon="115.52801377329085"><ele>119.0</ele><time>2026-04-12T08:32:48Z</time></trkpt><trkpt lat="-30.73098042694787" lon="115.52775039266092"><ele>119.5</ele><time>2026-04-12T08:32:49Z</time></trkpt><trkpt lat="-30.730843830306583" lon="115.5274925288853"><ele>120.0</ele><time>2026-04-12T08:32:50Z</time></trkpt><trkpt lat="-30.730703648298302" lon="115.52723690840534"><ele>119.0</ele><time>2026-04-12T08:32:51Z</time></trkpt><trkpt lat="-30.73055823028417" lon="115.52698394661282"><ele>118.0</ele><time>2026-04-12T08:32:52Z</time></trkpt><trkpt lat="-30.730412880916052" lon="115.52673112503311"><ele>118.0</ele><time>2026-04-12T08:32:53Z</time></trkpt><trkpt lat="-30.73027633351199" lon="115.52646939933248"><ele>118.0</ele><time>2026-04-12T08:32:54Z</time></trkpt><trkpt lat="-30.73014080249918" lon="115.52620077777854"><ele>117.5</ele><time>2026-04-12T08:32:55Z</time></trkpt><trkpt lat="-30.73000625058334" lon="115.52593628019054"><ele>117.0</ele><time>2026-04-12T08:32:56Z</time></trkpt><trkpt lat="-30.729869284576225" lon="115.52567592719211"><ele>117.0</ele><time>2026-04-12T08:32:57Z</time></trkpt><trkpt lat="-30.729729337854938" lon="115.5254171113951"><ele>117.0</ele><time>2026-04-12T08:32:58Z</time></trkpt><trkpt lat="-30.729589801989356" lon="115.52516028339623"><ele>117.0</ele><time>2026-04-12T08:32:59Z</time></trkpt><trkpt lat="-30.729449215065475" lon="115.5249047069614"><ele>117.0</ele><time>2026-04-12T08:33:00Z</time></trkpt><trkpt lat="-30.729308063787272" lon="115.52464927679124"><ele>116.0</ele><time>2026-04-12T08:33:01Z</time></trkpt><trkpt lat="-30.72916406296107" lon="115.52439074860384"><ele>115.0</ele><time>2026-04-12T08:33:02Z</time></trkpt><trkpt lat="-30.72902042066187" lon="115.52413298617405"><ele>115.0</ele><time>2026-04-12T08:33:03Z</time></trkpt><trkpt lat="-30.728874385576237" lon="115.52386924734093"><ele>115.0</ele><time>2026-04-12T08:33:04Z</time></trkpt><trkpt lat="-30.728734146238626" lon="115.52361449481236"><ele>115.5</ele><time>2026-04-12T08:33:05Z</time></trkpt><trkpt lat="-30.72859183258756" lon="115.5233571924628"><ele>116.0</ele><time>2026-04-12T08:33:06Z</time></trkpt><trkpt lat="-30.72844476033967" lon="115.52310199828979"><ele>116.0</ele><time>2026-04-12T08:33:07Z</time></trkpt><trkpt lat="-30.72829146272674" lon="115.5228539655728"><ele>116.0</ele><time>2026-04-12T08:33:08Z</time></trkpt><trkpt lat="-30.728130300206814" lon="115.52260906004246"><ele>116.0</ele><time>2026-04-12T08:33:09Z</time></trkpt><trkpt lat="-30.72795620752188" lon="115.52236460404333"><ele>116.0</ele><time>2026-04-12T08:33:10Z</time></trkpt><trkpt lat="-30.727772457296265" lon="115.5221251306165"><ele>115.5</ele><time>2026-04-12T08:33:11Z</time></trkpt><trkpt lat="-30.727574769013465" lon="115.52188509076943"><ele>115.0</ele><time>2026-04-12T08:33:12Z</time></trkpt><trkpt lat="-30.727375954530864" lon="115.52164083202764"><ele>115.0</ele><time>2026-04-12T08:33:13Z</time></trkpt><trkpt lat="-30.72719189585702" lon="115.5214024867405"><ele>115.0</ele><time>2026-04-12T08:33:14Z</time></trkpt><trkpt lat="-30.727017396503044" lon="115.52117155560151"><ele>113.0</ele><time>2026-04-12T08:33:15Z</time></trkpt><trkpt lat="-30.726843667388543" lon="115.52094600781652"><ele>111.0</ele><time>2026-04-12T08:33:16Z</time></trkpt><trkpt lat="-30.72666659849744" lon="115.5207294583965"><ele>111.0</ele><time>2026-04-12T08:33:17Z</time></trkpt><trkpt lat="-30.726488910306312" lon="115.52051690902104"><ele>111.0</ele><time>2026-04-12T08:33:18Z</time></trkpt><trkpt lat="-30.726315449029602" lon="115.52031174173085"><ele>111.5</ele><time>2026-04-12T08:33:19Z</time></trkpt><trkpt lat="-30.726141086784125" lon="115.52010236382654"><ele>112.0</ele><time>2026-04-12T08:33:20Z</time></trkpt><trkpt lat="-30.725967946604225" lon="115.51989142631898"><ele>113.0</ele><time>2026-04-12T08:33:21Z</time></trkpt><trkpt lat="-30.725796332999852" lon="115.51967351142677"><ele>114.0</ele><time>2026-04-12T08:33:22Z</time></trkpt><trkpt lat="-30.72563062324073" lon="115.51945733148848"><ele>114.0</ele><time>2026-04-12T08:33:23Z</time></trkpt><trkpt lat="-30.725457022091245" lon="115.51923676449702"><ele>114.0</ele><time>2026-04-12T08:33:24Z</time></trkpt><trkpt lat="-30.725283059706666" lon="115.5190205383251"><ele>113.0</ele><time>2026-04-12T08:33:25Z</time></trkpt><trkpt lat="-30.72510972065022" lon="115.5188028534956"><ele>112.0</ele><time>2026-04-12T08:33:26Z</time></trkpt><trkpt lat="-30.724936233915923" lon="115.51858669229563"><ele>112.0</ele><time>2026-04-12T08:33:27Z</time></trkpt><trkpt lat="-30.724756212534192" lon="115.51836235016417"><ele>112.0</ele><time>2026-04-12T08:33:28Z</time></trkpt><trkpt lat="-30.724576413860092" lon="115.5181378789966"><ele>113.5</ele><time>2026-04-12T08:33:29Z</time></trkpt><trkpt lat="-30.724392880822467" lon="115.51791417518781"><ele>115.0</ele><time>2026-04-12T08:33:30Z</time></trkpt><trkpt lat="-30.724208934367777" lon="115.51769837800708"><ele>115.0</ele><time>2026-04-12T08:33:31Z</time></trkpt><trkpt lat="-30.72402420896423" lon="115.51749204414037"><ele>115.0</ele><time>2026-04-12T08:33:32Z</time></trkpt><trkpt lat="-30.723829664224024" lon="115.51729514733697"><ele>115.0</ele><time>2026-04-12T08:33:33Z</time></trkpt><trkpt lat="-30.72362787952235" lon="115.51710685538848"><ele>115.0</ele><time>2026-04-12T08:33:34Z</time></trkpt><trkpt lat="-30.723419696759667" lon="115.51691785934712"><ele>112.5</ele><time>2026-04-12T08:33:35Z</time></trkpt><trkpt lat="-30.723213066856026" lon="115.51673521217973"><ele>110.0</ele><time>2026-04-12T08:33:36Z</time></trkpt><trkpt lat="-30.72300655461939" lon="115.51655350409109"><ele>110.0</ele><time>2026-04-12T08:33:37Z</time></trkpt><trkpt lat="-30.722800548825766" lon="115.51637165904893"><ele>110.0</ele><time>2026-04-12T08:33:38Z</time></trkpt><trkpt lat="-30.72259700390076" lon="115.51618856324419"><ele>111.5</ele><time>2026-04-12T08:33:39Z</time></trkpt><trkpt lat="-30.722395372760783" lon="115.51600331947405"><ele>113.0</ele><time>2026-04-12T08:33:40Z</time></trkpt><trkpt lat="-30.722190867354303" lon="115.51581584682907"><ele>113.0</ele><time>2026-04-12T08:33:41Z</time></trkpt><trkpt lat="-30.72198322671115" lon="115.5156295413305"><ele>113.0</ele><time>2026-04-12T08:33:42Z</time></trkpt><trkpt lat="-30.721774187017044" lon="115.51544335092491"><ele>113.0</ele><time>2026-04-12T08:33:43Z</time></trkpt><trkpt lat="-30.721565158548643" lon="115.5152598429939"><ele>113.0</ele><time>2026-04-12T08:33:44Z</time></trkpt><trkpt lat="-30.721353723104663" lon="115.51507468968362"><ele>113.0</ele><time>2026-04-12T08:33:45Z</time></trkpt><trkpt lat="-30.72114619603855" lon="115.51489008308407"><ele>113.0</ele><time>2026-04-12T08:33:46Z</time></trkpt><trkpt lat="-30.720938441204996" lon="115.51470755539174"><ele>112.5</ele><time>2026-04-12T08:33:47Z</time></trkpt><trkpt lat="-30.720730113254337" lon="115.51452262657796"><ele>112.0</ele><time>2026-04-12T08:33:48Z</time></trkpt><trkpt lat="-30.720521897699932" lon="115.51433659162376"><ele>112.0</ele><time>2026-04-12T08:33:49Z</time></trkpt><trkpt lat="-30.72031558295391" lon="115.51415201619764"><ele>112.0</ele><time>2026-04-12T08:33:50Z</time></trkpt><trkpt lat="-30.720109157084405" lon="115.51396519203183"><ele>113.0</ele><time>2026-04-12T08:33:51Z</time></trkpt><trkpt lat="-30.719900415609438" lon="115.51377762577863"><ele>114.0</ele><time>2026-04-12T08:33:52Z</time></trkpt><trkpt lat="-30.719693116759974" lon="115.51358831560003"><ele>112.0</ele><time>2026-04-12T08:33:53Z</time></trkpt><trkpt lat="-30.71948490669649" lon="115.51340239879403"><ele>110.0</ele><time>2026-04-12T08:33:54Z</time></trkpt><trkpt lat="-30.7192736859702" lon="115.5132171202619"><ele>110.0</ele><time>2026-04-12T08:33:55Z</time></trkpt><trkpt lat="-30.719058676956294" lon="115.51302583964345"><ele>110.0</ele><time>2026-04-12T08:33:56Z</time></trkpt><trkpt lat="-30.718845515330834" lon="115.51283681546876"><ele>109.5</ele><time>2026-04-12T08:33:57Z</time></trkpt><trkpt lat="-30.71863116667648" lon="115.51264361501725"><ele>109.0</ele><time>2026-04-12T08:33:58Z</time></trkpt><trkpt lat="-30.718417755721042" lon="115.51245300102669"><ele>109.5</ele><time>2026-04-12T08:33:59Z</time></trkpt><trkpt lat="-30.718204037113257" lon="115.51226199705906"><ele>110.0</ele><time>2026-04-12T08:34:00Z</time></trkpt><trkpt lat="-30.7179894226695" lon="115.51206892530053"><ele>110.0</ele><time>2026-04-12T08:34:01Z</time></trkpt><trkpt lat="-30.71777709890849" lon="115.51188039087769"><ele>110.0</ele><time>2026-04-12T08:34:02Z</time></trkpt><trkpt lat="-30.717564292177816" lon="115.51169239679271"><ele>110.0</ele><time>2026-04-12T08:34:03Z</time></trkpt><trkpt lat="-30.717353213023497" lon="115.51150720066032"><ele>110.0</ele><time>2026-04-12T08:34:04Z</time></trkpt><trkpt lat="-30.71714218458173" lon="115.51131544915421"><ele>109.5</ele><time>2026-04-12T08:34:05Z</time></trkpt><trkpt lat="-30.71693502695575" lon="115.51112745612696"><ele>109.0</ele><time>2026-04-12T08:34:06Z</time></trkpt><trkpt lat="-30.716729934629463" lon="115.51094299023471"><ele>109.0</ele><time>2026-04-12T08:34:07Z</time></trkpt><trkpt lat="-30.716522216444606" lon="115.51075718262946"><ele>109.0</ele><time>2026-04-12T08:34:08Z</time></trkpt><trkpt lat="-30.716313455838673" lon="115.51056959112474"><ele>110.0</ele><time>2026-04-12T08:34:09Z</time></trkpt><trkpt lat="-30.716103247638447" lon="115.51038252841074"><ele>111.0</ele><time>2026-04-12T08:34:10Z</time></trkpt><trkpt lat="-30.715893783645676" lon="115.51019390325236"><ele>111.0</ele><time>2026-04-12T08:34:11Z</time></trkpt><trkpt lat="-30.715696637702468" lon="115.5100136775517"><ele>111.0</ele><time>2026-04-12T08:34:12Z</time></trkpt><trkpt lat="-30.71551150608903" lon="115.50984763085829"><ele>111.0</ele><time>2026-04-12T08:34:13Z</time></trkpt><trkpt lat="-30.715316834008192" lon="115.50967404071108"><ele>111.0</ele><time>2026-04-12T08:34:14Z</time></trkpt><trkpt lat="-30.715114598505487" lon="115.5094926709728"><ele>112.5</ele><time>2026-04-12T08:34:15Z</time></trkpt><trkpt lat="-30.7149147242274" lon="115.50931156105516"><ele>114.0</ele><time>2026-04-12T08:34:16Z</time></trkpt><trkpt lat="-30.714712547051047" lon="115.5091272397292"><ele>114.0</ele><time>2026-04-12T08:34:17Z</time></trkpt><trkpt lat="-30.71450797563401" lon="115.50894137803893"><ele>114.0</ele><time>2026-04-12T08:34:18Z</time></trkpt><trkpt lat="-30.714083311159182" lon="115.50856995868328"><ele>113.5</ele><time>2026-04-12T08:34:20Z</time></trkpt><trkpt lat="-30.713861315337066" lon="115.50838266742907"><ele>113.0</ele><time>2026-04-12T08:34:21Z</time></trkpt><trkpt lat="-30.7136417713139" lon="115.50818961429181"><ele>113.0</ele><time>2026-04-12T08:34:22Z</time></trkpt><trkpt lat="-30.713423912114926" lon="115.50799255964147"><ele>113.0</ele><time>2026-04-12T08:34:23Z</time></trkpt><trkpt lat="-30.713200722844146" lon="115.50779235805796"><ele>114.5</ele><time>2026-04-12T08:34:24Z</time></trkpt><trkpt lat="-30.71297982120983" lon="115.50759419137488"><ele>116.0</ele><time>2026-04-12T08:34:25Z</time></trkpt><trkpt lat="-30.71275547802828" lon="115.50738977183873"><ele>115.5</ele><time>2026-04-12T08:34:26Z</time></trkpt><trkpt lat="-30.712534197855447" lon="115.50718592227969"><ele>115.0</ele><time>2026-04-12T08:34:27Z</time></trkpt><trkpt lat="-30.712313057426297" lon="115.5069841006687"><ele>114.5</ele><time>2026-04-12T08:34:28Z</time></trkpt><trkpt lat="-30.712093658046445" lon="115.50678511821704"><ele>114.0</ele><time>2026-04-12T08:34:29Z</time></trkpt><trkpt lat="-30.71187130973855" lon="115.50658867103685"><ele>113.5</ele><time>2026-04-12T08:34:30Z</time></trkpt><trkpt lat="-30.711650812998073" lon="115.5063977374945"><ele>113.0</ele><time>2026-04-12T08:34:31Z</time></trkpt><trkpt lat="-30.71143071276767" lon="115.50620413087707"><ele>114.0</ele><time>2026-04-12T08:34:32Z</time></trkpt><trkpt lat="-30.7112112736577" lon="115.50601192019049"><ele>115.0</ele><time>2026-04-12T08:34:33Z</time></trkpt><trkpt lat="-30.71099083715841" lon="115.50581689857442"><ele>113.0</ele><time>2026-04-12T08:34:34Z</time></trkpt><trkpt lat="-30.710774499890622" lon="115.5056199901788"><ele>111.0</ele><time>2026-04-12T08:34:35Z</time></trkpt><trkpt lat="-30.710555507588587" lon="115.50542235764246"><ele>110.5</ele><time>2026-04-12T08:34:36Z</time></trkpt><trkpt lat="-30.710337232444804" lon="115.50522526936219"><ele>110.0</ele><time>2026-04-12T08:34:37Z</time></trkpt><trkpt lat="-30.710116967973445" lon="115.5050280554528"><ele>110.0</ele><time>2026-04-12T08:34:38Z</time></trkpt><trkpt lat="-30.709897178448568" lon="115.5048292949739"><ele>110.0</ele><time>2026-04-12T08:34:39Z</time></trkpt><trkpt lat="-30.709678418624744" lon="115.50462865563055"><ele>110.5</ele><time>2026-04-12T08:34:40Z</time></trkpt><trkpt lat="-30.70946142709614" lon="115.50442922319583"><ele>111.0</ele><time>2026-04-12T08:34:41Z</time></trkpt><trkpt lat="-30.709244177197753" lon="115.50423426254844"><ele>112.5</ele><time>2026-04-12T08:34:42Z</time></trkpt><trkpt lat="-30.709023286931707" lon="115.50404049371393"><ele>114.0</ele><time>2026-04-12T08:34:43Z</time></trkpt><trkpt lat="-30.708805796788017" lon="115.50384936166856"><ele>114.0</ele><time>2026-04-12T08:34:44Z</time></trkpt><trkpt lat="-30.708589015182948" lon="115.50365798224485"><ele>114.0</ele><time>2026-04-12T08:34:45Z</time></trkpt><trkpt lat="-30.708371738917247" lon="115.50346322050216"><ele>114.5</ele><time>2026-04-12T08:34:46Z</time></trkpt><trkpt lat="-30.708156506129228" lon="115.50326872286793"><ele>115.0</ele><time>2026-04-12T08:34:47Z</time></trkpt><trkpt lat="-30.707941362585416" lon="115.50306858224718"><ele>113.5</ele><time>2026-04-12T08:34:48Z</time></trkpt><trkpt lat="-30.70773248802434" lon="115.5028619912922"><ele>112.0</ele><time>2026-04-12T08:34:49Z</time></trkpt><trkpt lat="-30.707532195474737" lon="115.50264735844793"><ele>112.0</ele><time>2026-04-12T08:34:50Z</time></trkpt><trkpt lat="-30.707330411613366" lon="115.50242495118349"><ele>112.0</ele><time>2026-04-12T08:34:51Z</time></trkpt><trkpt lat="-30.707133038855766" lon="115.50220169095947"><ele>112.0</ele><time>2026-04-12T08:34:52Z</time></trkpt><trkpt lat="-30.70693384294525" lon="115.5019793417945"><ele>112.0</ele><time>2026-04-12T08:34:53Z</time></trkpt><trkpt lat="-30.706734154807098" lon="115.50175966692066"><ele>111.5</ele><time>2026-04-12T08:34:54Z</time></trkpt><trkpt lat="-30.7065316644064" lon="115.50153910248683"><ele>111.0</ele><time>2026-04-12T08:34:55Z</time></trkpt><trkpt lat="-30.70632985350948" lon="115.50131886675294"><ele>111.0</ele><time>2026-04-12T08:34:56Z</time></trkpt><trkpt lat="-30.7061254523086" lon="115.50109538219779"><ele>111.0</ele><time>2026-04-12T08:34:57Z</time></trkpt><trkpt lat="-30.705924487361624" lon="115.5008689448991"><ele>111.5</ele><time>2026-04-12T08:34:58Z</time></trkpt><trkpt lat="-30.705720935249758" lon="115.50064455596322"><ele>112.0</ele><time>2026-04-12T08:34:59Z</time></trkpt><trkpt lat="-30.70551592176283" lon="115.50042113854319"><ele>111.5</ele><time>2026-04-12T08:35:00Z</time></trkpt><trkpt lat="-30.70531148087663" lon="115.50019798826132"><ele>111.0</ele><time>2026-04-12T08:35:01Z</time></trkpt><trkpt lat="-30.705110553819264" lon="115.49997523873981"><ele>111.0</ele><time>2026-04-12T08:35:02Z</time></trkpt><trkpt lat="-30.704904825427164" lon="115.49975629891631"><ele>111.0</ele><time>2026-04-12T08:35:03Z</time></trkpt><trkpt lat="-30.70470215744005" lon="115.49953547799366"><ele>112.0</ele><time>2026-04-12T08:35:04Z</time></trkpt><trkpt lat="-30.704502478233476" lon="115.49931229597763"><ele>113.0</ele><time>2026-04-12T08:35:05Z</time></trkpt><trkpt lat="-30.704301423877784" lon="115.49909130671415"><ele>113.5</ele><time>2026-04-12T08:35:06Z</time></trkpt><trkpt lat="-30.704099019534436" lon="115.49886928847452"><ele>114.0</ele><time>2026-04-12T08:35:07Z</time></trkpt><trkpt lat="-30.70389509808743" lon="115.49864724160349"><ele>114.0</ele><time>2026-04-12T08:35:08Z</time></trkpt><trkpt lat="-30.703691794455462" lon="115.4984224720829"><ele>114.0</ele><time>2026-04-12T08:35:09Z</time></trkpt><trkpt lat="-30.703486794793665" lon="115.49819768331125"><ele>113.5</ele><time>2026-04-12T08:35:10Z</time></trkpt><trkpt lat="-30.703281260932854" lon="115.49797300609134"><ele>113.0</ele><time>2026-04-12T08:35:11Z</time></trkpt><trkpt lat="-30.703076791262585" lon="115.49774912336643"><ele>112.5</ele><time>2026-04-12T08:35:12Z</time></trkpt><trkpt lat="-30.702870111326703" lon="115.49752840708148"><ele>112.0</ele><time>2026-04-12T08:35:13Z</time></trkpt><trkpt lat="-30.702660062438635" lon="115.4973040978837"><ele>112.0</ele><time>2026-04-12T08:35:14Z</time></trkpt><trkpt lat="-30.702452358902942" lon="115.49708188846009"><ele>112.0</ele><time>2026-04-12T08:35:15Z</time></trkpt><trkpt lat="-30.70224390819368" lon="115.49685316303494"><ele>112.0</ele><time>2026-04-12T08:35:16Z</time></trkpt><trkpt lat="-30.702035520373386" lon="115.49662146058466"><ele>112.0</ele><time>2026-04-12T08:35:17Z</time></trkpt><trkpt lat="-30.701828707666298" lon="115.49639587951732"><ele>111.0</ele><time>2026-04-12T08:35:18Z</time></trkpt><trkpt lat="-30.701621517247148" lon="115.4961711735129"><ele>110.0</ele><time>2026-04-12T08:35:19Z</time></trkpt><trkpt lat="-30.701417089660076" lon="115.49595178453227"><ele>110.0</ele><time>2026-04-12T08:35:20Z</time></trkpt><trkpt lat="-30.701214174491014" lon="115.49572940243286"><ele>110.0</ele><time>2026-04-12T08:35:21Z</time></trkpt><trkpt lat="-30.701015003388854" lon="115.49551012430432"><ele>110.5</ele><time>2026-04-12T08:35:22Z</time></trkpt><trkpt lat="-30.700817518618578" lon="115.49528989117385"><ele>111.0</ele><time>2026-04-12T08:35:23Z</time></trkpt><trkpt lat="-30.70062193498292" lon="115.49507044671655"><ele>111.0</ele><time>2026-04-12T08:35:24Z</time></trkpt><trkpt lat="-30.70042410608556" lon="115.49485282360129"><ele>111.0</ele><time>2026-04-12T08:35:25Z</time></trkpt><trkpt lat="-30.70022576630276" lon="115.49463547075827"><ele>110.5</ele><time>2026-04-12T08:35:26Z</time></trkpt><trkpt lat="-30.70002783429275" lon="115.4944187969264"><ele>110.0</ele><time>2026-04-12T08:35:27Z</time></trkpt><trkpt lat="-30.699827413082726" lon="115.49420066506066"><ele>110.0</ele><time>2026-04-12T08:35:28Z</time></trkpt><trkpt lat="-30.699626719174958" lon="115.49398218907065"><ele>110.0</ele><time>2026-04-12T08:35:29Z</time></trkpt><trkpt lat="-30.69942650941565" lon="115.49376121485324"><ele>110.5</ele><time>2026-04-12T08:35:30Z</time></trkpt><trkpt lat="-30.699225952917075" lon="115.49353956536537"><ele>111.0</ele><time>2026-04-12T08:35:31Z</time></trkpt><trkpt lat="-30.69902395706325" lon="115.49331678128644"><ele>111.0</ele><time>2026-04-12T08:35:32Z</time></trkpt><trkpt lat="-30.698821426507497" lon="115.49309553874919"><ele>111.0</ele><time>2026-04-12T08:35:33Z</time></trkpt><trkpt lat="-30.69862122094297" lon="115.49287463733634"><ele>111.0</ele><time>2026-04-12T08:35:34Z</time></trkpt><trkpt lat="-30.69842071884328" lon="115.49265522383216"><ele>111.0</ele><time>2026-04-12T08:35:35Z</time></trkpt><trkpt lat="-30.698217467471505" lon="115.49243594118755"><ele>111.0</ele><time>2026-04-12T08:35:36Z</time></trkpt><trkpt lat="-30.69801434814629" lon="115.49221787822431"><ele>111.0</ele><time>2026-04-12T08:35:37Z</time></trkpt><trkpt lat="-30.697811700571723" lon="115.49200011468267"><ele>111.0</ele><time>2026-04-12T08:35:38Z</time></trkpt><trkpt lat="-30.69760856628745" lon="115.49178141936444"><ele>111.0</ele><time>2026-04-12T08:35:39Z</time></trkpt><trkpt lat="-30.697405079097084" lon="115.49156839312332"><ele>111.0</ele><time>2026-04-12T08:35:40Z</time></trkpt><trkpt lat="-30.697198946167152" lon="115.49136265610765"><ele>111.0</ele><time>2026-04-12T08:35:41Z</time></trkpt><trkpt lat="-30.696986650744936" lon="115.49116024246274"><ele>111.0</ele><time>2026-04-12T08:35:42Z</time></trkpt><trkpt lat="-30.696770607072136" lon="115.49097372811143"><ele>111.0</ele><time>2026-04-12T08:35:43Z</time></trkpt><trkpt lat="-30.69654518066244" lon="115.49079334254614"><ele>111.0</ele><time>2026-04-12T08:35:44Z</time></trkpt><trkpt lat="-30.696312402866386" lon="115.49062718718132"><ele>111.0</ele><time>2026-04-12T08:35:45Z</time></trkpt><trkpt lat="-30.696074360642978" lon="115.49046784435961"><ele>109.5</ele><time>2026-04-12T08:35:46Z</time></trkpt><trkpt lat="-30.69583422821508" lon="115.49031213284574"><ele>108.0</ele><time>2026-04-12T08:35:47Z</time></trkpt><trkpt lat="-30.69559377168343" lon="115.49015652770456"><ele>108.0</ele><time>2026-04-12T08:35:48Z</time></trkpt><trkpt lat="-30.695355205303294" lon="115.48999934795754"><ele>108.0</ele><time>2026-04-12T08:35:49Z</time></trkpt><trkpt lat="-30.69511627006035" lon="115.48983865228792"><ele>108.5</ele><time>2026-04-12T08:35:50Z</time></trkpt><trkpt lat="-30.694875822190753" lon="115.48967742299129"><ele>109.0</ele><time>2026-04-12T08:35:51Z</time></trkpt><trkpt lat="-30.694633891462182" lon="115.48951580717552"><ele>109.0</ele><time>2026-04-12T08:35:52Z</time></trkpt><trkpt lat="-30.694393002696263" lon="115.48935641205205"><ele>109.0</ele><time>2026-04-12T08:35:53Z</time></trkpt><trkpt lat="-30.694150985430593" lon="115.48919714542801"><ele>109.0</ele><time>2026-04-12T08:35:54Z</time></trkpt><trkpt lat="-30.693908500094388" lon="115.48903639077756"><ele>109.0</ele><time>2026-04-12T08:35:55Z</time></trkpt><trkpt lat="-30.693667558301758" lon="115.48887366407008"><ele>109.0</ele><time>2026-04-12T08:35:56Z</time></trkpt><trkpt lat="-30.69342490631606" lon="115.4887086927667"><ele>109.0</ele><time>2026-04-12T08:35:57Z</time></trkpt><trkpt lat="-30.69318406909991" lon="115.4885480698416"><ele>109.0</ele><time>2026-04-12T08:35:58Z</time></trkpt><trkpt lat="-30.692940232758694" lon="115.48838774737992"><ele>109.0</ele><time>2026-04-12T08:35:59Z</time></trkpt><trkpt lat="-30.692696486524316" lon="115.48822786829693"><ele>109.5</ele><time>2026-04-12T08:36:00Z</time></trkpt><trkpt lat="-30.69245085784316" lon="115.48806466829184"><ele>110.0</ele><time>2026-04-12T08:36:01Z</time></trkpt><trkpt lat="-30.692204739090673" lon="115.48790015402186"><ele>110.0</ele><time>2026-04-12T08:36:02Z</time></trkpt><trkpt lat="-30.691960857573054" lon="115.4877397641786"><ele>110.0</ele><time>2026-04-12T08:36:03Z</time></trkpt><trkpt lat="-30.691715408961606" lon="115.48757572502922"><ele>109.0</ele><time>2026-04-12T08:36:04Z</time></trkpt><trkpt lat="-30.691469422680147" lon="115.48741428300562"><ele>108.0</ele><time>2026-04-12T08:36:05Z</time></trkpt><trkpt lat="-30.691222312831187" lon="115.48724934775404"><ele>108.0</ele><time>2026-04-12T08:36:06Z</time></trkpt><trkpt lat="-30.690978121437336" lon="115.48708815042373"><ele>108.0</ele><time>2026-04-12T08:36:07Z</time></trkpt><trkpt lat="-30.690733547385644" lon="115.48692694521297"><ele>108.0</ele><time>2026-04-12T08:36:08Z</time></trkpt><trkpt lat="-30.690491741710403" lon="115.48676637554463"><ele>108.0</ele><time>2026-04-12T08:36:09Z</time></trkpt><trkpt lat="-30.690253761621317" lon="115.48660754927913"><ele>108.0</ele><time>2026-04-12T08:36:10Z</time></trkpt><trkpt lat="-30.69001525569188" lon="115.4864482798382"><ele>108.0</ele><time>2026-04-12T08:36:11Z</time></trkpt><trkpt lat="-30.68977943978499" lon="115.48628989756796"><ele>108.0</ele><time>2026-04-12T08:36:12Z</time></trkpt><trkpt lat="-30.689542468366525" lon="115.48613238373783"><ele>108.0</ele><time>2026-04-12T08:36:13Z</time></trkpt><trkpt lat="-30.689303599169445" lon="115.48597376307346"><ele>108.0</ele><time>2026-04-12T08:36:14Z</time></trkpt><trkpt lat="-30.689062920564172" lon="115.48581406679527"><ele>108.0</ele><time>2026-04-12T08:36:15Z</time></trkpt><trkpt lat="-30.68882819813835" lon="115.4856565883016"><ele>108.0</ele><time>2026-04-12T08:36:16Z</time></trkpt><trkpt lat="-30.68859691647581" lon="115.48550047682515"><ele>108.0</ele><time>2026-04-12T08:36:17Z</time></trkpt><trkpt lat="-30.68836659701156" lon="115.48534576846626"><ele>108.0</ele><time>2026-04-12T08:36:18Z</time></trkpt><trkpt lat="-30.688133173025147" lon="115.48519033234632"><ele>108.0</ele><time>2026-04-12T08:36:19Z</time></trkpt><trkpt lat="-30.687899862230257" lon="115.48503549576971"><ele>107.5</ele><time>2026-04-12T08:36:20Z</time></trkpt><trkpt lat="-30.687666870242495" lon="115.48487809875064"><ele>107.0</ele><time>2026-04-12T08:36:21Z</time></trkpt><trkpt lat="-30.687437205759796" lon="115.48471402161516"><ele>106.5</ele><time>2026-04-12T08:36:22Z</time></trkpt><trkpt lat="-30.687221552800924" lon="115.48451729289411"><ele>106.0</ele><time>2026-04-12T08:36:23Z</time></trkpt><trkpt lat="-30.687003797739504" lon="115.48433013450969"><ele>106.5</ele><time>2026-04-12T08:36:24Z</time></trkpt><trkpt lat="-30.686790490659003" lon="115.48414036561026"><ele>107.0</ele><time>2026-04-12T08:36:25Z</time></trkpt><trkpt lat="-30.686576006541966" lon="115.483947534406"><ele>107.0</ele><time>2026-04-12T08:36:26Z</time></trkpt><trkpt lat="-30.686352401470078" lon="115.48376640138781"><ele>107.0</ele><time>2026-04-12T08:36:27Z</time></trkpt><trkpt lat="-30.68614221578189" lon="115.48356704229799"><ele>107.0</ele><time>2026-04-12T08:36:28Z</time></trkpt><trkpt lat="-30.685932477899886" lon="115.48336900960702"><ele>107.0</ele><time>2026-04-12T08:36:29Z</time></trkpt><trkpt lat="-30.685720273052443" lon="115.4831774339565"><ele>107.0</ele><time>2026-04-12T08:36:30Z</time></trkpt><trkpt lat="-30.685505112289736" lon="115.48298931701268"><ele>107.0</ele><time>2026-04-12T08:36:31Z</time></trkpt><trkpt lat="-30.68528927915466" lon="115.48279992163357"><ele>106.0</ele><time>2026-04-12T08:36:32Z</time></trkpt><trkpt lat="-30.68507538050899" lon="115.48260790907423"><ele>105.0</ele><time>2026-04-12T08:36:33Z</time></trkpt><trkpt lat="-30.684864737471013" lon="115.48241856399767"><ele>105.0</ele><time>2026-04-12T08:36:34Z</time></trkpt><trkpt lat="-30.684650392166937" lon="115.48222849902814"><ele>105.0</ele><time>2026-04-12T08:36:35Z</time></trkpt><trkpt lat="-30.684436686633326" lon="115.48204106051445"><ele>106.5</ele><time>2026-04-12T08:36:36Z</time></trkpt><trkpt lat="-30.684222613325694" lon="115.48185097923768"><ele>108.0</ele><time>2026-04-12T08:36:37Z</time></trkpt><trkpt lat="-30.684008534164665" lon="115.48165341119397"><ele>108.0</ele><time>2026-04-12T08:36:38Z</time></trkpt><trkpt lat="-30.683794617269452" lon="115.48145749650695"><ele>108.0</ele><time>2026-04-12T08:36:39Z</time></trkpt><trkpt lat="-30.683578886770597" lon="115.48126152899403"><ele>107.0</ele><time>2026-04-12T08:36:40Z</time></trkpt><trkpt lat="-30.68336305123475" lon="115.48106966957205"><ele>106.0</ele><time>2026-04-12T08:36:41Z</time></trkpt><trkpt lat="-30.683144137089357" lon="115.48087813769037"><ele>106.0</ele><time>2026-04-12T08:36:42Z</time></trkpt><trkpt lat="-30.682925357127004" lon="115.48068730620894"><ele>106.0</ele><time>2026-04-12T08:36:43Z</time></trkpt><trkpt lat="-30.682705597708967" lon="115.48049492284747"><ele>106.5</ele><time>2026-04-12T08:36:44Z</time></trkpt><trkpt lat="-30.6824889666274" lon="115.48030095084115"><ele>107.0</ele><time>2026-04-12T08:36:45Z</time></trkpt><trkpt lat="-30.682276068579384" lon="115.48010433211981"><ele>107.0</ele><time>2026-04-12T08:36:46Z</time></trkpt><trkpt lat="-30.682063109166684" lon="115.47990634253047"><ele>107.0</ele><time>2026-04-12T08:36:47Z</time></trkpt><trkpt lat="-30.68185013787043" lon="115.47971225262985"><ele>107.0</ele><time>2026-04-12T08:36:48Z</time></trkpt><trkpt lat="-30.68163327478018" lon="115.47952087906046"><ele>107.0</ele><time>2026-04-12T08:36:49Z</time></trkpt><trkpt lat="-30.6814168240474" lon="115.47932810747639"><ele>107.0</ele><time>2026-04-12T08:36:50Z</time></trkpt><trkpt lat="-30.681203366554506" lon="115.47913481691931"><ele>107.0</ele><time>2026-04-12T08:36:51Z</time></trkpt><trkpt lat="-30.680990524554115" lon="115.47894424152973"><ele>106.0</ele><time>2026-04-12T08:36:52Z</time></trkpt><trkpt lat="-30.680777327778365" lon="115.47875705282155"><ele>105.0</ele><time>2026-04-12T08:36:53Z</time></trkpt><trkpt lat="-30.680562714854133" lon="115.47857030409145"><ele>105.0</ele><time>2026-04-12T08:36:54Z</time></trkpt><trkpt lat="-30.680350505796778" lon="115.47837792101951"><ele>105.0</ele><time>2026-04-12T08:36:55Z</time></trkpt><trkpt lat="-30.680133740784427" lon="115.47817916544095"><ele>105.0</ele><time>2026-04-12T08:36:56Z</time></trkpt><trkpt lat="-30.679912911946058" lon="115.4779808013554"><ele>105.0</ele><time>2026-04-12T08:36:57Z</time></trkpt><trkpt lat="-30.679691738287197" lon="115.47778192453534"><ele>105.0</ele><time>2026-04-12T08:36:58Z</time></trkpt><trkpt lat="-30.67947234842421" lon="115.47758475206528"><ele>105.0</ele><time>2026-04-12T08:36:59Z</time></trkpt><trkpt lat="-30.67925356717458" lon="115.47738791647342"><ele>105.5</ele><time>2026-04-12T08:37:00Z</time></trkpt><trkpt lat="-30.679034773442623" lon="115.47719546939061"><ele>106.0</ele><time>2026-04-12T08:37:01Z</time></trkpt><trkpt lat="-30.678813398459116" lon="115.47700109018027"><ele>106.5</ele><time>2026-04-12T08:37:02Z</time></trkpt><trkpt lat="-30.678592128789067" lon="115.47680853725295"><ele>107.0</ele><time>2026-04-12T08:37:03Z</time></trkpt><trkpt lat="-30.67837128778724" lon="115.47661194060277"><ele>107.0</ele><time>2026-04-12T08:37:04Z</time></trkpt><trkpt lat="-30.67815424878322" lon="115.47641343818088"><ele>107.0</ele><time>2026-04-12T08:37:05Z</time></trkpt><trkpt lat="-30.677937765575432" lon="115.47621826733308"><ele>107.0</ele><time>2026-04-12T08:37:06Z</time></trkpt><trkpt lat="-30.67772155822988" lon="115.47602202826464"><ele>107.0</ele><time>2026-04-12T08:37:07Z</time></trkpt><trkpt lat="-30.677503369274167" lon="115.47582820561219"><ele>107.0</ele><time>2026-04-12T08:37:08Z</time></trkpt><trkpt lat="-30.677284115155945" lon="115.47563204703646"><ele>107.0</ele><time>2026-04-12T08:37:09Z</time></trkpt><trkpt lat="-30.67706743951204" lon="115.4754360233241"><ele>106.5</ele><time>2026-04-12T08:37:10Z</time></trkpt><trkpt lat="-30.676850039195987" lon="115.47523746063318"><ele>106.0</ele><time>2026-04-12T08:37:11Z</time></trkpt><trkpt lat="-30.676629046978547" lon="115.47504009050803"><ele>106.0</ele><time>2026-04-12T08:37:12Z</time></trkpt><trkpt lat="-30.676404846828312" lon="115.47484234437454"><ele>106.0</ele><time>2026-04-12T08:37:13Z</time></trkpt><trkpt lat="-30.67618332240729" lon="115.47464485243235"><ele>106.5</ele><time>2026-04-12T08:37:14Z</time></trkpt><trkpt lat="-30.675963359275805" lon="115.47444766792897"><ele>107.0</ele><time>2026-04-12T08:37:15Z</time></trkpt><trkpt lat="-30.67574513442871" lon="115.47424727944325"><ele>107.0</ele><time>2026-04-12T08:37:16Z</time></trkpt><trkpt lat="-30.675528464240767" lon="115.47404849153361"><ele>107.0</ele><time>2026-04-12T08:37:17Z</time></trkpt><trkpt lat="-30.67531019575531" lon="115.47385445707295"><ele>107.0</ele><time>2026-04-12T08:37:18Z</time></trkpt><trkpt lat="-30.67509097043692" lon="115.47365973399764"><ele>107.0</ele><time>2026-04-12T08:37:19Z</time></trkpt><trkpt lat="-30.674871952093884" lon="115.4734664910647"><ele>107.0</ele><time>2026-04-12T08:37:20Z</time></trkpt><trkpt lat="-30.674651732686947" lon="115.47327479099803"><ele>107.0</ele><time>2026-04-12T08:37:21Z</time></trkpt><trkpt lat="-30.674433427941345" lon="115.47308329123555"><ele>106.5</ele><time>2026-04-12T08:37:22Z</time></trkpt><trkpt lat="-30.67421612402413" lon="115.47288770180425"><ele>106.0</ele><time>2026-04-12T08:37:23Z</time></trkpt><trkpt lat="-30.674013469659354" lon="115.47270416421483"><ele>106.0</ele><time>2026-04-12T08:37:24Z</time></trkpt><trkpt lat="-30.673823866169894" lon="115.47253163373883"><ele>106.0</ele><time>2026-04-12T08:37:25Z</time></trkpt><trkpt lat="-30.673628817837166" lon="115.47235421985464"><ele>106.0</ele><time>2026-04-12T08:37:26Z</time></trkpt><trkpt lat="-30.67343231341013" lon="115.47217599511912"><ele>106.0</ele><time>2026-04-12T08:37:27Z</time></trkpt><trkpt lat="-30.673233600190308" lon="115.47199550838094"><ele>105.5</ele><time>2026-04-12T08:37:28Z</time></trkpt><trkpt lat="-30.673034035118107" lon="115.47181485733093"><ele>105.0</ele><time>2026-04-12T08:37:29Z</time></trkpt><trkpt lat="-30.67283097974108" lon="115.47163558433405"><ele>105.5</ele><time>2026-04-12T08:37:30Z</time></trkpt><trkpt lat="-30.672625480868597" lon="115.47145605122898"><ele>106.0</ele><time>2026-04-12T08:37:31Z</time></trkpt><trkpt lat="-30.672421940734978" lon="115.47127328357712"><ele>106.0</ele><time>2026-04-12T08:37:32Z</time></trkpt><trkpt lat="-30.67221817371969" lon="115.47108662455773"><ele>106.0</ele><time>2026-04-12T08:37:33Z</time></trkpt><trkpt lat="-30.672013721219898" lon="115.47090073494796"><ele>106.5</ele><time>2026-04-12T08:37:34Z</time></trkpt><trkpt lat="-30.671808513641338" lon="115.47071749939907"><ele>107.0</ele><time>2026-04-12T08:37:35Z</time></trkpt><trkpt lat="-30.671599465126963" lon="115.4705338942378"><ele>107.0</ele><time>2026-04-12T08:37:36Z</time></trkpt><trkpt lat="-30.67139142769696" lon="115.47034894716971"><ele>107.0</ele><time>2026-04-12T08:37:37Z</time></trkpt><trkpt lat="-30.671179867363715" lon="115.4701608590084"><ele>107.5</ele><time>2026-04-12T08:37:38Z</time></trkpt><trkpt lat="-30.670969860756266" lon="115.46997374580874"><ele>108.0</ele><time>2026-04-12T08:37:39Z</time></trkpt><trkpt lat="-30.670756949452052" lon="115.4697830948943"><ele>107.5</ele><time>2026-04-12T08:37:40Z</time></trkpt><trkpt lat="-30.67054355876265" lon="115.46959216403648"><ele>107.0</ele><time>2026-04-12T08:37:41Z</time></trkpt><trkpt lat="-30.670329392143756" lon="115.4694024682353"><ele>107.5</ele><time>2026-04-12T08:37:42Z</time></trkpt><trkpt lat="-30.670114738127666" lon="115.46921219552952"><ele>108.0</ele><time>2026-04-12T08:37:43Z</time></trkpt><trkpt lat="-30.669903218149525" lon="115.46902209427991"><ele>108.0</ele><time>2026-04-12T08:37:44Z</time></trkpt><trkpt lat="-30.66969244725136" lon="115.46883409308856"><ele>108.0</ele><time>2026-04-12T08:37:45Z</time></trkpt><trkpt lat="-30.669481387645316" lon="115.4686473041293"><ele>107.0</ele><time>2026-04-12T08:37:46Z</time></trkpt><trkpt lat="-30.66927191260694" lon="115.46846324595451"><ele>106.0</ele><time>2026-04-12T08:37:47Z</time></trkpt><trkpt lat="-30.669061353500933" lon="115.46828202534373"><ele>106.0</ele><time>2026-04-12T08:37:48Z</time></trkpt><trkpt lat="-30.66884426170077" lon="115.46810860566649"><ele>106.0</ele><time>2026-04-12T08:37:49Z</time></trkpt><trkpt lat="-30.6686209773463" lon="115.46794439457082"><ele>106.5</ele><time>2026-04-12T08:37:50Z</time></trkpt><trkpt lat="-30.668389483152207" lon="115.46778675981011"><ele>107.0</ele><time>2026-04-12T08:37:51Z</time></trkpt><trkpt lat="-30.66815359536072" lon="115.46763784458373"><ele>107.0</ele><time>2026-04-12T08:37:52Z</time></trkpt><trkpt lat="-30.66791379738208" lon="115.46749476989683"><ele>107.0</ele><time>2026-04-12T08:37:53Z</time></trkpt><trkpt lat="-30.667670194591352" lon="115.46736223478416"><ele>106.0</ele><time>2026-04-12T08:37:54Z</time></trkpt><trkpt lat="-30.667420417392965" lon="115.46724211547144"><ele>105.0</ele><time>2026-04-12T08:37:55Z</time></trkpt><trkpt lat="-30.667172151228563" lon="115.46713466763222"><ele>105.0</ele><time>2026-04-12T08:37:56Z</time></trkpt><trkpt lat="-30.666920964115114" lon="115.46703510501482"><ele>105.0</ele><time>2026-04-12T08:37:57Z</time></trkpt><trkpt lat="-30.666671365605104" lon="115.4669421259242"><ele>105.0</ele><time>2026-04-12T08:37:58Z</time></trkpt><trkpt lat="-30.666416828620548" lon="115.46685842677002"><ele>105.0</ele><time>2026-04-12T08:37:59Z</time></trkpt><trkpt lat="-30.666161690450718" lon="115.46678830831777"><ele>104.0</ele><time>2026-04-12T08:38:00Z</time></trkpt><trkpt lat="-30.665900991793357" lon="115.46673029293376"><ele>103.0</ele><time>2026-04-12T08:38:01Z</time></trkpt><trkpt lat="-30.665637529645768" lon="115.4666826328425"><ele>103.0</ele><time>2026-04-12T08:38:02Z</time></trkpt><trkpt lat="-30.66537035869654" lon="115.46663778574586"><ele>103.0</ele><time>2026-04-12T08:38:03Z</time></trkpt><trkpt lat="-30.6651086445662" lon="115.4665977947257"><ele>104.5</ele><time>2026-04-12T08:38:04Z</time></trkpt><trkpt lat="-30.664854259606276" lon="115.46657314392621"><ele>106.0</ele><time>2026-04-12T08:38:05Z</time></trkpt><trkpt lat="-30.66460554835316" lon="115.46655828611684"><ele>107.5</ele><time>2026-04-12T08:38:06Z</time></trkpt><trkpt lat="-30.66436834098946" lon="115.46655321450277"><ele>109.0</ele><time>2026-04-12T08:38:07Z</time></trkpt><trkpt lat="-30.664123912745392" lon="115.46655556383338"><ele>109.0</ele><time>2026-04-12T08:38:08Z</time></trkpt><trkpt lat="-30.663873077664906" lon="115.46656669441192"><ele>109.0</ele><time>2026-04-12T08:38:09Z</time></trkpt><trkpt lat="-30.663616578250355" lon="115.46657448492799"><ele>108.5</ele><time>2026-04-12T08:38:10Z</time></trkpt><trkpt lat="-30.663360531543717" lon="115.4665728443705"><ele>108.0</ele><time>2026-04-12T08:38:11Z</time></trkpt><trkpt lat="-30.6631049398913" lon="115.46656812409798"><ele>108.0</ele><time>2026-04-12T08:38:12Z</time></trkpt><trkpt lat="-30.662850741165126" lon="115.46656285163037"><ele>108.0</ele><time>2026-04-12T08:38:13Z</time></trkpt><trkpt lat="-30.662595795027627" lon="115.46656260021203"><ele>107.5</ele><time>2026-04-12T08:38:14Z</time></trkpt><trkpt lat="-30.662338564433153" lon="115.46656246350395"><ele>107.0</ele><time>2026-04-12T08:38:15Z</time></trkpt><trkpt lat="-30.662078211380482" lon="115.46656356356087"><ele>107.0</ele><time>2026-04-12T08:38:16Z</time></trkpt><trkpt lat="-30.66181812482634" lon="115.46656492535675"><ele>107.0</ele><time>2026-04-12T08:38:17Z</time></trkpt><trkpt lat="-30.661550737697826" lon="115.46656561435843"><ele>107.0</ele><time>2026-04-12T08:38:18Z</time></trkpt><trkpt lat="-30.661282199835256" lon="115.46656585346557"><ele>107.0</ele><time>2026-04-12T08:38:19Z</time></trkpt><trkpt lat="-30.661010637574297" lon="115.46656728051292"><ele>106.5</ele><time>2026-04-12T08:38:20Z</time></trkpt><trkpt lat="-30.66073662135847" lon="115.46656876041105"><ele>106.0</ele><time>2026-04-12T08:38:21Z</time></trkpt><trkpt lat="-30.660462565452708" lon="115.46657011945302"><ele>106.0</ele><time>2026-04-12T08:38:22Z</time></trkpt><trkpt lat="-30.660186222256403" lon="115.46657095200182"><ele>106.0</ele><time>2026-04-12T08:38:23Z</time></trkpt><trkpt lat="-30.659910850455358" lon="115.4665706058935"><ele>106.0</ele><time>2026-04-12T08:38:24Z</time></trkpt><trkpt lat="-30.659634529808635" lon="115.46657320708798"><ele>106.0</ele><time>2026-04-12T08:38:25Z</time></trkpt><trkpt lat="-30.65935842447347" lon="115.46657532912954"><ele>105.5</ele><time>2026-04-12T08:38:26Z</time></trkpt><trkpt lat="-30.65907917354076" lon="115.46657408939001"><ele>105.0</ele><time>2026-04-12T08:38:27Z</time></trkpt><trkpt lat="-30.658802143818892" lon="115.46656979913361"><ele>106.0</ele><time>2026-04-12T08:38:28Z</time></trkpt><trkpt lat="-30.658523878256997" lon="115.46656608226344"><ele>107.0</ele><time>2026-04-12T08:38:29Z</time></trkpt><trkpt lat="-30.65824925766333" lon="115.46656851708991"><ele>107.0</ele><time>2026-04-12T08:38:30Z</time></trkpt><trkpt lat="-30.65797205346728" lon="115.46657300551811"><ele>107.0</ele><time>2026-04-12T08:38:31Z</time></trkpt><trkpt lat="-30.65769305552239" lon="115.46657689671768"><ele>107.0</ele><time>2026-04-12T08:38:32Z</time></trkpt><trkpt lat="-30.657412544576147" lon="115.46657971112977"><ele>107.0</ele><time>2026-04-12T08:38:33Z</time></trkpt><trkpt lat="-30.6571318667287" lon="115.4665781218141"><ele>106.5</ele><time>2026-04-12T08:38:34Z</time></trkpt><trkpt lat="-30.65685121758417" lon="115.46657374547227"><ele>106.0</ele><time>2026-04-12T08:38:35Z</time></trkpt><trkpt lat="-30.656571428346492" lon="115.46657225677504"><ele>106.0</ele><time>2026-04-12T08:38:36Z</time></trkpt><trkpt lat="-30.656294843336195" lon="115.46657621195529"><ele>106.0</ele><time>2026-04-12T08:38:37Z</time></trkpt><trkpt lat="-30.656015463819074" lon="115.46657755729963"><ele>106.5</ele><time>2026-04-12T08:38:38Z</time></trkpt><trkpt lat="-30.655740321855195" lon="115.46657724091594"><ele>107.0</ele><time>2026-04-12T08:38:39Z</time></trkpt><trkpt lat="-30.655465930106413" lon="115.46657506418798"><ele>107.5</ele><time>2026-04-12T08:38:40Z</time></trkpt><trkpt lat="-30.65519531195735" lon="115.46657363058036"><ele>108.0</ele><time>2026-04-12T08:38:41Z</time></trkpt><trkpt lat="-30.65492336288219" lon="115.46657449767086"><ele>108.0</ele><time>2026-04-12T08:38:42Z</time></trkpt><trkpt lat="-30.65465320557134" lon="115.46657608209377"><ele>108.0</ele><time>2026-04-12T08:38:43Z</time></trkpt><trkpt lat="-30.6543828460696" lon="115.46657776543066"><ele>110.0</ele><time>2026-04-12T08:38:44Z</time></trkpt><trkpt lat="-30.654112466893025" lon="115.46658218689801"><ele>112.0</ele><time>2026-04-12T08:38:45Z</time></trkpt><trkpt lat="-30.65384201899687" lon="115.46658454340651"><ele>113.0</ele><time>2026-04-12T08:38:46Z</time></trkpt><trkpt lat="-30.653571784316604" lon="115.46658403396331"><ele>114.0</ele><time>2026-04-12T08:38:47Z</time></trkpt><trkpt lat="-30.653300551022337" lon="115.46657841153497"><ele>114.0</ele><time>2026-04-12T08:38:48Z</time></trkpt><trkpt lat="-30.65302680062385" lon="115.46656836262471"><ele>114.0</ele><time>2026-04-12T08:38:49Z</time></trkpt><trkpt lat="-30.652752400100603" lon="115.46655209382232"><ele>115.0</ele><time>2026-04-12T08:38:50Z</time></trkpt><trkpt lat="-30.652477824327327" lon="115.46652558382472"><ele>116.0</ele><time>2026-04-12T08:38:51Z</time></trkpt><trkpt lat="-30.652205804099342" lon="115.46648823383924"><ele>116.5</ele><time>2026-04-12T08:38:52Z</time></trkpt><trkpt lat="-30.65193652507739" lon="115.46643803669824"><ele>117.0</ele><time>2026-04-12T08:38:53Z</time></trkpt><trkpt lat="-30.651668481516545" lon="115.46638312560623"><ele>117.0</ele><time>2026-04-12T08:38:54Z</time></trkpt><trkpt lat="-30.651399768879678" lon="115.4663334678714"><ele>117.0</ele><time>2026-04-12T08:38:55Z</time></trkpt><trkpt lat="-30.65112991724832" lon="115.46629123190553"><ele>117.5</ele><time>2026-04-12T08:38:56Z</time></trkpt><trkpt lat="-30.65086317418578" lon="115.46625204198027"><ele>118.0</ele><time>2026-04-12T08:38:57Z</time></trkpt><trkpt lat="-30.650595812651733" lon="115.46621492202324"><ele>118.0</ele><time>2026-04-12T08:38:58Z</time></trkpt><trkpt lat="-30.650327590923112" lon="115.46617792631572"><ele>118.0</ele><time>2026-04-12T08:38:59Z</time></trkpt><trkpt lat="-30.650057719830837" lon="115.4661334764865"><ele>118.5</ele><time>2026-04-12T08:39:00Z</time></trkpt><trkpt lat="-30.64980318184819" lon="115.46609130093542"><ele>119.0</ele><time>2026-04-12T08:39:01Z</time></trkpt><trkpt lat="-30.649559442092038" lon="115.46604934719184"><ele>121.5</ele><time>2026-04-12T08:39:02Z</time></trkpt><trkpt lat="-30.64930955078183" lon="115.46601030596274"><ele>124.0</ele><time>2026-04-12T08:39:03Z</time></trkpt><trkpt lat="-30.649052233600923" lon="115.46597101615174"><ele>124.0</ele><time>2026-04-12T08:39:04Z</time></trkpt><trkpt lat="-30.64879200085648" lon="115.46592932234418"><ele>124.0</ele><time>2026-04-12T08:39:05Z</time></trkpt><trkpt lat="-30.648524788268844" lon="115.4658801655316"><ele>126.0</ele><time>2026-04-12T08:39:06Z</time></trkpt><trkpt lat="-30.64825334083989" lon="115.46582858483765"><ele>128.0</ele><time>2026-04-12T08:39:07Z</time></trkpt><trkpt lat="-30.647978607055702" lon="115.4657812037014"><ele>129.5</ele><time>2026-04-12T08:39:08Z</time></trkpt><trkpt lat="-30.64770459227633" lon="115.46573768385247"><ele>131.0</ele><time>2026-04-12T08:39:09Z</time></trkpt><trkpt lat="-30.64742996030082" lon="115.4656932877486"><ele>131.0</ele><time>2026-04-12T08:39:10Z</time></trkpt><trkpt lat="-30.64715735096842" lon="115.46565103123851"><ele>131.0</ele><time>2026-04-12T08:39:11Z</time></trkpt><trkpt lat="-30.64688194946871" lon="115.46560802528514"><ele>130.5</ele><time>2026-04-12T08:39:12Z</time></trkpt><trkpt lat="-30.646607328796577" lon="115.46556598412617"><ele>130.0</ele><time>2026-04-12T08:39:13Z</time></trkpt><trkpt lat="-30.646331858951847" lon="115.4655235676392"><ele>131.5</ele><time>2026-04-12T08:39:14Z</time></trkpt><trkpt lat="-30.64605565841188" lon="115.46548399069174"><ele>133.0</ele><time>2026-04-12T08:39:15Z</time></trkpt><trkpt lat="-30.645777686972366" lon="115.46544330929105"><ele>133.0</ele><time>2026-04-12T08:39:16Z</time></trkpt><trkpt lat="-30.645499484862434" lon="115.46539866331709"><ele>133.0</ele><time>2026-04-12T08:39:17Z</time></trkpt><trkpt lat="-30.645223313821216" lon="115.46535305799247"><ele>134.0</ele><time>2026-04-12T08:39:18Z</time></trkpt><trkpt lat="-30.644947570747448" lon="115.46531220483094"><ele>135.0</ele><time>2026-04-12T08:39:19Z</time></trkpt><trkpt lat="-30.644675176604473" lon="115.46527337345677"><ele>134.5</ele><time>2026-04-12T08:39:20Z</time></trkpt><trkpt lat="-30.64440216049659" lon="115.46523043964241"><ele>134.0</ele><time>2026-04-12T08:39:21Z</time></trkpt><trkpt lat="-30.644127537743923" lon="115.46518782475266"><ele>134.0</ele><time>2026-04-12T08:39:22Z</time></trkpt><trkpt lat="-30.643856462052725" lon="115.46514124743248"><ele>134.0</ele><time>2026-04-12T08:39:23Z</time></trkpt><trkpt lat="-30.64358327475211" lon="115.46509355353388"><ele>135.0</ele><time>2026-04-12T08:39:24Z</time></trkpt><trkpt lat="-30.643312148856097" lon="115.4650467109879"><ele>136.0</ele><time>2026-04-12T08:39:25Z</time></trkpt><trkpt lat="-30.64304142766294" lon="115.46500290085514"><ele>135.0</ele><time>2026-04-12T08:39:26Z</time></trkpt><trkpt lat="-30.642770852068438" lon="115.46496002790936"><ele>134.0</ele><time>2026-04-12T08:39:27Z</time></trkpt><trkpt lat="-30.642499838647332" lon="115.46491498895759"><ele>134.0</ele><time>2026-04-12T08:39:28Z</time></trkpt><trkpt lat="-30.642231927124705" lon="115.46487103665622"><ele>134.0</ele><time>2026-04-12T08:39:29Z</time></trkpt><trkpt lat="-30.641966666130624" lon="115.46482799839684"><ele>133.0</ele><time>2026-04-12T08:39:30Z</time></trkpt><trkpt lat="-30.64170236891522" lon="115.46478674376112"><ele>132.0</ele><time>2026-04-12T08:39:31Z</time></trkpt><trkpt lat="-30.64143418232749" lon="115.4647461372074"><ele>132.0</ele><time>2026-04-12T08:39:32Z</time></trkpt><trkpt lat="-30.641168587580204" lon="115.46470335513983"><ele>132.0</ele><time>2026-04-12T08:39:33Z</time></trkpt><trkpt lat="-30.640901763999878" lon="115.46466183560568"><ele>133.0</ele><time>2026-04-12T08:39:34Z</time></trkpt><trkpt lat="-30.640637646833987" lon="115.46462122982723"><ele>134.0</ele><time>2026-04-12T08:39:35Z</time></trkpt><trkpt lat="-30.640373524544536" lon="115.46457913143254"><ele>134.5</ele><time>2026-04-12T08:39:36Z</time></trkpt><trkpt lat="-30.640109469519356" lon="115.46453895692697"><ele>135.0</ele><time>2026-04-12T08:39:37Z</time></trkpt><trkpt lat="-30.639845533739052" lon="115.46449866586664"><ele>135.0</ele><time>2026-04-12T08:39:38Z</time></trkpt><trkpt lat="-30.639579767428806" lon="115.46445693540727"><ele>135.0</ele><time>2026-04-12T08:39:39Z</time></trkpt><trkpt lat="-30.63931702105015" lon="115.46441472314172"><ele>135.5</ele><time>2026-04-12T08:39:40Z</time></trkpt><trkpt lat="-30.639052384983202" lon="115.46437142305076"><ele>136.0</ele><time>2026-04-12T08:39:41Z</time></trkpt><trkpt lat="-30.638787025781724" lon="115.46433035699393"><ele>136.5</ele><time>2026-04-12T08:39:42Z</time></trkpt><trkpt lat="-30.63852121148299" lon="115.46428620459602"><ele>137.0</ele><time>2026-04-12T08:39:43Z</time></trkpt><trkpt lat="-30.638248915263915" lon="115.46423923328916"><ele>137.0</ele><time>2026-04-12T08:39:44Z</time></trkpt><trkpt lat="-30.63797072267485" lon="115.46419199845178"><ele>137.0</ele><time>2026-04-12T08:39:45Z</time></trkpt><trkpt lat="-30.637688259314785" lon="115.4641478011431"><ele>137.5</ele><time>2026-04-12T08:39:46Z</time></trkpt><trkpt lat="-30.637407138764946" lon="115.46410518186879"><ele>138.0</ele><time>2026-04-12T08:39:47Z</time></trkpt><trkpt lat="-30.63712509440556" lon="115.46406666016725"><ele>138.0</ele><time>2026-04-12T08:39:48Z</time></trkpt><trkpt lat="-30.63684501256325" lon="115.4640299105128"><ele>138.0</ele><time>2026-04-12T08:39:49Z</time></trkpt><trkpt lat="-30.6365675877836" lon="115.4639947365563"><ele>138.0</ele><time>2026-04-12T08:39:50Z</time></trkpt><trkpt lat="-30.636293639972028" lon="115.46395643162553"><ele>138.0</ele><time>2026-04-12T08:39:51Z</time></trkpt><trkpt lat="-30.636024053756355" lon="115.46390766638854"><ele>138.0</ele><time>2026-04-12T08:39:52Z</time></trkpt><trkpt lat="-30.635761472477405" lon="115.46385803986887"><ele>138.0</ele><time>2026-04-12T08:39:53Z</time></trkpt><trkpt lat="-30.6355022299573" lon="115.46382595385677"><ele>139.0</ele><time>2026-04-12T08:39:54Z</time></trkpt><trkpt lat="-30.635243768894682" lon="115.46380650852157"><ele>140.0</ele><time>2026-04-12T08:39:55Z</time></trkpt><trkpt lat="-30.63498548047451" lon="115.4637963312596"><ele>140.0</ele><time>2026-04-12T08:39:56Z</time></trkpt><trkpt lat="-30.634727205338045" lon="115.46379688338644"><ele>140.0</ele><time>2026-04-12T08:39:57Z</time></trkpt><trkpt lat="-30.634471762489117" lon="115.46381286375795"><ele>140.0</ele><time>2026-04-12T08:39:58Z</time></trkpt><trkpt lat="-30.634215987110306" lon="115.46384096874883"><ele>140.0</ele><time>2026-04-12T08:39:59Z</time></trkpt><trkpt lat="-30.63395956788554" lon="115.46387372386299"><ele>140.0</ele><time>2026-04-12T08:40:00Z</time></trkpt><trkpt lat="-30.633702791277212" lon="115.46391231765494"><ele>140.0</ele><time>2026-04-12T08:40:01Z</time></trkpt><trkpt lat="-30.633448898012457" lon="115.46395608381488"><ele>141.0</ele><time>2026-04-12T08:40:02Z</time></trkpt><trkpt lat="-30.633193303135393" lon="115.46399874349423"><ele>142.0</ele><time>2026-04-12T08:40:03Z</time></trkpt><trkpt lat="-30.632937744121918" lon="115.4640314834076"><ele>140.5</ele><time>2026-04-12T08:40:04Z</time></trkpt><trkpt lat="-30.63268217148747" lon="115.46406192706559"><ele>139.0</ele><time>2026-04-12T08:40:05Z</time></trkpt><trkpt lat="-30.63242459412951" lon="115.46409939517926"><ele>139.0</ele><time>2026-04-12T08:40:06Z</time></trkpt><trkpt lat="-30.632166022942542" lon="115.46414164609257"><ele>139.0</ele><time>2026-04-12T08:40:07Z</time></trkpt><trkpt lat="-30.63190814655613" lon="115.46418418508455"><ele>141.5</ele><time>2026-04-12T08:40:08Z</time></trkpt><trkpt lat="-30.63164861608519" lon="115.46422186354721"><ele>144.0</ele><time>2026-04-12T08:40:09Z</time></trkpt><trkpt lat="-30.63138689429495" lon="115.46425216693298"><ele>145.5</ele><time>2026-04-12T08:40:10Z</time></trkpt><trkpt lat="-30.631126459090172" lon="115.46428463626712"><ele>147.0</ele><time>2026-04-12T08:40:11Z</time></trkpt><trkpt lat="-30.63086710751883" lon="115.46431965829194"><ele>147.0</ele><time>2026-04-12T08:40:12Z</time></trkpt><trkpt lat="-30.63060635513024" lon="115.46435743698814"><ele>147.0</ele><time>2026-04-12T08:40:13Z</time></trkpt><trkpt lat="-30.630342101155595" lon="115.46439585955754"><ele>147.0</ele><time>2026-04-12T08:40:14Z</time></trkpt><trkpt lat="-30.630072989287765" lon="115.46443573263919"><ele>147.0</ele><time>2026-04-12T08:40:15Z</time></trkpt><trkpt lat="-30.629806294885064" lon="115.46447400879428"><ele>147.0</ele><time>2026-04-12T08:40:16Z</time></trkpt><trkpt lat="-30.62953949387304" lon="115.4645127368959"><ele>147.0</ele><time>2026-04-12T08:40:17Z</time></trkpt><trkpt lat="-30.629278623804655" lon="115.46454906033748"><ele>147.0</ele><time>2026-04-12T08:40:18Z</time></trkpt><trkpt lat="-30.629019734783345" lon="115.46458862770946"><ele>147.0</ele><time>2026-04-12T08:40:19Z</time></trkpt><trkpt lat="-30.628761741858263" lon="115.46462783780703"><ele>147.5</ele><time>2026-04-12T08:40:20Z</time></trkpt><trkpt lat="-30.62850467768119" lon="115.4646661215643"><ele>148.0</ele><time>2026-04-12T08:40:21Z</time></trkpt><trkpt lat="-30.62824419924279" lon="115.46470464177843"><ele>148.0</ele><time>2026-04-12T08:40:22Z</time></trkpt><trkpt lat="-30.627982029946462" lon="115.46474095998276"><ele>148.0</ele><time>2026-04-12T08:40:23Z</time></trkpt><trkpt lat="-30.62771978123009" lon="115.46477838431197"><ele>148.0</ele><time>2026-04-12T08:40:24Z</time></trkpt><trkpt lat="-30.627451528767605" lon="115.46481850644075"><ele>148.0</ele><time>2026-04-12T08:40:25Z</time></trkpt><trkpt lat="-30.62718401471737" lon="115.46485856723069"><ele>147.5</ele><time>2026-04-12T08:40:26Z</time></trkpt><trkpt lat="-30.626912980887944" lon="115.4648978204471"><ele>147.0</ele><time>2026-04-12T08:40:27Z</time></trkpt><trkpt lat="-30.62664098227569" lon="115.46493510839217"><ele>147.0</ele><time>2026-04-12T08:40:28Z</time></trkpt><trkpt lat="-30.62637065352175" lon="115.4649732109302"><ele>147.0</ele><time>2026-04-12T08:40:29Z</time></trkpt><trkpt lat="-30.626098739919453" lon="115.46501284890975"><ele>147.5</ele><time>2026-04-12T08:40:30Z</time></trkpt><trkpt lat="-30.62582984424281" lon="115.46505301298633"><ele>148.0</ele><time>2026-04-12T08:40:31Z</time></trkpt><trkpt lat="-30.62556683451019" lon="115.46508982190714"><ele>148.5</ele><time>2026-04-12T08:40:32Z</time></trkpt><trkpt lat="-30.625305932776744" lon="115.46512734118485"><ele>149.0</ele><time>2026-04-12T08:40:33Z</time></trkpt><trkpt lat="-30.6250504364299" lon="115.46516640148931"><ele>149.0</ele><time>2026-04-12T08:40:34Z</time></trkpt><trkpt lat="-30.62479357299683" lon="115.46520347476469"><ele>149.0</ele><time>2026-04-12T08:40:35Z</time></trkpt><trkpt lat="-30.62454304427106" lon="115.46523918442062"><ele>149.0</ele><time>2026-04-12T08:40:36Z</time></trkpt><trkpt lat="-30.62429536366499" lon="115.46527167862449"><ele>149.0</ele><time>2026-04-12T08:40:37Z</time></trkpt><trkpt lat="-30.624045897946278" lon="115.4653049390923"><ele>149.0</ele><time>2026-04-12T08:40:38Z</time></trkpt><trkpt lat="-30.623799539586642" lon="115.46534027088124"><ele>149.0</ele><time>2026-04-12T08:40:39Z</time></trkpt><trkpt lat="-30.62354962309804" lon="115.46537607496857"><ele>149.0</ele><time>2026-04-12T08:40:40Z</time></trkpt><trkpt lat="-30.623300792463535" lon="115.46541252638067"><ele>149.0</ele><time>2026-04-12T08:40:41Z</time></trkpt><trkpt lat="-30.62305309065511" lon="115.46545057127446"><ele>148.5</ele><time>2026-04-12T08:40:42Z</time></trkpt><trkpt lat="-30.62280414302525" lon="115.46549034283476"><ele>148.0</ele><time>2026-04-12T08:40:43Z</time></trkpt><trkpt lat="-30.622557787128176" lon="115.46552618015228"><ele>148.0</ele><time>2026-04-12T08:40:44Z</time></trkpt><trkpt lat="-30.622310801731988" lon="115.46556099702501"><ele>148.0</ele><time>2026-04-12T08:40:45Z</time></trkpt><trkpt lat="-30.62206090622904" lon="115.46559506438804"><ele>147.5</ele><time>2026-04-12T08:40:46Z</time></trkpt><trkpt lat="-30.621812048837768" lon="115.46563247163883"><ele>147.0</ele><time>2026-04-12T08:40:47Z</time></trkpt><trkpt lat="-30.621559503957645" lon="115.46567264587873"><ele>147.0</ele><time>2026-04-12T08:40:48Z</time></trkpt><trkpt lat="-30.621305252674027" lon="115.46571077595293"><ele>147.0</ele><time>2026-04-12T08:40:49Z</time></trkpt><trkpt lat="-30.621050028466627" lon="115.465747961914"><ele>147.0</ele><time>2026-04-12T08:40:50Z</time></trkpt><trkpt lat="-30.62079417385221" lon="115.46578363039829"><ele>147.0</ele><time>2026-04-12T08:40:51Z</time></trkpt><trkpt lat="-30.62053725183472" lon="115.46581870212584"><ele>147.5</ele><time>2026-04-12T08:40:52Z</time></trkpt><trkpt lat="-30.62027911149454" lon="115.46585366368289"><ele>148.0</ele><time>2026-04-12T08:40:53Z</time></trkpt><trkpt lat="-30.620023611588657" lon="115.46589122521796"><ele>148.0</ele><time>2026-04-12T08:40:54Z</time></trkpt><trkpt lat="-30.619766841401212" lon="115.46592573334378"><ele>148.0</ele><time>2026-04-12T08:40:55Z</time></trkpt><trkpt lat="-30.619511500771655" lon="115.46596098044944"><ele>148.0</ele><time>2026-04-12T08:40:56Z</time></trkpt><trkpt lat="-30.61925797904986" lon="115.46599874488544"><ele>148.0</ele><time>2026-04-12T08:40:57Z</time></trkpt><trkpt lat="-30.619006751799112" lon="115.46603683924519"><ele>148.0</ele><time>2026-04-12T08:40:58Z</time></trkpt><trkpt lat="-30.618752462497348" lon="115.46607507885413"><ele>148.0</ele><time>2026-04-12T08:40:59Z</time></trkpt><trkpt lat="-30.618498842780014" lon="115.46611344238123"><ele>148.5</ele><time>2026-04-12T08:41:00Z</time></trkpt><trkpt lat="-30.618244764445212" lon="115.4661511603085"><ele>149.0</ele><time>2026-04-12T08:41:01Z</time></trkpt><trkpt lat="-30.617988890072343" lon="115.46618827600572"><ele>149.0</ele><time>2026-04-12T08:41:02Z</time></trkpt><trkpt lat="-30.61772707186918" lon="115.4662260221159"><ele>149.0</ele><time>2026-04-12T08:41:03Z</time></trkpt><trkpt lat="-30.61746319597121" lon="115.4662625945277"><ele>149.0</ele><time>2026-04-12T08:41:04Z</time></trkpt><trkpt lat="-30.61720395660313" lon="115.46629942555779"><ele>149.0</ele><time>2026-04-12T08:41:05Z</time></trkpt><trkpt lat="-30.61694555751855" lon="115.46634020127458"><ele>149.5</ele><time>2026-04-12T08:41:06Z</time></trkpt><trkpt lat="-30.61668659422972" lon="115.46638219645074"><ele>150.0</ele><time>2026-04-12T08:41:07Z</time></trkpt><trkpt lat="-30.61642900354048" lon="115.46642145607613"><ele>150.0</ele><time>2026-04-12T08:41:08Z</time></trkpt><trkpt lat="-30.616170653790647" lon="115.46645617410827"><ele>150.0</ele><time>2026-04-12T08:41:09Z</time></trkpt><trkpt lat="-30.615913012802967" lon="115.46648791221199"><ele>150.5</ele><time>2026-04-12T08:41:10Z</time></trkpt><trkpt lat="-30.615661887182373" lon="115.46651607522341"><ele>151.0</ele><time>2026-04-12T08:41:11Z</time></trkpt><trkpt lat="-30.615409555361033" lon="115.46654750995526"><ele>149.5</ele><time>2026-04-12T08:41:12Z</time></trkpt><trkpt lat="-30.615158386037802" lon="115.46658091724856"><ele>148.0</ele><time>2026-04-12T08:41:13Z</time></trkpt><trkpt lat="-30.61490054200316" lon="115.46659999812132"><ele>148.0</ele><time>2026-04-12T08:41:14Z</time></trkpt><trkpt lat="-30.61464403908209" lon="115.46660590193756"><ele>148.0</ele><time>2026-04-12T08:41:15Z</time></trkpt><trkpt lat="-30.614386289631728" lon="115.46660400008865"><ele>148.0</ele><time>2026-04-12T08:41:16Z</time></trkpt><trkpt lat="-30.6141273637362" lon="115.46659584408236"><ele>148.0</ele><time>2026-04-12T08:41:17Z</time></trkpt><trkpt lat="-30.61386260668549" lon="115.46658852459142"><ele>149.0</ele><time>2026-04-12T08:41:18Z</time></trkpt><trkpt lat="-30.613596949642734" lon="115.4665876895698"><ele>150.0</ele><time>2026-04-12T08:41:19Z</time></trkpt><trkpt lat="-30.61333105285605" lon="115.46659167323287"><ele>150.0</ele><time>2026-04-12T08:41:20Z</time></trkpt><trkpt lat="-30.613063872379865" lon="115.46659551168705"><ele>150.0</ele><time>2026-04-12T08:41:21Z</time></trkpt><trkpt lat="-30.61279687628755" lon="115.46659634556474"><ele>151.5</ele><time>2026-04-12T08:41:22Z</time></trkpt><trkpt lat="-30.612528836913455" lon="115.46659687701302"><ele>153.0</ele><time>2026-04-12T08:41:23Z</time></trkpt><trkpt lat="-30.6122583991741" lon="115.46659733684837"><ele>154.5</ele><time>2026-04-12T08:41:24Z</time></trkpt><trkpt lat="-30.61198996070406" lon="115.4665992966495"><ele>156.0</ele><time>2026-04-12T08:41:25Z</time></trkpt><trkpt lat="-30.61172022845241" lon="115.4665974342454"><ele>156.0</ele><time>2026-04-12T08:41:26Z</time></trkpt><trkpt lat="-30.611450550698653" lon="115.46659475652099"><ele>156.0</ele><time>2026-04-12T08:41:27Z</time></trkpt><trkpt lat="-30.611180662269707" lon="115.4665911139424"><ele>156.5</ele><time>2026-04-12T08:41:28Z</time></trkpt><trkpt lat="-30.610906757717103" lon="115.46659070428849"><ele>157.0</ele><time>2026-04-12T08:41:29Z</time></trkpt><trkpt lat="-30.61064287648931" lon="115.4665911437665"><ele>157.0</ele><time>2026-04-12T08:41:30Z</time></trkpt><trkpt lat="-30.610397541243962" lon="115.46659088111825"><ele>157.0</ele><time>2026-04-12T08:41:31Z</time></trkpt><trkpt lat="-30.61015067966021" lon="115.46659067341892"><ele>156.0</ele><time>2026-04-12T08:41:32Z</time></trkpt><trkpt lat="-30.609892646526685" lon="115.466591615731"><ele>155.0</ele><time>2026-04-12T08:41:33Z</time></trkpt><trkpt lat="-30.609633579214307" lon="115.46658987024301"><ele>155.0</ele><time>2026-04-12T08:41:34Z</time></trkpt><trkpt lat="-30.609372890124114" lon="115.46658715334776"><ele>155.0</ele><time>2026-04-12T08:41:35Z</time></trkpt><trkpt lat="-30.609109632736654" lon="115.46658504756051"><ele>155.0</ele><time>2026-04-12T08:41:36Z</time></trkpt><trkpt lat="-30.608844057637587" lon="115.46658490842137"><ele>155.0</ele><time>2026-04-12T08:41:37Z</time></trkpt><trkpt lat="-30.60857556287348" lon="115.46658442752336"><ele>156.0</ele><time>2026-04-12T08:41:38Z</time></trkpt><trkpt lat="-30.608304232367168" lon="115.46658238953371"><ele>157.0</ele><time>2026-04-12T08:41:39Z</time></trkpt><trkpt lat="-30.6080351339173" lon="115.46657871712758"><ele>157.0</ele><time>2026-04-12T08:41:40Z</time></trkpt><trkpt lat="-30.60776624772427" lon="115.46657561363882"><ele>157.0</ele><time>2026-04-12T08:41:41Z</time></trkpt><trkpt lat="-30.60750022027213" lon="115.46657520052251"><ele>157.0</ele><time>2026-04-12T08:41:42Z</time></trkpt><trkpt lat="-30.607234597222526" lon="115.46657843079514"><ele>157.0</ele><time>2026-04-12T08:41:43Z</time></trkpt><trkpt lat="-30.606967327038024" lon="115.46658180846904"><ele>156.5</ele><time>2026-04-12T08:41:44Z</time></trkpt><trkpt lat="-30.606699371927125" lon="115.46658453831995"><ele>156.0</ele><time>2026-04-12T08:41:45Z</time></trkpt><trkpt lat="-30.606427102447714" lon="115.4665841062203"><ele>155.5</ele><time>2026-04-12T08:41:46Z</time></trkpt><trkpt lat="-30.606154372847502" lon="115.4665826890479"><ele>155.0</ele><time>2026-04-12T08:41:47Z</time></trkpt><trkpt lat="-30.605881432713176" lon="115.46658097539402"><ele>155.0</ele><time>2026-04-12T08:41:48Z</time></trkpt><trkpt lat="-30.605609747131794" lon="115.46658158133872"><ele>155.0</ele><time>2026-04-12T08:41:49Z</time></trkpt><trkpt lat="-30.605334499151812" lon="115.46657967764799"><ele>156.0</ele><time>2026-04-12T08:41:50Z</time></trkpt><trkpt lat="-30.605058818065654" lon="115.46657741247297"><ele>157.0</ele><time>2026-04-12T08:41:51Z</time></trkpt><trkpt lat="-30.604782919620718" lon="115.46657648107346"><ele>157.0</ele><time>2026-04-12T08:41:52Z</time></trkpt><trkpt lat="-30.604502675175624" lon="115.46657724681475"><ele>157.0</ele><time>2026-04-12T08:41:53Z</time></trkpt><trkpt lat="-30.604224783341454" lon="115.46657808861877"><ele>158.0</ele><time>2026-04-12T08:41:54Z</time></trkpt><trkpt lat="-30.603943147213233" lon="115.46657708383557"><ele>159.0</ele><time>2026-04-12T08:41:55Z</time></trkpt><trkpt lat="-30.603660561670377" lon="115.46657495169055"><ele>159.0</ele><time>2026-04-12T08:41:56Z</time></trkpt><trkpt lat="-30.603378124398805" lon="115.46657025813376"><ele>159.0</ele><time>2026-04-12T08:41:57Z</time></trkpt><trkpt lat="-30.60309343207254" lon="115.4665660625093"><ele>160.5</ele><time>2026-04-12T08:41:58Z</time></trkpt><trkpt lat="-30.60281360885561" lon="115.46656290712922"><ele>162.0</ele><time>2026-04-12T08:41:59Z</time></trkpt><trkpt lat="-30.602533706471682" lon="115.4665628742608"><ele>162.0</ele><time>2026-04-12T08:42:00Z</time></trkpt><trkpt lat="-30.602253262444794" lon="115.46656387690162"><ele>162.0</ele><time>2026-04-12T08:42:01Z</time></trkpt><trkpt lat="-30.60196856853408" lon="115.46656359962067"><ele>162.5</ele><time>2026-04-12T08:42:02Z</time></trkpt><trkpt lat="-30.60168119795488" lon="115.46655893001017"><ele>163.0</ele><time>2026-04-12T08:42:03Z</time></trkpt><trkpt lat="-30.601395181108334" lon="115.46654111501067"><ele>163.0</ele><time>2026-04-12T08:42:04Z</time></trkpt><trkpt lat="-30.60111161387437" lon="115.46650452001182"><ele>163.0</ele><time>2026-04-12T08:42:05Z</time></trkpt><trkpt lat="-30.600830428403356" lon="115.46645530178988"><ele>163.0</ele><time>2026-04-12T08:42:06Z</time></trkpt><trkpt lat="-30.60054657118057" lon="115.46639966416633"><ele>163.0</ele><time>2026-04-12T08:42:07Z</time></trkpt><trkpt lat="-30.600262264788274" lon="115.46633726075405"><ele>162.5</ele><time>2026-04-12T08:42:08Z</time></trkpt><trkpt lat="-30.599977365816812" lon="115.46626517317529"><ele>162.0</ele><time>2026-04-12T08:42:09Z</time></trkpt><trkpt lat="-30.59969058762992" lon="115.4661889380936"><ele>161.0</ele><time>2026-04-12T08:42:10Z</time></trkpt><trkpt lat="-30.599405779396598" lon="115.4661130526651"><ele>160.0</ele><time>2026-04-12T08:42:11Z</time></trkpt><trkpt lat="-30.59912223496948" lon="115.46604232976061"><ele>160.0</ele><time>2026-04-12T08:42:12Z</time></trkpt><trkpt lat="-30.5988405475658" lon="115.465973185728"><ele>160.0</ele><time>2026-04-12T08:42:13Z</time></trkpt><trkpt lat="-30.598559641919234" lon="115.46590515606947"><ele>160.5</ele><time>2026-04-12T08:42:14Z</time></trkpt><trkpt lat="-30.59828172794202" lon="115.46583864940817"><ele>161.0</ele><time>2026-04-12T08:42:15Z</time></trkpt><trkpt lat="-30.598006585508397" lon="115.46577146375265"><ele>161.0</ele><time>2026-04-12T08:42:16Z</time></trkpt><trkpt lat="-30.59773251291486" lon="115.4657036218687"><ele>161.0</ele><time>2026-04-12T08:42:17Z</time></trkpt><trkpt lat="-30.59745920993712" lon="115.4656361084897"><ele>161.0</ele><time>2026-04-12T08:42:18Z</time></trkpt><trkpt lat="-30.597188756526474" lon="115.46556899556255"><ele>161.0</ele><time>2026-04-12T08:42:19Z</time></trkpt><trkpt lat="-30.596922036572952" lon="115.4654967322582"><ele>160.0</ele><time>2026-04-12T08:42:20Z</time></trkpt><trkpt lat="-30.596653787775264" lon="115.46542656967124"><ele>159.0</ele><time>2026-04-12T08:42:21Z</time></trkpt><trkpt lat="-30.59638956183427" lon="115.46535888790811"><ele>160.5</ele><time>2026-04-12T08:42:22Z</time></trkpt><trkpt lat="-30.59612422169149" lon="115.46529447708146"><ele>162.0</ele><time>2026-04-12T08:42:23Z</time></trkpt><trkpt lat="-30.59586201230771" lon="115.46522801757746"><ele>162.0</ele><time>2026-04-12T08:42:24Z</time></trkpt><trkpt lat="-30.59560038073698" lon="115.46516168518325"><ele>162.0</ele><time>2026-04-12T08:42:25Z</time></trkpt><trkpt lat="-30.59534157694926" lon="115.46509690612297"><ele>161.5</ele><time>2026-04-12T08:42:26Z</time></trkpt><trkpt lat="-30.595084340689624" lon="115.46503082483214"><ele>161.0</ele><time>2026-04-12T08:42:27Z</time></trkpt><trkpt lat="-30.594832361578195" lon="115.46496591562975"><ele>161.0</ele><time>2026-04-12T08:42:28Z</time></trkpt><trkpt lat="-30.59457835563246" lon="115.46490239439638"><ele>161.0</ele><time>2026-04-12T08:42:29Z</time></trkpt><trkpt lat="-30.594323866302492" lon="115.46483740748113"><ele>160.5</ele><time>2026-04-12T08:42:30Z</time></trkpt><trkpt lat="-30.594068358619943" lon="115.46477199574639"><ele>160.0</ele><time>2026-04-12T08:42:31Z</time></trkpt><trkpt lat="-30.593810189132665" lon="115.46470897640954"><ele>160.0</ele><time>2026-04-12T08:42:32Z</time></trkpt><trkpt lat="-30.59355307500522" lon="115.46464445381787"><ele>160.0</ele><time>2026-04-12T08:42:33Z</time></trkpt><trkpt lat="-30.593300515545593" lon="115.46458051086195"><ele>160.0</ele><time>2026-04-12T08:42:34Z</time></trkpt><trkpt lat="-30.59304641832338" lon="115.46451616250542"><ele>160.0</ele><time>2026-04-12T08:42:35Z</time></trkpt><trkpt lat="-30.592788054873218" lon="115.46445348403327"><ele>161.0</ele><time>2026-04-12T08:42:36Z</time></trkpt><trkpt lat="-30.59252517279637" lon="115.46438696352908"><ele>162.0</ele><time>2026-04-12T08:42:37Z</time></trkpt><trkpt lat="-30.59225973764872" lon="115.46431910604566"><ele>161.5</ele><time>2026-04-12T08:42:38Z</time></trkpt><trkpt lat="-30.5919973261092" lon="115.46425241851217"><ele>161.0</ele><time>2026-04-12T08:42:39Z</time></trkpt><trkpt lat="-30.591734227884025" lon="115.46418761281178"><ele>161.0</ele><time>2026-04-12T08:42:40Z</time></trkpt><trkpt lat="-30.591469965275536" lon="115.46412271355315"><ele>161.0</ele><time>2026-04-12T08:42:41Z</time></trkpt><trkpt lat="-30.591201969464475" lon="115.4640581241758"><ele>160.5</ele><time>2026-04-12T08:42:42Z</time></trkpt><trkpt lat="-30.590933004158593" lon="115.46399252732627"><ele>160.0</ele><time>2026-04-12T08:42:43Z</time></trkpt><trkpt lat="-30.590661680383786" lon="115.46392419035192"><ele>160.0</ele><time>2026-04-12T08:42:44Z</time></trkpt><trkpt lat="-30.590389084629" lon="115.46385559525557"><ele>160.0</ele><time>2026-04-12T08:42:45Z</time></trkpt><trkpt lat="-30.590116275096538" lon="115.46378661949105"><ele>159.0</ele><time>2026-04-12T08:42:46Z</time></trkpt><trkpt lat="-30.589845365926998" lon="115.46371599031944"><ele>158.0</ele><time>2026-04-12T08:42:47Z</time></trkpt><trkpt lat="-30.589575958398715" lon="115.46364673023061"><ele>158.0</ele><time>2026-04-12T08:42:48Z</time></trkpt><trkpt lat="-30.589307049500174" lon="115.46357906499453"><ele>158.0</ele><time>2026-04-12T08:42:49Z</time></trkpt><trkpt lat="-30.589038159307552" lon="115.46350924256457"><ele>158.0</ele><time>2026-04-12T08:42:50Z</time></trkpt><trkpt lat="-30.588774372895212" lon="115.46344527465294"><ele>158.0</ele><time>2026-04-12T08:42:51Z</time></trkpt><trkpt lat="-30.588507507175454" lon="115.46338037708824"><ele>159.5</ele><time>2026-04-12T08:42:52Z</time></trkpt><trkpt lat="-30.588242106982875" lon="115.46331358062946"><ele>161.0</ele><time>2026-04-12T08:42:53Z</time></trkpt><trkpt lat="-30.587977383622547" lon="115.46324589016861"><ele>161.0</ele><time>2026-04-12T08:42:54Z</time></trkpt><trkpt lat="-30.587710876158038" lon="115.46317577909852"><ele>161.0</ele><time>2026-04-12T08:42:55Z</time></trkpt><trkpt lat="-30.587444208032203" lon="115.46310737205239"><ele>161.0</ele><time>2026-04-12T08:42:56Z</time></trkpt><trkpt lat="-30.587177966784793" lon="115.46303790694144"><ele>161.0</ele><time>2026-04-12T08:42:57Z</time></trkpt><trkpt lat="-30.58691347578135" lon="115.46297382364145"><ele>161.0</ele><time>2026-04-12T08:42:58Z</time></trkpt><trkpt lat="-30.586649557510544" lon="115.46290930808999"><ele>161.0</ele><time>2026-04-12T08:42:59Z</time></trkpt><trkpt lat="-30.586386264119852" lon="115.46284844723861"><ele>160.5</ele><time>2026-04-12T08:43:00Z</time></trkpt><trkpt lat="-30.586118642509955" lon="115.46279482216873"><ele>160.0</ele><time>2026-04-12T08:43:01Z</time></trkpt><trkpt lat="-30.58584655721942" lon="115.46275096541507"><ele>160.0</ele><time>2026-04-12T08:43:02Z</time></trkpt><trkpt lat="-30.585575032921167" lon="115.46272079501864"><ele>160.0</ele><time>2026-04-12T08:43:03Z</time></trkpt><trkpt lat="-30.585298905878968" lon="115.46270365595564"><ele>160.0</ele><time>2026-04-12T08:43:04Z</time></trkpt><trkpt lat="-30.58502080608211" lon="115.46269586141682"><ele>160.0</ele><time>2026-04-12T08:43:05Z</time></trkpt><trkpt lat="-30.58473951066323" lon="115.46269403211743"><ele>159.0</ele><time>2026-04-12T08:43:06Z</time></trkpt><trkpt lat="-30.58445968198794" lon="115.4626943339793"><ele>158.0</ele><time>2026-04-12T08:43:07Z</time></trkpt><trkpt lat="-30.584176635088685" lon="115.46269676009376"><ele>158.0</ele><time>2026-04-12T08:43:08Z</time></trkpt><trkpt lat="-30.583887903982927" lon="115.46269863097187"><ele>158.0</ele><time>2026-04-12T08:43:09Z</time></trkpt><trkpt lat="-30.583592476933823" lon="115.46269705010272"><ele>158.5</ele><time>2026-04-12T08:43:10Z</time></trkpt><trkpt lat="-30.583286936744297" lon="115.46269259313765"><ele>159.0</ele><time>2026-04-12T08:43:11Z</time></trkpt><trkpt lat="-30.58297776788041" lon="115.46268683801792"><ele>158.5</ele><time>2026-04-12T08:43:12Z</time></trkpt><trkpt lat="-30.582671136452355" lon="115.46268142037394"><ele>158.0</ele><time>2026-04-12T08:43:13Z</time></trkpt><trkpt lat="-30.582363840448252" lon="115.46267694757606"><ele>158.0</ele><time>2026-04-12T08:43:14Z</time></trkpt><trkpt lat="-30.582055738006083" lon="115.46267495318759"><ele>158.0</ele><time>2026-04-12T08:43:15Z</time></trkpt><trkpt lat="-30.581743325941332" lon="115.46267880619553"><ele>158.0</ele><time>2026-04-12T08:43:16Z</time></trkpt><trkpt lat="-30.58143076754338" lon="115.46268099527045"><ele>158.0</ele><time>2026-04-12T08:43:17Z</time></trkpt><trkpt lat="-30.581123590497704" lon="115.46267730284231"><ele>158.0</ele><time>2026-04-12T08:43:18Z</time></trkpt><trkpt lat="-30.580814772682572" lon="115.46267333897907"><ele>158.0</ele><time>2026-04-12T08:43:19Z</time></trkpt><trkpt lat="-30.58051134942575" lon="115.46266502112088"><ele>159.0</ele><time>2026-04-12T08:43:20Z</time></trkpt><trkpt lat="-30.580208339968035" lon="115.46265507896275"><ele>160.0</ele><time>2026-04-12T08:43:21Z</time></trkpt><trkpt lat="-30.57990743373755" lon="115.46263984249896"><ele>160.0</ele><time>2026-04-12T08:43:22Z</time></trkpt><trkpt lat="-30.579607720864153" lon="115.46261587938315"><ele>160.0</ele><time>2026-04-12T08:43:23Z</time></trkpt><trkpt lat="-30.579305898577662" lon="115.4625774531047"><ele>159.5</ele><time>2026-04-12T08:43:24Z</time></trkpt><trkpt lat="-30.579004668213706" lon="115.46252563274118"><ele>159.0</ele><time>2026-04-12T08:43:25Z</time></trkpt><trkpt lat="-30.578702527572975" lon="115.46246012758688"><ele>158.5</ele><time>2026-04-12T08:43:26Z</time></trkpt><trkpt lat="-30.578396821148246" lon="115.46238455744732"><ele>158.0</ele><time>2026-04-12T08:43:27Z</time></trkpt><trkpt lat="-30.578090816774022" lon="115.46230380032813"><ele>158.0</ele><time>2026-04-12T08:43:28Z</time></trkpt><trkpt lat="-30.57778624255738" lon="115.46222631686707"><ele>158.0</ele><time>2026-04-12T08:43:29Z</time></trkpt><trkpt lat="-30.577487042323558" lon="115.46215171347676"><ele>158.0</ele><time>2026-04-12T08:43:30Z</time></trkpt><trkpt lat="-30.57718995001716" lon="115.46207764673387"><ele>158.0</ele><time>2026-04-12T08:43:31Z</time></trkpt><trkpt lat="-30.576894267195595" lon="115.46200770683224"><ele>158.0</ele><time>2026-04-12T08:43:32Z</time></trkpt><trkpt lat="-30.576599282791168" lon="115.46193728246948"><ele>158.0</ele><time>2026-04-12T08:43:33Z</time></trkpt><trkpt lat="-30.576303209074098" lon="115.46186378488447"><ele>157.0</ele><time>2026-04-12T08:43:34Z</time></trkpt><trkpt lat="-30.576010616670633" lon="115.46179013586732"><ele>156.0</ele><time>2026-04-12T08:43:35Z</time></trkpt><trkpt lat="-30.575716819368626" lon="115.46171575514678"><ele>156.0</ele><time>2026-04-12T08:43:36Z</time></trkpt><trkpt lat="-30.575424122604364" lon="115.46164661631757"><ele>156.0</ele><time>2026-04-12T08:43:37Z</time></trkpt><trkpt lat="-30.575132154074595" lon="115.46157774855507"><ele>155.0</ele><time>2026-04-12T08:43:38Z</time></trkpt><trkpt lat="-30.57484297136122" lon="115.46150737543017"><ele>154.0</ele><time>2026-04-12T08:43:39Z</time></trkpt><trkpt lat="-30.574554938659418" lon="115.4614373239352"><ele>153.5</ele><time>2026-04-12T08:43:40Z</time></trkpt><trkpt lat="-30.57426789514376" lon="115.46137241329552"><ele>153.0</ele><time>2026-04-12T08:43:41Z</time></trkpt><trkpt lat="-30.573976669976304" lon="115.46132225400142"><ele>153.5</ele><time>2026-04-12T08:43:42Z</time></trkpt><trkpt lat="-30.57367944238305" lon="115.4612873996748"><ele>154.0</ele><time>2026-04-12T08:43:43Z</time></trkpt><trkpt lat="-30.573382581874636" lon="115.46126818011054"><ele>154.5</ele><time>2026-04-12T08:43:44Z</time></trkpt><trkpt lat="-30.57308608098955" lon="115.46126063020547"><ele>155.0</ele><time>2026-04-12T08:43:45Z</time></trkpt><trkpt lat="-30.572789514308216" lon="115.46126004572835"><ele>155.0</ele><time>2026-04-12T08:43:46Z</time></trkpt><trkpt lat="-30.572496378263036" lon="115.46126084946984"><ele>155.0</ele><time>2026-04-12T08:43:47Z</time></trkpt><trkpt lat="-30.572206491348158" lon="115.46126316635355"><ele>157.0</ele><time>2026-04-12T08:43:48Z</time></trkpt><trkpt lat="-30.571916293744287" lon="115.46126787687787"><ele>159.0</ele><time>2026-04-12T08:43:49Z</time></trkpt><trkpt lat="-30.571622453590216" lon="115.46127011144377"><ele>159.0</ele><time>2026-04-12T08:43:50Z</time></trkpt><trkpt lat="-30.57132910858887" lon="115.46126984290602"><ele>159.0</ele><time>2026-04-12T08:43:51Z</time></trkpt><trkpt lat="-30.57103943265087" lon="115.46127147230004"><ele>157.0</ele><time>2026-04-12T08:43:52Z</time></trkpt><trkpt lat="-30.570748752436863" lon="115.46127362251545"><ele>155.0</ele><time>2026-04-12T08:43:53Z</time></trkpt><trkpt lat="-30.57046197549049" lon="115.46127347905733"><ele>155.5</ele><time>2026-04-12T08:43:54Z</time></trkpt><trkpt lat="-30.57016895853201" lon="115.46127432609929"><ele>156.0</ele><time>2026-04-12T08:43:55Z</time></trkpt><trkpt lat="-30.569877536393943" lon="115.46128004434557"><ele>157.0</ele><time>2026-04-12T08:43:56Z</time></trkpt><trkpt lat="-30.569590180854405" lon="115.4612877021909"><ele>158.0</ele><time>2026-04-12T08:43:57Z</time></trkpt><trkpt lat="-30.569296955950648" lon="115.46129334166474"><ele>158.0</ele><time>2026-04-12T08:43:58Z</time></trkpt><trkpt lat="-30.569004771342694" lon="115.46129375710393"><ele>158.0</ele><time>2026-04-12T08:43:59Z</time></trkpt><trkpt lat="-30.56871303800284" lon="115.4612946551616"><ele>159.5</ele><time>2026-04-12T08:44:00Z</time></trkpt><trkpt lat="-30.568424914355138" lon="115.46129720797322"><ele>161.0</ele><time>2026-04-12T08:44:01Z</time></trkpt><trkpt lat="-30.568137983165673" lon="115.46130435014705"><ele>160.0</ele><time>2026-04-12T08:44:02Z</time></trkpt><trkpt lat="-30.567853389467157" lon="115.46131640335075"><ele>159.0</ele><time>2026-04-12T08:44:03Z</time></trkpt><trkpt lat="-30.567570719047573" lon="115.46133664064881"><ele>159.0</ele><time>2026-04-12T08:44:04Z</time></trkpt><trkpt lat="-30.56729146322175" lon="115.46137219873029"><ele>159.0</ele><time>2026-04-12T08:44:05Z</time></trkpt><trkpt lat="-30.56700787450831" lon="115.46142668988891"><ele>157.5</ele><time>2026-04-12T08:44:06Z</time></trkpt><trkpt lat="-30.56672632490163" lon="115.46149340772095"><ele>156.0</ele><time>2026-04-12T08:44:07Z</time></trkpt><trkpt lat="-30.566442596982935" lon="115.46156085252925"><ele>157.0</ele><time>2026-04-12T08:44:08Z</time></trkpt><trkpt lat="-30.566166054040277" lon="115.46162478707416"><ele>158.0</ele><time>2026-04-12T08:44:09Z</time></trkpt><trkpt lat="-30.565891764895703" lon="115.46168473203734"><ele>158.0</ele><time>2026-04-12T08:44:10Z</time></trkpt><trkpt lat="-30.56562418368663" lon="115.46174274515212"><ele>158.0</ele><time>2026-04-12T08:44:11Z</time></trkpt><trkpt lat="-30.565359251782507" lon="115.4618018883697"><ele>158.5</ele><time>2026-04-12T08:44:12Z</time></trkpt><trkpt lat="-30.56509888124215" lon="115.46186086158328"><ele>159.0</ele><time>2026-04-12T08:44:13Z</time></trkpt><trkpt lat="-30.564826478907364" lon="115.46192082640141"><ele>159.0</ele><time>2026-04-12T08:44:14Z</time></trkpt><trkpt lat="-30.564550499716997" lon="115.4619795364933"><ele>159.0</ele><time>2026-04-12T08:44:15Z</time></trkpt><trkpt lat="-30.56427394510266" lon="115.46203874455382"><ele>159.5</ele><time>2026-04-12T08:44:16Z</time></trkpt><trkpt lat="-30.56399798463697" lon="115.46209639701715"><ele>160.0</ele><time>2026-04-12T08:44:17.001Z</time></trkpt><trkpt lat="-30.563723355210982" lon="115.46215388156915"><ele>159.5</ele><time>2026-04-12T08:44:18.001Z</time></trkpt><trkpt lat="-30.563453505287914" lon="115.462211072576"><ele>159.0</ele><time>2026-04-12T08:44:19.001Z</time></trkpt><trkpt lat="-30.56317546637172" lon="115.46226977517485"><ele>159.0</ele><time>2026-04-12T08:44:20.001Z</time></trkpt><trkpt lat="-30.56289810280112" lon="115.46232892187467"><ele>159.0</ele><time>2026-04-12T08:44:21.001Z</time></trkpt><trkpt lat="-30.562618738103147" lon="115.46238849637169"><ele>160.5</ele><time>2026-04-12T08:44:22.001Z</time></trkpt><trkpt lat="-30.562341807149892" lon="115.4624450447364"><ele>162.0</ele><time>2026-04-12T08:44:23Z</time></trkpt><trkpt lat="-30.562064998626585" lon="115.46248613075505"><ele>162.5</ele><time>2026-04-12T08:44:24Z</time></trkpt><trkpt lat="-30.561786661980914" lon="115.46250642974198"><ele>163.0</ele><time>2026-04-12T08:44:25Z</time></trkpt><trkpt lat="-30.56150125337613" lon="115.46251323889113"><ele>163.0</ele><time>2026-04-12T08:44:26Z</time></trkpt><trkpt lat="-30.56121704664607" lon="115.46251338477127"><ele>163.0</ele><time>2026-04-12T08:44:27Z</time></trkpt><trkpt lat="-30.56093565478309" lon="115.46251226278913"><ele>164.0</ele><time>2026-04-12T08:44:28Z</time></trkpt><trkpt lat="-30.560657824773333" lon="115.46250674181296"><ele>165.0</ele><time>2026-04-12T08:44:29Z</time></trkpt><trkpt lat="-30.560376842756853" lon="115.46250130175055"><ele>165.5</ele><time>2026-04-12T08:44:30Z</time></trkpt><trkpt lat="-30.56009497837109" lon="115.46249960573722"><ele>166.0</ele><time>2026-04-12T08:44:31Z</time></trkpt><trkpt lat="-30.559813887338077" lon="115.46249819577464"><ele>165.5</ele><time>2026-04-12T08:44:32Z</time></trkpt><trkpt lat="-30.559533280781483" lon="115.46249438055526"><ele>165.0</ele><time>2026-04-12T08:44:33Z</time></trkpt><trkpt lat="-30.55925647521016" lon="115.46249239081229"><ele>165.0</ele><time>2026-04-12T08:44:34Z</time></trkpt><trkpt lat="-30.55897825500194" lon="115.4624929772513"><ele>165.0</ele><time>2026-04-12T08:44:35Z</time></trkpt><trkpt lat="-30.558701849143844" lon="115.46249124599183"><ele>165.0</ele><time>2026-04-12T08:44:36Z</time></trkpt><trkpt lat="-30.55842403424379" lon="115.46248508705361"><ele>165.0</ele><time>2026-04-12T08:44:37Z</time></trkpt><trkpt lat="-30.5581481801103" lon="115.46248083209387"><ele>165.0</ele><time>2026-04-12T08:44:38Z</time></trkpt><trkpt lat="-30.55787811829359" lon="115.4624760237484"><ele>165.0</ele><time>2026-04-12T08:44:39Z</time></trkpt><trkpt lat="-30.557611719561528" lon="115.46247395446906"><ele>166.0</ele><time>2026-04-12T08:44:40Z</time></trkpt><trkpt lat="-30.557349613595754" lon="115.46247284814419"><ele>167.0</ele><time>2026-04-12T08:44:41Z</time></trkpt><trkpt lat="-30.55708965316044" lon="115.46247191620552"><ele>167.0</ele><time>2026-04-12T08:44:42Z</time></trkpt><trkpt lat="-30.556826325467416" lon="115.4624618910726"><ele>167.0</ele><time>2026-04-12T08:44:43Z</time></trkpt><trkpt lat="-30.556563696172155" lon="115.46244891815009"><ele>167.0</ele><time>2026-04-12T08:44:44Z</time></trkpt><trkpt lat="-30.556302722086873" lon="115.46244526087646"><ele>167.0</ele><time>2026-04-12T08:44:45Z</time></trkpt><trkpt lat="-30.556041694282285" lon="115.46244588717288"><ele>167.0</ele><time>2026-04-12T08:44:46Z</time></trkpt><trkpt lat="-30.55578038462554" lon="115.46244765954839"><ele>167.0</ele><time>2026-04-12T08:44:47Z</time></trkpt><trkpt lat="-30.555523082303978" lon="115.4624511758033"><ele>166.0</ele><time>2026-04-12T08:44:48Z</time></trkpt><trkpt lat="-30.555266713493715" lon="115.46245172003826"><ele>165.0</ele><time>2026-04-12T08:44:49Z</time></trkpt><trkpt lat="-30.55501267236399" lon="115.46244830225118"><ele>165.0</ele><time>2026-04-12T08:44:50Z</time></trkpt><trkpt lat="-30.554759049965835" lon="115.46244433190937"><ele>165.0</ele><time>2026-04-12T08:44:51Z</time></trkpt><trkpt lat="-30.554503983486935" lon="115.46243983208305"><ele>165.0</ele><time>2026-04-12T08:44:52Z</time></trkpt><trkpt lat="-30.554250674367864" lon="115.462437203387"><ele>165.0</ele><time>2026-04-12T08:44:53Z</time></trkpt><trkpt lat="-30.55400007862787" lon="115.4624338041417"><ele>165.0</ele><time>2026-04-12T08:44:54Z</time></trkpt><trkpt lat="-30.553749443556217" lon="115.462427106053"><ele>165.0</ele><time>2026-04-12T08:44:55Z</time></trkpt><trkpt lat="-30.553498978301544" lon="115.46242211693108"><ele>165.5</ele><time>2026-04-12T08:44:56Z</time></trkpt><trkpt lat="-30.55324802449556" lon="115.46241928251436"><ele>166.0</ele><time>2026-04-12T08:44:57Z</time></trkpt><trkpt lat="-30.55299831781806" lon="115.46241856695704"><ele>165.0</ele><time>2026-04-12T08:44:58Z</time></trkpt><trkpt lat="-30.552748717852282" lon="115.46241945038646"><ele>164.0</ele><time>2026-04-12T08:44:59Z</time></trkpt><trkpt lat="-30.552502661210998" lon="115.46241990664996"><ele>164.0</ele><time>2026-04-12T08:45:00Z</time></trkpt><trkpt lat="-30.552254573043975" lon="115.46241772608914"><ele>164.0</ele><time>2026-04-12T08:45:01Z</time></trkpt><trkpt lat="-30.552002323005937" lon="115.46241390777689"><ele>164.0</ele><time>2026-04-12T08:45:02Z</time></trkpt><trkpt lat="-30.551502144929504" lon="115.46240712897114"><ele>164.0</ele><time>2026-04-12T08:45:04Z</time></trkpt><trkpt lat="-30.55125489666182" lon="115.46240047603844"><ele>164.0</ele><time>2026-04-12T08:45:05Z</time></trkpt><trkpt lat="-30.55100775990567" lon="115.46239762754543"><ele>163.5</ele><time>2026-04-12T08:45:06Z</time></trkpt><trkpt lat="-30.550759842662565" lon="115.4623962720596"><ele>163.0</ele><time>2026-04-12T08:45:07Z</time></trkpt><trkpt lat="-30.550512294266486" lon="115.46239358725741"><ele>162.0</ele><time>2026-04-12T08:45:08Z</time></trkpt><trkpt lat="-30.550266138917696" lon="115.46239012812697"><ele>161.0</ele><time>2026-04-12T08:45:09Z</time></trkpt><trkpt lat="-30.550011921714596" lon="115.46238354555275"><ele>161.0</ele><time>2026-04-12T08:45:10Z</time></trkpt><trkpt lat="-30.549754698686176" lon="115.46237515624999"><ele>161.0</ele><time>2026-04-12T08:45:11Z</time></trkpt><trkpt lat="-30.549499787788218" lon="115.4623729580242"><ele>161.0</ele><time>2026-04-12T08:45:12Z</time></trkpt><trkpt lat="-30.54924264983177" lon="115.46237303633765"><ele>161.0</ele><time>2026-04-12T08:45:13Z</time></trkpt><trkpt lat="-30.54898214099816" lon="115.46237421136964"><ele>161.0</ele><time>2026-04-12T08:45:14Z</time></trkpt><trkpt lat="-30.5487208875378" lon="115.4623727880282"><ele>161.0</ele><time>2026-04-12T08:45:15Z</time></trkpt><trkpt lat="-30.548481557096896" lon="115.46237231344568"><ele>161.33333333333331</ele><time>2026-04-12T08:45:16Z</time></trkpt><trkpt lat="-30.548255489396425" lon="115.46237145003272"><ele>161.66666666666666</ele><time>2026-04-12T08:45:17Z</time></trkpt><trkpt lat="-30.548039666031592" lon="115.46237119568617"><ele>162.0</ele><time>2026-04-12T08:45:18Z</time></trkpt><trkpt lat="-30.54783756421334" lon="115.4623683061783"><ele>162.0</ele><time>2026-04-12T08:45:19Z</time></trkpt><trkpt lat="-30.547642556848274" lon="115.4623633682988"><ele>162.0</ele><time>2026-04-12T08:45:20Z</time></trkpt><trkpt lat="-30.547454432576338" lon="115.46235697535833"><ele>162.0</ele><time>2026-04-12T08:45:21Z</time></trkpt><trkpt lat="-30.547284238361996" lon="115.4623479239943"><ele>162.0</ele><time>2026-04-12T08:45:22Z</time></trkpt><trkpt lat="-30.547134070832133" lon="115.46233967525158"><ele>162.0</ele><time>2026-04-12T08:45:23Z</time></trkpt><trkpt lat="-30.547005954764987" lon="115.46233280885114"><ele>162.0</ele><time>2026-04-12T08:45:24Z</time></trkpt><trkpt lat="-30.546896089886335" lon="115.46232465817103"><ele>162.0</ele><time>2026-04-12T08:45:25Z</time></trkpt><trkpt lat="-30.546807614928152" lon="115.4623211719691"><ele>161.4</ele><time>2026-04-12T08:45:26Z</time></trkpt><trkpt lat="-30.54674027064589" lon="115.46232808635783"><ele>160.79999999999998</ele><time>2026-04-12T08:45:27Z</time></trkpt><trkpt lat="-30.546672154397292" lon="115.46235559080888"><ele>160.2</ele><time>2026-04-12T08:45:29Z</time></trkpt><trkpt lat="-30.546775435744976" lon="115.46244469726217"><ele>159.6</ele><time>2026-04-12T08:45:32Z</time></trkpt><trkpt lat="-30.546861791401163" lon="115.46243163274019"><ele>159.0</ele><time>2026-04-12T08:45:33Z</time></trkpt><trkpt lat="-30.54697141250946" lon="115.46241095656275"><ele>160.0</ele><time>2026-04-12T08:45:34Z</time></trkpt><trkpt lat="-30.54710557849078" lon="115.46240062769111"><ele>161.0</ele><time>2026-04-12T08:45:35Z</time></trkpt><trkpt lat="-30.547265909823267" lon="115.46240176685787"><ele>162.0</ele><time>2026-04-12T08:45:36Z</time></trkpt><trkpt lat="-30.5474344134996" lon="115.46240973959911"><ele>162.0</ele><time>2026-04-12T08:45:37Z</time></trkpt><trkpt lat="-30.547613713879514" lon="115.46241707682233"><ele>162.0</ele><time>2026-04-12T08:45:38Z</time></trkpt><trkpt lat="-30.54780733655082" lon="115.46241770728774"><ele>162.0</ele><time>2026-04-12T08:45:39Z</time></trkpt><trkpt lat="-30.54801248635477" lon="115.46241267231119"><ele>162.0</ele><time>2026-04-12T08:45:40Z</time></trkpt><trkpt lat="-30.548223274564734" lon="115.46241295896783"><ele>162.0</ele><time>2026-04-12T08:45:41Z</time></trkpt><trkpt lat="-30.54843566786974" lon="115.46241861188983"><ele>162.0</ele><time>2026-04-12T08:45:42Z</time></trkpt><trkpt lat="-30.548648852075644" lon="115.46242452920981"><ele>161.66666666666666</ele><time>2026-04-12T08:45:43Z</time></trkpt><trkpt lat="-30.548862477543416" lon="115.46242818041542"><ele>161.33333333333331</ele><time>2026-04-12T08:45:44Z</time></trkpt><trkpt lat="-30.549078640684364" lon="115.462429863877"><ele>161.0</ele><time>2026-04-12T08:45:45Z</time></trkpt><trkpt lat="-30.54927647876622" lon="115.46242996309766"><ele>161.0</ele><time>2026-04-12T08:45:46Z</time></trkpt><trkpt lat="-30.54945654609989" lon="115.46243342978848"><ele>161.0</ele><time>2026-04-12T08:45:47Z</time></trkpt><trkpt lat="-30.549624357690845" lon="115.46244027890029"><ele>161.0</ele><time>2026-04-12T08:45:48Z</time></trkpt><trkpt lat="-30.549781118666395" lon="115.4624411012968"><ele>161.0</ele><time>2026-04-12T08:45:49Z</time></trkpt><trkpt lat="-30.549932276503117" lon="115.46244318049312"><ele>161.0</ele><time>2026-04-12T08:45:50Z</time></trkpt><trkpt lat="-30.550072899680895" lon="115.46244414414568"><ele>161.0</ele><time>2026-04-12T08:45:51Z</time></trkpt><trkpt lat="-30.550208667379163" lon="115.46244862627005"><ele>161.0</ele><time>2026-04-12T08:45:52Z</time></trkpt><trkpt lat="-30.55034063872632" lon="115.4624517134454"><ele>161.5</ele><time>2026-04-12T08:45:53Z</time></trkpt><trkpt lat="-30.55046641088794" lon="115.46245170438215"><ele>162.0</ele><time>2026-04-12T08:45:54Z</time></trkpt><trkpt lat="-30.550583588104335" lon="115.46245254996505"><ele>162.5</ele><time>2026-04-12T08:45:55Z</time></trkpt><trkpt lat="-30.550696038297307" lon="115.46245651808901"><ele>163.0</ele><time>2026-04-12T08:45:56Z</time></trkpt><trkpt lat="-30.550797537429354" lon="115.46245840476858"><ele>163.0</ele><time>2026-04-12T08:45:57Z</time></trkpt><trkpt lat="-30.550907141753072" lon="115.46245697749757"><ele>163.0</ele><time>2026-04-12T08:45:58Z</time></trkpt><trkpt lat="-30.55102904854288" lon="115.46245924816135"><ele>163.0</ele><time>2026-04-12T08:45:59Z</time></trkpt><trkpt lat="-30.55116378376836" lon="115.46246110813256"><ele>163.0</ele><time>2026-04-12T08:46:00Z</time></trkpt><trkpt lat="-30.551295652792973" lon="115.46246057359551"><ele>163.2</ele><time>2026-04-12T08:46:01Z</time></trkpt><trkpt lat="-30.551410007864398" lon="115.46246035686124"><ele>163.4</ele><time>2026-04-12T08:46:02Z</time></trkpt><trkpt lat="-30.551515151851717" lon="115.46245950082199"><ele>163.6</ele><time>2026-04-12T08:46:03Z</time></trkpt><trkpt lat="-30.55161919199228" lon="115.46245665555027"><ele>163.79999999999998</ele><time>2026-04-12T08:46:04Z</time></trkpt><trkpt lat="-30.551738303344784" lon="115.46245532490136"><ele>164.0</ele><time>2026-04-12T08:46:05Z</time></trkpt><trkpt lat="-30.5518759252238" lon="115.46246283472101"><ele>164.0</ele><time>2026-04-12T08:46:06Z</time></trkpt><trkpt lat="-30.552026985179296" lon="115.46247022238157"><ele>164.0</ele><time>2026-04-12T08:46:07Z</time></trkpt><trkpt lat="-30.552190529239837" lon="115.46246734903741"><ele>164.0</ele><time>2026-04-12T08:46:08Z</time></trkpt><trkpt lat="-30.552364577977887" lon="115.46246566716987"><ele>164.0</ele><time>2026-04-12T08:46:09Z</time></trkpt><trkpt lat="-30.552545223671167" lon="115.46246796902494"><ele>164.0</ele><time>2026-04-12T08:46:10Z</time></trkpt><trkpt lat="-30.552726172226194" lon="115.46246973463927"><ele>164.0</ele><time>2026-04-12T08:46:11Z</time></trkpt><trkpt lat="-30.552920162696104" lon="115.46247388726364"><ele>164.66666666666666</ele><time>2026-04-12T08:46:12Z</time></trkpt><trkpt lat="-30.553125285078355" lon="115.46247722298858"><ele>165.33333333333334</ele><time>2026-04-12T08:46:13Z</time></trkpt><trkpt lat="-30.55332937549498" lon="115.46247971638921"><ele>166.0</ele><time>2026-04-12T08:46:14Z</time></trkpt><trkpt lat="-30.553535969214266" lon="115.46247989880248"><ele>165.66666666666669</ele><time>2026-04-12T08:46:15Z</time></trkpt><trkpt lat="-30.553740115503032" lon="115.46248010492124"><ele>165.33333333333334</ele><time>2026-04-12T08:46:16Z</time></trkpt><trkpt lat="-30.55394268826623" lon="115.46248269520243"><ele>165.0</ele><time>2026-04-12T08:46:17Z</time></trkpt><trkpt lat="-30.554139909717662" lon="115.4624869119923"><ele>165.0</ele><time>2026-04-12T08:46:18Z</time></trkpt><trkpt lat="-30.554322568042394" lon="115.46248865911869"><ele>165.0</ele><time>2026-04-12T08:46:19Z</time></trkpt><trkpt lat="-30.554510866111798" lon="115.4624922674263"><ele>165.0</ele><time>2026-04-12T08:46:20Z</time></trkpt><trkpt lat="-30.554706012415718" lon="115.46249674969225"><ele>165.0</ele><time>2026-04-12T08:46:21Z</time></trkpt><trkpt lat="-30.554908343365433" lon="115.4624994614146"><ele>165.0</ele><time>2026-04-12T08:46:22Z</time></trkpt><trkpt lat="-30.55511683887168" lon="115.462501276026"><ele>165.0</ele><time>2026-04-12T08:46:23Z</time></trkpt><trkpt lat="-30.55531778142505" lon="115.46250456331315"><ele>165.66666666666666</ele><time>2026-04-12T08:46:24Z</time></trkpt><trkpt lat="-30.5555100521888" lon="115.46250712748325"><ele>166.33333333333331</ele><time>2026-04-12T08:46:25Z</time></trkpt><trkpt lat="-30.555690472751763" lon="115.46250698650918"><ele>167.0</ele><time>2026-04-12T08:46:26Z</time></trkpt><trkpt lat="-30.555855883703185" lon="115.46250625561093"><ele>167.0</ele><time>2026-04-12T08:46:27Z</time></trkpt><trkpt lat="-30.556023369039963" lon="115.4625062914545"><ele>167.0</ele><time>2026-04-12T08:46:28Z</time></trkpt><trkpt lat="-30.556197254893394" lon="115.4625114811928"><ele>167.0</ele><time>2026-04-12T08:46:29Z</time></trkpt><trkpt lat="-30.556382420434268" lon="115.46251363050816"><ele>167.0</ele><time>2026-04-12T08:46:30Z</time></trkpt><trkpt lat="-30.556564674764825" lon="115.46251484772017"><ele>167.0</ele><time>2026-04-12T08:46:31Z</time></trkpt><trkpt lat="-30.556735476327272" lon="115.46251523562161"><ele>167.0</ele><time>2026-04-12T08:46:32Z</time></trkpt><trkpt lat="-30.556890626047363" lon="115.46251535849024"><ele>167.0</ele><time>2026-04-12T08:46:33Z</time></trkpt><trkpt lat="-30.557036678309345" lon="115.46251524895551"><ele>167.0</ele><time>2026-04-12T08:46:34Z</time></trkpt><trkpt lat="-30.557176226769382" lon="115.46251513571242"><ele>167.0</ele><time>2026-04-12T08:46:35Z</time></trkpt><trkpt lat="-30.55730285565111" lon="115.4625183491903"><ele>167.0</ele><time>2026-04-12T08:46:36Z</time></trkpt><trkpt lat="-30.557411658566554" lon="115.46251304292923"><ele>167.0</ele><time>2026-04-12T08:46:37Z</time></trkpt><trkpt lat="-30.557494318987438" lon="115.46248677343063"><ele>167.0</ele><time>2026-04-12T08:46:38Z</time></trkpt><trkpt lat="-30.557595141873758" lon="115.46250589800218"><ele>167.0</ele><time>2026-04-12T08:46:40Z</time></trkpt><trkpt lat="-30.55765656984528" lon="115.46228668944221"><ele>167.0</ele><time>2026-04-12T08:46:41Z</time></trkpt><trkpt lat="-30.557643807395923" lon="115.46218592266085"><ele>167.25</ele><time>2026-04-12T08:46:42Z</time></trkpt><trkpt lat="-30.557647415527452" lon="115.46206261830821"><ele>167.5</ele><time>2026-04-12T08:46:43Z</time></trkpt><trkpt lat="-30.55763673385961" lon="115.46192572762557"><ele>167.75</ele><time>2026-04-12T08:46:44Z</time></trkpt><trkpt lat="-30.557620076832716" lon="115.46177168588221"><ele>168.0</ele><time>2026-04-12T08:46:45Z</time></trkpt><trkpt lat="-30.55759880968639" lon="115.46160746276354"><ele>168.0</ele><time>2026-04-12T08:46:46Z</time></trkpt><trkpt lat="-30.557581383887005" lon="115.46142874662665"><ele>168.0</ele><time>2026-04-12T08:46:47Z</time></trkpt><trkpt lat="-30.557582423530004" lon="115.46123956505092"><ele>168.0</ele><time>2026-04-12T08:46:48Z</time></trkpt><trkpt lat="-30.557569625859248" lon="115.46105044391135"><ele>167.33333333333334</ele><time>2026-04-12T08:46:49Z</time></trkpt><trkpt lat="-30.55754072102718" lon="115.46084925085904"><ele>166.66666666666669</ele><time>2026-04-12T08:46:50Z</time></trkpt><trkpt lat="-30.557528047108146" lon="115.46064031298916"><ele>166.0</ele><time>2026-04-12T08:46:51Z</time></trkpt><trkpt lat="-30.557513106415605" lon="115.46041546395563"><ele>165.0</ele><time>2026-04-12T08:46:52Z</time></trkpt><trkpt lat="-30.557499449981513" lon="115.46017960575983"><ele>164.0</ele><time>2026-04-12T08:46:53Z</time></trkpt><trkpt lat="-30.557488095264976" lon="115.45992491215934"><ele>163.0</ele><time>2026-04-12T08:46:54Z</time></trkpt><trkpt lat="-30.55747811741762" lon="115.45967051460401"><ele>163.0</ele><time>2026-04-12T08:46:55Z</time></trkpt><trkpt lat="-30.557487035650155" lon="115.45941498472969"><ele>163.0</ele><time>2026-04-12T08:46:56Z</time></trkpt><trkpt lat="-30.557483463757425" lon="115.45916057960756"><ele>163.0</ele><time>2026-04-12T08:46:57Z</time></trkpt><trkpt lat="-30.55748218700032" lon="115.45889926067026"><ele>162.0</ele><time>2026-04-12T08:46:58Z</time></trkpt><trkpt lat="-30.557467032209704" lon="115.45864222167063"><ele>161.0</ele><time>2026-04-12T08:46:59Z</time></trkpt><trkpt lat="-30.55748469938924" lon="115.45836917732431"><ele>161.0</ele><time>2026-04-12T08:47:00Z</time></trkpt><trkpt lat="-30.557487311141198" lon="115.45809739272595"><ele>161.0</ele><time>2026-04-12T08:47:01Z</time></trkpt><trkpt lat="-30.557488976612653" lon="115.45781281451099"><ele>161.0</ele><time>2026-04-12T08:47:02Z</time></trkpt><trkpt lat="-30.557490049375154" lon="115.45754125664267"><ele>161.0</ele><time>2026-04-12T08:47:03Z</time></trkpt><trkpt lat="-30.5574882151694" lon="115.45727593107945"><ele>161.0</ele><time>2026-04-12T08:47:04Z</time></trkpt><trkpt lat="-30.557485689237225" lon="115.45703178668965"><ele>161.0</ele><time>2026-04-12T08:47:05Z</time></trkpt><trkpt lat="-30.557483207051202" lon="115.45680244848153"><ele>161.0</ele><time>2026-04-12T08:47:06Z</time></trkpt><trkpt lat="-30.557480275461952" lon="115.45657056452185"><ele>161.0</ele><time>2026-04-12T08:47:07Z</time></trkpt><trkpt lat="-30.557476528554" lon="115.45632283680173"><ele>161.0</ele><time>2026-04-12T08:47:08Z</time></trkpt><trkpt lat="-30.55747226057739" lon="115.45605951843619"><ele>161.0</ele><time>2026-04-12T08:47:09Z</time></trkpt><trkpt lat="-30.557468288359793" lon="115.4557933210414"><ele>160.0</ele><time>2026-04-12T08:47:10Z</time></trkpt><trkpt lat="-30.557463618159858" lon="115.45551828688461"><ele>159.0</ele><time>2026-04-12T08:47:11Z</time></trkpt><trkpt lat="-30.557456509590793" lon="115.45523230547754"><ele>158.5</ele><time>2026-04-12T08:47:12Z</time></trkpt><trkpt lat="-30.55744426005674" lon="115.45494295844688"><ele>158.0</ele><time>2026-04-12T08:47:13Z</time></trkpt><trkpt lat="-30.55742182381968" lon="115.45465109816769"><ele>158.5</ele><time>2026-04-12T08:47:14Z</time></trkpt><trkpt lat="-30.557420243696928" lon="115.45435295449072"><ele>159.0</ele><time>2026-04-12T08:47:15Z</time></trkpt><trkpt lat="-30.557419814645108" lon="115.45404794559923"><ele>160.0</ele><time>2026-04-12T08:47:16Z</time></trkpt><trkpt lat="-30.557419496643803" lon="115.45374896933308"><ele>161.0</ele><time>2026-04-12T08:47:17Z</time></trkpt><trkpt lat="-30.557421476869774" lon="115.45345157274421"><ele>161.0</ele><time>2026-04-12T08:47:18Z</time></trkpt><trkpt lat="-30.557422142384063" lon="115.45315780395055"><ele>161.0</ele><time>2026-04-12T08:47:19Z</time></trkpt><trkpt lat="-30.557419091256047" lon="115.4528642145211"><ele>161.5</ele><time>2026-04-12T08:47:20Z</time></trkpt><trkpt lat="-30.557415324915798" lon="115.45257032938532"><ele>162.0</ele><time>2026-04-12T08:47:21Z</time></trkpt><trkpt lat="-30.55741329736145" lon="115.45227642082457"><ele>161.5</ele><time>2026-04-12T08:47:22Z</time></trkpt><trkpt lat="-30.55741162304294" lon="115.45197722180578"><ele>161.0</ele><time>2026-04-12T08:47:23Z</time></trkpt><trkpt lat="-30.557406842355288" lon="115.45168220526746"><ele>161.0</ele><time>2026-04-12T08:47:24Z</time></trkpt><trkpt lat="-30.55740362128249" lon="115.45138781754943"><ele>161.0</ele><time>2026-04-12T08:47:25Z</time></trkpt><trkpt lat="-30.557400280536246" lon="115.45108595913857"><ele>161.0</ele><time>2026-04-12T08:47:26Z</time></trkpt><trkpt lat="-30.55739473943457" lon="115.45078607004845"><ele>161.0</ele><time>2026-04-12T08:47:27Z</time></trkpt><trkpt lat="-30.557390954577333" lon="115.45048370154578"><ele>161.0</ele><time>2026-04-12T08:47:28Z</time></trkpt><trkpt lat="-30.557390328701075" lon="115.45018034118917"><ele>161.0</ele><time>2026-04-12T08:47:29Z</time></trkpt><trkpt lat="-30.557386228475167" lon="115.44987693071194"><ele>160.5</ele><time>2026-04-12T08:47:30Z</time></trkpt><trkpt lat="-30.557381424938562" lon="115.44957252019489"><ele>160.0</ele><time>2026-04-12T08:47:31Z</time></trkpt><trkpt lat="-30.55737992541349" lon="115.44926995958203"><ele>160.0</ele><time>2026-04-12T08:47:32Z</time></trkpt><trkpt lat="-30.557376978835265" lon="115.44897061836556"><ele>160.0</ele><time>2026-04-12T08:47:33Z</time></trkpt><trkpt lat="-30.55736952388974" lon="115.44867263739634"><ele>161.5</ele><time>2026-04-12T08:47:34Z</time></trkpt><trkpt lat="-30.557364444637273" lon="115.44837345526715"><ele>163.0</ele><time>2026-04-12T08:47:35Z</time></trkpt><trkpt lat="-30.557358658733648" lon="115.44807425370568"><ele>163.0</ele><time>2026-04-12T08:47:36Z</time></trkpt><trkpt lat="-30.55735448140742" lon="115.44776834537215"><ele>163.0</ele><time>2026-04-12T08:47:37Z</time></trkpt><trkpt lat="-30.55735486851043" lon="115.44745644640055"><ele>163.0</ele><time>2026-04-12T08:47:38Z</time></trkpt><trkpt lat="-30.557352202231556" lon="115.44713674849537"><ele>163.0</ele><time>2026-04-12T08:47:39Z</time></trkpt><trkpt lat="-30.55734827032898" lon="115.44682488530185"><ele>163.0</ele><time>2026-04-12T08:47:40Z</time></trkpt><trkpt lat="-30.557364136878807" lon="115.44651345899686"><ele>163.0</ele><time>2026-04-12T08:47:41Z</time></trkpt><trkpt lat="-30.557363580093867" lon="115.44619841926263"><ele>163.0</ele><time>2026-04-12T08:47:42Z</time></trkpt><trkpt lat="-30.557362521123995" lon="115.44588364404481"><ele>163.0</ele><time>2026-04-12T08:47:43Z</time></trkpt><trkpt lat="-30.55735906056446" lon="115.44555715496607"><ele>162.0</ele><time>2026-04-12T08:47:44Z</time></trkpt><trkpt lat="-30.55735419955936" lon="115.44522940017607"><ele>161.0</ele><time>2026-04-12T08:47:45Z</time></trkpt><trkpt lat="-30.557331976569703" lon="115.44490681943606"><ele>161.0</ele><time>2026-04-12T08:47:46Z</time></trkpt><trkpt lat="-30.55732573592899" lon="115.4445843036215"><ele>161.0</ele><time>2026-04-12T08:47:47Z</time></trkpt><trkpt lat="-30.557320570477643" lon="115.4442667769926"><ele>161.0</ele><time>2026-04-12T08:47:48Z</time></trkpt><trkpt lat="-30.557316966016916" lon="115.44394421032602"><ele>161.0</ele><time>2026-04-12T08:47:49Z</time></trkpt><trkpt lat="-30.557315387324376" lon="115.44362569957326"><ele>162.0</ele><time>2026-04-12T08:47:50Z</time></trkpt><trkpt lat="-30.557314834904087" lon="115.44330390894686"><ele>163.0</ele><time>2026-04-12T08:47:51Z</time></trkpt><trkpt lat="-30.55730829018223" lon="115.44297627573722"><ele>163.5</ele><time>2026-04-12T08:47:52Z</time></trkpt><trkpt lat="-30.557310888220815" lon="115.44263647690704"><ele>164.0</ele><time>2026-04-12T08:47:53Z</time></trkpt><trkpt lat="-30.557306316414987" lon="115.44229400693453"><ele>165.0</ele><time>2026-04-12T08:47:54Z</time></trkpt><trkpt lat="-30.55730294884353" lon="115.44194412936369"><ele>166.0</ele><time>2026-04-12T08:47:55Z</time></trkpt><trkpt lat="-30.557300274412896" lon="115.44159285993253"><ele>165.5</ele><time>2026-04-12T08:47:56Z</time></trkpt><trkpt lat="-30.557297659324252" lon="115.44124360358221"><ele>165.0</ele><time>2026-04-12T08:47:57Z</time></trkpt><trkpt lat="-30.557294103560032" lon="115.44089878415717"><ele>165.0</ele><time>2026-04-12T08:47:58Z</time></trkpt><trkpt lat="-30.557288224129575" lon="115.44055569335357"><ele>165.0</ele><time>2026-04-12T08:47:59Z</time></trkpt><trkpt lat="-30.557285949379775" lon="115.44021595808925"><ele>166.0</ele><time>2026-04-12T08:48:00Z</time></trkpt><trkpt lat="-30.5572835198819" lon="115.43988842371581"><ele>167.0</ele><time>2026-04-12T08:48:01Z</time></trkpt><trkpt lat="-30.557279577850494" lon="115.43958242819116"><ele>167.0</ele><time>2026-04-12T08:48:02Z</time></trkpt><trkpt lat="-30.557279454887503" lon="115.43929073143036"><ele>167.0</ele><time>2026-04-12T08:48:03Z</time></trkpt><trkpt lat="-30.557280190967973" lon="115.43902130373166"><ele>167.0</ele><time>2026-04-12T08:48:04Z</time></trkpt><trkpt lat="-30.557279638547776" lon="115.43877209805454"><ele>167.0</ele><time>2026-04-12T08:48:05Z</time></trkpt><trkpt lat="-30.557273761499502" lon="115.438516766672"><ele>167.0</ele><time>2026-04-12T08:48:06Z</time></trkpt><trkpt lat="-30.557269618813507" lon="115.43824645752737"><ele>167.5</ele><time>2026-04-12T08:48:07Z</time></trkpt><trkpt lat="-30.557267984095127" lon="115.43796813633853"><ele>168.0</ele><time>2026-04-12T08:48:08Z</time></trkpt><trkpt lat="-30.557265622343994" lon="115.43769014982271"><ele>168.0</ele><time>2026-04-12T08:48:09Z</time></trkpt><trkpt lat="-30.55726196913362" lon="115.43740521548794"><ele>168.0</ele><time>2026-04-12T08:48:10Z</time></trkpt><trkpt lat="-30.557257819666816" lon="115.43711256987069"><ele>169.0</ele><time>2026-04-12T08:48:11Z</time></trkpt><trkpt lat="-30.55725169756171" lon="115.43681547691006"><ele>170.0</ele><time>2026-04-12T08:48:12Z</time></trkpt><trkpt lat="-30.557245144082902" lon="115.43651999921993"><ele>171.0</ele><time>2026-04-12T08:48:13Z</time></trkpt><trkpt lat="-30.557240711559785" lon="115.4362329345301"><ele>172.0</ele><time>2026-04-12T08:48:14Z</time></trkpt><trkpt lat="-30.557236361164122" lon="115.43595493465884"><ele>172.0</ele><time>2026-04-12T08:48:15Z</time></trkpt><trkpt lat="-30.557235026920242" lon="115.43568528655373"><ele>172.0</ele><time>2026-04-12T08:48:16Z</time></trkpt><trkpt lat="-30.55723725048237" lon="115.43540977909818"><ele>172.5</ele><time>2026-04-12T08:48:17Z</time></trkpt><trkpt lat="-30.557235725396858" lon="115.4351291614147"><ele>173.0</ele><time>2026-04-12T08:48:18Z</time></trkpt><trkpt lat="-30.55723153598347" lon="115.43484833129362"><ele>174.0</ele><time>2026-04-12T08:48:19Z</time></trkpt><trkpt lat="-30.557227615909483" lon="115.43456863380388"><ele>175.0</ele><time>2026-04-12T08:48:20Z</time></trkpt><trkpt lat="-30.55722728485069" lon="115.43428459796175"><ele>175.0</ele><time>2026-04-12T08:48:21Z</time></trkpt><trkpt lat="-30.557227504473225" lon="115.4340110676918"><ele>175.0</ele><time>2026-04-12T08:48:22Z</time></trkpt><trkpt lat="-30.55722557912917" lon="115.43373922332101"><ele>175.5</ele><time>2026-04-12T08:48:23Z</time></trkpt><trkpt lat="-30.557224659055347" lon="115.43346002771612"><ele>176.0</ele><time>2026-04-12T08:48:24Z</time></trkpt><trkpt lat="-30.55722213469792" lon="115.43317940361895"><ele>176.0</ele><time>2026-04-12T08:48:25Z</time></trkpt><trkpt lat="-30.557218156842204" lon="115.43289701199052"><ele>176.0</ele><time>2026-04-12T08:48:26Z</time></trkpt><trkpt lat="-30.55721224026213" lon="115.43261603618296"><ele>176.0</ele><time>2026-04-12T08:48:27Z</time></trkpt><trkpt lat="-30.55721071600918" lon="115.43233295746055"><ele>176.0</ele><time>2026-04-12T08:48:28Z</time></trkpt><trkpt lat="-30.557209905893863" lon="115.43204409643924"><ele>176.0</ele><time>2026-04-12T08:48:29Z</time></trkpt><trkpt lat="-30.55720755481923" lon="115.43175618096537"><ele>176.0</ele><time>2026-04-12T08:48:30Z</time></trkpt><trkpt lat="-30.55720492605831" lon="115.43146986888694"><ele>177.5</ele><time>2026-04-12T08:48:31Z</time></trkpt><trkpt lat="-30.557205238886098" lon="115.4311836471758"><ele>179.0</ele><time>2026-04-12T08:48:32Z</time></trkpt><trkpt lat="-30.55720432982215" lon="115.43089864399697"><ele>179.0</ele><time>2026-04-12T08:48:33Z</time></trkpt><trkpt lat="-30.557201622196725" lon="115.43061916364171"><ele>179.0</ele><time>2026-04-12T08:48:34Z</time></trkpt><trkpt lat="-30.557198291208593" lon="115.43034254986681"><ele>180.0</ele><time>2026-04-12T08:48:35Z</time></trkpt><trkpt lat="-30.557197678610486" lon="115.43006579292256"><ele>181.0</ele><time>2026-04-12T08:48:36Z</time></trkpt><trkpt lat="-30.557195931687513" lon="115.42979979168702"><ele>181.0</ele><time>2026-04-12T08:48:37Z</time></trkpt><trkpt lat="-30.557193699719505" lon="115.4295247753062"><ele>181.0</ele><time>2026-04-12T08:48:38Z</time></trkpt><trkpt lat="-30.55718985515216" lon="115.42924545274492"><ele>181.0</ele><time>2026-04-12T08:48:39Z</time></trkpt><trkpt lat="-30.557187618646985" lon="115.42895183340013"><ele>181.0</ele><time>2026-04-12T08:48:40Z</time></trkpt><trkpt lat="-30.557182380261448" lon="115.42865205339562"><ele>182.0</ele><time>2026-04-12T08:48:41Z</time></trkpt><trkpt lat="-30.55717848773868" lon="115.42834774938906"><ele>183.0</ele><time>2026-04-12T08:48:42Z</time></trkpt><trkpt lat="-30.557174140160807" lon="115.42804577931206"><ele>186.5</ele><time>2026-04-12T08:48:43Z</time></trkpt><trkpt lat="-30.557170132052114" lon="115.42774254723558"><ele>190.0</ele><time>2026-04-12T08:48:44Z</time></trkpt><trkpt lat="-30.557166934531338" lon="115.42743482397452"><ele>189.0</ele><time>2026-04-12T08:48:45Z</time></trkpt><trkpt lat="-30.557162371914455" lon="115.42712548142406"><ele>188.0</ele><time>2026-04-12T08:48:46Z</time></trkpt><trkpt lat="-30.55715630732356" lon="115.42682204261328"><ele>188.0</ele><time>2026-04-12T08:48:47Z</time></trkpt><trkpt lat="-30.557153387694022" lon="115.42651431326424"><ele>188.0</ele><time>2026-04-12T08:48:48Z</time></trkpt><trkpt lat="-30.55714832888986" lon="115.42620540948624"><ele>188.5</ele><time>2026-04-12T08:48:49Z</time></trkpt><trkpt lat="-30.55714812351468" lon="115.42589904081969"><ele>189.0</ele><time>2026-04-12T08:48:50Z</time></trkpt><trkpt lat="-30.557145012024854" lon="115.42559729879768"><ele>188.5</ele><time>2026-04-12T08:48:51Z</time></trkpt><trkpt lat="-30.55714223276248" lon="115.4252987837945"><ele>188.0</ele><time>2026-04-12T08:48:52Z</time></trkpt><trkpt lat="-30.557141958678276" lon="115.42500278364318"><ele>188.0</ele><time>2026-04-12T08:48:53Z</time></trkpt><trkpt lat="-30.557141002321384" lon="115.42470965521491"><ele>188.0</ele><time>2026-04-12T08:48:54Z</time></trkpt><trkpt lat="-30.557140809158373" lon="115.42440980046435"><ele>187.5</ele><time>2026-04-12T08:48:55Z</time></trkpt><trkpt lat="-30.557138250853203" lon="115.42411498718161"><ele>187.0</ele><time>2026-04-12T08:48:56Z</time></trkpt><trkpt lat="-30.557137683399866" lon="115.42381263777013"><ele>185.0</ele><time>2026-04-12T08:48:57Z</time></trkpt><trkpt lat="-30.55713654718954" lon="115.42352283389566"><ele>183.0</ele><time>2026-04-12T08:48:58Z</time></trkpt><trkpt lat="-30.557131770239774" lon="115.42323346166222"><ele>182.0</ele><time>2026-04-12T08:48:59Z</time></trkpt><trkpt lat="-30.55712605987205" lon="115.42294553040914"><ele>181.0</ele><time>2026-04-12T08:49:00Z</time></trkpt><trkpt lat="-30.557139695197755" lon="115.42265278921712"><ele>181.0</ele><time>2026-04-12T08:49:01Z</time></trkpt><trkpt lat="-30.55713915357932" lon="115.42235539190217"><ele>181.0</ele><time>2026-04-12T08:49:02Z</time></trkpt><trkpt lat="-30.557137899839308" lon="115.42205999901931"><ele>179.5</ele><time>2026-04-12T08:49:03Z</time></trkpt><trkpt lat="-30.557136685602313" lon="115.42176089705825"><ele>178.0</ele><time>2026-04-12T08:49:04Z</time></trkpt><trkpt lat="-30.55713568761369" lon="115.42146119581098"><ele>176.5</ele><time>2026-04-12T08:49:05Z</time></trkpt><trkpt lat="-30.557134665957147" lon="115.4211543874201"><ele>175.0</ele><time>2026-04-12T08:49:06Z</time></trkpt><trkpt lat="-30.557133146064366" lon="115.42084741377282"><ele>175.0</ele><time>2026-04-12T08:49:07Z</time></trkpt><trkpt lat="-30.55713156493183" lon="115.42054214033871"><ele>175.0</ele><time>2026-04-12T08:49:08Z</time></trkpt><trkpt lat="-30.557116084040487" lon="115.42023772797425"><ele>173.5</ele><time>2026-04-12T08:49:09Z</time></trkpt><trkpt lat="-30.55711419732983" lon="115.41993401426369"><ele>172.0</ele><time>2026-04-12T08:49:10Z</time></trkpt><trkpt lat="-30.557110109240664" lon="115.4196387357275"><ele>170.0</ele><time>2026-04-12T08:49:11Z</time></trkpt><trkpt lat="-30.557106811812865" lon="115.41933294980149"><ele>168.0</ele><time>2026-04-12T08:49:12Z</time></trkpt><trkpt lat="-30.55711932228724" lon="115.41902473039433"><ele>166.5</ele><time>2026-04-12T08:49:13Z</time></trkpt><trkpt lat="-30.557114995989487" lon="115.41872277676022"><ele>165.0</ele><time>2026-04-12T08:49:14Z</time></trkpt><trkpt lat="-30.557111151209227" lon="115.41841482462016"><ele>165.0</ele><time>2026-04-12T08:49:15Z</time></trkpt><trkpt lat="-30.557092935138638" lon="115.41811183445992"><ele>165.0</ele><time>2026-04-12T08:49:16Z</time></trkpt><trkpt lat="-30.55709494109941" lon="115.41781636216398"><ele>164.5</ele><time>2026-04-12T08:49:17Z</time></trkpt><trkpt lat="-30.55709427648121" lon="115.41752717668739"><ele>164.0</ele><time>2026-04-12T08:49:18Z</time></trkpt><trkpt lat="-30.557089703917555" lon="115.4172382574331"><ele>163.0</ele><time>2026-04-12T08:49:19Z</time></trkpt><trkpt lat="-30.557083976260554" lon="115.41694371377089"><ele>162.0</ele><time>2026-04-12T08:49:20Z</time></trkpt><trkpt lat="-30.5570797166018" lon="115.41664555121606"><ele>162.0</ele><time>2026-04-12T08:49:21Z</time></trkpt><trkpt lat="-30.55707924240611" lon="115.41634468001506"><ele>162.0</ele><time>2026-04-12T08:49:22Z</time></trkpt><trkpt lat="-30.557078859694286" lon="115.41605227704156"><ele>162.5</ele><time>2026-04-12T08:49:23Z</time></trkpt><trkpt lat="-30.557078801102527" lon="115.41576380501608"><ele>163.0</ele><time>2026-04-12T08:49:24Z</time></trkpt><trkpt lat="-30.557074805317203" lon="115.41547088049616"><ele>163.0</ele><time>2026-04-12T08:49:25Z</time></trkpt><trkpt lat="-30.55706929837387" lon="115.41518169728852"><ele>163.0</ele><time>2026-04-12T08:49:26Z</time></trkpt><trkpt lat="-30.55706551402465" lon="115.41488584379314"><ele>161.5</ele><time>2026-04-12T08:49:27Z</time></trkpt><trkpt lat="-30.557060828263726" lon="115.41459000083199"><ele>160.0</ele><time>2026-04-12T08:49:28Z</time></trkpt><trkpt lat="-30.55705570763085" lon="115.41429049011516"><ele>160.0</ele><time>2026-04-12T08:49:29Z</time></trkpt><trkpt lat="-30.55705067825742" lon="115.41399094277655"><ele>160.0</ele><time>2026-04-12T08:49:30Z</time></trkpt><trkpt lat="-30.557049917637887" lon="115.41368585959914"><ele>157.5</ele><time>2026-04-12T08:49:31Z</time></trkpt><trkpt lat="-30.557048764962467" lon="115.41338869452677"><ele>155.0</ele><time>2026-04-12T08:49:32Z</time></trkpt><trkpt lat="-30.557046375564628" lon="115.41308892470003"><ele>153.5</ele><time>2026-04-12T08:49:33Z</time></trkpt><trkpt lat="-30.55704241543525" lon="115.41279257735957"><ele>152.0</ele><time>2026-04-12T08:49:34Z</time></trkpt><trkpt lat="-30.557038186391477" lon="115.41249790988883"><ele>151.5</ele><time>2026-04-12T08:49:35Z</time></trkpt><trkpt lat="-30.557034903532347" lon="115.4121983977384"><ele>151.0</ele><time>2026-04-12T08:49:36Z</time></trkpt><trkpt lat="-30.557032949530463" lon="115.41190411558374"><ele>151.0</ele><time>2026-04-12T08:49:37Z</time></trkpt><trkpt lat="-30.557030460319453" lon="115.4116246509181"><ele>151.0</ele><time>2026-04-12T08:49:38Z</time></trkpt><trkpt lat="-30.557025761899016" lon="115.41133576723944"><ele>149.0</ele><time>2026-04-12T08:49:39Z</time></trkpt><trkpt lat="-30.557023917873774" lon="115.41104010413295"><ele>147.0</ele><time>2026-04-12T08:49:40Z</time></trkpt><trkpt lat="-30.557039887042187" lon="115.41073655953853"><ele>146.0</ele><time>2026-04-12T08:49:41Z</time></trkpt><trkpt lat="-30.55703858324105" lon="115.41043419983174"><ele>145.0</ele><time>2026-04-12T08:49:42Z</time></trkpt><trkpt lat="-30.557015417804887" lon="115.41012943103841"><ele>145.0</ele><time>2026-04-12T08:49:43Z</time></trkpt><trkpt lat="-30.557012964245434" lon="115.40982511145972"><ele>145.0</ele><time>2026-04-12T08:49:44Z</time></trkpt><trkpt lat="-30.557007527490878" lon="115.40951751467941"><ele>143.5</ele><time>2026-04-12T08:49:45Z</time></trkpt><trkpt lat="-30.557001672439004" lon="115.40920410303403"><ele>142.0</ele><time>2026-04-12T08:49:46Z</time></trkpt><trkpt lat="-30.55699569480057" lon="115.4088896272301"><ele>141.0</ele><time>2026-04-12T08:49:47Z</time></trkpt><trkpt lat="-30.556992276292426" lon="115.4085771567932"><ele>140.0</ele><time>2026-04-12T08:49:48Z</time></trkpt><trkpt lat="-30.556988895520774" lon="115.40826521534898"><ele>138.0</ele><time>2026-04-12T08:49:49Z</time></trkpt><trkpt lat="-30.55698423222204" lon="115.40795189070964"><ele>136.0</ele><time>2026-04-12T08:49:50Z</time></trkpt><trkpt lat="-30.556981921136277" lon="115.40764558306175"><ele>136.0</ele><time>2026-04-12T08:49:51Z</time></trkpt><trkpt lat="-30.556979311093855" lon="115.40733816389768"><ele>136.0</ele><time>2026-04-12T08:49:52Z</time></trkpt><trkpt lat="-30.55697635644413" lon="115.40702867783602"><ele>135.0</ele><time>2026-04-12T08:49:53Z</time></trkpt><trkpt lat="-30.556974132042676" lon="115.40672072725101"><ele>134.0</ele><time>2026-04-12T08:49:54Z</time></trkpt><trkpt lat="-30.556968698748268" lon="115.40641690504044"><ele>133.5</ele><time>2026-04-12T08:49:55Z</time></trkpt><trkpt lat="-30.556965775126407" lon="115.40611345793043"><ele>133.0</ele><time>2026-04-12T08:49:56Z</time></trkpt><trkpt lat="-30.55696261778122" lon="115.40580492000032"><ele>133.0</ele><time>2026-04-12T08:49:57Z</time></trkpt><trkpt lat="-30.556960509173877" lon="115.40549991813867"><ele>133.0</ele><time>2026-04-12T08:49:58Z</time></trkpt><trkpt lat="-30.556960263306262" lon="115.40519689865327"><ele>133.0</ele><time>2026-04-12T08:49:59Z</time></trkpt><trkpt lat="-30.556960536303798" lon="115.40489718587072"><ele>133.0</ele><time>2026-04-12T08:50:00Z</time></trkpt><trkpt lat="-30.55696107981425" lon="115.40459768141868"><ele>133.0</ele><time>2026-04-12T08:50:01Z</time></trkpt><trkpt lat="-30.55695956678969" lon="115.40429303452072"><ele>133.0</ele><time>2026-04-12T08:50:02Z</time></trkpt><trkpt lat="-30.55695629520754" lon="115.40398418807816"><ele>131.5</ele><time>2026-04-12T08:50:03Z</time></trkpt><trkpt lat="-30.556949949652992" lon="115.40367210476239"><ele>130.0</ele><time>2026-04-12T08:50:04Z</time></trkpt><trkpt lat="-30.556945061211138" lon="115.40335926803137"><ele>130.0</ele><time>2026-04-12T08:50:05Z</time></trkpt><trkpt lat="-30.556942911178652" lon="115.40305181583663"><ele>130.0</ele><time>2026-04-12T08:50:06Z</time></trkpt><trkpt lat="-30.55694116227143" lon="115.40274230246375"><ele>129.0</ele><time>2026-04-12T08:50:07Z</time></trkpt><trkpt lat="-30.556937822513216" lon="115.40243555084503"><ele>128.0</ele><time>2026-04-12T08:50:08Z</time></trkpt><trkpt lat="-30.55693647382141" lon="115.40212738041082"><ele>128.0</ele><time>2026-04-12T08:50:09Z</time></trkpt><trkpt lat="-30.55693545909372" lon="115.40182748848248"><ele>128.0</ele><time>2026-04-12T08:50:10Z</time></trkpt><trkpt lat="-30.556932766374754" lon="115.401522224337"><ele>127.0</ele><time>2026-04-12T08:50:11Z</time></trkpt><trkpt lat="-30.556928220471246" lon="115.40121867824507"><ele>126.0</ele><time>2026-04-12T08:50:12Z</time></trkpt><trkpt lat="-30.55692299002665" lon="115.40091498238054"><ele>126.0</ele><time>2026-04-12T08:50:13Z</time></trkpt><trkpt lat="-30.556919115425522" lon="115.40060870289105"><ele>126.0</ele><time>2026-04-12T08:50:14Z</time></trkpt><trkpt lat="-30.5569128355786" lon="115.40029694696698"><ele>125.0</ele><time>2026-04-12T08:50:15Z</time></trkpt><trkpt lat="-30.556909827075916" lon="115.39998522472924"><ele>124.0</ele><time>2026-04-12T08:50:16Z</time></trkpt><trkpt lat="-30.55690430492643" lon="115.39967590324663"><ele>123.5</ele><time>2026-04-12T08:50:17Z</time></trkpt><trkpt lat="-30.55689807543908" lon="115.39937160798772"><ele>123.0</ele><time>2026-04-12T08:50:18Z</time></trkpt><trkpt lat="-30.556893355556134" lon="115.3990644347085"><ele>123.0</ele><time>2026-04-12T08:50:19Z</time></trkpt><trkpt lat="-30.55688996394399" lon="115.39876072495953"><ele>123.0</ele><time>2026-04-12T08:50:20Z</time></trkpt><trkpt lat="-30.556890126223156" lon="115.39845478188231"><ele>123.0</ele><time>2026-04-12T08:50:21Z</time></trkpt><trkpt lat="-30.556888842926643" lon="115.39815006535835"><ele>123.0</ele><time>2026-04-12T08:50:22Z</time></trkpt><trkpt lat="-30.556887942248487" lon="115.39784856652466"><ele>123.5</ele><time>2026-04-12T08:50:23Z</time></trkpt><trkpt lat="-30.556883754382486" lon="115.39754873616604"><ele>124.0</ele><time>2026-04-12T08:50:24Z</time></trkpt><trkpt lat="-30.556879743336463" lon="115.3972503787384"><ele>124.5</ele><time>2026-04-12T08:50:25Z</time></trkpt><trkpt lat="-30.55687571831484" lon="115.39694937622939"><ele>125.0</ele><time>2026-04-12T08:50:26Z</time></trkpt><trkpt lat="-30.55687625921466" lon="115.39664786159834"><ele>125.0</ele><time>2026-04-12T08:50:27Z</time></trkpt><trkpt lat="-30.556876622768275" lon="115.3963511357906"><ele>125.0</ele><time>2026-04-12T08:50:28Z</time></trkpt><trkpt lat="-30.55687746778588" lon="115.39605189971091"><ele>126.0</ele><time>2026-04-12T08:50:29Z</time></trkpt><trkpt lat="-30.556874251316955" lon="115.39575199572836"><ele>127.0</ele><time>2026-04-12T08:50:30Z</time></trkpt><trkpt lat="-30.55687125719525" lon="115.39545698465082"><ele>128.0</ele><time>2026-04-12T08:50:31Z</time></trkpt><trkpt lat="-30.556871378790774" lon="115.3951639485979"><ele>129.0</ele><time>2026-04-12T08:50:32Z</time></trkpt><trkpt lat="-30.556873176290566" lon="115.3948806705047"><ele>130.0</ele><time>2026-04-12T08:50:33Z</time></trkpt><trkpt lat="-30.55686981298929" lon="115.39460074408176"><ele>131.0</ele><time>2026-04-12T08:50:34Z</time></trkpt><trkpt lat="-30.55686905347883" lon="115.39430855461079"><ele>131.0</ele><time>2026-04-12T08:50:35Z</time></trkpt><trkpt lat="-30.556864518032608" lon="115.39400647828414"><ele>131.0</ele><time>2026-04-12T08:50:36Z</time></trkpt><trkpt lat="-30.55685725274269" lon="115.39369867763372"><ele>129.0</ele><time>2026-04-12T08:50:37Z</time></trkpt><trkpt lat="-30.556851196551197" lon="115.39339309311087"><ele>127.0</ele><time>2026-04-12T08:50:38Z</time></trkpt><trkpt lat="-30.556845751467677" lon="115.39308684611598"><ele>126.5</ele><time>2026-04-12T08:50:39Z</time></trkpt><trkpt lat="-30.556842392497725" lon="115.39277868920077"><ele>126.0</ele><time>2026-04-12T08:50:40Z</time></trkpt><trkpt lat="-30.556840400419638" lon="115.39247203519773"><ele>124.5</ele><time>2026-04-12T08:50:41Z</time></trkpt><trkpt lat="-30.556840246519105" lon="115.39216990469536"><ele>123.0</ele><time>2026-04-12T08:50:42Z</time></trkpt><trkpt lat="-30.55684158694595" lon="115.39186810908426"><ele>123.0</ele><time>2026-04-12T08:50:43Z</time></trkpt><trkpt lat="-30.556840294016606" lon="115.39156116258864"><ele>123.0</ele><time>2026-04-12T08:50:44Z</time></trkpt><trkpt lat="-30.556837832503756" lon="115.39125451398529"><ele>123.0</ele><time>2026-04-12T08:50:45Z</time></trkpt><trkpt lat="-30.556835012753602" lon="115.39093996623949"><ele>123.0</ele><time>2026-04-12T08:50:46Z</time></trkpt><trkpt lat="-30.556830466833762" lon="115.39063086973326"><ele>122.5</ele><time>2026-04-12T08:50:47Z</time></trkpt><trkpt lat="-30.556823637386334" lon="115.39032182420596"><ele>122.0</ele><time>2026-04-12T08:50:48Z</time></trkpt><trkpt lat="-30.556815589316486" lon="115.39001914661036"><ele>122.0</ele><time>2026-04-12T08:50:49Z</time></trkpt><trkpt lat="-30.55681255820457" lon="115.38970801672683"><ele>122.0</ele><time>2026-04-12T08:50:50Z</time></trkpt><trkpt lat="-30.556808905668042" lon="115.38940667379012"><ele>122.0</ele><time>2026-04-12T08:50:51Z</time></trkpt><trkpt lat="-30.55683198710945" lon="115.38910656276602"><ele>122.0</ele><time>2026-04-12T08:50:52Z</time></trkpt><trkpt lat="-30.556831987110105" lon="115.38880915598924"><ele>121.5</ele><time>2026-04-12T08:50:53Z</time></trkpt><trkpt lat="-30.556831663951403" lon="115.3885144933228"><ele>121.0</ele><time>2026-04-12T08:50:54Z</time></trkpt><trkpt lat="-30.55682896363241" lon="115.38821874764598"><ele>120.0</ele><time>2026-04-12T08:50:55Z</time></trkpt><trkpt lat="-30.556826623491993" lon="115.38792465293949"><ele>119.0</ele><time>2026-04-12T08:50:56Z</time></trkpt><trkpt lat="-30.556822919513394" lon="115.38762758966679"><ele>119.0</ele><time>2026-04-12T08:50:57Z</time></trkpt><trkpt lat="-30.556818377156414" lon="115.38733443728104"><ele>119.0</ele><time>2026-04-12T08:50:58Z</time></trkpt><trkpt lat="-30.556814001186012" lon="115.38703997016295"><ele>117.5</ele><time>2026-04-12T08:50:59Z</time></trkpt><trkpt lat="-30.55681005264113" lon="115.38674130875775"><ele>116.0</ele><time>2026-04-12T08:51:00Z</time></trkpt><trkpt lat="-30.556807775366902" lon="115.38643837735566"><ele>116.5</ele><time>2026-04-12T08:51:01Z</time></trkpt><trkpt lat="-30.556805312265624" lon="115.38613455913243"><ele>117.0</ele><time>2026-04-12T08:51:02Z</time></trkpt><trkpt lat="-30.556803331373217" lon="115.38583084830533"><ele>117.0</ele><time>2026-04-12T08:51:03Z</time></trkpt><trkpt lat="-30.55680146403472" lon="115.38553079688177"><ele>117.0</ele><time>2026-04-12T08:51:04Z</time></trkpt><trkpt lat="-30.55679906235036" lon="115.38523104135002"><ele>117.0</ele><time>2026-04-12T08:51:05Z</time></trkpt><trkpt lat="-30.556796334782888" lon="115.38492875870428"><ele>117.0</ele><time>2026-04-12T08:51:06Z</time></trkpt><trkpt lat="-30.556793590836545" lon="115.38462466078543"><ele>116.0</ele><time>2026-04-12T08:51:07Z</time></trkpt><trkpt lat="-30.556790478991054" lon="115.38431812345826"><ele>115.0</ele><time>2026-04-12T08:51:08Z</time></trkpt><trkpt lat="-30.556786442079638" lon="115.38400770592793"><ele>115.5</ele><time>2026-04-12T08:51:09Z</time></trkpt><trkpt lat="-30.556782748466084" lon="115.38370262643316"><ele>116.0</ele><time>2026-04-12T08:51:10Z</time></trkpt><trkpt lat="-30.556778867597604" lon="115.38340022931278"><ele>116.0</ele><time>2026-04-12T08:51:11Z</time></trkpt><trkpt lat="-30.5567756622237" lon="115.3830976158794"><ele>116.0</ele><time>2026-04-12T08:51:12Z</time></trkpt><trkpt lat="-30.556771448771357" lon="115.38279296365194"><ele>114.5</ele><time>2026-04-12T08:51:13Z</time></trkpt><trkpt lat="-30.556767609154903" lon="115.38248642198828"><ele>113.0</ele><time>2026-04-12T08:51:14Z</time></trkpt><trkpt lat="-30.55676368405972" lon="115.38217305582322"><ele>113.0</ele><time>2026-04-12T08:51:15Z</time></trkpt><trkpt lat="-30.556760304136457" lon="115.38185933093767"><ele>113.0</ele><time>2026-04-12T08:51:16Z</time></trkpt><trkpt lat="-30.556756887130586" lon="115.38154984497139"><ele>113.0</ele><time>2026-04-12T08:51:17Z</time></trkpt><trkpt lat="-30.556753070320536" lon="115.38123863854968"><ele>113.0</ele><time>2026-04-12T08:51:18Z</time></trkpt><trkpt lat="-30.55674938162275" lon="115.38092967736947"><ele>113.0</ele><time>2026-04-12T08:51:19Z</time></trkpt><trkpt lat="-30.556746248347764" lon="115.38062506272185"><ele>113.0</ele><time>2026-04-12T08:51:20Z</time></trkpt><trkpt lat="-30.55674288730289" lon="115.38031757266957"><ele>113.0</ele><time>2026-04-12T08:51:21Z</time></trkpt><trkpt lat="-30.556739828581886" lon="115.38001256506894"><ele>113.0</ele><time>2026-04-12T08:51:22Z</time></trkpt><trkpt lat="-30.55673697131482" lon="115.37970627295834"><ele>113.0</ele><time>2026-04-12T08:51:23Z</time></trkpt><trkpt lat="-30.556734442119293" lon="115.37940207849904"><ele>113.0</ele><time>2026-04-12T08:51:24Z</time></trkpt><trkpt lat="-30.556732596228333" lon="115.37909673733685"><ele>111.5</ele><time>2026-04-12T08:51:25Z</time></trkpt><trkpt lat="-30.55673498713307" lon="115.3787927530292"><ele>110.0</ele><time>2026-04-12T08:51:26Z</time></trkpt><trkpt lat="-30.556732269797344" lon="115.37848265629097"><ele>110.0</ele><time>2026-04-12T08:51:27Z</time></trkpt><trkpt lat="-30.556729348054947" lon="115.37817110126309"><ele>110.0</ele><time>2026-04-12T08:51:28Z</time></trkpt><trkpt lat="-30.55672537369878" lon="115.37785937328974"><ele>108.5</ele><time>2026-04-12T08:51:29Z</time></trkpt><trkpt lat="-30.556721418382686" lon="115.37754913871014"><ele>107.0</ele><time>2026-04-12T08:51:30Z</time></trkpt><trkpt lat="-30.55671743767054" lon="115.37723691217718"><ele>105.5</ele><time>2026-04-12T08:51:31Z</time></trkpt><trkpt lat="-30.55671340753074" lon="115.37692104769506"><ele>104.0</ele><time>2026-04-12T08:51:32Z</time></trkpt><trkpt lat="-30.55670935915492" lon="115.37660548453816"><ele>103.5</ele><time>2026-04-12T08:51:33Z</time></trkpt><trkpt lat="-30.556704517765162" lon="115.37628985972715"><ele>103.0</ele><time>2026-04-12T08:51:34Z</time></trkpt><trkpt lat="-30.556700407269837" lon="115.37597495670398"><ele>103.0</ele><time>2026-04-12T08:51:35Z</time></trkpt><trkpt lat="-30.556696712848506" lon="115.37566318750486"><ele>103.0</ele><time>2026-04-12T08:51:36Z</time></trkpt><trkpt lat="-30.556693119290227" lon="115.37535251317557"><ele>101.5</ele><time>2026-04-12T08:51:37Z</time></trkpt><trkpt lat="-30.55668924933757" lon="115.37503486896911"><ele>100.0</ele><time>2026-04-12T08:51:38Z</time></trkpt><trkpt lat="-30.55668498012957" lon="115.37470967126279"><ele>100.5</ele><time>2026-04-12T08:51:39Z</time></trkpt><trkpt lat="-30.556680891247225" lon="115.37438607442228"><ele>101.0</ele><time>2026-04-12T08:51:40Z</time></trkpt><trkpt lat="-30.556676023437095" lon="115.37405866130774"><ele>101.5</ele><time>2026-04-12T08:51:41Z</time></trkpt><trkpt lat="-30.556670798396592" lon="115.3737343742852"><ele>102.0</ele><time>2026-04-12T08:51:42Z</time></trkpt><trkpt lat="-30.556665407054457" lon="115.37340757606606"><ele>102.0</ele><time>2026-04-12T08:51:43Z</time></trkpt><trkpt lat="-30.556659783394704" lon="115.37309074044485"><ele>102.0</ele><time>2026-04-12T08:51:44Z</time></trkpt><trkpt lat="-30.556654624188422" lon="115.37277844367314"><ele>102.0</ele><time>2026-04-12T08:51:45Z</time></trkpt><trkpt lat="-30.55663353457099" lon="115.37246886238881"><ele>102.0</ele><time>2026-04-12T08:51:46Z</time></trkpt><trkpt lat="-30.55662975642055" lon="115.3721610067198"><ele>101.0</ele><time>2026-04-12T08:51:47Z</time></trkpt><trkpt lat="-30.55662710948042" lon="115.37185290704437"><ele>100.0</ele><time>2026-04-12T08:51:48Z</time></trkpt><trkpt lat="-30.55664272208954" lon="115.37154511262645"><ele>98.0</ele><time>2026-04-12T08:51:49Z</time></trkpt><trkpt lat="-30.556642187953223" lon="115.37123333047916"><ele>96.0</ele><time>2026-04-12T08:51:50Z</time></trkpt><trkpt lat="-30.556640592129703" lon="115.37091819767328"><ele>96.0</ele><time>2026-04-12T08:51:51Z</time></trkpt><trkpt lat="-30.556639211966534" lon="115.3706026793781"><ele>96.0</ele><time>2026-04-12T08:51:52Z</time></trkpt><trkpt lat="-30.55663507974847" lon="115.3702842909901"><ele>95.0</ele><time>2026-04-12T08:51:53Z</time></trkpt><trkpt lat="-30.55663075798842" lon="115.3699602840347"><ele>94.0</ele><time>2026-04-12T08:51:54Z</time></trkpt><trkpt lat="-30.556627434758703" lon="115.36963242199842"><ele>93.0</ele><time>2026-04-12T08:51:55Z</time></trkpt><trkpt lat="-30.556625070582882" lon="115.36930628037804"><ele>92.0</ele><time>2026-04-12T08:51:56Z</time></trkpt><trkpt lat="-30.556622926642678" lon="115.36897813138341"><ele>92.5</ele><time>2026-04-12T08:51:57Z</time></trkpt><trkpt lat="-30.556620786602604" lon="115.36864420872145"><ele>93.0</ele><time>2026-04-12T08:51:58Z</time></trkpt><trkpt lat="-30.55661869492683" lon="115.36831073570445"><ele>93.0</ele><time>2026-04-12T08:51:59Z</time></trkpt><trkpt lat="-30.556615354905706" lon="115.36797962174697"><ele>93.0</ele><time>2026-04-12T08:52:00Z</time></trkpt><trkpt lat="-30.556612987756893" lon="115.3676526230018"><ele>93.0</ele><time>2026-04-12T08:52:01Z</time></trkpt><trkpt lat="-30.556610612140847" lon="115.36732445348014"><ele>93.0</ele><time>2026-04-12T08:52:02Z</time></trkpt><trkpt lat="-30.55660822560615" lon="115.3669947733289"><ele>93.0</ele><time>2026-04-12T08:52:03Z</time></trkpt><trkpt lat="-30.556604665700725" lon="115.36666595722235"><ele>93.0</ele><time>2026-04-12T08:52:04Z</time></trkpt><trkpt lat="-30.556582277100805" lon="115.36633999123275"><ele>92.0</ele><time>2026-04-12T08:52:05Z</time></trkpt><trkpt lat="-30.556580067261915" lon="115.36602049681858"><ele>91.0</ele><time>2026-04-12T08:52:06Z</time></trkpt><trkpt lat="-30.556576954824486" lon="115.36569711016999"><ele>91.0</ele><time>2026-04-12T08:52:07Z</time></trkpt><trkpt lat="-30.556574746318375" lon="115.36537216700148"><ele>91.0</ele><time>2026-04-12T08:52:08Z</time></trkpt><trkpt lat="-30.556572289774028" lon="115.36504698038792"><ele>91.0</ele><time>2026-04-12T08:52:09Z</time></trkpt><trkpt lat="-30.55656866460896" lon="115.36472411813746"><ele>91.0</ele><time>2026-04-12T08:52:10Z</time></trkpt><trkpt lat="-30.55656444434147" lon="115.36440223583897"><ele>91.0</ele><time>2026-04-12T08:52:11Z</time></trkpt><trkpt lat="-30.55656035312178" lon="115.36408166522871"><ele>91.0</ele><time>2026-04-12T08:52:12Z</time></trkpt><trkpt lat="-30.55655784764601" lon="115.3637647498454"><ele>90.5</ele><time>2026-04-12T08:52:13Z</time></trkpt><trkpt lat="-30.556552934656786" lon="115.36344855403046"><ele>90.0</ele><time>2026-04-12T08:52:14Z</time></trkpt><trkpt lat="-30.556548019542323" lon="115.36312704154285"><ele>89.5</ele><time>2026-04-12T08:52:15Z</time></trkpt><trkpt lat="-30.55654403196451" lon="115.36280503859712"><ele>89.0</ele><time>2026-04-12T08:52:16Z</time></trkpt><trkpt lat="-30.55653983614324" lon="115.36248701474311"><ele>89.0</ele><time>2026-04-12T08:52:17Z</time></trkpt><trkpt lat="-30.556535671835093" lon="115.36217142457294"><ele>89.0</ele><time>2026-04-12T08:52:18Z</time></trkpt><trkpt lat="-30.55653060784285" lon="115.36185246129452"><ele>89.0</ele><time>2026-04-12T08:52:19Z</time></trkpt><trkpt lat="-30.556528531767654" lon="115.36153537045733"><ele>89.0</ele><time>2026-04-12T08:52:20Z</time></trkpt><trkpt lat="-30.556528631210725" lon="115.36121077770659"><ele>87.5</ele><time>2026-04-12T08:52:21Z</time></trkpt><trkpt lat="-30.556526459617135" lon="115.36088102685622"><ele>86.0</ele><time>2026-04-12T08:52:22Z</time></trkpt><trkpt lat="-30.556520176550503" lon="115.36054141789866"><ele>85.0</ele><time>2026-04-12T08:52:23Z</time></trkpt><trkpt lat="-30.55651279981993" lon="115.36019883369586"><ele>84.0</ele><time>2026-04-12T08:52:24Z</time></trkpt><trkpt lat="-30.556507607838324" lon="115.35985930890891"><ele>83.5</ele><time>2026-04-12T08:52:25Z</time></trkpt><trkpt lat="-30.556505252259225" lon="115.35951533865307"><ele>83.0</ele><time>2026-04-12T08:52:26Z</time></trkpt><trkpt lat="-30.556501276652362" lon="115.35917388350889"><ele>82.5</ele><time>2026-04-12T08:52:27Z</time></trkpt><trkpt lat="-30.556493110729456" lon="115.358825350464"><ele>82.0</ele><time>2026-04-12T08:52:28Z</time></trkpt><trkpt lat="-30.556483280080467" lon="115.35846651460868"><ele>82.0</ele><time>2026-04-12T08:52:29Z</time></trkpt><trkpt lat="-30.556478353088067" lon="115.35811068660952"><ele>82.0</ele><time>2026-04-12T08:52:30Z</time></trkpt><trkpt lat="-30.556477667475686" lon="115.35776318372142"><ele>82.5</ele><time>2026-04-12T08:52:31Z</time></trkpt><trkpt lat="-30.556479542979115" lon="115.35743632793698"><ele>83.0</ele><time>2026-04-12T08:52:32Z</time></trkpt><trkpt lat="-30.556479747456535" lon="115.35713307597479"><ele>84.0</ele><time>2026-04-12T08:52:33Z</time></trkpt><trkpt lat="-30.556476977202163" lon="115.356828401205"><ele>85.0</ele><time>2026-04-12T08:52:34Z</time></trkpt><trkpt lat="-30.556474648143855" lon="115.35651212597111"><ele>86.0</ele><time>2026-04-12T08:52:35Z</time></trkpt><trkpt lat="-30.55647417784357" lon="115.35619455804742"><ele>87.0</ele><time>2026-04-12T08:52:36Z</time></trkpt><trkpt lat="-30.55647191766272" lon="115.35587886244039"><ele>87.0</ele><time>2026-04-12T08:52:37Z</time></trkpt><trkpt lat="-30.556472384406362" lon="115.35556597623408"><ele>87.0</ele><time>2026-04-12T08:52:38Z</time></trkpt><trkpt lat="-30.556472600562337" lon="115.35524223212522"><ele>87.0</ele><time>2026-04-12T08:52:39Z</time></trkpt><trkpt lat="-30.5564701233068" lon="115.35491611389082"><ele>87.0</ele><time>2026-04-12T08:52:40Z</time></trkpt><trkpt lat="-30.556467644501417" lon="115.35458537345413"><ele>85.0</ele><time>2026-04-12T08:52:41Z</time></trkpt><trkpt lat="-30.556463409876965" lon="115.35426192705997"><ele>83.0</ele><time>2026-04-12T08:52:42Z</time></trkpt><trkpt lat="-30.556462327200656" lon="115.35393912575245"><ele>84.0</ele><time>2026-04-12T08:52:43Z</time></trkpt><trkpt lat="-30.55645915332757" lon="115.35361874505286"><ele>85.0</ele><time>2026-04-12T08:52:44Z</time></trkpt><trkpt lat="-30.55645638933487" lon="115.35330312990872"><ele>84.0</ele><time>2026-04-12T08:52:45Z</time></trkpt><trkpt lat="-30.55645569148768" lon="115.35299157732298"><ele>83.0</ele><time>2026-04-12T08:52:46Z</time></trkpt><trkpt lat="-30.556454918281833" lon="115.35268446817985"><ele>83.0</ele><time>2026-04-12T08:52:47Z</time></trkpt><trkpt lat="-30.556451559877107" lon="115.35238380417039"><ele>83.0</ele><time>2026-04-12T08:52:48Z</time></trkpt><trkpt lat="-30.556443325263377" lon="115.35209242539072"><ele>81.0</ele><time>2026-04-12T08:52:49Z</time></trkpt><trkpt lat="-30.55643139063131" lon="115.35180787208282"><ele>79.0</ele><time>2026-04-12T08:52:50Z</time></trkpt><trkpt lat="-30.556420442614105" lon="115.35152782664423"><ele>78.5</ele><time>2026-04-12T08:52:51Z</time></trkpt><trkpt lat="-30.556413321519845" lon="115.35125365739734"><ele>78.0</ele><time>2026-04-12T08:52:52Z</time></trkpt><trkpt lat="-30.556403433610377" lon="115.35098619672576"><ele>78.0</ele><time>2026-04-12T08:52:53Z</time></trkpt><trkpt lat="-30.556385236377444" lon="115.35071487124219"><ele>78.0</ele><time>2026-04-12T08:52:54Z</time></trkpt><trkpt lat="-30.556356738634108" lon="115.35044201445902"><ele>78.0</ele><time>2026-04-12T08:52:55Z</time></trkpt><trkpt lat="-30.556319186188418" lon="115.35016723386255"><ele>78.0</ele><time>2026-04-12T08:52:56Z</time></trkpt><trkpt lat="-30.556279245088838" lon="115.34989149081918"><ele>77.0</ele><time>2026-04-12T08:52:57Z</time></trkpt><trkpt lat="-30.55623942487476" lon="115.34961377368374"><ele>76.0</ele><time>2026-04-12T08:52:58Z</time></trkpt><trkpt lat="-30.556200854589218" lon="115.3493335110796"><ele>76.0</ele><time>2026-04-12T08:52:59Z</time></trkpt><trkpt lat="-30.556163009597018" lon="115.34905442287133"><ele>76.0</ele><time>2026-04-12T08:53:00Z</time></trkpt><trkpt lat="-30.55612531635084" lon="115.34877362633225"><ele>76.0</ele><time>2026-04-12T08:53:01Z</time></trkpt><trkpt lat="-30.556082832744217" lon="115.3484849555468"><ele>76.0</ele><time>2026-04-12T08:53:02Z</time></trkpt><trkpt lat="-30.55603704556479" lon="115.34819539706807"><ele>76.0</ele><time>2026-04-12T08:53:03Z</time></trkpt><trkpt lat="-30.555990907692728" lon="115.34790346112231"><ele>76.0</ele><time>2026-04-12T08:53:04Z</time></trkpt><trkpt lat="-30.55594900077255" lon="115.34760736243359"><ele>76.0</ele><time>2026-04-12T08:53:05Z</time></trkpt><trkpt lat="-30.555909267387733" lon="115.34731063640541"><ele>76.0</ele><time>2026-04-12T08:53:06Z</time></trkpt><trkpt lat="-30.555868460965943" lon="115.34701900087734"><ele>76.0</ele><time>2026-04-12T08:53:07Z</time></trkpt><trkpt lat="-30.555825790416673" lon="115.34675128081349"><ele>76.0</ele><time>2026-04-12T08:53:08Z</time></trkpt><trkpt lat="-30.555780944679295" lon="115.34649829679974"><ele>76.0</ele><time>2026-04-12T08:53:09Z</time></trkpt><trkpt lat="-30.555739357518693" lon="115.34623888731615"><ele>76.0</ele><time>2026-04-12T08:53:10Z</time></trkpt><trkpt lat="-30.555702724926448" lon="115.3459662334158"><ele>76.0</ele><time>2026-04-12T08:53:11Z</time></trkpt><trkpt lat="-30.555676499330733" lon="115.34569379603612"><ele>76.0</ele><time>2026-04-12T08:53:12Z</time></trkpt><trkpt lat="-30.555657931324905" lon="115.34541539207844"><ele>74.5</ele><time>2026-04-12T08:53:13Z</time></trkpt><trkpt lat="-30.555644947100507" lon="115.34513410333085"><ele>73.0</ele><time>2026-04-12T08:53:14Z</time></trkpt><trkpt lat="-30.55563868089585" lon="115.34484842858413"><ele>72.5</ele><time>2026-04-12T08:53:15Z</time></trkpt><trkpt lat="-30.555634890337693" lon="115.34455419526758"><ele>72.0</ele><time>2026-04-12T08:53:16Z</time></trkpt><trkpt lat="-30.555633595546777" lon="115.34425455424257"><ele>72.0</ele><time>2026-04-12T08:53:17Z</time></trkpt><trkpt lat="-30.555651939606825" lon="115.34395843224792"><ele>72.0</ele><time>2026-04-12T08:53:18Z</time></trkpt><trkpt lat="-30.555649954802792" lon="115.34366218979541"><ele>72.0</ele><time>2026-04-12T08:53:19Z</time></trkpt><trkpt lat="-30.55564748927422" lon="115.34336639380734"><ele>72.0</ele><time>2026-04-12T08:53:20Z</time></trkpt><trkpt lat="-30.555644535813894" lon="115.34306584845882"><ele>71.5</ele><time>2026-04-12T08:53:21Z</time></trkpt><trkpt lat="-30.55564230866836" lon="115.34276397241808"><ele>71.0</ele><time>2026-04-12T08:53:22Z</time></trkpt><trkpt lat="-30.555639998682242" lon="115.34245086778785"><ele>71.5</ele><time>2026-04-12T08:53:23Z</time></trkpt><trkpt lat="-30.555637327208576" lon="115.34213255048928"><ele>72.0</ele><time>2026-04-12T08:53:24Z</time></trkpt><trkpt lat="-30.555635199782635" lon="115.3418153817225"><ele>72.0</ele><time>2026-04-12T08:53:25Z</time></trkpt><trkpt lat="-30.55563354887814" lon="115.34150335790578"><ele>72.0</ele><time>2026-04-12T08:53:26Z</time></trkpt><trkpt lat="-30.55563112077869" lon="115.34118981010504"><ele>71.0</ele><time>2026-04-12T08:53:27Z</time></trkpt><trkpt lat="-30.555629123635462" lon="115.34087590425439"><ele>70.0</ele><time>2026-04-12T08:53:28Z</time></trkpt><trkpt lat="-30.555626439350167" lon="115.34056201361022"><ele>69.0</ele><time>2026-04-12T08:53:29Z</time></trkpt><trkpt lat="-30.555623987616464" lon="115.3402523082875"><ele>68.0</ele><time>2026-04-12T08:53:30Z</time></trkpt><trkpt lat="-30.55562128171295" lon="115.33994523927544"><ele>69.0</ele><time>2026-04-12T08:53:31Z</time></trkpt><trkpt lat="-30.555617929021892" lon="115.3396375536503"><ele>70.0</ele><time>2026-04-12T08:53:32Z</time></trkpt><trkpt lat="-30.555614566379283" lon="115.3393308326796"><ele>70.0</ele><time>2026-04-12T08:53:33Z</time></trkpt><trkpt lat="-30.55561135712245" lon="115.3390184687351"><ele>70.0</ele><time>2026-04-12T08:53:34Z</time></trkpt><trkpt lat="-30.55560802458137" lon="115.33870333302666"><ele>70.5</ele><time>2026-04-12T08:53:35Z</time></trkpt><trkpt lat="-30.555603786953565" lon="115.33839320320378"><ele>71.0</ele><time>2026-04-12T08:53:36Z</time></trkpt><trkpt lat="-30.5555995861529" lon="115.33808576850726"><ele>71.0</ele><time>2026-04-12T08:53:37Z</time></trkpt><trkpt lat="-30.5555947031647" lon="115.33777796065132"><ele>71.0</ele><time>2026-04-12T08:53:38Z</time></trkpt><trkpt lat="-30.555590991181344" lon="115.33747229873308"><ele>71.0</ele><time>2026-04-12T08:53:39Z</time></trkpt><trkpt lat="-30.55558760760919" lon="115.33716871043808"><ele>71.0</ele><time>2026-04-12T08:53:40Z</time></trkpt><trkpt lat="-30.55558374989996" lon="115.33686610218619"><ele>71.0</ele><time>2026-04-12T08:53:41Z</time></trkpt><trkpt lat="-30.555580067394907" lon="115.33655217409108"><ele>71.0</ele><time>2026-04-12T08:53:42Z</time></trkpt><trkpt lat="-30.555577168609975" lon="115.33623375752516"><ele>70.0</ele><time>2026-04-12T08:53:43Z</time></trkpt><trkpt lat="-30.555557679072663" lon="115.33591265126299"><ele>69.0</ele><time>2026-04-12T08:53:44Z</time></trkpt><trkpt lat="-30.555571653982064" lon="115.33559732339384"><ele>69.0</ele><time>2026-04-12T08:53:45Z</time></trkpt><trkpt lat="-30.555553032024644" lon="115.33528431060512"><ele>69.0</ele><time>2026-04-12T08:53:46Z</time></trkpt><trkpt lat="-30.555550925063496" lon="115.33497034425638"><ele>69.0</ele><time>2026-04-12T08:53:47Z</time></trkpt><trkpt lat="-30.55556406682324" lon="115.33465549926592"><ele>69.0</ele><time>2026-04-12T08:53:48Z</time></trkpt><trkpt lat="-30.555561578159185" lon="115.33434612788842"><ele>69.0</ele><time>2026-04-12T08:53:49Z</time></trkpt><trkpt lat="-30.55555910467691" lon="115.33403608969002"><ele>69.0</ele><time>2026-04-12T08:53:50Z</time></trkpt><trkpt lat="-30.555556611551218" lon="115.333723844983"><ele>68.5</ele><time>2026-04-12T08:53:51Z</time></trkpt><trkpt lat="-30.55555413519928" lon="115.33341706876368"><ele>68.0</ele><time>2026-04-12T08:53:52Z</time></trkpt><trkpt lat="-30.555551598380386" lon="115.33311337741281"><ele>67.5</ele><time>2026-04-12T08:53:53Z</time></trkpt><trkpt lat="-30.555549063943847" lon="115.33281439568327"><ele>67.0</ele><time>2026-04-12T08:53:54Z</time></trkpt><trkpt lat="-30.555546542879284" lon="115.33251699142095"><ele>67.5</ele><time>2026-04-12T08:53:55Z</time></trkpt><trkpt lat="-30.55554404510058" lon="115.33222248539698"><ele>68.0</ele><time>2026-04-12T08:53:56Z</time></trkpt><trkpt lat="-30.555541593998075" lon="115.3319281456431"><ele>68.0</ele><time>2026-04-12T08:53:57Z</time></trkpt><trkpt lat="-30.555539463286284" lon="115.33162508541332"><ele>68.0</ele><time>2026-04-12T08:53:58Z</time></trkpt><trkpt lat="-30.555536509831633" lon="115.33131625094154"><ele>68.0</ele><time>2026-04-12T08:53:59Z</time></trkpt><trkpt lat="-30.55553359213955" lon="115.33101173201246"><ele>68.0</ele><time>2026-04-12T08:54:00Z</time></trkpt><trkpt lat="-30.555531055586762" lon="115.33070624295941"><ele>68.5</ele><time>2026-04-12T08:54:01Z</time></trkpt><trkpt lat="-30.555528299579915" lon="115.33040274355318"><ele>69.0</ele><time>2026-04-12T08:54:02Z</time></trkpt><trkpt lat="-30.555525920727856" lon="115.33009908100075"><ele>69.0</ele><time>2026-04-12T08:54:03Z</time></trkpt><trkpt lat="-30.555523583636326" lon="115.32979312513072"><ele>69.0</ele><time>2026-04-12T08:54:04Z</time></trkpt><trkpt lat="-30.555520740648117" lon="115.32949013995368"><ele>69.0</ele><time>2026-04-12T08:54:05Z</time></trkpt><trkpt lat="-30.555517825927218" lon="115.32918479793598"><ele>69.0</ele><time>2026-04-12T08:54:06Z</time></trkpt><trkpt lat="-30.555513981848627" lon="115.32887672927819"><ele>69.0</ele><time>2026-04-12T08:54:07Z</time></trkpt><trkpt lat="-30.55551095757419" lon="115.32856008303047"><ele>69.0</ele><time>2026-04-12T08:54:08Z</time></trkpt><trkpt lat="-30.555506623983668" lon="115.32823745468097"><ele>68.5</ele><time>2026-04-12T08:54:09Z</time></trkpt><trkpt lat="-30.55550279811594" lon="115.32791144645093"><ele>68.0</ele><time>2026-04-12T08:54:10Z</time></trkpt><trkpt lat="-30.555499396674556" lon="115.32758488387681"><ele>68.0</ele><time>2026-04-12T08:54:11Z</time></trkpt><trkpt lat="-30.555495843633704" lon="115.32726217819537"><ele>68.0</ele><time>2026-04-12T08:54:12Z</time></trkpt><trkpt lat="-30.55547684132998" lon="115.32693703922021"><ele>68.5</ele><time>2026-04-12T08:54:13Z</time></trkpt><trkpt lat="-30.555473581421147" lon="115.32660948676873"><ele>69.0</ele><time>2026-04-12T08:54:14Z</time></trkpt><trkpt lat="-30.555469820386218" lon="115.32627978627444"><ele>68.0</ele><time>2026-04-12T08:54:15Z</time></trkpt><trkpt lat="-30.55546636646265" lon="115.32595013770508"><ele>67.0</ele><time>2026-04-12T08:54:16Z</time></trkpt><trkpt lat="-30.5554626365668" lon="115.3256226591312"><ele>67.5</ele><time>2026-04-12T08:54:17Z</time></trkpt><trkpt lat="-30.55547528711498" lon="115.32529647808684"><ele>68.0</ele><time>2026-04-12T08:54:18Z</time></trkpt><trkpt lat="-30.555455235823704" lon="115.32496639451365"><ele>67.5</ele><time>2026-04-12T08:54:19Z</time></trkpt><trkpt lat="-30.55545414356713" lon="115.32463640045462"><ele>67.0</ele><time>2026-04-12T08:54:20Z</time></trkpt><trkpt lat="-30.555455639494035" lon="115.32430737878815"><ele>67.0</ele><time>2026-04-12T08:54:21Z</time></trkpt><trkpt lat="-30.555457650727636" lon="115.32398487977568"><ele>67.0</ele><time>2026-04-12T08:54:22Z</time></trkpt><trkpt lat="-30.55545584256238" lon="115.32366441340406"><ele>65.5</ele><time>2026-04-12T08:54:23Z</time></trkpt><trkpt lat="-30.55545080936047" lon="115.3233463525624"><ele>64.0</ele><time>2026-04-12T08:54:24Z</time></trkpt><trkpt lat="-30.55544667376507" lon="115.32302783188464"><ele>63.5</ele><time>2026-04-12T08:54:25Z</time></trkpt><trkpt lat="-30.555443643801183" lon="115.32270932498766"><ele>63.0</ele><time>2026-04-12T08:54:26Z</time></trkpt><trkpt lat="-30.55543904046735" lon="115.32238501109"><ele>63.0</ele><time>2026-04-12T08:54:27Z</time></trkpt><trkpt lat="-30.555431845973217" lon="115.322060075528"><ele>63.0</ele><time>2026-04-12T08:54:28Z</time></trkpt><trkpt lat="-30.555423816913848" lon="115.32173709990323"><ele>63.0</ele><time>2026-04-12T08:54:29Z</time></trkpt><trkpt lat="-30.55541489487272" lon="115.3214190140456"><ele>63.0</ele><time>2026-04-12T08:54:30Z</time></trkpt><trkpt lat="-30.5554079776382" lon="115.32110309848103"><ele>63.5</ele><time>2026-04-12T08:54:31Z</time></trkpt><trkpt lat="-30.55540157191091" lon="115.32079134890898"><ele>64.0</ele><time>2026-04-12T08:54:32Z</time></trkpt><trkpt lat="-30.555397154109293" lon="115.32049349418786"><ele>64.0</ele><time>2026-04-12T08:54:33Z</time></trkpt><trkpt lat="-30.5553976528175" lon="115.32018253123887"><ele>64.0</ele><time>2026-04-12T08:54:34Z</time></trkpt><trkpt lat="-30.5553991386069" lon="115.3198708161584"><ele>64.5</ele><time>2026-04-12T08:54:35Z</time></trkpt><trkpt lat="-30.555400047012185" lon="115.31956143584522"><ele>65.0</ele><time>2026-04-12T08:54:36Z</time></trkpt><trkpt lat="-30.555401321986434" lon="115.31924779912414"><ele>65.0</ele><time>2026-04-12T08:54:37Z</time></trkpt><trkpt lat="-30.55540078543939" lon="115.31894557713618"><ele>65.0</ele><time>2026-04-12T08:54:38Z</time></trkpt><trkpt lat="-30.555396705745697" lon="115.31864216072266"><ele>64.5</ele><time>2026-04-12T08:54:39Z</time></trkpt><trkpt lat="-30.5553915731554" lon="115.318332772253"><ele>64.0</ele><time>2026-04-12T08:54:40Z</time></trkpt><trkpt lat="-30.55538816867921" lon="115.31801917296214"><ele>63.0</ele><time>2026-04-12T08:54:41Z</time></trkpt><trkpt lat="-30.55538518936847" lon="115.317705954135"><ele>62.0</ele><time>2026-04-12T08:54:42Z</time></trkpt><trkpt lat="-30.555383674004" lon="115.31738814714745"><ele>61.5</ele><time>2026-04-12T08:54:43Z</time></trkpt><trkpt lat="-30.555380676261656" lon="115.3170641646536"><ele>61.0</ele><time>2026-04-12T08:54:44Z</time></trkpt><trkpt lat="-30.555377508552073" lon="115.31672926187498"><ele>61.0</ele><time>2026-04-12T08:54:45Z</time></trkpt><trkpt lat="-30.555372745619916" lon="115.31640079734734"><ele>61.0</ele><time>2026-04-12T08:54:46Z</time></trkpt><trkpt lat="-30.555368020261557" lon="115.3160829270683"><ele>61.0</ele><time>2026-04-12T08:54:47Z</time></trkpt><trkpt lat="-30.555364196184154" lon="115.3157734228558"><ele>61.0</ele><time>2026-04-12T08:54:48Z</time></trkpt><trkpt lat="-30.55535883769647" lon="115.31547186150466"><ele>60.5</ele><time>2026-04-12T08:54:49Z</time></trkpt><trkpt lat="-30.555354653487363" lon="115.31519133954657"><ele>60.0</ele><time>2026-04-12T08:54:50Z</time></trkpt><trkpt lat="-30.555357428916697" lon="115.31492670525377"><ele>60.0</ele><time>2026-04-12T08:54:51Z</time></trkpt><trkpt lat="-30.55536877651519" lon="115.31465472493193"><ele>60.0</ele><time>2026-04-12T08:54:52Z</time></trkpt><trkpt lat="-30.555389830110155" lon="115.31437780417512"><ele>60.0</ele><time>2026-04-12T08:54:53Z</time></trkpt><trkpt lat="-30.55542322422842" lon="115.31409430971557"><ele>60.0</ele><time>2026-04-12T08:54:54Z</time></trkpt><trkpt lat="-30.55546809615335" lon="115.31380167876617"><ele>60.5</ele><time>2026-04-12T08:54:55Z</time></trkpt><trkpt lat="-30.555523684246825" lon="115.3135134743918"><ele>61.0</ele><time>2026-04-12T08:54:56Z</time></trkpt><trkpt lat="-30.555586621022883" lon="115.31322220604515"><ele>60.0</ele><time>2026-04-12T08:54:57Z</time></trkpt><trkpt lat="-30.555652914807776" lon="115.31293007525947"><ele>59.0</ele><time>2026-04-12T08:54:58Z</time></trkpt><trkpt lat="-30.55572143452964" lon="115.31264088097745"><ele>59.0</ele><time>2026-04-12T08:54:59Z</time></trkpt><trkpt lat="-30.555790191205155" lon="115.31235008384697"><ele>59.0</ele><time>2026-04-12T08:55:00Z</time></trkpt><trkpt lat="-30.555860230325152" lon="115.31205807132633"><ele>58.0</ele><time>2026-04-12T08:55:01Z</time></trkpt><trkpt lat="-30.555932596530706" lon="115.31176128698361"><ele>57.0</ele><time>2026-04-12T08:55:02Z</time></trkpt><trkpt lat="-30.55600258981444" lon="115.31146135329092"><ele>58.0</ele><time>2026-04-12T08:55:03Z</time></trkpt><trkpt lat="-30.556064943285005" lon="115.31116437796743"><ele>59.0</ele><time>2026-04-12T08:55:04Z</time></trkpt><trkpt lat="-30.55612991661457" lon="115.31087079445855"><ele>58.5</ele><time>2026-04-12T08:55:05Z</time></trkpt><trkpt lat="-30.55620038439331" lon="115.31057030690772"><ele>58.0</ele><time>2026-04-12T08:55:06Z</time></trkpt><trkpt lat="-30.556269342978048" lon="115.31026739951801"><ele>58.0</ele><time>2026-04-12T08:55:07Z</time></trkpt><trkpt lat="-30.556340776590694" lon="115.30996445454247"><ele>58.0</ele><time>2026-04-12T08:55:08Z</time></trkpt><trkpt lat="-30.556411845745114" lon="115.30966522541331"><ele>58.0</ele><time>2026-04-12T08:55:09Z</time></trkpt><trkpt lat="-30.556478271384847" lon="115.30937500596919"><ele>58.0</ele><time>2026-04-12T08:55:10Z</time></trkpt><trkpt lat="-30.556546688246247" lon="115.30908655778815"><ele>57.5</ele><time>2026-04-12T08:55:11Z</time></trkpt><trkpt lat="-30.556613388714354" lon="115.30879165346815"><ele>57.0</ele><time>2026-04-12T08:55:12Z</time></trkpt><trkpt lat="-30.556679677335115" lon="115.30849533874488"><ele>57.0</ele><time>2026-04-12T08:55:13Z</time></trkpt><trkpt lat="-30.556745626666636" lon="115.30819595425471"><ele>57.0</ele><time>2026-04-12T08:55:14Z</time></trkpt><trkpt lat="-30.556810551037067" lon="115.30789441782743"><ele>57.5</ele><time>2026-04-12T08:55:15Z</time></trkpt><trkpt lat="-30.55687819712852" lon="115.30758895703599"><ele>58.0</ele><time>2026-04-12T08:55:16Z</time></trkpt><trkpt lat="-30.556945372259552" lon="115.30728693994583"><ele>58.5</ele><time>2026-04-12T08:55:17Z</time></trkpt><trkpt lat="-30.55701503172126" lon="115.30698715313045"><ele>59.0</ele><time>2026-04-12T08:55:18Z</time></trkpt><trkpt lat="-30.557083138950183" lon="115.30668570801991"><ele>58.5</ele><time>2026-04-12T08:55:19Z</time></trkpt><trkpt lat="-30.557152011885293" lon="115.30637705157137"><ele>58.0</ele><time>2026-04-12T08:55:20Z</time></trkpt><trkpt lat="-30.55722376036169" lon="115.30606693774288"><ele>58.0</ele><time>2026-04-12T08:55:21Z</time></trkpt><trkpt lat="-30.55729521285956" lon="115.30575655992119"><ele>58.0</ele><time>2026-04-12T08:55:22Z</time></trkpt><trkpt lat="-30.55736920753039" lon="115.30543783031123"><ele>57.5</ele><time>2026-04-12T08:55:23Z</time></trkpt><trkpt lat="-30.557444021691264" lon="115.30511536857846"><ele>57.0</ele><time>2026-04-12T08:55:24Z</time></trkpt><trkpt lat="-30.557518809830196" lon="115.30479594801753"><ele>57.5</ele><time>2026-04-12T08:55:25Z</time></trkpt><trkpt lat="-30.55758961735604" lon="115.30448275263561"><ele>58.0</ele><time>2026-04-12T08:55:26Z</time></trkpt><trkpt lat="-30.55766028182659" lon="115.30417307079676"><ele>57.5</ele><time>2026-04-12T08:55:27Z</time></trkpt><trkpt lat="-30.557730199387734" lon="115.30386829176946"><ele>57.0</ele><time>2026-04-12T08:55:28Z</time></trkpt><trkpt lat="-30.557799880443156" lon="115.30356628323273"><ele>57.0</ele><time>2026-04-12T08:55:29Z</time></trkpt><trkpt lat="-30.557868369230757" lon="115.30326353134785"><ele>57.0</ele><time>2026-04-12T08:55:30Z</time></trkpt><trkpt lat="-30.55793693412747" lon="115.30296384864246"><ele>56.5</ele><time>2026-04-12T08:55:31Z</time></trkpt><trkpt lat="-30.55802507790196" lon="115.30267017766796"><ele>56.0</ele><time>2026-04-12T08:55:32Z</time></trkpt><trkpt lat="-30.558093731579554" lon="115.30237190729451"><ele>56.0</ele><time>2026-04-12T08:55:33Z</time></trkpt><trkpt lat="-30.558161500372314" lon="115.3020774813476"><ele>56.0</ele><time>2026-04-12T08:55:34Z</time></trkpt><trkpt lat="-30.558229612250496" lon="115.30178156490737"><ele>56.0</ele><time>2026-04-12T08:55:35Z</time></trkpt><trkpt lat="-30.55829755148541" lon="115.3014863664866"><ele>56.0</ele><time>2026-04-12T08:55:36Z</time></trkpt><trkpt lat="-30.558365942290326" lon="115.30118894389021"><ele>56.0</ele><time>2026-04-12T08:55:37Z</time></trkpt><trkpt lat="-30.55841850577385" lon="115.30088612224694"><ele>56.0</ele><time>2026-04-12T08:55:38Z</time></trkpt><trkpt lat="-30.558502826103574" lon="115.30059677206975"><ele>56.0</ele><time>2026-04-12T08:55:39Z</time></trkpt><trkpt lat="-30.558570735890086" lon="115.30030243871064"><ele>56.0</ele><time>2026-04-12T08:55:40Z</time></trkpt><trkpt lat="-30.55863899322897" lon="115.30000958307816"><ele>56.0</ele><time>2026-04-12T08:55:41Z</time></trkpt><trkpt lat="-30.558706892914863" lon="115.29971610322916"><ele>56.0</ele><time>2026-04-12T08:55:42Z</time></trkpt><trkpt lat="-30.558774243567086" lon="115.2994244777769"><ele>56.0</ele><time>2026-04-12T08:55:43Z</time></trkpt><trkpt lat="-30.558841069655724" lon="115.29913469797677"><ele>56.0</ele><time>2026-04-12T08:55:44Z</time></trkpt><trkpt lat="-30.558909201629053" lon="115.29883944497071"><ele>55.5</ele><time>2026-04-12T08:55:45Z</time></trkpt><trkpt lat="-30.55897687350231" lon="115.29854558524768"><ele>55.0</ele><time>2026-04-12T08:55:46Z</time></trkpt><trkpt lat="-30.559045008792086" lon="115.29824971323417"><ele>54.5</ele><time>2026-04-12T08:55:47Z</time></trkpt><trkpt lat="-30.55911255765489" lon="115.2979548258537"><ele>54.0</ele><time>2026-04-12T08:55:48Z</time></trkpt><trkpt lat="-30.559179506394504" lon="115.29766151989367"><ele>54.0</ele><time>2026-04-12T08:55:49Z</time></trkpt><trkpt lat="-30.559245789938995" lon="115.29737112813154"><ele>54.0</ele><time>2026-04-12T08:55:50Z</time></trkpt><trkpt lat="-30.559312527209922" lon="115.29707874859444"><ele>54.0</ele><time>2026-04-12T08:55:51Z</time></trkpt><trkpt lat="-30.559379472689447" lon="115.29678423428601"><ele>54.0</ele><time>2026-04-12T08:55:52Z</time></trkpt><trkpt lat="-30.55943015214435" lon="115.29648611506127"><ele>55.0</ele><time>2026-04-12T08:55:53Z</time></trkpt><trkpt lat="-30.559497892718014" lon="115.29619320261676"><ele>56.0</ele><time>2026-04-12T08:55:54Z</time></trkpt><trkpt lat="-30.55956693476377" lon="115.29590084557785"><ele>56.0</ele><time>2026-04-12T08:55:55Z</time></trkpt><trkpt lat="-30.559632971055166" lon="115.29561126193606"><ele>56.0</ele><time>2026-04-12T08:55:56Z</time></trkpt><trkpt lat="-30.559696881951364" lon="115.29532404919671"><ele>55.0</ele><time>2026-04-12T08:55:57Z</time></trkpt><trkpt lat="-30.559762236864827" lon="115.29503592920459"><ele>54.0</ele><time>2026-04-12T08:55:58Z</time></trkpt><trkpt lat="-30.559830647208138" lon="115.29474071705407"><ele>53.5</ele><time>2026-04-12T08:55:59Z</time></trkpt><trkpt lat="-30.55989610476079" lon="115.2944476384375"><ele>53.0</ele><time>2026-04-12T08:56:00Z</time></trkpt><trkpt lat="-30.55996127835599" lon="115.29415246415691"><ele>52.5</ele><time>2026-04-12T08:56:01Z</time></trkpt><trkpt lat="-30.560027825961164" lon="115.29385697727788"><ele>52.0</ele><time>2026-04-12T08:56:02Z</time></trkpt><trkpt lat="-30.560097171478056" lon="115.29356516155043"><ele>52.0</ele><time>2026-04-12T08:56:03Z</time></trkpt><trkpt lat="-30.560164665454334" lon="115.29326824860009"><ele>52.0</ele><time>2026-04-12T08:56:04Z</time></trkpt><trkpt lat="-30.56023032829555" lon="115.2929740281785"><ele>53.0</ele><time>2026-04-12T08:56:05Z</time></trkpt><trkpt lat="-30.56031102432723" lon="115.29268233681084"><ele>54.0</ele><time>2026-04-12T08:56:06Z</time></trkpt><trkpt lat="-30.56037982812863" lon="115.2923863387582"><ele>55.0</ele><time>2026-04-12T08:56:07.001Z</time></trkpt><trkpt lat="-30.560447858553" lon="115.29209366780941"><ele>56.0</ele><time>2026-04-12T08:56:08.001Z</time></trkpt><trkpt lat="-30.560515654884618" lon="115.291800379102"><ele>56.0</ele><time>2026-04-12T08:56:09.001Z</time></trkpt><trkpt lat="-30.560585019359266" lon="115.29150384901209"><ele>56.0</ele><time>2026-04-12T08:56:10.001Z</time></trkpt><trkpt lat="-30.560652825364553" lon="115.29120936635982"><ele>54.5</ele><time>2026-04-12T08:56:11.001Z</time></trkpt><trkpt lat="-30.560721048933" lon="115.29091565778378"><ele>53.0</ele><time>2026-04-12T08:56:12.001Z</time></trkpt><trkpt lat="-30.560787777824277" lon="115.29062730710449"><ele>53.5</ele><time>2026-04-12T08:56:13.001Z</time></trkpt><trkpt lat="-30.56085591650421" lon="115.2903376935066"><ele>54.0</ele><time>2026-04-12T08:56:14.001Z</time></trkpt><trkpt lat="-30.560922167934514" lon="115.2900486189654"><ele>54.0</ele><time>2026-04-12T08:56:15.001Z</time></trkpt><trkpt lat="-30.56098897223711" lon="115.2897574563424"><ele>54.0</ele><time>2026-04-12T08:56:16.001Z</time></trkpt><trkpt lat="-30.561054998382136" lon="115.28947043232652"><ele>54.0</ele><time>2026-04-12T08:56:17.001Z</time></trkpt><trkpt lat="-30.561119503287276" lon="115.28918144636641"><ele>54.0</ele><time>2026-04-12T08:56:18.001Z</time></trkpt><trkpt lat="-30.561183840625315" lon="115.28889182084657"><ele>54.0</ele><time>2026-04-12T08:56:19.001Z</time></trkpt><trkpt lat="-30.56123831886526" lon="115.28858993808662"><ele>54.0</ele><time>2026-04-12T08:56:20.001Z</time></trkpt><trkpt lat="-30.561306198837535" lon="115.28828950027761"><ele>54.5</ele><time>2026-04-12T08:56:21.001Z</time></trkpt><trkpt lat="-30.56137344465981" lon="115.28799666383783"><ele>55.0</ele><time>2026-04-12T08:56:22.001Z</time></trkpt><trkpt lat="-30.56143790066931" lon="115.28770645380845"><ele>55.0</ele><time>2026-04-12T08:56:23.001Z</time></trkpt><trkpt lat="-30.561501173452015" lon="115.2874192153063"><ele>55.0</ele><time>2026-04-12T08:56:24.001Z</time></trkpt><trkpt lat="-30.56156784813721" lon="115.28712645165514"><ele>54.0</ele><time>2026-04-12T08:56:25.001Z</time></trkpt><trkpt lat="-30.561636075393263" lon="115.28682658962802"><ele>53.0</ele><time>2026-04-12T08:56:26.001Z</time></trkpt><trkpt lat="-30.561703188646927" lon="115.28652909975885"><ele>53.0</ele><time>2026-04-12T08:56:27.001Z</time></trkpt><trkpt lat="-30.561770357483827" lon="115.28623140301632"><ele>53.0</ele><time>2026-04-12T08:56:28.001Z</time></trkpt><trkpt lat="-30.561837814060148" lon="115.28593309590589"><ele>53.0</ele><time>2026-04-12T08:56:29.001Z</time></trkpt><trkpt lat="-30.561905779534268" lon="115.28563979609501"><ele>53.0</ele><time>2026-04-12T08:56:30.001Z</time></trkpt><trkpt lat="-30.56197127219601" lon="115.28535196950341"><ele>51.5</ele><time>2026-04-12T08:56:31.001Z</time></trkpt><trkpt lat="-30.562034857863182" lon="115.28506643664106"><ele>50.0</ele><time>2026-04-12T08:56:32.001Z</time></trkpt><trkpt lat="-30.562119410913855" lon="115.28478501146233"><ele>50.5</ele><time>2026-04-12T08:56:33.001Z</time></trkpt><trkpt lat="-30.562188384042408" lon="115.2844935150594"><ele>51.0</ele><time>2026-04-12T08:56:34.001Z</time></trkpt><trkpt lat="-30.562236001551213" lon="115.28420139224012"><ele>52.0</ele><time>2026-04-12T08:56:35.001Z</time></trkpt><trkpt lat="-30.562302051816935" lon="115.28391513852493"><ele>53.0</ele><time>2026-04-12T08:56:36.001Z</time></trkpt><trkpt lat="-30.56236603521064" lon="115.28362919581342"><ele>53.0</ele><time>2026-04-12T08:56:37.001Z</time></trkpt><trkpt lat="-30.56242618433656" lon="115.2833504321396"><ele>53.0</ele><time>2026-04-12T08:56:38.001Z</time></trkpt><trkpt lat="-30.562485425883715" lon="115.28307902138924"><ele>52.5</ele><time>2026-04-12T08:56:39.001Z</time></trkpt><trkpt lat="-30.562546241306887" lon="115.28280780934574"><ele>52.0</ele><time>2026-04-12T08:56:40.001Z</time></trkpt><trkpt lat="-30.562610956235098" lon="115.28252737755926"><ele>52.0</ele><time>2026-04-12T08:56:41.001Z</time></trkpt><trkpt lat="-30.562677400421066" lon="115.28224714452189"><ele>52.0</ele><time>2026-04-12T08:56:42.001Z</time></trkpt><trkpt lat="-30.56275190327718" lon="115.28196976181707"><ele>52.0</ele><time>2026-04-12T08:56:43.001Z</time></trkpt><trkpt lat="-30.56283813530306" lon="115.28170023392167"><ele>52.0</ele><time>2026-04-12T08:56:44.001Z</time></trkpt><trkpt lat="-30.562957463813504" lon="115.28144556591158"><ele>52.0</ele><time>2026-04-12T08:56:45.001Z</time></trkpt><trkpt lat="-30.563076025737555" lon="115.28118572060794"><ele>52.0</ele><time>2026-04-12T08:56:46Z</time></trkpt><trkpt lat="-30.563192519534798" lon="115.28092074712703"><ele>52.0</ele><time>2026-04-12T08:56:47Z</time></trkpt><trkpt lat="-30.563327268476176" lon="115.28066582529772"><ele>52.0</ele><time>2026-04-12T08:56:48Z</time></trkpt><trkpt lat="-30.563462504651863" lon="115.28041179275621"><ele>52.0</ele><time>2026-04-12T08:56:49Z</time></trkpt><trkpt lat="-30.563599959596473" lon="115.28015818098937"><ele>52.0</ele><time>2026-04-12T08:56:50Z</time></trkpt><trkpt lat="-30.563737529301072" lon="115.27990957163708"><ele>51.0</ele><time>2026-04-12T08:56:51Z</time></trkpt><trkpt lat="-30.56387481189153" lon="115.27966146258326"><ele>50.0</ele><time>2026-04-12T08:56:52Z</time></trkpt><trkpt lat="-30.56403463925697" lon="115.27941107507044"><ele>50.0</ele><time>2026-04-12T08:56:53Z</time></trkpt><trkpt lat="-30.564180614353248" lon="115.27915625107592"><ele>50.0</ele><time>2026-04-12T08:56:54Z</time></trkpt><trkpt lat="-30.564323225879395" lon="115.27890394292132"><ele>50.0</ele><time>2026-04-12T08:56:55Z</time></trkpt><trkpt lat="-30.564435867499164" lon="115.278626391077"><ele>50.0</ele><time>2026-04-12T08:56:56Z</time></trkpt><trkpt lat="-30.564576702531724" lon="115.2783698504144"><ele>50.0</ele><time>2026-04-12T08:56:57Z</time></trkpt><trkpt lat="-30.564714469925374" lon="115.27811307713759"><ele>50.0</ele><time>2026-04-12T08:56:58Z</time></trkpt><trkpt lat="-30.56484776505496" lon="115.2778662582787"><ele>50.0</ele><time>2026-04-12T08:56:59Z</time></trkpt><trkpt lat="-30.564979899814784" lon="115.27762186774761"><ele>50.0</ele><time>2026-04-12T08:57:00Z</time></trkpt><trkpt lat="-30.56510891532546" lon="115.27738372691373"><ele>49.5</ele><time>2026-04-12T08:57:01Z</time></trkpt><trkpt lat="-30.565238941259988" lon="115.27714036456581"><ele>49.0</ele><time>2026-04-12T08:57:02Z</time></trkpt><trkpt lat="-30.565352930299078" lon="115.27691740014885"><ele>49.5</ele><time>2026-04-12T08:57:03Z</time></trkpt><trkpt lat="-30.56546609506695" lon="115.27668967154194"><ele>50.0</ele><time>2026-04-12T08:57:04Z</time></trkpt><trkpt lat="-30.56558170831901" lon="115.2764468143627"><ele>49.5</ele><time>2026-04-12T08:57:05Z</time></trkpt><trkpt lat="-30.565696388447865" lon="115.27619122936375"><ele>49.0</ele><time>2026-04-12T08:57:06Z</time></trkpt><trkpt lat="-30.565803172348776" lon="115.27592187129248"><ele>49.0</ele><time>2026-04-12T08:57:07Z</time></trkpt><trkpt lat="-30.565906504214194" lon="115.27563429195614"><ele>49.0</ele><time>2026-04-12T08:57:08Z</time></trkpt><trkpt lat="-30.566005633915527" lon="115.27534379883191"><ele>49.0</ele><time>2026-04-12T08:57:09Z</time></trkpt><trkpt lat="-30.566101455048" lon="115.27504961061365"><ele>49.0</ele><time>2026-04-12T08:57:10Z</time></trkpt><trkpt lat="-30.56619520661913" lon="115.27475766002823"><ele>49.5</ele><time>2026-04-12T08:57:11Z</time></trkpt><trkpt lat="-30.566286388292724" lon="115.27446757916228"><ele>50.0</ele><time>2026-04-12T08:57:12Z</time></trkpt><trkpt lat="-30.5663759991538" lon="115.27418232898462"><ele>49.0</ele><time>2026-04-12T08:57:13Z</time></trkpt><trkpt lat="-30.566469452473644" lon="115.2738921262652"><ele>48.0</ele><time>2026-04-12T08:57:14Z</time></trkpt><trkpt lat="-30.56656191317189" lon="115.27360851005523"><ele>48.0</ele><time>2026-04-12T08:57:15Z</time></trkpt><trkpt lat="-30.56665382791338" lon="115.2733315329786"><ele>48.0</ele><time>2026-04-12T08:57:16Z</time></trkpt><trkpt lat="-30.566743143945178" lon="115.27305652400592"><ele>49.0</ele><time>2026-04-12T08:57:17Z</time></trkpt><trkpt lat="-30.566826547003398" lon="115.27278873808763"><ele>50.0</ele><time>2026-04-12T08:57:18Z</time></trkpt><trkpt lat="-30.566905321488203" lon="115.27252282953486"><ele>50.0</ele><time>2026-04-12T08:57:19Z</time></trkpt><trkpt lat="-30.56696994972235" lon="115.2722812460674"><ele>50.0</ele><time>2026-04-12T08:57:20Z</time></trkpt><trkpt lat="-30.56702522965775" lon="115.27204417894332"><ele>50.0</ele><time>2026-04-12T08:57:21Z</time></trkpt><trkpt lat="-30.567067850733373" lon="115.27181141384435"><ele>50.0</ele><time>2026-04-12T08:57:22Z</time></trkpt><trkpt lat="-30.567097040214644" lon="115.27157043039315"><ele>50.0</ele><time>2026-04-12T08:57:23Z</time></trkpt><trkpt lat="-30.56710559072122" lon="115.27132407592627"><ele>50.0</ele><time>2026-04-12T08:57:24Z</time></trkpt><trkpt lat="-30.56709915171341" lon="115.2710582955799"><ele>49.5</ele><time>2026-04-12T08:57:25Z</time></trkpt><trkpt lat="-30.567073990290684" lon="115.27079046007286"><ele>49.0</ele><time>2026-04-12T08:57:26Z</time></trkpt><trkpt lat="-30.567043025092158" lon="115.27051929785137"><ele>49.0</ele><time>2026-04-12T08:57:27Z</time></trkpt><trkpt lat="-30.567008299193642" lon="115.27024635706088"><ele>49.0</ele><time>2026-04-12T08:57:28Z</time></trkpt><trkpt lat="-30.566979227644946" lon="115.2699723939889"><ele>50.0</ele><time>2026-04-12T08:57:29Z</time></trkpt><trkpt lat="-30.566953709905707" lon="115.26968582242077"><ele>51.0</ele><time>2026-04-12T08:57:30Z</time></trkpt><trkpt lat="-30.56692811564813" lon="115.26939753901421"><ele>51.0</ele><time>2026-04-12T08:57:31Z</time></trkpt><trkpt lat="-30.566902865205275" lon="115.26910698348482"><ele>51.0</ele><time>2026-04-12T08:57:32Z</time></trkpt><trkpt lat="-30.56687676302531" lon="115.26881601768186"><ele>50.0</ele><time>2026-04-12T08:57:33Z</time></trkpt><trkpt lat="-30.566855080482078" lon="115.26852750728298"><ele>49.0</ele><time>2026-04-12T08:57:34Z</time></trkpt><trkpt lat="-30.566838391521305" lon="115.26825587303287"><ele>48.666666666666664</ele><time>2026-04-12T08:57:35Z</time></trkpt><trkpt lat="-30.566833559644618" lon="115.26800363773295"><ele>48.33333333333333</ele><time>2026-04-12T08:57:36Z</time></trkpt><trkpt lat="-30.566842209441166" lon="115.26775433921631"><ele>48.0</ele><time>2026-04-12T08:57:37Z</time></trkpt><trkpt lat="-30.56686530408816" lon="115.26748975334564"><ele>48.0</ele><time>2026-04-12T08:57:38Z</time></trkpt><trkpt lat="-30.566899865069782" lon="115.26721901296786"><ele>48.0</ele><time>2026-04-12T08:57:39Z</time></trkpt><trkpt lat="-30.566937430629416" lon="115.26694307900758"><ele>48.0</ele><time>2026-04-12T08:57:40Z</time></trkpt><trkpt lat="-30.566975710853658" lon="115.26666427383567"><ele>48.0</ele><time>2026-04-12T08:57:41Z</time></trkpt><trkpt lat="-30.5670119563359" lon="115.26638972061293"><ele>47.666666666666664</ele><time>2026-04-12T08:57:42Z</time></trkpt><trkpt lat="-30.567043155553762" lon="115.26613481174566"><ele>47.33333333333333</ele><time>2026-04-12T08:57:43Z</time></trkpt><trkpt lat="-30.567075130391718" lon="115.26588472930395"><ele>47.0</ele><time>2026-04-12T08:57:44Z</time></trkpt><trkpt lat="-30.567101866048336" lon="115.26566307913343"><ele>46.33333333333333</ele><time>2026-04-12T08:57:45Z</time></trkpt><trkpt lat="-30.567125318295194" lon="115.26545021330854"><ele>45.666666666666664</ele><time>2026-04-12T08:57:46Z</time></trkpt><trkpt lat="-30.567146649392985" lon="115.2652355778293"><ele>45.0</ele><time>2026-04-12T08:57:47Z</time></trkpt><trkpt lat="-30.567175964201418" lon="115.26498451130163"><ele>46.0</ele><time>2026-04-12T08:57:48Z</time></trkpt><trkpt lat="-30.567210948722472" lon="115.26474188966017"><ele>47.0</ele><time>2026-04-12T08:57:49Z</time></trkpt><trkpt lat="-30.567248850865425" lon="115.26450233501689"><ele>48.0</ele><time>2026-04-12T08:57:50Z</time></trkpt><trkpt lat="-30.5672822025753" lon="115.26428802630083"><ele>48.0</ele><time>2026-04-12T08:57:51Z</time></trkpt><trkpt lat="-30.567324455555436" lon="115.26407770034251"><ele>48.0</ele><time>2026-04-12T08:57:52Z</time></trkpt><trkpt lat="-30.567368122875322" lon="115.26388429201783"><ele>48.0</ele><time>2026-04-12T08:57:53Z</time></trkpt><trkpt lat="-30.567428449722488" lon="115.26368000145156"><ele>48.33333333333333</ele><time>2026-04-12T08:57:54Z</time></trkpt><trkpt lat="-30.567510731084973" lon="115.26346845483756"><ele>48.666666666666664</ele><time>2026-04-12T08:57:55Z</time></trkpt><trkpt lat="-30.567613821368752" lon="115.26324953299891"><ele>49.0</ele><time>2026-04-12T08:57:56Z</time></trkpt><trkpt lat="-30.567733060050717" lon="115.2630288053201"><ele>49.0</ele><time>2026-04-12T08:57:57Z</time></trkpt><trkpt lat="-30.567865104846614" lon="115.26279909902041"><ele>49.0</ele><time>2026-04-12T08:57:58Z</time></trkpt><trkpt lat="-30.56800179505689" lon="115.26256374391555"><ele>49.0</ele><time>2026-04-12T08:57:59Z</time></trkpt><trkpt lat="-30.568144361124958" lon="115.26232069651397"><ele>49.0</ele><time>2026-04-12T08:58:00Z</time></trkpt><trkpt lat="-30.568289808892683" lon="115.26207944204376"><ele>49.5</ele><time>2026-04-12T08:58:01Z</time></trkpt><trkpt lat="-30.56843268619706" lon="115.26185053064478"><ele>50.0</ele><time>2026-04-12T08:58:02Z</time></trkpt><trkpt lat="-30.56857738061414" lon="115.26161677212522"><ele>50.0</ele><time>2026-04-12T08:58:03Z</time></trkpt><trkpt lat="-30.568713870430567" lon="115.26138589421645"><ele>50.0</ele><time>2026-04-12T08:58:04Z</time></trkpt><trkpt lat="-30.5688409004397" lon="115.26116544878978"><ele>50.0</ele><time>2026-04-12T08:58:05Z</time></trkpt><trkpt lat="-30.568963187400186" lon="115.26095772371234"><ele>50.0</ele><time>2026-04-12T08:58:06Z</time></trkpt><trkpt lat="-30.56908582204603" lon="115.26075483253773"><ele>50.0</ele><time>2026-04-12T08:58:07Z</time></trkpt><trkpt lat="-30.569222466995953" lon="115.2605664653666"><ele>49.66666666666667</ele><time>2026-04-12T08:58:08Z</time></trkpt><trkpt lat="-30.569336491197294" lon="115.26037157443116"><ele>49.33333333333333</ele><time>2026-04-12T08:58:09Z</time></trkpt><trkpt lat="-30.569429182090367" lon="115.26017340705035"><ele>49.0</ele><time>2026-04-12T08:58:10Z</time></trkpt><trkpt lat="-30.569511468997966" lon="115.25995293933757"><ele>49.33333333333333</ele><time>2026-04-12T08:58:11Z</time></trkpt><trkpt lat="-30.569564150647437" lon="115.25972448074002"><ele>49.66666666666667</ele><time>2026-04-12T08:58:12Z</time></trkpt><trkpt lat="-30.569594539553904" lon="115.25946488315898"><ele>50.0</ele><time>2026-04-12T08:58:13.001Z</time></trkpt><trkpt lat="-30.56960629149814" lon="115.25919476004832"><ele>49.5</ele><time>2026-04-12T08:58:14.001Z</time></trkpt><trkpt lat="-30.569610397595042" lon="115.25890904628622"><ele>49.0</ele><time>2026-04-12T08:58:15.001Z</time></trkpt><trkpt lat="-30.56961455253218" lon="115.25860840325728"><ele>49.0</ele><time>2026-04-12T08:58:16.001Z</time></trkpt><trkpt lat="-30.569615787269278" lon="115.2582924135107"><ele>49.0</ele><time>2026-04-12T08:58:17.001Z</time></trkpt><trkpt lat="-30.569615420856923" lon="115.2579690514399"><ele>48.5</ele><time>2026-04-12T08:58:18.001Z</time></trkpt><trkpt lat="-30.56961483435268" lon="115.25764871385174"><ele>48.0</ele><time>2026-04-12T08:58:19.001Z</time></trkpt><trkpt lat="-30.569613321623343" lon="115.25732864244155"><ele>48.5</ele><time>2026-04-12T08:58:20.001Z</time></trkpt><trkpt lat="-30.56959444190747" lon="115.2570087440907"><ele>49.0</ele><time>2026-04-12T08:58:21.001Z</time></trkpt><trkpt lat="-30.569608375417243" lon="115.25668404802687"><ele>49.5</ele><time>2026-04-12T08:58:22.001Z</time></trkpt><trkpt lat="-30.56958910623247" lon="115.25636123641225"><ele>50.0</ele><time>2026-04-12T08:58:23.001Z</time></trkpt><trkpt lat="-30.569586705472847" lon="115.25603808887543"><ele>50.0</ele><time>2026-04-12T08:58:24.001Z</time></trkpt><trkpt lat="-30.56960026582008" lon="115.25571291833725"><ele>50.0</ele><time>2026-04-12T08:58:25.001Z</time></trkpt><trkpt lat="-30.56958246765843" lon="115.2553901447894"><ele>50.0</ele><time>2026-04-12T08:58:26.001Z</time></trkpt><trkpt lat="-30.56958106201601" lon="115.25506784137421"><ele>50.0</ele><time>2026-04-12T08:58:27.001Z</time></trkpt><trkpt lat="-30.569581128475182" lon="115.2547481710383"><ele>51.0</ele><time>2026-04-12T08:58:28.001Z</time></trkpt><trkpt lat="-30.569582111769062" lon="115.25442501529157"><ele>52.0</ele><time>2026-04-12T08:58:29.001Z</time></trkpt><trkpt lat="-30.569578929498547" lon="115.25410258293948"><ele>51.0</ele><time>2026-04-12T08:58:30.001Z</time></trkpt><trkpt lat="-30.569576621162586" lon="115.25377718777787"><ele>50.0</ele><time>2026-04-12T08:58:31.001Z</time></trkpt><trkpt lat="-30.569573850869933" lon="115.25345193902416"><ele>50.0</ele><time>2026-04-12T08:58:32.001Z</time></trkpt><trkpt lat="-30.569575132518377" lon="115.25312458770247"><ele>50.0</ele><time>2026-04-12T08:58:33.001Z</time></trkpt><trkpt lat="-30.569575006375754" lon="115.25280119351758"><ele>50.5</ele><time>2026-04-12T08:58:34.001Z</time></trkpt><trkpt lat="-30.569576737561256" lon="115.25247615451443"><ele>51.0</ele><time>2026-04-12T08:58:35.001Z</time></trkpt><trkpt lat="-30.569577851213975" lon="115.25214872075051"><ele>50.0</ele><time>2026-04-12T08:58:36.001Z</time></trkpt><trkpt lat="-30.56957678667706" lon="115.25182347904612"><ele>49.0</ele><time>2026-04-12T08:58:37.001Z</time></trkpt><trkpt lat="-30.56957548851353" lon="115.25149752720147"><ele>49.5</ele><time>2026-04-12T08:58:38.001Z</time></trkpt><trkpt lat="-30.56957378103621" lon="115.25117006736716"><ele>50.0</ele><time>2026-04-12T08:58:39.001Z</time></trkpt><trkpt lat="-30.56957212612843" lon="115.25084394482082"><ele>48.5</ele><time>2026-04-12T08:58:40.001Z</time></trkpt><trkpt lat="-30.569571658406215" lon="115.2505144236435"><ele>47.0</ele><time>2026-04-12T08:58:41.001Z</time></trkpt><trkpt lat="-30.56957213836405" lon="115.25018649928656"><ele>47.0</ele><time>2026-04-12T08:58:42.001Z</time></trkpt><trkpt lat="-30.56957006821664" lon="115.24985806730731"><ele>47.0</ele><time>2026-04-12T08:58:43.001Z</time></trkpt><trkpt lat="-30.569584620654556" lon="115.2495273864845"><ele>47.5</ele><time>2026-04-12T08:58:44.001Z</time></trkpt><trkpt lat="-30.56958419049338" lon="115.24919806210481"><ele>48.0</ele><time>2026-04-12T08:58:45.001Z</time></trkpt><trkpt lat="-30.569583761413018" lon="115.24886956568622"><ele>48.0</ele><time>2026-04-12T08:58:46.001Z</time></trkpt><trkpt lat="-30.56958348726815" lon="115.24854635529432"><ele>48.0</ele><time>2026-04-12T08:58:47.001Z</time></trkpt><trkpt lat="-30.569583487267835" lon="115.24822020452052"><ele>47.5</ele><time>2026-04-12T08:58:48.001Z</time></trkpt><trkpt lat="-30.56958330061093" lon="115.2478972012514"><ele>47.0</ele><time>2026-04-12T08:58:49.001Z</time></trkpt><trkpt lat="-30.56958269546316" lon="115.2475779356483"><ele>49.0</ele><time>2026-04-12T08:58:50.001Z</time></trkpt><trkpt lat="-30.56958228726735" lon="115.2472636150447"><ele>51.0</ele><time>2026-04-12T08:58:51Z</time></trkpt><trkpt lat="-30.569581428823714" lon="115.24695504329381"><ele>51.0</ele><time>2026-04-12T08:58:52Z</time></trkpt><trkpt lat="-30.569581187268003" lon="115.24663887377294"><ele>51.0</ele><time>2026-04-12T08:58:53Z</time></trkpt><trkpt lat="-30.56958118726693" lon="115.24632368977463"><ele>51.0</ele><time>2026-04-12T08:58:54Z</time></trkpt><trkpt lat="-30.56958118726715" lon="115.24600641301001"><ele>51.0</ele><time>2026-04-12T08:58:55Z</time></trkpt><trkpt lat="-30.569580291823918" lon="115.24568321488162"><ele>50.5</ele><time>2026-04-12T08:58:56Z</time></trkpt><trkpt lat="-30.569562336902575" lon="115.24536089845495"><ele>50.0</ele><time>2026-04-12T08:58:57Z</time></trkpt><trkpt lat="-30.569560659242807" lon="115.24503280127419"><ele>50.0</ele><time>2026-04-12T08:58:58Z</time></trkpt><trkpt lat="-30.56955950683374" lon="115.24469374313358"><ele>50.0</ele><time>2026-04-12T08:58:59Z</time></trkpt><trkpt lat="-30.56955837177923" lon="115.24435721395847"><ele>50.0</ele><time>2026-04-12T08:59:00Z</time></trkpt><trkpt lat="-30.569557147947982" lon="115.2440261900037"><ele>50.0</ele><time>2026-04-12T08:59:01Z</time></trkpt><trkpt lat="-30.569555733522982" lon="115.24370043648969"><ele>50.0</ele><time>2026-04-12T08:59:02Z</time></trkpt><trkpt lat="-30.56955650341944" lon="115.24337831257701"><ele>50.0</ele><time>2026-04-12T08:59:03Z</time></trkpt><trkpt lat="-30.569556098924412" lon="115.24306510922295"><ele>50.0</ele><time>2026-04-12T08:59:04Z</time></trkpt><trkpt lat="-30.569555995278634" lon="115.24275315440622"><ele>50.0</ele><time>2026-04-12T08:59:05Z</time></trkpt><trkpt lat="-30.569557335922138" lon="115.24243470995661"><ele>49.0</ele><time>2026-04-12T08:59:06Z</time></trkpt><trkpt lat="-30.569559569227675" lon="115.24211916949767"><ele>48.0</ele><time>2026-04-12T08:59:07Z</time></trkpt><trkpt lat="-30.569561964735218" lon="115.24180021474713"><ele>48.0</ele><time>2026-04-12T08:59:08Z</time></trkpt><trkpt lat="-30.569565601556725" lon="115.2414813472914"><ele>48.0</ele><time>2026-04-12T08:59:09Z</time></trkpt><trkpt lat="-30.56956655791666" lon="115.24116458216001"><ele>48.0</ele><time>2026-04-12T08:59:10Z</time></trkpt><trkpt lat="-30.56956323100642" lon="115.24085501401592"><ele>48.0</ele><time>2026-04-12T08:59:11Z</time></trkpt><trkpt lat="-30.56956072903529" lon="115.2405468678642"><ele>48.0</ele><time>2026-04-12T08:59:12Z</time></trkpt><trkpt lat="-30.569561480380006" lon="115.24024347388331"><ele>48.0</ele><time>2026-04-12T08:59:13Z</time></trkpt><trkpt lat="-30.569562024859025" lon="115.23993997131227"><ele>48.0</ele><time>2026-04-12T08:59:14Z</time></trkpt><trkpt lat="-30.569561739312334" lon="115.23963229474263"><ele>48.0</ele><time>2026-04-12T08:59:15Z</time></trkpt><trkpt lat="-30.569560132745828" lon="115.23933234500765"><ele>48.0</ele><time>2026-04-12T08:59:16Z</time></trkpt><trkpt lat="-30.569559811548356" lon="115.23903049386402"><ele>48.0</ele><time>2026-04-12T08:59:17Z</time></trkpt><trkpt lat="-30.569558665296114" lon="115.23872811918002"><ele>48.5</ele><time>2026-04-12T08:59:18Z</time></trkpt><trkpt lat="-30.56955812969614" lon="115.23842805697917"><ele>49.0</ele><time>2026-04-12T08:59:19Z</time></trkpt><trkpt lat="-30.569555855405707" lon="115.2381232490147"><ele>49.0</ele><time>2026-04-12T08:59:20Z</time></trkpt><trkpt lat="-30.56955316770135" lon="115.23781450097084"><ele>49.0</ele><time>2026-04-12T08:59:21Z</time></trkpt><trkpt lat="-30.56955260941867" lon="115.23750123441118"><ele>49.0</ele><time>2026-04-12T08:59:22Z</time></trkpt><trkpt lat="-30.56955451285722" lon="115.23718490393574"><ele>49.0</ele><time>2026-04-12T08:59:23Z</time></trkpt><trkpt lat="-30.569553351827228" lon="115.23687339327377"><ele>49.0</ele><time>2026-04-12T08:59:24Z</time></trkpt><trkpt lat="-30.56955442445742" lon="115.23655444642311"><ele>49.0</ele><time>2026-04-12T08:59:25Z</time></trkpt><trkpt lat="-30.56955410918294" lon="115.23624012126605"><ele>48.5</ele><time>2026-04-12T08:59:26Z</time></trkpt><trkpt lat="-30.56955345799225" lon="115.23592560115763"><ele>48.0</ele><time>2026-04-12T08:59:27Z</time></trkpt><trkpt lat="-30.56955232637397" lon="115.23560997408634"><ele>47.0</ele><time>2026-04-12T08:59:28Z</time></trkpt><trkpt lat="-30.569553824332264" lon="115.2352965018292"><ele>46.0</ele><time>2026-04-12T08:59:29Z</time></trkpt><trkpt lat="-30.5695530071287" lon="115.23498777215917"><ele>46.5</ele><time>2026-04-12T08:59:30Z</time></trkpt><trkpt lat="-30.569554084789154" lon="115.23467781507553"><ele>47.0</ele><time>2026-04-12T08:59:31Z</time></trkpt><trkpt lat="-30.569555715129592" lon="115.23436189719308"><ele>47.0</ele><time>2026-04-12T08:59:32Z</time></trkpt><trkpt lat="-30.569553012716316" lon="115.23403813148967"><ele>47.0</ele><time>2026-04-12T08:59:33Z</time></trkpt><trkpt lat="-30.56955064618081" lon="115.23371371699952"><ele>47.0</ele><time>2026-04-12T08:59:34Z</time></trkpt><trkpt lat="-30.569550303830688" lon="115.23339014088367"><ele>47.0</ele><time>2026-04-12T08:59:35Z</time></trkpt><trkpt lat="-30.56955195939688" lon="115.2330691973594"><ele>47.0</ele><time>2026-04-12T08:59:36Z</time></trkpt><trkpt lat="-30.569553930537353" lon="115.2327536952405"><ele>47.0</ele><time>2026-04-12T08:59:37Z</time></trkpt><trkpt lat="-30.569552206482662" lon="115.23243453582697"><ele>46.5</ele><time>2026-04-12T08:59:38Z</time></trkpt><trkpt lat="-30.569548856141648" lon="115.2321192204561"><ele>46.0</ele><time>2026-04-12T08:59:39Z</time></trkpt><trkpt lat="-30.569546764660274" lon="115.23180727617795"><ele>46.0</ele><time>2026-04-12T08:59:40Z</time></trkpt><trkpt lat="-30.56954586950118" lon="115.2315020251611"><ele>46.0</ele><time>2026-04-12T08:59:41Z</time></trkpt><trkpt lat="-30.569546699619483" lon="115.23119151733583"><ele>45.0</ele><time>2026-04-12T08:59:42Z</time></trkpt><trkpt lat="-30.56955009967924" lon="115.2308784805437"><ele>44.0</ele><time>2026-04-12T08:59:43Z</time></trkpt><trkpt lat="-30.569554073426044" lon="115.23057092110311"><ele>43.0</ele><time>2026-04-12T08:59:44Z</time></trkpt><trkpt lat="-30.569556843862433" lon="115.2302788874457"><ele>42.0</ele><time>2026-04-12T08:59:45Z</time></trkpt><trkpt lat="-30.569559998977212" lon="115.23000370144092"><ele>41.333333333333336</ele><time>2026-04-12T08:59:46Z</time></trkpt><trkpt lat="-30.56956095088438" lon="115.22974147748741"><ele>40.66666666666667</ele><time>2026-04-12T08:59:47Z</time></trkpt><trkpt lat="-30.569558957370464" lon="115.22949288912143"><ele>40.0</ele><time>2026-04-12T08:59:48Z</time></trkpt><trkpt lat="-30.56955534524189" lon="115.22923934831455"><ele>40.0</ele><time>2026-04-12T08:59:49Z</time></trkpt><trkpt lat="-30.56955095318442" lon="115.22898185976089"><ele>40.0</ele><time>2026-04-12T08:59:50Z</time></trkpt><trkpt lat="-30.569545638351663" lon="115.22872427166199"><ele>40.0</ele><time>2026-04-12T08:59:51Z</time></trkpt><trkpt lat="-30.56954145167405" lon="115.22847234271708"><ele>40.333333333333336</ele><time>2026-04-12T08:59:52Z</time></trkpt><trkpt lat="-30.56954221055434" lon="115.22823895727552"><ele>40.666666666666664</ele><time>2026-04-12T08:59:53Z</time></trkpt><trkpt lat="-30.569545650406788" lon="115.22805029994565"><ele>41.0</ele><time>2026-04-12T08:59:54Z</time></trkpt><trkpt lat="-30.56955719715467" lon="115.2279107812514"><ele>41.33333333333333</ele><time>2026-04-12T08:59:55Z</time></trkpt><trkpt lat="-30.56958454908581" lon="115.22781548011595"><ele>41.666666666666664</ele><time>2026-04-12T08:59:56Z</time></trkpt><trkpt lat="-30.56962550578553" lon="115.22775866968098"><ele>42.0</ele><time>2026-04-12T08:59:57Z</time></trkpt><trkpt lat="-30.569724545968835" lon="115.22772761978796"><ele>42.333333333333336</ele><time>2026-04-12T08:59:59Z</time></trkpt><trkpt lat="-30.569827240250103" lon="115.22772399560077"><ele>42.66666666666667</ele><time>2026-04-12T09:00:01Z</time></trkpt><trkpt lat="-30.569918683107844" lon="115.22771544559897"><ele>43.0</ele><time>2026-04-12T09:00:03Z</time></trkpt><trkpt lat="-30.570003451761018" lon="115.22771766888104"><ele>43.0</ele><time>2026-04-12T09:00:05Z</time></trkpt><trkpt lat="-30.570076491861563" lon="115.22773400529339"><ele>43.0</ele><time>2026-04-12T09:00:07Z</time></trkpt><trkpt lat="-30.57014109668099" lon="115.22772766046627"><ele>43.0</ele><time>2026-04-12T09:00:09Z</time></trkpt><trkpt lat="-30.57019316157798" lon="115.22766771403128"><ele>43.0</ele><time>2026-04-12T09:00:12Z</time></trkpt><trkpt lat="-30.57008970814738" lon="115.22761242231549"><ele>43.0</ele><time>2026-04-12T09:01:05Z</time></trkpt><trkpt lat="-30.570017411772348" lon="115.2276261862208"><ele>43.0</ele><time>2026-04-12T09:01:06Z</time></trkpt><trkpt lat="-30.569950950839175" lon="115.22763521363287"><ele>43.0</ele><time>2026-04-12T09:01:07Z</time></trkpt><trkpt lat="-30.569872149007754" lon="115.22768010092493"><ele>43.0</ele><time>2026-04-12T09:01:08Z</time></trkpt><trkpt lat="-30.569792253288984" lon="115.22769241403105"><ele>43.0</ele><time>2026-04-12T09:01:09Z</time></trkpt><trkpt lat="-30.569713963093037" lon="115.22769987911315"><ele>43.0</ele><time>2026-04-12T09:01:10Z</time></trkpt><trkpt lat="-30.569653577275986" lon="115.22774452725035"><ele>43.0</ele><time>2026-04-12T09:01:11Z</time></trkpt><trkpt lat="-30.569592747675415" lon="115.22777283409609"><ele>43.0</ele><time>2026-04-12T09:01:12Z</time></trkpt><trkpt lat="-30.569518016835026" lon="115.22784510458463"><ele>42.0</ele><time>2026-04-12T09:01:14Z</time></trkpt><trkpt lat="-30.56932150321953" lon="115.22762303057826"><ele>41.0</ele><time>2026-04-12T09:01:19Z</time></trkpt><trkpt lat="-30.569286140582346" lon="115.2275253229173"><ele>40.0</ele><time>2026-04-12T09:03:31Z</time></trkpt><trkpt lat="-30.5691881791508" lon="115.22748690733599"><ele>40.0</ele><time>2026-04-12T09:03:33Z</time></trkpt><trkpt lat="-30.56908096436305" lon="115.22749216077095"><ele>40.0</ele><time>2026-04-12T09:03:35Z</time></trkpt><trkpt lat="-30.56899770155012" lon="115.227554435553"><ele>40.0</ele><time>2026-04-12T09:03:37Z</time></trkpt><trkpt lat="-30.568997782099743" lon="115.2276871286261"><ele>40.0</ele><time>2026-04-12T09:03:39Z</time></trkpt><trkpt lat="-30.569036427317" lon="115.22774717749034"><ele>40.0</ele><time>2026-04-12T09:03:40Z</time></trkpt><trkpt lat="-30.56909377696665" lon="115.22777991538922"><ele>40.0</ele><time>2026-04-12T09:03:41Z</time></trkpt><trkpt lat="-30.56915776843151" lon="115.2277874251547"><ele>40.0</ele><time>2026-04-12T09:03:42Z</time></trkpt><trkpt lat="-30.569228286252727" lon="115.22777003868875"><ele>40.0</ele><time>2026-04-12T09:03:43Z</time></trkpt><trkpt lat="-30.569303328558245" lon="115.22774737206225"><ele>40.0</ele><time>2026-04-12T09:03:44Z</time></trkpt><trkpt lat="-30.569365693135147" lon="115.22773107327654"><ele>40.0</ele><time>2026-04-12T09:03:45Z</time></trkpt><trkpt lat="-30.569467299992766" lon="115.22774210656989"><ele>40.0</ele><time>2026-04-12T09:03:47Z</time></trkpt><trkpt lat="-30.56953826010117" lon="115.22781487585542"><ele>40.0</ele><time>2026-04-12T09:03:49Z</time></trkpt><trkpt lat="-30.56955741829981" lon="115.22797391609065"><ele>40.16666666666667</ele><time>2026-04-12T09:03:51Z</time></trkpt><trkpt lat="-30.569544160669082" lon="115.22807860829293"><ele>40.333333333333336</ele><time>2026-04-12T09:03:52Z</time></trkpt><trkpt lat="-30.569531436578167" lon="115.22818591058181"><ele>40.5</ele><time>2026-04-12T09:03:53Z</time></trkpt><trkpt lat="-30.569529290867994" lon="115.22828945347867"><ele>40.666666666666664</ele><time>2026-04-12T09:03:54Z</time></trkpt><trkpt lat="-30.569552856985705" lon="115.22838363655165"><ele>40.83333333333333</ele><time>2026-04-12T09:03:55Z</time></trkpt><trkpt lat="-30.569548065535177" lon="115.22848587322981"><ele>41.0</ele><time>2026-04-12T09:03:56Z</time></trkpt><trkpt lat="-30.569545489232304" lon="115.22859904518748"><ele>41.0</ele><time>2026-04-12T09:03:57Z</time></trkpt><trkpt lat="-30.56954601313691" lon="115.22870544920173"><ele>41.0</ele><time>2026-04-12T09:03:58Z</time></trkpt><trkpt lat="-30.569544229291477" lon="115.22880684053345"><ele>41.0</ele><time>2026-04-12T09:03:59Z</time></trkpt><trkpt lat="-30.569523778689412" lon="115.22889959838759"><ele>41.0</ele><time>2026-04-12T09:04:00Z</time></trkpt><trkpt lat="-30.56953758221312" lon="115.22897869777168"><ele>41.0</ele><time>2026-04-12T09:04:01Z</time></trkpt><trkpt lat="-30.569353105795674" lon="115.22906108829976"><ele>41.0</ele><time>2026-04-12T09:04:03Z</time></trkpt><trkpt lat="-30.569231223413873" lon="115.22904711548303"><ele>41.0</ele><time>2026-04-12T09:04:04Z</time></trkpt><trkpt lat="-30.569084187826217" lon="115.22906375130573"><ele>41.0</ele><time>2026-04-12T09:04:05Z</time></trkpt><trkpt lat="-30.568913801136805" lon="115.22904862288966"><ele>41.0</ele><time>2026-04-12T09:04:06Z</time></trkpt><trkpt lat="-30.568738729432855" lon="115.22903886193708"><ele>41.666666666666664</ele><time>2026-04-12T09:04:07Z</time></trkpt><trkpt lat="-30.568536732758083" lon="115.22903430498721"><ele>42.333333333333336</ele><time>2026-04-12T09:04:08Z</time></trkpt><trkpt lat="-30.568321316906076" lon="115.22903531876234"><ele>43.0</ele><time>2026-04-12T09:04:09Z</time></trkpt><trkpt lat="-30.56808933333126" lon="115.22903523892363"><ele>43.0</ele><time>2026-04-12T09:04:10Z</time></trkpt><trkpt lat="-30.567860332797746" lon="115.2290369358854"><ele>43.0</ele><time>2026-04-12T09:04:11Z</time></trkpt><trkpt lat="-30.567626388590664" lon="115.2290344357433"><ele>43.0</ele><time>2026-04-12T09:04:12Z</time></trkpt><trkpt lat="-30.56738427615612" lon="115.2290308773315"><ele>43.0</ele><time>2026-04-12T09:04:13Z</time></trkpt><trkpt lat="-30.56714106385835" lon="115.22902837366142"><ele>42.5</ele><time>2026-04-12T09:04:14Z</time></trkpt><trkpt lat="-30.56689653537339" lon="115.22903053724379"><ele>42.0</ele><time>2026-04-12T09:04:15Z</time></trkpt><trkpt lat="-30.566646527394543" lon="115.22903281721678"><ele>42.0</ele><time>2026-04-12T09:04:16Z</time></trkpt><trkpt lat="-30.566391884227283" lon="115.22903659342813"><ele>42.0</ele><time>2026-04-12T09:04:17Z</time></trkpt><trkpt lat="-30.56614410434991" lon="115.22903744655837"><ele>41.5</ele><time>2026-04-12T09:04:18Z</time></trkpt><trkpt lat="-30.565886121795913" lon="115.22903862075697"><ele>41.0</ele><time>2026-04-12T09:04:19Z</time></trkpt><trkpt lat="-30.565629762808722" lon="115.22903838866736"><ele>41.0</ele><time>2026-04-12T09:04:20Z</time></trkpt><trkpt lat="-30.565370816082357" lon="115.22903861335226"><ele>41.0</ele><time>2026-04-12T09:04:21Z</time></trkpt><trkpt lat="-30.56511286167784" lon="115.2290411714618"><ele>41.5</ele><time>2026-04-12T09:04:22Z</time></trkpt><trkpt lat="-30.56485187759715" lon="115.22904276010917"><ele>42.0</ele><time>2026-04-12T09:04:23Z</time></trkpt><trkpt lat="-30.564593030102458" lon="115.2290425993132"><ele>43.0</ele><time>2026-04-12T09:04:24Z</time></trkpt><trkpt lat="-30.564345063598434" lon="115.22904111770211"><ele>44.0</ele><time>2026-04-12T09:04:25Z</time></trkpt><trkpt lat="-30.56409747671738" lon="115.22903946809343"><ele>44.0</ele><time>2026-04-12T09:04:26Z</time></trkpt><trkpt lat="-30.563849633717496" lon="115.2290393021344"><ele>44.0</ele><time>2026-04-12T09:04:27Z</time></trkpt><trkpt lat="-30.56359915780379" lon="115.22904215808286"><ele>45.0</ele><time>2026-04-12T09:04:28Z</time></trkpt><trkpt lat="-30.56334774329513" lon="115.22904424085556"><ele>46.0</ele><time>2026-04-12T09:04:29Z</time></trkpt><trkpt lat="-30.563093193977245" lon="115.22904522721633"><ele>46.5</ele><time>2026-04-12T09:04:30Z</time></trkpt><trkpt lat="-30.562843747267916" lon="115.22904720568953"><ele>47.0</ele><time>2026-04-12T09:04:31Z</time></trkpt><trkpt lat="-30.562592577406015" lon="115.22905206947344"><ele>47.0</ele><time>2026-04-12T09:04:32Z</time></trkpt><trkpt lat="-30.562340861444195" lon="115.22905416123416"><ele>47.0</ele><time>2026-04-12T09:04:33Z</time></trkpt><trkpt lat="-30.562087110449635" lon="115.22905402448333"><ele>46.5</ele><time>2026-04-12T09:04:34Z</time></trkpt><trkpt lat="-30.561828196606825" lon="115.22904969096261"><ele>46.0</ele><time>2026-04-12T09:04:35Z</time></trkpt><trkpt lat="-30.561569700473427" lon="115.22904409812386"><ele>46.0</ele><time>2026-04-12T09:04:36Z</time></trkpt><trkpt lat="-30.561310786184634" lon="115.22904254403588"><ele>46.0</ele><time>2026-04-12T09:04:37Z</time></trkpt><trkpt lat="-30.561052179163877" lon="115.22904575620537"><ele>46.5</ele><time>2026-04-12T09:04:38Z</time></trkpt><trkpt lat="-30.56079122686712" lon="115.22904865706586"><ele>47.0</ele><time>2026-04-12T09:04:39Z</time></trkpt><trkpt lat="-30.56053635787215" lon="115.22905015981335"><ele>46.5</ele><time>2026-04-12T09:04:40Z</time></trkpt><trkpt lat="-30.56028962497286" lon="115.22905163134804"><ele>46.0</ele><time>2026-04-12T09:04:41Z</time></trkpt><trkpt lat="-30.560045239235098" lon="115.22905464144299"><ele>46.0</ele><time>2026-04-12T09:04:42Z</time></trkpt><trkpt lat="-30.55980685198604" lon="115.2290540374555"><ele>46.0</ele><time>2026-04-12T09:04:43Z</time></trkpt><trkpt lat="-30.559576050071417" lon="115.2290057274207"><ele>46.5</ele><time>2026-04-12T09:04:44Z</time></trkpt><trkpt lat="-30.559346203847426" lon="115.22896281848207"><ele>47.0</ele><time>2026-04-12T09:04:45Z</time></trkpt><trkpt lat="-30.559103678040316" lon="115.22891293477241"><ele>47.0</ele><time>2026-04-12T09:04:46Z</time></trkpt><trkpt lat="-30.558849216025173" lon="115.22887717386511"><ele>47.0</ele><time>2026-04-12T09:04:47Z</time></trkpt><trkpt lat="-30.55859064989946" lon="115.22881974138035"><ele>46.5</ele><time>2026-04-12T09:04:48Z</time></trkpt><trkpt lat="-30.55832960521897" lon="115.22876653610075"><ele>46.0</ele><time>2026-04-12T09:04:49Z</time></trkpt><trkpt lat="-30.558067193128156" lon="115.22871059713954"><ele>46.0</ele><time>2026-04-12T09:04:50Z</time></trkpt><trkpt lat="-30.55779767884759" lon="115.228650425607"><ele>46.0</ele><time>2026-04-12T09:04:51Z</time></trkpt><trkpt lat="-30.5575264742683" lon="115.2285904631493"><ele>46.0</ele><time>2026-04-12T09:04:52Z</time></trkpt><trkpt lat="-30.557253170759875" lon="115.22853312298824"><ele>46.0</ele><time>2026-04-12T09:04:53Z</time></trkpt><trkpt lat="-30.55697136221767" lon="115.22847718378114"><ele>46.5</ele><time>2026-04-12T09:04:54Z</time></trkpt><trkpt lat="-30.556693589641508" lon="115.22841986236396"><ele>47.0</ele><time>2026-04-12T09:04:55Z</time></trkpt><trkpt lat="-30.55641910407376" lon="115.22836068487042"><ele>46.5</ele><time>2026-04-12T09:04:56Z</time></trkpt><trkpt lat="-30.55614330209365" lon="115.22830192281721"><ele>46.0</ele><time>2026-04-12T09:04:57Z</time></trkpt><trkpt lat="-30.555865476705353" lon="115.22824357186514"><ele>46.0</ele><time>2026-04-12T09:04:58Z</time></trkpt><trkpt lat="-30.555589435319717" lon="115.22818829987848"><ele>46.0</ele><time>2026-04-12T09:04:59Z</time></trkpt><trkpt lat="-30.555310951542452" lon="115.22813104478561"><ele>45.0</ele><time>2026-04-12T09:05:00Z</time></trkpt><trkpt lat="-30.555033259523743" lon="115.22807245292024"><ele>44.0</ele><time>2026-04-12T09:05:01Z</time></trkpt><trkpt lat="-30.554752860551446" lon="115.22801315544996"><ele>45.0</ele><time>2026-04-12T09:05:02Z</time></trkpt><trkpt lat="-30.55447167563842" lon="115.22795603366812"><ele>46.0</ele><time>2026-04-12T09:05:03Z</time></trkpt><trkpt lat="-30.554191830458553" lon="115.22789692711272"><ele>46.0</ele><time>2026-04-12T09:05:04Z</time></trkpt><trkpt lat="-30.553912283905692" lon="115.22783763487146"><ele>46.0</ele><time>2026-04-12T09:05:05Z</time></trkpt><trkpt lat="-30.5536336280795" lon="115.22777805452091"><ele>46.0</ele><time>2026-04-12T09:05:06Z</time></trkpt><trkpt lat="-30.55335575539657" lon="115.22771803643556"><ele>46.0</ele><time>2026-04-12T09:05:07Z</time></trkpt><trkpt lat="-30.55307800914196" lon="115.22766039680312"><ele>45.0</ele><time>2026-04-12T09:05:08Z</time></trkpt><trkpt lat="-30.552802042370764" lon="115.2276068696337"><ele>44.0</ele><time>2026-04-12T09:05:09Z</time></trkpt><trkpt lat="-30.552524989150275" lon="115.22755505945071"><ele>44.0</ele><time>2026-04-12T09:05:10Z</time></trkpt><trkpt lat="-30.552251231829242" lon="115.22750191113037"><ele>44.0</ele><time>2026-04-12T09:05:11Z</time></trkpt><trkpt lat="-30.551979170339944" lon="115.22744639160975"><ele>43.0</ele><time>2026-04-12T09:05:12Z</time></trkpt><trkpt lat="-30.551705718486005" lon="115.22739046553713"><ele>42.0</ele><time>2026-04-12T09:05:13Z</time></trkpt><trkpt lat="-30.551433723063656" lon="115.22733503478408"><ele>42.5</ele><time>2026-04-12T09:05:14Z</time></trkpt><trkpt lat="-30.551158712488014" lon="115.22728331733158"><ele>43.0</ele><time>2026-04-12T09:05:15Z</time></trkpt><trkpt lat="-30.55088535977008" lon="115.22723208965121"><ele>43.0</ele><time>2026-04-12T09:05:16Z</time></trkpt><trkpt lat="-30.550612103932046" lon="115.22718160327385"><ele>43.0</ele><time>2026-04-12T09:05:17Z</time></trkpt><trkpt lat="-30.550339029994277" lon="115.22712834132034"><ele>43.5</ele><time>2026-04-12T09:05:18Z</time></trkpt><trkpt lat="-30.550068172361563" lon="115.22706927022193"><ele>44.0</ele><time>2026-04-12T09:05:19Z</time></trkpt><trkpt lat="-30.549800397056654" lon="115.2270079555222"><ele>45.0</ele><time>2026-04-12T09:05:20Z</time></trkpt><trkpt lat="-30.549529326254657" lon="115.22694658866443"><ele>46.0</ele><time>2026-04-12T09:05:21Z</time></trkpt><trkpt lat="-30.549262078103727" lon="115.22688550647108"><ele>46.0</ele><time>2026-04-12T09:05:22Z</time></trkpt><trkpt lat="-30.548992306676567" lon="115.22682686010153"><ele>46.0</ele><time>2026-04-12T09:05:23Z</time></trkpt><trkpt lat="-30.548721226840037" lon="115.22677302069353"><ele>45.0</ele><time>2026-04-12T09:05:24Z</time></trkpt><trkpt lat="-30.54844995007646" lon="115.22672093831319"><ele>44.0</ele><time>2026-04-12T09:05:25Z</time></trkpt><trkpt lat="-30.548178851248753" lon="115.22666594071184"><ele>44.0</ele><time>2026-04-12T09:05:26Z</time></trkpt><trkpt lat="-30.547905453065326" lon="115.22661251559508"><ele>44.0</ele><time>2026-04-12T09:05:27Z</time></trkpt><trkpt lat="-30.547636296855288" lon="115.22655798130931"><ele>43.0</ele><time>2026-04-12T09:05:28Z</time></trkpt><trkpt lat="-30.54736229796175" lon="115.22650200854169"><ele>42.0</ele><time>2026-04-12T09:05:29Z</time></trkpt><trkpt lat="-30.547079208554756" lon="115.22644146819168"><ele>41.5</ele><time>2026-04-12T09:05:30Z</time></trkpt><trkpt lat="-30.546791959984226" lon="115.226382951793"><ele>41.0</ele><time>2026-04-12T09:05:31Z</time></trkpt><trkpt lat="-30.546503187088422" lon="115.22632414111595"><ele>41.0</ele><time>2026-04-12T09:05:32Z</time></trkpt><trkpt lat="-30.546214524674" lon="115.22626797073954"><ele>41.0</ele><time>2026-04-12T09:05:33Z</time></trkpt><trkpt lat="-30.54592695170361" lon="115.22621147710613"><ele>42.0</ele><time>2026-04-12T09:05:34Z</time></trkpt><trkpt lat="-30.545637196901954" lon="115.22615349259641"><ele>43.0</ele><time>2026-04-12T09:05:35Z</time></trkpt><trkpt lat="-30.54535009483246" lon="115.22609420147786"><ele>43.5</ele><time>2026-04-12T09:05:36Z</time></trkpt><trkpt lat="-30.54506542599614" lon="115.22603300736927"><ele>44.0</ele><time>2026-04-12T09:05:37Z</time></trkpt><trkpt lat="-30.544780372163356" lon="115.22597389058777"><ele>43.5</ele><time>2026-04-12T09:05:38Z</time></trkpt><trkpt lat="-30.544499399335166" lon="115.22591942836985"><ele>43.0</ele><time>2026-04-12T09:05:39Z</time></trkpt><trkpt lat="-30.54421664935165" lon="115.2258647169064"><ele>43.0</ele><time>2026-04-12T09:05:40Z</time></trkpt><trkpt lat="-30.543933535269492" lon="115.22580974781995"><ele>43.0</ele><time>2026-04-12T09:05:41Z</time></trkpt><trkpt lat="-30.54365060127583" lon="115.22575635683302"><ele>43.5</ele><time>2026-04-12T09:05:42Z</time></trkpt><trkpt lat="-30.543370135264208" lon="115.22570125458499"><ele>44.0</ele><time>2026-04-12T09:05:43Z</time></trkpt><trkpt lat="-30.54309246983514" lon="115.2256456142013"><ele>42.0</ele><time>2026-04-12T09:05:44Z</time></trkpt><trkpt lat="-30.542823005242496" lon="115.22559122595995"><ele>40.0</ele><time>2026-04-12T09:05:45Z</time></trkpt><trkpt lat="-30.5425554355373" lon="115.22553834277107"><ele>40.0</ele><time>2026-04-12T09:05:46Z</time></trkpt><trkpt lat="-30.542290771494546" lon="115.22548541443369"><ele>40.0</ele><time>2026-04-12T09:05:47Z</time></trkpt><trkpt lat="-30.542027632485514" lon="115.225435490752"><ele>39.5</ele><time>2026-04-12T09:05:48Z</time></trkpt><trkpt lat="-30.54176631079642" lon="115.22538786139086"><ele>39.0</ele><time>2026-04-12T09:05:49Z</time></trkpt><trkpt lat="-30.541505632998284" lon="115.22533713708457"><ele>39.0</ele><time>2026-04-12T09:05:50Z</time></trkpt><trkpt lat="-30.541246157826844" lon="115.22528430923632"><ele>39.0</ele><time>2026-04-12T09:05:51Z</time></trkpt><trkpt lat="-30.540990751440507" lon="115.22523297260658"><ele>38.5</ele><time>2026-04-12T09:05:52Z</time></trkpt><trkpt lat="-30.540731905740238" lon="115.22517935155811"><ele>38.0</ele><time>2026-04-12T09:05:53Z</time></trkpt><trkpt lat="-30.540478284699876" lon="115.2251251292295"><ele>39.0</ele><time>2026-04-12T09:05:54Z</time></trkpt><trkpt lat="-30.540223464087404" lon="115.22507307918501"><ele>40.0</ele><time>2026-04-12T09:05:55Z</time></trkpt><trkpt lat="-30.539967733234466" lon="115.22502071405387"><ele>40.0</ele><time>2026-04-12T09:05:56Z</time></trkpt><trkpt lat="-30.539715807600352" lon="115.22496537533975"><ele>40.0</ele><time>2026-04-12T09:05:57Z</time></trkpt><trkpt lat="-30.539457681798122" lon="115.22490993234025"><ele>38.5</ele><time>2026-04-12T09:05:58Z</time></trkpt><trkpt lat="-30.539196941421594" lon="115.22485242720781"><ele>37.0</ele><time>2026-04-12T09:05:59Z</time></trkpt><trkpt lat="-30.538930919874186" lon="115.22479696943606"><ele>38.0</ele><time>2026-04-12T09:06:00Z</time></trkpt><trkpt lat="-30.53866788928635" lon="115.22474029742058"><ele>39.0</ele><time>2026-04-12T09:06:01Z</time></trkpt><trkpt lat="-30.53840294458277" lon="115.22468054179305"><ele>39.0</ele><time>2026-04-12T09:06:02Z</time></trkpt><trkpt lat="-30.53813885828653" lon="115.22462045817092"><ele>39.0</ele><time>2026-04-12T09:06:03Z</time></trkpt><trkpt lat="-30.53787972133414" lon="115.2245630406575"><ele>40.0</ele><time>2026-04-12T09:06:04Z</time></trkpt><trkpt lat="-30.53763454098787" lon="115.22450915869892"><ele>41.0</ele><time>2026-04-12T09:06:05Z</time></trkpt><trkpt lat="-30.53740961640009" lon="115.22445727508915"><ele>41.0</ele><time>2026-04-12T09:06:06Z</time></trkpt><trkpt lat="-30.537201351516586" lon="115.2244083876066"><ele>41.0</ele><time>2026-04-12T09:06:07Z</time></trkpt><trkpt lat="-30.53700208048901" lon="115.22436616239385"><ele>41.0</ele><time>2026-04-12T09:06:08Z</time></trkpt><trkpt lat="-30.536801514900276" lon="115.22433416266203"><ele>41.666666666666664</ele><time>2026-04-12T09:06:09Z</time></trkpt><trkpt lat="-30.53659636746927" lon="115.22431310611105"><ele>42.333333333333336</ele><time>2026-04-12T09:06:10Z</time></trkpt><trkpt lat="-30.536389914699065" lon="115.224314673546"><ele>43.0</ele><time>2026-04-12T09:06:11Z</time></trkpt><trkpt lat="-30.536198411796903" lon="115.22434699550487"><ele>43.66666666666667</ele><time>2026-04-12T09:06:12Z</time></trkpt><trkpt lat="-30.53601264032754" lon="115.22440954478445"><ele>44.333333333333336</ele><time>2026-04-12T09:06:13Z</time></trkpt><trkpt lat="-30.535830398086844" lon="115.22449997836875"><ele>45.0</ele><time>2026-04-12T09:06:14Z</time></trkpt><trkpt lat="-30.535661658084347" lon="115.22461835252574"><ele>45.0</ele><time>2026-04-12T09:06:15Z</time></trkpt><trkpt lat="-30.535507400306027" lon="115.22476082434233"><ele>45.0</ele><time>2026-04-12T09:06:16Z</time></trkpt><trkpt lat="-30.535365614857124" lon="115.2249195811718"><ele>45.0</ele><time>2026-04-12T09:06:17Z</time></trkpt><trkpt lat="-30.53523033441149" lon="115.22508953779734"><ele>44.0</ele><time>2026-04-12T09:06:18Z</time></trkpt><trkpt lat="-30.53509658507715" lon="115.2252637054106"><ele>43.0</ele><time>2026-04-12T09:06:19Z</time></trkpt><trkpt lat="-30.53495590019894" lon="115.22544216780503"><ele>42.0</ele><time>2026-04-12T09:06:20Z</time></trkpt><trkpt lat="-30.5348184137956" lon="115.22561620271225"><ele>42.0</ele><time>2026-04-12T09:06:21Z</time></trkpt><trkpt lat="-30.534683667617323" lon="115.225788935906"><ele>42.0</ele><time>2026-04-12T09:06:22Z</time></trkpt><trkpt lat="-30.534546379653907" lon="115.2259564683756"><ele>42.0</ele><time>2026-04-12T09:06:23Z</time></trkpt><trkpt lat="-30.534404798509676" lon="115.22611876928255"><ele>42.0</ele><time>2026-04-12T09:06:24Z</time></trkpt><trkpt lat="-30.534264045240764" lon="115.22628169233529"><ele>42.0</ele><time>2026-04-12T09:06:25Z</time></trkpt><trkpt lat="-30.534125687758447" lon="115.22644566775577"><ele>42.0</ele><time>2026-04-12T09:06:26Z</time></trkpt><trkpt lat="-30.53399209726252" lon="115.22661486170855"><ele>42.0</ele><time>2026-04-12T09:06:27Z</time></trkpt><trkpt lat="-30.53386262989696" lon="115.22678761932143"><ele>42.0</ele><time>2026-04-12T09:06:28Z</time></trkpt><trkpt lat="-30.53372898534573" lon="115.22695999034025"><ele>42.0</ele><time>2026-04-12T09:06:29Z</time></trkpt><trkpt lat="-30.533588479726006" lon="115.22713015875146"><ele>42.0</ele><time>2026-04-12T09:06:30Z</time></trkpt><trkpt lat="-30.533444504026797" lon="115.22729524768678"><ele>42.0</ele><time>2026-04-12T09:06:31Z</time></trkpt><trkpt lat="-30.533299979181265" lon="115.22746513358634"><ele>42.0</ele><time>2026-04-12T09:06:32Z</time></trkpt><trkpt lat="-30.53316185230974" lon="115.22763830889194"><ele>42.333333333333336</ele><time>2026-04-12T09:06:33Z</time></trkpt><trkpt lat="-30.53302560963621" lon="115.22781417483147"><ele>42.66666666666667</ele><time>2026-04-12T09:06:34Z</time></trkpt><trkpt lat="-30.532885561674252" lon="115.22799022929463"><ele>43.0</ele><time>2026-04-12T09:06:35Z</time></trkpt><trkpt lat="-30.532745045057478" lon="115.22816489187655"><ele>43.333333333333336</ele><time>2026-04-12T09:06:36Z</time></trkpt><trkpt lat="-30.532601621005174" lon="115.22833929846512"><ele>43.666666666666664</ele><time>2026-04-12T09:06:37Z</time></trkpt><trkpt lat="-30.532461814783318" lon="115.22851288753674"><ele>44.0</ele><time>2026-04-12T09:06:38Z</time></trkpt><trkpt lat="-30.5323215581785" lon="115.22868733705249"><ele>44.0</ele><time>2026-04-12T09:06:39Z</time></trkpt><trkpt lat="-30.532177389499324" lon="115.22886005024058"><ele>44.0</ele><time>2026-04-12T09:06:40Z</time></trkpt><trkpt lat="-30.53202808178245" lon="115.22902595932439"><ele>44.0</ele><time>2026-04-12T09:06:41Z</time></trkpt><trkpt lat="-30.531871911308592" lon="115.22918172860632"><ele>44.33333333333333</ele><time>2026-04-12T09:06:42Z</time></trkpt><trkpt lat="-30.5316974173719" lon="115.22932294652765"><ele>44.666666666666664</ele><time>2026-04-12T09:06:43Z</time></trkpt><trkpt lat="-30.53151245975514" lon="115.22944543107053"><ele>45.0</ele><time>2026-04-12T09:06:44Z</time></trkpt><trkpt lat="-30.531316996312675" lon="115.22954625080767"><ele>45.0</ele><time>2026-04-12T09:06:45Z</time></trkpt><trkpt lat="-30.531111654866844" lon="115.22962930639216"><ele>45.0</ele><time>2026-04-12T09:06:46Z</time></trkpt><trkpt lat="-30.530905324275405" lon="115.22969963283938"><ele>45.0</ele><time>2026-04-12T09:06:47Z</time></trkpt><trkpt lat="-30.530693683496533" lon="115.22975126289258"><ele>45.0</ele><time>2026-04-12T09:06:48Z</time></trkpt><trkpt lat="-30.53047685229324" lon="115.2297752701335"><ele>45.0</ele><time>2026-04-12T09:06:49Z</time></trkpt><trkpt lat="-30.530247681403274" lon="115.22978587228224"><ele>45.0</ele><time>2026-04-12T09:06:50Z</time></trkpt><trkpt lat="-30.530014427573615" lon="115.2297989064867"><ele>44.0</ele><time>2026-04-12T09:06:51Z</time></trkpt><trkpt lat="-30.529777893367168" lon="115.22981581712233"><ele>43.0</ele><time>2026-04-12T09:06:52Z</time></trkpt><trkpt lat="-30.529539768184154" lon="115.22983670474031"><ele>43.0</ele><time>2026-04-12T09:06:53Z</time></trkpt><trkpt lat="-30.52929866705381" lon="115.22986238483269"><ele>43.0</ele><time>2026-04-12T09:06:54Z</time></trkpt><trkpt lat="-30.529058808824697" lon="115.2298905310128"><ele>43.0</ele><time>2026-04-12T09:06:55Z</time></trkpt><trkpt lat="-30.528814433994697" lon="115.22992065438918"><ele>43.0</ele><time>2026-04-12T09:06:56Z</time></trkpt><trkpt lat="-30.52857030084551" lon="115.22994516290093"><ele>43.0</ele><time>2026-04-12T09:06:57Z</time></trkpt><trkpt lat="-30.52832148940691" lon="115.22996598999931"><ele>43.0</ele><time>2026-04-12T09:06:58Z</time></trkpt><trkpt lat="-30.528074709195703" lon="115.22998775894486"><ele>44.0</ele><time>2026-04-12T09:06:59Z</time></trkpt><trkpt lat="-30.52782502514485" lon="115.23000815714954"><ele>45.0</ele><time>2026-04-12T09:07:00Z</time></trkpt><trkpt lat="-30.52757444272837" lon="115.23003036694378"><ele>45.0</ele><time>2026-04-12T09:07:01Z</time></trkpt><trkpt lat="-30.527324096602058" lon="115.23005152566063"><ele>45.0</ele><time>2026-04-12T09:07:02Z</time></trkpt><trkpt lat="-30.527071821920003" lon="115.23007297557723"><ele>45.5</ele><time>2026-04-12T09:07:03Z</time></trkpt><trkpt lat="-30.52681750818112" lon="115.23009579781255"><ele>46.0</ele><time>2026-04-12T09:07:04Z</time></trkpt><trkpt lat="-30.526562261020917" lon="115.2301204641065"><ele>46.0</ele><time>2026-04-12T09:07:05Z</time></trkpt><trkpt lat="-30.5263070523206" lon="115.23014374050773"><ele>46.0</ele><time>2026-04-12T09:07:06Z</time></trkpt><trkpt lat="-30.52605247860702" lon="115.2301704516527"><ele>44.5</ele><time>2026-04-12T09:07:07Z</time></trkpt><trkpt lat="-30.525795826535845" lon="115.23019856198388"><ele>43.0</ele><time>2026-04-12T09:07:08Z</time></trkpt><trkpt lat="-30.52553640727766" lon="115.23022561584538"><ele>44.0</ele><time>2026-04-12T09:07:09Z</time></trkpt><trkpt lat="-30.52527643071296" lon="115.23024871416276"><ele>45.0</ele><time>2026-04-12T09:07:10Z</time></trkpt><trkpt lat="-30.52501284163182" lon="115.23027229761375"><ele>45.0</ele><time>2026-04-12T09:07:11Z</time></trkpt><trkpt lat="-30.524744456487223" lon="115.230296155784"><ele>45.0</ele><time>2026-04-12T09:07:12Z</time></trkpt><trkpt lat="-30.524470200875438" lon="115.23032138210404"><ele>46.5</ele><time>2026-04-12T09:07:13Z</time></trkpt><trkpt lat="-30.524203563858055" lon="115.23034671198862"><ele>48.0</ele><time>2026-04-12T09:07:14Z</time></trkpt><trkpt lat="-30.523941267755493" lon="115.23037559749281"><ele>48.0</ele><time>2026-04-12T09:07:15Z</time></trkpt><trkpt lat="-30.523678453228253" lon="115.23040634143858"><ele>48.0</ele><time>2026-04-12T09:07:16Z</time></trkpt><trkpt lat="-30.523414964762864" lon="115.23043487585687"><ele>48.0</ele><time>2026-04-12T09:07:17Z</time></trkpt><trkpt lat="-30.523155600512002" lon="115.23046117278463"><ele>48.0</ele><time>2026-04-12T09:07:18Z</time></trkpt><trkpt lat="-30.522892928024632" lon="115.23048728809808"><ele>47.5</ele><time>2026-04-12T09:07:19Z</time></trkpt><trkpt lat="-30.522628558221072" lon="115.23051341546478"><ele>47.0</ele><time>2026-04-12T09:07:20Z</time></trkpt><trkpt lat="-30.52236180165215" lon="115.2305374365374"><ele>47.0</ele><time>2026-04-12T09:07:21Z</time></trkpt><trkpt lat="-30.52209137508615" lon="115.23056370481956"><ele>47.0</ele><time>2026-04-12T09:07:22Z</time></trkpt><trkpt lat="-30.521821435327052" lon="115.23059027198569"><ele>47.0</ele><time>2026-04-12T09:07:23Z</time></trkpt><trkpt lat="-30.521286686376694" lon="115.23064080139909"><ele>47.5</ele><time>2026-04-12T09:07:25Z</time></trkpt><trkpt lat="-30.52102257150272" lon="115.2306649390197"><ele>48.0</ele><time>2026-04-12T09:07:26Z</time></trkpt><trkpt lat="-30.520759035457317" lon="115.23069071510778"><ele>48.0</ele><time>2026-04-12T09:07:27Z</time></trkpt><trkpt lat="-30.52049460507545" lon="115.23071815671248"><ele>48.0</ele><time>2026-04-12T09:07:28Z</time></trkpt><trkpt lat="-30.52022942126673" lon="115.23074467714655"><ele>47.5</ele><time>2026-04-12T09:07:29Z</time></trkpt><trkpt lat="-30.51996398582274" lon="115.23076732847116"><ele>47.0</ele><time>2026-04-12T09:07:30Z</time></trkpt><trkpt lat="-30.51970076714451" lon="115.23078535838371"><ele>48.0</ele><time>2026-04-12T09:07:31Z</time></trkpt><trkpt lat="-30.519441003798093" lon="115.23080124917645"><ele>49.0</ele><time>2026-04-12T09:07:32Z</time></trkpt><trkpt lat="-30.51917757401145" lon="115.23080945238443"><ele>49.0</ele><time>2026-04-12T09:07:33Z</time></trkpt><trkpt lat="-30.518914036041" lon="115.23080713231928"><ele>49.0</ele><time>2026-04-12T09:07:34Z</time></trkpt><trkpt lat="-30.518649002020766" lon="115.23080040560562"><ele>49.5</ele><time>2026-04-12T09:07:35Z</time></trkpt><trkpt lat="-30.51838528237299" lon="115.23079554706563"><ele>50.0</ele><time>2026-04-12T09:07:36Z</time></trkpt><trkpt lat="-30.518122282261125" lon="115.23079401788644"><ele>49.5</ele><time>2026-04-12T09:07:37Z</time></trkpt><trkpt lat="-30.51786382736238" lon="115.23079649887063"><ele>49.0</ele><time>2026-04-12T09:07:38Z</time></trkpt><trkpt lat="-30.517605114079977" lon="115.23079981980335"><ele>49.0</ele><time>2026-04-12T09:07:39Z</time></trkpt><trkpt lat="-30.517347110971173" lon="115.23079573609652"><ele>49.0</ele><time>2026-04-12T09:07:40Z</time></trkpt><trkpt lat="-30.517089855010635" lon="115.23078891860703"><ele>50.0</ele><time>2026-04-12T09:07:41Z</time></trkpt><trkpt lat="-30.51683305335561" lon="115.23078670066008"><ele>51.0</ele><time>2026-04-12T09:07:42Z</time></trkpt><trkpt lat="-30.516576464591033" lon="115.23078483743282"><ele>51.0</ele><time>2026-04-12T09:07:43Z</time></trkpt><trkpt lat="-30.51631100764414" lon="115.2307828025143"><ele>51.0</ele><time>2026-04-12T09:07:44Z</time></trkpt><trkpt lat="-30.516040576678215" lon="115.23077858805095"><ele>52.0</ele><time>2026-04-12T09:07:45Z</time></trkpt><trkpt lat="-30.515772632889433" lon="115.23077260806552"><ele>53.0</ele><time>2026-04-12T09:07:46Z</time></trkpt><trkpt lat="-30.515503964664234" lon="115.23076628357971"><ele>53.5</ele><time>2026-04-12T09:07:47Z</time></trkpt><trkpt lat="-30.51523442080881" lon="115.23076303119727"><ele>54.0</ele><time>2026-04-12T09:07:48Z</time></trkpt><trkpt lat="-30.51496172474707" lon="115.23076004588702"><ele>54.0</ele><time>2026-04-12T09:07:49Z</time></trkpt><trkpt lat="-30.51468683577702" lon="115.23075720717705"><ele>54.0</ele><time>2026-04-12T09:07:50Z</time></trkpt><trkpt lat="-30.514410701901625" lon="115.23075432180276"><ele>54.5</ele><time>2026-04-12T09:07:51Z</time></trkpt><trkpt lat="-30.51413637323256" lon="115.23075184288038"><ele>55.0</ele><time>2026-04-12T09:07:52Z</time></trkpt><trkpt lat="-30.51386347292717" lon="115.23075154433616"><ele>55.0</ele><time>2026-04-12T09:07:53Z</time></trkpt><trkpt lat="-30.51359370269177" lon="115.2307513626564"><ele>55.0</ele><time>2026-04-12T09:07:54Z</time></trkpt><trkpt lat="-30.513326546075152" lon="115.23075120256307"><ele>55.0</ele><time>2026-04-12T09:07:55Z</time></trkpt><trkpt lat="-30.513062315274905" lon="115.23075228905714"><ele>55.0</ele><time>2026-04-12T09:07:56Z</time></trkpt><trkpt lat="-30.512805041680146" lon="115.2307562877079"><ele>53.5</ele><time>2026-04-12T09:07:57Z</time></trkpt><trkpt lat="-30.51255425930546" lon="115.23076731872304"><ele>52.0</ele><time>2026-04-12T09:07:58Z</time></trkpt><trkpt lat="-30.5122987938057" lon="115.23078109617063"><ele>52.0</ele><time>2026-04-12T09:07:59Z</time></trkpt><trkpt lat="-30.51204042752383" lon="115.23079869807596"><ele>52.0</ele><time>2026-04-12T09:08:00Z</time></trkpt><trkpt lat="-30.511779079684203" lon="115.23082314940714"><ele>52.0</ele><time>2026-04-12T09:08:01Z</time></trkpt><trkpt lat="-30.51151260308255" lon="115.23085638474745"><ele>52.0</ele><time>2026-04-12T09:08:02Z</time></trkpt><trkpt lat="-30.511249106567174" lon="115.23090560219393"><ele>52.0</ele><time>2026-04-12T09:08:03Z</time></trkpt><trkpt lat="-30.510988564951493" lon="115.2309701823526"><ele>52.0</ele><time>2026-04-12T09:08:04Z</time></trkpt><trkpt lat="-30.510731618931857" lon="115.23104957244897"><ele>52.0</ele><time>2026-04-12T09:08:05Z</time></trkpt><trkpt lat="-30.510481930146668" lon="115.23114795016245"><ele>52.0</ele><time>2026-04-12T09:08:06Z</time></trkpt><trkpt lat="-30.51023941590989" lon="115.23127134953893"><ele>52.0</ele><time>2026-04-12T09:08:07Z</time></trkpt><trkpt lat="-30.50999978623049" lon="115.23141119006398"><ele>52.0</ele><time>2026-04-12T09:08:08Z</time></trkpt><trkpt lat="-30.50975891365526" lon="115.23155771763993"><ele>51.0</ele><time>2026-04-12T09:08:09Z</time></trkpt><trkpt lat="-30.50951676889417" lon="115.23170576423512"><ele>50.0</ele><time>2026-04-12T09:08:10Z</time></trkpt><trkpt lat="-30.50926924737353" lon="115.23185623527466"><ele>50.0</ele><time>2026-04-12T09:08:11Z</time></trkpt><trkpt lat="-30.509021530195362" lon="115.23200815225907"><ele>50.0</ele><time>2026-04-12T09:08:12Z</time></trkpt><trkpt lat="-30.508773117015576" lon="115.23216153326801"><ele>52.0</ele><time>2026-04-12T09:08:13Z</time></trkpt><trkpt lat="-30.508522873304383" lon="115.2323186373846"><ele>54.0</ele><time>2026-04-12T09:08:14Z</time></trkpt><trkpt lat="-30.508273272434586" lon="115.23247787489892"><ele>54.0</ele><time>2026-04-12T09:08:15Z</time></trkpt><trkpt lat="-30.50802976074892" lon="115.23263573311974"><ele>54.0</ele><time>2026-04-12T09:08:16Z</time></trkpt><trkpt lat="-30.50778961927521" lon="115.23279257890745"><ele>53.5</ele><time>2026-04-12T09:08:17Z</time></trkpt><trkpt lat="-30.507546922426698" lon="115.23295268058155"><ele>53.0</ele><time>2026-04-12T09:08:18Z</time></trkpt><trkpt lat="-30.50730559975744" lon="115.2331141899092"><ele>52.0</ele><time>2026-04-12T09:08:19Z</time></trkpt><trkpt lat="-30.507057929459584" lon="115.23327677110247"><ele>51.0</ele><time>2026-04-12T09:08:20Z</time></trkpt><trkpt lat="-30.506806926649233" lon="115.23343864233166"><ele>51.0</ele><time>2026-04-12T09:08:21Z</time></trkpt><trkpt lat="-30.506555356887258" lon="115.23359951673166"><ele>51.0</ele><time>2026-04-12T09:08:22Z</time></trkpt><trkpt lat="-30.506307710319252" lon="115.23375874938218"><ele>51.0</ele><time>2026-04-12T09:08:23Z</time></trkpt><trkpt lat="-30.50605985716073" lon="115.23391662920524"><ele>51.0</ele><time>2026-04-12T09:08:24Z</time></trkpt><trkpt lat="-30.505814908686258" lon="115.23406646486359"><ele>51.5</ele><time>2026-04-12T09:08:25Z</time></trkpt><trkpt lat="-30.505568151712424" lon="115.23420523193087"><ele>52.0</ele><time>2026-04-12T09:08:26Z</time></trkpt><trkpt lat="-30.50531686324025" lon="115.23433010025579"><ele>52.0</ele><time>2026-04-12T09:08:27Z</time></trkpt><trkpt lat="-30.505053496318016" lon="115.2344507861293"><ele>52.0</ele><time>2026-04-12T09:08:28Z</time></trkpt><trkpt lat="-30.50478341314115" lon="115.23456679440258"><ele>50.0</ele><time>2026-04-12T09:08:29Z</time></trkpt><trkpt lat="-30.504516790867115" lon="115.234678598413"><ele>48.0</ele><time>2026-04-12T09:08:30Z</time></trkpt><trkpt lat="-30.504250433108314" lon="115.23478752305833"><ele>50.0</ele><time>2026-04-12T09:08:31Z</time></trkpt><trkpt lat="-30.50398626418784" lon="115.23489906352816"><ele>52.0</ele><time>2026-04-12T09:08:32Z</time></trkpt><trkpt lat="-30.503720464214283" lon="115.23501095408452"><ele>52.0</ele><time>2026-04-12T09:08:33Z</time></trkpt><trkpt lat="-30.503451874361616" lon="115.23512492002787"><ele>52.0</ele><time>2026-04-12T09:08:34Z</time></trkpt><trkpt lat="-30.50318585807751" lon="115.23523918800491"><ele>52.0</ele><time>2026-04-12T09:08:35Z</time></trkpt><trkpt lat="-30.50292197073786" lon="115.23535525263819"><ele>52.0</ele><time>2026-04-12T09:08:36Z</time></trkpt><trkpt lat="-30.50264967242547" lon="115.23547505797546"><ele>52.5</ele><time>2026-04-12T09:08:37Z</time></trkpt><trkpt lat="-30.50237509211754" lon="115.23559887184867"><ele>53.0</ele><time>2026-04-12T09:08:38Z</time></trkpt><trkpt lat="-30.5020970161053" lon="115.23572410456951"><ele>52.0</ele><time>2026-04-12T09:08:39Z</time></trkpt><trkpt lat="-30.501811913325902" lon="115.23585137451205"><ele>51.0</ele><time>2026-04-12T09:08:40Z</time></trkpt><trkpt lat="-30.50151969286131" lon="115.235977523416"><ele>49.0</ele><time>2026-04-12T09:08:41Z</time></trkpt><trkpt lat="-30.501226025252713" lon="115.2361038831526"><ele>47.0</ele><time>2026-04-12T09:08:42Z</time></trkpt><trkpt lat="-30.500925237204964" lon="115.23623154625473"><ele>47.0</ele><time>2026-04-12T09:08:43Z</time></trkpt><trkpt lat="-30.50062766757997" lon="115.23635880836319"><ele>47.0</ele><time>2026-04-12T09:08:44Z</time></trkpt><trkpt lat="-30.500331180052303" lon="115.2364850330236"><ele>47.5</ele><time>2026-04-12T09:08:45Z</time></trkpt><trkpt lat="-30.500033315301167" lon="115.23661136826726"><ele>48.0</ele><time>2026-04-12T09:08:46Z</time></trkpt><trkpt lat="-30.499736035302647" lon="115.23673600528562"><ele>49.5</ele><time>2026-04-12T09:08:47Z</time></trkpt><trkpt lat="-30.49943871174273" lon="115.23686253533984"><ele>51.0</ele><time>2026-04-12T09:08:48Z</time></trkpt><trkpt lat="-30.499138841502393" lon="115.236988256481"><ele>51.0</ele><time>2026-04-12T09:08:49Z</time></trkpt><trkpt lat="-30.498835569534528" lon="115.23711788454534"><ele>51.0</ele><time>2026-04-12T09:08:50Z</time></trkpt><trkpt lat="-30.498524059732777" lon="115.23725190822022"><ele>49.0</ele><time>2026-04-12T09:08:51Z</time></trkpt><trkpt lat="-30.498209092686206" lon="115.23738579944165"><ele>47.0</ele><time>2026-04-12T09:08:52Z</time></trkpt><trkpt lat="-30.49788962758558" lon="115.23752093908587"><ele>47.0</ele><time>2026-04-12T09:08:53Z</time></trkpt><trkpt lat="-30.497575450476955" lon="115.23765500684816"><ele>47.0</ele><time>2026-04-12T09:08:54Z</time></trkpt><trkpt lat="-30.49726082600445" lon="115.23778929344687"><ele>46.5</ele><time>2026-04-12T09:08:55Z</time></trkpt><trkpt lat="-30.49694668496238" lon="115.23792275753058"><ele>46.0</ele><time>2026-04-12T09:08:56Z</time></trkpt><trkpt lat="-30.496635089127516" lon="115.23805365759881"><ele>46.0</ele><time>2026-04-12T09:08:57Z</time></trkpt><trkpt lat="-30.496328302361594" lon="115.23818351700665"><ele>46.0</ele><time>2026-04-12T09:08:58Z</time></trkpt><trkpt lat="-30.49602623172618" lon="115.23831654333038"><ele>46.0</ele><time>2026-04-12T09:08:59Z</time></trkpt><trkpt lat="-30.495726253779353" lon="115.23844617496233"><ele>46.0</ele><time>2026-04-12T09:09:00Z</time></trkpt><trkpt lat="-30.495429231771617" lon="115.23857682316118"><ele>48.0</ele><time>2026-04-12T09:09:01Z</time></trkpt><trkpt lat="-30.495134007242207" lon="115.23870458251446"><ele>50.0</ele><time>2026-04-12T09:09:02Z</time></trkpt><trkpt lat="-30.494837358791838" lon="115.23883269258738"><ele>49.5</ele><time>2026-04-12T09:09:03Z</time></trkpt><trkpt lat="-30.494543078372605" lon="115.23895980733319"><ele>49.0</ele><time>2026-04-12T09:09:04Z</time></trkpt><trkpt lat="-30.49424991269567" lon="115.23908585754167"><ele>49.5</ele><time>2026-04-12T09:09:05Z</time></trkpt><trkpt lat="-30.493956822636576" lon="115.23921234674069"><ele>50.0</ele><time>2026-04-12T09:09:06Z</time></trkpt><trkpt lat="-30.49366375317534" lon="115.23934045171667"><ele>50.0</ele><time>2026-04-12T09:09:07Z</time></trkpt><trkpt lat="-30.493372429460507" lon="115.23946713848953"><ele>50.0</ele><time>2026-04-12T09:09:08Z</time></trkpt><trkpt lat="-30.49307993679802" lon="115.23959305693427"><ele>50.5</ele><time>2026-04-12T09:09:09Z</time></trkpt><trkpt lat="-30.492787434862823" lon="115.23971653393292"><ele>51.0</ele><time>2026-04-12T09:09:10Z</time></trkpt><trkpt lat="-30.492496123715302" lon="115.23983829331533"><ele>51.5</ele><time>2026-04-12T09:09:11Z</time></trkpt><trkpt lat="-30.492206959438086" lon="115.2399599088287"><ele>52.0</ele><time>2026-04-12T09:09:12Z</time></trkpt><trkpt lat="-30.491918050549415" lon="115.24008225566563"><ele>51.0</ele><time>2026-04-12T09:09:13Z</time></trkpt><trkpt lat="-30.491624632135245" lon="115.24020687205052"><ele>50.0</ele><time>2026-04-12T09:09:14Z</time></trkpt><trkpt lat="-30.49133212502691" lon="115.24033134808654"><ele>49.0</ele><time>2026-04-12T09:09:15Z</time></trkpt><trkpt lat="-30.49103707596259" lon="115.24046043445058"><ele>48.0</ele><time>2026-04-12T09:09:16Z</time></trkpt><trkpt lat="-30.49074366111671" lon="115.24058880902807"><ele>48.0</ele><time>2026-04-12T09:09:17Z</time></trkpt><trkpt lat="-30.490448135232295" lon="115.2407163854017"><ele>48.0</ele><time>2026-04-12T09:09:18Z</time></trkpt><trkpt lat="-30.49015232896029" lon="115.24083988577236"><ele>49.0</ele><time>2026-04-12T09:09:19Z</time></trkpt><trkpt lat="-30.489859869979686" lon="115.24096520049856"><ele>50.0</ele><time>2026-04-12T09:09:20Z</time></trkpt><trkpt lat="-30.48956557123314" lon="115.24109091238047"><ele>51.5</ele><time>2026-04-12T09:09:21Z</time></trkpt><trkpt lat="-30.489272241217428" lon="115.24121717019847"><ele>53.0</ele><time>2026-04-12T09:09:22Z</time></trkpt><trkpt lat="-30.48898246960189" lon="115.24134514605275"><ele>52.0</ele><time>2026-04-12T09:09:23Z</time></trkpt><trkpt lat="-30.488692341636693" lon="115.24146908555669"><ele>51.0</ele><time>2026-04-12T09:09:24Z</time></trkpt><trkpt lat="-30.488400583269872" lon="115.24159487624314"><ele>51.0</ele><time>2026-04-12T09:09:25Z</time></trkpt><trkpt lat="-30.488109609485754" lon="115.24171938626736"><ele>51.0</ele><time>2026-04-12T09:09:26Z</time></trkpt><trkpt lat="-30.48782097678408" lon="115.2418423464791"><ele>49.5</ele><time>2026-04-12T09:09:27Z</time></trkpt><trkpt lat="-30.48753543336173" lon="115.24196303375142"><ele>48.0</ele><time>2026-04-12T09:09:28Z</time></trkpt><trkpt lat="-30.487253075799" lon="115.24208357492857"><ele>48.0</ele><time>2026-04-12T09:09:29Z</time></trkpt><trkpt lat="-30.486976865997658" lon="115.24220531962422"><ele>48.0</ele><time>2026-04-12T09:09:30Z</time></trkpt><trkpt lat="-30.48670119774721" lon="115.24232576001076"><ele>48.0</ele><time>2026-04-12T09:09:31Z</time></trkpt><trkpt lat="-30.48642359841284" lon="115.24244336207455"><ele>48.0</ele><time>2026-04-12T09:09:32Z</time></trkpt><trkpt lat="-30.48615165086192" lon="115.2425570941659"><ele>48.0</ele><time>2026-04-12T09:09:33Z</time></trkpt><trkpt lat="-30.485881216683534" lon="115.24267422104244"><ele>48.0</ele><time>2026-04-12T09:09:34Z</time></trkpt><trkpt lat="-30.48560785513549" lon="115.24279102214379"><ele>49.5</ele><time>2026-04-12T09:09:35Z</time></trkpt><trkpt lat="-30.485339007412165" lon="115.24290599808276"><ele>51.0</ele><time>2026-04-12T09:09:36Z</time></trkpt><trkpt lat="-30.48506941548761" lon="115.24302069607297"><ele>51.0</ele><time>2026-04-12T09:09:37Z</time></trkpt><trkpt lat="-30.484804291818875" lon="115.24313614157283"><ele>51.0</ele><time>2026-04-12T09:09:38Z</time></trkpt><trkpt lat="-30.48454117743666" lon="115.24325252855179"><ele>51.0</ele><time>2026-04-12T09:09:39Z</time></trkpt><trkpt lat="-30.484282526562204" lon="115.24336481866969"><ele>51.0</ele><time>2026-04-12T09:09:40Z</time></trkpt><trkpt lat="-30.48402084093883" lon="115.24347822736976"><ele>52.5</ele><time>2026-04-12T09:09:41Z</time></trkpt><trkpt lat="-30.4837549213209" lon="115.24359201998878"><ele>54.0</ele><time>2026-04-12T09:09:42Z</time></trkpt><trkpt lat="-30.483487251637705" lon="115.24370647470258"><ele>54.0</ele><time>2026-04-12T09:09:43Z</time></trkpt><trkpt lat="-30.48321977435073" lon="115.24382212473009"><ele>54.0</ele><time>2026-04-12T09:09:44Z</time></trkpt><trkpt lat="-30.48295188311303" lon="115.24393776862689"><ele>52.0</ele><time>2026-04-12T09:09:45Z</time></trkpt><trkpt lat="-30.48268561478005" lon="115.24405327877692"><ele>50.0</ele><time>2026-04-12T09:09:46Z</time></trkpt><trkpt lat="-30.482418841478957" lon="115.24416892971178"><ele>50.0</ele><time>2026-04-12T09:09:47Z</time></trkpt><trkpt lat="-30.482150172083717" lon="115.24428490926226"><ele>50.0</ele><time>2026-04-12T09:09:48Z</time></trkpt><trkpt lat="-30.481880840868538" lon="115.24440155751999"><ele>49.0</ele><time>2026-04-12T09:09:49Z</time></trkpt><trkpt lat="-30.48160968287885" lon="115.24451813561728"><ele>48.0</ele><time>2026-04-12T09:09:50Z</time></trkpt><trkpt lat="-30.481337043654595" lon="115.2446335335776"><ele>48.5</ele><time>2026-04-12T09:09:51Z</time></trkpt><trkpt lat="-30.48106630329205" lon="115.24474912935005"><ele>49.0</ele><time>2026-04-12T09:09:52Z</time></trkpt><trkpt lat="-30.480794449912644" lon="115.2448666492972"><ele>49.0</ele><time>2026-04-12T09:09:53Z</time></trkpt><trkpt lat="-30.480523984870654" lon="115.24498579997224"><ele>49.0</ele><time>2026-04-12T09:09:54Z</time></trkpt><trkpt lat="-30.480255458001345" lon="115.24510231482327"><ele>52.0</ele><time>2026-04-12T09:09:55Z</time></trkpt><trkpt lat="-30.479990603308647" lon="115.24521484216888"><ele>55.0</ele><time>2026-04-12T09:09:56Z</time></trkpt><trkpt lat="-30.479728958539845" lon="115.24532497437592"><ele>55.0</ele><time>2026-04-12T09:09:57Z</time></trkpt><trkpt lat="-30.479468620618874" lon="115.24543829295942"><ele>55.0</ele><time>2026-04-12T09:09:58Z</time></trkpt><trkpt lat="-30.479210612747046" lon="115.24555018603448"><ele>53.5</ele><time>2026-04-12T09:09:59Z</time></trkpt><trkpt lat="-30.478952599590766" lon="115.24566103142887"><ele>52.0</ele><time>2026-04-12T09:10:00Z</time></trkpt><trkpt lat="-30.478695102926686" lon="115.2457720137414"><ele>51.5</ele><time>2026-04-12T09:10:01Z</time></trkpt><trkpt lat="-30.47843789672968" lon="115.24588271672823"><ele>51.0</ele><time>2026-04-12T09:10:02Z</time></trkpt><trkpt lat="-30.478181606345323" lon="115.24599197904898"><ele>52.0</ele><time>2026-04-12T09:10:03Z</time></trkpt><trkpt lat="-30.477923377345327" lon="115.24610162246537"><ele>53.0</ele><time>2026-04-12T09:10:04Z</time></trkpt><trkpt lat="-30.477663787458784" lon="115.24621168079095"><ele>53.0</ele><time>2026-04-12T09:10:05Z</time></trkpt><trkpt lat="-30.477402495453557" lon="115.2463219268126"><ele>53.0</ele><time>2026-04-12T09:10:06Z</time></trkpt><trkpt lat="-30.47714229522082" lon="115.24643580111524"><ele>53.5</ele><time>2026-04-12T09:10:07Z</time></trkpt><trkpt lat="-30.476882045707764" lon="115.24655075573145"><ele>54.0</ele><time>2026-04-12T09:10:08Z</time></trkpt><trkpt lat="-30.476617640200782" lon="115.2466660361254"><ele>54.0</ele><time>2026-04-12T09:10:09Z</time></trkpt><trkpt lat="-30.476344512181814" lon="115.24678112642995"><ele>54.0</ele><time>2026-04-12T09:10:10Z</time></trkpt><trkpt lat="-30.47606864998075" lon="115.2468970678637"><ele>54.0</ele><time>2026-04-12T09:10:11Z</time></trkpt><trkpt lat="-30.475798612921036" lon="115.2470120623305"><ele>54.0</ele><time>2026-04-12T09:10:12Z</time></trkpt><trkpt lat="-30.475527416157487" lon="115.24712895508904"><ele>54.0</ele><time>2026-04-12T09:10:13Z</time></trkpt><trkpt lat="-30.47525469044108" lon="115.24724798442637"><ele>54.0</ele><time>2026-04-12T09:10:14Z</time></trkpt><trkpt lat="-30.474984028822078" lon="115.2473629279405"><ele>55.0</ele><time>2026-04-12T09:10:15Z</time></trkpt><trkpt lat="-30.47471766289557" lon="115.24747552613911"><ele>56.0</ele><time>2026-04-12T09:10:16Z</time></trkpt><trkpt lat="-30.474461273002884" lon="115.24758412794935"><ele>56.0</ele><time>2026-04-12T09:10:17Z</time></trkpt><trkpt lat="-30.474212725903627" lon="115.24769218111118"><ele>56.0</ele><time>2026-04-12T09:10:18Z</time></trkpt><trkpt lat="-30.473975826197726" lon="115.24778154390316"><ele>56.5</ele><time>2026-04-12T09:10:19Z</time></trkpt><trkpt lat="-30.473742096257993" lon="115.24784448961118"><ele>57.0</ele><time>2026-04-12T09:10:20Z</time></trkpt><trkpt lat="-30.473495018029322" lon="115.24788055708878"><ele>57.0</ele><time>2026-04-12T09:10:21Z</time></trkpt><trkpt lat="-30.473230895142695" lon="115.24789601507668"><ele>57.0</ele><time>2026-04-12T09:10:22Z</time></trkpt><trkpt lat="-30.472961245788333" lon="115.24789425646073"><ele>55.5</ele><time>2026-04-12T09:10:23Z</time></trkpt><trkpt lat="-30.472685809737932" lon="115.24788767666338"><ele>54.0</ele><time>2026-04-12T09:10:24Z</time></trkpt><trkpt lat="-30.472408004932888" lon="115.24788306097113"><ele>54.0</ele><time>2026-04-12T09:10:25Z</time></trkpt><trkpt lat="-30.472128311864523" lon="115.24788327501913"><ele>54.0</ele><time>2026-04-12T09:10:26Z</time></trkpt><trkpt lat="-30.471847921345528" lon="115.24788577765469"><ele>54.5</ele><time>2026-04-12T09:10:27Z</time></trkpt><trkpt lat="-30.471566572443702" lon="115.24789104865515"><ele>55.0</ele><time>2026-04-12T09:10:28Z</time></trkpt><trkpt lat="-30.471282831194436" lon="115.2478962911699"><ele>53.5</ele><time>2026-04-12T09:10:29Z</time></trkpt><trkpt lat="-30.470998183931066" lon="115.24789870737436"><ele>52.0</ele><time>2026-04-12T09:10:30Z</time></trkpt><trkpt lat="-30.470709935771723" lon="115.24789874967502"><ele>52.5</ele><time>2026-04-12T09:10:31Z</time></trkpt><trkpt lat="-30.470422284162158" lon="115.24789935181538"><ele>53.0</ele><time>2026-04-12T09:10:32Z</time></trkpt><trkpt lat="-30.47013667670857" lon="115.24790049389024"><ele>53.0</ele><time>2026-04-12T09:10:33Z</time></trkpt><trkpt lat="-30.469852255810984" lon="115.24790243876132"><ele>53.0</ele><time>2026-04-12T09:10:34Z</time></trkpt><trkpt lat="-30.469569248100633" lon="115.2479056510111"><ele>53.0</ele><time>2026-04-12T09:10:35Z</time></trkpt><trkpt lat="-30.469288442905665" lon="115.2479085316825"><ele>53.0</ele><time>2026-04-12T09:10:36Z</time></trkpt><trkpt lat="-30.469009551215965" lon="115.24790958997453"><ele>55.0</ele><time>2026-04-12T09:10:37Z</time></trkpt><trkpt lat="-30.4687358685303" lon="115.24791191487128"><ele>57.0</ele><time>2026-04-12T09:10:38Z</time></trkpt><trkpt lat="-30.468466172507004" lon="115.24791446032296"><ele>57.0</ele><time>2026-04-12T09:10:39Z</time></trkpt><trkpt lat="-30.4681993025236" lon="115.24791571134877"><ele>57.0</ele><time>2026-04-12T09:10:40Z</time></trkpt><trkpt lat="-30.467934042644455" lon="115.24791654401659"><ele>57.5</ele><time>2026-04-12T09:10:41Z</time></trkpt><trkpt lat="-30.467667952750624" lon="115.24791841990626"><ele>58.0</ele><time>2026-04-12T09:10:42Z</time></trkpt><trkpt lat="-30.467404689039142" lon="115.24792184010872"><ele>58.0</ele><time>2026-04-12T09:10:43Z</time></trkpt><trkpt lat="-30.467140954206737" lon="115.24792785257377"><ele>58.0</ele><time>2026-04-12T09:10:44Z</time></trkpt><trkpt lat="-30.466875863979276" lon="115.24793359413148"><ele>57.5</ele><time>2026-04-12T09:10:45Z</time></trkpt><trkpt lat="-30.466614366522315" lon="115.24793954368307"><ele>57.0</ele><time>2026-04-12T09:10:46Z</time></trkpt><trkpt lat="-30.466353448031718" lon="115.24794102259169"><ele>56.5</ele><time>2026-04-12T09:10:47Z</time></trkpt><trkpt lat="-30.466096018857073" lon="115.24794214752248"><ele>56.0</ele><time>2026-04-12T09:10:48.001Z</time></trkpt><trkpt lat="-30.465833542418473" lon="115.2479439906207"><ele>56.0</ele><time>2026-04-12T09:10:49.001Z</time></trkpt><trkpt lat="-30.46557647136816" lon="115.2479426462769"><ele>56.0</ele><time>2026-04-12T09:10:50.001Z</time></trkpt><trkpt lat="-30.465315851480607" lon="115.24794402456517"><ele>57.0</ele><time>2026-04-12T09:10:51.001Z</time></trkpt><trkpt lat="-30.465057141013357" lon="115.24794789219249"><ele>58.0</ele><time>2026-04-12T09:10:52.001Z</time></trkpt><trkpt lat="-30.464800440793397" lon="115.24795456101023"><ele>59.0</ele><time>2026-04-12T09:10:53.001Z</time></trkpt><trkpt lat="-30.464541930462875" lon="115.24795868829125"><ele>60.0</ele><time>2026-04-12T09:10:54.001Z</time></trkpt><trkpt lat="-30.464283177594442" lon="115.24795860093214"><ele>60.0</ele><time>2026-04-12T09:10:55.001Z</time></trkpt><trkpt lat="-30.464024889638367" lon="115.24795296867266"><ele>60.0</ele><time>2026-04-12T09:10:56.001Z</time></trkpt><trkpt lat="-30.46376839652083" lon="115.24795284288984"><ele>60.5</ele><time>2026-04-12T09:10:57.001Z</time></trkpt><trkpt lat="-30.463512103848636" lon="115.24795465563108"><ele>61.0</ele><time>2026-04-12T09:10:58.001Z</time></trkpt><trkpt lat="-30.463258755347834" lon="115.24795745336641"><ele>61.0</ele><time>2026-04-12T09:10:59.001Z</time></trkpt><trkpt lat="-30.463007348837426" lon="115.24796324065842"><ele>61.0</ele><time>2026-04-12T09:11:00.001Z</time></trkpt><trkpt lat="-30.462758214831904" lon="115.24796684042242"><ele>60.0</ele><time>2026-04-12T09:11:01.001Z</time></trkpt><trkpt lat="-30.462511322616834" lon="115.2479644081838"><ele>59.0</ele><time>2026-04-12T09:11:02.001Z</time></trkpt><trkpt lat="-30.462266568598146" lon="115.24796143172472"><ele>61.0</ele><time>2026-04-12T09:11:03.001Z</time></trkpt><trkpt lat="-30.462020275084168" lon="115.24795916827972"><ele>63.0</ele><time>2026-04-12T09:11:04.001Z</time></trkpt><trkpt lat="-30.461775658412385" lon="115.24795869661477"><ele>63.0</ele><time>2026-04-12T09:11:05.001Z</time></trkpt><trkpt lat="-30.461531634691035" lon="115.24796004925092"><ele>63.0</ele><time>2026-04-12T09:11:06.001Z</time></trkpt><trkpt lat="-30.46128994071665" lon="115.24796535122766"><ele>63.0</ele><time>2026-04-12T09:11:07Z</time></trkpt><trkpt lat="-30.46104904001879" lon="115.24797105625753"><ele>63.0</ele><time>2026-04-12T09:11:08Z</time></trkpt><trkpt lat="-30.460806573352613" lon="115.24797609927103"><ele>63.0</ele><time>2026-04-12T09:11:09Z</time></trkpt><trkpt lat="-30.460553142608074" lon="115.2479803326491"><ele>63.0</ele><time>2026-04-12T09:11:10Z</time></trkpt><trkpt lat="-30.460289407088524" lon="115.24798252101077"><ele>62.0</ele><time>2026-04-12T09:11:11Z</time></trkpt><trkpt lat="-30.46002102728923" lon="115.24798447999817"><ele>61.0</ele><time>2026-04-12T09:11:12Z</time></trkpt><trkpt lat="-30.459749900053612" lon="115.24798684594346"><ele>60.5</ele><time>2026-04-12T09:11:13Z</time></trkpt><trkpt lat="-30.45947991948201" lon="115.24799025084347"><ele>60.0</ele><time>2026-04-12T09:11:14Z</time></trkpt><trkpt lat="-30.459211859318007" lon="115.24799208465544"><ele>60.0</ele><time>2026-04-12T09:11:15Z</time></trkpt><trkpt lat="-30.45895082343409" lon="115.24799451153521"><ele>60.0</ele><time>2026-04-12T09:11:16Z</time></trkpt><trkpt lat="-30.458681591708398" lon="115.24799403065488"><ele>62.0</ele><time>2026-04-12T09:11:17Z</time></trkpt><trkpt lat="-30.458409261045585" lon="115.24799389919988"><ele>64.0</ele><time>2026-04-12T09:11:18Z</time></trkpt><trkpt lat="-30.458138907655982" lon="115.24799288670992"><ele>65.0</ele><time>2026-04-12T09:11:19Z</time></trkpt><trkpt lat="-30.457869480210945" lon="115.24799129518566"><ele>66.0</ele><time>2026-04-12T09:11:20Z</time></trkpt><trkpt lat="-30.457598798209794" lon="115.24799358320865"><ele>66.0</ele><time>2026-04-12T09:11:21Z</time></trkpt><trkpt lat="-30.45732526282725" lon="115.24799955582652"><ele>66.0</ele><time>2026-04-12T09:11:22Z</time></trkpt><trkpt lat="-30.457048484008748" lon="115.24800640218366"><ele>66.0</ele><time>2026-04-12T09:11:23Z</time></trkpt><trkpt lat="-30.456775114098566" lon="115.2480122377321"><ele>66.0</ele><time>2026-04-12T09:11:24Z</time></trkpt><trkpt lat="-30.4565052345619" lon="115.24801712643888"><ele>65.0</ele><time>2026-04-12T09:11:25Z</time></trkpt><trkpt lat="-30.456234773236602" lon="115.24802268383385"><ele>64.0</ele><time>2026-04-12T09:11:26Z</time></trkpt><trkpt lat="-30.45596668708999" lon="115.24802822549822"><ele>64.0</ele><time>2026-04-12T09:11:27Z</time></trkpt><trkpt lat="-30.45569847825617" lon="115.24803199373852"><ele>64.0</ele><time>2026-04-12T09:11:28Z</time></trkpt><trkpt lat="-30.45542525008579" lon="115.2480362478015"><ele>64.0</ele><time>2026-04-12T09:11:29Z</time></trkpt><trkpt lat="-30.45514623036194" lon="115.24803908116559"><ele>64.0</ele><time>2026-04-12T09:11:30Z</time></trkpt><trkpt lat="-30.454868525269124" lon="115.24804061515093"><ele>65.5</ele><time>2026-04-12T09:11:31Z</time></trkpt><trkpt lat="-30.45459542365186" lon="115.24804461705415"><ele>67.0</ele><time>2026-04-12T09:11:32Z</time></trkpt><trkpt lat="-30.45432408120157" lon="115.24804579448893"><ele>67.0</ele><time>2026-04-12T09:11:33Z</time></trkpt><trkpt lat="-30.454059520532468" lon="115.24804840908847"><ele>67.0</ele><time>2026-04-12T09:11:34Z</time></trkpt><trkpt lat="-30.453796122336136" lon="115.24805254582256"><ele>66.5</ele><time>2026-04-12T09:11:35Z</time></trkpt><trkpt lat="-30.45353606565787" lon="115.24805563190836"><ele>66.0</ele><time>2026-04-12T09:11:36Z</time></trkpt><trkpt lat="-30.453276604122166" lon="115.24805451987787"><ele>66.0</ele><time>2026-04-12T09:11:37Z</time></trkpt><trkpt lat="-30.45301604406206" lon="115.24805351777702"><ele>66.0</ele><time>2026-04-12T09:11:38Z</time></trkpt><trkpt lat="-30.452758215474084" lon="115.24805596772536"><ele>64.5</ele><time>2026-04-12T09:11:39Z</time></trkpt><trkpt lat="-30.45249522549522" lon="115.2480583649307"><ele>63.0</ele><time>2026-04-12T09:11:40Z</time></trkpt><trkpt lat="-30.45225245076758" lon="115.24806186785194"><ele>64.0</ele><time>2026-04-12T09:11:41Z</time></trkpt><trkpt lat="-30.452020149222097" lon="115.24806427084481"><ele>65.0</ele><time>2026-04-12T09:11:42Z</time></trkpt><trkpt lat="-30.451784038998476" lon="115.24806328365666"><ele>65.0</ele><time>2026-04-12T09:11:43Z</time></trkpt><trkpt lat="-30.45153765984545" lon="115.24806611221169"><ele>65.0</ele><time>2026-04-12T09:11:44Z</time></trkpt><trkpt lat="-30.451283414230147" lon="115.24807102169987"><ele>65.5</ele><time>2026-04-12T09:11:45Z</time></trkpt><trkpt lat="-30.451025264741748" lon="115.24807729367778"><ele>66.0</ele><time>2026-04-12T09:11:46Z</time></trkpt><trkpt lat="-30.450757490104245" lon="115.24808133049261"><ele>66.0</ele><time>2026-04-12T09:11:47Z</time></trkpt><trkpt lat="-30.45048602830716" lon="115.24808190019674"><ele>66.0</ele><time>2026-04-12T09:11:48Z</time></trkpt><trkpt lat="-30.45020995556082" lon="115.24807875101617"><ele>66.0</ele><time>2026-04-12T09:11:49Z</time></trkpt><trkpt lat="-30.4499343057005" lon="115.24807811866333"><ele>66.0</ele><time>2026-04-12T09:11:50Z</time></trkpt><trkpt lat="-30.449662828738713" lon="115.24807972790545"><ele>66.5</ele><time>2026-04-12T09:11:51Z</time></trkpt><trkpt lat="-30.449392762010365" lon="115.24808461794184"><ele>67.0</ele><time>2026-04-12T09:11:52Z</time></trkpt><trkpt lat="-30.449124191217535" lon="115.24808752786701"><ele>67.0</ele><time>2026-04-12T09:11:53Z</time></trkpt><trkpt lat="-30.448853614496958" lon="115.24808963017625"><ele>67.0</ele><time>2026-04-12T09:11:54Z</time></trkpt><trkpt lat="-30.44858550057253" lon="115.24809432621647"><ele>66.5</ele><time>2026-04-12T09:11:55Z</time></trkpt><trkpt lat="-30.44831732270563" lon="115.24809887935852"><ele>66.0</ele><time>2026-04-12T09:11:56Z</time></trkpt><trkpt lat="-30.448049782363633" lon="115.24810126996083"><ele>66.0</ele><time>2026-04-12T09:11:57Z</time></trkpt><trkpt lat="-30.447783620036954" lon="115.24809983703881"><ele>66.0</ele><time>2026-04-12T09:11:58Z</time></trkpt><trkpt lat="-30.44751767815004" lon="115.24809768609191"><ele>66.0</ele><time>2026-04-12T09:11:59Z</time></trkpt><trkpt lat="-30.447246799623425" lon="115.248095706752"><ele>66.0</ele><time>2026-04-12T09:12:00Z</time></trkpt><trkpt lat="-30.446971399759864" lon="115.24809661798128"><ele>66.5</ele><time>2026-04-12T09:12:01Z</time></trkpt><trkpt lat="-30.446693677458704" lon="115.24810196702629"><ele>67.0</ele><time>2026-04-12T09:12:02Z</time></trkpt><trkpt lat="-30.446418403126422" lon="115.24810862704611"><ele>67.5</ele><time>2026-04-12T09:12:03Z</time></trkpt><trkpt lat="-30.446138430051473" lon="115.24811194854396"><ele>68.0</ele><time>2026-04-12T09:12:04Z</time></trkpt><trkpt lat="-30.44585991532266" lon="115.24811333653506"><ele>68.0</ele><time>2026-04-12T09:12:05Z</time></trkpt><trkpt lat="-30.4455798368407" lon="115.24811496050037"><ele>68.0</ele><time>2026-04-12T09:12:06Z</time></trkpt><trkpt lat="-30.445299188361133" lon="115.24811584149035"><ele>69.5</ele><time>2026-04-12T09:12:07Z</time></trkpt><trkpt lat="-30.445019954353498" lon="115.24811775057464"><ele>71.0</ele><time>2026-04-12T09:12:08Z</time></trkpt><trkpt lat="-30.444743841408652" lon="115.24812251864486"><ele>71.5</ele><time>2026-04-12T09:12:09Z</time></trkpt><trkpt lat="-30.444468329694242" lon="115.24812577009969"><ele>72.0</ele><time>2026-04-12T09:12:10Z</time></trkpt><trkpt lat="-30.444196946313713" lon="115.24812477569525"><ele>72.0</ele><time>2026-04-12T09:12:11Z</time></trkpt><trkpt lat="-30.443926474929704" lon="115.24812192591217"><ele>72.0</ele><time>2026-04-12T09:12:12Z</time></trkpt><trkpt lat="-30.44365597207074" lon="115.24812017942324"><ele>71.5</ele><time>2026-04-12T09:12:13Z</time></trkpt><trkpt lat="-30.443388472451947" lon="115.2481245203517"><ele>71.0</ele><time>2026-04-12T09:12:14Z</time></trkpt><trkpt lat="-30.443121020544552" lon="115.24813037463697"><ele>72.0</ele><time>2026-04-12T09:12:15Z</time></trkpt><trkpt lat="-30.44285037353929" lon="115.24813786503252"><ele>73.0</ele><time>2026-04-12T09:12:16Z</time></trkpt><trkpt lat="-30.442582578986517" lon="115.2481394177646"><ele>73.0</ele><time>2026-04-12T09:12:17Z</time></trkpt><trkpt lat="-30.44231410351075" lon="115.2481367042861"><ele>73.0</ele><time>2026-04-12T09:12:18Z</time></trkpt><trkpt lat="-30.442047029063087" lon="115.24813370143549"><ele>72.5</ele><time>2026-04-12T09:12:19Z</time></trkpt><trkpt lat="-30.441779244908837" lon="115.24813848655812"><ele>72.0</ele><time>2026-04-12T09:12:20Z</time></trkpt><trkpt lat="-30.44150965166855" lon="115.24814196906536"><ele>71.5</ele><time>2026-04-12T09:12:21Z</time></trkpt><trkpt lat="-30.441238925654645" lon="115.24814439788601"><ele>71.0</ele><time>2026-04-12T09:12:22Z</time></trkpt><trkpt lat="-30.440970809405393" lon="115.24814621016006"><ele>71.0</ele><time>2026-04-12T09:12:23Z</time></trkpt><trkpt lat="-30.440700602647027" lon="115.24814932351444"><ele>71.0</ele><time>2026-04-12T09:12:24Z</time></trkpt><trkpt lat="-30.4404309721064" lon="115.24815176700875"><ele>70.5</ele><time>2026-04-12T09:12:25Z</time></trkpt><trkpt lat="-30.44016458671709" lon="115.24815182295855"><ele>70.0</ele><time>2026-04-12T09:12:26Z</time></trkpt><trkpt lat="-30.43989736559865" lon="115.24814850535381"><ele>70.0</ele><time>2026-04-12T09:12:27Z</time></trkpt><trkpt lat="-30.439629519830728" lon="115.24814927636992"><ele>70.0</ele><time>2026-04-12T09:12:28Z</time></trkpt><trkpt lat="-30.439362361452666" lon="115.24815296309474"><ele>70.0</ele><time>2026-04-12T09:12:29Z</time></trkpt><trkpt lat="-30.439095669487504" lon="115.24815524436553"><ele>70.0</ele><time>2026-04-12T09:12:30Z</time></trkpt><trkpt lat="-30.438832063932942" lon="115.24815647308789"><ele>70.5</ele><time>2026-04-12T09:12:31Z</time></trkpt><trkpt lat="-30.438567740882323" lon="115.24815547127533"><ele>71.0</ele><time>2026-04-12T09:12:32Z</time></trkpt><trkpt lat="-30.43830207070316" lon="115.24815812266725"><ele>71.0</ele><time>2026-04-12T09:12:33Z</time></trkpt><trkpt lat="-30.43803290447249" lon="115.24816198257895"><ele>71.0</ele><time>2026-04-12T09:12:34Z</time></trkpt><trkpt lat="-30.437762636669284" lon="115.24816758537148"><ele>73.0</ele><time>2026-04-12T09:12:35Z</time></trkpt><trkpt lat="-30.43748867314178" lon="115.2481725346056"><ele>75.0</ele><time>2026-04-12T09:12:36Z</time></trkpt><trkpt lat="-30.43721461692859" lon="115.24817772305249"><ele>73.5</ele><time>2026-04-12T09:12:37Z</time></trkpt><trkpt lat="-30.436937579894597" lon="115.24818065263928"><ele>72.0</ele><time>2026-04-12T09:12:38Z</time></trkpt><trkpt lat="-30.436661954216458" lon="115.24818145071724"><ele>72.0</ele><time>2026-04-12T09:12:39Z</time></trkpt><trkpt lat="-30.436386851786473" lon="115.24818282313801"><ele>72.0</ele><time>2026-04-12T09:12:40Z</time></trkpt><trkpt lat="-30.436112726264515" lon="115.24818355415799"><ele>71.5</ele><time>2026-04-12T09:12:41Z</time></trkpt><trkpt lat="-30.43584086267551" lon="115.24818530587733"><ele>71.0</ele><time>2026-04-12T09:12:42Z</time></trkpt><trkpt lat="-30.435568644934357" lon="115.2481862620607"><ele>71.5</ele><time>2026-04-12T09:12:43Z</time></trkpt><trkpt lat="-30.435298518928395" lon="115.24818842162867"><ele>72.0</ele><time>2026-04-12T09:12:44Z</time></trkpt><trkpt lat="-30.435025259996795" lon="115.24819071888432"><ele>72.0</ele><time>2026-04-12T09:12:45Z</time></trkpt><trkpt lat="-30.43474937893354" lon="115.24819342841256"><ele>72.0</ele><time>2026-04-12T09:12:46Z</time></trkpt><trkpt lat="-30.434475076199234" lon="115.2481920487915"><ele>72.5</ele><time>2026-04-12T09:12:47Z</time></trkpt><trkpt lat="-30.434199703207597" lon="115.24819127703289"><ele>73.0</ele><time>2026-04-12T09:12:48Z</time></trkpt><trkpt lat="-30.433924263205355" lon="115.2481947272574"><ele>73.0</ele><time>2026-04-12T09:12:49Z</time></trkpt><trkpt lat="-30.433648078086613" lon="115.24820101187713"><ele>73.0</ele><time>2026-04-12T09:12:50Z</time></trkpt><trkpt lat="-30.433369246562282" lon="115.24820516885843"><ele>73.0</ele><time>2026-04-12T09:12:51Z</time></trkpt><trkpt lat="-30.433089105341267" lon="115.24820783368638"><ele>73.0</ele><time>2026-04-12T09:12:52Z</time></trkpt><trkpt lat="-30.432807419107647" lon="115.24821021775192"><ele>74.0</ele><time>2026-04-12T09:12:53Z</time></trkpt><trkpt lat="-30.432526129161822" lon="115.24821306318609"><ele>75.0</ele><time>2026-04-12T09:12:54Z</time></trkpt><trkpt lat="-30.432244071908226" lon="115.24821531118423"><ele>73.5</ele><time>2026-04-12T09:12:55Z</time></trkpt><trkpt lat="-30.431962855176817" lon="115.248216330053"><ele>72.0</ele><time>2026-04-12T09:12:56Z</time></trkpt><trkpt lat="-30.43168129377137" lon="115.24821609187237"><ele>72.0</ele><time>2026-04-12T09:12:57Z</time></trkpt><trkpt lat="-30.431401834908854" lon="115.24821673508819"><ele>72.0</ele><time>2026-04-12T09:12:58Z</time></trkpt><trkpt lat="-30.43112185649993" lon="115.2482195244834"><ele>72.5</ele><time>2026-04-12T09:12:59Z</time></trkpt><trkpt lat="-30.43084396596951" lon="115.24822358252887"><ele>73.0</ele><time>2026-04-12T09:13:00Z</time></trkpt><trkpt lat="-30.43056411615418" lon="115.24822714102665"><ele>74.0</ele><time>2026-04-12T09:13:01Z</time></trkpt><trkpt lat="-30.430287208357683" lon="115.24822912539177"><ele>75.0</ele><time>2026-04-12T09:13:02Z</time></trkpt><trkpt lat="-30.43000653426363" lon="115.24822917593501"><ele>75.0</ele><time>2026-04-12T09:13:03Z</time></trkpt><trkpt lat="-30.429730043916198" lon="115.248230298091"><ele>75.0</ele><time>2026-04-12T09:13:04Z</time></trkpt><trkpt lat="-30.42945149564589" lon="115.24823232317182"><ele>75.0</ele><time>2026-04-12T09:13:05Z</time></trkpt><trkpt lat="-30.42917260318486" lon="115.2482352018026"><ele>75.0</ele><time>2026-04-12T09:13:06Z</time></trkpt><trkpt lat="-30.42889224918327" lon="115.24823841919986"><ele>75.0</ele><time>2026-04-12T09:13:07Z</time></trkpt><trkpt lat="-30.42861326186719" lon="115.2482395486245"><ele>75.0</ele><time>2026-04-12T09:13:08Z</time></trkpt><trkpt lat="-30.428337521133354" lon="115.24823961855604"><ele>75.0</ele><time>2026-04-12T09:13:09Z</time></trkpt><trkpt lat="-30.428067638155092" lon="115.24824162382626"><ele>75.0</ele><time>2026-04-12T09:13:10Z</time></trkpt><trkpt lat="-30.42779786249995" lon="115.24824362077881"><ele>75.0</ele><time>2026-04-12T09:13:11Z</time></trkpt><trkpt lat="-30.427533451592925" lon="115.24824581782902"><ele>75.0</ele><time>2026-04-12T09:13:12Z</time></trkpt><trkpt lat="-30.427270578107144" lon="115.24824804548737"><ele>74.5</ele><time>2026-04-12T09:13:13Z</time></trkpt><trkpt lat="-30.427011086814126" lon="115.24825146601985"><ele>74.0</ele><time>2026-04-12T09:13:14Z</time></trkpt><trkpt lat="-30.426751894028246" lon="115.24825634067453"><ele>74.0</ele><time>2026-04-12T09:13:15Z</time></trkpt><trkpt lat="-30.426499502785617" lon="115.24825735287523"><ele>74.0</ele><time>2026-04-12T09:13:16Z</time></trkpt><trkpt lat="-30.426247436817548" lon="115.24825796828574"><ele>75.0</ele><time>2026-04-12T09:13:17Z</time></trkpt><trkpt lat="-30.42599941313537" lon="115.24825771962801"><ele>76.0</ele><time>2026-04-12T09:13:18Z</time></trkpt><trkpt lat="-30.4257521192794" lon="115.24825879825673"><ele>76.0</ele><time>2026-04-12T09:13:19Z</time></trkpt><trkpt lat="-30.425507630199" lon="115.24826136517852"><ele>76.0</ele><time>2026-04-12T09:13:20Z</time></trkpt><trkpt lat="-30.4252629658707" lon="115.24826515354896"><ele>76.0</ele><time>2026-04-12T09:13:21Z</time></trkpt><trkpt lat="-30.425021870715238" lon="115.24826639025726"><ele>76.0</ele><time>2026-04-12T09:13:22Z</time></trkpt><trkpt lat="-30.424781596375333" lon="115.24826633631"><ele>77.5</ele><time>2026-04-12T09:13:23Z</time></trkpt><trkpt lat="-30.424542577423022" lon="115.24826616729328"><ele>79.0</ele><time>2026-04-12T09:13:24Z</time></trkpt><trkpt lat="-30.424303819502292" lon="115.24826803461703"><ele>79.0</ele><time>2026-04-12T09:13:25Z</time></trkpt><trkpt lat="-30.42406790896659" lon="115.24826995250191"><ele>79.0</ele><time>2026-04-12T09:13:26Z</time></trkpt><trkpt lat="-30.42383165557883" lon="115.2482712637813"><ele>80.5</ele><time>2026-04-12T09:13:27Z</time></trkpt><trkpt lat="-30.423598498486104" lon="115.24827300195378"><ele>82.0</ele><time>2026-04-12T09:13:28Z</time></trkpt><trkpt lat="-30.42336327123171" lon="115.2482747840418"><ele>82.0</ele><time>2026-04-12T09:13:29Z</time></trkpt><trkpt lat="-30.423122141475496" lon="115.24827667214969"><ele>82.0</ele><time>2026-04-12T09:13:30Z</time></trkpt><trkpt lat="-30.422869367039628" lon="115.24827590560952"><ele>84.0</ele><time>2026-04-12T09:13:31Z</time></trkpt><trkpt lat="-30.422608860220386" lon="115.24827942032925"><ele>86.0</ele><time>2026-04-12T09:13:32Z</time></trkpt><trkpt lat="-30.422345419877544" lon="115.24828099076358"><ele>85.0</ele><time>2026-04-12T09:13:33Z</time></trkpt><trkpt lat="-30.422080157061487" lon="115.24828258376273"><ele>84.0</ele><time>2026-04-12T09:13:34Z</time></trkpt><trkpt lat="-30.421806060848464" lon="115.2482853694184"><ele>84.0</ele><time>2026-04-12T09:13:35Z</time></trkpt><trkpt lat="-30.421532273189964" lon="115.24829031430006"><ele>84.0</ele><time>2026-04-12T09:13:36Z</time></trkpt><trkpt lat="-30.42126019112352" lon="115.24829967733214"><ele>85.5</ele><time>2026-04-12T09:13:37Z</time></trkpt><trkpt lat="-30.420990608123486" lon="115.24830485241246"><ele>87.0</ele><time>2026-04-12T09:13:38Z</time></trkpt><trkpt lat="-30.420719721025044" lon="115.24830594637923"><ele>86.5</ele><time>2026-04-12T09:13:39Z</time></trkpt><trkpt lat="-30.420451697946778" lon="115.24830656242833"><ele>86.0</ele><time>2026-04-12T09:13:40Z</time></trkpt><trkpt lat="-30.420185446722375" lon="115.2483102930109"><ele>86.0</ele><time>2026-04-12T09:13:41Z</time></trkpt><trkpt lat="-30.41991636784894" lon="115.24831464388849"><ele>86.0</ele><time>2026-04-12T09:13:42Z</time></trkpt><trkpt lat="-30.419648801773796" lon="115.2483190450261"><ele>87.0</ele><time>2026-04-12T09:13:43Z</time></trkpt><trkpt lat="-30.419381607502036" lon="115.24832065048405"><ele>88.0</ele><time>2026-04-12T09:13:44Z</time></trkpt><trkpt lat="-30.419110182236288" lon="115.2483207657275"><ele>88.0</ele><time>2026-04-12T09:13:45Z</time></trkpt><trkpt lat="-30.418837564196107" lon="115.24831859591991"><ele>88.0</ele><time>2026-04-12T09:13:46Z</time></trkpt><trkpt lat="-30.41856681970985" lon="115.24831515019257"><ele>87.0</ele><time>2026-04-12T09:13:47Z</time></trkpt><trkpt lat="-30.418298538828562" lon="115.24830078935749"><ele>86.0</ele><time>2026-04-12T09:13:48Z</time></trkpt><trkpt lat="-30.418038498723288" lon="115.24826617001575"><ele>85.5</ele><time>2026-04-12T09:13:49Z</time></trkpt><trkpt lat="-30.417778671769824" lon="115.24821000310153"><ele>85.0</ele><time>2026-04-12T09:13:50Z</time></trkpt><trkpt lat="-30.417518878788623" lon="115.24813639697558"><ele>83.5</ele><time>2026-04-12T09:13:51Z</time></trkpt><trkpt lat="-30.417266342387755" lon="115.24805014771773"><ele>82.0</ele><time>2026-04-12T09:13:52Z</time></trkpt><trkpt lat="-30.417018681850156" lon="115.24794642030305"><ele>82.0</ele><time>2026-04-12T09:13:53Z</time></trkpt><trkpt lat="-30.416774417089076" lon="115.24782495592314"><ele>82.0</ele><time>2026-04-12T09:13:54Z</time></trkpt><trkpt lat="-30.41652554654631" lon="115.24768447682106"><ele>82.5</ele><time>2026-04-12T09:13:55Z</time></trkpt><trkpt lat="-30.416281448341675" lon="115.247531488969"><ele>83.0</ele><time>2026-04-12T09:13:56Z</time></trkpt><trkpt lat="-30.416041882648678" lon="115.24736762375477"><ele>84.0</ele><time>2026-04-12T09:13:57Z</time></trkpt><trkpt lat="-30.41580759174918" lon="115.24719709697638"><ele>85.0</ele><time>2026-04-12T09:13:58Z</time></trkpt><trkpt lat="-30.415574327940043" lon="115.24702486148162"><ele>86.5</ele><time>2026-04-12T09:13:59Z</time></trkpt><trkpt lat="-30.41534154142307" lon="115.24685584945381"><ele>88.0</ele><time>2026-04-12T09:14:00Z</time></trkpt><trkpt lat="-30.41510782618319" lon="115.2466916369831"><ele>88.0</ele><time>2026-04-12T09:14:01Z</time></trkpt><trkpt lat="-30.414872603637875" lon="115.24652801534457"><ele>88.0</ele><time>2026-04-12T09:14:02Z</time></trkpt><trkpt lat="-30.41463530776772" lon="115.24636111061065"><ele>87.0</ele><time>2026-04-12T09:14:03Z</time></trkpt><trkpt lat="-30.41439979250968" lon="115.24619173146843"><ele>86.0</ele><time>2026-04-12T09:14:04Z</time></trkpt><trkpt lat="-30.41416868906659" lon="115.24602546490082"><ele>86.0</ele><time>2026-04-12T09:14:05Z</time></trkpt><trkpt lat="-30.413937277484756" lon="115.24586250649311"><ele>86.0</ele><time>2026-04-12T09:14:06Z</time></trkpt><trkpt lat="-30.413706046763533" lon="115.24570112142705"><ele>87.0</ele><time>2026-04-12T09:14:07Z</time></trkpt><trkpt lat="-30.41347518884965" lon="115.24554047611136"><ele>88.0</ele><time>2026-04-12T09:14:08Z</time></trkpt><trkpt lat="-30.41324673862446" lon="115.24538244638075"><ele>88.0</ele><time>2026-04-12T09:14:09Z</time></trkpt><trkpt lat="-30.413021066660473" lon="115.24522677756293"><ele>88.0</ele><time>2026-04-12T09:14:10Z</time></trkpt><trkpt lat="-30.412795754540863" lon="115.24506718988545"><ele>89.5</ele><time>2026-04-12T09:14:11Z</time></trkpt><trkpt lat="-30.412574159187415" lon="115.24490911235954"><ele>91.0</ele><time>2026-04-12T09:14:12Z</time></trkpt><trkpt lat="-30.41234959937107" lon="115.24474922793682"><ele>91.0</ele><time>2026-04-12T09:14:13Z</time></trkpt><trkpt lat="-30.412127501946845" lon="115.24458979492341"><ele>91.0</ele><time>2026-04-12T09:14:14Z</time></trkpt><trkpt lat="-30.41189729636521" lon="115.24442686392514"><ele>91.0</ele><time>2026-04-12T09:14:15Z</time></trkpt><trkpt lat="-30.411664894560698" lon="115.24426407427546"><ele>91.0</ele><time>2026-04-12T09:14:16Z</time></trkpt><trkpt lat="-30.411430063889547" lon="115.24409796352843"><ele>87.5</ele><time>2026-04-12T09:14:17Z</time></trkpt><trkpt lat="-30.411193450794812" lon="115.24392804363303"><ele>84.0</ele><time>2026-04-12T09:14:18Z</time></trkpt><trkpt lat="-30.410952203473137" lon="115.24375467941672"><ele>84.0</ele><time>2026-04-12T09:14:19Z</time></trkpt><trkpt lat="-30.410710708290907" lon="115.24358326643349"><ele>84.0</ele><time>2026-04-12T09:14:20Z</time></trkpt><trkpt lat="-30.410466663747126" lon="115.24340878631025"><ele>87.5</ele><time>2026-04-12T09:14:21Z</time></trkpt><trkpt lat="-30.410228981047208" lon="115.24323892304636"><ele>91.0</ele><time>2026-04-12T09:14:22Z</time></trkpt><trkpt lat="-30.409991941500603" lon="115.24307162123722"><ele>91.0</ele><time>2026-04-12T09:14:23Z</time></trkpt><trkpt lat="-30.409761074401075" lon="115.24290789991726"><ele>91.0</ele><time>2026-04-12T09:14:24Z</time></trkpt><trkpt lat="-30.409532894116634" lon="115.2427461255742"><ele>90.5</ele><time>2026-04-12T09:14:25Z</time></trkpt><trkpt lat="-30.409310859031176" lon="115.24258667113467"><ele>90.0</ele><time>2026-04-12T09:14:26Z</time></trkpt><trkpt lat="-30.409093683533566" lon="115.24242432665744"><ele>90.0</ele><time>2026-04-12T09:14:27Z</time></trkpt><trkpt lat="-30.408874580025245" lon="115.24226409590918"><ele>90.0</ele><time>2026-04-12T09:14:28Z</time></trkpt><trkpt lat="-30.408653501354603" lon="115.24210397585631"><ele>90.5</ele><time>2026-04-12T09:14:29Z</time></trkpt><trkpt lat="-30.408430648381852" lon="115.24194543915723"><ele>91.0</ele><time>2026-04-12T09:14:30Z</time></trkpt><trkpt lat="-30.40820836803616" lon="115.24178664773207"><ele>92.0</ele><time>2026-04-12T09:14:31Z</time></trkpt><trkpt lat="-30.407991060251696" lon="115.24163230326029"><ele>93.0</ele><time>2026-04-12T09:14:32Z</time></trkpt><trkpt lat="-30.407768624309846" lon="115.24147283862317"><ele>92.0</ele><time>2026-04-12T09:14:33Z</time></trkpt><trkpt lat="-30.407547845958458" lon="115.24131602618797"><ele>91.0</ele><time>2026-04-12T09:14:34Z</time></trkpt><trkpt lat="-30.40732908184617" lon="115.24116002662286"><ele>91.5</ele><time>2026-04-12T09:14:35Z</time></trkpt><trkpt lat="-30.40711788949613" lon="115.24100725832747"><ele>92.0</ele><time>2026-04-12T09:14:36Z</time></trkpt><trkpt lat="-30.406902702443972" lon="115.24085569272087"><ele>92.0</ele><time>2026-04-12T09:14:37Z</time></trkpt><trkpt lat="-30.406689537065713" lon="115.24070738368891"><ele>92.0</ele><time>2026-04-12T09:14:38Z</time></trkpt><trkpt lat="-30.406476691530138" lon="115.24055981410119"><ele>94.0</ele><time>2026-04-12T09:14:39Z</time></trkpt><trkpt lat="-30.40626680357163" lon="115.24041074423201"><ele>96.0</ele><time>2026-04-12T09:14:40Z</time></trkpt><trkpt lat="-30.406062021325166" lon="115.24026450712688"><ele>96.0</ele><time>2026-04-12T09:14:41Z</time></trkpt><trkpt lat="-30.405856876728883" lon="115.24012061889927"><ele>96.0</ele><time>2026-04-12T09:14:42Z</time></trkpt><trkpt lat="-30.4056527820803" lon="115.23997687986288"><ele>95.5</ele><time>2026-04-12T09:14:43Z</time></trkpt><trkpt lat="-30.405451215657617" lon="115.23983044661236"><ele>95.0</ele><time>2026-04-12T09:14:44Z</time></trkpt><trkpt lat="-30.405247046645286" lon="115.23968597207454"><ele>94.0</ele><time>2026-04-12T09:14:45Z</time></trkpt><trkpt lat="-30.405044095589904" lon="115.23954399695927"><ele>93.0</ele><time>2026-04-12T09:14:46Z</time></trkpt><trkpt lat="-30.404840823654048" lon="115.23939983056233"><ele>93.5</ele><time>2026-04-12T09:14:47Z</time></trkpt><trkpt lat="-30.404639149633567" lon="115.23925769663856"><ele>94.0</ele><time>2026-04-12T09:14:48Z</time></trkpt><trkpt lat="-30.404437557996644" lon="115.23911234884291"><ele>94.0</ele><time>2026-04-12T09:14:49Z</time></trkpt><trkpt lat="-30.404234509696778" lon="115.23896935291644"><ele>94.0</ele><time>2026-04-12T09:14:50Z</time></trkpt><trkpt lat="-30.404030049981067" lon="115.238824953733"><ele>93.0</ele><time>2026-04-12T09:14:51Z</time></trkpt><trkpt lat="-30.40382485456239" lon="115.23867950575371"><ele>92.0</ele><time>2026-04-12T09:14:52Z</time></trkpt><trkpt lat="-30.40361880790625" lon="115.23853591728346"><ele>92.0</ele><time>2026-04-12T09:14:53Z</time></trkpt><trkpt lat="-30.403409756582555" lon="115.23838737836023"><ele>92.0</ele><time>2026-04-12T09:14:54Z</time></trkpt><trkpt lat="-30.403195507130352" lon="115.23823758785984"><ele>91.5</ele><time>2026-04-12T09:14:55Z</time></trkpt><trkpt lat="-30.402973210182783" lon="115.23807839264865"><ele>91.0</ele><time>2026-04-12T09:14:56Z</time></trkpt><trkpt lat="-30.4027464486647" lon="115.23791430824124"><ele>91.0</ele><time>2026-04-12T09:14:57Z</time></trkpt><trkpt lat="-30.40251254204077" lon="115.23774641497033"><ele>91.0</ele><time>2026-04-12T09:14:58Z</time></trkpt><trkpt lat="-30.40227131515109" lon="115.23757473400713"><ele>90.0</ele><time>2026-04-12T09:14:59Z</time></trkpt><trkpt lat="-30.40202588084706" lon="115.23739988118471"><ele>89.0</ele><time>2026-04-12T09:15:00Z</time></trkpt><trkpt lat="-30.401782023268296" lon="115.2372260710866"><ele>89.0</ele><time>2026-04-12T09:15:01Z</time></trkpt><trkpt lat="-30.40153389569819" lon="115.23705154877143"><ele>89.0</ele><time>2026-04-12T09:15:02Z</time></trkpt><trkpt lat="-30.401284153458352" lon="115.23687539747493"><ele>90.5</ele><time>2026-04-12T09:15:03Z</time></trkpt><trkpt lat="-30.401036299644414" lon="115.23670334181696"><ele>92.0</ele><time>2026-04-12T09:15:04Z</time></trkpt><trkpt lat="-30.400789959527135" lon="115.2365314589741"><ele>93.5</ele><time>2026-04-12T09:15:05Z</time></trkpt><trkpt lat="-30.400547495618934" lon="115.23635910104987"><ele>95.0</ele><time>2026-04-12T09:15:06Z</time></trkpt><trkpt lat="-30.40030938808534" lon="115.23618852566544"><ele>95.0</ele><time>2026-04-12T09:15:07Z</time></trkpt><trkpt lat="-30.40007311091337" lon="115.23601805946015"><ele>95.0</ele><time>2026-04-12T09:15:08Z</time></trkpt><trkpt lat="-30.39984230972618" lon="115.23585100852968"><ele>95.0</ele><time>2026-04-12T09:15:09Z</time></trkpt><trkpt lat="-30.39960861746094" lon="115.23568395647247"><ele>95.0</ele><time>2026-04-12T09:15:10Z</time></trkpt><trkpt lat="-30.399372485003912" lon="115.2355160378451"><ele>95.0</ele><time>2026-04-12T09:15:11Z</time></trkpt><trkpt lat="-30.39913535071277" lon="115.23534781996504"><ele>95.0</ele><time>2026-04-12T09:15:12Z</time></trkpt><trkpt lat="-30.398899564263232" lon="115.2351812462682"><ele>93.0</ele><time>2026-04-12T09:15:13Z</time></trkpt><trkpt lat="-30.39866931126617" lon="115.2350155406875"><ele>91.0</ele><time>2026-04-12T09:15:14Z</time></trkpt><trkpt lat="-30.398437133334507" lon="115.23485069614286"><ele>92.0</ele><time>2026-04-12T09:15:15Z</time></trkpt><trkpt lat="-30.398202624349913" lon="115.23468993774955"><ele>93.0</ele><time>2026-04-12T09:15:16Z</time></trkpt><trkpt lat="-30.397971874811077" lon="115.2345284393533"><ele>93.0</ele><time>2026-04-12T09:15:17Z</time></trkpt><trkpt lat="-30.39774302401019" lon="115.23436551050149"><ele>93.0</ele><time>2026-04-12T09:15:18Z</time></trkpt><trkpt lat="-30.39751883608494" lon="115.23420248265472"><ele>93.0</ele><time>2026-04-12T09:15:19Z</time></trkpt><trkpt lat="-30.397292759409474" lon="115.23404177502388"><ele>93.0</ele><time>2026-04-12T09:15:20Z</time></trkpt><trkpt lat="-30.39706473232431" lon="115.23388441819202"><ele>92.0</ele><time>2026-04-12T09:15:21Z</time></trkpt><trkpt lat="-30.39683701189454" lon="115.23372929585932"><ele>91.0</ele><time>2026-04-12T09:15:22Z</time></trkpt><trkpt lat="-30.396610095700268" lon="115.23357014593047"><ele>91.0</ele><time>2026-04-12T09:15:23Z</time></trkpt><trkpt lat="-30.396387939209724" lon="115.23341231241226"><ele>91.0</ele><time>2026-04-12T09:15:24Z</time></trkpt><trkpt lat="-30.396171976947812" lon="115.23326039834907"><ele>91.0</ele><time>2026-04-12T09:15:25Z</time></trkpt><trkpt lat="-30.39596576885835" lon="115.23312493628487"><ele>91.0</ele><time>2026-04-12T09:15:26Z</time></trkpt><trkpt lat="-30.395755327873992" lon="115.23299450466305"><ele>91.0</ele><time>2026-04-12T09:15:27Z</time></trkpt><trkpt lat="-30.39553292546223" lon="115.23286734700085"><ele>91.0</ele><time>2026-04-12T09:15:28Z</time></trkpt><trkpt lat="-30.39529548646296" lon="115.23274893226096"><ele>90.5</ele><time>2026-04-12T09:15:29Z</time></trkpt><trkpt lat="-30.39504822704334" lon="115.23263998055553"><ele>90.0</ele><time>2026-04-12T09:15:30Z</time></trkpt><trkpt lat="-30.394798147021586" lon="115.23253184727518"><ele>91.5</ele><time>2026-04-12T09:15:31Z</time></trkpt><trkpt lat="-30.394545547617398" lon="115.232425066289"><ele>93.0</ele><time>2026-04-12T09:15:32Z</time></trkpt><trkpt lat="-30.394299059709176" lon="115.2323234188827"><ele>94.0</ele><time>2026-04-12T09:15:33Z</time></trkpt><trkpt lat="-30.3940696319452" lon="115.2322291776415"><ele>95.0</ele><time>2026-04-12T09:15:34Z</time></trkpt><trkpt lat="-30.3938617035689" lon="115.23214230081386"><ele>96.0</ele><time>2026-04-12T09:15:35Z</time></trkpt><trkpt lat="-30.39366565448836" lon="115.23206139809149"><ele>97.0</ele><time>2026-04-12T09:15:36Z</time></trkpt><trkpt lat="-30.393481932841933" lon="115.23198375015969"><ele>98.0</ele><time>2026-04-12T09:15:37Z</time></trkpt><trkpt lat="-30.393313889831074" lon="115.23190705733226"><ele>98.0</ele><time>2026-04-12T09:15:38Z</time></trkpt><trkpt lat="-30.393152848060698" lon="115.23183309290454"><ele>98.0</ele><time>2026-04-12T09:15:39Z</time></trkpt><trkpt lat="-30.39300521684983" lon="115.23176702268519"><ele>98.0</ele><time>2026-04-12T09:15:40Z</time></trkpt><trkpt lat="-30.392863135390527" lon="115.23170670760246"><ele>96.75</ele><time>2026-04-12T09:15:41Z</time></trkpt><trkpt lat="-30.39272755593403" lon="115.23165231604085"><ele>95.5</ele><time>2026-04-12T09:15:42Z</time></trkpt><trkpt lat="-30.392597386876446" lon="115.23160070947864"><ele>94.25</ele><time>2026-04-12T09:15:43Z</time></trkpt><trkpt lat="-30.392478445269184" lon="115.23155306441978"><ele>93.0</ele><time>2026-04-12T09:15:44Z</time></trkpt><trkpt lat="-30.392372093252753" lon="115.23150892318424"><ele>92.83333333333333</ele><time>2026-04-12T09:15:45Z</time></trkpt><trkpt lat="-30.392274184225744" lon="115.23147086862905"><ele>92.66666666666667</ele><time>2026-04-12T09:15:46Z</time></trkpt><trkpt lat="-30.39218977482994" lon="115.23143845618144"><ele>92.5</ele><time>2026-04-12T09:15:47Z</time></trkpt><trkpt lat="-30.39211636050943" lon="115.2314066553084"><ele>92.33333333333334</ele><time>2026-04-12T09:15:48Z</time></trkpt><trkpt lat="-30.392057777581204" lon="115.23137727885295"><ele>92.16666666666667</ele><time>2026-04-12T09:15:49Z</time></trkpt><trkpt lat="-30.391983180151104" lon="115.23131007756403"><ele>92.0</ele><time>2026-04-12T09:15:51Z</time></trkpt><trkpt lat="-30.391977752674993" lon="115.23118855626416"><ele>91.25</ele><time>2026-04-12T09:15:53Z</time></trkpt><trkpt lat="-30.391991214947417" lon="115.23110338670061"><ele>90.5</ele><time>2026-04-12T09:15:54Z</time></trkpt><trkpt lat="-30.39201096960581" lon="115.23098460689633"><ele>89.75</ele><time>2026-04-12T09:15:55Z</time></trkpt><trkpt lat="-30.392041061358846" lon="115.23083228156206"><ele>89.0</ele><time>2026-04-12T09:15:56Z</time></trkpt><trkpt lat="-30.39207083604812" lon="115.23065739133072"><ele>88.33333333333334</ele><time>2026-04-12T09:15:57Z</time></trkpt><trkpt lat="-30.39210095271005" lon="115.23046919377911"><ele>87.66666666666667</ele><time>2026-04-12T09:15:58Z</time></trkpt><trkpt lat="-30.392141128458128" lon="115.23025811312415"><ele>87.0</ele><time>2026-04-12T09:15:59Z</time></trkpt><trkpt lat="-30.392189659364654" lon="115.23003196805797"><ele>87.33333333333333</ele><time>2026-04-12T09:16:00Z</time></trkpt><trkpt lat="-30.39224013554958" lon="115.22979999187798"><ele>87.66666666666666</ele><time>2026-04-12T09:16:01Z</time></trkpt><trkpt lat="-30.392291064937904" lon="115.2295553399945"><ele>88.0</ele><time>2026-04-12T09:16:02Z</time></trkpt><trkpt lat="-30.39234311071887" lon="115.22929886569035"><ele>88.0</ele><time>2026-04-12T09:16:03Z</time></trkpt><trkpt lat="-30.3923947292743" lon="115.22903465764897"><ele>88.0</ele><time>2026-04-12T09:16:04Z</time></trkpt><trkpt lat="-30.39244803037368" lon="115.22876148743423"><ele>86.5</ele><time>2026-04-12T09:16:05Z</time></trkpt><trkpt lat="-30.392501098608598" lon="115.22848733676275"><ele>85.0</ele><time>2026-04-12T09:16:06Z</time></trkpt><trkpt lat="-30.392557147849786" lon="115.22821698165899"><ele>82.0</ele><time>2026-04-12T09:16:07Z</time></trkpt><trkpt lat="-30.392615661589122" lon="115.22793508045523"><ele>79.0</ele><time>2026-04-12T09:16:08Z</time></trkpt><trkpt lat="-30.39267205183085" lon="115.22764852065336"><ele>79.0</ele><time>2026-04-12T09:16:09Z</time></trkpt><trkpt lat="-30.39272793002359" lon="115.22736417494296"><ele>79.0</ele><time>2026-04-12T09:16:10Z</time></trkpt><trkpt lat="-30.39278686616125" lon="115.22708044499585"><ele>77.5</ele><time>2026-04-12T09:16:11Z</time></trkpt><trkpt lat="-30.39284615190063" lon="115.22679622063401"><ele>76.0</ele><time>2026-04-12T09:16:12Z</time></trkpt><trkpt lat="-30.39290401432186" lon="115.22650924450801"><ele>78.0</ele><time>2026-04-12T09:16:13Z</time></trkpt><trkpt lat="-30.392960122799177" lon="115.22622096058957"><ele>80.0</ele><time>2026-04-12T09:16:14Z</time></trkpt><trkpt lat="-30.393015125105077" lon="115.22593212647433"><ele>78.5</ele><time>2026-04-12T09:16:15Z</time></trkpt><trkpt lat="-30.393073560660692" lon="115.22564440364316"><ele>77.0</ele><time>2026-04-12T09:16:16Z</time></trkpt><trkpt lat="-30.393135734088748" lon="115.22535530788092"><ele>77.0</ele><time>2026-04-12T09:16:17Z</time></trkpt><trkpt lat="-30.393195896417517" lon="115.22506776665578"><ele>77.0</ele><time>2026-04-12T09:16:18Z</time></trkpt><trkpt lat="-30.393254851289548" lon="115.22478037408224"><ele>77.5</ele><time>2026-04-12T09:16:19Z</time></trkpt><trkpt lat="-30.3933123749035" lon="115.22449083258772"><ele>78.0</ele><time>2026-04-12T09:16:20Z</time></trkpt><trkpt lat="-30.393372047814378" lon="115.22419973205702"><ele>78.0</ele><time>2026-04-12T09:16:21Z</time></trkpt><trkpt lat="-30.393428969579638" lon="115.22390423404163"><ele>78.0</ele><time>2026-04-12T09:16:22Z</time></trkpt><trkpt lat="-30.393485115880253" lon="115.22360636008555"><ele>78.0</ele><time>2026-04-12T09:16:23Z</time></trkpt><trkpt lat="-30.393544598481117" lon="115.22331185241839"><ele>78.0</ele><time>2026-04-12T09:16:24Z</time></trkpt><trkpt lat="-30.39360559288827" lon="115.22301791250028"><ele>78.0</ele><time>2026-04-12T09:16:25Z</time></trkpt><trkpt lat="-30.39366855950886" lon="115.22271941801287"><ele>78.0</ele><time>2026-04-12T09:16:26Z</time></trkpt><trkpt lat="-30.393729790378764" lon="115.22241982146512"><ele>77.5</ele><time>2026-04-12T09:16:27Z</time></trkpt><trkpt lat="-30.39379033121387" lon="115.2221148389412"><ele>77.0</ele><time>2026-04-12T09:16:28Z</time></trkpt><trkpt lat="-30.393849986167385" lon="115.22180972310136"><ele>74.0</ele><time>2026-04-12T09:16:29Z</time></trkpt><trkpt lat="-30.393909350100586" lon="115.22150471838705"><ele>71.0</ele><time>2026-04-12T09:16:30Z</time></trkpt><trkpt lat="-30.39396803908746" lon="115.2211993852661"><ele>70.0</ele><time>2026-04-12T09:16:31Z</time></trkpt><trkpt lat="-30.394027462056627" lon="115.22089318832258"><ele>69.0</ele><time>2026-04-12T09:16:32Z</time></trkpt><trkpt lat="-30.394085397112498" lon="115.22058778127229"><ele>72.0</ele><time>2026-04-12T09:16:33Z</time></trkpt><trkpt lat="-30.394137051929313" lon="115.22028325671458"><ele>75.0</ele><time>2026-04-12T09:16:34Z</time></trkpt><trkpt lat="-30.394183072255665" lon="115.2199729465495"><ele>75.5</ele><time>2026-04-12T09:16:35Z</time></trkpt><trkpt lat="-30.39422291467091" lon="115.21966230116364"><ele>76.0</ele><time>2026-04-12T09:16:36Z</time></trkpt><trkpt lat="-30.39425693784652" lon="115.2193491194505"><ele>76.0</ele><time>2026-04-12T09:16:37Z</time></trkpt><trkpt lat="-30.39427951396442" lon="115.2190359418797"><ele>76.0</ele><time>2026-04-12T09:16:38Z</time></trkpt><trkpt lat="-30.394291436189977" lon="115.21871997619455"><ele>76.0</ele><time>2026-04-12T09:16:39Z</time></trkpt><trkpt lat="-30.394297508167124" lon="115.21840207012386"><ele>76.0</ele><time>2026-04-12T09:16:40Z</time></trkpt><trkpt lat="-30.39430076824085" lon="115.2180820899593"><ele>73.5</ele><time>2026-04-12T09:16:41Z</time></trkpt><trkpt lat="-30.394302187941793" lon="115.2177657388251"><ele>71.0</ele><time>2026-04-12T09:16:42Z</time></trkpt><trkpt lat="-30.394302803604198" lon="115.21744613031444"><ele>70.5</ele><time>2026-04-12T09:16:43Z</time></trkpt><trkpt lat="-30.394302051167003" lon="115.21712727656839"><ele>70.0</ele><time>2026-04-12T09:16:44Z</time></trkpt><trkpt lat="-30.394303128469623" lon="115.21680562695575"><ele>67.5</ele><time>2026-04-12T09:16:45Z</time></trkpt><trkpt lat="-30.39430501837304" lon="115.21648490334108"><ele>65.0</ele><time>2026-04-12T09:16:46Z</time></trkpt><trkpt lat="-30.394305182225892" lon="115.21616499102471"><ele>65.0</ele><time>2026-04-12T09:16:47Z</time></trkpt><trkpt lat="-30.394306698406798" lon="115.21584278479246"><ele>65.0</ele><time>2026-04-12T09:16:48Z</time></trkpt><trkpt lat="-30.39430765893813" lon="115.21552137336919"><ele>65.0</ele><time>2026-04-12T09:16:49Z</time></trkpt><trkpt lat="-30.39430782102974" lon="115.21520157761658"><ele>65.0</ele><time>2026-04-12T09:16:50Z</time></trkpt><trkpt lat="-30.394307901094116" lon="115.21488443311237"><ele>65.0</ele><time>2026-04-12T09:16:51Z</time></trkpt><trkpt lat="-30.394308216415517" lon="115.21456610335838"><ele>65.0</ele><time>2026-04-12T09:16:52Z</time></trkpt><trkpt lat="-30.394308538680168" lon="115.21424833954353"><ele>65.0</ele><time>2026-04-12T09:16:53Z</time></trkpt><trkpt lat="-30.394308953014203" lon="115.21393205348254"><ele>65.0</ele><time>2026-04-12T09:16:54Z</time></trkpt><trkpt lat="-30.394309617448894" lon="115.21361291466872"><ele>65.0</ele><time>2026-04-12T09:16:55Z</time></trkpt><trkpt lat="-30.39430947948499" lon="115.21329612489598"><ele>65.0</ele><time>2026-04-12T09:16:56Z</time></trkpt><trkpt lat="-30.39430692328906" lon="115.21297757510501"><ele>66.0</ele><time>2026-04-12T09:16:57Z</time></trkpt><trkpt lat="-30.394301586166574" lon="115.21265852837887"><ele>67.0</ele><time>2026-04-12T09:16:58Z</time></trkpt><trkpt lat="-30.394299146717263" lon="115.21233959761426"><ele>64.5</ele><time>2026-04-12T09:16:59Z</time></trkpt><trkpt lat="-30.394298884427204" lon="115.21202101793895"><ele>62.0</ele><time>2026-04-12T09:17:00Z</time></trkpt><trkpt lat="-30.39430012105846" lon="115.21170222232132"><ele>62.5</ele><time>2026-04-12T09:17:01Z</time></trkpt><trkpt lat="-30.39430128440994" lon="115.21138395454398"><ele>63.0</ele><time>2026-04-12T09:17:02Z</time></trkpt><trkpt lat="-30.394302489542415" lon="115.21106678210323"><ele>63.0</ele><time>2026-04-12T09:17:03Z</time></trkpt><trkpt lat="-30.394306010580493" lon="115.21074735860246"><ele>63.0</ele><time>2026-04-12T09:17:04Z</time></trkpt><trkpt lat="-30.394309363312907" lon="115.21042870842584"><ele>63.0</ele><time>2026-04-12T09:17:05Z</time></trkpt><trkpt lat="-30.394310946140937" lon="115.21010684547379"><ele>63.0</ele><time>2026-04-12T09:17:06Z</time></trkpt><trkpt lat="-30.394311529856882" lon="115.2097796939933"><ele>60.5</ele><time>2026-04-12T09:17:07Z</time></trkpt><trkpt lat="-30.394311339647768" lon="115.20945067870554"><ele>58.0</ele><time>2026-04-12T09:17:08Z</time></trkpt><trkpt lat="-30.394314478953994" lon="115.20912438625727"><ele>58.5</ele><time>2026-04-12T09:17:09Z</time></trkpt><trkpt lat="-30.39431666664193" lon="115.20879425839424"><ele>59.0</ele><time>2026-04-12T09:17:10Z</time></trkpt><trkpt lat="-30.39431668746069" lon="115.20845711322501"><ele>60.5</ele><time>2026-04-12T09:17:11Z</time></trkpt><trkpt lat="-30.394316385107864" lon="115.20811463572576"><ele>62.0</ele><time>2026-04-12T09:17:12Z</time></trkpt><trkpt lat="-30.394316533994022" lon="115.20777438224624"><ele>62.0</ele><time>2026-04-12T09:17:13Z</time></trkpt><trkpt lat="-30.394313598476995" lon="115.20743548455954"><ele>62.0</ele><time>2026-04-12T09:17:14Z</time></trkpt><trkpt lat="-30.394311951086284" lon="115.20709941155053"><ele>61.5</ele><time>2026-04-12T09:17:15Z</time></trkpt><trkpt lat="-30.39431154454384" lon="115.20676630271652"><ele>61.0</ele><time>2026-04-12T09:17:16Z</time></trkpt><trkpt lat="-30.394312396398288" lon="115.20643310746473"><ele>59.5</ele><time>2026-04-12T09:17:17Z</time></trkpt><trkpt lat="-30.39431389026734" lon="115.20610606377105"><ele>58.0</ele><time>2026-04-12T09:17:18Z</time></trkpt><trkpt lat="-30.394314437758712" lon="115.2057790840677"><ele>59.5</ele><time>2026-04-12T09:17:19Z</time></trkpt><trkpt lat="-30.394317100478432" lon="115.20545420925119"><ele>61.0</ele><time>2026-04-12T09:17:20Z</time></trkpt><trkpt lat="-30.394320008394008" lon="115.20512678514582"><ele>63.0</ele><time>2026-04-12T09:17:21Z</time></trkpt><trkpt lat="-30.39432257682555" lon="115.20480532895569"><ele>65.0</ele><time>2026-04-12T09:17:22Z</time></trkpt><trkpt lat="-30.394323035041168" lon="115.20448370495485"><ele>65.0</ele><time>2026-04-12T09:17:23Z</time></trkpt><trkpt lat="-30.394323255478664" lon="115.20416500543105"><ele>65.0</ele><time>2026-04-12T09:17:24Z</time></trkpt><trkpt lat="-30.394324933407773" lon="115.20384802923861"><ele>65.0</ele><time>2026-04-12T09:17:25Z</time></trkpt><trkpt lat="-30.394325737390357" lon="115.20353054469255"><ele>65.0</ele><time>2026-04-12T09:17:26Z</time></trkpt><trkpt lat="-30.394327387571543" lon="115.20321692327816"><ele>62.5</ele><time>2026-04-12T09:17:27Z</time></trkpt><trkpt lat="-30.394328420941157" lon="115.20290167877533"><ele>60.0</ele><time>2026-04-12T09:17:28Z</time></trkpt><trkpt lat="-30.39432922132373" lon="115.20258370333069"><ele>60.0</ele><time>2026-04-12T09:17:29Z</time></trkpt><trkpt lat="-30.39432776513845" lon="115.20226384555744"><ele>60.0</ele><time>2026-04-12T09:17:30Z</time></trkpt><trkpt lat="-30.394326660514032" lon="115.2019432064818"><ele>60.0</ele><time>2026-04-12T09:17:31Z</time></trkpt><trkpt lat="-30.39432794703939" lon="115.20161958676636"><ele>60.0</ele><time>2026-04-12T09:17:32Z</time></trkpt><trkpt lat="-30.394329622587577" lon="115.20129318249303"><ele>59.5</ele><time>2026-04-12T09:17:33Z</time></trkpt><trkpt lat="-30.39433095182067" lon="115.20095943186614"><ele>59.0</ele><time>2026-04-12T09:17:34Z</time></trkpt><trkpt lat="-30.39433083931215" lon="115.2006137396539"><ele>59.0</ele><time>2026-04-12T09:17:35Z</time></trkpt><trkpt lat="-30.394329824719073" lon="115.20027183865295"><ele>59.0</ele><time>2026-04-12T09:17:36Z</time></trkpt><trkpt lat="-30.394331152228155" lon="115.19993993870293"><ele>60.0</ele><time>2026-04-12T09:17:37Z</time></trkpt><trkpt lat="-30.3943321186887" lon="115.19962988915013"><ele>61.0</ele><time>2026-04-12T09:17:38Z</time></trkpt><trkpt lat="-30.394335533517967" lon="115.199348029075"><ele>61.0</ele><time>2026-04-12T09:17:39Z</time></trkpt><trkpt lat="-30.39433789694166" lon="115.19908529968616"><ele>61.0</ele><time>2026-04-12T09:17:40Z</time></trkpt><trkpt lat="-30.394338805206317" lon="115.19883707411893"><ele>61.0</ele><time>2026-04-12T09:17:41Z</time></trkpt><trkpt lat="-30.394336566467953" lon="115.19859237834395"><ele>63.0</ele><time>2026-04-12T09:17:42Z</time></trkpt><trkpt lat="-30.394318761070412" lon="115.19833281783173"><ele>65.0</ele><time>2026-04-12T09:17:43Z</time></trkpt><trkpt lat="-30.39428087542649" lon="115.19806097413534"><ele>66.5</ele><time>2026-04-12T09:17:44Z</time></trkpt><trkpt lat="-30.394224009913085" lon="115.19779171128513"><ele>68.0</ele><time>2026-04-12T09:17:45Z</time></trkpt><trkpt lat="-30.394139500153003" lon="115.19753882372714"><ele>67.0</ele><time>2026-04-12T09:17:46Z</time></trkpt><trkpt lat="-30.394032087272805" lon="115.1972906894835"><ele>66.0</ele><time>2026-04-12T09:17:47Z</time></trkpt><trkpt lat="-30.393909871424693" lon="115.19704617044177"><ele>65.0</ele><time>2026-04-12T09:17:48Z</time></trkpt><trkpt lat="-30.393777977740356" lon="115.19679524065778"><ele>64.0</ele><time>2026-04-12T09:17:49Z</time></trkpt><trkpt lat="-30.393627652030297" lon="115.19655764022238"><ele>68.5</ele><time>2026-04-12T09:17:50Z</time></trkpt><trkpt lat="-30.393459446335818" lon="115.19634231573758"><ele>73.0</ele><time>2026-04-12T09:17:51Z</time></trkpt><trkpt lat="-30.393273655264373" lon="115.19614894538049"><ele>73.0</ele><time>2026-04-12T09:17:52Z</time></trkpt><trkpt lat="-30.393071017949726" lon="115.19597532197506"><ele>73.0</ele><time>2026-04-12T09:17:53Z</time></trkpt><trkpt lat="-30.392855063243537" lon="115.19581428308435"><ele>78.5</ele><time>2026-04-12T09:17:54Z</time></trkpt><trkpt lat="-30.392634892745555" lon="115.19565942057066"><ele>84.0</ele><time>2026-04-12T09:17:55Z</time></trkpt><trkpt lat="-30.39243084505753" lon="115.19549516596896"><ele>84.0</ele><time>2026-04-12T09:17:56Z</time></trkpt><trkpt lat="-30.39224564907983" lon="115.19531600616016"><ele>84.0</ele><time>2026-04-12T09:17:57Z</time></trkpt><trkpt lat="-30.392075563681217" lon="115.19512279692336"><ele>82.0</ele><time>2026-04-12T09:17:58Z</time></trkpt><trkpt lat="-30.39191851749353" lon="115.19491242234115"><ele>80.0</ele><time>2026-04-12T09:17:59Z</time></trkpt><trkpt lat="-30.39177248754901" lon="115.19468545540423"><ele>84.5</ele><time>2026-04-12T09:18:00Z</time></trkpt><trkpt lat="-30.391639094812213" lon="115.19444285048102"><ele>89.0</ele><time>2026-04-12T09:18:01Z</time></trkpt><trkpt lat="-30.39150690960728" lon="115.19418873727703"><ele>89.0</ele><time>2026-04-12T09:18:02Z</time></trkpt><trkpt lat="-30.39137619653164" lon="115.19392595458143"><ele>89.0</ele><time>2026-04-12T09:18:03Z</time></trkpt><trkpt lat="-30.39124749330286" lon="115.19365776056382"><ele>89.0</ele><time>2026-04-12T09:18:04Z</time></trkpt><trkpt lat="-30.391125148487568" lon="115.19338253275686"><ele>89.0</ele><time>2026-04-12T09:18:05Z</time></trkpt><trkpt lat="-30.391010372237588" lon="115.1931014893632"><ele>92.0</ele><time>2026-04-12T09:18:06Z</time></trkpt><trkpt lat="-30.390905694437247" lon="115.19281529131209"><ele>95.0</ele><time>2026-04-12T09:18:07Z</time></trkpt><trkpt lat="-30.390808933166543" lon="115.19252479720505"><ele>99.5</ele><time>2026-04-12T09:18:08Z</time></trkpt><trkpt lat="-30.390716546534723" lon="115.19223418515506"><ele>104.0</ele><time>2026-04-12T09:18:09Z</time></trkpt><trkpt lat="-30.390633717647255" lon="115.19193869480512"><ele>104.0</ele><time>2026-04-12T09:18:10Z</time></trkpt><trkpt lat="-30.39056025215124" lon="115.19163551064717"><ele>104.0</ele><time>2026-04-12T09:18:11Z</time></trkpt><trkpt lat="-30.39049619207035" lon="115.19132643477492"><ele>108.0</ele><time>2026-04-12T09:18:12Z</time></trkpt><trkpt lat="-30.390441027389976" lon="115.19101433389189"><ele>112.0</ele><time>2026-04-12T09:18:13Z</time></trkpt><trkpt lat="-30.39039714567529" lon="115.19069935650728"><ele>113.0</ele><time>2026-04-12T09:18:14Z</time></trkpt><trkpt lat="-30.39036359549371" lon="115.19038536878372"><ele>114.0</ele><time>2026-04-12T09:18:15Z</time></trkpt><trkpt lat="-30.390340374105104" lon="115.19007295947871"><ele>117.0</ele><time>2026-04-12T09:18:16Z</time></trkpt><trkpt lat="-30.390322348739073" lon="115.1897569218722"><ele>120.0</ele><time>2026-04-12T09:18:17Z</time></trkpt><trkpt lat="-30.390311659829464" lon="115.18943930959988"><ele>120.0</ele><time>2026-04-12T09:18:18Z</time></trkpt><trkpt lat="-30.390310614925973" lon="115.1891215368474"><ele>120.0</ele><time>2026-04-12T09:18:19Z</time></trkpt><trkpt lat="-30.390316236355684" lon="115.18880185444925"><ele>124.0</ele><time>2026-04-12T09:18:20Z</time></trkpt><trkpt lat="-30.390325146974977" lon="115.18848234860947"><ele>128.0</ele><time>2026-04-12T09:18:21Z</time></trkpt><trkpt lat="-30.390335690729916" lon="115.18815585187946"><ele>129.5</ele><time>2026-04-12T09:18:22Z</time></trkpt><trkpt lat="-30.39034286224855" lon="115.18783328712492"><ele>131.0</ele><time>2026-04-12T09:18:23Z</time></trkpt><trkpt lat="-30.39034759973239" lon="115.18751134250357"><ele>132.0</ele><time>2026-04-12T09:18:24Z</time></trkpt><trkpt lat="-30.39034978066987" lon="115.18718834585465"><ele>133.0</ele><time>2026-04-12T09:18:25Z</time></trkpt><trkpt lat="-30.390349855022794" lon="115.18686776639645"><ele>133.0</ele><time>2026-04-12T09:18:26Z</time></trkpt><trkpt lat="-30.39034766951756" lon="115.1865434002306"><ele>133.0</ele><time>2026-04-12T09:18:27Z</time></trkpt><trkpt lat="-30.390347618115914" lon="115.18621146301824"><ele>133.0</ele><time>2026-04-12T09:18:28Z</time></trkpt><trkpt lat="-30.39035206171704" lon="115.18588294957219"><ele>133.0</ele><time>2026-04-12T09:18:29Z</time></trkpt><trkpt lat="-30.39037137047361" lon="115.18555371394935"><ele>134.0</ele><time>2026-04-12T09:18:30Z</time></trkpt><trkpt lat="-30.3904128997843" lon="115.18522420641605"><ele>135.0</ele><time>2026-04-12T09:18:31Z</time></trkpt><trkpt lat="-30.39047982616314" lon="115.18489170339016"><ele>135.0</ele><time>2026-04-12T09:18:32Z</time></trkpt><trkpt lat="-30.39056748022741" lon="115.18455805705163"><ele>135.0</ele><time>2026-04-12T09:18:33Z</time></trkpt><trkpt lat="-30.39066910074293" lon="115.18423528391973"><ele>134.5</ele><time>2026-04-12T09:18:34Z</time></trkpt><trkpt lat="-30.39078237609718" lon="115.1839230193199"><ele>134.0</ele><time>2026-04-12T09:18:35Z</time></trkpt><trkpt lat="-30.39091341540138" lon="115.18361583770313"><ele>134.0</ele><time>2026-04-12T09:18:36Z</time></trkpt><trkpt lat="-30.39105855491812" lon="115.18331535505956"><ele>134.0</ele><time>2026-04-12T09:18:37Z</time></trkpt><trkpt lat="-30.391213066788104" lon="115.18302094312286"><ele>132.5</ele><time>2026-04-12T09:18:38Z</time></trkpt><trkpt lat="-30.391366041803867" lon="115.18272842410049"><ele>131.0</ele><time>2026-04-12T09:18:39Z</time></trkpt><trkpt lat="-30.39151493158389" lon="115.18243756871613"><ele>130.0</ele><time>2026-04-12T09:18:40Z</time></trkpt><trkpt lat="-30.39166557585712" lon="115.18214281766296"><ele>129.0</ele><time>2026-04-12T09:18:41Z</time></trkpt><trkpt lat="-30.391813983571897" lon="115.18185262823798"><ele>129.0</ele><time>2026-04-12T09:18:42Z</time></trkpt><trkpt lat="-30.391959314364872" lon="115.18156036278813"><ele>129.0</ele><time>2026-04-12T09:18:43Z</time></trkpt><trkpt lat="-30.392104539932017" lon="115.1812691290825"><ele>126.0</ele><time>2026-04-12T09:18:44Z</time></trkpt><trkpt lat="-30.392249181507307" lon="115.1809787382066"><ele>123.0</ele><time>2026-04-12T09:18:45Z</time></trkpt><trkpt lat="-30.392392814852744" lon="115.18068840966339"><ele>121.5</ele><time>2026-04-12T09:18:46Z</time></trkpt><trkpt lat="-30.392534597247842" lon="115.18039708581934"><ele>120.0</ele><time>2026-04-12T09:18:47Z</time></trkpt><trkpt lat="-30.39267403305505" lon="115.18010591785742"><ele>123.0</ele><time>2026-04-12T09:18:48Z</time></trkpt><trkpt lat="-30.39281732398591" lon="115.17982090460563"><ele>126.0</ele><time>2026-04-12T09:18:49Z</time></trkpt><trkpt lat="-30.39296025395112" lon="115.17953637662517"><ele>123.5</ele><time>2026-04-12T09:18:50Z</time></trkpt><trkpt lat="-30.39310367813854" lon="115.17925488734123"><ele>121.0</ele><time>2026-04-12T09:18:51Z</time></trkpt><trkpt lat="-30.39324724132266" lon="115.17896899912785"><ele>121.0</ele><time>2026-04-12T09:18:52Z</time></trkpt><trkpt lat="-30.393391760997844" lon="115.17868006661314"><ele>121.0</ele><time>2026-04-12T09:18:53Z</time></trkpt><trkpt lat="-30.393533093752108" lon="115.1783898132029"><ele>121.5</ele><time>2026-04-12T09:18:54Z</time></trkpt><trkpt lat="-30.39367578338516" lon="115.17810198469626"><ele>122.0</ele><time>2026-04-12T09:18:55Z</time></trkpt><trkpt lat="-30.39381092777974" lon="115.17781550636792"><ele>120.5</ele><time>2026-04-12T09:18:56Z</time></trkpt><trkpt lat="-30.393938633459268" lon="115.1775211884481"><ele>119.0</ele><time>2026-04-12T09:18:57Z</time></trkpt><trkpt lat="-30.394055481443566" lon="115.1772246408436"><ele>117.5</ele><time>2026-04-12T09:18:58Z</time></trkpt><trkpt lat="-30.394165526205494" lon="115.17692930565583"><ele>116.0</ele><time>2026-04-12T09:18:59Z</time></trkpt><trkpt lat="-30.394273243332286" lon="115.1766341890719"><ele>114.5</ele><time>2026-04-12T09:19:00Z</time></trkpt><trkpt lat="-30.394380878523535" lon="115.17633779864904"><ele>113.0</ele><time>2026-04-12T09:19:01Z</time></trkpt><trkpt lat="-30.39449277839499" lon="115.17604138428895"><ele>113.0</ele><time>2026-04-12T09:19:02Z</time></trkpt><trkpt lat="-30.394607934970825" lon="115.17574930446924"><ele>113.0</ele><time>2026-04-12T09:19:03Z</time></trkpt><trkpt lat="-30.394835089387136" lon="115.17517100539354"><ele>114.0</ele><time>2026-04-12T09:19:05Z</time></trkpt><trkpt lat="-30.39494420122964" lon="115.17488753184922"><ele>115.0</ele><time>2026-04-12T09:19:06Z</time></trkpt><trkpt lat="-30.395049700514697" lon="115.17461496357714"><ele>115.0</ele><time>2026-04-12T09:19:07Z</time></trkpt><trkpt lat="-30.395154159685635" lon="115.17434325290984"><ele>115.0</ele><time>2026-04-12T09:19:08Z</time></trkpt><trkpt lat="-30.395253020071983" lon="115.1740715071981"><ele>117.0</ele><time>2026-04-12T09:19:09Z</time></trkpt><trkpt lat="-30.395350160592105" lon="115.17380044945907"><ele>119.0</ele><time>2026-04-12T09:19:10Z</time></trkpt><trkpt lat="-30.39544981087587" lon="115.17352642364429"><ele>116.0</ele><time>2026-04-12T09:19:11Z</time></trkpt><trkpt lat="-30.395549612427462" lon="115.17325725948292"><ele>113.0</ele><time>2026-04-12T09:19:12Z</time></trkpt><trkpt lat="-30.39564824858241" lon="115.1729834908149"><ele>111.0</ele><time>2026-04-12T09:19:13Z</time></trkpt><trkpt lat="-30.39575096201761" lon="115.17270791097661"><ele>109.0</ele><time>2026-04-12T09:19:14Z</time></trkpt><trkpt lat="-30.3958585932662" lon="115.17243368894256"><ele>105.0</ele><time>2026-04-12T09:19:15Z</time></trkpt><trkpt lat="-30.395961522865022" lon="115.17216153823485"><ele>101.0</ele><time>2026-04-12T09:19:16Z</time></trkpt><trkpt lat="-30.396062921610284" lon="115.17188793040928"><ele>101.0</ele><time>2026-04-12T09:19:17Z</time></trkpt><trkpt lat="-30.396165436028596" lon="115.17161418691946"><ele>101.0</ele><time>2026-04-12T09:19:18Z</time></trkpt><trkpt lat="-30.396269556835946" lon="115.17134626113136"><ele>100.0</ele><time>2026-04-12T09:19:19Z</time></trkpt><trkpt lat="-30.39636649734147" lon="115.1710896722175"><ele>99.0</ele><time>2026-04-12T09:19:20Z</time></trkpt><trkpt lat="-30.39645991496695" lon="115.17083115829101"><ele>97.0</ele><time>2026-04-12T09:19:21Z</time></trkpt><trkpt lat="-30.39655397679731" lon="115.17057153288424"><ele>95.0</ele><time>2026-04-12T09:19:22Z</time></trkpt><trkpt lat="-30.396651052597736" lon="115.17031200657102"><ele>95.0</ele><time>2026-04-12T09:19:23Z</time></trkpt><trkpt lat="-30.396750923944968" lon="115.17004990630932"><ele>95.0</ele><time>2026-04-12T09:19:24Z</time></trkpt><trkpt lat="-30.396852855083683" lon="115.16978110099188"><ele>91.5</ele><time>2026-04-12T09:19:25Z</time></trkpt><trkpt lat="-30.396956313084512" lon="115.1695107921035"><ele>88.0</ele><time>2026-04-12T09:19:26Z</time></trkpt><trkpt lat="-30.39706193244957" lon="115.16923389839337"><ele>85.5</ele><time>2026-04-12T09:19:27Z</time></trkpt><trkpt lat="-30.39716713663077" lon="115.16895463779338"><ele>83.0</ele><time>2026-04-12T09:19:28Z</time></trkpt><trkpt lat="-30.397272993578234" lon="115.16867239807199"><ele>83.0</ele><time>2026-04-12T09:19:29Z</time></trkpt><trkpt lat="-30.39737771530142" lon="115.16838420368863"><ele>83.0</ele><time>2026-04-12T09:19:30Z</time></trkpt><trkpt lat="-30.397486951780042" lon="115.16809145082736"><ele>79.5</ele><time>2026-04-12T09:19:31Z</time></trkpt><trkpt lat="-30.39759646750957" lon="115.16779629932478"><ele>76.0</ele><time>2026-04-12T09:19:32Z</time></trkpt><trkpt lat="-30.397705668615227" lon="115.16750878071952"><ele>78.0</ele><time>2026-04-12T09:19:33Z</time></trkpt><trkpt lat="-30.397814992734116" lon="115.16721712188091"><ele>80.0</ele><time>2026-04-12T09:19:34Z</time></trkpt><trkpt lat="-30.397927009117762" lon="115.16692091859338"><ele>79.0</ele><time>2026-04-12T09:19:35Z</time></trkpt><trkpt lat="-30.398042060396207" lon="115.1666185631197"><ele>78.0</ele><time>2026-04-12T09:19:36Z</time></trkpt><trkpt lat="-30.398150588632834" lon="115.16633152480586"><ele>74.5</ele><time>2026-04-12T09:19:37Z</time></trkpt><trkpt lat="-30.398257334293415" lon="115.16605028667313"><ele>71.0</ele><time>2026-04-12T09:19:38Z</time></trkpt><trkpt lat="-30.398362168329843" lon="115.16577051531175"><ele>69.5</ele><time>2026-04-12T09:19:39Z</time></trkpt><trkpt lat="-30.398466497266153" lon="115.16548907342742"><ele>68.0</ele><time>2026-04-12T09:19:40Z</time></trkpt><trkpt lat="-30.398569532031413" lon="115.16520842250958"><ele>68.0</ele><time>2026-04-12T09:19:41Z</time></trkpt><trkpt lat="-30.398673725837146" lon="115.16492706860477"><ele>68.0</ele><time>2026-04-12T09:19:42Z</time></trkpt><trkpt lat="-30.39877664227691" lon="115.16464998551105"><ele>66.0</ele><time>2026-04-12T09:19:43Z</time></trkpt><trkpt lat="-30.398881946833015" lon="115.16437158469701"><ele>64.0</ele><time>2026-04-12T09:19:44Z</time></trkpt><trkpt lat="-30.398987837195115" lon="115.1640918837064"><ele>63.5</ele><time>2026-04-12T09:19:45Z</time></trkpt><trkpt lat="-30.399094695261343" lon="115.16381439898429"><ele>63.0</ele><time>2026-04-12T09:19:46Z</time></trkpt><trkpt lat="-30.39920325567974" lon="115.16353023100588"><ele>63.0</ele><time>2026-04-12T09:19:47Z</time></trkpt><trkpt lat="-30.399314205840163" lon="115.16324176845738"><ele>63.0</ele><time>2026-04-12T09:19:48Z</time></trkpt><trkpt lat="-30.399423956570466" lon="115.16295025103189"><ele>63.5</ele><time>2026-04-12T09:19:49Z</time></trkpt><trkpt lat="-30.399532626019365" lon="115.16265493395973"><ele>64.0</ele><time>2026-04-12T09:19:50Z</time></trkpt><trkpt lat="-30.39964726966802" lon="115.16234941299209"><ele>61.0</ele><time>2026-04-12T09:19:51Z</time></trkpt><trkpt lat="-30.39976696987056" lon="115.16204130670917"><ele>58.0</ele><time>2026-04-12T09:19:52Z</time></trkpt><trkpt lat="-30.399889427399195" lon="115.16173808543704"><ele>57.5</ele><time>2026-04-12T09:19:53Z</time></trkpt><trkpt lat="-30.4000171033021" lon="115.16144015886472"><ele>57.0</ele><time>2026-04-12T09:19:54Z</time></trkpt><trkpt lat="-30.40015527127278" lon="115.16115208252054"><ele>57.0</ele><time>2026-04-12T09:19:55Z</time></trkpt><trkpt lat="-30.400307077629343" lon="115.16088200623545"><ele>57.0</ele><time>2026-04-12T09:19:56Z</time></trkpt><trkpt lat="-30.40046536030663" lon="115.16062004027759"><ele>56.0</ele><time>2026-04-12T09:19:57Z</time></trkpt><trkpt lat="-30.40062739273609" lon="115.1603640300649"><ele>55.0</ele><time>2026-04-12T09:19:58Z</time></trkpt><trkpt lat="-30.400797352904025" lon="115.16011603066977"><ele>55.0</ele><time>2026-04-12T09:19:59Z</time></trkpt><trkpt lat="-30.40097576138439" lon="115.15987862469184"><ele>55.0</ele><time>2026-04-12T09:20:00Z</time></trkpt><trkpt lat="-30.40116356893783" lon="115.159648871171"><ele>53.0</ele><time>2026-04-12T09:20:01Z</time></trkpt><trkpt lat="-30.40135829266183" lon="115.15942634297728"><ele>51.0</ele><time>2026-04-12T09:20:02Z</time></trkpt><trkpt lat="-30.40155616221306" lon="115.15920854204148"><ele>48.5</ele><time>2026-04-12T09:20:03Z</time></trkpt><trkpt lat="-30.40175684041463" lon="115.1589970554897"><ele>46.0</ele><time>2026-04-12T09:20:04Z</time></trkpt><trkpt lat="-30.401959757448864" lon="115.15878514804868"><ele>46.0</ele><time>2026-04-12T09:20:05Z</time></trkpt><trkpt lat="-30.40215911113473" lon="115.15856665505275"><ele>46.0</ele><time>2026-04-12T09:20:06Z</time></trkpt><trkpt lat="-30.402359311337737" lon="115.15834501172979"><ele>43.5</ele><time>2026-04-12T09:20:07Z</time></trkpt><trkpt lat="-30.402559615715287" lon="115.15812509763306"><ele>41.0</ele><time>2026-04-12T09:20:08Z</time></trkpt><trkpt lat="-30.40275877469824" lon="115.15790503422633"><ele>41.0</ele><time>2026-04-12T09:20:09Z</time></trkpt><trkpt lat="-30.402959027960275" lon="115.15768322464073"><ele>41.0</ele><time>2026-04-12T09:20:10Z</time></trkpt><trkpt lat="-30.403161056772127" lon="115.15746009330199"><ele>39.0</ele><time>2026-04-12T09:20:11Z</time></trkpt><trkpt lat="-30.40336506807155" lon="115.15723697918526"><ele>37.0</ele><time>2026-04-12T09:20:12Z</time></trkpt><trkpt lat="-30.40356836491266" lon="115.15701382402284"><ele>37.0</ele><time>2026-04-12T09:20:13Z</time></trkpt><trkpt lat="-30.403769612235564" lon="115.15679414441075"><ele>37.0</ele><time>2026-04-12T09:20:14Z</time></trkpt><trkpt lat="-30.403969858405723" lon="115.1565744675703"><ele>38.5</ele><time>2026-04-12T09:20:15Z</time></trkpt><trkpt lat="-30.404168189491784" lon="115.15635211267517"><ele>40.0</ele><time>2026-04-12T09:20:16Z</time></trkpt><trkpt lat="-30.404365989437427" lon="115.15613062303488"><ele>40.0</ele><time>2026-04-12T09:20:17Z</time></trkpt><trkpt lat="-30.404563458307575" lon="115.15591006892919"><ele>40.0</ele><time>2026-04-12T09:20:18Z</time></trkpt><trkpt lat="-30.404762890193535" lon="115.15568928548647"><ele>37.5</ele><time>2026-04-12T09:20:19Z</time></trkpt><trkpt lat="-30.404964164902953" lon="115.15546845783409"><ele>35.0</ele><time>2026-04-12T09:20:20Z</time></trkpt><trkpt lat="-30.4051698555304" lon="115.15524483751695"><ele>35.0</ele><time>2026-04-12T09:20:21Z</time></trkpt><trkpt lat="-30.405375578927604" lon="115.15502106399998"><ele>35.0</ele><time>2026-04-12T09:20:22Z</time></trkpt><trkpt lat="-30.405580922179254" lon="115.15479716077073"><ele>35.0</ele><time>2026-04-12T09:20:23Z</time></trkpt><trkpt lat="-30.40578378373536" lon="115.15457229853445"><ele>35.0</ele><time>2026-04-12T09:20:24Z</time></trkpt><trkpt lat="-30.405983964555016" lon="115.15434852491249"><ele>35.0</ele><time>2026-04-12T09:20:25Z</time></trkpt><trkpt lat="-30.406182832601395" lon="115.15412829040275"><ele>35.0</ele><time>2026-04-12T09:20:26Z</time></trkpt><trkpt lat="-30.40638194955843" lon="115.15390881338128"><ele>34.5</ele><time>2026-04-12T09:20:27Z</time></trkpt><trkpt lat="-30.406580863444173" lon="115.15368890598033"><ele>34.0</ele><time>2026-04-12T09:20:28Z</time></trkpt><trkpt lat="-30.40678131771534" lon="115.15346790148436"><ele>34.0</ele><time>2026-04-12T09:20:29Z</time></trkpt><trkpt lat="-30.40698135451308" lon="115.15324647498826"><ele>34.0</ele><time>2026-04-12T09:20:30Z</time></trkpt><trkpt lat="-30.407181776078797" lon="115.15302767675415"><ele>36.5</ele><time>2026-04-12T09:20:31Z</time></trkpt><trkpt lat="-30.407382754300897" lon="115.15281165211731"><ele>39.0</ele><time>2026-04-12T09:20:32Z</time></trkpt><trkpt lat="-30.40758371704451" lon="115.15259322807952"><ele>38.0</ele><time>2026-04-12T09:20:33Z</time></trkpt><trkpt lat="-30.407785894885723" lon="115.15237175518517"><ele>37.0</ele><time>2026-04-12T09:20:34Z</time></trkpt><trkpt lat="-30.407988791363252" lon="115.1521499365892"><ele>36.0</ele><time>2026-04-12T09:20:35Z</time></trkpt><trkpt lat="-30.40819105069896" lon="115.15192561771951"><ele>35.0</ele><time>2026-04-12T09:20:36Z</time></trkpt><trkpt lat="-30.408395308025405" lon="115.15170062592041"><ele>35.0</ele><time>2026-04-12T09:20:37Z</time></trkpt><trkpt lat="-30.408600031708783" lon="115.15147430376001"><ele>35.0</ele><time>2026-04-12T09:20:38Z</time></trkpt><trkpt lat="-30.408804159558482" lon="115.15124614522632"><ele>35.0</ele><time>2026-04-12T09:20:39Z</time></trkpt><trkpt lat="-30.4090112623068" lon="115.15101863101756"><ele>35.0</ele><time>2026-04-12T09:20:40Z</time></trkpt><trkpt lat="-30.409217849998825" lon="115.15079188911797"><ele>35.0</ele><time>2026-04-12T09:20:41Z</time></trkpt><trkpt lat="-30.409427468996885" lon="115.15056219428533"><ele>35.0</ele><time>2026-04-12T09:20:42Z</time></trkpt><trkpt lat="-30.409634244881453" lon="115.15033411604713"><ele>36.0</ele><time>2026-04-12T09:20:43Z</time></trkpt><trkpt lat="-30.409843380658977" lon="115.1501047331076"><ele>37.0</ele><time>2026-04-12T09:20:44Z</time></trkpt><trkpt lat="-30.410052115633817" lon="115.14987570094884"><ele>33.5</ele><time>2026-04-12T09:20:45Z</time></trkpt><trkpt lat="-30.410261287225747" lon="115.14964580393044"><ele>30.0</ele><time>2026-04-12T09:20:46Z</time></trkpt><trkpt lat="-30.410472302677857" lon="115.1494150089847"><ele>28.0</ele><time>2026-04-12T09:20:47Z</time></trkpt><trkpt lat="-30.41068388510503" lon="115.14918596323182"><ele>26.0</ele><time>2026-04-12T09:20:48Z</time></trkpt><trkpt lat="-30.410895570992004" lon="115.14895580773876"><ele>26.0</ele><time>2026-04-12T09:20:49Z</time></trkpt><trkpt lat="-30.411107590046225" lon="115.14872511767491"><ele>26.0</ele><time>2026-04-12T09:20:50Z</time></trkpt><trkpt lat="-30.411318935041066" lon="115.14849161506757"><ele>26.0</ele><time>2026-04-12T09:20:51Z</time></trkpt><trkpt lat="-30.41152649156745" lon="115.14826108670671"><ele>26.0</ele><time>2026-04-12T09:20:52Z</time></trkpt><trkpt lat="-30.41172974780558" lon="115.14802939431475"><ele>28.5</ele><time>2026-04-12T09:20:53Z</time></trkpt><trkpt lat="-30.411933531151117" lon="115.14779964833043"><ele>31.0</ele><time>2026-04-12T09:20:54Z</time></trkpt><trkpt lat="-30.412139253563915" lon="115.14757484110689"><ele>30.5</ele><time>2026-04-12T09:20:55Z</time></trkpt><trkpt lat="-30.412343805117438" lon="115.14735472555631"><ele>30.0</ele><time>2026-04-12T09:20:56Z</time></trkpt><trkpt lat="-30.41255127173972" lon="115.14712902712279"><ele>30.0</ele><time>2026-04-12T09:20:57Z</time></trkpt><trkpt lat="-30.412760069431076" lon="115.14690067970962"><ele>30.0</ele><time>2026-04-12T09:20:58Z</time></trkpt><trkpt lat="-30.412971461491765" lon="115.14666997539882"><ele>28.5</ele><time>2026-04-12T09:20:59Z</time></trkpt><trkpt lat="-30.413180043339143" lon="115.14643731260122"><ele>27.0</ele><time>2026-04-12T09:21:00Z</time></trkpt><trkpt lat="-30.413388626718845" lon="115.14620439179996"><ele>27.0</ele><time>2026-04-12T09:21:01Z</time></trkpt><trkpt lat="-30.41359932364532" lon="115.14597070265748"><ele>27.0</ele><time>2026-04-12T09:21:02Z</time></trkpt><trkpt lat="-30.413810797471957" lon="115.14573589042045"><ele>27.0</ele><time>2026-04-12T09:21:03Z</time></trkpt><trkpt lat="-30.414024222843324" lon="115.14549882347207"><ele>27.0</ele><time>2026-04-12T09:21:04Z</time></trkpt><trkpt lat="-30.414240535795862" lon="115.14525927906669"><ele>27.0</ele><time>2026-04-12T09:21:05Z</time></trkpt><trkpt lat="-30.414459402119807" lon="115.14502046258112"><ele>27.0</ele><time>2026-04-12T09:21:06Z</time></trkpt><trkpt lat="-30.414680393082595" lon="115.14478107644858"><ele>25.5</ele><time>2026-04-12T09:21:07Z</time></trkpt><trkpt lat="-30.414900065927057" lon="115.14453977935841"><ele>24.0</ele><time>2026-04-12T09:21:08Z</time></trkpt><trkpt lat="-30.415118689954376" lon="115.1443002465486"><ele>24.0</ele><time>2026-04-12T09:21:09Z</time></trkpt><trkpt lat="-30.4153382116849" lon="115.14406111760135"><ele>24.0</ele><time>2026-04-12T09:21:10Z</time></trkpt><trkpt lat="-30.415557037345728" lon="115.1438205177826"><ele>27.0</ele><time>2026-04-12T09:21:11Z</time></trkpt><trkpt lat="-30.415775620062966" lon="115.1435782269433"><ele>30.0</ele><time>2026-04-12T09:21:12Z</time></trkpt><trkpt lat="-30.416000765582623" lon="115.14333035253378"><ele>27.0</ele><time>2026-04-12T09:21:13Z</time></trkpt><trkpt lat="-30.41622994268289" lon="115.14307754355443"><ele>24.0</ele><time>2026-04-12T09:21:14Z</time></trkpt><trkpt lat="-30.416461361534783" lon="115.1428231390619"><ele>24.0</ele><time>2026-04-12T09:21:15Z</time></trkpt><trkpt lat="-30.41669008626576" lon="115.14257127432872"><ele>24.0</ele><time>2026-04-12T09:21:16Z</time></trkpt><trkpt lat="-30.416916133948135" lon="115.14231925218989"><ele>23.5</ele><time>2026-04-12T09:21:17Z</time></trkpt><trkpt lat="-30.41714334388344" lon="115.14206916953262"><ele>23.0</ele><time>2026-04-12T09:21:18Z</time></trkpt><trkpt lat="-30.41736884582197" lon="115.1418209807669"><ele>23.0</ele><time>2026-04-12T09:21:19Z</time></trkpt><trkpt lat="-30.417589372528756" lon="115.14157323083631"><ele>23.0</ele><time>2026-04-12T09:21:20Z</time></trkpt><trkpt lat="-30.417805788586946" lon="115.14132613047857"><ele>23.0</ele><time>2026-04-12T09:21:21Z</time></trkpt><trkpt lat="-30.41802096884206" lon="115.14108603755557"><ele>23.0</ele><time>2026-04-12T09:21:22Z</time></trkpt><trkpt lat="-30.418234676218695" lon="115.14085217649294"><ele>23.5</ele><time>2026-04-12T09:21:23Z</time></trkpt><trkpt lat="-30.418446901557413" lon="115.14062280542146"><ele>24.0</ele><time>2026-04-12T09:21:24Z</time></trkpt><trkpt lat="-30.41865936366155" lon="115.14040015049527"><ele>24.5</ele><time>2026-04-12T09:21:25Z</time></trkpt><trkpt lat="-30.41887469096729" lon="115.14018451128939"><ele>25.0</ele><time>2026-04-12T09:21:26Z</time></trkpt><trkpt lat="-30.419092755690684" lon="115.1399763484605"><ele>24.0</ele><time>2026-04-12T09:21:27Z</time></trkpt><trkpt lat="-30.419311313348306" lon="115.1397741138246"><ele>23.0</ele><time>2026-04-12T09:21:28Z</time></trkpt><trkpt lat="-30.419530126433628" lon="115.13957350168444"><ele>23.0</ele><time>2026-04-12T09:21:29Z</time></trkpt><trkpt lat="-30.41975199064832" lon="115.13936750968547"><ele>23.0</ele><time>2026-04-12T09:21:30Z</time></trkpt><trkpt lat="-30.419974452588836" lon="115.1391658810053"><ele>21.5</ele><time>2026-04-12T09:21:31Z</time></trkpt><trkpt lat="-30.42019959458237" lon="115.13897526713978"><ele>20.0</ele><time>2026-04-12T09:21:32Z</time></trkpt><trkpt lat="-30.420429176468957" lon="115.13879463603155"><ele>19.5</ele><time>2026-04-12T09:21:33Z</time></trkpt><trkpt lat="-30.420665445846968" lon="115.1386313783414"><ele>19.0</ele><time>2026-04-12T09:21:34Z</time></trkpt><trkpt lat="-30.42090468380199" lon="115.13847931662947"><ele>19.0</ele><time>2026-04-12T09:21:35Z</time></trkpt><trkpt lat="-30.42114333882942" lon="115.1383290658531"><ele>19.0</ele><time>2026-04-12T09:21:36Z</time></trkpt><trkpt lat="-30.421383323375913" lon="115.13818217840864"><ele>20.5</ele><time>2026-04-12T09:21:37Z</time></trkpt><trkpt lat="-30.421628876359392" lon="115.13803818142463"><ele>22.0</ele><time>2026-04-12T09:21:38Z</time></trkpt><trkpt lat="-30.42188428731543" lon="115.13789392882049"><ele>22.0</ele><time>2026-04-12T09:21:39Z</time></trkpt><trkpt lat="-30.42214519526412" lon="115.13775750700253"><ele>22.0</ele><time>2026-04-12T09:21:40Z</time></trkpt><trkpt lat="-30.422410376179293" lon="115.13763119907787"><ele>20.0</ele><time>2026-04-12T09:21:41Z</time></trkpt><trkpt lat="-30.4226766186364" lon="115.13751634299368"><ele>18.0</ele><time>2026-04-12T09:21:42Z</time></trkpt><trkpt lat="-30.422941650521487" lon="115.13740382854543"><ele>18.0</ele><time>2026-04-12T09:21:43Z</time></trkpt><trkpt lat="-30.423204699693407" lon="115.13728897288016"><ele>18.0</ele><time>2026-04-12T09:21:44Z</time></trkpt><trkpt lat="-30.423465447032026" lon="115.13717332813471"><ele>18.0</ele><time>2026-04-12T09:21:45Z</time></trkpt><trkpt lat="-30.42372407024492" lon="115.13705780164742"><ele>18.0</ele><time>2026-04-12T09:21:46Z</time></trkpt><trkpt lat="-30.42398287869591" lon="115.13694144095184"><ele>19.0</ele><time>2026-04-12T09:21:47Z</time></trkpt><trkpt lat="-30.424243237382434" lon="115.13682546522956"><ele>20.0</ele><time>2026-04-12T09:21:48Z</time></trkpt><trkpt lat="-30.424503289439123" lon="115.13670998906379"><ele>20.5</ele><time>2026-04-12T09:21:49Z</time></trkpt><trkpt lat="-30.424759790239634" lon="115.13659325843274"><ele>21.0</ele><time>2026-04-12T09:21:50Z</time></trkpt><trkpt lat="-30.425011509332755" lon="115.13647439707957"><ele>21.5</ele><time>2026-04-12T09:21:51Z</time></trkpt><trkpt lat="-30.425259958268768" lon="115.13635863319647"><ele>22.0</ele><time>2026-04-12T09:21:52Z</time></trkpt><trkpt lat="-30.425507807031387" lon="115.136245364255"><ele>22.0</ele><time>2026-04-12T09:21:53Z</time></trkpt><trkpt lat="-30.425753402982444" lon="115.13613524275273"><ele>22.0</ele><time>2026-04-12T09:21:54Z</time></trkpt><trkpt lat="-30.426000821585422" lon="115.13602226024699"><ele>22.0</ele><time>2026-04-12T09:21:55Z</time></trkpt><trkpt lat="-30.426246898754165" lon="115.13590535334431"><ele>22.0</ele><time>2026-04-12T09:21:56Z</time></trkpt><trkpt lat="-30.426486064151256" lon="115.13577238289135"><ele>24.0</ele><time>2026-04-12T09:21:57Z</time></trkpt><trkpt lat="-30.426710998138343" lon="115.1356144477477"><ele>26.0</ele><time>2026-04-12T09:21:58Z</time></trkpt><trkpt lat="-30.42692806738252" lon="115.13543059686899"><ele>26.0</ele><time>2026-04-12T09:21:59Z</time></trkpt><trkpt lat="-30.42713664937357" lon="115.1352311298888"><ele>26.0</ele><time>2026-04-12T09:22:00Z</time></trkpt><trkpt lat="-30.42734228592321" lon="115.1350242772855"><ele>26.0</ele><time>2026-04-12T09:22:01Z</time></trkpt><trkpt lat="-30.427543513127805" lon="115.13481079708448"><ele>26.0</ele><time>2026-04-12T09:22:02Z</time></trkpt><trkpt lat="-30.42773625259221" lon="115.13458892812638"><ele>26.0</ele><time>2026-04-12T09:22:03Z</time></trkpt><trkpt lat="-30.427924385686573" lon="115.1343601530247"><ele>26.0</ele><time>2026-04-12T09:22:04Z</time></trkpt><trkpt lat="-30.428111021303636" lon="115.13412388664801"><ele>27.0</ele><time>2026-04-12T09:22:05Z</time></trkpt><trkpt lat="-30.428288767141453" lon="115.13388335641314"><ele>28.0</ele><time>2026-04-12T09:22:06Z</time></trkpt><trkpt lat="-30.428460858658845" lon="115.13364284024941"><ele>28.0</ele><time>2026-04-12T09:22:07Z</time></trkpt><trkpt lat="-30.42862865297814" lon="115.1334014656818"><ele>28.0</ele><time>2026-04-12T09:22:08Z</time></trkpt><trkpt lat="-30.42879585885917" lon="115.13315896336802"><ele>28.5</ele><time>2026-04-12T09:22:09Z</time></trkpt><trkpt lat="-30.428963359385943" lon="115.13292007138669"><ele>29.0</ele><time>2026-04-12T09:22:10Z</time></trkpt><trkpt lat="-30.429133795478375" lon="115.1326830968787"><ele>29.0</ele><time>2026-04-12T09:22:11Z</time></trkpt><trkpt lat="-30.429301334636946" lon="115.13244787274043"><ele>29.0</ele><time>2026-04-12T09:22:12Z</time></trkpt><trkpt lat="-30.429467514639867" lon="115.13220929752951"><ele>28.0</ele><time>2026-04-12T09:22:13Z</time></trkpt><trkpt lat="-30.4296349836479" lon="115.13197253609353"><ele>27.0</ele><time>2026-04-12T09:22:14Z</time></trkpt><trkpt lat="-30.429802266534402" lon="115.13173524964647"><ele>27.0</ele><time>2026-04-12T09:22:15Z</time></trkpt><trkpt lat="-30.429968832171113" lon="115.13149985989847"><ele>27.0</ele><time>2026-04-12T09:22:16Z</time></trkpt><trkpt lat="-30.43013681444806" lon="115.13126033615822"><ele>27.0</ele><time>2026-04-12T09:22:17Z</time></trkpt><trkpt lat="-30.430304704134983" lon="115.13102016905152"><ele>27.0</ele><time>2026-04-12T09:22:18Z</time></trkpt><trkpt lat="-30.430475200458638" lon="115.1307782648304"><ele>26.5</ele><time>2026-04-12T09:22:19Z</time></trkpt><trkpt lat="-30.430647317211402" lon="115.13053275664768"><ele>26.0</ele><time>2026-04-12T09:22:20Z</time></trkpt><trkpt lat="-30.430822949534544" lon="115.13028491904103"><ele>26.0</ele><time>2026-04-12T09:22:21Z</time></trkpt><trkpt lat="-30.431002351459142" lon="115.13003193710203"><ele>26.0</ele><time>2026-04-12T09:22:22Z</time></trkpt><trkpt lat="-30.431182118782083" lon="115.12977604349439"><ele>29.5</ele><time>2026-04-12T09:22:23Z</time></trkpt><trkpt lat="-30.43135936851165" lon="115.12952134298797"><ele>33.0</ele><time>2026-04-12T09:22:24Z</time></trkpt><trkpt lat="-30.431534923252983" lon="115.12927116351851"><ele>32.0</ele><time>2026-04-12T09:22:25Z</time></trkpt><trkpt lat="-30.43170958172268" lon="115.12902796167168"><ele>31.0</ele><time>2026-04-12T09:22:26Z</time></trkpt><trkpt lat="-30.43188253468937" lon="115.12878664400644"><ele>31.0</ele><time>2026-04-12T09:22:27Z</time></trkpt><trkpt lat="-30.43205401444093" lon="115.12854563480816"><ele>31.0</ele><time>2026-04-12T09:22:28Z</time></trkpt><trkpt lat="-30.432227245638543" lon="115.12830385590436"><ele>32.0</ele><time>2026-04-12T09:22:29Z</time></trkpt><trkpt lat="-30.43239897677945" lon="115.12806183869296"><ele>33.0</ele><time>2026-04-12T09:22:30Z</time></trkpt><trkpt lat="-30.432569717579486" lon="115.12782285573216"><ele>33.0</ele><time>2026-04-12T09:22:31Z</time></trkpt><trkpt lat="-30.432742969187217" lon="115.12758015338363"><ele>33.0</ele><time>2026-04-12T09:22:32Z</time></trkpt><trkpt lat="-30.432917997874068" lon="115.12733649276319"><ele>32.0</ele><time>2026-04-12T09:22:33Z</time></trkpt><trkpt lat="-30.433094668132" lon="115.12709152167477"><ele>31.0</ele><time>2026-04-12T09:22:34Z</time></trkpt><trkpt lat="-30.433270869219726" lon="115.1268437810681"><ele>31.0</ele><time>2026-04-12T09:22:35Z</time></trkpt><trkpt lat="-30.43344689375157" lon="115.12659839490736"><ele>31.0</ele><time>2026-04-12T09:22:36Z</time></trkpt><trkpt lat="-30.43362280745796" lon="115.1263553638874"><ele>31.0</ele><time>2026-04-12T09:22:37Z</time></trkpt><trkpt lat="-30.433800063325336" lon="115.12611242002492"><ele>31.0</ele><time>2026-04-12T09:22:38Z</time></trkpt><trkpt lat="-30.433974300909235" lon="115.12586638435778"><ele>32.5</ele><time>2026-04-12T09:22:39Z</time></trkpt><trkpt lat="-30.434149452637378" lon="115.12561927317766"><ele>34.0</ele><time>2026-04-12T09:22:40Z</time></trkpt><trkpt lat="-30.434327473177348" lon="115.12537076724686"><ele>34.0</ele><time>2026-04-12T09:22:41Z</time></trkpt><trkpt lat="-30.434508263250404" lon="115.12512155086773"><ele>34.0</ele><time>2026-04-12T09:22:42Z</time></trkpt><trkpt lat="-30.434690402283792" lon="115.1248721408075"><ele>36.0</ele><time>2026-04-12T09:22:43Z</time></trkpt><trkpt lat="-30.43486764623151" lon="115.12462807033036"><ele>38.0</ele><time>2026-04-12T09:22:44Z</time></trkpt><trkpt lat="-30.4350329666475" lon="115.12439331753727"><ele>38.0</ele><time>2026-04-12T09:22:45Z</time></trkpt><trkpt lat="-30.435198478736567" lon="115.12416175020263"><ele>38.0</ele><time>2026-04-12T09:22:46Z</time></trkpt><trkpt lat="-30.435367550548364" lon="115.12393466702409"><ele>40.0</ele><time>2026-04-12T09:22:47Z</time></trkpt><trkpt lat="-30.435547742360114" lon="115.12371597353264"><ele>42.0</ele><time>2026-04-12T09:22:48Z</time></trkpt><trkpt lat="-30.435745943329398" lon="115.12350931823917"><ele>42.0</ele><time>2026-04-12T09:22:49Z</time></trkpt><trkpt lat="-30.435958126003385" lon="115.12331214225742"><ele>42.0</ele><time>2026-04-12T09:22:50Z</time></trkpt><trkpt lat="-30.436179006671775" lon="115.12312072297819"><ele>44.0</ele><time>2026-04-12T09:22:51Z</time></trkpt><trkpt lat="-30.436405853788784" lon="115.12293523919676"><ele>46.0</ele><time>2026-04-12T09:22:52Z</time></trkpt><trkpt lat="-30.436636202706122" lon="115.12276209175708"><ele>46.0</ele><time>2026-04-12T09:22:53Z</time></trkpt><trkpt lat="-30.436876130125892" lon="115.12260629551658"><ele>46.0</ele><time>2026-04-12T09:22:54Z</time></trkpt><trkpt lat="-30.43712568977766" lon="115.12247011260622"><ele>50.0</ele><time>2026-04-12T09:22:55Z</time></trkpt><trkpt lat="-30.43738361293723" lon="115.12234678596181"><ele>54.0</ele><time>2026-04-12T09:22:56Z</time></trkpt><trkpt lat="-30.43764470499252" lon="115.12223256233425"><ele>54.0</ele><time>2026-04-12T09:22:57Z</time></trkpt><trkpt lat="-30.437903926607763" lon="115.12213028098853"><ele>54.0</ele><time>2026-04-12T09:22:58Z</time></trkpt><trkpt lat="-30.438163337705618" lon="115.1220337288632"><ele>53.0</ele><time>2026-04-12T09:22:59Z</time></trkpt><trkpt lat="-30.438421979479585" lon="115.12193986840738"><ele>52.0</ele><time>2026-04-12T09:23:00Z</time></trkpt><trkpt lat="-30.438684498561358" lon="115.12184354176115"><ele>51.0</ele><time>2026-04-12T09:23:01Z</time></trkpt><trkpt lat="-30.438954614644427" lon="115.12174588573166"><ele>50.0</ele><time>2026-04-12T09:23:02Z</time></trkpt><trkpt lat="-30.439225233528976" lon="115.12164331065482"><ele>50.0</ele><time>2026-04-12T09:23:03Z</time></trkpt><trkpt lat="-30.439494467370142" lon="115.12153814548459"><ele>50.0</ele><time>2026-04-12T09:23:04Z</time></trkpt><trkpt lat="-30.43976497633386" lon="115.12143483637213"><ele>50.0</ele><time>2026-04-12T09:23:05Z</time></trkpt><trkpt lat="-30.440034919705695" lon="115.12133523683504"><ele>50.0</ele><time>2026-04-12T09:23:06Z</time></trkpt><trkpt lat="-30.440303928011524" lon="115.12123637624298"><ele>49.5</ele><time>2026-04-12T09:23:07Z</time></trkpt><trkpt lat="-30.44056984325066" lon="115.12113549759127"><ele>49.0</ele><time>2026-04-12T09:23:08Z</time></trkpt><trkpt lat="-30.440840886559215" lon="115.12103464099044"><ele>49.0</ele><time>2026-04-12T09:23:09Z</time></trkpt><trkpt lat="-30.44111145737144" lon="115.12093449546899"><ele>49.0</ele><time>2026-04-12T09:23:10Z</time></trkpt><trkpt lat="-30.441383525840195" lon="115.12083585366473"><ele>47.0</ele><time>2026-04-12T09:23:11Z</time></trkpt><trkpt lat="-30.44165832468618" lon="115.1207337347201"><ele>45.0</ele><time>2026-04-12T09:23:12Z</time></trkpt><trkpt lat="-30.441929802099775" lon="115.12063121699374"><ele>43.5</ele><time>2026-04-12T09:23:13Z</time></trkpt><trkpt lat="-30.442207046708603" lon="115.12052825501397"><ele>42.0</ele><time>2026-04-12T09:23:14Z</time></trkpt><trkpt lat="-30.442479219076418" lon="115.12042775272566"><ele>42.0</ele><time>2026-04-12T09:23:15Z</time></trkpt><trkpt lat="-30.442753323581737" lon="115.12032558165254"><ele>42.0</ele><time>2026-04-12T09:23:16Z</time></trkpt><trkpt lat="-30.443025566110684" lon="115.12022453518126"><ele>41.5</ele><time>2026-04-12T09:23:16.999Z</time></trkpt><trkpt lat="-30.443298347040304" lon="115.12012319553126"><ele>41.0</ele><time>2026-04-12T09:23:17.999Z</time></trkpt><trkpt lat="-30.443572667565114" lon="115.12002050786606"><ele>40.5</ele><time>2026-04-12T09:23:18.999Z</time></trkpt><trkpt lat="-30.44383776727749" lon="115.11992071288047"><ele>40.0</ele><time>2026-04-12T09:23:19.999Z</time></trkpt><trkpt lat="-30.444103875738715" lon="115.11982176724571"><ele>38.0</ele><time>2026-04-12T09:23:20.999Z</time></trkpt><trkpt lat="-30.444366912759573" lon="115.11972453670475"><ele>36.0</ele><time>2026-04-12T09:23:21.999Z</time></trkpt><trkpt lat="-30.444628369302652" lon="115.11962566702665"><ele>35.0</ele><time>2026-04-12T09:23:23Z</time></trkpt><trkpt lat="-30.444892268948482" lon="115.11952519032052"><ele>34.0</ele><time>2026-04-12T09:23:24Z</time></trkpt><trkpt lat="-30.445157954222363" lon="115.11942372317252"><ele>34.0</ele><time>2026-04-12T09:23:25Z</time></trkpt><trkpt lat="-30.44542399500645" lon="115.11932518794673"><ele>34.0</ele><time>2026-04-12T09:23:26Z</time></trkpt><trkpt lat="-30.445691664616962" lon="115.11922651221231"><ele>34.5</ele><time>2026-04-12T09:23:27Z</time></trkpt><trkpt lat="-30.445959449306816" lon="115.11912843426131"><ele>35.0</ele><time>2026-04-12T09:23:28Z</time></trkpt><trkpt lat="-30.446226797246037" lon="115.1190292524474"><ele>32.5</ele><time>2026-04-12T09:23:29Z</time></trkpt><trkpt lat="-30.44649152264484" lon="115.11892946940605"><ele>30.0</ele><time>2026-04-12T09:23:30Z</time></trkpt><trkpt lat="-30.44675679983171" lon="115.1188276809759"><ele>30.0</ele><time>2026-04-12T09:23:31Z</time></trkpt><trkpt lat="-30.447021888957416" lon="115.11872583976016"><ele>30.0</ele><time>2026-04-12T09:23:32Z</time></trkpt><trkpt lat="-30.447287213716283" lon="115.11862435948603"><ele>28.5</ele><time>2026-04-12T09:23:33Z</time></trkpt><trkpt lat="-30.447559561020164" lon="115.1185214951751"><ele>27.0</ele><time>2026-04-12T09:23:34Z</time></trkpt><trkpt lat="-30.447834994046175" lon="115.11842012662528"><ele>27.0</ele><time>2026-04-12T09:23:35Z</time></trkpt><trkpt lat="-30.448110119542562" lon="115.11832124209295"><ele>27.0</ele><time>2026-04-12T09:23:36Z</time></trkpt><trkpt lat="-30.44838691136" lon="115.11822099792751"><ele>25.5</ele><time>2026-04-12T09:23:37Z</time></trkpt><trkpt lat="-30.44866240252535" lon="115.11811713060793"><ele>24.0</ele><time>2026-04-12T09:23:38Z</time></trkpt><trkpt lat="-30.448938181598635" lon="115.11801052945954"><ele>23.5</ele><time>2026-04-12T09:23:39Z</time></trkpt><trkpt lat="-30.44921883070272" lon="115.11790427744357"><ele>23.0</ele><time>2026-04-12T09:23:40Z</time></trkpt><trkpt lat="-30.449503820185374" lon="115.11779655531296"><ele>24.0</ele><time>2026-04-12T09:23:41Z</time></trkpt><trkpt lat="-30.44978646080038" lon="115.11769207906019"><ele>25.0</ele><time>2026-04-12T09:23:42Z</time></trkpt><trkpt lat="-30.4500634890809" lon="115.11759118471845"><ele>25.0</ele><time>2026-04-12T09:23:43Z</time></trkpt><trkpt lat="-30.4503360100883" lon="115.1174913457207"><ele>25.0</ele><time>2026-04-12T09:23:44Z</time></trkpt><trkpt lat="-30.45060545837054" lon="115.11739204386711"><ele>27.0</ele><time>2026-04-12T09:23:45Z</time></trkpt><trkpt lat="-30.450870395246373" lon="115.11729439932706"><ele>29.0</ele><time>2026-04-12T09:23:46Z</time></trkpt><trkpt lat="-30.451135550205183" lon="115.1171981457863"><ele>29.5</ele><time>2026-04-12T09:23:47Z</time></trkpt><trkpt lat="-30.451402521777787" lon="115.11710027654239"><ele>30.0</ele><time>2026-04-12T09:23:48Z</time></trkpt><trkpt lat="-30.451667478641518" lon="115.11700042048334"><ele>30.0</ele><time>2026-04-12T09:23:49Z</time></trkpt><trkpt lat="-30.451934641795933" lon="115.11689789413978"><ele>30.0</ele><time>2026-04-12T09:23:50Z</time></trkpt><trkpt lat="-30.45220783935312" lon="115.11679631292286"><ele>32.0</ele><time>2026-04-12T09:23:51Z</time></trkpt><trkpt lat="-30.452486794448735" lon="115.11669224053269"><ele>34.0</ele><time>2026-04-12T09:23:52Z</time></trkpt><trkpt lat="-30.452764870306115" lon="115.11659105583311"><ele>33.5</ele><time>2026-04-12T09:23:53Z</time></trkpt><trkpt lat="-30.453052457912257" lon="115.11648678598861"><ele>33.0</ele><time>2026-04-12T09:23:54Z</time></trkpt><trkpt lat="-30.453339689166256" lon="115.11637876716539"><ele>33.0</ele><time>2026-04-12T09:23:55Z</time></trkpt><trkpt lat="-30.453624190894374" lon="115.11626896055677"><ele>33.0</ele><time>2026-04-12T09:23:56Z</time></trkpt><trkpt lat="-30.453900537348737" lon="115.11616373014573"><ele>33.5</ele><time>2026-04-12T09:23:57Z</time></trkpt><trkpt lat="-30.454173009939264" lon="115.11606125619298"><ele>34.0</ele><time>2026-04-12T09:23:58Z</time></trkpt><trkpt lat="-30.45444355504422" lon="115.11596178479195"><ele>32.0</ele><time>2026-04-12T09:23:59Z</time></trkpt><trkpt lat="-30.454712152275597" lon="115.11586325264254"><ele>30.0</ele><time>2026-04-12T09:24:00Z</time></trkpt><trkpt lat="-30.454978165523976" lon="115.11576212278221"><ele>29.5</ele><time>2026-04-12T09:24:01Z</time></trkpt><trkpt lat="-30.455244935263813" lon="115.11566082966942"><ele>29.0</ele><time>2026-04-12T09:24:02Z</time></trkpt><trkpt lat="-30.455511298514306" lon="115.11556334567055"><ele>30.0</ele><time>2026-04-12T09:24:03Z</time></trkpt><trkpt lat="-30.45577825151459" lon="115.11546750214781"><ele>31.0</ele><time>2026-04-12T09:24:04Z</time></trkpt><trkpt lat="-30.456046221982515" lon="115.11537002301567"><ele>32.0</ele><time>2026-04-12T09:24:05Z</time></trkpt><trkpt lat="-30.456309817184735" lon="115.11526989763091"><ele>33.0</ele><time>2026-04-12T09:24:06Z</time></trkpt><trkpt lat="-30.45657155391583" lon="115.11516970870083"><ele>33.0</ele><time>2026-04-12T09:24:07Z</time></trkpt><trkpt lat="-30.456831965406277" lon="115.11507214889835"><ele>33.0</ele><time>2026-04-12T09:24:08Z</time></trkpt><trkpt lat="-30.457089683684654" lon="115.11497631270981"><ele>32.0</ele><time>2026-04-12T09:24:09Z</time></trkpt><trkpt lat="-30.45734509933458" lon="115.1148814129605"><ele>31.0</ele><time>2026-04-12T09:24:10Z</time></trkpt><trkpt lat="-30.457601890673374" lon="115.11478568380272"><ele>31.0</ele><time>2026-04-12T09:24:11Z</time></trkpt><trkpt lat="-30.45786007456112" lon="115.11468812707803"><ele>31.0</ele><time>2026-04-12T09:24:12Z</time></trkpt><trkpt lat="-30.45811777424047" lon="115.11459040761632"><ele>29.5</ele><time>2026-04-12T09:24:13Z</time></trkpt><trkpt lat="-30.458379624017834" lon="115.11448671133164"><ele>28.0</ele><time>2026-04-12T09:24:14Z</time></trkpt><trkpt lat="-30.458647362553396" lon="115.11438628785733"><ele>27.5</ele><time>2026-04-12T09:24:15Z</time></trkpt><trkpt lat="-30.458913161784217" lon="115.11429085178497"><ele>27.0</ele><time>2026-04-12T09:24:16Z</time></trkpt><trkpt lat="-30.459173700511176" lon="115.11419627221507"><ele>27.0</ele><time>2026-04-12T09:24:17Z</time></trkpt><trkpt lat="-30.459427433438016" lon="115.11410556245501"><ele>27.0</ele><time>2026-04-12T09:24:18Z</time></trkpt><trkpt lat="-30.45967987806992" lon="115.11400979684674"><ele>28.5</ele><time>2026-04-12T09:24:19Z</time></trkpt><trkpt lat="-30.45993457618317" lon="115.11391578494023"><ele>30.0</ele><time>2026-04-12T09:24:20Z</time></trkpt><trkpt lat="-30.460186643134797" lon="115.11381815645892"><ele>30.0</ele><time>2026-04-12T09:24:21Z</time></trkpt><trkpt lat="-30.46044223428147" lon="115.11371897715973"><ele>30.0</ele><time>2026-04-12T09:24:22Z</time></trkpt><trkpt lat="-30.46070452322178" lon="115.11362076251531"><ele>31.5</ele><time>2026-04-12T09:24:23Z</time></trkpt><trkpt lat="-30.46096706248602" lon="115.11352266079498"><ele>33.0</ele><time>2026-04-12T09:24:24Z</time></trkpt><trkpt lat="-30.461228684487995" lon="115.1134271271151"><ele>34.0</ele><time>2026-04-12T09:24:25Z</time></trkpt><trkpt lat="-30.461487017200017" lon="115.11333234090071"><ele>35.0</ele><time>2026-04-12T09:24:26Z</time></trkpt><trkpt lat="-30.46174630589226" lon="115.11323647920729"><ele>36.5</ele><time>2026-04-12T09:24:27Z</time></trkpt><trkpt lat="-30.462003137670635" lon="115.1131400989284"><ele>38.0</ele><time>2026-04-12T09:24:28Z</time></trkpt><trkpt lat="-30.462259422694" lon="115.11304420826536"><ele>38.0</ele><time>2026-04-12T09:24:29Z</time></trkpt><trkpt lat="-30.462515551148293" lon="115.11294774970288"><ele>38.0</ele><time>2026-04-12T09:24:30Z</time></trkpt><trkpt lat="-30.462771181595084" lon="115.11285188334551"><ele>38.5</ele><time>2026-04-12T09:24:31Z</time></trkpt><trkpt lat="-30.46302735296216" lon="115.11275532459118"><ele>39.0</ele><time>2026-04-12T09:24:32Z</time></trkpt><trkpt lat="-30.46328584414971" lon="115.11266025766658"><ele>39.0</ele><time>2026-04-12T09:24:33Z</time></trkpt><trkpt lat="-30.463547977464973" lon="115.11256400428633"><ele>39.0</ele><time>2026-04-12T09:24:34Z</time></trkpt><trkpt lat="-30.463811247926635" lon="115.1124677684527"><ele>40.5</ele><time>2026-04-12T09:24:35Z</time></trkpt><trkpt lat="-30.46407316353655" lon="115.11237285876356"><ele>42.0</ele><time>2026-04-12T09:24:36Z</time></trkpt><trkpt lat="-30.46433925706734" lon="115.1122733234951"><ele>42.0</ele><time>2026-04-12T09:24:37Z</time></trkpt><trkpt lat="-30.464609159086052" lon="115.11216899697737"><ele>42.0</ele><time>2026-04-12T09:24:38Z</time></trkpt><trkpt lat="-30.46487792825263" lon="115.11206108511665"><ele>38.5</ele><time>2026-04-12T09:24:39Z</time></trkpt><trkpt lat="-30.465146387467797" lon="115.11195113831143"><ele>35.0</ele><time>2026-04-12T09:24:40Z</time></trkpt><trkpt lat="-30.465406576207894" lon="115.11182902998888"><ele>36.5</ele><time>2026-04-12T09:24:41Z</time></trkpt><trkpt lat="-30.465656724953778" lon="115.11168607581973"><ele>38.0</ele><time>2026-04-12T09:24:42Z</time></trkpt><trkpt lat="-30.46590473711885" lon="115.11153024365203"><ele>40.5</ele><time>2026-04-12T09:24:43Z</time></trkpt><trkpt lat="-30.46615159879374" lon="115.11137409494015"><ele>43.0</ele><time>2026-04-12T09:24:44Z</time></trkpt><trkpt lat="-30.466392794802463" lon="115.11122120944202"><ele>43.0</ele><time>2026-04-12T09:24:45Z</time></trkpt><trkpt lat="-30.46662698007662" lon="115.11107549827629"><ele>43.0</ele><time>2026-04-12T09:24:46Z</time></trkpt><trkpt lat="-30.466861385188338" lon="115.11093413044729"><ele>43.0</ele><time>2026-04-12T09:24:47Z</time></trkpt><trkpt lat="-30.467094901843428" lon="115.1107958381926"><ele>43.0</ele><time>2026-04-12T09:24:48Z</time></trkpt><trkpt lat="-30.46732952834614" lon="115.11065706935074"><ele>43.5</ele><time>2026-04-12T09:24:49Z</time></trkpt><trkpt lat="-30.4675674296868" lon="115.11051494999965"><ele>44.0</ele><time>2026-04-12T09:24:50Z</time></trkpt><trkpt lat="-30.46780489771642" lon="115.11037297690343"><ele>44.0</ele><time>2026-04-12T09:24:51Z</time></trkpt><trkpt lat="-30.468046260463503" lon="115.1102277247236"><ele>44.0</ele><time>2026-04-12T09:24:52Z</time></trkpt><trkpt lat="-30.46828675056873" lon="115.1100835116118"><ele>44.0</ele><time>2026-04-12T09:24:53Z</time></trkpt><trkpt lat="-30.46852914861862" lon="115.10993855789735"><ele>44.0</ele><time>2026-04-12T09:24:54Z</time></trkpt><trkpt lat="-30.46877100248939" lon="115.10979280642799"><ele>47.0</ele><time>2026-04-12T09:24:55Z</time></trkpt><trkpt lat="-30.46901238596592" lon="115.10964360281127"><ele>50.0</ele><time>2026-04-12T09:24:56Z</time></trkpt><trkpt lat="-30.469251631884003" lon="115.10949478275438"><ele>50.0</ele><time>2026-04-12T09:24:57Z</time></trkpt><trkpt lat="-30.469488950449346" lon="115.1093455988817"><ele>50.0</ele><time>2026-04-12T09:24:58Z</time></trkpt><trkpt lat="-30.46972379177835" lon="115.1091954573296"><ele>47.0</ele><time>2026-04-12T09:24:59Z</time></trkpt><trkpt lat="-30.46995445502345" lon="115.10904746584423"><ele>44.0</ele><time>2026-04-12T09:25:00Z</time></trkpt><trkpt lat="-30.470185932970036" lon="115.10889789233828"><ele>44.0</ele><time>2026-04-12T09:25:01Z</time></trkpt><trkpt lat="-30.470421569787984" lon="115.1087480930384"><ele>44.0</ele><time>2026-04-12T09:25:02Z</time></trkpt><trkpt lat="-30.470662962729598" lon="115.10859811574338"><ele>45.0</ele><time>2026-04-12T09:25:03Z</time></trkpt><trkpt lat="-30.470908925489987" lon="115.10844896364894"><ele>46.0</ele><time>2026-04-12T09:25:04Z</time></trkpt><trkpt lat="-30.47115385259081" lon="115.10830199745267"><ele>43.5</ele><time>2026-04-12T09:25:05Z</time></trkpt><trkpt lat="-30.471399868825365" lon="115.10815315981787"><ele>41.0</ele><time>2026-04-12T09:25:06Z</time></trkpt><trkpt lat="-30.471645712733945" lon="115.10800473959225"><ele>41.0</ele><time>2026-04-12T09:25:07Z</time></trkpt><trkpt lat="-30.47189524680815" lon="115.10784777238656"><ele>41.0</ele><time>2026-04-12T09:25:08Z</time></trkpt><trkpt lat="-30.47215145819733" lon="115.10768345300754"><ele>41.5</ele><time>2026-04-12T09:25:09Z</time></trkpt><trkpt lat="-30.47240818561832" lon="115.10752076786919"><ele>42.0</ele><time>2026-04-12T09:25:09.999Z</time></trkpt><trkpt lat="-30.472664664644768" lon="115.10736140710351"><ele>42.0</ele><time>2026-04-12T09:25:10.999Z</time></trkpt><trkpt lat="-30.472921431683297" lon="115.10720227471181"><ele>42.0</ele><time>2026-04-12T09:25:11.999Z</time></trkpt><trkpt lat="-30.47317423842658" lon="115.1070450700143"><ele>39.5</ele><time>2026-04-12T09:25:12.999Z</time></trkpt><trkpt lat="-30.473422771314798" lon="115.10689127141572"><ele>37.0</ele><time>2026-04-12T09:25:13.999Z</time></trkpt><trkpt lat="-30.47366759003713" lon="115.10673570797461"><ele>37.5</ele><time>2026-04-12T09:25:14.999Z</time></trkpt><trkpt lat="-30.47391073170185" lon="115.10658168462814"><ele>38.0</ele><time>2026-04-12T09:25:15.999Z</time></trkpt><trkpt lat="-30.474151047490466" lon="115.10643116567672"><ele>36.5</ele><time>2026-04-12T09:25:16.999Z</time></trkpt><trkpt lat="-30.474392291281394" lon="115.10628037035619"><ele>35.0</ele><time>2026-04-12T09:25:17.999Z</time></trkpt><trkpt lat="-30.474633708349653" lon="115.10613099457701"><ele>30.0</ele><time>2026-04-12T09:25:18.999Z</time></trkpt><trkpt lat="-30.474875144591667" lon="115.1059831173584"><ele>25.0</ele><time>2026-04-12T09:25:19.999Z</time></trkpt><trkpt lat="-30.475118849767824" lon="115.10583258688622"><ele>23.0</ele><time>2026-04-12T09:25:20.999Z</time></trkpt><trkpt lat="-30.47536301735753" lon="115.10568112517974"><ele>21.0</ele><time>2026-04-12T09:25:21.999Z</time></trkpt><trkpt lat="-30.475603074327985" lon="115.10553041678983"><ele>21.0</ele><time>2026-04-12T09:25:22.999Z</time></trkpt><trkpt lat="-30.47584194600602" lon="115.10538207102122"><ele>21.0</ele><time>2026-04-12T09:25:23.999Z</time></trkpt><trkpt lat="-30.47607843951213" lon="115.10523397987676"><ele>21.0</ele><time>2026-04-12T09:25:24.999Z</time></trkpt><trkpt lat="-30.476314137863685" lon="115.10508537099712"><ele>21.0</ele><time>2026-04-12T09:25:25.999Z</time></trkpt><trkpt lat="-30.476551941221604" lon="115.10493401993199"><ele>20.0</ele><time>2026-04-12T09:25:26.999Z</time></trkpt><trkpt lat="-30.476791879010147" lon="115.10478380174119"><ele>19.0</ele><time>2026-04-12T09:25:27.999Z</time></trkpt><trkpt lat="-30.477032355535112" lon="115.10463437518669"><ele>17.0</ele><time>2026-04-12T09:25:29Z</time></trkpt><trkpt lat="-30.477271271530928" lon="115.10448396841794"><ele>15.0</ele><time>2026-04-12T09:25:30Z</time></trkpt><trkpt lat="-30.477511313323795" lon="115.10433483888816"><ele>15.0</ele><time>2026-04-12T09:25:31Z</time></trkpt><trkpt lat="-30.477749960656116" lon="115.10418683419933"><ele>15.0</ele><time>2026-04-12T09:25:32Z</time></trkpt><trkpt lat="-30.47799076964719" lon="115.10403840324724"><ele>11.0</ele><time>2026-04-12T09:25:33Z</time></trkpt><trkpt lat="-30.47823280024687" lon="115.10388907746946"><ele>7.0</ele><time>2026-04-12T09:25:34Z</time></trkpt><trkpt lat="-30.478471949916177" lon="115.10373811010984"><ele>7.0</ele><time>2026-04-12T09:25:35Z</time></trkpt><trkpt lat="-30.478709898896103" lon="115.10358618598049"><ele>7.0</ele><time>2026-04-12T09:25:36Z</time></trkpt><trkpt lat="-30.478948434482266" lon="115.10343490848861"><ele>7.0</ele><time>2026-04-12T09:25:37Z</time></trkpt><trkpt lat="-30.479181295235133" lon="115.10327424904808"><ele>7.0</ele><time>2026-04-12T09:25:38Z</time></trkpt><trkpt lat="-30.479405265374044" lon="115.10309651297166"><ele>7.5</ele><time>2026-04-12T09:25:39Z</time></trkpt><trkpt lat="-30.479621371982386" lon="115.10290055667716"><ele>8.0</ele><time>2026-04-12T09:25:40Z</time></trkpt><trkpt lat="-30.47983098982627" lon="115.10268458716303"><ele>8.0</ele><time>2026-04-12T09:25:41Z</time></trkpt><trkpt lat="-30.48003122108506" lon="115.10245838850783"><ele>8.0</ele><time>2026-04-12T09:25:42Z</time></trkpt><trkpt lat="-30.480228943678053" lon="115.10222749635965"><ele>7.5</ele><time>2026-04-12T09:25:43Z</time></trkpt><trkpt lat="-30.480423446479122" lon="115.10199465129283"><ele>7.0</ele><time>2026-04-12T09:25:44Z</time></trkpt><trkpt lat="-30.480615578822388" lon="115.10176336918778"><ele>7.0</ele><time>2026-04-12T09:25:45Z</time></trkpt><trkpt lat="-30.48080450864503" lon="115.10153365893322"><ele>7.0</ele><time>2026-04-12T09:25:46Z</time></trkpt><trkpt lat="-30.480991470603307" lon="115.10130708635153"><ele>7.0</ele><time>2026-04-12T09:25:47Z</time></trkpt><trkpt lat="-30.481177926322555" lon="115.1010830944576"><ele>7.0</ele><time>2026-04-12T09:25:48Z</time></trkpt><trkpt lat="-30.48136750892889" lon="115.1008579475184"><ele>6.5</ele><time>2026-04-12T09:25:49Z</time></trkpt><trkpt lat="-30.481556368314994" lon="115.10063346843431"><ele>6.0</ele><time>2026-04-12T09:25:50Z</time></trkpt><trkpt lat="-30.48174737782746" lon="115.10040582915805"><ele>6.0</ele><time>2026-04-12T09:25:51Z</time></trkpt><trkpt lat="-30.481940779873337" lon="115.10017321360765"><ele>6.0</ele><time>2026-04-12T09:25:52Z</time></trkpt><trkpt lat="-30.48213156866091" lon="115.0999403662209"><ele>4.5</ele><time>2026-04-12T09:25:53Z</time></trkpt><trkpt lat="-30.482323016415616" lon="115.09970767386788"><ele>3.0</ele><time>2026-04-12T09:25:54Z</time></trkpt><trkpt lat="-30.482516581287417" lon="115.09947331931096"><ele>3.0</ele><time>2026-04-12T09:25:55Z</time></trkpt><trkpt lat="-30.48270931577252" lon="115.09924106694372"><ele>3.0</ele><time>2026-04-12T09:25:56Z</time></trkpt><trkpt lat="-30.48290441767349" lon="115.09901229806253"><ele>4.5</ele><time>2026-04-12T09:25:57Z</time></trkpt><trkpt lat="-30.48309935542058" lon="115.09878210230738"><ele>6.0</ele><time>2026-04-12T09:25:58Z</time></trkpt><trkpt lat="-30.483291142520386" lon="115.09855043596342"><ele>6.0</ele><time>2026-04-12T09:25:59Z</time></trkpt><trkpt lat="-30.483484326850057" lon="115.09831824788644"><ele>6.0</ele><time>2026-04-12T09:26:00Z</time></trkpt><trkpt lat="-30.483676607290732" lon="115.09808875988638"><ele>7.5</ele><time>2026-04-12T09:26:01Z</time></trkpt><trkpt lat="-30.483872092672826" lon="115.09786216955484"><ele>9.0</ele><time>2026-04-12T09:26:02Z</time></trkpt><trkpt lat="-30.484064628950357" lon="115.09763688675064"><ele>8.0</ele><time>2026-04-12T09:26:03Z</time></trkpt><trkpt lat="-30.48425371939543" lon="115.09740981519143"><ele>7.0</ele><time>2026-04-12T09:26:04Z</time></trkpt><trkpt lat="-30.484439958415315" lon="115.09718407825338"><ele>7.5</ele><time>2026-04-12T09:26:05Z</time></trkpt><trkpt lat="-30.48462017341978" lon="115.0969677555943"><ele>8.0</ele><time>2026-04-12T09:26:06Z</time></trkpt><trkpt lat="-30.484787009833624" lon="115.09676859431657"><ele>7.5</ele><time>2026-04-12T09:26:07Z</time></trkpt><trkpt lat="-30.48494182091993" lon="115.09658132181687"><ele>7.0</ele><time>2026-04-12T09:26:08Z</time></trkpt><trkpt lat="-30.485101321624544" lon="115.09639049716348"><ele>7.0</ele><time>2026-04-12T09:26:09Z</time></trkpt><trkpt lat="-30.48526043098392" lon="115.09619891277993"><ele>7.0</ele><time>2026-04-12T09:26:10Z</time></trkpt><trkpt lat="-30.48540858940713" lon="115.09601659881123"><ele>7.0</ele><time>2026-04-12T09:26:11Z</time></trkpt><trkpt lat="-30.48554290437401" lon="115.09583972741817"><ele>6.666666666666667</ele><time>2026-04-12T09:26:12Z</time></trkpt><trkpt lat="-30.4856774395814" lon="115.09564456814553"><ele>6.333333333333334</ele><time>2026-04-12T09:26:13Z</time></trkpt><trkpt lat="-30.485805372257985" lon="115.09543558048334"><ele>6.0</ele><time>2026-04-12T09:26:14Z</time></trkpt><trkpt lat="-30.48592357024126" lon="115.0952122855868"><ele>6.0</ele><time>2026-04-12T09:26:15Z</time></trkpt><trkpt lat="-30.486033739181543" lon="115.09497773674389"><ele>6.0</ele><time>2026-04-12T09:26:16Z</time></trkpt><trkpt lat="-30.486133982440844" lon="115.0947354168669"><ele>6.0</ele><time>2026-04-12T09:26:17Z</time></trkpt><trkpt lat="-30.486223941458714" lon="115.0944804521864"><ele>6.0</ele><time>2026-04-12T09:26:18Z</time></trkpt><trkpt lat="-30.48630090251483" lon="115.09421264228119"><ele>5.0</ele><time>2026-04-12T09:26:19Z</time></trkpt><trkpt lat="-30.48636812955101" lon="115.09393534464306"><ele>4.0</ele><time>2026-04-12T09:26:20Z</time></trkpt><trkpt lat="-30.48642341602433" lon="115.09364714241991"><ele>4.0</ele><time>2026-04-12T09:26:21Z</time></trkpt><trkpt lat="-30.486460125676484" lon="115.09335330794133"><ele>4.0</ele><time>2026-04-12T09:26:22Z</time></trkpt><trkpt lat="-30.4864757391348" lon="115.09307680929979"><ele>4.0</ele><time>2026-04-12T09:26:23Z</time></trkpt><trkpt lat="-30.486477610356253" lon="115.0928203672566"><ele>4.0</ele><time>2026-04-12T09:26:24Z</time></trkpt><trkpt lat="-30.48647426911593" lon="115.09258496654246"><ele>4.0</ele><time>2026-04-12T09:26:25Z</time></trkpt><trkpt lat="-30.486460668697006" lon="115.09237147231094"><ele>4.0</ele><time>2026-04-12T09:26:26Z</time></trkpt><trkpt lat="-30.486439885265504" lon="115.09217886234124"><ele>4.0</ele><time>2026-04-12T09:26:27Z</time></trkpt><trkpt lat="-30.486428262072657" lon="115.09200397600023"><ele>4.0</ele><time>2026-04-12T09:26:28Z</time></trkpt><trkpt lat="-30.486432415554578" lon="115.09183898121194"><ele>4.0</ele><time>2026-04-12T09:26:29Z</time></trkpt><trkpt lat="-30.486448815448867" lon="115.09169659607842"><ele>4.0</ele><time>2026-04-12T09:26:30Z</time></trkpt><trkpt lat="-30.486472972568183" lon="115.0915997807787"><ele>4.0</ele><time>2026-04-12T09:26:31Z</time></trkpt><trkpt lat="-30.486530515287075" lon="115.09153332145235"><ele>4.0</ele><time>2026-04-12T09:26:33Z</time></trkpt><trkpt lat="-30.486646965984118" lon="115.09150617913893"><ele>4.0</ele><time>2026-04-12T09:26:35Z</time></trkpt><trkpt lat="-30.486745549890802" lon="115.09149644326152"><ele>4.0</ele><time>2026-04-12T09:26:36Z</time></trkpt><trkpt lat="-30.48685545247071" lon="115.09148627893158"><ele>4.0</ele><time>2026-04-12T09:26:37Z</time></trkpt><trkpt lat="-30.486973533975636" lon="115.09147869085112"><ele>4.0</ele><time>2026-04-12T09:26:38Z</time></trkpt><trkpt lat="-30.487115528413852" lon="115.09147358170128"><ele>4.0</ele><time>2026-04-12T09:26:39Z</time></trkpt><trkpt lat="-30.487280085396776" lon="115.09147040341179"><ele>5.0</ele><time>2026-04-12T09:26:40Z</time></trkpt><trkpt lat="-30.48745377552761" lon="115.09146252171254"><ele>6.0</ele><time>2026-04-12T09:26:41Z</time></trkpt><trkpt lat="-30.48763147136232" lon="115.09144485887305"><ele>7.0</ele><time>2026-04-12T09:26:42Z</time></trkpt><trkpt lat="-30.48782466308168" lon="115.09142608493413"><ele>6.666666666666667</ele><time>2026-04-12T09:26:43Z</time></trkpt><trkpt lat="-30.488030383283615" lon="115.09141002886001"><ele>6.333333333333334</ele><time>2026-04-12T09:26:44Z</time></trkpt><trkpt lat="-30.488244224193625" lon="115.0913919779479"><ele>6.0</ele><time>2026-04-12T09:26:45Z</time></trkpt><trkpt lat="-30.488457254051447" lon="115.09136800699211"><ele>6.0</ele><time>2026-04-12T09:26:46Z</time></trkpt><trkpt lat="-30.488674788467232" lon="115.09133179970921"><ele>6.0</ele><time>2026-04-12T09:26:47Z</time></trkpt><trkpt lat="-30.48889743942513" lon="115.09128264650944"><ele>6.0</ele><time>2026-04-12T09:26:48Z</time></trkpt><trkpt lat="-30.48912056044984" lon="115.0912239920521"><ele>5.5</ele><time>2026-04-12T09:26:49Z</time></trkpt><trkpt lat="-30.489348126954376" lon="115.0911623906757"><ele>5.0</ele><time>2026-04-12T09:26:50Z</time></trkpt><trkpt lat="-30.48957408512589" lon="115.09109552128365"><ele>7.5</ele><time>2026-04-12T09:26:51Z</time></trkpt><trkpt lat="-30.489805555554042" lon="115.09102076864404"><ele>10.0</ele><time>2026-04-12T09:26:52Z</time></trkpt><trkpt lat="-30.490036188983076" lon="115.09093708663877"><ele>10.0</ele><time>2026-04-12T09:26:53Z</time></trkpt><trkpt lat="-30.490259258368038" lon="115.09084577751858"><ele>10.0</ele><time>2026-04-12T09:26:54Z</time></trkpt><trkpt lat="-30.49048356428886" lon="115.09074777259686"><ele>8.5</ele><time>2026-04-12T09:26:55Z</time></trkpt><trkpt lat="-30.49070999295368" lon="115.09064875690618"><ele>7.0</ele><time>2026-04-12T09:26:56Z</time></trkpt><trkpt lat="-30.490936569710385" lon="115.09054993543045"><ele>7.0</ele><time>2026-04-12T09:26:57Z</time></trkpt><trkpt lat="-30.49116358170754" lon="115.09044563862926"><ele>7.0</ele><time>2026-04-12T09:26:58Z</time></trkpt><trkpt lat="-30.49138132043585" lon="115.09033553272857"><ele>6.5</ele><time>2026-04-12T09:26:59Z</time></trkpt><trkpt lat="-30.491593555276147" lon="115.09022319942338"><ele>6.0</ele><time>2026-04-12T09:27:00Z</time></trkpt><trkpt lat="-30.49180390623603" lon="115.09011298563563"><ele>6.0</ele><time>2026-04-12T09:27:00.999Z</time></trkpt><trkpt lat="-30.49201476959774" lon="115.09000485539937"><ele>6.0</ele><time>2026-04-12T09:27:01.999Z</time></trkpt><trkpt lat="-30.49221157695409" lon="115.0898985470125"><ele>6.0</ele><time>2026-04-12T09:27:02.999Z</time></trkpt><trkpt lat="-30.49238941384387" lon="115.08979321212487"><ele>6.0</ele><time>2026-04-12T09:27:03.999Z</time></trkpt><trkpt lat="-30.49255398519781" lon="115.08969225234088"><ele>6.0</ele><time>2026-04-12T09:27:04.999Z</time></trkpt><trkpt lat="-30.492710470409236" lon="115.08959878372706"><ele>6.0</ele><time>2026-04-12T09:27:05.999Z</time></trkpt><trkpt lat="-30.49285505564406" lon="115.08951406484643"><ele>5.0</ele><time>2026-04-12T09:27:06.999Z</time></trkpt><trkpt lat="-30.492986489153736" lon="115.089442015359"><ele>4.0</ele><time>2026-04-12T09:27:07.999Z</time></trkpt><trkpt lat="-30.493107077203728" lon="115.08937931265011"><ele>3.0</ele><time>2026-04-12T09:27:08.999Z</time></trkpt><trkpt lat="-30.49321081649759" lon="115.08932387828153"><ele>2.0</ele><time>2026-04-12T09:27:09.999Z</time></trkpt><trkpt lat="-30.493297787705295" lon="115.08927419256919"><ele>2.0</ele><time>2026-04-12T09:27:10.999Z</time></trkpt><trkpt lat="-30.49337289914001" lon="115.08921041038246"><ele>2.0</ele><time>2026-04-12T09:27:11.999Z</time></trkpt><trkpt lat="-30.493437642534744" lon="115.08916564268631"><ele>2.0</ele><time>2026-04-12T09:27:12.999Z</time></trkpt><trkpt lat="-30.493372798378367" lon="115.08891703610824"><ele>2.0</ele><time>2026-04-12T09:27:14.999Z</time></trkpt><trkpt lat="-30.493319073356307" lon="115.08877976298243"><ele>2.6666666666666665</ele><time>2026-04-12T09:27:15.999Z</time></trkpt><trkpt lat="-30.493248010479043" lon="115.08862934840901"><ele>3.333333333333333</ele><time>2026-04-12T09:27:16.999Z</time></trkpt><trkpt lat="-30.493177184514575" lon="115.08845803678669"><ele>4.0</ele><time>2026-04-12T09:27:17.999Z</time></trkpt><trkpt lat="-30.49311069389995" lon="115.08826156828948"><ele>5.666666666666666</ele><time>2026-04-12T09:27:18.999Z</time></trkpt><trkpt lat="-30.493056676229994" lon="115.08804665689921"><ele>7.333333333333333</ele><time>2026-04-12T09:27:19.999Z</time></trkpt><trkpt lat="-30.493028810446685" lon="115.08781915027205"><ele>9.0</ele><time>2026-04-12T09:27:20.999Z</time></trkpt><trkpt lat="-30.49302461985909" lon="115.08758854252656"><ele>8.666666666666666</ele><time>2026-04-12T09:27:21.999Z</time></trkpt><trkpt lat="-30.493051627859057" lon="115.08734089221288"><ele>8.333333333333332</ele><time>2026-04-12T09:27:22.999Z</time></trkpt><trkpt lat="-30.493087801591688" lon="115.0870732756943"><ele>8.0</ele><time>2026-04-12T09:27:23.999Z</time></trkpt><trkpt lat="-30.493195378061" lon="115.08682629225497"><ele>7.0</ele><time>2026-04-12T09:27:24.999Z</time></trkpt><trkpt lat="-30.493319470103987" lon="115.08659311339146"><ele>6.0</ele><time>2026-04-12T09:27:25.999Z</time></trkpt><trkpt lat="-30.4934724028768" lon="115.08637566062394"><ele>6.0</ele><time>2026-04-12T09:27:26.999Z</time></trkpt><trkpt lat="-30.49364784462273" lon="115.08616484613253"><ele>6.0</ele><time>2026-04-12T09:27:27.999Z</time></trkpt><trkpt lat="-30.493820752308828" lon="115.08594692122486"><ele>5.0</ele><time>2026-04-12T09:27:28.999Z</time></trkpt><trkpt lat="-30.49400516309637" lon="115.08574622444033"><ele>4.0</ele><time>2026-04-12T09:27:29.999Z</time></trkpt><trkpt lat="-30.494190646660915" lon="115.08553268988955"><ele>4.0</ele><time>2026-04-12T09:27:30.999Z</time></trkpt><trkpt lat="-30.494363892856093" lon="115.08532842167384"><ele>4.0</ele><time>2026-04-12T09:27:31.999Z</time></trkpt><trkpt lat="-30.49453087197158" lon="115.08513599410065"><ele>3.5</ele><time>2026-04-12T09:27:32.999Z</time></trkpt><trkpt lat="-30.494695064746008" lon="115.0849389765266"><ele>3.0</ele><time>2026-04-12T09:27:33.999Z</time></trkpt><trkpt lat="-30.494860268308297" lon="115.08473611509123"><ele>3.0</ele><time>2026-04-12T09:27:35Z</time></trkpt><trkpt lat="-30.49502762261081" lon="115.08453644774296"><ele>3.0</ele><time>2026-04-12T09:27:36Z</time></trkpt><trkpt lat="-30.495197371375745" lon="115.08433494425995"><ele>3.0</ele><time>2026-04-12T09:27:37Z</time></trkpt><trkpt lat="-30.495366685680473" lon="115.08412868336367"><ele>3.0</ele><time>2026-04-12T09:27:38Z</time></trkpt><trkpt lat="-30.495540184188087" lon="115.08391508091545"><ele>4.5</ele><time>2026-04-12T09:27:39Z</time></trkpt><trkpt lat="-30.495718597627747" lon="115.08370338422507"><ele>6.0</ele><time>2026-04-12T09:27:40Z</time></trkpt><trkpt lat="-30.49589706718006" lon="115.08349369781925"><ele>6.0</ele><time>2026-04-12T09:27:41Z</time></trkpt><trkpt lat="-30.49607469516102" lon="115.08328183070472"><ele>6.0</ele><time>2026-04-12T09:27:42Z</time></trkpt><trkpt lat="-30.496255947936174" lon="115.08306893525568"><ele>9.0</ele><time>2026-04-12T09:27:43Z</time></trkpt><trkpt lat="-30.49643662298528" lon="115.08285670087164"><ele>12.0</ele><time>2026-04-12T09:27:44Z</time></trkpt><trkpt lat="-30.49661575233052" lon="115.0826440437434"><ele>11.0</ele><time>2026-04-12T09:27:45Z</time></trkpt><trkpt lat="-30.496969799487058" lon="115.08220962923987"><ele>9.0</ele><time>2026-04-12T09:27:47Z</time></trkpt><trkpt lat="-30.497150020911914" lon="115.08199916566753"><ele>7.0</ele><time>2026-04-12T09:27:48Z</time></trkpt><trkpt lat="-30.497334149231012" lon="115.0817896589075"><ele>8.0</ele><time>2026-04-12T09:27:49Z</time></trkpt><trkpt lat="-30.497518437417664" lon="115.08158498758199"><ele>9.0</ele><time>2026-04-12T09:27:50Z</time></trkpt><trkpt lat="-30.49769909214338" lon="115.08138269587786"><ele>9.0</ele><time>2026-04-12T09:27:51Z</time></trkpt><trkpt lat="-30.49786830090781" lon="115.08118694243718"><ele>9.0</ele><time>2026-04-12T09:27:52Z</time></trkpt><trkpt lat="-30.498030729517975" lon="115.0809988969262"><ele>8.0</ele><time>2026-04-12T09:27:53Z</time></trkpt><trkpt lat="-30.49819138013035" lon="115.0808092225356"><ele>7.0</ele><time>2026-04-12T09:27:54Z</time></trkpt><trkpt lat="-30.498353099648185" lon="115.08061582382363"><ele>7.0</ele><time>2026-04-12T09:27:55Z</time></trkpt><trkpt lat="-30.498518853630703" lon="115.08042326286369"><ele>7.0</ele><time>2026-04-12T09:27:56Z</time></trkpt><trkpt lat="-30.498687141936358" lon="115.08023437640345"><ele>7.0</ele><time>2026-04-12T09:27:57Z</time></trkpt><trkpt lat="-30.49885411926644" lon="115.08004324695379"><ele>7.0</ele><time>2026-04-12T09:27:58Z</time></trkpt><trkpt lat="-30.499021432908144" lon="115.0798503030326"><ele>8.0</ele><time>2026-04-12T09:27:59Z</time></trkpt><trkpt lat="-30.499192967831" lon="115.0796527691675"><ele>9.0</ele><time>2026-04-12T09:28:00Z</time></trkpt><trkpt lat="-30.499367315299768" lon="115.0794549188682"><ele>9.0</ele><time>2026-04-12T09:28:01Z</time></trkpt><trkpt lat="-30.499540662132294" lon="115.07925557719507"><ele>9.0</ele><time>2026-04-12T09:28:02Z</time></trkpt><trkpt lat="-30.49971173172364" lon="115.0790551093383"><ele>8.5</ele><time>2026-04-12T09:28:03Z</time></trkpt><trkpt lat="-30.499871451183314" lon="115.07886840252438"><ele>8.0</ele><time>2026-04-12T09:28:04Z</time></trkpt><trkpt lat="-30.500028583854164" lon="115.07867851255176"><ele>8.0</ele><time>2026-04-12T09:28:05Z</time></trkpt><trkpt lat="-30.50018028962139" lon="115.07847122082563"><ele>8.0</ele><time>2026-04-12T09:28:06Z</time></trkpt><trkpt lat="-30.50031587755665" lon="115.07824556466208"><ele>9.0</ele><time>2026-04-12T09:28:07Z</time></trkpt><trkpt lat="-30.50043588470332" lon="115.07800036449026"><ele>10.0</ele><time>2026-04-12T09:28:08Z</time></trkpt><trkpt lat="-30.50055446808887" lon="115.07774354260258"><ele>10.0</ele><time>2026-04-12T09:28:09Z</time></trkpt><trkpt lat="-30.50068228132399" lon="115.07748329727183"><ele>10.0</ele><time>2026-04-12T09:28:10Z</time></trkpt><trkpt lat="-30.500814701982563" lon="115.07722540311835"><ele>8.0</ele><time>2026-04-12T09:28:11Z</time></trkpt><trkpt lat="-30.500944419051446" lon="115.07696648952492"><ele>6.0</ele><time>2026-04-12T09:28:12Z</time></trkpt><trkpt lat="-30.501071931029514" lon="115.07671000106936"><ele>6.0</ele><time>2026-04-12T09:28:13Z</time></trkpt><trkpt lat="-30.501207522843917" lon="115.0764498087895"><ele>6.0</ele><time>2026-04-12T09:28:14Z</time></trkpt><trkpt lat="-30.501342995791394" lon="115.07619317973432"><ele>6.0</ele><time>2026-04-12T09:28:15Z</time></trkpt><trkpt lat="-30.50146889957274" lon="115.07594413213887"><ele>6.0</ele><time>2026-04-12T09:28:16Z</time></trkpt><trkpt lat="-30.50159170312271" lon="115.0757016142036"><ele>6.5</ele><time>2026-04-12T09:28:17Z</time></trkpt><trkpt lat="-30.501711649955237" lon="115.07546555696624"><ele>7.0</ele><time>2026-04-12T09:28:18Z</time></trkpt><trkpt lat="-30.50183373226261" lon="115.07522997520525"><ele>7.0</ele><time>2026-04-12T09:28:19Z</time></trkpt><trkpt lat="-30.501956242563857" lon="115.07499584496509"><ele>7.0</ele><time>2026-04-12T09:28:20Z</time></trkpt><trkpt lat="-30.502075142831718" lon="115.07476173090944"><ele>7.0</ele><time>2026-04-12T09:28:21Z</time></trkpt><trkpt lat="-30.502189945291" lon="115.07452926402084"><ele>7.0</ele><time>2026-04-12T09:28:22Z</time></trkpt><trkpt lat="-30.502294388460594" lon="115.07430649642133"><ele>7.0</ele><time>2026-04-12T09:28:23Z</time></trkpt><trkpt lat="-30.502385367454547" lon="115.07408811638257"><ele>7.0</ele><time>2026-04-12T09:28:24Z</time></trkpt><trkpt lat="-30.502458510706994" lon="115.07386828017424"><ele>7.0</ele><time>2026-04-12T09:28:25Z</time></trkpt><trkpt lat="-30.502515789938972" lon="115.07364211085122"><ele>7.0</ele><time>2026-04-12T09:28:26Z</time></trkpt><trkpt lat="-30.502560631813626" lon="115.07341661908447"><ele>8.666666666666668</ele><time>2026-04-12T09:28:27Z</time></trkpt><trkpt lat="-30.502591357040043" lon="115.07319922488816"><ele>10.333333333333334</ele><time>2026-04-12T09:28:28Z</time></trkpt><trkpt lat="-30.50260523725267" lon="115.07298937192509"><ele>12.0</ele><time>2026-04-12T09:28:29Z</time></trkpt><trkpt lat="-30.502612480193665" lon="115.07278125808196"><ele>12.0</ele><time>2026-04-12T09:28:30Z</time></trkpt><trkpt lat="-30.502613749269784" lon="115.07258183195763"><ele>12.0</ele><time>2026-04-12T09:28:31Z</time></trkpt><trkpt lat="-30.50260649324845" lon="115.07239789902478"><ele>12.0</ele><time>2026-04-12T09:28:32Z</time></trkpt><trkpt lat="-30.50259672968024" lon="115.07222090743002"><ele>12.5</ele><time>2026-04-12T09:28:33Z</time></trkpt><trkpt lat="-30.50259304544226" lon="115.07205995047445"><ele>13.0</ele><time>2026-04-12T09:28:34Z</time></trkpt><trkpt lat="-30.502578067061794" lon="115.07192263885281"><ele>13.5</ele><time>2026-04-12T09:28:35Z</time></trkpt><trkpt lat="-30.502562358991618" lon="115.07180256465274"><ele>14.0</ele><time>2026-04-12T09:28:36Z</time></trkpt><trkpt lat="-30.502538675339697" lon="115.07168216678274"><ele>14.333333333333334</ele><time>2026-04-12T09:28:37Z</time></trkpt><trkpt lat="-30.50250259063936" lon="115.0715739333412"><ele>14.666666666666668</ele><time>2026-04-12T09:28:38Z</time></trkpt><trkpt lat="-30.50245515697693" lon="115.0714760250165"><ele>15.0</ele><time>2026-04-12T09:28:39Z</time></trkpt><trkpt lat="-30.50240106414521" lon="115.0713909949624"><ele>15.333333333333332</ele><time>2026-04-12T09:28:40Z</time></trkpt><trkpt lat="-30.502342684913447" lon="115.07132161424353"><ele>15.666666666666666</ele><time>2026-04-12T09:28:41Z</time></trkpt><trkpt lat="-30.50228271619025" lon="115.07127008043383"><ele>16.0</ele><time>2026-04-12T09:28:42Z</time></trkpt><trkpt lat="-30.502218837767348" lon="115.07122582687832"><ele>15.999999999999998</ele><time>2026-04-12T09:28:43Z</time></trkpt><trkpt lat="-30.502157670653215" lon="115.07118220886802"><ele>16.0</ele><time>2026-04-12T09:28:44Z</time></trkpt><trkpt lat="-30.50209473093698" lon="115.07114042297638"><ele>16.0</ele><time>2026-04-12T09:28:45Z</time></trkpt><trkpt lat="-30.502033238644266" lon="115.07110267456781"><ele>16.0</ele><time>2026-04-12T09:28:46Z</time></trkpt><trkpt lat="-30.501937590223445" lon="115.07103350898458"><ele>15.999999999999998</ele><time>2026-04-12T09:28:48Z</time></trkpt><trkpt lat="-30.501921762188868" lon="115.07094923195251"><ele>16.0</ele><time>2026-04-12T09:28:50Z</time></trkpt><trkpt lat="-30.50195523645167" lon="115.07086806097251"><ele>15.999999999999998</ele><time>2026-04-12T09:28:51.999Z</time></trkpt><trkpt lat="-30.502015179122626" lon="115.0708148520748"><ele>16.0</ele><time>2026-04-12T09:28:53.999Z</time></trkpt><trkpt lat="-30.502084910560153" lon="115.07075148975937"><ele>16.0</ele><time>2026-04-12T09:28:56.999Z</time></trkpt><trkpt lat="-30.502158074802786" lon="115.07069939342696"><ele>16.0</ele><time>2026-04-12T09:29:20.999Z</time></trkpt><trkpt lat="-30.502221311332566" lon="115.07074229638839"><ele>15.999999999999998</ele><time>2026-04-12T09:29:23.999Z</time></trkpt><trkpt lat="-30.502162478909355" lon="115.070807787965"><ele>16.0</ele><time>2026-04-12T09:29:26.999Z</time></trkpt><trkpt lat="-30.502096294649103" lon="115.07075509486205"><ele>15.999999999999998</ele><time>2026-04-12T09:38:58Z</time></trkpt><trkpt lat="-30.502064316614803" lon="115.07069010271083"><ele>16.0</ele><time>2026-04-12T09:39:43.999Z</time></trkpt><trkpt lat="-30.50208870338142" lon="115.07076993351008"><ele>16.0</ele><time>2026-04-12T09:41:50.999Z</time></trkpt><trkpt lat="-30.502148437673235" lon="115.07082215905237"><ele>16.0</ele><time>2026-04-12T09:42:00.999Z</time></trkpt><trkpt lat="-30.502038838388863" lon="115.07087819618123"><ele>15.999999999999998</ele><time>2026-04-12T09:44:39.001Z</time></trkpt><trkpt lat="-30.501964694582888" lon="115.0709226378788"><ele>16.0</ele><time>2026-04-12T09:44:41Z</time></trkpt><trkpt lat="-30.501860819809213" lon="115.07095460406407"><ele>15.600000000000001</ele><time>2026-04-12T09:44:43Z</time></trkpt><trkpt lat="-30.501761110129404" lon="115.07095046021625"><ele>15.200000000000001</ele><time>2026-04-12T09:44:45Z</time></trkpt><trkpt lat="-30.501694979415177" lon="115.0709223804307"><ele>14.799999999999999</ele><time>2026-04-12T09:44:46Z</time></trkpt><trkpt lat="-30.501616198004967" lon="115.07087142580531"><ele>14.399999999999999</ele><time>2026-04-12T09:44:47Z</time></trkpt><trkpt lat="-30.501528168148525" lon="115.07081161691661"><ele>14.0</ele><time>2026-04-12T09:44:48Z</time></trkpt><trkpt lat="-30.50143171719825" lon="115.07075527679548"><ele>13.0</ele><time>2026-04-12T09:44:49Z</time></trkpt><trkpt lat="-30.50132435715244" lon="115.07069412039564"><ele>12.0</ele><time>2026-04-12T09:44:50Z</time></trkpt><trkpt lat="-30.50120470652343" lon="115.07062174323596"><ele>11.0</ele><time>2026-04-12T09:44:51Z</time></trkpt><trkpt lat="-30.50108427423487" lon="115.0705525528442"><ele>10.0</ele><time>2026-04-12T09:44:52Z</time></trkpt><trkpt lat="-30.50095038220658" lon="115.07048485900415"><ele>10.0</ele><time>2026-04-12T09:44:53Z</time></trkpt><trkpt lat="-30.50081794498169" lon="115.07040653211013"><ele>10.0</ele><time>2026-04-12T09:44:54Z</time></trkpt><trkpt lat="-30.500699235511153" lon="115.0703289543902"><ele>10.0</ele><time>2026-04-12T09:44:55Z</time></trkpt><trkpt lat="-30.50059178702484" lon="115.07026028914797"><ele>10.0</ele><time>2026-04-12T09:44:56Z</time></trkpt><trkpt lat="-30.500495685145737" lon="115.07020120792677"><ele>10.2</ele><time>2026-04-12T09:44:57Z</time></trkpt><trkpt lat="-30.500404014273776" lon="115.07014964451731"><ele>10.4</ele><time>2026-04-12T09:44:58Z</time></trkpt><trkpt lat="-30.500317794902024" lon="115.07010146885169"><ele>10.600000000000001</ele><time>2026-04-12T09:44:59Z</time></trkpt><trkpt lat="-30.500234823690914" lon="115.07005369644058"><ele>10.8</ele><time>2026-04-12T09:45:00Z</time></trkpt><trkpt lat="-30.500164300257882" lon="115.07001159382628"><ele>11.0</ele><time>2026-04-12T09:45:01Z</time></trkpt><trkpt lat="-30.500056587021163" lon="115.06994205831961"><ele>11.25</ele><time>2026-04-12T09:45:03Z</time></trkpt><trkpt lat="-30.499949255411135" lon="115.06987806025853"><ele>11.5</ele><time>2026-04-12T09:45:05Z</time></trkpt><trkpt lat="-30.499856959578533" lon="115.06981980292903"><ele>11.75</ele><time>2026-04-12T09:45:07Z</time></trkpt><trkpt lat="-30.49978212707704" lon="115.06974282121223"><ele>12.0</ele><time>2026-04-12T09:45:09Z</time></trkpt><trkpt lat="-30.49980491413992" lon="115.06955947320483"><ele>12.0</ele><time>2026-04-12T09:45:12Z</time></trkpt><trkpt lat="-30.49985026699313" lon="115.06949200951131"><ele>12.0</ele><time>2026-04-12T09:45:13Z</time></trkpt><trkpt lat="-30.49990216874761" lon="115.06941642497976"><ele>12.0</ele><time>2026-04-12T09:45:14Z</time></trkpt><trkpt lat="-30.499964002441878" lon="115.0693326829588"><ele>12.0</ele><time>2026-04-12T09:45:15Z</time></trkpt><trkpt lat="-30.500036649926155" lon="115.06924439922679"><ele>12.0</ele><time>2026-04-12T09:45:16Z</time></trkpt><trkpt lat="-30.500111579620377" lon="115.06915767970916"><ele>11.666666666666666</ele><time>2026-04-12T09:45:17Z</time></trkpt><trkpt lat="-30.50017897739121" lon="115.06907302553378"><ele>11.333333333333334</ele><time>2026-04-12T09:45:18Z</time></trkpt><trkpt lat="-30.500237621101657" lon="115.068993918776"><ele>11.0</ele><time>2026-04-12T09:45:19Z</time></trkpt><trkpt lat="-30.500292211455374" lon="115.06892590071654"><ele>10.666666666666668</ele><time>2026-04-12T09:45:20Z</time></trkpt><trkpt lat="-30.500342544542463" lon="115.0688683447168"><ele>10.333333333333334</ele><time>2026-04-12T09:45:21Z</time></trkpt><trkpt lat="-30.500386384497883" lon="115.06881070160058"><ele>10.0</ele><time>2026-04-12T09:45:22Z</time></trkpt><trkpt lat="-30.500420821209204" lon="115.0687488693245"><ele>10.0</ele><time>2026-04-12T09:45:23Z</time></trkpt><trkpt lat="-30.500487217689162" lon="115.06863221115232"><ele>10.0</ele><time>2026-04-12T09:45:25Z</time></trkpt><trkpt lat="-30.50054538135695" lon="115.06852008324198"><ele>10.0</ele><time>2026-04-12T09:45:27Z</time></trkpt><trkpt lat="-30.500625982034993" lon="115.06841791880397"><ele>10.0</ele><time>2026-04-12T09:45:29Z</time></trkpt><trkpt lat="-30.50073149640941" lon="115.06833883140484"><ele>10.0</ele><time>2026-04-12T09:45:31Z</time></trkpt><trkpt lat="-30.500834977429427" lon="115.06828353891571"><ele>10.0</ele><time>2026-04-12T09:45:33Z</time></trkpt><trkpt lat="-30.500945055919832" lon="115.0682373892926"><ele>10.0</ele><time>2026-04-12T09:45:35Z</time></trkpt><trkpt lat="-30.501045089162986" lon="115.06818132413893"><ele>10.0</ele><time>2026-04-12T09:45:37Z</time></trkpt><trkpt lat="-30.501128193939838" lon="115.0681375338584"><ele>10.0</ele><time>2026-04-12T09:45:39Z</time></trkpt><trkpt lat="-30.501203549906805" lon="115.06810375020186"><ele>10.0</ele><time>2026-04-12T09:45:42Z</time></trkpt><trkpt lat="-30.501131036600015" lon="115.06793164200124"><ele>10.0</ele><time>2026-04-12T09:45:44Z</time></trkpt><trkpt lat="-30.501228991088453" lon="115.06787827900285"><ele>10.0</ele><time>2026-04-12T09:45:45Z</time></trkpt><trkpt lat="-30.5013025138857" lon="115.06785962278107"><ele>10.0</ele><time>2026-04-12T09:45:48Z</time></trkpt><trkpt lat="-30.50124390767354" lon="115.0678905708526"><ele>10.0</ele><time>2026-04-12T09:46:19Z</time></trkpt><trkpt lat="-30.501165999771207" lon="115.06779391018797"><ele>9.833333333333334</ele><time>2026-04-12T09:46:32Z</time></trkpt><trkpt lat="-30.50114615833185" lon="115.06786641607962"><ele>9.666666666666668</ele><time>2026-04-12T09:53:39Z</time></trkpt><trkpt lat="-30.501165474594785" lon="115.06794850113536"><ele>9.5</ele><time>2026-04-12T09:53:48Z</time></trkpt><trkpt lat="-30.50115302749126" lon="115.06781117564587"><ele>9.333333333333334</ele><time>2026-04-12T09:55:57Z</time></trkpt><trkpt lat="-30.501159829468026" lon="115.0678973772096"><ele>9.166666666666666</ele><time>2026-04-12T09:57:04Z</time></trkpt><trkpt lat="-30.501090092925153" lon="115.06790357516898"><ele>9.0</ele><time>2026-04-12T09:57:08Z</time></trkpt><trkpt lat="-30.501018454309524" lon="115.06790967118177"><ele>9.000000000000002</ele><time>2026-04-12T09:57:13Z</time></trkpt><trkpt lat="-30.500953677376987" lon="115.06795604710103"><ele>9.0</ele><time>2026-04-12T09:57:18Z</time></trkpt><trkpt lat="-30.50088876285955" lon="115.06796584994483"><ele>9.0</ele><time>2026-04-12T09:57:22Z</time></trkpt><trkpt lat="-30.500824555974113" lon="115.06801284458194"><ele>9.0</ele><time>2026-04-12T09:57:27Z</time></trkpt><trkpt lat="-30.500879989660042" lon="115.06795991534844"><ele>9.0</ele><time>2026-04-12T09:59:47Z</time></trkpt><trkpt lat="-30.500943327423055" lon="115.0679496267438"><ele>9.000000000000002</ele><time>2026-04-12T09:59:51Z</time></trkpt><trkpt lat="-30.501006561329323" lon="115.06795992669828"><ele>9.0</ele><time>2026-04-12T09:59:56Z</time></trkpt><trkpt lat="-30.501070533743338" lon="115.06794528722644"><ele>9.000000000000002</ele><time>2026-04-12T10:00:02Z</time></trkpt><trkpt lat="-30.501125287402008" lon="115.0679083173105"><ele>9.0</ele><time>2026-04-12T10:00:08Z</time></trkpt><trkpt lat="-30.50118934121745" lon="115.06789481894073"><ele>9.0</ele><time>2026-04-12T10:00:32Z</time></trkpt><trkpt lat="-30.50126118482836" lon="115.06791388467379"><ele>9.0</ele><time>2026-04-12T10:00:58Z</time></trkpt><trkpt lat="-30.50117351535334" lon="115.0679065874254"><ele>9.0</ele><time>2026-04-12T10:03:03Z</time></trkpt><trkpt lat="-30.50113150979104" lon="115.06796632270778"><ele>9.000000000000002</ele><time>2026-04-12T10:03:05Z</time></trkpt><trkpt lat="-30.501112179752337" lon="115.06805358924748"><ele>9.0</ele><time>2026-04-12T10:03:08Z</time></trkpt><trkpt lat="-30.50104633032914" lon="115.0681503004878"><ele>9.0</ele><time>2026-04-12T10:03:09.999Z</time></trkpt><trkpt lat="-30.50097788999821" lon="115.06819196393876"><ele>9.0</ele><time>2026-04-12T10:03:10.999Z</time></trkpt><trkpt lat="-30.50090292491608" lon="115.06821980862404"><ele>9.0</ele><time>2026-04-12T10:03:11.999Z</time></trkpt><trkpt lat="-30.5008155537008" lon="115.06825577415003"><ele>9.0</ele><time>2026-04-12T10:03:12.999Z</time></trkpt><trkpt lat="-30.50073163629841" lon="115.06830003298155"><ele>9.0</ele><time>2026-04-12T10:03:13.999Z</time></trkpt><trkpt lat="-30.500641122746803" lon="115.06835690769476"><ele>9.0</ele><time>2026-04-12T10:03:15Z</time></trkpt><trkpt lat="-30.50055211535633" lon="115.06842986019602"><ele>9.0</ele><time>2026-04-12T10:03:16Z</time></trkpt><trkpt lat="-30.50048278225546" lon="115.06851531765619"><ele>9.0</ele><time>2026-04-12T10:03:17Z</time></trkpt><trkpt lat="-30.50042796489436" lon="115.06861373332177"><ele>9.0</ele><time>2026-04-12T10:03:18Z</time></trkpt><trkpt lat="-30.50037482366814" lon="115.06872337999665"><ele>9.0</ele><time>2026-04-12T10:03:19Z</time></trkpt><trkpt lat="-30.500316036447973" lon="115.06883647687468"><ele>9.0</ele><time>2026-04-12T10:03:20Z</time></trkpt><trkpt lat="-30.500243561130027" lon="115.06894032060057"><ele>9.0</ele><time>2026-04-12T10:03:21Z</time></trkpt><trkpt lat="-30.500175169027873" lon="115.06903026621512"><ele>9.0</ele><time>2026-04-12T10:03:22Z</time></trkpt><trkpt lat="-30.500109687307287" lon="115.06911272072911"><ele>9.0</ele><time>2026-04-12T10:03:23Z</time></trkpt><trkpt lat="-30.50005033423025" lon="115.0691898795451"><ele>9.0</ele><time>2026-04-12T10:03:24Z</time></trkpt><trkpt lat="-30.499993200938547" lon="115.06926099492121"><ele>9.0</ele><time>2026-04-12T10:03:25Z</time></trkpt><trkpt lat="-30.499937921233897" lon="115.06932697597608"><ele>9.333333333333334</ele><time>2026-04-12T10:03:26Z</time></trkpt><trkpt lat="-30.49988241995966" lon="115.06939838362253"><ele>9.666666666666666</ele><time>2026-04-12T10:03:27Z</time></trkpt><trkpt lat="-30.499826306501053" lon="115.06947377570567"><ele>10.0</ele><time>2026-04-12T10:03:28Z</time></trkpt><trkpt lat="-30.49977411101102" lon="115.06954998845085"><ele>10.333333333333332</ele><time>2026-04-12T10:03:29Z</time></trkpt><trkpt lat="-30.499726804353752" lon="115.0696158854099"><ele>10.666666666666666</ele><time>2026-04-12T10:03:30Z</time></trkpt><trkpt lat="-30.49964774873194" lon="115.06969604966294"><ele>11.0</ele><time>2026-04-12T10:03:32Z</time></trkpt><trkpt lat="-30.499567891399053" lon="115.06964230043678"><ele>11.0</ele><time>2026-04-12T10:03:33Z</time></trkpt><trkpt lat="-30.49949079522272" lon="115.06959524565133"><ele>11.0</ele><time>2026-04-12T10:03:34Z</time></trkpt><trkpt lat="-30.499398472655802" lon="115.06953892793028"><ele>11.0</ele><time>2026-04-12T10:03:35Z</time></trkpt><trkpt lat="-30.499290863981095" lon="115.06947488203578"><ele>11.0</ele><time>2026-04-12T10:03:36Z</time></trkpt><trkpt lat="-30.499163254223973" lon="115.06941624489062"><ele>11.0</ele><time>2026-04-12T10:03:37Z</time></trkpt><trkpt lat="-30.49903071318634" lon="115.06933965081461"><ele>11.0</ele><time>2026-04-12T10:03:38Z</time></trkpt><trkpt lat="-30.498897285098554" lon="115.06926586683815"><ele>11.0</ele><time>2026-04-12T10:03:39Z</time></trkpt><trkpt lat="-30.498761019134328" lon="115.06918359993894"><ele>11.0</ele><time>2026-04-12T10:03:40Z</time></trkpt><trkpt lat="-30.498627377073774" lon="115.06910366214353"><ele>11.0</ele><time>2026-04-12T10:03:41Z</time></trkpt><trkpt lat="-30.498491466237937" lon="115.06901588025862"><ele>11.0</ele><time>2026-04-12T10:03:42Z</time></trkpt><trkpt lat="-30.49836709126885" lon="115.0689063600537"><ele>11.0</ele><time>2026-04-12T10:03:43Z</time></trkpt><trkpt lat="-30.498241355769125" lon="115.06880144707442"><ele>11.0</ele><time>2026-04-12T10:03:44Z</time></trkpt><trkpt lat="-30.498125435333343" lon="115.06868969387281"><ele>11.0</ele><time>2026-04-12T10:03:45Z</time></trkpt><trkpt lat="-30.49799982393003" lon="115.06858163516283"><ele>11.0</ele><time>2026-04-12T10:03:46Z</time></trkpt><trkpt lat="-30.4979050078611" lon="115.06844368654403"><ele>10.75</ele><time>2026-04-12T10:03:47Z</time></trkpt><trkpt lat="-30.497785534082023" lon="115.06833287653531"><ele>10.5</ele><time>2026-04-12T10:03:48Z</time></trkpt><trkpt lat="-30.497684920220486" lon="115.06820856380848"><ele>10.25</ele><time>2026-04-12T10:03:49Z</time></trkpt><trkpt lat="-30.497593725994548" lon="115.06809460833998"><ele>10.0</ele><time>2026-04-12T10:03:50Z</time></trkpt><trkpt lat="-30.497507337333104" lon="115.06798772949536"><ele>10.0</ele><time>2026-04-12T10:03:51Z</time></trkpt><trkpt lat="-30.497438029554015" lon="115.06788300481456"><ele>10.0</ele><time>2026-04-12T10:03:52Z</time></trkpt><trkpt lat="-30.497383811954027" lon="115.06777089514873"><ele>10.0</ele><time>2026-04-12T10:03:53Z</time></trkpt><trkpt lat="-30.49733094300157" lon="115.06765438315537"><ele>10.0</ele><time>2026-04-12T10:03:54Z</time></trkpt><trkpt lat="-30.497268129009935" lon="115.06752854764282"><ele>10.0</ele><time>2026-04-12T10:03:55Z</time></trkpt><trkpt lat="-30.497200434792298" lon="115.067397072963"><ele>10.0</ele><time>2026-04-12T10:03:56Z</time></trkpt><trkpt lat="-30.49714131605582" lon="115.06727842971972"><ele>10.0</ele><time>2026-04-12T10:03:57Z</time></trkpt><trkpt lat="-30.497091424355578" lon="115.06717878520664"><ele>10.0</ele><time>2026-04-12T10:03:58Z</time></trkpt><trkpt lat="-30.497048551834677" lon="115.06709094710652"><ele>10.0</ele><time>2026-04-12T10:03:59Z</time></trkpt><trkpt lat="-30.4970098422748" lon="115.06700719274046"><ele>10.0</ele><time>2026-04-12T10:04:00Z</time></trkpt><trkpt lat="-30.496999786792912" lon="115.06691706279952"><ele>10.0</ele><time>2026-04-12T10:04:01Z</time></trkpt><trkpt lat="-30.496957686715298" lon="115.06685857981675"><ele>10.0</ele><time>2026-04-12T10:04:02Z</time></trkpt><trkpt lat="-30.496924146553713" lon="115.06675474933347"><ele>10.0</ele><time>2026-04-12T10:04:04Z</time></trkpt><trkpt lat="-30.496964727591987" lon="115.06666536584723"><ele>10.0</ele><time>2026-04-12T10:04:06Z</time></trkpt><trkpt lat="-30.496997017246585" lon="115.06658574141264"><ele>10.0</ele><time>2026-04-12T10:04:08Z</time></trkpt><trkpt lat="-30.497023445692488" lon="115.0665145918576"><ele>5.0</ele><time>2026-04-12T10:04:10Z</time></trkpt></trkseg><trkseg><trkpt lat="-30.41763350448592" lon="115.13949901902559"><ele>23.0</ele><time>2026-04-13T01:20:32.999Z</time></trkpt><trkpt lat="-30.417728728805443" lon="115.13952687199372"><ele>23.0</ele><time>2026-04-13T01:20:34.999Z</time></trkpt><trkpt lat="-30.4177950931373" lon="115.13953025354037"><ele>23.0</ele><time>2026-04-13T01:20:35.999Z</time></trkpt><trkpt lat="-30.41790389148535" lon="115.13953607680125"><ele>23.0</ele><time>2026-04-13T01:20:37.999Z</time></trkpt><trkpt lat="-30.418038061070995" lon="115.13955038878117"><ele>23.0</ele><time>2026-04-13T01:20:39.999Z</time></trkpt><trkpt lat="-30.418117934232967" lon="115.13953632666407"><ele>23.0</ele><time>2026-04-13T01:20:40.999Z</time></trkpt><trkpt lat="-30.41817963482274" lon="115.1395104280199"><ele>23.0</ele><time>2026-04-13T01:20:41.999Z</time></trkpt><trkpt lat="-30.418246328291353" lon="115.1394891615033"><ele>23.0</ele><time>2026-04-13T01:20:42.999Z</time></trkpt><trkpt lat="-30.41830876240732" lon="115.1394999087748"><ele>23.0</ele><time>2026-04-13T01:20:43.999Z</time></trkpt><trkpt lat="-30.41837757401253" lon="115.13954358743487"><ele>23.0</ele><time>2026-04-13T01:20:44.999Z</time></trkpt><trkpt lat="-30.41844986873686" lon="115.1396140260772"><ele>23.0</ele><time>2026-04-13T01:20:45.999Z</time></trkpt><trkpt lat="-30.41854118565921" lon="115.13971244430219"><ele>23.0</ele><time>2026-04-13T01:20:46.999Z</time></trkpt><trkpt lat="-30.418638343817644" lon="115.13983182911072"><ele>23.0</ele><time>2026-04-13T01:20:47.999Z</time></trkpt><trkpt lat="-30.418705773410835" lon="115.13992373571305"><ele>23.0</ele><time>2026-04-13T01:20:48.999Z</time></trkpt><trkpt lat="-30.418760846775335" lon="115.13999905416378"><ele>23.0</ele><time>2026-04-13T01:20:49.999Z</time></trkpt><trkpt lat="-30.418811605747337" lon="115.14006547674732"><ele>23.0</ele><time>2026-04-13T01:20:50.999Z</time></trkpt><trkpt lat="-30.41884349106786" lon="115.14013652929286"><ele>23.2</ele><time>2026-04-13T01:20:52.999Z</time></trkpt><trkpt lat="-30.41883256638362" lon="115.14021946690394"><ele>23.4</ele><time>2026-04-13T01:20:55.999Z</time></trkpt><trkpt lat="-30.41873285318323" lon="115.14032866768648"><ele>23.599999999999998</ele><time>2026-04-13T01:20:58Z</time></trkpt><trkpt lat="-30.41865355710472" lon="115.14039999115248"><ele>23.799999999999997</ele><time>2026-04-13T01:20:59Z</time></trkpt><trkpt lat="-30.41856650797549" lon="115.14048618701568"><ele>24.0</ele><time>2026-04-13T01:21:00Z</time></trkpt><trkpt lat="-30.418477344466087" lon="115.14057563816834"><ele>24.0</ele><time>2026-04-13T01:21:01Z</time></trkpt><trkpt lat="-30.41838875509303" lon="115.14066639819555"><ele>24.0</ele><time>2026-04-13T01:21:02Z</time></trkpt><trkpt lat="-30.418298178618397" lon="115.14076468321554"><ele>24.0</ele><time>2026-04-13T01:21:03Z</time></trkpt><trkpt lat="-30.418205895607787" lon="115.14086621652056"><ele>24.0</ele><time>2026-04-13T01:21:04Z</time></trkpt><trkpt lat="-30.418104592346083" lon="115.14097653131331"><ele>23.666666666666668</ele><time>2026-04-13T01:21:05Z</time></trkpt><trkpt lat="-30.41799369764074" lon="115.1410957620699"><ele>23.333333333333336</ele><time>2026-04-13T01:21:06Z</time></trkpt><trkpt lat="-30.41787660840037" lon="115.14122051663351"><ele>23.0</ele><time>2026-04-13T01:21:07Z</time></trkpt><trkpt lat="-30.417760598513436" lon="115.1413477741312"><ele>23.0</ele><time>2026-04-13T01:21:08Z</time></trkpt><trkpt lat="-30.41763113083603" lon="115.14148399352149"><ele>23.0</ele><time>2026-04-13T01:21:09Z</time></trkpt><trkpt lat="-30.417490008956335" lon="115.14163359598415"><ele>23.0</ele><time>2026-04-13T01:21:10Z</time></trkpt><trkpt lat="-30.417348153138246" lon="115.14179029077053"><ele>23.0</ele><time>2026-04-13T01:21:11Z</time></trkpt><trkpt lat="-30.417207878548517" lon="115.14194413746267"><ele>23.0</ele><time>2026-04-13T01:21:12Z</time></trkpt><trkpt lat="-30.41706122610443" lon="115.14210770050875"><ele>23.0</ele><time>2026-04-13T01:21:13Z</time></trkpt><trkpt lat="-30.41691209554423" lon="115.14227499151642"><ele>23.333333333333336</ele><time>2026-04-13T01:21:14Z</time></trkpt><trkpt lat="-30.416761541071054" lon="115.1424472630855"><ele>23.666666666666668</ele><time>2026-04-13T01:21:15Z</time></trkpt><trkpt lat="-30.416607002757257" lon="115.14262025167596"><ele>24.0</ele><time>2026-04-13T01:21:16Z</time></trkpt><trkpt lat="-30.416451823617216" lon="115.14278910495835"><ele>24.0</ele><time>2026-04-13T01:21:17Z</time></trkpt><trkpt lat="-30.416303482553513" lon="115.14295235343322"><ele>24.0</ele><time>2026-04-13T01:21:18Z</time></trkpt><trkpt lat="-30.416153054662065" lon="115.14311537248483"><ele>24.0</ele><time>2026-04-13T01:21:19Z</time></trkpt><trkpt lat="-30.416000609836363" lon="115.14328676638323"><ele>26.0</ele><time>2026-04-13T01:21:20Z</time></trkpt><trkpt lat="-30.415848932498193" lon="115.14345472875536"><ele>28.0</ele><time>2026-04-13T01:21:21Z</time></trkpt><trkpt lat="-30.41569632575784" lon="115.14362791655526"><ele>30.0</ele><time>2026-04-13T01:21:22Z</time></trkpt><trkpt lat="-30.415540379617795" lon="115.14379866634856"><ele>29.0</ele><time>2026-04-13T01:21:23Z</time></trkpt><trkpt lat="-30.41538194049618" lon="115.14397293915187"><ele>28.0</ele><time>2026-04-13T01:21:24Z</time></trkpt><trkpt lat="-30.415225748414837" lon="115.14414602339195"><ele>27.0</ele><time>2026-04-13T01:21:25Z</time></trkpt><trkpt lat="-30.415068637613864" lon="115.14431655126135"><ele>26.0</ele><time>2026-04-13T01:21:26Z</time></trkpt><trkpt lat="-30.41490979780054" lon="115.14449129049717"><ele>25.0</ele><time>2026-04-13T01:21:27Z</time></trkpt><trkpt lat="-30.414748904077413" lon="115.14466343268778"><ele>24.0</ele><time>2026-04-13T01:21:28Z</time></trkpt><trkpt lat="-30.414597870925785" lon="115.14483298296021"><ele>25.0</ele><time>2026-04-13T01:21:29Z</time></trkpt><trkpt lat="-30.41444591004329" lon="115.1450026615562"><ele>26.0</ele><time>2026-04-13T01:21:30Z</time></trkpt><trkpt lat="-30.414288010013397" lon="115.1451793347384"><ele>27.0</ele><time>2026-04-13T01:21:31Z</time></trkpt><trkpt lat="-30.414127359885264" lon="115.14535765825379"><ele>27.0</ele><time>2026-04-13T01:21:32Z</time></trkpt><trkpt lat="-30.413962010822694" lon="115.14553565997252"><ele>27.0</ele><time>2026-04-13T01:21:33Z</time></trkpt><trkpt lat="-30.413795743825048" lon="115.14571819308068"><ele>27.0</ele><time>2026-04-13T01:21:34Z</time></trkpt><trkpt lat="-30.413630378700464" lon="115.14590105352748"><ele>27.0</ele><time>2026-04-13T01:21:35Z</time></trkpt><trkpt lat="-30.413464452614438" lon="115.1460868492569"><ele>27.0</ele><time>2026-04-13T01:21:36Z</time></trkpt><trkpt lat="-30.413294554568996" lon="115.14627524478792"><ele>27.0</ele><time>2026-04-13T01:21:37Z</time></trkpt><trkpt lat="-30.41312599588321" lon="115.1464632952101"><ele>28.5</ele><time>2026-04-13T01:21:38Z</time></trkpt><trkpt lat="-30.41295537512095" lon="115.14665514118917"><ele>30.0</ele><time>2026-04-13T01:21:39Z</time></trkpt><trkpt lat="-30.41278537630524" lon="115.14684167235345"><ele>30.0</ele><time>2026-04-13T01:21:40Z</time></trkpt><trkpt lat="-30.412613152924592" lon="115.14702467128006"><ele>30.0</ele><time>2026-04-13T01:21:41Z</time></trkpt><trkpt lat="-30.41243318582723" lon="115.1472179916073"><ele>30.5</ele><time>2026-04-13T01:21:42Z</time></trkpt><trkpt lat="-30.412248052923673" lon="115.14741615311279"><ele>31.0</ele><time>2026-04-13T01:21:43Z</time></trkpt><trkpt lat="-30.412065553219367" lon="115.14761772792943"><ele>31.0</ele><time>2026-04-13T01:21:44Z</time></trkpt><trkpt lat="-30.41188388600031" lon="115.14781953140233"><ele>31.0</ele><time>2026-04-13T01:21:45Z</time></trkpt><trkpt lat="-30.41170386756599" lon="115.1480213717543"><ele>28.5</ele><time>2026-04-13T01:21:46Z</time></trkpt><trkpt lat="-30.411522404891556" lon="115.14822649928752"><ele>26.0</ele><time>2026-04-13T01:21:47Z</time></trkpt><trkpt lat="-30.4113398198442" lon="115.14843005761456"><ele>26.0</ele><time>2026-04-13T01:21:48Z</time></trkpt><trkpt lat="-30.41115556586007" lon="115.14863442362933"><ele>26.0</ele><time>2026-04-13T01:21:49Z</time></trkpt><trkpt lat="-30.410971637435377" lon="115.14883346904786"><ele>26.0</ele><time>2026-04-13T01:21:50Z</time></trkpt><trkpt lat="-30.41078915720488" lon="115.14903180477644"><ele>26.0</ele><time>2026-04-13T01:21:51Z</time></trkpt><trkpt lat="-30.410610955171705" lon="115.14922844435166"><ele>28.0</ele><time>2026-04-13T01:21:52Z</time></trkpt><trkpt lat="-30.410435110139627" lon="115.14942227589309"><ele>30.0</ele><time>2026-04-13T01:21:53Z</time></trkpt><trkpt lat="-30.410262057432323" lon="115.1496136079677"><ele>30.0</ele><time>2026-04-13T01:21:54Z</time></trkpt><trkpt lat="-30.41008781085798" lon="115.14980496897337"><ele>30.0</ele><time>2026-04-13T01:21:55Z</time></trkpt><trkpt lat="-30.409909936219126" lon="115.14999641514164"><ele>32.5</ele><time>2026-04-13T01:21:56Z</time></trkpt><trkpt lat="-30.4097303689778" lon="115.15018846696707"><ele>35.0</ele><time>2026-04-13T01:21:57Z</time></trkpt><trkpt lat="-30.409551479326904" lon="115.1503823352774"><ele>35.0</ele><time>2026-04-13T01:21:58Z</time></trkpt><trkpt lat="-30.409375447380906" lon="115.15057578661617"><ele>35.0</ele><time>2026-04-13T01:21:59Z</time></trkpt><trkpt lat="-30.409198277043203" lon="115.15076982468196"><ele>35.0</ele><time>2026-04-13T01:22:00Z</time></trkpt><trkpt lat="-30.40902077086424" lon="115.15096691287165"><ele>35.0</ele><time>2026-04-13T01:22:01Z</time></trkpt><trkpt lat="-30.40884603250593" lon="115.15116194241547"><ele>35.0</ele><time>2026-04-13T01:22:02Z</time></trkpt><trkpt lat="-30.408670171127252" lon="115.1513573001703"><ele>35.0</ele><time>2026-04-13T01:22:03Z</time></trkpt><trkpt lat="-30.4084924027909" lon="115.15155593950357"><ele>35.0</ele><time>2026-04-13T01:22:04Z</time></trkpt><trkpt lat="-30.40831316943494" lon="115.15175409624437"><ele>35.0</ele><time>2026-04-13T01:22:05Z</time></trkpt><trkpt lat="-30.408135045336394" lon="115.15195136652126"><ele>36.0</ele><time>2026-04-13T01:22:06Z</time></trkpt><trkpt lat="-30.40795465037756" lon="115.15215005961208"><ele>37.0</ele><time>2026-04-13T01:22:07Z</time></trkpt><trkpt lat="-30.407777326142256" lon="115.15234363651747"><ele>38.0</ele><time>2026-04-13T01:22:08Z</time></trkpt><trkpt lat="-30.407597707719543" lon="115.15253883452691"><ele>39.0</ele><time>2026-04-13T01:22:09Z</time></trkpt><trkpt lat="-30.407422206614598" lon="115.15273334933427"><ele>39.0</ele><time>2026-04-13T01:22:10Z</time></trkpt><trkpt lat="-30.40724321350241" lon="115.15293142272105"><ele>39.0</ele><time>2026-04-13T01:22:11Z</time></trkpt><trkpt lat="-30.407060846070255" lon="115.15313340470864"><ele>36.5</ele><time>2026-04-13T01:22:12Z</time></trkpt><trkpt lat="-30.406879202834713" lon="115.15333187254586"><ele>34.0</ele><time>2026-04-13T01:22:13Z</time></trkpt><trkpt lat="-30.40669778193031" lon="115.15353342266881"><ele>34.0</ele><time>2026-04-13T01:22:14Z</time></trkpt><trkpt lat="-30.406517376509157" lon="115.15373501250345"><ele>34.0</ele><time>2026-04-13T01:22:15Z</time></trkpt><trkpt lat="-30.40633453696783" lon="115.15393831692488"><ele>34.5</ele><time>2026-04-13T01:22:16Z</time></trkpt><trkpt lat="-30.406149100429626" lon="115.15413919515753"><ele>35.0</ele><time>2026-04-13T01:22:17Z</time></trkpt><trkpt lat="-30.405965799686847" lon="115.15433885086291"><ele>35.0</ele><time>2026-04-13T01:22:18Z</time></trkpt><trkpt lat="-30.405784637974097" lon="115.15454016496972"><ele>35.0</ele><time>2026-04-13T01:22:19Z</time></trkpt><trkpt lat="-30.40560770678738" lon="115.1547407894953"><ele>35.0</ele><time>2026-04-13T01:22:20Z</time></trkpt><trkpt lat="-30.405429242784273" lon="115.15493899707387"><ele>35.0</ele><time>2026-04-13T01:22:21Z</time></trkpt><trkpt lat="-30.40525111723359" lon="115.15513289424564"><ele>35.0</ele><time>2026-04-13T01:22:21.999Z</time></trkpt><trkpt lat="-30.405071144403944" lon="115.15532723109241"><ele>35.0</ele><time>2026-04-13T01:22:22.999Z</time></trkpt><trkpt lat="-30.4048899016553" lon="115.15552235026837"><ele>35.5</ele><time>2026-04-13T01:22:23.999Z</time></trkpt><trkpt lat="-30.404706003211363" lon="115.15572431626445"><ele>36.0</ele><time>2026-04-13T01:22:24.999Z</time></trkpt><trkpt lat="-30.40452416549561" lon="115.15592803795327"><ele>38.0</ele><time>2026-04-13T01:22:25.999Z</time></trkpt><trkpt lat="-30.404341807886524" lon="115.15612893924013"><ele>40.0</ele><time>2026-04-13T01:22:26.999Z</time></trkpt><trkpt lat="-30.404162684347558" lon="115.15632583566617"><ele>40.0</ele><time>2026-04-13T01:22:27.999Z</time></trkpt><trkpt lat="-30.403978969303914" lon="115.15652627717279"><ele>40.0</ele><time>2026-04-13T01:22:28.999Z</time></trkpt><trkpt lat="-30.403796669089022" lon="115.15672563145395"><ele>38.5</ele><time>2026-04-13T01:22:29.999Z</time></trkpt><trkpt lat="-30.40361635559042" lon="115.15692642528815"><ele>37.0</ele><time>2026-04-13T01:22:30.999Z</time></trkpt><trkpt lat="-30.4034344574265" lon="115.15712529049746"><ele>37.0</ele><time>2026-04-13T01:22:31.999Z</time></trkpt><trkpt lat="-30.403254709943255" lon="115.15732031965503"><ele>37.0</ele><time>2026-04-13T01:22:32.999Z</time></trkpt><trkpt lat="-30.403074970731765" lon="115.15751434963045"><ele>39.0</ele><time>2026-04-13T01:22:33.999Z</time></trkpt><trkpt lat="-30.402893463988402" lon="115.15771015114845"><ele>41.0</ele><time>2026-04-13T01:22:34.999Z</time></trkpt><trkpt lat="-30.40270986910838" lon="115.15791057081836"><ele>41.0</ele><time>2026-04-13T01:22:35.999Z</time></trkpt><trkpt lat="-30.402526952318755" lon="115.1581135918449"><ele>41.0</ele><time>2026-04-13T01:22:36.999Z</time></trkpt><trkpt lat="-30.40234745710178" lon="115.1583095914094"><ele>43.0</ele><time>2026-04-13T01:22:37.999Z</time></trkpt><trkpt lat="-30.402171827732385" lon="115.15849913261754"><ele>45.0</ele><time>2026-04-13T01:22:38.999Z</time></trkpt><trkpt lat="-30.402001990879366" lon="115.15868646442162"><ele>45.5</ele><time>2026-04-13T01:22:39.999Z</time></trkpt><trkpt lat="-30.401836032510193" lon="115.15887185904273"><ele>46.0</ele><time>2026-04-13T01:22:40.999Z</time></trkpt><trkpt lat="-30.40167142312453" lon="115.15905558574443"><ele>48.5</ele><time>2026-04-13T01:22:41.999Z</time></trkpt><trkpt lat="-30.401504050998685" lon="115.15924158110693"><ele>51.0</ele><time>2026-04-13T01:22:42.999Z</time></trkpt><trkpt lat="-30.401338689889545" lon="115.15942359617391"><ele>51.33333333333333</ele><time>2026-04-13T01:22:43.999Z</time></trkpt><trkpt lat="-30.40118406589817" lon="115.15959707715552"><ele>51.666666666666664</ele><time>2026-04-13T01:22:44.999Z</time></trkpt><trkpt lat="-30.401041436480583" lon="115.15976488549087"><ele>52.0</ele><time>2026-04-13T01:22:45.999Z</time></trkpt><trkpt lat="-30.400913449774592" lon="115.15992512037182"><ele>53.0</ele><time>2026-04-13T01:22:46.999Z</time></trkpt><trkpt lat="-30.40078811813516" lon="115.16009393824524"><ele>54.0</ele><time>2026-04-13T01:22:47.999Z</time></trkpt><trkpt lat="-30.40066613861242" lon="115.16026995761744"><ele>55.0</ele><time>2026-04-13T01:22:48.999Z</time></trkpt><trkpt lat="-30.400550624072878" lon="115.16044500150531"><ele>54.666666666666664</ele><time>2026-04-13T01:22:49.999Z</time></trkpt><trkpt lat="-30.400450121709028" lon="115.1606072694583"><ele>54.33333333333333</ele><time>2026-04-13T01:22:50.999Z</time></trkpt><trkpt lat="-30.400359514166734" lon="115.1607553041582"><ele>54.0</ele><time>2026-04-13T01:22:51.999Z</time></trkpt><trkpt lat="-30.400280050595676" lon="115.16087917328986"><ele>54.5</ele><time>2026-04-13T01:22:52.999Z</time></trkpt><trkpt lat="-30.400215399505303" lon="115.16097866496311"><ele>55.0</ele><time>2026-04-13T01:22:53.999Z</time></trkpt><trkpt lat="-30.400166773193376" lon="115.16106063860246"><ele>55.5</ele><time>2026-04-13T01:22:54.999Z</time></trkpt><trkpt lat="-30.400119801383696" lon="115.16115197369739"><ele>56.0</ele><time>2026-04-13T01:22:56.999Z</time></trkpt><trkpt lat="-30.400187061674945" lon="115.16114499476538"><ele>56.5</ele><time>2026-04-13T01:23:16Z</time></trkpt><trkpt lat="-30.400243225010005" lon="115.16106537946065"><ele>57.0</ele><time>2026-04-13T01:23:17Z</time></trkpt><trkpt lat="-30.400278071301056" lon="115.16098088829143"><ele>57.0</ele><time>2026-04-13T01:23:18Z</time></trkpt><trkpt lat="-30.400311493843503" lon="115.16091634065903"><ele>57.0</ele><time>2026-04-13T01:23:19Z</time></trkpt><trkpt lat="-30.400353688060815" lon="115.16083023849966"><ele>57.0</ele><time>2026-04-13T01:23:20Z</time></trkpt><trkpt lat="-30.400402454178156" lon="115.16073872177333"><ele>57.0</ele><time>2026-04-13T01:23:21Z</time></trkpt><trkpt lat="-30.400447979192716" lon="115.16066372752442"><ele>57.0</ele><time>2026-04-13T01:23:22Z</time></trkpt><trkpt lat="-30.400493511520672" lon="115.1605959676071"><ele>57.0</ele><time>2026-04-13T01:23:23Z</time></trkpt><trkpt lat="-30.40053561383829" lon="115.16053871901683"><ele>56.6</ele><time>2026-04-13T01:23:24Z</time></trkpt><trkpt lat="-30.40056268664738" lon="115.16043141654161"><ele>56.2</ele><time>2026-04-13T01:23:26Z</time></trkpt><trkpt lat="-30.400501646391614" lon="115.16034163944282"><ele>55.8</ele><time>2026-04-13T01:23:28Z</time></trkpt><trkpt lat="-30.400397067983004" lon="115.16028750647362"><ele>55.4</ele><time>2026-04-13T01:23:30Z</time></trkpt><trkpt lat="-30.400331826993785" lon="115.16024528126094"><ele>55.0</ele><time>2026-04-13T01:23:31Z</time></trkpt><trkpt lat="-30.40026774646432" lon="115.16019827088208"><ele>54.83333333333333</ele><time>2026-04-13T01:23:32Z</time></trkpt><trkpt lat="-30.400211247145503" lon="115.16015879660384"><ele>54.666666666666664</ele><time>2026-04-13T01:23:33Z</time></trkpt><trkpt lat="-30.40014230809495" lon="115.16011309501872"><ele>54.5</ele><time>2026-04-13T01:23:34Z</time></trkpt><trkpt lat="-30.400055959095653" lon="115.16006179881636"><ele>54.33333333333333</ele><time>2026-04-13T01:23:35Z</time></trkpt><trkpt lat="-30.399962577107416" lon="115.16001084816465"><ele>54.166666666666664</ele><time>2026-04-13T01:23:36Z</time></trkpt><trkpt lat="-30.399878627114983" lon="115.15995882710274"><ele>54.0</ele><time>2026-04-13T01:23:37Z</time></trkpt><trkpt lat="-30.399792146000987" lon="115.15990132675553"><ele>53.333333333333336</ele><time>2026-04-13T01:23:38Z</time></trkpt><trkpt lat="-30.39971124012048" lon="115.1598438270501"><ele>52.66666666666667</ele><time>2026-04-13T01:23:39Z</time></trkpt><trkpt lat="-30.399639258169042" lon="115.15979736422989"><ele>52.0</ele><time>2026-04-13T01:23:40Z</time></trkpt><trkpt lat="-30.399566406264604" lon="115.15977597134503"><ele>51.333333333333336</ele><time>2026-04-13T01:23:41Z</time></trkpt><trkpt lat="-30.39949210867622" lon="115.1597376869962"><ele>50.66666666666667</ele><time>2026-04-13T01:23:42Z</time></trkpt><trkpt lat="-30.39942150050151" lon="115.15969608261958"><ele>50.0</ele><time>2026-04-13T01:23:43Z</time></trkpt><trkpt lat="-30.399358692792184" lon="115.15965035405965"><ele>49.833333333333336</ele><time>2026-04-13T01:23:44Z</time></trkpt><trkpt lat="-30.39929696288088" lon="115.15959785386359"><ele>49.66666666666667</ele><time>2026-04-13T01:23:45Z</time></trkpt><trkpt lat="-30.399228705797423" lon="115.15953578139364"><ele>49.5</ele><time>2026-04-13T01:23:46Z</time></trkpt><trkpt lat="-30.399158846103386" lon="115.15948095797543"><ele>49.33333333333333</ele><time>2026-04-13T01:23:47Z</time></trkpt><trkpt lat="-30.399082927092557" lon="115.15942226357113"><ele>49.166666666666664</ele><time>2026-04-13T01:23:48Z</time></trkpt><trkpt lat="-30.39901220674909" lon="115.15936106787403"><ele>49.0</ele><time>2026-04-13T01:23:49Z</time></trkpt><trkpt lat="-30.398943291116034" lon="115.15929950536692"><ele>49.0</ele><time>2026-04-13T01:23:50Z</time></trkpt><trkpt lat="-30.398868225445483" lon="115.15924675465413"><ele>49.0</ele><time>2026-04-13T01:23:52Z</time></trkpt><trkpt lat="-30.39883527199599" lon="115.15917055536964"><ele>49.0</ele><time>2026-04-13T01:23:54Z</time></trkpt><trkpt lat="-30.398798555320177" lon="115.15911078215669"><ele>49.0</ele><time>2026-04-13T01:23:55Z</time></trkpt><trkpt lat="-30.398725165220306" lon="115.15900122707326"><ele>49.0</ele><time>2026-04-13T01:23:57Z</time></trkpt><trkpt lat="-30.398629259410082" lon="115.15891466709577"><ele>49.166666666666664</ele><time>2026-04-13T01:23:59Z</time></trkpt><trkpt lat="-30.398574907248822" lon="115.15887436114207"><ele>49.33333333333333</ele><time>2026-04-13T01:24:00Z</time></trkpt><trkpt lat="-30.398508180687784" lon="115.15883227167097"><ele>49.5</ele><time>2026-04-13T01:24:01Z</time></trkpt><trkpt lat="-30.398434487701074" lon="115.15878269291237"><ele>49.66666666666667</ele><time>2026-04-13T01:24:02Z</time></trkpt><trkpt lat="-30.3983623559253" lon="115.1587326091443"><ele>49.833333333333336</ele><time>2026-04-13T01:24:03Z</time></trkpt><trkpt lat="-30.39828745253258" lon="115.15867603664594"><ele>50.0</ele><time>2026-04-13T01:24:04Z</time></trkpt><trkpt lat="-30.398207363416255" lon="115.15862628877963"><ele>50.00000000000001</ele><time>2026-04-13T01:24:05Z</time></trkpt><trkpt lat="-30.398121947666425" lon="115.15857550954651"><ele>50.0</ele><time>2026-04-13T01:24:06Z</time></trkpt><trkpt lat="-30.398041259092782" lon="115.15852545629366"><ele>50.0</ele><time>2026-04-13T01:24:07Z</time></trkpt><trkpt lat="-30.397961886529615" lon="115.15847351866698"><ele>50.0</ele><time>2026-04-13T01:24:08Z</time></trkpt><trkpt lat="-30.397885870317054" lon="115.15842916577586"><ele>50.00000000000001</ele><time>2026-04-13T01:24:09Z</time></trkpt><trkpt lat="-30.39781393718797" lon="115.1583872994365"><ele>50.0</ele><time>2026-04-13T01:24:10Z</time></trkpt><trkpt lat="-30.397749234533077" lon="115.15833971265468"><ele>50.50000000000001</ele><time>2026-04-13T01:24:11Z</time></trkpt><trkpt lat="-30.39767693197939" lon="115.15829999795208"><ele>51.0</ele><time>2026-04-13T01:24:12Z</time></trkpt><trkpt lat="-30.397603055916626" lon="115.158259401241"><ele>51.5</ele><time>2026-04-13T01:24:13Z</time></trkpt><trkpt lat="-30.39752687629484" lon="115.15821990859361"><ele>52.0</ele><time>2026-04-13T01:24:14Z</time></trkpt><trkpt lat="-30.397448252829367" lon="115.15817863109821"><ele>52.50000000000001</ele><time>2026-04-13T01:24:15Z</time></trkpt><trkpt lat="-30.397368577983315" lon="115.15813595383065"><ele>53.0</ele><time>2026-04-13T01:24:16Z</time></trkpt><trkpt lat="-30.397293875403328" lon="115.15809027475261"><ele>53.00000000000001</ele><time>2026-04-13T01:24:17Z</time></trkpt><trkpt lat="-30.39722839933623" lon="115.15804671908805"><ele>53.0</ele><time>2026-04-13T01:24:18Z</time></trkpt><trkpt lat="-30.39715069077988" lon="115.158012214607"><ele>53.0</ele><time>2026-04-13T01:24:19Z</time></trkpt><trkpt lat="-30.3970632690014" lon="115.15797964772975"><ele>53.0</ele><time>2026-04-13T01:24:20Z</time></trkpt><trkpt lat="-30.39697308157453" lon="115.15794688512523"><ele>53.00000000000001</ele><time>2026-04-13T01:24:21Z</time></trkpt><trkpt lat="-30.396880411449487" lon="115.15791204100684"><ele>53.0</ele><time>2026-04-13T01:24:22Z</time></trkpt><trkpt lat="-30.39678430374744" lon="115.15786631723425"><ele>53.599999999999994</ele><time>2026-04-13T01:24:23Z</time></trkpt><trkpt lat="-30.396680194354868" lon="115.15780442464136"><ele>54.199999999999996</ele><time>2026-04-13T01:24:24Z</time></trkpt><trkpt lat="-30.39657893619607" lon="115.15773874120114"><ele>54.8</ele><time>2026-04-13T01:24:25Z</time></trkpt><trkpt lat="-30.396483250474212" lon="115.15767716079502"><ele>55.4</ele><time>2026-04-13T01:24:26Z</time></trkpt><trkpt lat="-30.39639579277074" lon="115.15761920492206"><ele>56.0</ele><time>2026-04-13T01:24:27Z</time></trkpt><trkpt lat="-30.396316111272736" lon="115.15756711510869"><ele>55.8</ele><time>2026-04-13T01:24:28Z</time></trkpt><trkpt lat="-30.396235225587027" lon="115.15752003373547"><ele>55.599999999999994</ele><time>2026-04-13T01:24:29Z</time></trkpt><trkpt lat="-30.396148646365713" lon="115.15746715361476"><ele>55.4</ele><time>2026-04-13T01:24:30Z</time></trkpt><trkpt lat="-30.396060829955932" lon="115.15741247117285"><ele>55.2</ele><time>2026-04-13T01:24:31Z</time></trkpt><trkpt lat="-30.39597108858116" lon="115.15735841966786"><ele>55.0</ele><time>2026-04-13T01:24:32Z</time></trkpt><trkpt lat="-30.395880201734382" lon="115.15730236843801"><ele>55.0</ele><time>2026-04-13T01:24:33Z</time></trkpt><trkpt lat="-30.395788590658185" lon="115.15724553781186"><ele>55.0</ele><time>2026-04-13T01:24:34Z</time></trkpt><trkpt lat="-30.39570037840943" lon="115.157192270131"><ele>55.0</ele><time>2026-04-13T01:24:35Z</time></trkpt><trkpt lat="-30.39561990307369" lon="115.15714201396209"><ele>55.0</ele><time>2026-04-13T01:24:35.999Z</time></trkpt><trkpt lat="-30.395538427512044" lon="115.1570860192696"><ele>55.0</ele><time>2026-04-13T01:24:36.999Z</time></trkpt><trkpt lat="-30.395459007175855" lon="115.15703006487733"><ele>55.2</ele><time>2026-04-13T01:24:37.999Z</time></trkpt><trkpt lat="-30.395381321237796" lon="115.15697615504081"><ele>55.4</ele><time>2026-04-13T01:24:38.999Z</time></trkpt><trkpt lat="-30.395305093503907" lon="115.15692174171062"><ele>55.599999999999994</ele><time>2026-04-13T01:24:39.999Z</time></trkpt><trkpt lat="-30.395221935592343" lon="115.15686875518932"><ele>55.8</ele><time>2026-04-13T01:24:40.999Z</time></trkpt><trkpt lat="-30.39513778951844" lon="115.15682295207186"><ele>56.0</ele><time>2026-04-13T01:24:41.999Z</time></trkpt><trkpt lat="-30.395058406139135" lon="115.15678152520798"><ele>56.0</ele><time>2026-04-13T01:24:42.999Z</time></trkpt><trkpt lat="-30.394982086527886" lon="115.15673409060192"><ele>55.99999999999999</ele><time>2026-04-13T01:24:43.999Z</time></trkpt><trkpt lat="-30.394905609794172" lon="115.15667761870829"><ele>55.99999999999999</ele><time>2026-04-13T01:24:44.999Z</time></trkpt><trkpt lat="-30.394828787614347" lon="115.15662277982815"><ele>56.0</ele><time>2026-04-13T01:24:45.999Z</time></trkpt><trkpt lat="-30.39474421349879" lon="115.15656745310777"><ele>56.0</ele><time>2026-04-13T01:24:46.999Z</time></trkpt><trkpt lat="-30.39466204546528" lon="115.156513568612"><ele>54.8</ele><time>2026-04-13T01:24:47.999Z</time></trkpt><trkpt lat="-30.39457530417616" lon="115.15646225816022"><ele>53.599999999999994</ele><time>2026-04-13T01:24:48.999Z</time></trkpt><trkpt lat="-30.394490353008802" lon="115.15640284548246"><ele>52.4</ele><time>2026-04-13T01:24:49.999Z</time></trkpt><trkpt lat="-30.39441021230758" lon="115.15634139497254"><ele>51.2</ele><time>2026-04-13T01:24:50.999Z</time></trkpt><trkpt lat="-30.394334014357614" lon="115.15627486437391"><ele>50.0</ele><time>2026-04-13T01:24:51.999Z</time></trkpt><trkpt lat="-30.39425879680664" lon="115.15621609827475"><ele>50.0</ele><time>2026-04-13T01:24:52.999Z</time></trkpt><trkpt lat="-30.394182045152004" lon="115.15616095682236"><ele>50.0</ele><time>2026-04-13T01:24:53.999Z</time></trkpt><trkpt lat="-30.39410512652276" lon="115.15610354467424"><ele>50.0</ele><time>2026-04-13T01:24:54.999Z</time></trkpt><trkpt lat="-30.394012909486772" lon="115.15604649145638"><ele>50.0</ele><time>2026-04-13T01:24:55.999Z</time></trkpt><trkpt lat="-30.39392321006565" lon="115.15599269514202"><ele>50.0</ele><time>2026-04-13T01:24:56.999Z</time></trkpt><trkpt lat="-30.393827884038046" lon="115.15594018623287"><ele>49.8</ele><time>2026-04-13T01:24:57.999Z</time></trkpt><trkpt lat="-30.39373447974752" lon="115.15588504449278"><ele>49.6</ele><time>2026-04-13T01:24:58.999Z</time></trkpt><trkpt lat="-30.393645706292332" lon="115.15582807173845"><ele>49.400000000000006</ele><time>2026-04-13T01:24:59.999Z</time></trkpt><trkpt lat="-30.393563373146343" lon="115.15577858811335"><ele>49.2</ele><time>2026-04-13T01:25:00.999Z</time></trkpt><trkpt lat="-30.39348275810128" lon="115.15572921858616"><ele>49.0</ele><time>2026-04-13T01:25:01.999Z</time></trkpt><trkpt lat="-30.393407316094674" lon="115.15568173679094"><ele>48.99999999999999</ele><time>2026-04-13T01:25:02.999Z</time></trkpt><trkpt lat="-30.393336016064527" lon="115.1556384128963"><ele>49.0</ele><time>2026-04-13T01:25:03.999Z</time></trkpt><trkpt lat="-30.393261119177748" lon="115.15559406383619"><ele>49.0</ele><time>2026-04-13T01:25:04.999Z</time></trkpt><trkpt lat="-30.39317700731617" lon="115.15554024161408"><ele>49.0</ele><time>2026-04-13T01:25:05.999Z</time></trkpt><trkpt lat="-30.393092110236594" lon="115.15548665955859"><ele>48.99999999999999</ele><time>2026-04-13T01:25:06.999Z</time></trkpt><trkpt lat="-30.393019109102486" lon="115.1554323599759"><ele>49.0</ele><time>2026-04-13T01:25:07.999Z</time></trkpt><trkpt lat="-30.39295377400031" lon="115.15537745097889"><ele>48.33333333333333</ele><time>2026-04-13T01:25:08.999Z</time></trkpt><trkpt lat="-30.39288515620867" lon="115.15531537212094"><ele>47.666666666666664</ele><time>2026-04-13T01:25:10Z</time></trkpt><trkpt lat="-30.392815989736683" lon="115.1552590727894"><ele>47.0</ele><time>2026-04-13T01:25:11Z</time></trkpt><trkpt lat="-30.392744345016443" lon="115.15521001721235"><ele>46.33333333333333</ele><time>2026-04-13T01:25:12Z</time></trkpt><trkpt lat="-30.392672823507557" lon="115.15516685604995"><ele>45.666666666666664</ele><time>2026-04-13T01:25:13Z</time></trkpt><trkpt lat="-30.392610150680426" lon="115.1551172603901"><ele>45.0</ele><time>2026-04-13T01:25:14Z</time></trkpt><trkpt lat="-30.392555548084513" lon="115.15506959562032"><ele>45.0</ele><time>2026-04-13T01:25:15Z</time></trkpt><trkpt lat="-30.392492278961086" lon="115.15502870457901"><ele>45.0</ele><time>2026-04-13T01:25:16Z</time></trkpt><trkpt lat="-30.392413460354614" lon="115.15499741499205"><ele>45.0</ele><time>2026-04-13T01:25:17Z</time></trkpt><trkpt lat="-30.392320566389735" lon="115.15496072585755"><ele>45.0</ele><time>2026-04-13T01:25:18Z</time></trkpt><trkpt lat="-30.392229449594925" lon="115.15492412889866"><ele>45.0</ele><time>2026-04-13T01:25:19Z</time></trkpt><trkpt lat="-30.392137138516066" lon="115.15488868165414"><ele>45.0</ele><time>2026-04-13T01:25:20Z</time></trkpt><trkpt lat="-30.392056681605546" lon="115.15485356070616"><ele>45.333333333333336</ele><time>2026-04-13T01:25:21Z</time></trkpt><trkpt lat="-30.391983212862275" lon="115.15480681733905"><ele>45.666666666666664</ele><time>2026-04-13T01:25:22Z</time></trkpt><trkpt lat="-30.39190909009005" lon="115.15475188597587"><ele>46.0</ele><time>2026-04-13T01:25:23Z</time></trkpt><trkpt lat="-30.39184216891859" lon="115.15468909769366"><ele>46.33333333333333</ele><time>2026-04-13T01:25:24Z</time></trkpt><trkpt lat="-30.391767708773376" lon="115.1546282530894"><ele>46.666666666666664</ele><time>2026-04-13T01:25:25Z</time></trkpt><trkpt lat="-30.391686757985592" lon="115.15457364165904"><ele>47.0</ele><time>2026-04-13T01:25:26Z</time></trkpt><trkpt lat="-30.391612506710977" lon="115.15452844950634"><ele>47.0</ele><time>2026-04-13T01:25:27Z</time></trkpt><trkpt lat="-30.391538989869662" lon="115.15448738934785"><ele>47.0</ele><time>2026-04-13T01:25:28Z</time></trkpt><trkpt lat="-30.39146227112392" lon="115.15444972855289"><ele>47.0</ele><time>2026-04-13T01:25:29Z</time></trkpt><trkpt lat="-30.39139069386104" lon="115.15442262218465"><ele>47.0</ele><time>2026-04-13T01:25:30Z</time></trkpt><trkpt lat="-30.39133052267397" lon="115.1543957913496"><ele>47.0</ele><time>2026-04-13T01:25:31Z</time></trkpt><trkpt lat="-30.39126318287571" lon="115.15435955736622"><ele>47.0</ele><time>2026-04-13T01:25:32Z</time></trkpt><trkpt lat="-30.391188209386566" lon="115.1543158020702"><ele>47.0</ele><time>2026-04-13T01:25:33Z</time></trkpt><trkpt lat="-30.391107213387368" lon="115.15427385708426"><ele>47.0</ele><time>2026-04-13T01:25:34Z</time></trkpt><trkpt lat="-30.39103279664352" lon="115.1542353914093"><ele>47.0</ele><time>2026-04-13T01:25:35Z</time></trkpt><trkpt lat="-30.39096087092331" lon="115.15418460535427"><ele>47.0</ele><time>2026-04-13T01:25:36Z</time></trkpt><trkpt lat="-30.390885623302328" lon="115.15412676234168"><ele>47.0</ele><time>2026-04-13T01:25:37Z</time></trkpt><trkpt lat="-30.39080702787856" lon="115.154079349615"><ele>47.0</ele><time>2026-04-13T01:25:38Z</time></trkpt><trkpt lat="-30.390717829623018" lon="115.15402245991521"><ele>47.0</ele><time>2026-04-13T01:25:39Z</time></trkpt><trkpt lat="-30.39063122565562" lon="115.15396885566977"><ele>47.0</ele><time>2026-04-13T01:25:40Z</time></trkpt><trkpt lat="-30.39054432719733" lon="115.15390995063078"><ele>47.0</ele><time>2026-04-13T01:25:41Z</time></trkpt><trkpt lat="-30.390460838828492" lon="115.15384548656685"><ele>47.0</ele><time>2026-04-13T01:25:42Z</time></trkpt><trkpt lat="-30.390373375594983" lon="115.15378386612996"><ele>47.0</ele><time>2026-04-13T01:25:43Z</time></trkpt><trkpt lat="-30.39028772307242" lon="115.15372968791694"><ele>47.2</ele><time>2026-04-13T01:25:44Z</time></trkpt><trkpt lat="-30.390200508884767" lon="115.15368073905265"><ele>47.400000000000006</ele><time>2026-04-13T01:25:45Z</time></trkpt><trkpt lat="-30.390112926995723" lon="115.15362985049185"><ele>47.599999999999994</ele><time>2026-04-13T01:25:46Z</time></trkpt><trkpt lat="-30.390028652386363" lon="115.15357816428002"><ele>47.8</ele><time>2026-04-13T01:25:47Z</time></trkpt><trkpt lat="-30.38994795860993" lon="115.15352215539353"><ele>48.0</ele><time>2026-04-13T01:25:48Z</time></trkpt><trkpt lat="-30.38987315011942" lon="115.15347082522094"><ele>48.0</ele><time>2026-04-13T01:25:49Z</time></trkpt><trkpt lat="-30.38980267995586" lon="115.15341749213508"><ele>48.0</ele><time>2026-04-13T01:25:50Z</time></trkpt><trkpt lat="-30.38974178977857" lon="115.15336639813368"><ele>48.0</ele><time>2026-04-13T01:25:51Z</time></trkpt><trkpt lat="-30.389685102058422" lon="115.15331993317731"><ele>48.0</ele><time>2026-04-13T01:25:52Z</time></trkpt><trkpt lat="-30.389618688776434" lon="115.15328150120372"><ele>48.0</ele><time>2026-04-13T01:25:53Z</time></trkpt><trkpt lat="-30.389543075602" lon="115.15323894718169"><ele>48.0</ele><time>2026-04-13T01:25:54Z</time></trkpt><trkpt lat="-30.389466979937282" lon="115.15318765107148"><ele>47.833333333333336</ele><time>2026-04-13T01:25:55Z</time></trkpt><trkpt lat="-30.38939908192675" lon="115.15313316846438"><ele>47.666666666666664</ele><time>2026-04-13T01:25:56Z</time></trkpt><trkpt lat="-30.389336842070318" lon="115.15307911968051"><ele>47.5</ele><time>2026-04-13T01:25:57Z</time></trkpt><trkpt lat="-30.389269497262998" lon="115.15303104603312"><ele>47.33333333333333</ele><time>2026-04-13T01:25:58Z</time></trkpt><trkpt lat="-30.389199836322184" lon="115.1529946427502"><ele>47.166666666666664</ele><time>2026-04-13T01:25:59Z</time></trkpt><trkpt lat="-30.389125475717403" lon="115.15294857892015"><ele>47.0</ele><time>2026-04-13T01:26:00Z</time></trkpt><trkpt lat="-30.389050484722624" lon="115.15290983432011"><ele>47.0</ele><time>2026-04-13T01:26:01Z</time></trkpt><trkpt lat="-30.388985353016984" lon="115.1528720953713"><ele>47.0</ele><time>2026-04-13T01:26:02Z</time></trkpt><trkpt lat="-30.388920602614807" lon="115.15284174176749"><ele>47.0</ele><time>2026-04-13T01:26:03Z</time></trkpt><trkpt lat="-30.388809342898192" lon="115.15278327604301"><ele>47.0</ele><time>2026-04-13T01:26:05Z</time></trkpt><trkpt lat="-30.3887523090756" lon="115.1527340133218"><ele>47.0</ele><time>2026-04-13T01:26:06Z</time></trkpt><trkpt lat="-30.388701193726863" lon="115.15267496819855"><ele>47.0</ele><time>2026-04-13T01:26:07Z</time></trkpt><trkpt lat="-30.388645957211757" lon="115.15261253337407"><ele>46.83333333333333</ele><time>2026-04-13T01:26:08Z</time></trkpt><trkpt lat="-30.38858038971766" lon="115.15255233037728"><ele>46.666666666666664</ele><time>2026-04-13T01:26:09Z</time></trkpt><trkpt lat="-30.388525342159085" lon="115.15249843397139"><ele>46.5</ele><time>2026-04-13T01:26:10Z</time></trkpt><trkpt lat="-30.38847115477954" lon="115.15244873640151"><ele>46.333333333333336</ele><time>2026-04-13T01:26:11Z</time></trkpt><trkpt lat="-30.388410286793935" lon="115.15240059304993"><ele>46.16666666666667</ele><time>2026-04-13T01:26:12Z</time></trkpt><trkpt lat="-30.38835294590317" lon="115.15234922228095"><ele>46.0</ele><time>2026-04-13T01:26:13Z</time></trkpt><trkpt lat="-30.388281392595285" lon="115.1522471444315"><ele>45.599999999999994</ele><time>2026-04-13T01:26:15Z</time></trkpt><trkpt lat="-30.388254018813022" lon="115.15214552006613"><ele>45.2</ele><time>2026-04-13T01:26:17Z</time></trkpt><trkpt lat="-30.388231861185414" lon="115.15207690222839"><ele>44.8</ele><time>2026-04-13T01:26:32Z</time></trkpt><trkpt lat="-30.38819375244526" lon="115.1519845382988"><ele>44.400000000000006</ele><time>2026-04-13T01:26:34Z</time></trkpt><trkpt lat="-30.38811533660774" lon="115.15188761803556"><ele>44.0</ele><time>2026-04-13T01:26:36Z</time></trkpt><trkpt lat="-30.388027190459574" lon="115.15179512619173"><ele>44.0</ele><time>2026-04-13T01:26:38Z</time></trkpt><trkpt lat="-30.387924285072394" lon="115.15174323844406"><ele>44.0</ele><time>2026-04-13T01:26:40Z</time></trkpt><trkpt lat="-30.387857740721326" lon="115.15171124805784"><ele>44.0</ele><time>2026-04-13T01:26:41Z</time></trkpt><trkpt lat="-30.38778492057283" lon="115.15167019473114"><ele>44.0</ele><time>2026-04-13T01:26:42Z</time></trkpt><trkpt lat="-30.387718342576573" lon="115.15162455798638"><ele>44.0</ele><time>2026-04-13T01:26:43Z</time></trkpt><trkpt lat="-30.387642582758037" lon="115.151566321895"><ele>44.0</ele><time>2026-04-13T01:26:44Z</time></trkpt><trkpt lat="-30.38755653536645" lon="115.15150849406474"><ele>44.6</ele><time>2026-04-13T01:26:45Z</time></trkpt><trkpt lat="-30.38746725979699" lon="115.15144652175441"><ele>45.2</ele><time>2026-04-13T01:26:45.999Z</time></trkpt><trkpt lat="-30.387373907594498" lon="115.15137842621266"><ele>45.800000000000004</ele><time>2026-04-13T01:26:46.999Z</time></trkpt><trkpt lat="-30.3872842030415" lon="115.1513115039049"><ele>46.400000000000006</ele><time>2026-04-13T01:26:47.999Z</time></trkpt><trkpt lat="-30.387204513390042" lon="115.15124616517524"><ele>47.0</ele><time>2026-04-13T01:26:48.999Z</time></trkpt><trkpt lat="-30.387128196613197" lon="115.15118095655313"><ele>47.6</ele><time>2026-04-13T01:26:49.999Z</time></trkpt><trkpt lat="-30.387054788336442" lon="115.15111036859352"><ele>48.2</ele><time>2026-04-13T01:26:50.999Z</time></trkpt><trkpt lat="-30.38698429753002" lon="115.15104048568594"><ele>48.8</ele><time>2026-04-13T01:26:51.999Z</time></trkpt><trkpt lat="-30.386913870210332" lon="115.15096423879199"><ele>49.4</ele><time>2026-04-13T01:26:52.999Z</time></trkpt><trkpt lat="-30.386838246631708" lon="115.15088974469178"><ele>50.0</ele><time>2026-04-13T01:26:53.999Z</time></trkpt><trkpt lat="-30.38675972714953" lon="115.15082607879307"><ele>50.00000000000001</ele><time>2026-04-13T01:26:54.999Z</time></trkpt><trkpt lat="-30.386693309231703" lon="115.15076526667087"><ele>50.0</ele><time>2026-04-13T01:26:55.999Z</time></trkpt><trkpt lat="-30.386630822445888" lon="115.15070138935856"><ele>50.0</ele><time>2026-04-13T01:26:56.999Z</time></trkpt><trkpt lat="-30.386561333264947" lon="115.15064751649257"><ele>50.0</ele><time>2026-04-13T01:26:57.999Z</time></trkpt><trkpt lat="-30.38648686615952" lon="115.15058782411873"><ele>50.00000000000001</ele><time>2026-04-13T01:26:58.999Z</time></trkpt><trkpt lat="-30.3864127505896" lon="115.1505320850203"><ele>50.0</ele><time>2026-04-13T01:26:59.999Z</time></trkpt><trkpt lat="-30.386338983928397" lon="115.15049594161397"><ele>49.833333333333336</ele><time>2026-04-13T01:27:00.999Z</time></trkpt><trkpt lat="-30.386265483130725" lon="115.15044853566192"><ele>49.66666666666667</ele><time>2026-04-13T01:27:01.999Z</time></trkpt><trkpt lat="-30.38619681175134" lon="115.15039151458126"><ele>49.5</ele><time>2026-04-13T01:27:02.999Z</time></trkpt><trkpt lat="-30.386124257183127" lon="115.15036068430024"><ele>49.33333333333333</ele><time>2026-04-13T01:27:03.999Z</time></trkpt><trkpt lat="-30.386037183836784" lon="115.15032813095968"><ele>49.166666666666664</ele><time>2026-04-13T01:27:04.999Z</time></trkpt><trkpt lat="-30.385966502476137" lon="115.15029036406341"><ele>49.0</ele><time>2026-04-13T01:27:05.999Z</time></trkpt><trkpt lat="-30.385907367598204" lon="115.15024035421553"><ele>49.0</ele><time>2026-04-13T01:27:06.999Z</time></trkpt><trkpt lat="-30.385784992630413" lon="115.15017540879083"><ele>49.0</ele><time>2026-04-13T01:27:08.999Z</time></trkpt><trkpt lat="-30.38571007018571" lon="115.1501303089332"><ele>49.0</ele><time>2026-04-13T01:27:09.999Z</time></trkpt><trkpt lat="-30.385633772939006" lon="115.1500818592513"><ele>49.0</ele><time>2026-04-13T01:27:10.999Z</time></trkpt><trkpt lat="-30.385561510583678" lon="115.15004633151625"><ele>49.0</ele><time>2026-04-13T01:27:11.999Z</time></trkpt><trkpt lat="-30.385492604343135" lon="115.15001120914036"><ele>49.33333333333333</ele><time>2026-04-13T01:27:12.999Z</time></trkpt><trkpt lat="-30.385420038020147" lon="115.14997936838175"><ele>49.666666666666664</ele><time>2026-04-13T01:27:13.999Z</time></trkpt><trkpt lat="-30.385334725668386" lon="115.14994624011325"><ele>50.0</ele><time>2026-04-13T01:27:15Z</time></trkpt><trkpt lat="-30.38524222646463" lon="115.14991011599771"><ele>50.33333333333333</ele><time>2026-04-13T01:27:16Z</time></trkpt><trkpt lat="-30.385158166714568" lon="115.14987411117671"><ele>50.666666666666664</ele><time>2026-04-13T01:27:17Z</time></trkpt><trkpt lat="-30.385072203659888" lon="115.14983336671314"><ele>51.0</ele><time>2026-04-13T01:27:18Z</time></trkpt><trkpt lat="-30.384995477535814" lon="115.14979322768926"><ele>51.333333333333336</ele><time>2026-04-13T01:27:19Z</time></trkpt><trkpt lat="-30.384919035418985" lon="115.14975926689004"><ele>51.66666666666667</ele><time>2026-04-13T01:27:20Z</time></trkpt><trkpt lat="-30.384829468804895" lon="115.14973523523925"><ele>52.0</ele><time>2026-04-13T01:27:21Z</time></trkpt><trkpt lat="-30.384742402682036" lon="115.14971410754336"><ele>52.333333333333336</ele><time>2026-04-13T01:27:22Z</time></trkpt><trkpt lat="-30.384659610459234" lon="115.14970131950311"><ele>52.66666666666667</ele><time>2026-04-13T01:27:23Z</time></trkpt><trkpt lat="-30.38457559448886" lon="115.1496886209244"><ele>53.0</ele><time>2026-04-13T01:27:24Z</time></trkpt><trkpt lat="-30.384496456827513" lon="115.14966503603084"><ele>53.00000000000001</ele><time>2026-04-13T01:27:25Z</time></trkpt><trkpt lat="-30.384427640324674" lon="115.14963638514247"><ele>53.0</ele><time>2026-04-13T01:27:26Z</time></trkpt><trkpt lat="-30.38436333542867" lon="115.14960399968069"><ele>53.0</ele><time>2026-04-13T01:27:27Z</time></trkpt><trkpt lat="-30.384311493959363" lon="115.14956191249927"><ele>53.0</ele><time>2026-04-13T01:27:28Z</time></trkpt><trkpt lat="-30.384261825651794" lon="115.14950611996593"><ele>53.00000000000001</ele><time>2026-04-13T01:27:29Z</time></trkpt><trkpt lat="-30.384214437818862" lon="115.14943011098062"><ele>53.0</ele><time>2026-04-13T01:27:30Z</time></trkpt><trkpt lat="-30.384160115668745" lon="115.14933429156717"><ele>53.0</ele><time>2026-04-13T01:27:31Z</time></trkpt><trkpt lat="-30.384099936760187" lon="115.14923224200734"><ele>53.0</ele><time>2026-04-13T01:27:32Z</time></trkpt><trkpt lat="-30.38403683011563" lon="115.14913912167526"><ele>53.0</ele><time>2026-04-13T01:27:33Z</time></trkpt><trkpt lat="-30.383953360341433" lon="115.14905115095584"><ele>53.0</ele><time>2026-04-13T01:27:34Z</time></trkpt><trkpt lat="-30.383854739429992" lon="115.14895282968824"><ele>54.4</ele><time>2026-04-13T01:27:35Z</time></trkpt><trkpt lat="-30.38376639614005" lon="115.14885628997638"><ele>55.8</ele><time>2026-04-13T01:27:36Z</time></trkpt><trkpt lat="-30.383689020742548" lon="115.14876975784047"><ele>57.2</ele><time>2026-04-13T01:27:37Z</time></trkpt><trkpt lat="-30.383609600829743" lon="115.14868825482067"><ele>58.6</ele><time>2026-04-13T01:27:38Z</time></trkpt><trkpt lat="-30.383527199971393" lon="115.14861518721325"><ele>60.0</ele><time>2026-04-13T01:27:39Z</time></trkpt><trkpt lat="-30.383444402360446" lon="115.1485400734918"><ele>60.0</ele><time>2026-04-13T01:27:40Z</time></trkpt><trkpt lat="-30.383373268708276" lon="115.14846483047987"><ele>60.0</ele><time>2026-04-13T01:27:41Z</time></trkpt><trkpt lat="-30.38331657629645" lon="115.14840323262727"><ele>60.0</ele><time>2026-04-13T01:27:42Z</time></trkpt><trkpt lat="-30.383268047206787" lon="115.148325622186"><ele>60.0</ele><time>2026-04-13T01:27:43Z</time></trkpt><trkpt lat="-30.383216792627564" lon="115.14822329969752"><ele>60.0</ele><time>2026-04-13T01:27:44Z</time></trkpt><trkpt lat="-30.383154638142308" lon="115.1481101223224"><ele>59.8</ele><time>2026-04-13T01:27:45Z</time></trkpt><trkpt lat="-30.38309648177836" lon="115.14799780892106"><ele>59.6</ele><time>2026-04-13T01:27:46Z</time></trkpt><trkpt lat="-30.383043735335033" lon="115.1478925572709"><ele>59.400000000000006</ele><time>2026-04-13T01:27:47Z</time></trkpt><trkpt lat="-30.38299714392696" lon="115.14781094096838"><ele>59.2</ele><time>2026-04-13T01:27:48Z</time></trkpt><trkpt lat="-30.38294677687639" lon="115.14774251545595"><ele>59.0</ele><time>2026-04-13T01:27:49Z</time></trkpt><trkpt lat="-30.382879611722714" lon="115.14767418244224"><ele>58.75</ele><time>2026-04-13T01:27:50Z</time></trkpt><trkpt lat="-30.382786169301024" lon="115.14759169898353"><ele>58.5</ele><time>2026-04-13T01:27:51Z</time></trkpt><trkpt lat="-30.382682053889233" lon="115.14750496734115"><ele>58.25</ele><time>2026-04-13T01:27:52Z</time></trkpt><trkpt lat="-30.38258228812977" lon="115.14741518550444"><ele>58.0</ele><time>2026-04-13T01:27:53Z</time></trkpt><trkpt lat="-30.382487449735024" lon="115.14732360149081"><ele>58.0</ele><time>2026-04-13T01:27:54Z</time></trkpt><trkpt lat="-30.38240504498165" lon="115.14722938492007"><ele>58.0</ele><time>2026-04-13T01:27:55Z</time></trkpt><trkpt lat="-30.38232172924707" lon="115.14714038477261"><ele>58.0</ele><time>2026-04-13T01:27:56Z</time></trkpt><trkpt lat="-30.38224761001281" lon="115.1470668515837"><ele>58.0</ele><time>2026-04-13T01:27:57Z</time></trkpt><trkpt lat="-30.38218159879266" lon="115.1469911808226"><ele>58.0</ele><time>2026-04-13T01:27:58Z</time></trkpt><trkpt lat="-30.382122103709268" lon="115.14692239112993"><ele>57.49999999999999</ele><time>2026-04-13T01:27:59Z</time></trkpt><trkpt lat="-30.3820548099434" lon="115.1468714455541"><ele>57.0</ele><time>2026-04-13T01:28:00Z</time></trkpt><trkpt lat="-30.3819726838036" lon="115.146830900428"><ele>56.5</ele><time>2026-04-13T01:28:01Z</time></trkpt><trkpt lat="-30.381888512311786" lon="115.14680498886297"><ele>56.0</ele><time>2026-04-13T01:28:02Z</time></trkpt><trkpt lat="-30.381805162242028" lon="115.14679070909351"><ele>55.49999999999999</ele><time>2026-04-13T01:28:03Z</time></trkpt><trkpt lat="-30.38171764697424" lon="115.1467923296306"><ele>55.0</ele><time>2026-04-13T01:28:04Z</time></trkpt><trkpt lat="-30.3816255918854" lon="115.14678592293038"><ele>55.0</ele><time>2026-04-13T01:28:05Z</time></trkpt><trkpt lat="-30.381525530224234" lon="115.14677608921404"><ele>55.0</ele><time>2026-04-13T01:28:06Z</time></trkpt><trkpt lat="-30.381426098213932" lon="115.14676415169599"><ele>55.0</ele><time>2026-04-13T01:28:07Z</time></trkpt><trkpt lat="-30.381333750232848" lon="115.14676030819702"><ele>55.0</ele><time>2026-04-13T01:28:08Z</time></trkpt><trkpt lat="-30.38123425677118" lon="115.14675915426606"><ele>55.0</ele><time>2026-04-13T01:28:09Z</time></trkpt><trkpt lat="-30.381131009524196" lon="115.14675422120035"><ele>55.2</ele><time>2026-04-13T01:28:10Z</time></trkpt><trkpt lat="-30.38101992426969" lon="115.14675087965053"><ele>55.4</ele><time>2026-04-13T01:28:11Z</time></trkpt><trkpt lat="-30.380912824729933" lon="115.14675089085075"><ele>55.599999999999994</ele><time>2026-04-13T01:28:12Z</time></trkpt><trkpt lat="-30.380806902055497" lon="115.14674881381522"><ele>55.8</ele><time>2026-04-13T01:28:13Z</time></trkpt><trkpt lat="-30.380710296355957" lon="115.14674228214093"><ele>56.0</ele><time>2026-04-13T01:28:14Z</time></trkpt><trkpt lat="-30.380635984570016" lon="115.14673066579206"><ele>56.0</ele><time>2026-04-13T01:28:15Z</time></trkpt><trkpt lat="-30.38054527712817" lon="115.14670590438035"><ele>55.99999999999999</ele><time>2026-04-13T01:28:16Z</time></trkpt><trkpt lat="-30.380459701339145" lon="115.14667967717534"><ele>55.99999999999999</ele><time>2026-04-13T01:28:17Z</time></trkpt><trkpt lat="-30.38036263878348" lon="115.14665939357151"><ele>56.0</ele><time>2026-04-13T01:28:18Z</time></trkpt><trkpt lat="-30.380250566037745" lon="115.1466329860788"><ele>56.0</ele><time>2026-04-13T01:28:19Z</time></trkpt><trkpt lat="-30.38014041337984" lon="115.14661018046876"><ele>56.199999999999996</ele><time>2026-04-13T01:28:20Z</time></trkpt><trkpt lat="-30.38003663145285" lon="115.14658517725958"><ele>56.39999999999999</ele><time>2026-04-13T01:28:21Z</time></trkpt><trkpt lat="-30.37994915147455" lon="115.14655956546919"><ele>56.6</ele><time>2026-04-13T01:28:22Z</time></trkpt><trkpt lat="-30.379851506119447" lon="115.14651850574218"><ele>56.8</ele><time>2026-04-13T01:28:23Z</time></trkpt><trkpt lat="-30.379735717663102" lon="115.14645835828819"><ele>57.0</ele><time>2026-04-13T01:28:24Z</time></trkpt><trkpt lat="-30.379617584116104" lon="115.14640302983489"><ele>56.6</ele><time>2026-04-13T01:28:25Z</time></trkpt><trkpt lat="-30.37950480989873" lon="115.14635846110548"><ele>56.2</ele><time>2026-04-13T01:28:26Z</time></trkpt><trkpt lat="-30.379396788272803" lon="115.14631828207342"><ele>55.8</ele><time>2026-04-13T01:28:27Z</time></trkpt><trkpt lat="-30.37930191716854" lon="115.14627951041463"><ele>55.4</ele><time>2026-04-13T01:28:28Z</time></trkpt><trkpt lat="-30.379217565044268" lon="115.14624205513198"><ele>55.0</ele><time>2026-04-13T01:28:29Z</time></trkpt><trkpt lat="-30.379129805008773" lon="115.1462132839494"><ele>54.99999999999999</ele><time>2026-04-13T01:28:30Z</time></trkpt><trkpt lat="-30.379046054402473" lon="115.14619077728429"><ele>55.0</ele><time>2026-04-13T01:28:31Z</time></trkpt><trkpt lat="-30.37897105470402" lon="115.14615594847707"><ele>55.0</ele><time>2026-04-13T01:28:32Z</time></trkpt><trkpt lat="-30.37891691217587" lon="115.14610971878716"><ele>55.0</ele><time>2026-04-13T01:28:33Z</time></trkpt><trkpt lat="-30.378868902244182" lon="115.14604046709947"><ele>54.99999999999999</ele><time>2026-04-13T01:28:34Z</time></trkpt><trkpt lat="-30.378825610915456" lon="115.14596614154388"><ele>55.0</ele><time>2026-04-13T01:28:35Z</time></trkpt><trkpt lat="-30.37878677063994" lon="115.14587783529946"><ele>54.99999999999999</ele><time>2026-04-13T01:28:36Z</time></trkpt><trkpt lat="-30.378766379123313" lon="115.14579061989856"><ele>55.0</ele><time>2026-04-13T01:28:37Z</time></trkpt><trkpt lat="-30.378751376096258" lon="115.14569793535112"><ele>55.0</ele><time>2026-04-13T01:28:38Z</time></trkpt><trkpt lat="-30.37873934535209" lon="115.1456150667049"><ele>55.0</ele><time>2026-04-13T01:28:39Z</time></trkpt><trkpt lat="-30.378732659095053" lon="115.1455259303932"><ele>54.99999999999999</ele><time>2026-04-13T01:28:40Z</time></trkpt><trkpt lat="-30.37872572394043" lon="115.14543806904082"><ele>55.0</ele><time>2026-04-13T01:28:41Z</time></trkpt><trkpt lat="-30.37871660995532" lon="115.14535761363882"><ele>54.666666666666664</ele><time>2026-04-13T01:28:42Z</time></trkpt><trkpt lat="-30.378707332163277" lon="115.14528162923138"><ele>54.33333333333333</ele><time>2026-04-13T01:28:43Z</time></trkpt><trkpt lat="-30.378706266318343" lon="115.14519268284782"><ele>54.0</ele><time>2026-04-13T01:28:44Z</time></trkpt><trkpt lat="-30.378705107525935" lon="115.14510439188193"><ele>53.66666666666667</ele><time>2026-04-13T01:28:45Z</time></trkpt><trkpt lat="-30.37868945331783" lon="115.14501683332678"><ele>53.333333333333336</ele><time>2026-04-13T01:28:46Z</time></trkpt><trkpt lat="-30.378674946312234" lon="115.14491730769255"><ele>53.0</ele><time>2026-04-13T01:28:46.999Z</time></trkpt><trkpt lat="-30.37865821866908" lon="115.14481681757051"><ele>52.4</ele><time>2026-04-13T01:28:47.999Z</time></trkpt><trkpt lat="-30.378637906980966" lon="115.1447201726791"><ele>51.8</ele><time>2026-04-13T01:28:48.999Z</time></trkpt><trkpt lat="-30.378621051186993" lon="115.144642805549"><ele>51.2</ele><time>2026-04-13T01:28:49.999Z</time></trkpt><trkpt lat="-30.378569589014177" lon="115.14451526080198"><ele>50.6</ele><time>2026-04-13T01:28:51.999Z</time></trkpt><trkpt lat="-30.378530836683172" lon="115.14445711574926"><ele>50.0</ele><time>2026-04-13T01:28:52.999Z</time></trkpt><trkpt lat="-30.378476808978427" lon="115.14433509801144"><ele>50.00000000000001</ele><time>2026-04-13T01:28:54.999Z</time></trkpt><trkpt lat="-30.378426931277687" lon="115.14428104665161"><ele>50.0</ele><time>2026-04-13T01:28:56.999Z</time></trkpt><trkpt lat="-30.3783429525672" lon="115.14424443334913"><ele>50.0</ele><time>2026-04-13T01:29:08.999Z</time></trkpt><trkpt lat="-30.37826886162647" lon="115.14423118478086"><ele>50.0</ele><time>2026-04-13T01:29:17.999Z</time></trkpt><trkpt lat="-30.37817574656123" lon="115.14421312616732"><ele>50.00000000000001</ele><time>2026-04-13T01:29:21Z</time></trkpt><trkpt lat="-30.378092007981966" lon="115.14416857659147"><ele>50.0</ele><time>2026-04-13T01:29:23Z</time></trkpt><trkpt lat="-30.37801503171826" lon="115.1441181424798"><ele>50.16666666666667</ele><time>2026-04-13T01:29:25Z</time></trkpt><trkpt lat="-30.37794522572138" lon="115.14407754596358"><ele>50.333333333333336</ele><time>2026-04-13T01:29:28Z</time></trkpt><trkpt lat="-30.377874492383416" lon="115.14403665847873"><ele>50.5</ele><time>2026-04-13T01:29:30Z</time></trkpt><trkpt lat="-30.37777216086598" lon="115.14398709350614"><ele>50.66666666666667</ele><time>2026-04-13T01:29:32Z</time></trkpt><trkpt lat="-30.37771345945062" lon="115.14395857019399"><ele>50.833333333333336</ele><time>2026-04-13T01:29:33Z</time></trkpt><trkpt lat="-30.377637239300487" lon="115.1439187337554"><ele>51.0</ele><time>2026-04-13T01:29:35Z</time></trkpt><trkpt lat="-30.377562790378377" lon="115.14388620025555"><ele>51.0</ele><time>2026-04-13T01:29:45Z</time></trkpt><trkpt lat="-30.37748982486192" lon="115.14384745846165"><ele>51.0</ele><time>2026-04-13T01:29:47Z</time></trkpt><trkpt lat="-30.377407207591784" lon="115.14383039611322"><ele>51.0</ele><time>2026-04-13T01:29:50Z</time></trkpt><trkpt lat="-30.37727350704234" lon="115.14380490890977"><ele>51.0</ele><time>2026-04-13T01:29:52Z</time></trkpt><trkpt lat="-30.377197884190295" lon="115.14379355098217"><ele>51.0</ele><time>2026-04-13T01:29:53Z</time></trkpt><trkpt lat="-30.377118722543308" lon="115.14378849799209"><ele>51.333333333333336</ele><time>2026-04-13T01:29:54Z</time></trkpt><trkpt lat="-30.377027822103948" lon="115.1438078308235"><ele>51.66666666666667</ele><time>2026-04-13T01:29:56Z</time></trkpt><trkpt lat="-30.37695320983475" lon="115.14385948927364"><ele>52.0</ele><time>2026-04-13T01:30:08Z</time></trkpt><trkpt lat="-30.376903020795815" lon="115.14391341440206"><ele>52.333333333333336</ele><time>2026-04-13T01:30:10Z</time></trkpt><trkpt lat="-30.376850228800865" lon="115.1439986538744"><ele>52.66666666666667</ele><time>2026-04-13T01:30:12Z</time></trkpt><trkpt lat="-30.376787407579513" lon="115.14409275625673"><ele>53.0</ele><time>2026-04-13T01:30:14Z</time></trkpt><trkpt lat="-30.376743750301504" lon="115.14421245192935"><ele>57.0</ele><time>2026-04-13T01:30:16Z</time></trkpt><trkpt lat="-30.376743750301504" lon="115.14421245192935"><ele>57.0</ele><time>2026-04-13T01:30:16Z</time></trkpt><trkpt lat="-30.376743750301504" lon="115.14421245192935"><ele>57.0</ele><time>2026-04-13T01:30:16Z</time></trkpt><trkpt lat="-30.376743750301504" lon="115.14421245192935"><ele>57.0</ele><time>2026-04-13T01:30:16Z</time></trkpt><trkpt lat="-30.376743750301504" lon="115.14421245192935"><ele>57.0</ele><time>2026-04-13T01:30:16Z</time></trkpt><trkpt lat="-30.376743750301504" lon="115.14421245192935"><ele>57.0</ele><time>2026-04-13T01:30:16Z</time></trkpt><trkpt lat="-30.376743750301504" lon="115.14421245192935"><ele>57.0</ele><time>2026-04-13T01:30:16Z</time></trkpt><trkpt lat="-30.376743750301504" lon="115.14421245192935"><ele>57.0</ele><time>2026-04-13T01:30:16Z</time></trkpt><trkpt lat="-30.376743750301504" lon="115.14421245192935"><ele>57.0</ele><time>2026-04-13T01:30:16Z</time></trkpt></trkseg><trkseg><trkpt lat="-30.304521348442755" lon="115.03538973151353"><ele>4.0</ele><time>2026-04-13T02:23:43.872Z</time></trkpt><trkpt lat="-30.30454794299732" lon="115.0352502615904"><ele>4.0</ele><time>2026-04-13T02:23:44.872Z</time></trkpt><trkpt lat="-30.30462058694851" lon="115.03511479157666"><ele>4.0</ele><time>2026-04-13T02:23:46.872Z</time></trkpt><trkpt lat="-30.30464379518496" lon="115.03520334027873"><ele>4.0</ele><time>2026-04-13T02:24:19.998Z</time></trkpt><trkpt lat="-30.30469566903801" lon="115.03526555014149"><ele>4.0</ele><time>2026-04-13T02:24:21.998Z</time></trkpt><trkpt lat="-30.304689100424113" lon="115.03536719682407"><ele>3.9999999999999996</ele><time>2026-04-13T02:24:23.998Z</time></trkpt><trkpt lat="-30.304645947004698" lon="115.03543927042188"><ele>4.0</ele><time>2026-04-13T02:24:24.998Z</time></trkpt><trkpt lat="-30.304591608716276" lon="115.03549304715611"><ele>4.0</ele><time>2026-04-13T02:24:25.999Z</time></trkpt><trkpt lat="-30.304501333308934" lon="115.03549247598636"><ele>4.0</ele><time>2026-04-13T02:24:26.999Z</time></trkpt><trkpt lat="-30.304419293523452" lon="115.0355799187623"><ele>3.9999999999999996</ele><time>2026-04-13T02:24:28.999Z</time></trkpt><trkpt lat="-30.30436673213819" lon="115.0356439528183"><ele>4.0</ele><time>2026-04-13T02:24:29.999Z</time></trkpt><trkpt lat="-30.304305648736637" lon="115.03573581091584"><ele>4.800000000000001</ele><time>2026-04-13T02:24:30.999Z</time></trkpt><trkpt lat="-30.304249716774052" lon="115.03582678766436"><ele>5.6000000000000005</ele><time>2026-04-13T02:24:31.999Z</time></trkpt><trkpt lat="-30.304189547780275" lon="115.03592208165418"><ele>6.4</ele><time>2026-04-13T02:24:32.999Z</time></trkpt><trkpt lat="-30.304125329079174" lon="115.03602369525146"><ele>7.2</ele><time>2026-04-13T02:24:33.999Z</time></trkpt><trkpt lat="-30.30406905205232" lon="115.03611268601561"><ele>8.0</ele><time>2026-04-13T02:24:34.999Z</time></trkpt><trkpt lat="-30.30401957768584" lon="115.0361909197717"><ele>7.999999999999999</ele><time>2026-04-13T02:24:35.999Z</time></trkpt><trkpt lat="-30.303971367209822" lon="115.03626609376208"><ele>8.0</ele><time>2026-04-13T02:24:36.999Z</time></trkpt><trkpt lat="-30.30392132764988" lon="115.03634302821378"><ele>8.0</ele><time>2026-04-13T02:24:37.999Z</time></trkpt><trkpt lat="-30.303869347855773" lon="115.03642294570759"><ele>8.0</ele><time>2026-04-13T02:24:38.999Z</time></trkpt><trkpt lat="-30.303820521617507" lon="115.03649801470873"><ele>7.999999999999999</ele><time>2026-04-13T02:24:39.999Z</time></trkpt><trkpt lat="-30.303770770430035" lon="115.03657450578717"><ele>8.0</ele><time>2026-04-13T02:24:40.999Z</time></trkpt><trkpt lat="-30.30372231255045" lon="115.03664908237721"><ele>7.333333333333333</ele><time>2026-04-13T02:24:41.999Z</time></trkpt><trkpt lat="-30.303673329197494" lon="115.03672792597922"><ele>6.666666666666666</ele><time>2026-04-13T02:24:42.999Z</time></trkpt><trkpt lat="-30.303626671162924" lon="115.03681053958276"><ele>6.0</ele><time>2026-04-13T02:24:43.999Z</time></trkpt><trkpt lat="-30.303569531521347" lon="115.03687443239923"><ele>5.333333333333333</ele><time>2026-04-13T02:24:44.999Z</time></trkpt><trkpt lat="-30.303532303538024" lon="115.03694902367103"><ele>4.666666666666666</ele><time>2026-04-13T02:24:45.999Z</time></trkpt><trkpt lat="-30.303524732463018" lon="115.03703568700584"><ele>4.0</ele><time>2026-04-13T02:24:46.999Z</time></trkpt><trkpt lat="-30.303543080510106" lon="115.03712235776817"><ele>4.0</ele><time>2026-04-13T02:24:47.999Z</time></trkpt><trkpt lat="-30.303596786776236" lon="115.03720491367612"><ele>4.0</ele><time>2026-04-13T02:24:48.999Z</time></trkpt><trkpt lat="-30.30368154190056" lon="115.03728487533093"><ele>4.0</ele><time>2026-04-13T02:24:49.999Z</time></trkpt><trkpt lat="-30.303783066564407" lon="115.03736892254787"><ele>4.0</ele><time>2026-04-13T02:24:50.999Z</time></trkpt><trkpt lat="-30.303900547369835" lon="115.03746237791158"><ele>4.75</ele><time>2026-04-13T02:24:52Z</time></trkpt><trkpt lat="-30.304012527865297" lon="115.0375514455736"><ele>5.5</ele><time>2026-04-13T02:24:53Z</time></trkpt><trkpt lat="-30.304126226728382" lon="115.03764708710833"><ele>6.25</ele><time>2026-04-13T02:24:54Z</time></trkpt><trkpt lat="-30.304244520921365" lon="115.037740837639"><ele>7.0</ele><time>2026-04-13T02:24:55Z</time></trkpt><trkpt lat="-30.304364425554407" lon="115.03784219300684"><ele>7.0</ele><time>2026-04-13T02:24:56Z</time></trkpt><trkpt lat="-30.30448321623916" lon="115.03794446506183"><ele>7.0</ele><time>2026-04-13T02:24:57Z</time></trkpt><trkpt lat="-30.304600127718583" lon="115.03804439858176"><ele>7.0</ele><time>2026-04-13T02:24:58Z</time></trkpt><trkpt lat="-30.304720004897696" lon="115.03814683507315"><ele>7.0</ele><time>2026-04-13T02:24:59Z</time></trkpt><trkpt lat="-30.304826157054723" lon="115.03824345415323"><ele>7.0</ele><time>2026-04-13T02:25:00Z</time></trkpt><trkpt lat="-30.30492947683957" lon="115.03833970944146"><ele>7.0</ele><time>2026-04-13T02:25:01Z</time></trkpt><trkpt lat="-30.305026049295837" lon="115.03842816835726"><ele>7.0</ele><time>2026-04-13T02:25:02Z</time></trkpt><trkpt lat="-30.305113548259804" lon="115.03850462316441"><ele>7.0</ele><time>2026-04-13T02:25:03Z</time></trkpt><trkpt lat="-30.305192661090352" lon="115.0385758753684"><ele>7.0</ele><time>2026-04-13T02:25:04Z</time></trkpt><trkpt lat="-30.305264790351252" lon="115.03864148901762"><ele>6.999999999999999</ele><time>2026-04-13T02:25:05Z</time></trkpt><trkpt lat="-30.30532407402511" lon="115.038697621469"><ele>6.999999999999999</ele><time>2026-04-13T02:25:06Z</time></trkpt><trkpt lat="-30.305407438796752" lon="115.03876773224516"><ele>7.0</ele><time>2026-04-13T02:25:08Z</time></trkpt><trkpt lat="-30.305492913316634" lon="115.03881865103814"><ele>7.0</ele><time>2026-04-13T02:25:15Z</time></trkpt><trkpt lat="-30.305592456359086" lon="115.0387430141979"><ele>7.0</ele><time>2026-04-13T02:25:16Z</time></trkpt><trkpt lat="-30.305673185692015" lon="115.03871834027655"><ele>6.999999999999999</ele><time>2026-04-13T02:25:17Z</time></trkpt><trkpt lat="-30.30582695236637" lon="115.03874920402012"><ele>6.999999999999999</ele><time>2026-04-13T02:25:19Z</time></trkpt><trkpt lat="-30.305898405346426" lon="115.03881974124042"><ele>7.0</ele><time>2026-04-13T02:25:20Z</time></trkpt><trkpt lat="-30.305978237218277" lon="115.03890257431533"><ele>7.0</ele><time>2026-04-13T02:25:21Z</time></trkpt><trkpt lat="-30.30606949370879" lon="115.03898761453702"><ele>7.0</ele><time>2026-04-13T02:25:22Z</time></trkpt><trkpt lat="-30.306167934726894" lon="115.03907734876688"><ele>7.0</ele><time>2026-04-13T02:25:23Z</time></trkpt><trkpt lat="-30.306261341885257" lon="115.03916417851525"><ele>7.0</ele><time>2026-04-13T02:25:24Z</time></trkpt><trkpt lat="-30.30635701902856" lon="115.03924702260043"><ele>7.0</ele><time>2026-04-13T02:25:25Z</time></trkpt><trkpt lat="-30.30644818877628" lon="115.03932243356982"><ele>7.6</ele><time>2026-04-13T02:25:26Z</time></trkpt><trkpt lat="-30.306530007254278" lon="115.0393889297791"><ele>8.2</ele><time>2026-04-13T02:25:27Z</time></trkpt><trkpt lat="-30.306596260657376" lon="115.03944903148144"><ele>8.8</ele><time>2026-04-13T02:25:28Z</time></trkpt><trkpt lat="-30.306644833108518" lon="115.03950724561587"><ele>9.4</ele><time>2026-04-13T02:25:29Z</time></trkpt><trkpt lat="-30.306633355845822" lon="115.03964674789586"><ele>10.0</ele><time>2026-04-13T02:25:31Z</time></trkpt><trkpt lat="-30.306583292329563" lon="115.03972674201822"><ele>10.0</ele><time>2026-04-13T02:25:32Z</time></trkpt><trkpt lat="-30.306520375795962" lon="115.03982295271898"><ele>10.0</ele><time>2026-04-13T02:25:33Z</time></trkpt><trkpt lat="-30.306456311204347" lon="115.03994538501223"><ele>10.0</ele><time>2026-04-13T02:25:34Z</time></trkpt><trkpt lat="-30.306360193857195" lon="115.04006959614688"><ele>10.0</ele><time>2026-04-13T02:25:35Z</time></trkpt><trkpt lat="-30.306256479032307" lon="115.04021189384356"><ele>9.0</ele><time>2026-04-13T02:25:36Z</time></trkpt><trkpt lat="-30.306148553444125" lon="115.04037425656563"><ele>8.0</ele><time>2026-04-13T02:25:37Z</time></trkpt><trkpt lat="-30.30603695113019" lon="115.04054387942467"><ele>7.0</ele><time>2026-04-13T02:25:38Z</time></trkpt><trkpt lat="-30.305927028089915" lon="115.0407126381479"><ele>6.333333333333334</ele><time>2026-04-13T02:25:39Z</time></trkpt><trkpt lat="-30.305814627866802" lon="115.04088599372898"><ele>5.666666666666667</ele><time>2026-04-13T02:25:40Z</time></trkpt><trkpt lat="-30.305698167628638" lon="115.0410588974164"><ele>5.0</ele><time>2026-04-13T02:25:41Z</time></trkpt><trkpt lat="-30.305584527701818" lon="115.0412313017346"><ele>5.0</ele><time>2026-04-13T02:25:42Z</time></trkpt><trkpt lat="-30.305469117496994" lon="115.04140788960457"><ele>5.0</ele><time>2026-04-13T02:25:43Z</time></trkpt><trkpt lat="-30.305356179255316" lon="115.04157919896922"><ele>5.0</ele><time>2026-04-13T02:25:44Z</time></trkpt><trkpt lat="-30.30524895842654" lon="115.0417454220507"><ele>5.333333333333334</ele><time>2026-04-13T02:25:45Z</time></trkpt><trkpt lat="-30.30514831061994" lon="115.04190711208392"><ele>5.666666666666667</ele><time>2026-04-13T02:25:46Z</time></trkpt><trkpt lat="-30.30505461906226" lon="115.0420617662085"><ele>6.0</ele><time>2026-04-13T02:25:47Z</time></trkpt><trkpt lat="-30.30497126382772" lon="115.04221176053"><ele>6.0</ele><time>2026-04-13T02:25:48Z</time></trkpt><trkpt lat="-30.304898132122286" lon="115.04235204589322"><ele>6.0</ele><time>2026-04-13T02:25:49Z</time></trkpt><trkpt lat="-30.304832036420933" lon="115.0424819958731"><ele>6.0</ele><time>2026-04-13T02:25:50Z</time></trkpt><trkpt lat="-30.30477506763375" lon="115.04259302942089"><ele>6.0</ele><time>2026-04-13T02:25:51Z</time></trkpt><trkpt lat="-30.304729086547468" lon="115.04267265534622"><ele>5.6</ele><time>2026-04-13T02:25:52Z</time></trkpt><trkpt lat="-30.304660854798623" lon="115.0427553056131"><ele>5.199999999999999</ele><time>2026-04-13T02:25:53.999Z</time></trkpt><trkpt lat="-30.304573493280483" lon="115.04264967657676"><ele>4.800000000000001</ele><time>2026-04-13T02:25:54.999Z</time></trkpt><trkpt lat="-30.304493392174766" lon="115.04260291201263"><ele>4.4</ele><time>2026-04-13T02:25:55.999Z</time></trkpt><trkpt lat="-30.304401780275658" lon="115.04255299714191"><ele>4.0</ele><time>2026-04-13T02:25:56.999Z</time></trkpt><trkpt lat="-30.304299612340486" lon="115.04249362255325"><ele>4.25</ele><time>2026-04-13T02:25:57.999Z</time></trkpt><trkpt lat="-30.304188074832492" lon="115.04242087925635"><ele>4.5</ele><time>2026-04-13T02:25:58.999Z</time></trkpt><trkpt lat="-30.304078843573883" lon="115.0423420037413"><ele>4.75</ele><time>2026-04-13T02:25:59.999Z</time></trkpt><trkpt lat="-30.30397709213594" lon="115.04227208239178"><ele>5.0</ele><time>2026-04-13T02:26:00.999Z</time></trkpt><trkpt lat="-30.303886187029264" lon="115.04220487599464"><ele>5.4</ele><time>2026-04-13T02:26:01.999Z</time></trkpt><trkpt lat="-30.303801845517025" lon="115.04214318802609"><ele>5.8</ele><time>2026-04-13T02:26:02.999Z</time></trkpt><trkpt lat="-30.303727758290165" lon="115.04208951111896"><ele>6.199999999999999</ele><time>2026-04-13T02:26:03.999Z</time></trkpt><trkpt lat="-30.303628139592323" lon="115.04201466869698"><ele>6.6</ele><time>2026-04-13T02:26:05.999Z</time></trkpt><trkpt lat="-30.303557563897442" lon="115.04195585891063"><ele>7.0</ele><time>2026-04-13T02:26:07.999Z</time></trkpt><trkpt lat="-30.303503543224497" lon="115.04205447205851"><ele>7.0</ele><time>2026-04-13T02:26:08.999Z</time></trkpt><trkpt lat="-30.3034728741888" lon="115.04214872787469"><ele>6.999999999999999</ele><time>2026-04-13T02:26:09.999Z</time></trkpt><trkpt lat="-30.30342777389371" lon="115.0422432108342"><ele>6.999999999999999</ele><time>2026-04-13T02:26:11Z</time></trkpt><trkpt lat="-30.303364277525997" lon="115.04230553005915"><ele>7.0</ele><time>2026-04-13T02:26:12Z</time></trkpt><trkpt lat="-30.303302178818385" lon="115.04234059992258"><ele>7.0</ele><time>2026-04-13T02:26:13Z</time></trkpt><trkpt lat="-30.30317468061716" lon="115.0422190895713"><ele>7.0</ele><time>2026-04-13T02:26:15Z</time></trkpt><trkpt lat="-30.30311381980832" lon="115.04213910363113"><ele>7.0</ele><time>2026-04-13T02:26:16Z</time></trkpt><trkpt lat="-30.30304369852461" lon="115.0420468764225"><ele>7.0</ele><time>2026-04-13T02:26:17Z</time></trkpt><trkpt lat="-30.30295114206852" lon="115.04194845582785"><ele>7.0</ele><time>2026-04-13T02:26:18Z</time></trkpt><trkpt lat="-30.30286348465877" lon="115.0418235569012"><ele>6.75</ele><time>2026-04-13T02:26:19Z</time></trkpt><trkpt lat="-30.302779848335668" lon="115.04170238802037"><ele>6.5</ele><time>2026-04-13T02:26:20Z</time></trkpt><trkpt lat="-30.302699090791943" lon="115.04158231943674"><ele>6.25</ele><time>2026-04-13T02:26:21Z</time></trkpt><trkpt lat="-30.302614441858513" lon="115.04146385994005"><ele>6.0</ele><time>2026-04-13T02:26:22Z</time></trkpt><trkpt lat="-30.30252909295095" lon="115.0413471622476"><ele>6.75</ele><time>2026-04-13T02:26:23Z</time></trkpt><trkpt lat="-30.302449859082184" lon="115.0412336747469"><ele>7.5</ele><time>2026-04-13T02:26:24Z</time></trkpt><trkpt lat="-30.30237267471595" lon="115.0411213006846"><ele>8.25</ele><time>2026-04-13T02:26:25Z</time></trkpt><trkpt lat="-30.30229582745809" lon="115.04101342670579"><ele>9.0</ele><time>2026-04-13T02:26:26Z</time></trkpt><trkpt lat="-30.302223502558768" lon="115.04090965130383"><ele>7.8</ele><time>2026-04-13T02:26:27Z</time></trkpt><trkpt lat="-30.302153950228256" lon="115.04081192408"><ele>6.6000000000000005</ele><time>2026-04-13T02:26:28Z</time></trkpt><trkpt lat="-30.302093602120685" lon="115.04072207982358"><ele>5.4</ele><time>2026-04-13T02:26:29Z</time></trkpt><trkpt lat="-30.30204572436075" lon="115.0406435903658"><ele>4.2</ele><time>2026-04-13T02:26:30Z</time></trkpt><trkpt lat="-30.301961725351834" lon="115.04056851586118"><ele>3.0</ele><time>2026-04-13T02:26:32Z</time></trkpt><trkpt lat="-30.30189265159748" lon="115.04057148683803"><ele>3.0</ele><time>2026-04-13T02:26:33Z</time></trkpt><trkpt lat="-30.301815579341444" lon="115.04060446825243"><ele>3.0</ele><time>2026-04-13T02:26:34Z</time></trkpt><trkpt lat="-30.3017346641461" lon="115.04066769152637"><ele>3.0</ele><time>2026-04-13T02:26:35Z</time></trkpt><trkpt lat="-30.301647454653196" lon="115.04074331378766"><ele>3.0</ele><time>2026-04-13T02:26:36Z</time></trkpt><trkpt lat="-30.301547170584477" lon="115.04081354045438"><ele>3.0</ele><time>2026-04-13T02:26:37Z</time></trkpt><trkpt lat="-30.3014481317752" lon="115.04088138952768"><ele>2.8333333333333335</ele><time>2026-04-13T02:26:38Z</time></trkpt><trkpt lat="-30.301365149536974" lon="115.04094634719486"><ele>2.6666666666666665</ele><time>2026-04-13T02:26:39Z</time></trkpt><trkpt lat="-30.301309268024244" lon="115.04099086094783"><ele>2.5</ele><time>2026-04-13T02:26:40Z</time></trkpt><trkpt lat="-30.30124991494636" lon="115.04103901251345"><ele>2.333333333333333</ele><time>2026-04-13T02:26:43Z</time></trkpt><trkpt lat="-30.301188317735335" lon="115.04108622606284"><ele>2.1666666666666665</ele><time>2026-04-13T02:26:46Z</time></trkpt><trkpt lat="-30.301208770262527" lon="115.04117387361971"><ele>2.0</ele><time>2026-04-13T02:26:48Z</time></trkpt><trkpt lat="-30.301326735339046" lon="115.04103889310458"><ele>1.9999999999999998</ele><time>2026-04-13T02:26:51Z</time></trkpt><trkpt lat="-30.301388947244167" lon="115.04101960486501"><ele>2.0</ele><time>2026-04-13T02:26:53Z</time></trkpt><trkpt lat="-30.301437894335685" lon="115.04106794026852"><ele>2.0</ele><time>2026-04-13T02:26:55Z</time></trkpt><trkpt lat="-30.301492923863652" lon="115.04110729035739"><ele>2.0</ele><time>2026-04-13T02:26:58Z</time></trkpt><trkpt lat="-30.30155898362611" lon="115.04111799348357"><ele>1.9999999999999998</ele><time>2026-04-13T02:27:09Z</time></trkpt><trkpt lat="-30.301504127269762" lon="115.0409105750231"><ele>2.0</ele><time>2026-04-13T02:27:11Z</time></trkpt><trkpt lat="-30.301558853793946" lon="115.04086801306761"><ele>2.0</ele><time>2026-04-13T02:27:15Z</time></trkpt><trkpt lat="-30.301542894340052" lon="115.04107756189977"><ele>2.0</ele><time>2026-04-13T02:27:19Z</time></trkpt><trkpt lat="-30.301484281989588" lon="115.04111358093462"><ele>2.0</ele><time>2026-04-13T02:27:21Z</time></trkpt><trkpt lat="-30.301422600503713" lon="115.04106996665153"><ele>2.0</ele><time>2026-04-13T02:27:24Z</time></trkpt><trkpt lat="-30.301328137713018" lon="115.04102233902928"><ele>2.0</ele><time>2026-04-13T02:27:27Z</time></trkpt><trkpt lat="-30.301267988430936" lon="115.04107520014813"><ele>2.0</ele><time>2026-04-13T02:27:28Z</time></trkpt><trkpt lat="-30.301230690755716" lon="115.04120963398096"><ele>2.0</ele><time>2026-04-13T02:27:30Z</time></trkpt><trkpt lat="-30.301252612008742" lon="115.04129509607229"><ele>2.0</ele><time>2026-04-13T02:27:31.001Z</time></trkpt><trkpt lat="-30.301296284722493" lon="115.04137962840896"><ele>2.0</ele><time>2026-04-13T02:27:32.001Z</time></trkpt><trkpt lat="-30.301351300499" lon="115.04145098520452"><ele>2.0</ele><time>2026-04-13T02:27:33.001Z</time></trkpt><trkpt lat="-30.301406401637706" lon="115.04152506081884"><ele>2.0</ele><time>2026-04-13T02:27:34.001Z</time></trkpt><trkpt lat="-30.30145913296212" lon="115.04160832844661"><ele>2.0</ele><time>2026-04-13T02:27:35.001Z</time></trkpt><trkpt lat="-30.30150807080682" lon="115.04168471338794"><ele>2.0</ele><time>2026-04-13T02:27:36.001Z</time></trkpt><trkpt lat="-30.30155214510571" lon="115.04174712282872"><ele>2.0</ele><time>2026-04-13T02:27:37.001Z</time></trkpt><trkpt lat="-30.301597958690078" lon="115.04186860223271"><ele>2.0</ele><time>2026-04-13T02:27:39.001Z</time></trkpt><trkpt lat="-30.301551923688827" lon="115.04200113957899"><ele>2.5</ele><time>2026-04-13T02:27:41.001Z</time></trkpt><trkpt lat="-30.301488051408302" lon="115.04207274620283"><ele>3.0</ele><time>2026-04-13T02:27:42.001Z</time></trkpt><trkpt lat="-30.301398283563227" lon="115.04215188777859"><ele>3.5</ele><time>2026-04-13T02:27:43.001Z</time></trkpt><trkpt lat="-30.301281680700463" lon="115.04223097912842"><ele>4.0</ele><time>2026-04-13T02:27:44.001Z</time></trkpt><trkpt lat="-30.301156933073845" lon="115.04230065073229"><ele>4.2</ele><time>2026-04-13T02:27:45.001Z</time></trkpt><trkpt lat="-30.301039022008926" lon="115.04236765405254"><ele>4.4</ele><time>2026-04-13T02:27:46.001Z</time></trkpt><trkpt lat="-30.300936086675677" lon="115.04243422836288"><ele>4.6</ele><time>2026-04-13T02:27:47.001Z</time></trkpt><trkpt lat="-30.30086634876214" lon="115.04249630728582"><ele>4.8</ele><time>2026-04-13T02:27:48.001Z</time></trkpt><trkpt lat="-30.300825506713178" lon="115.04257416004772"><ele>5.0</ele><time>2026-04-13T02:27:49.001Z</time></trkpt><trkpt lat="-30.300807552875753" lon="115.04267373015887"><ele>5.25</ele><time>2026-04-13T02:27:50.001Z</time></trkpt><trkpt lat="-30.30083217205246" lon="115.04278471980355"><ele>5.5</ele><time>2026-04-13T02:27:51.001Z</time></trkpt><trkpt lat="-30.300885770499537" lon="115.04289711954344"><ele>5.75</ele><time>2026-04-13T02:27:52.001Z</time></trkpt><trkpt lat="-30.300956059552927" lon="115.04302317546295"><ele>6.0</ele><time>2026-04-13T02:27:53.001Z</time></trkpt><trkpt lat="-30.3010408409805" lon="115.04315928570746"><ele>6.0</ele><time>2026-04-13T02:27:54.001Z</time></trkpt><trkpt lat="-30.30112486798851" lon="115.04328893346714"><ele>6.0</ele><time>2026-04-13T02:27:55.001Z</time></trkpt><trkpt lat="-30.30119608816843" lon="115.04340176534026"><ele>6.0</ele><time>2026-04-13T02:27:56.001Z</time></trkpt><trkpt lat="-30.30124365045431" lon="115.04349821235465"><ele>6.0</ele><time>2026-04-13T02:27:57.001Z</time></trkpt><trkpt lat="-30.30125595549734" lon="115.0436007372957"><ele>6.0</ele><time>2026-04-13T02:27:58Z</time></trkpt><trkpt lat="-30.301239779968643" lon="115.04370781569072"><ele>6.0</ele><time>2026-04-13T02:27:59Z</time></trkpt><trkpt lat="-30.3011786822148" lon="115.04382265991204"><ele>6.0</ele><time>2026-04-13T02:28:00Z</time></trkpt><trkpt lat="-30.301099085339153" lon="115.04394794977213"><ele>6.0</ele><time>2026-04-13T02:28:01Z</time></trkpt><trkpt lat="-30.30101228126314" lon="115.04409303429368"><ele>6.0</ele><time>2026-04-13T02:28:02Z</time></trkpt><trkpt lat="-30.300923707793263" lon="115.04425431412984"><ele>6.25</ele><time>2026-04-13T02:28:03Z</time></trkpt><trkpt lat="-30.300848110832355" lon="115.04439752936106"><ele>6.5</ele><time>2026-04-13T02:28:04Z</time></trkpt><trkpt lat="-30.300781413037253" lon="115.04452468881975"><ele>6.75</ele><time>2026-04-13T02:28:05Z</time></trkpt><trkpt lat="-30.30072106320785" lon="115.04464184754924"><ele>7.0</ele><time>2026-04-13T02:28:06Z</time></trkpt><trkpt lat="-30.30067192244768" lon="115.04473311093473"><ele>7.0</ele><time>2026-04-13T02:28:07Z</time></trkpt><trkpt lat="-30.30060347131079" lon="115.04482879512001"><ele>6.999999999999999</ele><time>2026-04-13T02:28:09Z</time></trkpt><trkpt lat="-30.300476986261163" lon="115.04474023343342"><ele>6.999999999999999</ele><time>2026-04-13T02:28:11Z</time></trkpt><trkpt lat="-30.300402102618445" lon="115.04468751275968"><ele>7.0</ele><time>2026-04-13T02:28:12Z</time></trkpt><trkpt lat="-30.30032761265094" lon="115.04463520401872"><ele>7.0</ele><time>2026-04-13T02:28:13Z</time></trkpt><trkpt lat="-30.300267243501207" lon="115.04459289527264"><ele>6.666666666666667</ele><time>2026-04-13T02:28:14Z</time></trkpt><trkpt lat="-30.300070800644963" lon="115.04481456462642"><ele>6.333333333333334</ele><time>2026-04-13T02:28:16Z</time></trkpt><trkpt lat="-30.29999815298677" lon="115.04493546744797"><ele>6.0</ele><time>2026-04-13T02:28:17Z</time></trkpt><trkpt lat="-30.299929143980545" lon="115.04508376197856"><ele>5.5</ele><time>2026-04-13T02:28:18Z</time></trkpt><trkpt lat="-30.29987155180862" lon="115.04523439511624"><ele>5.0</ele><time>2026-04-13T02:28:19Z</time></trkpt><trkpt lat="-30.29983027617263" lon="115.04537072721534"><ele>4.5</ele><time>2026-04-13T02:28:20Z</time></trkpt><trkpt lat="-30.299800684035322" lon="115.04549017612212"><ele>4.0</ele><time>2026-04-13T02:28:21Z</time></trkpt><trkpt lat="-30.29977904663165" lon="115.0455853575335"><ele>4.0</ele><time>2026-04-13T02:28:22Z</time></trkpt><trkpt lat="-30.299740925314893" lon="115.04570102029975"><ele>4.0</ele><time>2026-04-13T02:28:24Z</time></trkpt><trkpt lat="-30.299589684220955" lon="115.04568254372629"><ele>4.0</ele><time>2026-04-13T02:28:26Z</time></trkpt><trkpt lat="-30.299484699960423" lon="115.04566987018161"><ele>4.0</ele><time>2026-04-13T02:28:27Z</time></trkpt><trkpt lat="-30.299372995889335" lon="115.04562842188743"><ele>4.0</ele><time>2026-04-13T02:28:28Z</time></trkpt><trkpt lat="-30.299238701132587" lon="115.04558170779748"><ele>4.0</ele><time>2026-04-13T02:28:29Z</time></trkpt><trkpt lat="-30.299100455432043" lon="115.04553896555122"><ele>4.0</ele><time>2026-04-13T02:28:30Z</time></trkpt><trkpt lat="-30.298962198514083" lon="115.04550592067962"><ele>4.0</ele><time>2026-04-13T02:28:31Z</time></trkpt><trkpt lat="-30.298829119422116" lon="115.04549124847753"><ele>4.25</ele><time>2026-04-13T02:28:32Z</time></trkpt><trkpt lat="-30.298700744769707" lon="115.0454901729213"><ele>4.5</ele><time>2026-04-13T02:28:33Z</time></trkpt><trkpt lat="-30.29857288058321" lon="115.04550185745445"><ele>4.75</ele><time>2026-04-13T02:28:34Z</time></trkpt><trkpt lat="-30.298449864237025" lon="115.04551529896203"><ele>5.0</ele><time>2026-04-13T02:28:35Z</time></trkpt><trkpt lat="-30.298328022474024" lon="115.04552628330741"><ele>5.0</ele><time>2026-04-13T02:28:36Z</time></trkpt><trkpt lat="-30.298211386734494" lon="115.04553698437229"><ele>5.0</ele><time>2026-04-13T02:28:37Z</time></trkpt><trkpt lat="-30.29809863780824" lon="115.04555217162336"><ele>5.0</ele><time>2026-04-13T02:28:38Z</time></trkpt><trkpt lat="-30.297996646168574" lon="115.04557155999797"><ele>5.0</ele><time>2026-04-13T02:28:39Z</time></trkpt><trkpt lat="-30.297899824426608" lon="115.04559324861515"><ele>5.0</ele><time>2026-04-13T02:28:40Z</time></trkpt><trkpt lat="-30.297812475396242" lon="115.04561628753582"><ele>5.2</ele><time>2026-04-13T02:28:41Z</time></trkpt><trkpt lat="-30.297742279634825" lon="115.04564565592399"><ele>5.4</ele><time>2026-04-13T02:28:42Z</time></trkpt><trkpt lat="-30.29763688419908" lon="115.04566689038833"><ele>5.6</ele><time>2026-04-13T02:28:44Z</time></trkpt><trkpt lat="-30.297656913777487" lon="115.04585719686163"><ele>5.8</ele><time>2026-04-13T02:28:45Z</time></trkpt><trkpt lat="-30.29767167402243" lon="115.04596935948658"><ele>6.0</ele><time>2026-04-13T02:28:46Z</time></trkpt><trkpt lat="-30.29769261364706" lon="115.04605092989796"><ele>6.0</ele><time>2026-04-13T02:28:47Z</time></trkpt><trkpt lat="-30.297509614137024" lon="115.04610455594445"><ele>6.0</ele><time>2026-04-13T02:28:49Z</time></trkpt><trkpt lat="-30.297399254436698" lon="115.04614112847113"><ele>6.0</ele><time>2026-04-13T02:28:50Z</time></trkpt><trkpt lat="-30.297291995562052" lon="115.04620190490563"><ele>6.0</ele><time>2026-04-13T02:28:51Z</time></trkpt><trkpt lat="-30.297204888185032" lon="115.04629052910543"><ele>6.333333333333333</ele><time>2026-04-13T02:28:52Z</time></trkpt><trkpt lat="-30.29711103552611" lon="115.04632447160047"><ele>6.666666666666666</ele><time>2026-04-13T02:28:53Z</time></trkpt><trkpt lat="-30.297035888169138" lon="115.04637457264906"><ele>7.0</ele><time>2026-04-13T02:28:54Z</time></trkpt><trkpt lat="-30.29695301834082" lon="115.04636877005105"><ele>7.333333333333333</ele><time>2026-04-13T02:28:55Z</time></trkpt><trkpt lat="-30.29688393878001" lon="115.04632906184821"><ele>7.666666666666666</ele><time>2026-04-13T02:28:56Z</time></trkpt><trkpt lat="-30.296838339845323" lon="115.04625898935387"><ele>8.0</ele><time>2026-04-13T02:28:57Z</time></trkpt><trkpt lat="-30.296828831317633" lon="115.04616298315389"><ele>7.999999999999999</ele><time>2026-04-13T02:28:58Z</time></trkpt><trkpt lat="-30.296814068730313" lon="115.04606839352107"><ele>8.0</ele><time>2026-04-13T02:28:59Z</time></trkpt><trkpt lat="-30.296795992819874" lon="115.04597515561628"><ele>8.0</ele><time>2026-04-13T02:29:00Z</time></trkpt><trkpt lat="-30.296778985100865" lon="115.04589059347637"><ele>8.0</ele><time>2026-04-13T02:29:01Z</time></trkpt><trkpt lat="-30.296760841964904" lon="115.04580038613683"><ele>7.999999999999999</ele><time>2026-04-13T02:29:02Z</time></trkpt><trkpt lat="-30.2967373863113" lon="115.04570101408527"><ele>8.0</ele><time>2026-04-13T02:29:03Z</time></trkpt><trkpt lat="-30.296706985976112" lon="115.04559052114064"><ele>7.999999999999999</ele><time>2026-04-13T02:29:04Z</time></trkpt><trkpt lat="-30.296674320186657" lon="115.04548242085015"><ele>8.0</ele><time>2026-04-13T02:29:05Z</time></trkpt><trkpt lat="-30.296642012983117" lon="115.04539313378748"><ele>8.0</ele><time>2026-04-13T02:29:06Z</time></trkpt><trkpt lat="-30.29661181452269" lon="115.04530967458382"><ele>8.0</ele><time>2026-04-13T02:29:07.001Z</time></trkpt><trkpt lat="-30.29658655708105" lon="115.04523129301313"><ele>7.999999999999999</ele><time>2026-04-13T02:29:08.001Z</time></trkpt><trkpt lat="-30.29654793435798" lon="115.04511257505021"><ele>8.0</ele><time>2026-04-13T02:29:10.001Z</time></trkpt><trkpt lat="-30.29633931971174" lon="115.04515536244858"><ele>8.25</ele><time>2026-04-13T02:29:11.001Z</time></trkpt><trkpt lat="-30.29623391962941" lon="115.04515587599639"><ele>8.5</ele><time>2026-04-13T02:29:12.001Z</time></trkpt><trkpt lat="-30.29612103572387" lon="115.0451222520659"><ele>8.75</ele><time>2026-04-13T02:29:13.001Z</time></trkpt><trkpt lat="-30.29600095808496" lon="115.04510193953007"><ele>9.0</ele><time>2026-04-13T02:29:14.001Z</time></trkpt><trkpt lat="-30.29588764982985" lon="115.04509766222"><ele>9.0</ele><time>2026-04-13T02:29:15.001Z</time></trkpt><trkpt lat="-30.295789799957173" lon="115.04508341050874"><ele>9.0</ele><time>2026-04-13T02:29:16.001Z</time></trkpt><trkpt lat="-30.295710628088447" lon="115.04503988029279"><ele>9.0</ele><time>2026-04-13T02:29:17.001Z</time></trkpt><trkpt lat="-30.295635748615975" lon="115.04500631760985"><ele>9.0</ele><time>2026-04-13T02:29:18.001Z</time></trkpt><trkpt lat="-30.29561625347444" lon="115.04491050566705"><ele>9.0</ele><time>2026-04-13T02:29:19.001Z</time></trkpt><trkpt lat="-30.29562152049276" lon="115.04481369739587"><ele>9.0</ele><time>2026-04-13T02:29:20.001Z</time></trkpt><trkpt lat="-30.295618899242278" lon="115.04469822398183"><ele>8.8</ele><time>2026-04-13T02:29:21.001Z</time></trkpt><trkpt lat="-30.295626556159146" lon="115.04458391764867"><ele>8.600000000000001</ele><time>2026-04-13T02:29:22.001Z</time></trkpt><trkpt lat="-30.295622175488877" lon="115.04447961033063"><ele>8.4</ele><time>2026-04-13T02:29:23.001Z</time></trkpt><trkpt lat="-30.29564975280442" lon="115.04439023466382"><ele>8.200000000000001</ele><time>2026-04-13T02:29:24.001Z</time></trkpt><trkpt lat="-30.295663780772863" lon="115.04430848809024"><ele>8.0</ele><time>2026-04-13T02:29:25.001Z</time></trkpt><trkpt lat="-30.295517254858247" lon="115.04416218353512"><ele>7.4</ele><time>2026-04-13T02:29:27.001Z</time></trkpt><trkpt lat="-30.29542932763057" lon="115.04410404987989"><ele>6.800000000000001</ele><time>2026-04-13T02:29:28.001Z</time></trkpt><trkpt lat="-30.29533476441856" lon="115.04406234962165"><ele>6.2</ele><time>2026-04-13T02:29:29.001Z</time></trkpt><trkpt lat="-30.295247389697476" lon="115.04402419666276"><ele>5.6</ele><time>2026-04-13T02:29:30.001Z</time></trkpt><trkpt lat="-30.295168007669037" lon="115.04395745752899"><ele>5.0</ele><time>2026-04-13T02:29:31.001Z</time></trkpt><trkpt lat="-30.29508822919307" lon="115.04385980655553"><ele>5.0</ele><time>2026-04-13T02:29:32.001Z</time></trkpt><trkpt lat="-30.295003049459122" lon="115.04376573651086"><ele>5.0</ele><time>2026-04-13T02:29:33.001Z</time></trkpt><trkpt lat="-30.29493840546546" lon="115.043649813713"><ele>5.0</ele><time>2026-04-13T02:29:34.001Z</time></trkpt><trkpt lat="-30.29486615686834" lon="115.0435531975474"><ele>5.0</ele><time>2026-04-13T02:29:35.001Z</time></trkpt><trkpt lat="-30.294777389869715" lon="115.04349703057362"><ele>5.0</ele><time>2026-04-13T02:29:36.001Z</time></trkpt><trkpt lat="-30.294672591906334" lon="115.04350162332733"><ele>5.25</ele><time>2026-04-13T02:29:37.001Z</time></trkpt><trkpt lat="-30.294573269872973" lon="115.0435799050717"><ele>5.5</ele><time>2026-04-13T02:29:38.001Z</time></trkpt><trkpt lat="-30.294477244823977" lon="115.04364746118803"><ele>5.75</ele><time>2026-04-13T02:29:39.001Z</time></trkpt><trkpt lat="-30.294378641355856" lon="115.04372884095977"><ele>6.0</ele><time>2026-04-13T02:29:40.001Z</time></trkpt><trkpt lat="-30.294283030732206" lon="115.04382910202791"><ele>6.0</ele><time>2026-04-13T02:29:41.001Z</time></trkpt><trkpt lat="-30.294174217976238" lon="115.04393724668977"><ele>6.0</ele><time>2026-04-13T02:29:42.001Z</time></trkpt><trkpt lat="-30.29407030121051" lon="115.044029571728"><ele>6.0</ele><time>2026-04-13T02:29:43.001Z</time></trkpt><trkpt lat="-30.293972856450985" lon="115.04410377760802"><ele>6.0</ele><time>2026-04-13T02:29:44.001Z</time></trkpt><trkpt lat="-30.29388288077777" lon="115.04416840907122"><ele>6.199999999999999</ele><time>2026-04-13T02:29:45.001Z</time></trkpt><trkpt lat="-30.29379407724632" lon="115.04423522991794"><ele>6.3999999999999995</ele><time>2026-04-13T02:29:46.001Z</time></trkpt><trkpt lat="-30.293704494828745" lon="115.04428239347345"><ele>6.6</ele><time>2026-04-13T02:29:47.001Z</time></trkpt><trkpt lat="-30.293606796024786" lon="115.04430504211224"><ele>6.8</ele><time>2026-04-13T02:29:48.001Z</time></trkpt><trkpt lat="-30.29350923580281" lon="115.04428296090983"><ele>7.0</ele><time>2026-04-13T02:29:49.001Z</time></trkpt><trkpt lat="-30.293413407397157" lon="115.04429662331512"><ele>7.000000000000001</ele><time>2026-04-13T02:29:50.001Z</time></trkpt><trkpt lat="-30.29332774605516" lon="115.04424800566359"><ele>7.0</ele><time>2026-04-13T02:29:51.001Z</time></trkpt><trkpt lat="-30.29324610196827" lon="115.04422613872678"><ele>7.0</ele><time>2026-04-13T02:29:52.001Z</time></trkpt><trkpt lat="-30.293176352837424" lon="115.04420582717017"><ele>7.0</ele><time>2026-04-13T02:29:53.001Z</time></trkpt><trkpt lat="-30.29308447812748" lon="115.04419307067536"><ele>7.000000000000001</ele><time>2026-04-13T02:29:55.001Z</time></trkpt><trkpt lat="-30.293026769135288" lon="115.04416353079353"><ele>7.0</ele><time>2026-04-13T02:29:57.001Z</time></trkpt><trkpt lat="-30.292944659133724" lon="115.04413835592293"><ele>6.0</ele><time>2026-04-13T02:30:00.001Z</time></trkpt><trkpt lat="-30.29283429556431" lon="115.04435527180644"><ele>5.0</ele><time>2026-04-13T02:30:02.001Z</time></trkpt><trkpt lat="-30.29280628274513" lon="115.04448689909829"><ele>4.0</ele><time>2026-04-13T02:30:03.001Z</time></trkpt><trkpt lat="-30.292786665382067" lon="115.0446401527239"><ele>4.0</ele><time>2026-04-13T02:30:04Z</time></trkpt><trkpt lat="-30.292744730720948" lon="115.04479060101262"><ele>4.0</ele><time>2026-04-13T02:30:05Z</time></trkpt><trkpt lat="-30.2927069359777" lon="115.0449725941474"><ele>4.0</ele><time>2026-04-13T02:30:06Z</time></trkpt><trkpt lat="-30.292675136596678" lon="115.04516373684395"><ele>4.333333333333333</ele><time>2026-04-13T02:30:07Z</time></trkpt><trkpt lat="-30.292649961975037" lon="115.04537417410364"><ele>4.666666666666667</ele><time>2026-04-13T02:30:08Z</time></trkpt><trkpt lat="-30.29263798207817" lon="115.0455757490307"><ele>5.0</ele><time>2026-04-13T02:30:09Z</time></trkpt><trkpt lat="-30.29264922422063" lon="115.04578370806234"><ele>5.0</ele><time>2026-04-13T02:30:10Z</time></trkpt><trkpt lat="-30.29268188961261" lon="115.0459921187429"><ele>5.0</ele><time>2026-04-13T02:30:11Z</time></trkpt><trkpt lat="-30.29273702270069" lon="115.04619715950888"><ele>5.0</ele><time>2026-04-13T02:30:12Z</time></trkpt><trkpt lat="-30.292813822600248" lon="115.04638971670279"><ele>5.0</ele><time>2026-04-13T02:30:13Z</time></trkpt><trkpt lat="-30.292914524765862" lon="115.04657673921184"><ele>5.0</ele><time>2026-04-13T02:30:14Z</time></trkpt><trkpt lat="-30.29302299099393" lon="115.04677881378394"><ele>5.0</ele><time>2026-04-13T02:30:15Z</time></trkpt><trkpt lat="-30.29313006820284" lon="115.04698814238571"><ele>5.666666666666667</ele><time>2026-04-13T02:30:16Z</time></trkpt><trkpt lat="-30.293233038244093" lon="115.0471928756671"><ele>6.333333333333334</ele><time>2026-04-13T02:30:17Z</time></trkpt><trkpt lat="-30.293341315830006" lon="115.04740135894164"><ele>7.0</ele><time>2026-04-13T02:30:18Z</time></trkpt><trkpt lat="-30.293446205516023" lon="115.04759780178914"><ele>7.0</ele><time>2026-04-13T02:30:19Z</time></trkpt><trkpt lat="-30.293552701104183" lon="115.04778316992943"><ele>7.0</ele><time>2026-04-13T02:30:20Z</time></trkpt><trkpt lat="-30.293657815800444" lon="115.0479534810225"><ele>7.0</ele><time>2026-04-13T02:30:21Z</time></trkpt><trkpt lat="-30.293771619552235" lon="115.04812274757721"><ele>7.0</ele><time>2026-04-13T02:30:22Z</time></trkpt><trkpt lat="-30.293896070979507" lon="115.04827382492755"><ele>7.0</ele><time>2026-04-13T02:30:23Z</time></trkpt><trkpt lat="-30.294034569293068" lon="115.04839803068931"><ele>7.0</ele><time>2026-04-13T02:30:24Z</time></trkpt><trkpt lat="-30.294188947995625" lon="115.04849584646335"><ele>6.75</ele><time>2026-04-13T02:30:25Z</time></trkpt><trkpt lat="-30.294338573168638" lon="115.0485690934217"><ele>6.5</ele><time>2026-04-13T02:30:26Z</time></trkpt><trkpt lat="-30.294478088625027" lon="115.04863060658151"><ele>6.25</ele><time>2026-04-13T02:30:27Z</time></trkpt><trkpt lat="-30.294595523982657" lon="115.04866556454459"><ele>6.0</ele><time>2026-04-13T02:30:28Z</time></trkpt><trkpt lat="-30.294680913826724" lon="115.04868541234733"><ele>6.0</ele><time>2026-04-13T02:30:29Z</time></trkpt><trkpt lat="-30.294759169961257" lon="115.04870735228789"><ele>6.0</ele><time>2026-04-13T02:30:31Z</time></trkpt><trkpt lat="-30.294716727916814" lon="115.0489837650031"><ele>6.0</ele><time>2026-04-13T02:30:33Z</time></trkpt><trkpt lat="-30.294705681644338" lon="115.04911220536464"><ele>6.0</ele><time>2026-04-13T02:30:34Z</time></trkpt><trkpt lat="-30.29470676196077" lon="115.04926406879505"><ele>6.0</ele><time>2026-04-13T02:30:35Z</time></trkpt><trkpt lat="-30.29473972484482" lon="115.04942519666741"><ele>6.0</ele><time>2026-04-13T02:30:36Z</time></trkpt><trkpt lat="-30.29477063077671" lon="115.04959854466333"><ele>6.0</ele><time>2026-04-13T02:30:37Z</time></trkpt><trkpt lat="-30.294812217595837" lon="115.04978429306453"><ele>6.0</ele><time>2026-04-13T02:30:38Z</time></trkpt><trkpt lat="-30.294850131049703" lon="115.04997019620302"><ele>6.0</ele><time>2026-04-13T02:30:39Z</time></trkpt><trkpt lat="-30.294888489636943" lon="115.05015116866767"><ele>6.0</ele><time>2026-04-13T02:30:40Z</time></trkpt><trkpt lat="-30.2949295398417" lon="115.05033265960796"><ele>6.0</ele><time>2026-04-13T02:30:41Z</time></trkpt><trkpt lat="-30.29497217258546" lon="115.05049808191333"><ele>6.0</ele><time>2026-04-13T02:30:42Z</time></trkpt><trkpt lat="-30.295011062609387" lon="115.05064826662836"><ele>6.0</ele><time>2026-04-13T02:30:43Z</time></trkpt><trkpt lat="-30.295047183230796" lon="115.05077070357298"><ele>6.0</ele><time>2026-04-13T02:30:44Z</time></trkpt><trkpt lat="-30.295089082024266" lon="115.05085751541405"><ele>6.75</ele><time>2026-04-13T02:30:45Z</time></trkpt><trkpt lat="-30.295122775388545" lon="115.0509337560125"><ele>7.5</ele><time>2026-04-13T02:30:46Z</time></trkpt><trkpt lat="-30.295148982071417" lon="115.05100458325829"><ele>8.25</ele><time>2026-04-13T02:30:47Z</time></trkpt><trkpt lat="-30.295341799726817" lon="115.05096416987482"><ele>9.0</ele><time>2026-04-13T02:30:48Z</time></trkpt><trkpt lat="-30.29545388383341" lon="115.0509064732866"><ele>9.0</ele><time>2026-04-13T02:30:49Z</time></trkpt><trkpt lat="-30.29558327205563" lon="115.05084830473928"><ele>9.0</ele><time>2026-04-13T02:30:50Z</time></trkpt><trkpt lat="-30.29572314760981" lon="115.05078896817426"><ele>9.0</ele><time>2026-04-13T02:30:51Z</time></trkpt><trkpt lat="-30.295870827268097" lon="115.05071413358614"><ele>9.0</ele><time>2026-04-13T02:30:52Z</time></trkpt><trkpt lat="-30.296029128780216" lon="115.05066372015291"><ele>7.666666666666667</ele><time>2026-04-13T02:30:53.001Z</time></trkpt><trkpt lat="-30.296202476453356" lon="115.05064589347816"><ele>6.333333333333334</ele><time>2026-04-13T02:30:54.001Z</time></trkpt><trkpt lat="-30.29638403290931" lon="115.05066388000925"><ele>5.0</ele><time>2026-04-13T02:30:55.001Z</time></trkpt><trkpt lat="-30.296561365608" lon="115.05069110489936"><ele>5.0</ele><time>2026-04-13T02:30:56.001Z</time></trkpt><trkpt lat="-30.296753653076966" lon="115.05071497792005"><ele>5.0</ele><time>2026-04-13T02:30:57.001Z</time></trkpt><trkpt lat="-30.29695262705051" lon="115.0507332322932"><ele>5.0</ele><time>2026-04-13T02:30:58.001Z</time></trkpt><trkpt lat="-30.29716065532498" lon="115.05074874537307"><ele>5.0</ele><time>2026-04-13T02:30:59.001Z</time></trkpt><trkpt lat="-30.297354229120703" lon="115.05076172143539"><ele>5.0</ele><time>2026-04-13T02:31:00.001Z</time></trkpt><trkpt lat="-30.297525791041622" lon="115.05077784636289"><ele>5.0</ele><time>2026-04-13T02:31:01.001Z</time></trkpt><trkpt lat="-30.29768802553903" lon="115.05079345543214"><ele>5.333333333333334</ele><time>2026-04-13T02:31:02.001Z</time></trkpt><trkpt lat="-30.297839912970478" lon="115.0508175618783"><ele>5.666666666666667</ele><time>2026-04-13T02:31:03.001Z</time></trkpt><trkpt lat="-30.297983786263167" lon="115.0508776737299"><ele>6.0</ele><time>2026-04-13T02:31:04.001Z</time></trkpt><trkpt lat="-30.298125857399473" lon="115.05097324736178"><ele>6.0</ele><time>2026-04-13T02:31:05.001Z</time></trkpt><trkpt lat="-30.29825951290797" lon="115.05108166407679"><ele>6.0</ele><time>2026-04-13T02:31:06.001Z</time></trkpt><trkpt lat="-30.29837891786762" lon="115.05117597961976"><ele>6.0</ele><time>2026-04-13T02:31:07.001Z</time></trkpt><trkpt lat="-30.298473771886314" lon="115.05124671532467"><ele>6.0</ele><time>2026-04-13T02:31:08.001Z</time></trkpt><trkpt lat="-30.298540163550896" lon="115.05129903030566"><ele>6.0</ele><time>2026-04-13T02:31:09.001Z</time></trkpt><trkpt lat="-30.298601615269714" lon="115.05133564235562"><ele>6.0</ele><time>2026-04-13T02:31:11.001Z</time></trkpt><trkpt lat="-30.29854588815807" lon="115.0514862099709"><ele>6.0</ele><time>2026-04-13T02:31:12.001Z</time></trkpt><trkpt lat="-30.298498869238465" lon="115.05159521050994"><ele>6.0</ele><time>2026-04-13T02:31:13.001Z</time></trkpt><trkpt lat="-30.298429368990114" lon="115.05171791130718"><ele>6.0</ele><time>2026-04-13T02:31:14.001Z</time></trkpt><trkpt lat="-30.298335095105834" lon="115.05186919744088"><ele>5.0</ele><time>2026-04-13T02:31:15.001Z</time></trkpt><trkpt lat="-30.298237161393036" lon="115.05204723186996"><ele>4.0</ele><time>2026-04-13T02:31:16.001Z</time></trkpt><trkpt lat="-30.29813242423169" lon="115.05224634017601"><ele>3.0</ele><time>2026-04-13T02:31:17.001Z</time></trkpt><trkpt lat="-30.298016531103407" lon="115.05247002871656"><ele>3.0</ele><time>2026-04-13T02:31:18.001Z</time></trkpt><trkpt lat="-30.297890661055728" lon="115.05270112855116"><ele>3.0</ele><time>2026-04-13T02:31:19.001Z</time></trkpt><trkpt lat="-30.297764896359524" lon="115.05293608074297"><ele>3.0</ele><time>2026-04-13T02:31:20.001Z</time></trkpt><trkpt lat="-30.29763455378913" lon="115.05318087700063"><ele>3.0</ele><time>2026-04-13T02:31:21.001Z</time></trkpt><trkpt lat="-30.297505850544702" lon="115.05341855287497"><ele>2.5</ele><time>2026-04-13T02:31:22.001Z</time></trkpt><trkpt lat="-30.29737556538917" lon="115.05365343054834"><ele>2.0</ele><time>2026-04-13T02:31:23.001Z</time></trkpt><trkpt lat="-30.297245589336836" lon="115.05389140829969"><ele>2.5</ele><time>2026-04-13T02:31:24.001Z</time></trkpt><trkpt lat="-30.297112127263855" lon="115.05413736353694"><ele>3.0</ele><time>2026-04-13T02:31:25.001Z</time></trkpt><trkpt lat="-30.296978715788672" lon="115.05437203011563"><ele>3.0</ele><time>2026-04-13T02:31:26.001Z</time></trkpt><trkpt lat="-30.29683293571562" lon="115.05459328738957"><ele>3.0</ele><time>2026-04-13T02:31:27.001Z</time></trkpt><trkpt lat="-30.29668254727423" lon="115.05481187876772"><ele>3.5</ele><time>2026-04-13T02:31:28.001Z</time></trkpt><trkpt lat="-30.296526237284596" lon="115.05502375009426"><ele>4.0</ele><time>2026-04-13T02:31:29.001Z</time></trkpt><trkpt lat="-30.296363879897164" lon="115.05523133950685"><ele>4.0</ele><time>2026-04-13T02:31:30.001Z</time></trkpt><trkpt lat="-30.296196880367123" lon="115.05543766483976"><ele>4.0</ele><time>2026-04-13T02:31:31.001Z</time></trkpt><trkpt lat="-30.296025662132497" lon="115.05564040449109"><ele>5.5</ele><time>2026-04-13T02:31:32.001Z</time></trkpt><trkpt lat="-30.295847430543294" lon="115.05583648987877"><ele>7.0</ele><time>2026-04-13T02:31:33.001Z</time></trkpt><trkpt lat="-30.295661456676875" lon="115.05602406496931"><ele>6.0</ele><time>2026-04-13T02:31:34.001Z</time></trkpt><trkpt lat="-30.295473054038432" lon="115.05620411582089"><ele>5.0</ele><time>2026-04-13T02:31:35.001Z</time></trkpt><trkpt lat="-30.295278221029548" lon="115.05638128753716"><ele>5.0</ele><time>2026-04-13T02:31:36.001Z</time></trkpt><trkpt lat="-30.295079010766774" lon="115.05655312649213"><ele>5.0</ele><time>2026-04-13T02:31:37.001Z</time></trkpt><trkpt lat="-30.294870948591083" lon="115.05671498806333"><ele>4.5</ele><time>2026-04-13T02:31:38.001Z</time></trkpt><trkpt lat="-30.29465535872173" lon="115.05686645731575"><ele>4.0</ele><time>2026-04-13T02:31:39.001Z</time></trkpt><trkpt lat="-30.29443289973264" lon="115.05701228112375"><ele>4.0</ele><time>2026-04-13T02:31:40.001Z</time></trkpt><trkpt lat="-30.29420960820796" lon="115.05715644343698"><ele>4.0</ele><time>2026-04-13T02:31:41.001Z</time></trkpt><trkpt lat="-30.293981572618605" lon="115.05729549661925"><ele>4.5</ele><time>2026-04-13T02:31:42.001Z</time></trkpt><trkpt lat="-30.293748974767116" lon="115.05743631286954"><ele>5.0</ele><time>2026-04-13T02:31:43.001Z</time></trkpt><trkpt lat="-30.293518643512492" lon="115.0575851198555"><ele>5.5</ele><time>2026-04-13T02:31:44.001Z</time></trkpt><trkpt lat="-30.293290150183743" lon="115.05773618960696"><ele>6.0</ele><time>2026-04-13T02:31:45.001Z</time></trkpt><trkpt lat="-30.293056043090317" lon="115.05788660032532"><ele>6.0</ele><time>2026-04-13T02:31:46.001Z</time></trkpt><trkpt lat="-30.29281741182861" lon="115.0580365168802"><ele>6.0</ele><time>2026-04-13T02:31:47.001Z</time></trkpt><trkpt lat="-30.29258214147107" lon="115.05818163150555"><ele>5.0</ele><time>2026-04-13T02:31:48.001Z</time></trkpt><trkpt lat="-30.292346953447836" lon="115.05833221328389"><ele>4.0</ele><time>2026-04-13T02:31:49.001Z</time></trkpt><trkpt lat="-30.292114153869235" lon="115.05848952399295"><ele>2.5</ele><time>2026-04-13T02:31:50.001Z</time></trkpt><trkpt lat="-30.29187847899584" lon="115.05864728218017"><ele>1.0</ele><time>2026-04-13T02:31:51.001Z</time></trkpt><trkpt lat="-30.291633704601317" lon="115.05880700543499"><ele>2.0</ele><time>2026-04-13T02:31:52.001Z</time></trkpt><trkpt lat="-30.29139631563643" lon="115.05896350201147"><ele>3.0</ele><time>2026-04-13T02:31:53.001Z</time></trkpt><trkpt lat="-30.291172355635243" lon="115.05911379639994"><ele>3.5</ele><time>2026-04-13T02:31:54.001Z</time></trkpt><trkpt lat="-30.29095190274389" lon="115.05926041118452"><ele>4.0</ele><time>2026-04-13T02:31:55.001Z</time></trkpt><trkpt lat="-30.290726080875235" lon="115.05940339641846"><ele>4.5</ele><time>2026-04-13T02:31:56.001Z</time></trkpt><trkpt lat="-30.290492335188567" lon="115.0595379773271"><ele>5.0</ele><time>2026-04-13T02:31:57.001Z</time></trkpt><trkpt lat="-30.290247709564515" lon="115.05966271316835"><ele>5.0</ele><time>2026-04-13T02:31:58.001Z</time></trkpt><trkpt lat="-30.289993487350735" lon="115.05977608702045"><ele>5.0</ele><time>2026-04-13T02:31:59.001Z</time></trkpt><trkpt lat="-30.28973171872518" lon="115.05988162436739"><ele>5.5</ele><time>2026-04-13T02:32:00.001Z</time></trkpt><trkpt lat="-30.289468000640944" lon="115.05997533031423"><ele>6.0</ele><time>2026-04-13T02:32:01.001Z</time></trkpt><trkpt lat="-30.289201781217255" lon="115.06005676755609"><ele>6.0</ele><time>2026-04-13T02:32:02.001Z</time></trkpt><trkpt lat="-30.288932774279875" lon="115.06012829887236"><ele>6.0</ele><time>2026-04-13T02:32:03.001Z</time></trkpt><trkpt lat="-30.28866041886999" lon="115.06019895622055"><ele>4.5</ele><time>2026-04-13T02:32:04.001Z</time></trkpt><trkpt lat="-30.288386770359697" lon="115.06025885157884"><ele>3.0</ele><time>2026-04-13T02:32:05.001Z</time></trkpt><trkpt lat="-30.288114467166256" lon="115.0603009408681"><ele>3.5</ele><time>2026-04-13T02:32:06.001Z</time></trkpt><trkpt lat="-30.287846214762748" lon="115.06033012166924"><ele>4.0</ele><time>2026-04-13T02:32:07.001Z</time></trkpt><trkpt lat="-30.287585305326683" lon="115.06034388446801"><ele>4.0</ele><time>2026-04-13T02:32:08.001Z</time></trkpt><trkpt lat="-30.28732223341147" lon="115.06034970730595"><ele>4.0</ele><time>2026-04-13T02:32:09.001Z</time></trkpt><trkpt lat="-30.287073497067176" lon="115.06034789695349"><ele>4.5</ele><time>2026-04-13T02:32:10.001Z</time></trkpt><trkpt lat="-30.286839482755347" lon="115.06034294056604"><ele>5.0</ele><time>2026-04-13T02:32:11.001Z</time></trkpt><trkpt lat="-30.28662274325069" lon="115.06033329768907"><ele>5.0</ele><time>2026-04-13T02:32:12.001Z</time></trkpt><trkpt lat="-30.28641593076965" lon="115.06032058234169"><ele>5.0</ele><time>2026-04-13T02:32:13.001Z</time></trkpt><trkpt lat="-30.286214386109183" lon="115.0603080009778"><ele>5.0</ele><time>2026-04-13T02:32:14.001Z</time></trkpt><trkpt lat="-30.286005379141702" lon="115.06029628669101"><ele>5.0</ele><time>2026-04-13T02:32:15.001Z</time></trkpt><trkpt lat="-30.285802227875838" lon="115.06028051946087"><ele>5.0</ele><time>2026-04-13T02:32:16.001Z</time></trkpt><trkpt lat="-30.285601948046914" lon="115.06025888397065"><ele>5.0</ele><time>2026-04-13T02:32:17.001Z</time></trkpt><trkpt lat="-30.28539903002088" lon="115.0602275889425"><ele>4.666666666666667</ele><time>2026-04-13T02:32:18.001Z</time></trkpt><trkpt lat="-30.285210877076974" lon="115.06019513226573"><ele>4.333333333333333</ele><time>2026-04-13T02:32:19.001Z</time></trkpt><trkpt lat="-30.285035421104546" lon="115.06016761031591"><ele>4.0</ele><time>2026-04-13T02:32:20.001Z</time></trkpt><trkpt lat="-30.284879932908776" lon="115.06014478527702"><ele>4.0</ele><time>2026-04-13T02:32:21.001Z</time></trkpt><trkpt lat="-30.28474042261431" lon="115.06012827124306"><ele>4.0</ele><time>2026-04-13T02:32:22.001Z</time></trkpt><trkpt lat="-30.284625115789925" lon="115.06011521523668"><ele>4.0</ele><time>2026-04-13T02:32:23.001Z</time></trkpt><trkpt lat="-30.28454279266533" lon="115.06010799154836"><ele>4.0</ele><time>2026-04-13T02:32:24.001Z</time></trkpt><trkpt lat="-30.284476791847382" lon="115.0601259697144"><ele>4.0</ele><time>2026-04-13T02:32:25.001Z</time></trkpt><trkpt lat="-30.284416101594644" lon="115.06018151775531"><ele>4.0</ele><time>2026-04-13T02:32:26.001Z</time></trkpt><trkpt lat="-30.284391256301827" lon="115.06027355250059"><ele>4.0</ele><time>2026-04-13T02:32:27.001Z</time></trkpt><trkpt lat="-30.284391160988935" lon="115.06039165296794"><ele>4.0</ele><time>2026-04-13T02:32:28.001Z</time></trkpt><trkpt lat="-30.284398468889595" lon="115.06053905165645"><ele>4.0</ele><time>2026-04-13T02:32:29.001Z</time></trkpt><trkpt lat="-30.284387504481497" lon="115.06070774251536"><ele>5.0</ele><time>2026-04-13T02:32:30.001Z</time></trkpt><trkpt lat="-30.284365167703207" lon="115.06089971983327"><ele>6.0</ele><time>2026-04-13T02:32:31.001Z</time></trkpt><trkpt lat="-30.284342190132726" lon="115.06109990009811"><ele>7.0</ele><time>2026-04-13T02:32:32.001Z</time></trkpt><trkpt lat="-30.284317292574595" lon="115.06132197854724"><ele>7.0</ele><time>2026-04-13T02:32:33.001Z</time></trkpt><trkpt lat="-30.284292747331378" lon="115.06156471896013"><ele>7.0</ele><time>2026-04-13T02:32:34.001Z</time></trkpt><trkpt lat="-30.284264495391195" lon="115.06181534763601"><ele>7.0</ele><time>2026-04-13T02:32:35.001Z</time></trkpt><trkpt lat="-30.284233313008748" lon="115.0620603020107"><ele>7.0</ele><time>2026-04-13T02:32:36.001Z</time></trkpt><trkpt lat="-30.28420523100111" lon="115.06230737572086"><ele>7.0</ele><time>2026-04-13T02:32:37.001Z</time></trkpt><trkpt lat="-30.284176493860386" lon="115.06256311515895"><ele>7.0</ele><time>2026-04-13T02:32:38.001Z</time></trkpt><trkpt lat="-30.284144127970798" lon="115.06282410921392"><ele>7.5</ele><time>2026-04-13T02:32:39.001Z</time></trkpt><trkpt lat="-30.284103742540346" lon="115.06309016233082"><ele>8.0</ele><time>2026-04-13T02:32:40.001Z</time></trkpt><trkpt lat="-30.28405279642696" lon="115.06336406838378"><ele>9.5</ele><time>2026-04-13T02:32:41.001Z</time></trkpt><trkpt lat="-30.28399760099228" lon="115.06362431561193"><ele>11.0</ele><time>2026-04-13T02:32:42.001Z</time></trkpt><trkpt lat="-30.28393603137291" lon="115.06388099783258"><ele>11.0</ele><time>2026-04-13T02:32:43.001Z</time></trkpt><trkpt lat="-30.28386770760645" lon="115.06414200325115"><ele>11.0</ele><time>2026-04-13T02:32:44.001Z</time></trkpt><trkpt lat="-30.283793152322303" lon="115.06440829126214"><ele>11.0</ele><time>2026-04-13T02:32:45.001Z</time></trkpt><trkpt lat="-30.28371255674878" lon="115.06467349200118"><ele>11.0</ele><time>2026-04-13T02:32:46.001Z</time></trkpt><trkpt lat="-30.283625779052915" lon="115.06494495652171"><ele>9.5</ele><time>2026-04-13T02:32:47.001Z</time></trkpt><trkpt lat="-30.28353304980755" lon="115.06522068440597"><ele>8.0</ele><time>2026-04-13T02:32:48.001Z</time></trkpt><trkpt lat="-30.283443269225582" lon="115.06547970595328"><ele>8.0</ele><time>2026-04-13T02:32:49.001Z</time></trkpt><trkpt lat="-30.28335227160803" lon="115.06573736466294"><ele>8.0</ele><time>2026-04-13T02:32:50.001Z</time></trkpt><trkpt lat="-30.283260982053445" lon="115.0659990454859"><ele>7.0</ele><time>2026-04-13T02:32:51.001Z</time></trkpt><trkpt lat="-30.28317310052905" lon="115.0662616997111"><ele>6.0</ele><time>2026-04-13T02:32:52.001Z</time></trkpt><trkpt lat="-30.283084548867404" lon="115.06652663712502"><ele>6.5</ele><time>2026-04-13T02:32:53.001Z</time></trkpt><trkpt lat="-30.28299443742757" lon="115.06678895829981"><ele>7.0</ele><time>2026-04-13T02:32:54.001Z</time></trkpt><trkpt lat="-30.28290094550058" lon="115.06705205901595"><ele>7.0</ele><time>2026-04-13T02:32:55.001Z</time></trkpt><trkpt lat="-30.282806343372123" lon="115.06731758470009"><ele>7.0</ele><time>2026-04-13T02:32:56.001Z</time></trkpt><trkpt lat="-30.282709122875335" lon="115.06758958574507"><ele>9.5</ele><time>2026-04-13T02:32:57.001Z</time></trkpt><trkpt lat="-30.28261200813128" lon="115.06786548780633"><ele>12.0</ele><time>2026-04-13T02:32:58.001Z</time></trkpt><trkpt lat="-30.282517738737994" lon="115.06814348164446"><ele>15.5</ele><time>2026-04-13T02:32:59.001Z</time></trkpt><trkpt lat="-30.282424512364265" lon="115.0684231423709"><ele>19.0</ele><time>2026-04-13T02:33:00.001Z</time></trkpt><trkpt lat="-30.282331366869748" lon="115.06870290887935"><ele>19.0</ele><time>2026-04-13T02:33:01.001Z</time></trkpt><trkpt lat="-30.282237130307283" lon="115.06898074082937"><ele>19.0</ele><time>2026-04-13T02:33:02.001Z</time></trkpt><trkpt lat="-30.282143105379532" lon="115.06925315439338"><ele>22.0</ele><time>2026-04-13T02:33:03.001Z</time></trkpt><trkpt lat="-30.28204755261436" lon="115.06952841942848"><ele>25.0</ele><time>2026-04-13T02:33:04.001Z</time></trkpt><trkpt lat="-30.28195535156926" lon="115.06979907682974"><ele>26.0</ele><time>2026-04-13T02:33:05.001Z</time></trkpt><trkpt lat="-30.281863524754435" lon="115.07007127445328"><ele>27.0</ele><time>2026-04-13T02:33:06.001Z</time></trkpt><trkpt lat="-30.281770047534955" lon="115.07033938524636"><ele>27.0</ele><time>2026-04-13T02:33:07.001Z</time></trkpt><trkpt lat="-30.28167475641238" lon="115.07061199184676"><ele>27.0</ele><time>2026-04-13T02:33:08.001Z</time></trkpt><trkpt lat="-30.28157943313163" lon="115.07088236924768"><ele>26.5</ele><time>2026-04-13T02:33:09.001Z</time></trkpt><trkpt lat="-30.281481283867105" lon="115.07115310729927"><ele>26.0</ele><time>2026-04-13T02:33:10.001Z</time></trkpt><trkpt lat="-30.28138289858529" lon="115.07142292947674"><ele>28.5</ele><time>2026-04-13T02:33:11.001Z</time></trkpt><trkpt lat="-30.281282568435543" lon="115.0716931038836"><ele>31.0</ele><time>2026-04-13T02:33:12.001Z</time></trkpt><trkpt lat="-30.281182068263632" lon="115.07196252509418"><ele>31.0</ele><time>2026-04-13T02:33:13.001Z</time></trkpt><trkpt lat="-30.281082107597584" lon="115.07223004335658"><ele>31.0</ele><time>2026-04-13T02:33:14.001Z</time></trkpt><trkpt lat="-30.280987925037557" lon="115.07249948707688"><ele>30.0</ele><time>2026-04-13T02:33:15.001Z</time></trkpt><trkpt lat="-30.280903455953965" lon="115.07277451533011"><ele>29.0</ele><time>2026-04-13T02:33:16.001Z</time></trkpt><trkpt lat="-30.280822072941916" lon="115.0730491758807"><ele>27.5</ele><time>2026-04-13T02:33:17.001Z</time></trkpt><trkpt lat="-30.280736220238186" lon="115.07331837269713"><ele>26.0</ele><time>2026-04-13T02:33:18.001Z</time></trkpt><trkpt lat="-30.28064299481652" lon="115.07358730795283"><ele>25.5</ele><time>2026-04-13T02:33:19.001Z</time></trkpt><trkpt lat="-30.280550863338075" lon="115.07385441968395"><ele>25.0</ele><time>2026-04-13T02:33:20.001Z</time></trkpt><trkpt lat="-30.280458350350944" lon="115.07412141816224"><ele>27.0</ele><time>2026-04-13T02:33:21.001Z</time></trkpt><trkpt lat="-30.280364655915005" lon="115.0743871757997"><ele>29.0</ele><time>2026-04-13T02:33:22.001Z</time></trkpt><trkpt lat="-30.280271127865007" lon="115.07465484732712"><ele>29.0</ele><time>2026-04-13T02:33:23.001Z</time></trkpt><trkpt lat="-30.2801810571444" lon="115.07492068503596"><ele>29.0</ele><time>2026-04-13T02:33:24.001Z</time></trkpt><trkpt lat="-30.280091526586705" lon="115.0751828443591"><ele>29.0</ele><time>2026-04-13T02:33:25.001Z</time></trkpt><trkpt lat="-30.28000160288901" lon="115.07544082315081"><ele>29.0</ele><time>2026-04-13T02:33:26.001Z</time></trkpt><trkpt lat="-30.279912880033063" lon="115.07570491554387"><ele>29.5</ele><time>2026-04-13T02:33:27.001Z</time></trkpt><trkpt lat="-30.279823448856973" lon="115.07596847373395"><ele>30.0</ele><time>2026-04-13T02:33:28.001Z</time></trkpt><trkpt lat="-30.279730511158068" lon="115.07623133753876"><ele>30.0</ele><time>2026-04-13T02:33:29.001Z</time></trkpt><trkpt lat="-30.279632211965936" lon="115.07649155307831"><ele>30.0</ele><time>2026-04-13T02:33:30.001Z</time></trkpt><trkpt lat="-30.27952578578114" lon="115.07675042630457"><ele>30.0</ele><time>2026-04-13T02:33:31.001Z</time></trkpt><trkpt lat="-30.279408264775732" lon="115.07701522080532"><ele>30.0</ele><time>2026-04-13T02:33:32.001Z</time></trkpt><trkpt lat="-30.2792844174987" lon="115.07727835805177"><ele>30.5</ele><time>2026-04-13T02:33:33.001Z</time></trkpt><trkpt lat="-30.279159431802103" lon="115.07753769688149"><ele>31.0</ele><time>2026-04-13T02:33:34.001Z</time></trkpt><trkpt lat="-30.27903088346563" lon="115.07779515001249"><ele>31.0</ele><time>2026-04-13T02:33:35.001Z</time></trkpt><trkpt lat="-30.278902848685767" lon="115.0780569771611"><ele>31.0</ele><time>2026-04-13T02:33:36.001Z</time></trkpt><trkpt lat="-30.278778432503902" lon="115.07832047769892"><ele>31.0</ele><time>2026-04-13T02:33:37.001Z</time></trkpt><trkpt lat="-30.2786540728895" lon="115.07858667114478"><ele>31.0</ele><time>2026-04-13T02:33:38.001Z</time></trkpt><trkpt lat="-30.278527472074376" lon="115.07885314035842"><ele>29.5</ele><time>2026-04-13T02:33:39.001Z</time></trkpt><trkpt lat="-30.278399408690316" lon="115.07911769124706"><ele>28.0</ele><time>2026-04-13T02:33:40.001Z</time></trkpt><trkpt lat="-30.27827302326018" lon="115.07937683467566"><ele>28.0</ele><time>2026-04-13T02:33:41.001Z</time></trkpt><trkpt lat="-30.27814987173262" lon="115.07963557660649"><ele>28.0</ele><time>2026-04-13T02:33:42.001Z</time></trkpt><trkpt lat="-30.278029027657436" lon="115.07988689473501"><ele>28.5</ele><time>2026-04-13T02:33:43.001Z</time></trkpt><trkpt lat="-30.277907935096092" lon="115.0801378499695"><ele>29.0</ele><time>2026-04-13T02:33:44.001Z</time></trkpt><trkpt lat="-30.27778642262236" lon="115.08039019101031"><ele>29.0</ele><time>2026-04-13T02:33:45.001Z</time></trkpt><trkpt lat="-30.277666085787377" lon="115.08063765680996"><ele>29.0</ele><time>2026-04-13T02:33:46.001Z</time></trkpt><trkpt lat="-30.2775471014317" lon="115.08087826211514"><ele>28.5</ele><time>2026-04-13T02:33:47.001Z</time></trkpt><trkpt lat="-30.277429966386915" lon="115.08111978446289"><ele>28.0</ele><time>2026-04-13T02:33:48.001Z</time></trkpt><trkpt lat="-30.277312844380216" lon="115.08136517409248"><ele>27.0</ele><time>2026-04-13T02:33:49.001Z</time></trkpt><trkpt lat="-30.277195108678594" lon="115.08161185994652"><ele>26.0</ele><time>2026-04-13T02:33:50.001Z</time></trkpt><trkpt lat="-30.277077278729106" lon="115.08186051153423"><ele>26.0</ele><time>2026-04-13T02:33:51.001Z</time></trkpt><trkpt lat="-30.276957947094324" lon="115.08210931984127"><ele>26.0</ele><time>2026-04-13T02:33:52.001Z</time></trkpt><trkpt lat="-30.276836268774748" lon="115.0823586188135"><ele>28.5</ele><time>2026-04-13T02:33:53.001Z</time></trkpt><trkpt lat="-30.276711799631983" lon="115.08260897434742"><ele>31.0</ele><time>2026-04-13T02:33:54.001Z</time></trkpt><trkpt lat="-30.276588648834515" lon="115.08286000675118"><ele>31.0</ele><time>2026-04-13T02:33:55.001Z</time></trkpt><trkpt lat="-30.276466927594985" lon="115.08311483765415"><ele>31.0</ele><time>2026-04-13T02:33:56.001Z</time></trkpt><trkpt lat="-30.276345733444025" lon="115.083371930362"><ele>30.0</ele><time>2026-04-13T02:33:57.001Z</time></trkpt><trkpt lat="-30.276222835985443" lon="115.08363080600573"><ele>29.0</ele><time>2026-04-13T02:33:58.001Z</time></trkpt><trkpt lat="-30.27609955465408" lon="115.0838863947642"><ele>30.0</ele><time>2026-04-13T02:33:59.001Z</time></trkpt><trkpt lat="-30.275974745915466" lon="115.08414194182465"><ele>31.0</ele><time>2026-04-13T02:34:00.001Z</time></trkpt><trkpt lat="-30.275851870198665" lon="115.08439365786631"><ele>31.0</ele><time>2026-04-13T02:34:01.001Z</time></trkpt><trkpt lat="-30.27572930956783" lon="115.08464815639441"><ele>31.0</ele><time>2026-04-13T02:34:02.001Z</time></trkpt><trkpt lat="-30.275605119160844" lon="115.08490096388837"><ele>31.5</ele><time>2026-04-13T02:34:03.001Z</time></trkpt><trkpt lat="-30.275480889215668" lon="115.08515323109128"><ele>32.0</ele><time>2026-04-13T02:34:04.001Z</time></trkpt><trkpt lat="-30.275359098724195" lon="115.08540761422994"><ele>32.0</ele><time>2026-04-13T02:34:05.001Z</time></trkpt><trkpt lat="-30.27523824297911" lon="115.08566164160405"><ele>32.0</ele><time>2026-04-13T02:34:06.001Z</time></trkpt><trkpt lat="-30.27512033994779" lon="115.08591538902023"><ele>33.5</ele><time>2026-04-13T02:34:07.001Z</time></trkpt><trkpt lat="-30.275004312773408" lon="115.08617168939087"><ele>35.0</ele><time>2026-04-13T02:34:08.001Z</time></trkpt><trkpt lat="-30.274891246693343" lon="115.08641696666685"><ele>38.0</ele><time>2026-04-13T02:34:09.001Z</time></trkpt><trkpt lat="-30.274771693440503" lon="115.08666569985952"><ele>41.0</ele><time>2026-04-13T02:34:10.001Z</time></trkpt><trkpt lat="-30.274651677027926" lon="115.08691053882627"><ele>42.5</ele><time>2026-04-13T02:34:11.001Z</time></trkpt><trkpt lat="-30.27453164512292" lon="115.08715547733927"><ele>44.0</ele><time>2026-04-13T02:34:12.001Z</time></trkpt><trkpt lat="-30.274407302094545" lon="115.08740893076437"><ele>44.0</ele><time>2026-04-13T02:34:13.001Z</time></trkpt><trkpt lat="-30.274281775872193" lon="115.08766601690564"><ele>44.0</ele><time>2026-04-13T02:34:14.001Z</time></trkpt><trkpt lat="-30.274152921556762" lon="115.08793058651221"><ele>44.0</ele><time>2026-04-13T02:34:15.001Z</time></trkpt><trkpt lat="-30.274022857247886" lon="115.08819702103284"><ele>44.0</ele><time>2026-04-13T02:34:16.001Z</time></trkpt><trkpt lat="-30.2738919310634" lon="115.08846983789824"><ele>47.0</ele><time>2026-04-13T02:34:17.001Z</time></trkpt><trkpt lat="-30.273760552206657" lon="115.0887461937415"><ele>50.0</ele><time>2026-04-13T02:34:18.001Z</time></trkpt><trkpt lat="-30.27362904772503" lon="115.08902244890577"><ele>49.0</ele><time>2026-04-13T02:34:19.001Z</time></trkpt><trkpt lat="-30.27349797765257" lon="115.08929951817713"><ele>48.0</ele><time>2026-04-13T02:34:20.001Z</time></trkpt><trkpt lat="-30.273367027335397" lon="115.08957244590904"><ele>48.0</ele><time>2026-04-13T02:34:21.001Z</time></trkpt><trkpt lat="-30.27323362088035" lon="115.08984568749823"><ele>48.0</ele><time>2026-04-13T02:34:22.001Z</time></trkpt><trkpt lat="-30.27310362286052" lon="115.09011350881745"><ele>47.5</ele><time>2026-04-13T02:34:23.001Z</time></trkpt><trkpt lat="-30.272973210471573" lon="115.09038294772891"><ele>47.0</ele><time>2026-04-13T02:34:24.001Z</time></trkpt><trkpt lat="-30.272846931263015" lon="115.09064599070008"><ele>47.5</ele><time>2026-04-13T02:34:25.001Z</time></trkpt><trkpt lat="-30.27271693574543" lon="115.09091497371192"><ele>48.0</ele><time>2026-04-13T02:34:26.001Z</time></trkpt><trkpt lat="-30.272586012087352" lon="115.09118931095094"><ele>48.0</ele><time>2026-04-13T02:34:27.001Z</time></trkpt><trkpt lat="-30.27245399465971" lon="115.09146980348022"><ele>48.0</ele><time>2026-04-13T02:34:28.001Z</time></trkpt><trkpt lat="-30.27232208047644" lon="115.09174866670554"><ele>48.0</ele><time>2026-04-13T02:34:29.001Z</time></trkpt><trkpt lat="-30.272196502075573" lon="115.09200974236741"><ele>48.0</ele><time>2026-04-13T02:34:30.001Z</time></trkpt><trkpt lat="-30.272079087105705" lon="115.09224659005649"><ele>47.333333333333336</ele><time>2026-04-13T02:34:31.001Z</time></trkpt><trkpt lat="-30.271973004765805" lon="115.0924600715529"><ele>46.66666666666667</ele><time>2026-04-13T02:34:32.001Z</time></trkpt><trkpt lat="-30.271881711076517" lon="115.09264471361911"><ele>46.0</ele><time>2026-04-13T02:34:33Z</time></trkpt><trkpt lat="-30.2717941984435" lon="115.09281844325692"><ele>46.0</ele><time>2026-04-13T02:34:34Z</time></trkpt><trkpt lat="-30.27171875276251" lon="115.09296762015671"><ele>46.0</ele><time>2026-04-13T02:34:35Z</time></trkpt><trkpt lat="-30.271656509012317" lon="115.09308935592688"><ele>46.0</ele><time>2026-04-13T02:34:36Z</time></trkpt><trkpt lat="-30.27161214772866" lon="115.09317902103852"><ele>46.0</ele><time>2026-04-13T02:34:37Z</time></trkpt><trkpt lat="-30.271574120801535" lon="115.09324684758032"><ele>46.0</ele><time>2026-04-13T02:34:38Z</time></trkpt><trkpt lat="-30.27152494727256" lon="115.09331343431168"><ele>46.0</ele><time>2026-04-13T02:34:40Z</time></trkpt><trkpt lat="-30.2716215459505" lon="115.0933161643874"><ele>46.0</ele><time>2026-04-13T02:35:04.999Z</time></trkpt><trkpt lat="-30.271663455882372" lon="115.093250624487"><ele>46.0</ele><time>2026-04-13T02:35:05.999Z</time></trkpt><trkpt lat="-30.27168592859414" lon="115.09316917907661"><ele>46.0</ele><time>2026-04-13T02:35:06.999Z</time></trkpt><trkpt lat="-30.271721719957196" lon="115.09307630264489"><ele>46.0</ele><time>2026-04-13T02:35:07.999Z</time></trkpt><trkpt lat="-30.271776509352932" lon="115.09297138575678"><ele>46.0</ele><time>2026-04-13T02:35:08.999Z</time></trkpt><trkpt lat="-30.271830884788162" lon="115.09286481939623"><ele>46.0</ele><time>2026-04-13T02:35:09.999Z</time></trkpt><trkpt lat="-30.271885646714985" lon="115.09275276999749"><ele>46.0</ele><time>2026-04-13T02:35:10.999Z</time></trkpt><trkpt lat="-30.271929299698943" lon="115.0926437570467"><ele>46.0</ele><time>2026-04-13T02:35:11.999Z</time></trkpt><trkpt lat="-30.27197553484132" lon="115.09255471249935"><ele>46.0</ele><time>2026-04-13T02:35:12.999Z</time></trkpt><trkpt lat="-30.272013709337525" lon="115.09247552621356"><ele>46.0</ele><time>2026-04-13T02:35:13.999Z</time></trkpt><trkpt lat="-30.27205655533325" lon="115.09238664972159"><ele>46.5</ele><time>2026-04-13T02:35:15.999Z</time></trkpt><trkpt lat="-30.27189675946052" lon="115.09226498186229"><ele>47.0</ele><time>2026-04-13T02:35:17.999Z</time></trkpt><trkpt lat="-30.271769553347124" lon="115.0922489841832"><ele>47.5</ele><time>2026-04-13T02:35:19.999Z</time></trkpt><trkpt lat="-30.271644314516408" lon="115.09227986384559"><ele>48.0</ele><time>2026-04-13T02:35:21.999Z</time></trkpt><trkpt lat="-30.271574431863357" lon="115.09229984286442"><ele>48.0</ele><time>2026-04-13T02:35:22.999Z</time></trkpt><trkpt lat="-30.271503138540275" lon="115.09232160079313"><ele>48.0</ele><time>2026-04-13T02:35:23.999Z</time></trkpt><trkpt lat="-30.271429538204973" lon="115.09233057045624"><ele>48.0</ele><time>2026-04-13T02:35:24.999Z</time></trkpt><trkpt lat="-30.27134927386711" lon="115.0923371944401"><ele>48.0</ele><time>2026-04-13T02:35:25.999Z</time></trkpt><trkpt lat="-30.271277927677694" lon="115.0923548588395"><ele>48.0</ele><time>2026-04-13T02:36:16.999Z</time></trkpt><trkpt lat="-30.271182822411543" lon="115.09236540681145"><ele>48.0</ele><time>2026-04-13T02:36:24.999Z</time></trkpt><trkpt lat="-30.271117560519816" lon="115.09241643545252"><ele>48.0</ele><time>2026-04-13T02:36:32Z</time></trkpt><trkpt lat="-30.27121279295131" lon="115.09240650705632"><ele>48.0</ele><time>2026-04-13T02:37:18.001Z</time></trkpt><trkpt lat="-30.271278677243664" lon="115.09239176173071"><ele>48.0</ele><time>2026-04-13T02:37:19.001Z</time></trkpt><trkpt lat="-30.27134918984429" lon="115.09237837809208"><ele>48.0</ele><time>2026-04-13T02:37:20.001Z</time></trkpt><trkpt lat="-30.271416288108142" lon="115.09236053816431"><ele>48.0</ele><time>2026-04-13T02:37:21.001Z</time></trkpt><trkpt lat="-30.271480449873984" lon="115.09242574298904"><ele>48.0</ele><time>2026-04-13T02:37:37.001Z</time></trkpt><trkpt lat="-30.271478554603718" lon="115.09250083680865"><ele>46.8</ele><time>2026-04-13T02:37:39.001Z</time></trkpt><trkpt lat="-30.27141374911176" lon="115.0925831474805"><ele>45.599999999999994</ele><time>2026-04-13T02:37:52.001Z</time></trkpt><trkpt lat="-30.27139455024419" lon="115.09265743009568"><ele>44.400000000000006</ele><time>2026-04-13T02:37:55.001Z</time></trkpt><trkpt lat="-30.27135745114528" lon="115.09275239601011"><ele>43.2</ele><time>2026-04-13T02:37:58.001Z</time></trkpt><trkpt lat="-30.271300093523866" lon="115.09284788197178"><ele>42.0</ele><time>2026-04-13T02:38:01.001Z</time></trkpt><trkpt lat="-30.27124321863073" lon="115.09295611352056"><ele>42.0</ele><time>2026-04-13T02:38:03.001Z</time></trkpt><trkpt lat="-30.271186632527655" lon="115.09308402158517"><ele>42.0</ele><time>2026-04-13T02:38:05.001Z</time></trkpt><trkpt lat="-30.271144354398974" lon="115.09316656360886"><ele>42.0</ele><time>2026-04-13T02:38:06.001Z</time></trkpt><trkpt lat="-30.271093145300952" lon="115.09325529497913"><ele>42.0</ele><time>2026-04-13T02:38:07.001Z</time></trkpt><trkpt lat="-30.271050652558014" lon="115.09334080116213"><ele>42.0</ele><time>2026-04-13T02:38:08.001Z</time></trkpt><trkpt lat="-30.27100864392345" lon="115.09342997673751"><ele>42.333333333333336</ele><time>2026-04-13T02:38:09.001Z</time></trkpt><trkpt lat="-30.27096459053608" lon="115.0935158085433"><ele>42.666666666666664</ele><time>2026-04-13T02:38:10.001Z</time></trkpt><trkpt lat="-30.270920279054877" lon="115.09360549692543"><ele>43.0</ele><time>2026-04-13T02:38:11.001Z</time></trkpt><trkpt lat="-30.270870820006053" lon="115.09369145348838"><ele>43.33333333333333</ele><time>2026-04-13T02:38:12.001Z</time></trkpt><trkpt lat="-30.270825268840003" lon="115.0937751904066"><ele>43.666666666666664</ele><time>2026-04-13T02:38:13.001Z</time></trkpt><trkpt lat="-30.270776948759725" lon="115.09385748111437"><ele>44.0</ele><time>2026-04-13T02:38:14.001Z</time></trkpt><trkpt lat="-30.27072389465646" lon="115.09395260826227"><ele>44.0</ele><time>2026-04-13T02:38:15.001Z</time></trkpt><trkpt lat="-30.27066993427356" lon="115.09406024780785"><ele>44.0</ele><time>2026-04-13T02:38:16.001Z</time></trkpt><trkpt lat="-30.270618652897824" lon="115.0941722018516"><ele>44.0</ele><time>2026-04-13T02:38:17.001Z</time></trkpt><trkpt lat="-30.27056920378474" lon="115.0942770134564"><ele>44.0</ele><time>2026-04-13T02:38:18.001Z</time></trkpt><trkpt lat="-30.270520747106648" lon="115.09437759064109"><ele>44.0</ele><time>2026-04-13T02:38:19.001Z</time></trkpt><trkpt lat="-30.27048193962933" lon="115.09448230473376"><ele>44.2</ele><time>2026-04-13T02:38:20.001Z</time></trkpt><trkpt lat="-30.27043551173265" lon="115.09459689431202"><ele>44.400000000000006</ele><time>2026-04-13T02:38:21.001Z</time></trkpt><trkpt lat="-30.270387621706817" lon="115.09471739541014"><ele>44.6</ele><time>2026-04-13T02:38:22.001Z</time></trkpt><trkpt lat="-30.2703357830606" lon="115.09483418128627"><ele>44.8</ele><time>2026-04-13T02:38:23.001Z</time></trkpt><trkpt lat="-30.27027977958109" lon="115.09494554987666"><ele>45.0</ele><time>2026-04-13T02:38:24.001Z</time></trkpt><trkpt lat="-30.27022281827008" lon="115.09505956875968"><ele>44.5</ele><time>2026-04-13T02:38:25.001Z</time></trkpt><trkpt lat="-30.270165491927393" lon="115.09518385382047"><ele>44.0</ele><time>2026-04-13T02:38:26.001Z</time></trkpt><trkpt lat="-30.270109668485254" lon="115.09530690012467"><ele>43.5</ele><time>2026-04-13T02:38:27.001Z</time></trkpt><trkpt lat="-30.270057841109864" lon="115.09543718692775"><ele>43.0</ele><time>2026-04-13T02:38:28.001Z</time></trkpt><trkpt lat="-30.270004993684488" lon="115.09555378648889"><ele>43.0</ele><time>2026-04-13T02:38:29.001Z</time></trkpt><trkpt lat="-30.269948615131042" lon="115.09566826516235"><ele>43.0</ele><time>2026-04-13T02:38:30.001Z</time></trkpt><trkpt lat="-30.26989737636036" lon="115.09578742520476"><ele>43.0</ele><time>2026-04-13T02:38:31.001Z</time></trkpt><trkpt lat="-30.269846605152317" lon="115.09591352425694"><ele>43.0</ele><time>2026-04-13T02:38:32.001Z</time></trkpt><trkpt lat="-30.269783635449947" lon="115.09605078140862"><ele>42.75</ele><time>2026-04-13T02:38:33.001Z</time></trkpt><trkpt lat="-30.26972467659645" lon="115.0961868957209"><ele>42.5</ele><time>2026-04-13T02:38:34.001Z</time></trkpt><trkpt lat="-30.269670303707166" lon="115.09631321487485"><ele>42.25</ele><time>2026-04-13T02:38:35.001Z</time></trkpt><trkpt lat="-30.269614032645652" lon="115.09643470309277"><ele>42.0</ele><time>2026-04-13T02:38:36.001Z</time></trkpt><trkpt lat="-30.269553515077035" lon="115.09656338844488"><ele>41.75</ele><time>2026-04-13T02:38:37.001Z</time></trkpt><trkpt lat="-30.269495448048925" lon="115.09669317829604"><ele>41.5</ele><time>2026-04-13T02:38:38.001Z</time></trkpt><trkpt lat="-30.26943452865836" lon="115.09682578942048"><ele>41.25</ele><time>2026-04-13T02:38:39.001Z</time></trkpt><trkpt lat="-30.269378694437076" lon="115.09696113243152"><ele>41.0</ele><time>2026-04-13T02:38:40.001Z</time></trkpt><trkpt lat="-30.26932278155405" lon="115.09709915669944"><ele>41.0</ele><time>2026-04-13T02:38:41.001Z</time></trkpt><trkpt lat="-30.26925946223908" lon="115.09722744214235"><ele>41.0</ele><time>2026-04-13T02:38:42.001Z</time></trkpt><trkpt lat="-30.269191034332746" lon="115.09734753085166"><ele>41.0</ele><time>2026-04-13T02:38:43.001Z</time></trkpt><trkpt lat="-30.269119581892582" lon="115.0974699181007"><ele>41.0</ele><time>2026-04-13T02:38:44.001Z</time></trkpt><trkpt lat="-30.26905292487385" lon="115.09760062197647"><ele>40.5</ele><time>2026-04-13T02:38:45.001Z</time></trkpt><trkpt lat="-30.268984660493764" lon="115.09773390207407"><ele>40.0</ele><time>2026-04-13T02:38:46.001Z</time></trkpt><trkpt lat="-30.26891512087599" lon="115.09787151693348"><ele>39.5</ele><time>2026-04-13T02:38:47.001Z</time></trkpt><trkpt lat="-30.268848530310446" lon="115.09802454499727"><ele>39.0</ele><time>2026-04-13T02:38:48.001Z</time></trkpt><trkpt lat="-30.268778119602707" lon="115.09818761294014"><ele>38.666666666666664</ele><time>2026-04-13T02:38:49.001Z</time></trkpt><trkpt lat="-30.268711113404617" lon="115.0983477330006"><ele>38.33333333333333</ele><time>2026-04-13T02:38:50.001Z</time></trkpt><trkpt lat="-30.26863988543669" lon="115.0985152516297"><ele>38.0</ele><time>2026-04-13T02:38:51.001Z</time></trkpt><trkpt lat="-30.268561277255202" lon="115.09868108566688"><ele>38.0</ele><time>2026-04-13T02:38:52.001Z</time></trkpt><trkpt lat="-30.26848172252235" lon="115.09883351014925"><ele>38.0</ele><time>2026-04-13T02:38:53.001Z</time></trkpt><trkpt lat="-30.268409973737683" lon="115.09897846711742"><ele>38.0</ele><time>2026-04-13T02:38:54.001Z</time></trkpt><trkpt lat="-30.26833616482776" lon="115.099122120577"><ele>38.0</ele><time>2026-04-13T02:38:55.001Z</time></trkpt><trkpt lat="-30.268252607337956" lon="115.0992715800499"><ele>38.0</ele><time>2026-04-13T02:38:56.001Z</time></trkpt><trkpt lat="-30.268169970350897" lon="115.09941838391127"><ele>38.0</ele><time>2026-04-13T02:38:57.001Z</time></trkpt><trkpt lat="-30.26808813492655" lon="115.09956162338894"><ele>38.0</ele><time>2026-04-13T02:38:58.001Z</time></trkpt><trkpt lat="-30.268008098272404" lon="115.09970350660153"><ele>38.0</ele><time>2026-04-13T02:38:59.001Z</time></trkpt><trkpt lat="-30.26793304882442" lon="115.09984268047873"><ele>37.25</ele><time>2026-04-13T02:39:00.001Z</time></trkpt><trkpt lat="-30.26785677618633" lon="115.09998233706638"><ele>36.5</ele><time>2026-04-13T02:39:01.001Z</time></trkpt><trkpt lat="-30.26777957488278" lon="115.10012095692413"><ele>35.75</ele><time>2026-04-13T02:39:02.001Z</time></trkpt><trkpt lat="-30.267698421088852" lon="115.1002687575866"><ele>35.0</ele><time>2026-04-13T02:39:03.001Z</time></trkpt><trkpt lat="-30.267619439211707" lon="115.10041492012297"><ele>35.0</ele><time>2026-04-13T02:39:04.001Z</time></trkpt><trkpt lat="-30.267537863415942" lon="115.10055956234254"><ele>35.0</ele><time>2026-04-13T02:39:05.001Z</time></trkpt><trkpt lat="-30.267455776890106" lon="115.10069868310732"><ele>35.0</ele><time>2026-04-13T02:39:06.001Z</time></trkpt><trkpt lat="-30.267374434483138" lon="115.10084791202615"><ele>35.0</ele><time>2026-04-13T02:39:07.001Z</time></trkpt><trkpt lat="-30.26730447200934" lon="115.1009954670534"><ele>37.25</ele><time>2026-04-13T02:39:08.001Z</time></trkpt><trkpt lat="-30.267243899867715" lon="115.10113199570907"><ele>39.5</ele><time>2026-04-13T02:39:09.001Z</time></trkpt><trkpt lat="-30.267180295543994" lon="115.10128514117672"><ele>41.75</ele><time>2026-04-13T02:39:10.001Z</time></trkpt><trkpt lat="-30.2671233013708" lon="115.10142537983084"><ele>44.0</ele><time>2026-04-13T02:39:11.001Z</time></trkpt><trkpt lat="-30.267067079117556" lon="115.10157642907018"><ele>44.5</ele><time>2026-04-13T02:39:12.001Z</time></trkpt><trkpt lat="-30.267031275716818" lon="115.1017267120092"><ele>45.0</ele><time>2026-04-13T02:39:13.001Z</time></trkpt><trkpt lat="-30.26700796505781" lon="115.10188186490461"><ele>45.5</ele><time>2026-04-13T02:39:14.001Z</time></trkpt><trkpt lat="-30.266982829831818" lon="115.10202123828113"><ele>46.0</ele><time>2026-04-13T02:39:15.001Z</time></trkpt><trkpt lat="-30.266959699651153" lon="115.102114577497"><ele>46.0</ele><time>2026-04-13T02:39:16.001Z</time></trkpt><trkpt lat="-30.2668485260066" lon="115.10207598209396"><ele>46.0</ele><time>2026-04-13T02:40:12.001Z</time></trkpt><trkpt lat="-30.266754494943502" lon="115.10207458234335"><ele>46.0</ele><time>2026-04-13T02:40:22.001Z</time></trkpt><trkpt lat="-30.26667492092309" lon="115.10210025081966"><ele>46.0</ele><time>2026-04-13T02:40:24.001Z</time></trkpt><trkpt lat="-30.266605414820802" lon="115.1021513140352"><ele>46.0</ele><time>2026-04-13T02:40:26.001Z</time></trkpt><trkpt lat="-30.26654951480949" lon="115.10222459628969"><ele>46.0</ele><time>2026-04-13T02:40:28.001Z</time></trkpt><trkpt lat="-30.26650532036965" lon="115.10231301655499"><ele>46.0</ele><time>2026-04-13T02:40:30.001Z</time></trkpt><trkpt lat="-30.266474942008944" lon="115.10240528616082"><ele>46.0</ele><time>2026-04-13T02:40:32.001Z</time></trkpt><trkpt lat="-30.266444902044718" lon="115.10253605754643"><ele>46.0</ele><time>2026-04-13T02:40:34.001Z</time></trkpt><trkpt lat="-30.26642429996024" lon="115.10262544180588"><ele>46.0</ele><time>2026-04-13T02:40:35.001Z</time></trkpt><trkpt lat="-30.26639972486395" lon="115.1027174179849"><ele>45.4</ele><time>2026-04-13T02:40:36.001Z</time></trkpt><trkpt lat="-30.26636899280878" lon="115.10281332747563"><ele>44.8</ele><time>2026-04-13T02:40:37.001Z</time></trkpt><trkpt lat="-30.26633544455315" lon="115.10290717770717"><ele>44.199999999999996</ele><time>2026-04-13T02:40:38.001Z</time></trkpt><trkpt lat="-30.266297553599234" lon="115.10301055083288"><ele>43.599999999999994</ele><time>2026-04-13T02:40:39.001Z</time></trkpt><trkpt lat="-30.26625162270919" lon="115.10312106189791"><ele>43.0</ele><time>2026-04-13T02:40:40.001Z</time></trkpt><trkpt lat="-30.266209730767944" lon="115.10323343058204"><ele>43.599999999999994</ele><time>2026-04-13T02:40:41.001Z</time></trkpt><trkpt lat="-30.266180569674038" lon="115.10334167382847"><ele>44.199999999999996</ele><time>2026-04-13T02:40:42.001Z</time></trkpt><trkpt lat="-30.266161163983575" lon="115.1034545107165"><ele>44.8</ele><time>2026-04-13T02:40:43.001Z</time></trkpt><trkpt lat="-30.266136579685398" lon="115.10357763233428"><ele>45.4</ele><time>2026-04-13T02:40:44.001Z</time></trkpt><trkpt lat="-30.26610449010048" lon="115.10369784354275"><ele>46.0</ele><time>2026-04-13T02:40:45.001Z</time></trkpt><trkpt lat="-30.266060859415735" lon="115.10381976687036"><ele>46.0</ele><time>2026-04-13T02:40:46.001Z</time></trkpt><trkpt lat="-30.266006391165767" lon="115.10394280256338"><ele>46.0</ele><time>2026-04-13T02:40:47.001Z</time></trkpt><trkpt lat="-30.265959712964424" lon="115.10406603566443"><ele>46.0</ele><time>2026-04-13T02:40:48.001Z</time></trkpt><trkpt lat="-30.265914406772488" lon="115.10419271057205"><ele>46.0</ele><time>2026-04-13T02:40:49.001Z</time></trkpt><trkpt lat="-30.265864629140566" lon="115.10430622517396"><ele>45.8</ele><time>2026-04-13T02:40:50.001Z</time></trkpt><trkpt lat="-30.265803218500164" lon="115.10440433351431"><ele>45.599999999999994</ele><time>2026-04-13T02:40:51.001Z</time></trkpt><trkpt lat="-30.265730749702577" lon="115.1044953543314"><ele>45.4</ele><time>2026-04-13T02:40:52.001Z</time></trkpt><trkpt lat="-30.265652962773693" lon="115.10458203090745"><ele>45.2</ele><time>2026-04-13T02:40:53.001Z</time></trkpt><trkpt lat="-30.265583029610045" lon="115.10468346504423"><ele>45.0</ele><time>2026-04-13T02:40:54.001Z</time></trkpt><trkpt lat="-30.265528099454706" lon="115.10479947652348"><ele>44.8</ele><time>2026-04-13T02:40:55.001Z</time></trkpt><trkpt lat="-30.265478212014866" lon="115.10492381070127"><ele>44.6</ele><time>2026-04-13T02:40:56.001Z</time></trkpt><trkpt lat="-30.26543199899618" lon="115.10504336502878"><ele>44.400000000000006</ele><time>2026-04-13T02:40:57.001Z</time></trkpt><trkpt lat="-30.265390615512935" lon="115.10516318450937"><ele>44.2</ele><time>2026-04-13T02:40:58.001Z</time></trkpt><trkpt lat="-30.26535680960454" lon="115.1052641715312"><ele>44.0</ele><time>2026-04-13T02:40:59.001Z</time></trkpt><trkpt lat="-30.26530965493496" lon="115.10534901843772"><ele>44.0</ele><time>2026-04-13T02:41:01Z</time></trkpt><trkpt lat="-30.265247870164583" lon="115.1053985091976"><ele>44.0</ele><time>2026-04-13T02:41:36Z</time></trkpt><trkpt lat="-30.26519914425678" lon="115.10545815092401"><ele>44.0</ele><time>2026-04-13T02:41:38Z</time></trkpt><trkpt lat="-30.265159752253506" lon="115.10552507542734"><ele>44.0</ele><time>2026-04-13T02:41:40Z</time></trkpt><trkpt lat="-30.265113585448475" lon="115.10559953144643"><ele>44.0</ele><time>2026-04-13T02:41:43Z</time></trkpt><trkpt lat="-30.265082303429587" lon="115.10570061248566"><ele>44.0</ele><time>2026-04-13T02:41:46Z</time></trkpt><trkpt lat="-30.265039834132438" lon="115.10580491598536"><ele>44.33333333333333</ele><time>2026-04-13T02:41:48Z</time></trkpt><trkpt lat="-30.265005969838167" lon="115.10590753534142"><ele>44.666666666666664</ele><time>2026-04-13T02:41:50Z</time></trkpt><trkpt lat="-30.26498763924583" lon="115.10597875695417"><ele>45.0</ele><time>2026-04-13T02:41:51Z</time></trkpt><trkpt lat="-30.264965368020917" lon="115.1060526521943"><ele>45.333333333333336</ele><time>2026-04-13T02:41:52Z</time></trkpt><trkpt lat="-30.26489305057511" lon="115.10618272715463"><ele>45.66666666666667</ele><time>2026-04-13T02:41:54Z</time></trkpt><trkpt lat="-30.264859074415007" lon="115.10625326533074"><ele>46.0</ele><time>2026-04-13T02:41:55Z</time></trkpt><trkpt lat="-30.264831073933284" lon="115.10632896948147"><ele>46.0</ele><time>2026-04-13T02:41:56Z</time></trkpt><trkpt lat="-30.26479835727741" lon="115.10641624157711"><ele>46.0</ele><time>2026-04-13T02:41:57Z</time></trkpt><trkpt lat="-30.26475820592952" lon="115.10651102490681"><ele>46.0</ele><time>2026-04-13T02:41:58Z</time></trkpt><trkpt lat="-30.264716646914152" lon="115.10660175590361"><ele>46.0</ele><time>2026-04-13T02:41:59Z</time></trkpt><trkpt lat="-30.26466384932717" lon="115.10670124278676"><ele>46.0</ele><time>2026-04-13T02:42:00Z</time></trkpt><trkpt lat="-30.264610786541134" lon="115.10678844891937"><ele>47.0</ele><time>2026-04-13T02:42:01Z</time></trkpt><trkpt lat="-30.26454640532386" lon="115.1068701383567"><ele>48.0</ele><time>2026-04-13T02:42:02Z</time></trkpt><trkpt lat="-30.264484863465306" lon="115.10695445562574"><ele>49.0</ele><time>2026-04-13T02:42:03Z</time></trkpt><trkpt lat="-30.264430233098775" lon="115.10704847325127"><ele>50.0</ele><time>2026-04-13T02:42:04Z</time></trkpt><trkpt lat="-30.26438552057455" lon="115.10714154142879"><ele>51.0</ele><time>2026-04-13T02:42:05Z</time></trkpt><trkpt lat="-30.264345111804577" lon="115.1072382236629"><ele>51.0</ele><time>2026-04-13T02:42:06Z</time></trkpt><trkpt lat="-30.264299119487966" lon="115.10734098979088"><ele>51.0</ele><time>2026-04-13T02:42:07Z</time></trkpt><trkpt lat="-30.264254041825346" lon="115.10743530358155"><ele>51.0</ele><time>2026-04-13T02:42:08Z</time></trkpt><trkpt lat="-30.26421296196288" lon="115.10754068554554"><ele>51.0</ele><time>2026-04-13T02:42:09Z</time></trkpt><trkpt lat="-30.264166696598856" lon="115.10763438749568"><ele>51.0</ele><time>2026-04-13T02:42:10Z</time></trkpt><trkpt lat="-30.26412173422614" lon="115.10771936053106"><ele>51.0</ele><time>2026-04-13T02:42:11Z</time></trkpt><trkpt lat="-30.264081596874366" lon="115.10779927550121"><ele>51.0</ele><time>2026-04-13T02:42:12Z</time></trkpt><trkpt lat="-30.264032149695932" lon="115.10788291554846"><ele>51.0</ele><time>2026-04-13T02:42:13Z</time></trkpt><trkpt lat="-30.263976285915827" lon="115.10797406667452"><ele>51.0</ele><time>2026-04-13T02:42:14Z</time></trkpt><trkpt lat="-30.263920069798385" lon="115.10806522964009"><ele>51.0</ele><time>2026-04-13T02:42:15Z</time></trkpt><trkpt lat="-30.2638685578672" lon="115.10814680476773"><ele>51.0</ele><time>2026-04-13T02:42:16Z</time></trkpt><trkpt lat="-30.263812199759176" lon="115.1082216855277"><ele>50.166666666666664</ele><time>2026-04-13T02:42:17Z</time></trkpt><trkpt lat="-30.26376557389425" lon="115.10828421783081"><ele>49.333333333333336</ele><time>2026-04-13T02:42:18Z</time></trkpt><trkpt lat="-30.263710123156518" lon="115.10839349331059"><ele>48.5</ele><time>2026-04-13T02:42:20Z</time></trkpt><trkpt lat="-30.26371054886938" lon="115.10848243093375"><ele>47.66666666666667</ele><time>2026-04-13T02:42:22Z</time></trkpt><trkpt lat="-30.26363244155723" lon="115.10848838413987"><ele>46.833333333333336</ele><time>2026-04-13T02:42:53Z</time></trkpt><trkpt lat="-30.263565782848058" lon="115.10848766008185"><ele>46.0</ele><time>2026-04-13T02:42:59Z</time></trkpt><trkpt lat="-30.26349780375794" lon="115.10849449743452"><ele>46.0</ele><time>2026-04-13T02:43:01Z</time></trkpt><trkpt lat="-30.263403913164822" lon="115.10850729757274"><ele>46.0</ele><time>2026-04-13T02:43:03Z</time></trkpt><trkpt lat="-30.263280379685376" lon="115.10851384669094"><ele>46.0</ele><time>2026-04-13T02:43:05Z</time></trkpt><trkpt lat="-30.263207065458374" lon="115.10851711259978"><ele>46.0</ele><time>2026-04-13T02:43:06Z</time></trkpt><trkpt lat="-30.263131055863735" lon="115.1085191893108"><ele>46.0</ele><time>2026-04-13T02:43:07Z</time></trkpt><trkpt lat="-30.26306679120634" lon="115.10851684377279"><ele>46.0</ele><time>2026-04-13T02:43:08Z</time></trkpt><trkpt lat="-30.263003320585597" lon="115.10851749195426"><ele>46.142857142857146</ele><time>2026-04-13T02:43:09Z</time></trkpt><trkpt lat="-30.262938979335846" lon="115.10852118087539"><ele>46.285714285714285</ele><time>2026-04-13T02:43:10Z</time></trkpt><trkpt lat="-30.262867645496538" lon="115.10852297278726"><ele>46.42857142857143</ele><time>2026-04-13T02:43:11Z</time></trkpt><trkpt lat="-30.26280127346904" lon="115.10852800303705"><ele>46.57142857142857</ele><time>2026-04-13T02:43:12Z</time></trkpt><trkpt lat="-30.262733025768707" lon="115.10853386203222"><ele>46.71428571428571</ele><time>2026-04-13T02:43:13Z</time></trkpt><trkpt lat="-30.26265285785862" lon="115.10853955059706"><ele>46.857142857142854</ele><time>2026-04-13T02:43:14Z</time></trkpt><trkpt lat="-30.26257308496973" lon="115.10854576878988"><ele>47.0</ele><time>2026-04-13T02:43:15Z</time></trkpt><trkpt lat="-30.26248963483664" lon="115.10855278995356"><ele>47.0</ele><time>2026-04-13T02:43:16Z</time></trkpt><trkpt lat="-30.26241086521767" lon="115.10855400358807"><ele>47.0</ele><time>2026-04-13T02:43:17Z</time></trkpt><trkpt lat="-30.262333857551223" lon="115.10855420180405"><ele>47.0</ele><time>2026-04-13T02:43:18Z</time></trkpt><trkpt lat="-30.26226119345009" lon="115.10855499637259"><ele>47.0</ele><time>2026-04-13T02:43:19Z</time></trkpt><trkpt lat="-30.262183839667575" lon="115.10855970101505"><ele>47.0</ele><time>2026-04-13T02:43:20Z</time></trkpt><trkpt lat="-30.262110089048004" lon="115.108565993117"><ele>47.0</ele><time>2026-04-13T02:43:21Z</time></trkpt><trkpt lat="-30.26204441694386" lon="115.10856672990376"><ele>47.0</ele><time>2026-04-13T02:43:22Z</time></trkpt><trkpt lat="-30.261976644276924" lon="115.10856632686107"><ele>47.33333333333333</ele><time>2026-04-13T02:43:23Z</time></trkpt><trkpt lat="-30.26190969743989" lon="115.10856680980217"><ele>47.666666666666664</ele><time>2026-04-13T02:43:24Z</time></trkpt><trkpt lat="-30.26183442992963" lon="115.10856602232624"><ele>48.0</ele><time>2026-04-13T02:43:25Z</time></trkpt><trkpt lat="-30.26175503778913" lon="115.1085654801138"><ele>48.33333333333333</ele><time>2026-04-13T02:43:26Z</time></trkpt><trkpt lat="-30.261683877553466" lon="115.10856275485425"><ele>48.666666666666664</ele><time>2026-04-13T02:43:27Z</time></trkpt><trkpt lat="-30.261618693916276" lon="115.10855483736381"><ele>49.0</ele><time>2026-04-13T02:43:28Z</time></trkpt><trkpt lat="-30.261520527198755" lon="115.10854352224558"><ele>48.99999999999999</ele><time>2026-04-13T02:43:30Z</time></trkpt><trkpt lat="-30.26143619306038" lon="115.1085467432267"><ele>49.0</ele><time>2026-04-13T02:43:32Z</time></trkpt><trkpt lat="-30.261368685893782" lon="115.1085571416838"><ele>49.0</ele><time>2026-04-13T02:43:45Z</time></trkpt><trkpt lat="-30.26144176940344" lon="115.10855812081702"><ele>49.0</ele><time>2026-04-13T02:51:16Z</time></trkpt><trkpt lat="-30.26150953262248" lon="115.10855471942277"><ele>48.99999999999999</ele><time>2026-04-13T02:51:18Z</time></trkpt><trkpt lat="-30.261608602847204" lon="115.10855905749696"><ele>49.0</ele><time>2026-04-13T02:51:20Z</time></trkpt><trkpt lat="-30.261712201956648" lon="115.10856807561873"><ele>48.99999999999999</ele><time>2026-04-13T02:51:22Z</time></trkpt><trkpt lat="-30.261819165113895" lon="115.10856956626668"><ele>49.0</ele><time>2026-04-13T02:51:24Z</time></trkpt><trkpt lat="-30.26189720861538" lon="115.10856972211882"><ele>49.0</ele><time>2026-04-13T02:51:26Z</time></trkpt><trkpt lat="-30.2619965105845" lon="115.10856149728474"><ele>49.0</ele><time>2026-04-13T02:51:28Z</time></trkpt><trkpt lat="-30.262063743382257" lon="115.10855320459326"><ele>48.99999999999999</ele><time>2026-04-13T02:52:33Z</time></trkpt><trkpt lat="-30.262150135067035" lon="115.10855139819307"><ele>49.0</ele><time>2026-04-13T02:52:37Z</time></trkpt><trkpt lat="-30.262233519823464" lon="115.10854388555003"><ele>48.666666666666664</ele><time>2026-04-13T02:52:39Z</time></trkpt><trkpt lat="-30.262314163269973" lon="115.10854199212159"><ele>48.33333333333333</ele><time>2026-04-13T02:52:41Z</time></trkpt><trkpt lat="-30.26240252251596" lon="115.10853945614858"><ele>48.0</ele><time>2026-04-13T02:52:43Z</time></trkpt><trkpt lat="-30.262489733655222" lon="115.10853906925644"><ele>47.666666666666664</ele><time>2026-04-13T02:52:45Z</time></trkpt><trkpt lat="-30.2625663699577" lon="115.10853483132473"><ele>47.33333333333333</ele><time>2026-04-13T02:52:47Z</time></trkpt><trkpt lat="-30.26263745368705" lon="115.10852790981855"><ele>47.0</ele><time>2026-04-13T02:52:49Z</time></trkpt><trkpt lat="-30.262701672416544" lon="115.10852131160132"><ele>47.0</ele><time>2026-04-13T02:52:59Z</time></trkpt><trkpt lat="-30.26278454554058" lon="115.10851494086707"><ele>47.0</ele><time>2026-04-13T02:53:02Z</time></trkpt><trkpt lat="-30.262854520554317" lon="115.10851242575588"><ele>47.0</ele><time>2026-04-13T02:53:04Z</time></trkpt><trkpt lat="-30.262924701532487" lon="115.10850740516342"><ele>47.0</ele><time>2026-04-13T02:53:06Z</time></trkpt><trkpt lat="-30.263010012543905" lon="115.10850525246147"><ele>47.0</ele><time>2026-04-13T02:53:08Z</time></trkpt><trkpt lat="-30.263110898490968" lon="115.10850363560466"><ele>47.0</ele><time>2026-04-13T02:53:10Z</time></trkpt><trkpt lat="-30.26323312989415" lon="115.108503885103"><ele>46.83333333333333</ele><time>2026-04-13T02:53:12Z</time></trkpt><trkpt lat="-30.263311196164935" lon="115.10850094270286"><ele>46.666666666666664</ele><time>2026-04-13T02:53:13Z</time></trkpt><trkpt lat="-30.26339759016109" lon="115.10849365201243"><ele>46.5</ele><time>2026-04-13T02:53:14Z</time></trkpt><trkpt lat="-30.263478714331843" lon="115.1084812015127"><ele>46.333333333333336</ele><time>2026-04-13T02:53:15Z</time></trkpt><trkpt lat="-30.263557544379662" lon="115.10847172876619"><ele>46.16666666666667</ele><time>2026-04-13T02:53:16Z</time></trkpt><trkpt lat="-30.263629014181234" lon="115.10846677210588"><ele>46.0</ele><time>2026-04-13T02:53:17Z</time></trkpt><trkpt lat="-30.263695415259324" lon="115.10847378202014"><ele>46.0</ele><time>2026-04-13T02:53:18Z</time></trkpt><trkpt lat="-30.263756675819568" lon="115.10849840393986"><ele>46.0</ele><time>2026-04-13T02:53:19Z</time></trkpt><trkpt lat="-30.26383626156569" lon="115.10856376395726"><ele>46.0</ele><time>2026-04-13T02:53:21Z</time></trkpt><trkpt lat="-30.263881469660536" lon="115.10861738637018"><ele>46.0</ele><time>2026-04-13T02:53:22Z</time></trkpt><trkpt lat="-30.263929850511786" lon="115.10867530583785"><ele>46.0</ele><time>2026-04-13T02:53:23Z</time></trkpt><trkpt lat="-30.263982136979678" lon="115.10874974315233"><ele>46.0</ele><time>2026-04-13T02:53:25Z</time></trkpt><trkpt lat="-30.263988848481553" lon="115.10882302943088"><ele>46.0</ele><time>2026-04-13T02:54:48Z</time></trkpt><trkpt lat="-30.26396720687094" lon="115.10889549353644"><ele>46.0</ele><time>2026-04-13T02:54:49Z</time></trkpt><trkpt lat="-30.26392203109055" lon="115.10897063819246"><ele>46.0</ele><time>2026-04-13T02:54:50Z</time></trkpt><trkpt lat="-30.263844110036317" lon="115.10903696740469"><ele>46.0</ele><time>2026-04-13T02:54:51Z</time></trkpt><trkpt lat="-30.263794571997135" lon="115.10914881811294"><ele>46.0</ele><time>2026-04-13T02:54:52Z</time></trkpt><trkpt lat="-30.263718245943554" lon="115.10925577606676"><ele>46.0</ele><time>2026-04-13T02:54:53Z</time></trkpt><trkpt lat="-30.263633054885588" lon="115.10938836898158"><ele>46.333333333333336</ele><time>2026-04-13T02:54:54Z</time></trkpt><trkpt lat="-30.263546108826333" lon="115.10953856466865"><ele>46.666666666666664</ele><time>2026-04-13T02:54:55Z</time></trkpt><trkpt lat="-30.263458635862474" lon="115.10969366066871"><ele>47.0</ele><time>2026-04-13T02:54:56Z</time></trkpt><trkpt lat="-30.2633657861181" lon="115.10985598611765"><ele>47.666666666666664</ele><time>2026-04-13T02:54:57Z</time></trkpt><trkpt lat="-30.263268828967643" lon="115.11002453103117"><ele>48.33333333333333</ele><time>2026-04-13T02:54:58Z</time></trkpt><trkpt lat="-30.26316216736012" lon="115.11020656982247"><ele>49.0</ele><time>2026-04-13T02:54:59Z</time></trkpt><trkpt lat="-30.26304427889088" lon="115.11040787207119"><ele>47.0</ele><time>2026-04-13T02:55:00Z</time></trkpt><trkpt lat="-30.26291464411768" lon="115.11063083457547"><ele>45.0</ele><time>2026-04-13T02:55:01Z</time></trkpt><trkpt lat="-30.26277478368426" lon="115.110877777137"><ele>44.5</ele><time>2026-04-13T02:55:02Z</time></trkpt><trkpt lat="-30.26263649735208" lon="115.11112056491976"><ele>44.0</ele><time>2026-04-13T02:55:03Z</time></trkpt><trkpt lat="-30.262496607399488" lon="115.11136053954418"><ele>43.5</ele><time>2026-04-13T02:55:04Z</time></trkpt><trkpt lat="-30.262357632716867" lon="115.1115966995395"><ele>43.0</ele><time>2026-04-13T02:55:05Z</time></trkpt><trkpt lat="-30.262224073161462" lon="115.11182542111695"><ele>43.0</ele><time>2026-04-13T02:55:06Z</time></trkpt><trkpt lat="-30.2620973915282" lon="115.11204683894235"><ele>43.0</ele><time>2026-04-13T02:55:07Z</time></trkpt><trkpt lat="-30.26185531750087" lon="115.11246764644237"><ele>44.66666666666667</ele><time>2026-04-13T02:55:09Z</time></trkpt><trkpt lat="-30.261738488200955" lon="115.11267244947692"><ele>46.333333333333336</ele><time>2026-04-13T02:55:10Z</time></trkpt><trkpt lat="-30.261621354160365" lon="115.1128781153588"><ele>48.0</ele><time>2026-04-13T02:55:11Z</time></trkpt><trkpt lat="-30.2615015417884" lon="115.11308971278993"><ele>50.0</ele><time>2026-04-13T02:55:12Z</time></trkpt><trkpt lat="-30.261379189729336" lon="115.11330654469735"><ele>52.0</ele><time>2026-04-13T02:55:13Z</time></trkpt><trkpt lat="-30.261253646489145" lon="115.1135272427104"><ele>52.0</ele><time>2026-04-13T02:55:14Z</time></trkpt><trkpt lat="-30.261127689522855" lon="115.11374808349892"><ele>52.0</ele><time>2026-04-13T02:55:14.999Z</time></trkpt><trkpt lat="-30.26100655588902" lon="115.11397158697298"><ele>52.0</ele><time>2026-04-13T02:55:15.999Z</time></trkpt><trkpt lat="-30.26089651642898" lon="115.11420121341065"><ele>52.0</ele><time>2026-04-13T02:55:16.999Z</time></trkpt><trkpt lat="-30.260794192014618" lon="115.11442834990801"><ele>52.0</ele><time>2026-04-13T02:55:17.999Z</time></trkpt><trkpt lat="-30.260701259885597" lon="115.11464743473678"><ele>52.0</ele><time>2026-04-13T02:55:18.999Z</time></trkpt><trkpt lat="-30.260618018316663" lon="115.11486344814782"><ele>52.0</ele><time>2026-04-13T02:55:19.999Z</time></trkpt><trkpt lat="-30.26053535478217" lon="115.11508172735559"><ele>52.0</ele><time>2026-04-13T02:55:20.999Z</time></trkpt><trkpt lat="-30.260460375620575" lon="115.11530388180982"><ele>52.0</ele><time>2026-04-13T02:55:21.999Z</time></trkpt><trkpt lat="-30.260393848440305" lon="115.11553465204446"><ele>52.0</ele><time>2026-04-13T02:55:22.999Z</time></trkpt><trkpt lat="-30.260331336451344" lon="115.11577295697894"><ele>52.0</ele><time>2026-04-13T02:55:23.999Z</time></trkpt><trkpt lat="-30.260271811692807" lon="115.11601700769874"><ele>52.0</ele><time>2026-04-13T02:55:24.999Z</time></trkpt><trkpt lat="-30.26021167466802" lon="115.11626513126778"><ele>52.0</ele><time>2026-04-13T02:55:25.999Z</time></trkpt><trkpt lat="-30.26015715476254" lon="115.11651851973481"><ele>52.0</ele><time>2026-04-13T02:55:26.999Z</time></trkpt><trkpt lat="-30.260106391909673" lon="115.11677936340061"><ele>49.0</ele><time>2026-04-13T02:55:27.999Z</time></trkpt><trkpt lat="-30.260057208891258" lon="115.11704547111988"><ele>46.0</ele><time>2026-04-13T02:55:28.999Z</time></trkpt><trkpt lat="-30.26001048529125" lon="115.11731788409817"><ele>45.0</ele><time>2026-04-13T02:55:29.999Z</time></trkpt><trkpt lat="-30.259962775006976" lon="115.11759207872886"><ele>44.0</ele><time>2026-04-13T02:55:30.999Z</time></trkpt><trkpt lat="-30.259917345305503" lon="115.1178696811284"><ele>44.0</ele><time>2026-04-13T02:55:31.999Z</time></trkpt><trkpt lat="-30.259870513216107" lon="115.11814965979184"><ele>44.0</ele><time>2026-04-13T02:55:32.999Z</time></trkpt><trkpt lat="-30.25982066455438" lon="115.1184266345045"><ele>46.5</ele><time>2026-04-13T02:55:33.999Z</time></trkpt><trkpt lat="-30.259770614379168" lon="115.1187073717089"><ele>49.0</ele><time>2026-04-13T02:55:34.999Z</time></trkpt><trkpt lat="-30.259720873444444" lon="115.11898598045099"><ele>46.5</ele><time>2026-04-13T02:55:35.999Z</time></trkpt><trkpt lat="-30.25967088899322" lon="115.11927150540974"><ele>44.0</ele><time>2026-04-13T02:55:36.999Z</time></trkpt><trkpt lat="-30.25962184613538" lon="115.11955822082622"><ele>44.0</ele><time>2026-04-13T02:55:37.999Z</time></trkpt><trkpt lat="-30.25957426201917" lon="115.11984469143133"><ele>44.0</ele><time>2026-04-13T02:55:38.999Z</time></trkpt><trkpt lat="-30.25952563098137" lon="115.12012902396951"><ele>44.0</ele><time>2026-04-13T02:55:39.999Z</time></trkpt><trkpt lat="-30.259473966948903" lon="115.12041054168513"><ele>44.0</ele><time>2026-04-13T02:55:40.999Z</time></trkpt><trkpt lat="-30.259425935512844" lon="115.1206877969018"><ele>45.5</ele><time>2026-04-13T02:55:41.999Z</time></trkpt><trkpt lat="-30.25937985851742" lon="115.12096622772707"><ele>47.0</ele><time>2026-04-13T02:55:42.999Z</time></trkpt><trkpt lat="-30.259334577803827" lon="115.12124538814655"><ele>47.0</ele><time>2026-04-13T02:55:43.999Z</time></trkpt><trkpt lat="-30.259288374044015" lon="115.1215249368087"><ele>47.0</ele><time>2026-04-13T02:55:44.999Z</time></trkpt><trkpt lat="-30.259242147834218" lon="115.12180485380858"><ele>47.666666666666664</ele><time>2026-04-13T02:55:45.999Z</time></trkpt><trkpt lat="-30.259200344086246" lon="115.12206507328715"><ele>48.33333333333333</ele><time>2026-04-13T02:55:46.999Z</time></trkpt><trkpt lat="-30.25916083711447" lon="115.1223058689957"><ele>49.0</ele><time>2026-04-13T02:55:47.999Z</time></trkpt><trkpt lat="-30.259123448806093" lon="115.12253077419642"><ele>47.666666666666664</ele><time>2026-04-13T02:55:48.999Z</time></trkpt><trkpt lat="-30.259086153716563" lon="115.12274632763607"><ele>46.33333333333333</ele><time>2026-04-13T02:55:49.999Z</time></trkpt><trkpt lat="-30.259050090145823" lon="115.12295440879836"><ele>45.0</ele><time>2026-04-13T02:55:50.999Z</time></trkpt><trkpt lat="-30.25901893873133" lon="115.12316130799074"><ele>45.0</ele><time>2026-04-13T02:55:51.999Z</time></trkpt><trkpt lat="-30.258989508351622" lon="115.12336315556777"><ele>45.0</ele><time>2026-04-13T02:55:52.999Z</time></trkpt><trkpt lat="-30.258955041877208" lon="115.12356290666555"><ele>45.0</ele><time>2026-04-13T02:55:53.999Z</time></trkpt><trkpt lat="-30.25891287630645" lon="115.12376488308112"><ele>46.0</ele><time>2026-04-13T02:55:54.999Z</time></trkpt><trkpt lat="-30.258874155920765" lon="115.1239721094539"><ele>47.0</ele><time>2026-04-13T02:55:55.999Z</time></trkpt><trkpt lat="-30.25883871749628" lon="115.12418638626524"><ele>48.0</ele><time>2026-04-13T02:55:56.999Z</time></trkpt><trkpt lat="-30.258801876830674" lon="115.12439900484236"><ele>48.0</ele><time>2026-04-13T02:55:57.999Z</time></trkpt><trkpt lat="-30.258761465554937" lon="115.12461793491578"><ele>48.0</ele><time>2026-04-13T02:55:58.999Z</time></trkpt><trkpt lat="-30.258722564911267" lon="115.12482936447884"><ele>48.0</ele><time>2026-04-13T02:55:59.999Z</time></trkpt><trkpt lat="-30.258681556105447" lon="115.125046780928"><ele>48.33333333333333</ele><time>2026-04-13T02:56:00.999Z</time></trkpt><trkpt lat="-30.258640583081025" lon="115.12526356344095"><ele>48.666666666666664</ele><time>2026-04-13T02:56:01.999Z</time></trkpt><trkpt lat="-30.25859997217337" lon="115.12548484889474"><ele>49.0</ele><time>2026-04-13T02:56:02.999Z</time></trkpt><trkpt lat="-30.258564057791666" lon="115.12571067177312"><ele>50.0</ele><time>2026-04-13T02:56:03.999Z</time></trkpt><trkpt lat="-30.258530127235737" lon="115.12593016783583"><ele>51.0</ele><time>2026-04-13T02:56:04.999Z</time></trkpt><trkpt lat="-30.258499805536324" lon="115.126124849932"><ele>52.0</ele><time>2026-04-13T02:56:05.999Z</time></trkpt><trkpt lat="-30.258469926946972" lon="115.1263068978876"><ele>52.0</ele><time>2026-04-13T02:56:06.999Z</time></trkpt><trkpt lat="-30.258439347187135" lon="115.12648156589776"><ele>52.0</ele><time>2026-04-13T02:56:07.999Z</time></trkpt><trkpt lat="-30.258412667209896" lon="115.12665812021515"><ele>52.0</ele><time>2026-04-13T02:56:08.999Z</time></trkpt><trkpt lat="-30.258382525388864" lon="115.12685530597228"><ele>52.0</ele><time>2026-04-13T02:56:09.999Z</time></trkpt><trkpt lat="-30.258347755154237" lon="115.12706794573491"><ele>52.0</ele><time>2026-04-13T02:56:10.999Z</time></trkpt><trkpt lat="-30.2583055517946" lon="115.12729627759386"><ele>52.0</ele><time>2026-04-13T02:56:11.999Z</time></trkpt><trkpt lat="-30.25826011552509" lon="115.12753259641738"><ele>52.0</ele><time>2026-04-13T02:56:12.999Z</time></trkpt><trkpt lat="-30.258214002665557" lon="115.12778396550911"><ele>52.0</ele><time>2026-04-13T02:56:13.999Z</time></trkpt><trkpt lat="-30.258169241459118" lon="115.12803173619398"><ele>52.0</ele><time>2026-04-13T02:56:14.999Z</time></trkpt><trkpt lat="-30.258128394450946" lon="115.12828109757304"><ele>53.5</ele><time>2026-04-13T02:56:15.999Z</time></trkpt><trkpt lat="-30.25809109574265" lon="115.12854318313835"><ele>55.0</ele><time>2026-04-13T02:56:16.999Z</time></trkpt><trkpt lat="-30.258051571253876" lon="115.12881870116982"><ele>54.5</ele><time>2026-04-13T02:56:17.999Z</time></trkpt><trkpt lat="-30.258005304545485" lon="115.12910141595322"><ele>54.0</ele><time>2026-04-13T02:56:18.999Z</time></trkpt><trkpt lat="-30.25795491346876" lon="115.12939104686224"><ele>54.0</ele><time>2026-04-13T02:56:19.999Z</time></trkpt><trkpt lat="-30.257904859667637" lon="115.12966957782055"><ele>54.0</ele><time>2026-04-13T02:56:20.999Z</time></trkpt><trkpt lat="-30.2578006670693" lon="115.13022212648066"><ele>53.0</ele><time>2026-04-13T02:56:22.999Z</time></trkpt><trkpt lat="-30.257755346973692" lon="115.13049861534527"><ele>52.0</ele><time>2026-04-13T02:56:23.999Z</time></trkpt><trkpt lat="-30.25771082854034" lon="115.13076732521283"><ele>52.0</ele><time>2026-04-13T02:56:24.999Z</time></trkpt><trkpt lat="-30.257668626645234" lon="115.1310301847131"><ele>52.0</ele><time>2026-04-13T02:56:25.999Z</time></trkpt><trkpt lat="-30.257618999024594" lon="115.13129685743085"><ele>50.5</ele><time>2026-04-13T02:56:26.999Z</time></trkpt><trkpt lat="-30.257564913666595" lon="115.1315582835136"><ele>49.0</ele><time>2026-04-13T02:56:27.999Z</time></trkpt><trkpt lat="-30.257510815251756" lon="115.13181960201418"><ele>49.0</ele><time>2026-04-13T02:56:28.999Z</time></trkpt><trkpt lat="-30.25745434321251" lon="115.13208267150652"><ele>49.0</ele><time>2026-04-13T02:56:29.999Z</time></trkpt><trkpt lat="-30.257389425083105" lon="115.13234461394387"><ele>48.0</ele><time>2026-04-13T02:56:30.999Z</time></trkpt><trkpt lat="-30.257320742578557" lon="115.13260777925055"><ele>47.0</ele><time>2026-04-13T02:56:31.999Z</time></trkpt><trkpt lat="-30.25725365451898" lon="115.13287539518494"><ele>49.0</ele><time>2026-04-13T02:56:33Z</time></trkpt><trkpt lat="-30.25719201131647" lon="115.13314140564684"><ele>51.0</ele><time>2026-04-13T02:56:34Z</time></trkpt><trkpt lat="-30.257137289734" lon="115.13339654276461"><ele>51.0</ele><time>2026-04-13T02:56:35Z</time></trkpt><trkpt lat="-30.257085991765695" lon="115.13364509719113"><ele>51.0</ele><time>2026-04-13T02:56:36Z</time></trkpt><trkpt lat="-30.257036182967074" lon="115.13389160908673"><ele>51.0</ele><time>2026-04-13T02:56:37Z</time></trkpt><trkpt lat="-30.256983013924568" lon="115.13413090438668"><ele>50.0</ele><time>2026-04-13T02:56:38Z</time></trkpt><trkpt lat="-30.25692747408074" lon="115.13437082892071"><ele>49.0</ele><time>2026-04-13T02:56:39Z</time></trkpt><trkpt lat="-30.256870930170905" lon="115.1346211424281"><ele>48.0</ele><time>2026-04-13T02:56:40Z</time></trkpt><trkpt lat="-30.25681470443701" lon="115.13488313900042"><ele>47.5</ele><time>2026-04-13T02:56:41Z</time></trkpt><trkpt lat="-30.25675573140428" lon="115.13516012962883"><ele>47.0</ele><time>2026-04-13T02:56:42Z</time></trkpt><trkpt lat="-30.25669074794465" lon="115.13544803560394"><ele>46.5</ele><time>2026-04-13T02:56:43Z</time></trkpt><trkpt lat="-30.25662416416656" lon="115.13573632684808"><ele>46.0</ele><time>2026-04-13T02:56:44Z</time></trkpt><trkpt lat="-30.256558836202306" lon="115.1360244641063"><ele>46.0</ele><time>2026-04-13T02:56:45Z</time></trkpt><trkpt lat="-30.256490822242487" lon="115.13631115606242"><ele>46.0</ele><time>2026-04-13T02:56:46Z</time></trkpt><trkpt lat="-30.25642302557375" lon="115.13659708332035"><ele>49.0</ele><time>2026-04-13T02:56:47Z</time></trkpt><trkpt lat="-30.25635886895434" lon="115.1368821405837"><ele>52.0</ele><time>2026-04-13T02:56:48Z</time></trkpt><trkpt lat="-30.256295732326" lon="115.13716384824998"><ele>52.0</ele><time>2026-04-13T02:56:49Z</time></trkpt><trkpt lat="-30.256234188746692" lon="115.13744554865659"><ele>52.0</ele><time>2026-04-13T02:56:50Z</time></trkpt><trkpt lat="-30.256173734846158" lon="115.13772613292686"><ele>52.0</ele><time>2026-04-13T02:56:51Z</time></trkpt><trkpt lat="-30.256114746889043" lon="115.13800760729099"><ele>52.0</ele><time>2026-04-13T02:56:52Z</time></trkpt><trkpt lat="-30.256056705336718" lon="115.13829183247479"><ele>52.0</ele><time>2026-04-13T02:56:53Z</time></trkpt><trkpt lat="-30.256000284240262" lon="115.13857491316348"><ele>52.0</ele><time>2026-04-13T02:56:54Z</time></trkpt><trkpt lat="-30.255947795867996" lon="115.13886191279302"><ele>52.0</ele><time>2026-04-13T02:56:55Z</time></trkpt><trkpt lat="-30.255901412748305" lon="115.13914785533072"><ele>52.0</ele><time>2026-04-13T02:56:56Z</time></trkpt><trkpt lat="-30.25585839406124" lon="115.1394346808977"><ele>52.0</ele><time>2026-04-13T02:56:57Z</time></trkpt><trkpt lat="-30.25581787990552" lon="115.13972116793757"><ele>52.0</ele><time>2026-04-13T02:56:58Z</time></trkpt><trkpt lat="-30.255774880982656" lon="115.14000727123921"><ele>53.5</ele><time>2026-04-13T02:56:59Z</time></trkpt><trkpt lat="-30.25573015209847" lon="115.14029697819731"><ele>55.0</ele><time>2026-04-13T02:57:00Z</time></trkpt><trkpt lat="-30.255685305997126" lon="115.14058358922358"><ele>55.0</ele><time>2026-04-13T02:57:01Z</time></trkpt><trkpt lat="-30.255641214722214" lon="115.14087004077734"><ele>55.0</ele><time>2026-04-13T02:57:02Z</time></trkpt><trkpt lat="-30.255595537083362" lon="115.1411542434224"><ele>55.0</ele><time>2026-04-13T02:57:03Z</time></trkpt><trkpt lat="-30.255554023885104" lon="115.14143279932874"><ele>55.0</ele><time>2026-04-13T02:57:04Z</time></trkpt><trkpt lat="-30.255514297050986" lon="115.14170817514915"><ele>52.5</ele><time>2026-04-13T02:57:05Z</time></trkpt><trkpt lat="-30.255475839876297" lon="115.14197905656775"><ele>50.0</ele><time>2026-04-13T02:57:06Z</time></trkpt><trkpt lat="-30.255437248618627" lon="115.14224681309943"><ele>52.5</ele><time>2026-04-13T02:57:07Z</time></trkpt><trkpt lat="-30.255395380851727" lon="115.14251738546055"><ele>55.0</ele><time>2026-04-13T02:57:08Z</time></trkpt><trkpt lat="-30.255353930670633" lon="115.14279848209317"><ele>55.0</ele><time>2026-04-13T02:57:09Z</time></trkpt><trkpt lat="-30.255313016623834" lon="115.1430851188488"><ele>55.0</ele><time>2026-04-13T02:57:10Z</time></trkpt><trkpt lat="-30.255270714579794" lon="115.14337640359022"><ele>57.0</ele><time>2026-04-13T02:57:11Z</time></trkpt><trkpt lat="-30.25522795460511" lon="115.14366708411146"><ele>59.0</ele><time>2026-04-13T02:57:12Z</time></trkpt><trkpt lat="-30.25518634465057" lon="115.14395496463239"><ele>57.0</ele><time>2026-04-13T02:57:13Z</time></trkpt><trkpt lat="-30.255145038666132" lon="115.14423231673707"><ele>55.0</ele><time>2026-04-13T02:57:14Z</time></trkpt><trkpt lat="-30.255104211674272" lon="115.14451259876397"><ele>55.0</ele><time>2026-04-13T02:57:15Z</time></trkpt><trkpt lat="-30.255063115429717" lon="115.14479504416077"><ele>55.0</ele><time>2026-04-13T02:57:16Z</time></trkpt><trkpt lat="-30.25502353488889" lon="115.14508424429353"><ele>56.5</ele><time>2026-04-13T02:57:17Z</time></trkpt><trkpt lat="-30.254982618274806" lon="115.14537383229285"><ele>58.0</ele><time>2026-04-13T02:57:18Z</time></trkpt><trkpt lat="-30.25493742010586" lon="115.14566344892678"><ele>59.0</ele><time>2026-04-13T02:57:19Z</time></trkpt><trkpt lat="-30.25489234401868" lon="115.14595221635969"><ele>60.0</ele><time>2026-04-13T02:57:20Z</time></trkpt><trkpt lat="-30.254847795802224" lon="115.1462427152648"><ele>60.0</ele><time>2026-04-13T02:57:20.999Z</time></trkpt><trkpt lat="-30.254801633981003" lon="115.14654188628148"><ele>60.0</ele><time>2026-04-13T02:57:21.999Z</time></trkpt><trkpt lat="-30.254757332301693" lon="115.14684762832579"><ele>61.0</ele><time>2026-04-13T02:57:22.999Z</time></trkpt><trkpt lat="-30.25471502866529" lon="115.14716042046103"><ele>62.0</ele><time>2026-04-13T02:57:23.999Z</time></trkpt><trkpt lat="-30.25467129067203" lon="115.14747273422961"><ele>54.0</ele><time>2026-04-13T02:57:24.999Z</time></trkpt><trkpt lat="-30.25457725411075" lon="115.14809554240033"><ele>56.5</ele><time>2026-04-13T02:57:26.999Z</time></trkpt><trkpt lat="-30.254528739898063" lon="115.14840076648709"><ele>59.0</ele><time>2026-04-13T02:57:27.999Z</time></trkpt><trkpt lat="-30.254481853865105" lon="115.14870667030328"><ele>59.0</ele><time>2026-04-13T02:57:28.999Z</time></trkpt><trkpt lat="-30.254438194932607" lon="115.149010697361"><ele>59.0</ele><time>2026-04-13T02:57:29.999Z</time></trkpt><trkpt lat="-30.254394254559177" lon="115.14931067431424"><ele>58.5</ele><time>2026-04-13T02:57:30.999Z</time></trkpt><trkpt lat="-30.254349980734244" lon="115.14961284797201"><ele>58.0</ele><time>2026-04-13T02:57:31.999Z</time></trkpt><trkpt lat="-30.254307715223593" lon="115.14990907567591"><ele>58.0</ele><time>2026-04-13T02:57:32.999Z</time></trkpt><trkpt lat="-30.254262577304797" lon="115.15020341416616"><ele>58.0</ele><time>2026-04-13T02:57:33.999Z</time></trkpt><trkpt lat="-30.254217752733723" lon="115.1504968077759"><ele>57.5</ele><time>2026-04-13T02:57:34.999Z</time></trkpt><trkpt lat="-30.25417561489922" lon="115.15078398296185"><ele>57.0</ele><time>2026-04-13T02:57:35.999Z</time></trkpt><trkpt lat="-30.25413310300956" lon="115.1510692833713"><ele>57.0</ele><time>2026-04-13T02:57:36.999Z</time></trkpt><trkpt lat="-30.25408529993164" lon="115.15135420492986"><ele>57.0</ele><time>2026-04-13T02:57:37.999Z</time></trkpt><trkpt lat="-30.25403119207789" lon="115.15163487638056"><ele>57.5</ele><time>2026-04-13T02:57:38.999Z</time></trkpt><trkpt lat="-30.253971207376527" lon="115.15190911456331"><ele>58.0</ele><time>2026-04-13T02:57:39.999Z</time></trkpt><trkpt lat="-30.253912661484478" lon="115.15218202900907"><ele>58.5</ele><time>2026-04-13T02:57:40.999Z</time></trkpt><trkpt lat="-30.253858247313676" lon="115.1524534854428"><ele>59.0</ele><time>2026-04-13T02:57:41.999Z</time></trkpt><trkpt lat="-30.253800936226412" lon="115.15273094597177"><ele>59.0</ele><time>2026-04-13T02:57:42.999Z</time></trkpt><trkpt lat="-30.2537411458525" lon="115.15300832776964"><ele>59.0</ele><time>2026-04-13T02:57:43.999Z</time></trkpt><trkpt lat="-30.25367852556704" lon="115.15328989691785"><ele>59.0</ele><time>2026-04-13T02:57:44.999Z</time></trkpt><trkpt lat="-30.253615906610396" lon="115.15356797546143"><ele>59.0</ele><time>2026-04-13T02:57:45.999Z</time></trkpt><trkpt lat="-30.2535540736836" lon="115.15385068800369"><ele>59.0</ele><time>2026-04-13T02:57:46.999Z</time></trkpt><trkpt lat="-30.25349681037165" lon="115.15412981850479"><ele>59.0</ele><time>2026-04-13T02:57:47.999Z</time></trkpt><trkpt lat="-30.253439935702414" lon="115.15441051793289"><ele>59.0</ele><time>2026-04-13T02:57:48.999Z</time></trkpt><trkpt lat="-30.253380755315067" lon="115.15469111685468"><ele>59.0</ele><time>2026-04-13T02:57:49.999Z</time></trkpt><trkpt lat="-30.25332441694096" lon="115.15495401687754"><ele>59.0</ele><time>2026-04-13T02:57:50.999Z</time></trkpt><trkpt lat="-30.253275300254977" lon="115.15519319443574"><ele>59.0</ele><time>2026-04-13T02:57:51.999Z</time></trkpt><trkpt lat="-30.253227761322837" lon="115.1554296560095"><ele>59.0</ele><time>2026-04-13T02:57:52.999Z</time></trkpt><trkpt lat="-30.25318068715945" lon="115.15566576547594"><ele>59.333333333333336</ele><time>2026-04-13T02:57:53.999Z</time></trkpt><trkpt lat="-30.25312869542684" lon="115.15590990166235"><ele>59.66666666666667</ele><time>2026-04-13T02:57:54.999Z</time></trkpt><trkpt lat="-30.253074816848034" lon="115.15614891073305"><ele>60.0</ele><time>2026-04-13T02:57:55.999Z</time></trkpt><trkpt lat="-30.253021435559877" lon="115.15638648266439"><ele>61.66666666666667</ele><time>2026-04-13T02:57:56.999Z</time></trkpt><trkpt lat="-30.252970576526934" lon="115.15662409261904"><ele>63.333333333333336</ele><time>2026-04-13T02:57:57.999Z</time></trkpt><trkpt lat="-30.25291970069485" lon="115.1568652379441"><ele>65.0</ele><time>2026-04-13T02:57:58.999Z</time></trkpt><trkpt lat="-30.252865319698294" lon="115.15711593007829"><ele>64.5</ele><time>2026-04-13T02:57:59.999Z</time></trkpt><trkpt lat="-30.252812996676568" lon="115.15737212482011"><ele>64.0</ele><time>2026-04-13T02:58:00.999Z</time></trkpt><trkpt lat="-30.252761046010345" lon="115.15762979797209"><ele>64.0</ele><time>2026-04-13T02:58:01.999Z</time></trkpt><trkpt lat="-30.25270785387221" lon="115.15788861029728"><ele>64.0</ele><time>2026-04-13T02:58:02.999Z</time></trkpt><trkpt lat="-30.252655850318977" lon="115.15814588519848"><ele>63.5</ele><time>2026-04-13T02:58:03.999Z</time></trkpt><trkpt lat="-30.252601478227497" lon="115.15840708584908"><ele>63.0</ele><time>2026-04-13T02:58:04.999Z</time></trkpt><trkpt lat="-30.252543884777364" lon="115.15866623682616"><ele>63.0</ele><time>2026-04-13T02:58:05.999Z</time></trkpt><trkpt lat="-30.252485322434545" lon="115.15893189550563"><ele>63.0</ele><time>2026-04-13T02:58:06.999Z</time></trkpt><trkpt lat="-30.25242818920216" lon="115.15920100665271"><ele>63.5</ele><time>2026-04-13T02:58:07.999Z</time></trkpt><trkpt lat="-30.252370756829357" lon="115.15947231740937"><ele>64.0</ele><time>2026-04-13T02:58:08.999Z</time></trkpt><trkpt lat="-30.252314824613308" lon="115.15974762836527"><ele>64.0</ele><time>2026-04-13T02:58:09.999Z</time></trkpt><trkpt lat="-30.25225786616031" lon="115.16002439662206"><ele>64.0</ele><time>2026-04-13T02:58:10.999Z</time></trkpt><trkpt lat="-30.25220028761508" lon="115.16030376763683"><ele>64.0</ele><time>2026-04-13T02:58:11.999Z</time></trkpt><trkpt lat="-30.252140554062112" lon="115.16057545578236"><ele>64.0</ele><time>2026-04-13T02:58:12.999Z</time></trkpt><trkpt lat="-30.25208219712568" lon="115.16084775298063"><ele>63.0</ele><time>2026-04-13T02:58:13.999Z</time></trkpt><trkpt lat="-30.252025205008408" lon="115.1611179763337"><ele>62.0</ele><time>2026-04-13T02:58:14.999Z</time></trkpt><trkpt lat="-30.251972966872238" lon="115.16136424944239"><ele>62.66666666666667</ele><time>2026-04-13T02:58:15.999Z</time></trkpt><trkpt lat="-30.251924434727496" lon="115.16159501861249"><ele>63.33333333333333</ele><time>2026-04-13T02:58:16.999Z</time></trkpt><trkpt lat="-30.25187449277677" lon="115.16182824402244"><ele>64.0</ele><time>2026-04-13T02:58:17.999Z</time></trkpt><trkpt lat="-30.25182365489237" lon="115.16206835213872"><ele>64.0</ele><time>2026-04-13T02:58:18.999Z</time></trkpt><trkpt lat="-30.251771903618607" lon="115.16229776590531"><ele>64.0</ele><time>2026-04-13T02:58:19.999Z</time></trkpt><trkpt lat="-30.251724297722806" lon="115.16250933007892"><ele>64.0</ele><time>2026-04-13T02:58:20.999Z</time></trkpt><trkpt lat="-30.25168027281366" lon="115.16270765423812"><ele>64.33333333333333</ele><time>2026-04-13T02:58:21.999Z</time></trkpt><trkpt lat="-30.251640898879927" lon="115.16289501461361"><ele>64.66666666666667</ele><time>2026-04-13T02:58:22.999Z</time></trkpt><trkpt lat="-30.251603786199333" lon="115.16307491362576"><ele>65.0</ele><time>2026-04-13T02:58:23.999Z</time></trkpt><trkpt lat="-30.251570820557003" lon="115.16322778797705"><ele>65.0</ele><time>2026-04-13T02:58:24.999Z</time></trkpt><trkpt lat="-30.25154431750129" lon="115.1633571466981"><ele>65.0</ele><time>2026-04-13T02:58:25.999Z</time></trkpt><trkpt lat="-30.251526507848087" lon="115.16343859406533"><ele>65.0</ele><time>2026-04-13T02:58:26.999Z</time></trkpt><trkpt lat="-30.251467499944642" lon="115.1634763887198"><ele>65.0</ele><time>2026-04-13T02:58:29.999Z</time></trkpt><trkpt lat="-30.251396161414327" lon="115.16343799095253"><ele>65.0</ele><time>2026-04-13T02:58:33Z</time></trkpt><trkpt lat="-30.251431689395684" lon="115.16351393527792"><ele>65.0</ele><time>2026-04-13T02:59:02Z</time></trkpt><trkpt lat="-30.251454388554524" lon="115.1635952857803"><ele>65.0</ele><time>2026-04-13T02:59:03Z</time></trkpt><trkpt lat="-30.251466878911085" lon="115.16367756698213"><ele>65.0</ele><time>2026-04-13T02:59:04Z</time></trkpt><trkpt lat="-30.251454499868345" lon="115.16378885372619"><ele>65.0</ele><time>2026-04-13T02:59:05Z</time></trkpt><trkpt lat="-30.25142664820276" lon="115.16392533339074"><ele>65.0</ele><time>2026-04-13T02:59:06Z</time></trkpt><trkpt lat="-30.251395852611086" lon="115.16406617049216"><ele>65.0</ele><time>2026-04-13T02:59:07Z</time></trkpt><trkpt lat="-30.251361395017252" lon="115.16422437638711"><ele>64.66666666666667</ele><time>2026-04-13T02:59:08Z</time></trkpt><trkpt lat="-30.251325815010134" lon="115.16439721182847"><ele>64.33333333333333</ele><time>2026-04-13T02:59:09Z</time></trkpt><trkpt lat="-30.251285591021464" lon="115.16458494599073"><ele>64.0</ele><time>2026-04-13T02:59:10Z</time></trkpt><trkpt lat="-30.251242417290626" lon="115.16479161677138"><ele>64.33333333333333</ele><time>2026-04-13T02:59:11Z</time></trkpt><trkpt lat="-30.251195694378094" lon="115.16500737543035"><ele>64.66666666666667</ele><time>2026-04-13T02:59:12Z</time></trkpt><trkpt lat="-30.25115006504098" lon="115.165219264394"><ele>65.0</ele><time>2026-04-13T02:59:13Z</time></trkpt><trkpt lat="-30.25110748557947" lon="115.16542166124673"><ele>65.0</ele><time>2026-04-13T02:59:14Z</time></trkpt><trkpt lat="-30.25106164877348" lon="115.16562432264973"><ele>65.0</ele><time>2026-04-13T02:59:15Z</time></trkpt><trkpt lat="-30.251010756341564" lon="115.16583482291153"><ele>65.0</ele><time>2026-04-13T02:59:16Z</time></trkpt><trkpt lat="-30.25096561214465" lon="115.16604537960535"><ele>65.0</ele><time>2026-04-13T02:59:17Z</time></trkpt><trkpt lat="-30.25092562757607" lon="115.16624991788407"><ele>65.0</ele><time>2026-04-13T02:59:18Z</time></trkpt><trkpt lat="-30.250884625997898" lon="115.1664619515777"><ele>65.0</ele><time>2026-04-13T02:59:19Z</time></trkpt><trkpt lat="-30.250844230354826" lon="115.1666790962814"><ele>64.66666666666667</ele><time>2026-04-13T02:59:20Z</time></trkpt><trkpt lat="-30.250799803212953" lon="115.16689806600009"><ele>64.33333333333333</ele><time>2026-04-13T02:59:21Z</time></trkpt><trkpt lat="-30.250752318928196" lon="115.16711882941028"><ele>64.0</ele><time>2026-04-13T02:59:22Z</time></trkpt><trkpt lat="-30.250701739434895" lon="115.16734040996643"><ele>64.0</ele><time>2026-04-13T02:59:23Z</time></trkpt><trkpt lat="-30.250649160279895" lon="115.16756349057997"><ele>64.0</ele><time>2026-04-13T02:59:24Z</time></trkpt><trkpt lat="-30.25059727864986" lon="115.16779424105705"><ele>64.0</ele><time>2026-04-13T02:59:25Z</time></trkpt><trkpt lat="-30.250548083127388" lon="115.16803319911209"><ele>64.66666666666666</ele><time>2026-04-13T02:59:26Z</time></trkpt><trkpt lat="-30.250497701895647" lon="115.16828146291066"><ele>65.33333333333333</ele><time>2026-04-13T02:59:26.999Z</time></trkpt><trkpt lat="-30.250444902873404" lon="115.16853616141893"><ele>66.0</ele><time>2026-04-13T02:59:27.999Z</time></trkpt><trkpt lat="-30.25039213935309" lon="115.16878390565091"><ele>66.0</ele><time>2026-04-13T02:59:28.999Z</time></trkpt><trkpt lat="-30.25034005664065" lon="115.16901642464327"><ele>66.0</ele><time>2026-04-13T02:59:29.999Z</time></trkpt><trkpt lat="-30.25028952185487" lon="115.16924690901327"><ele>66.0</ele><time>2026-04-13T02:59:30.999Z</time></trkpt><trkpt lat="-30.250243080100184" lon="115.16947304057501"><ele>66.0</ele><time>2026-04-13T02:59:31.999Z</time></trkpt><trkpt lat="-30.250197411621194" lon="115.16969938217196"><ele>66.0</ele><time>2026-04-13T02:59:32.999Z</time></trkpt><trkpt lat="-30.25015136279765" lon="115.16992286493647"><ele>66.0</ele><time>2026-04-13T02:59:33.999Z</time></trkpt><trkpt lat="-30.250104843014586" lon="115.17014742731625"><ele>66.66666666666667</ele><time>2026-04-13T02:59:34.999Z</time></trkpt><trkpt lat="-30.250056329152684" lon="115.17037904370096"><ele>67.33333333333334</ele><time>2026-04-13T02:59:35.999Z</time></trkpt><trkpt lat="-30.250005868160933" lon="115.17061469771313"><ele>68.0</ele><time>2026-04-13T02:59:36.999Z</time></trkpt><trkpt lat="-30.249953647989823" lon="115.17085520912224"><ele>68.0</ele><time>2026-04-13T02:59:37.999Z</time></trkpt><trkpt lat="-30.24990371334371" lon="115.17108806264129"><ele>68.0</ele><time>2026-04-13T02:59:38.999Z</time></trkpt><trkpt lat="-30.249854020221512" lon="115.17131840347065"><ele>68.0</ele><time>2026-04-13T02:59:39.999Z</time></trkpt><trkpt lat="-30.24975550574855" lon="115.17174996244219"><ele>70.33333333333334</ele><time>2026-04-13T02:59:42Z</time></trkpt><trkpt lat="-30.2497110771325" lon="115.17194979787571"><ele>72.66666666666667</ele><time>2026-04-13T02:59:43Z</time></trkpt><trkpt lat="-30.24966943044915" lon="115.17214175470858"><ele>75.0</ele><time>2026-04-13T02:59:44Z</time></trkpt><trkpt lat="-30.249632099616942" lon="115.17231573553131"><ele>75.75</ele><time>2026-04-13T02:59:45Z</time></trkpt><trkpt lat="-30.249605283520353" lon="115.1724497658817"><ele>76.5</ele><time>2026-04-13T02:59:46Z</time></trkpt><trkpt lat="-30.249576779832815" lon="115.17254112614272"><ele>77.25</ele><time>2026-04-13T02:59:47Z</time></trkpt><trkpt lat="-30.249556504492727" lon="115.17261453187378"><ele>78.0</ele><time>2026-04-13T02:59:48Z</time></trkpt><trkpt lat="-30.24934979205864" lon="115.17260427062294"><ele>78.0</ele><time>2026-04-13T02:59:50Z</time></trkpt><trkpt lat="-30.24923253269033" lon="115.17256976944398"><ele>78.0</ele><time>2026-04-13T02:59:51Z</time></trkpt><trkpt lat="-30.249092180024547" lon="115.17253949693216"><ele>78.0</ele><time>2026-04-13T02:59:52Z</time></trkpt><trkpt lat="-30.248928469604476" lon="115.17249097171023"><ele>78.0</ele><time>2026-04-13T02:59:53Z</time></trkpt><trkpt lat="-30.248745884270893" lon="115.17244370081058"><ele>77.66666666666667</ele><time>2026-04-13T02:59:54Z</time></trkpt><trkpt lat="-30.248539386711965" lon="115.1724048523195"><ele>77.33333333333334</ele><time>2026-04-13T02:59:55Z</time></trkpt><trkpt lat="-30.24832667462796" lon="115.17237949160724"><ele>77.0</ele><time>2026-04-13T02:59:56Z</time></trkpt><trkpt lat="-30.24810852443412" lon="115.17236811384169"><ele>77.0</ele><time>2026-04-13T02:59:57Z</time></trkpt><trkpt lat="-30.2478880294536" lon="115.17237406490287"><ele>77.0</ele><time>2026-04-13T02:59:58Z</time></trkpt><trkpt lat="-30.2476664257637" lon="115.1724018178795"><ele>77.0</ele><time>2026-04-13T02:59:59Z</time></trkpt><trkpt lat="-30.24745382731722" lon="115.17244610814103"><ele>78.33333333333334</ele><time>2026-04-13T03:00:00Z</time></trkpt><trkpt lat="-30.24723673877734" lon="115.17248854415828"><ele>79.66666666666667</ele><time>2026-04-13T03:00:01Z</time></trkpt><trkpt lat="-30.247017203158027" lon="115.1725143277558"><ele>81.0</ele><time>2026-04-13T03:00:02Z</time></trkpt><trkpt lat="-30.246789150757163" lon="115.17252075626034"><ele>81.0</ele><time>2026-04-13T03:00:03Z</time></trkpt><trkpt lat="-30.24655114211723" lon="115.17251752374463"><ele>81.0</ele><time>2026-04-13T03:00:04Z</time></trkpt><trkpt lat="-30.246315705158892" lon="115.17250033185755"><ele>82.5</ele><time>2026-04-13T03:00:05Z</time></trkpt><trkpt lat="-30.2460764687628" lon="115.17246596936249"><ele>84.0</ele><time>2026-04-13T03:00:06Z</time></trkpt><trkpt lat="-30.245820931397812" lon="115.17241302528862"><ele>84.0</ele><time>2026-04-13T03:00:07Z</time></trkpt><trkpt lat="-30.24556989165848" lon="115.17234640285437"><ele>84.0</ele><time>2026-04-13T03:00:08Z</time></trkpt><trkpt lat="-30.24534076189808" lon="115.17223827941676"><ele>84.0</ele><time>2026-04-13T03:00:09Z</time></trkpt><trkpt lat="-30.24510299656428" lon="115.17213303033365"><ele>84.0</ele><time>2026-04-13T03:00:10Z</time></trkpt><trkpt lat="-30.244631581096694" lon="115.1718883768975"><ele>83.5</ele><time>2026-04-13T03:00:12Z</time></trkpt><trkpt lat="-30.24439270436049" lon="115.17176857760583"><ele>83.0</ele><time>2026-04-13T03:00:13Z</time></trkpt><trkpt lat="-30.244146469285383" lon="115.17166562812957"><ele>83.0</ele><time>2026-04-13T03:00:14Z</time></trkpt><trkpt lat="-30.24391006487103" lon="115.17154094920397"><ele>83.0</ele><time>2026-04-13T03:00:15Z</time></trkpt><trkpt lat="-30.24367300064381" lon="115.17142047032982"><ele>83.0</ele><time>2026-04-13T03:00:16Z</time></trkpt><trkpt lat="-30.243445077514764" lon="115.17128401682133"><ele>83.0</ele><time>2026-04-13T03:00:17Z</time></trkpt><trkpt lat="-30.243213142125214" lon="115.17116450969124"><ele>83.5</ele><time>2026-04-13T03:00:18Z</time></trkpt><trkpt lat="-30.24297833070845" lon="115.17104440890489"><ele>84.0</ele><time>2026-04-13T03:00:19Z</time></trkpt><trkpt lat="-30.242746240333364" lon="115.1709264549781"><ele>84.0</ele><time>2026-04-13T03:00:20Z</time></trkpt><trkpt lat="-30.24250976329055" lon="115.17080768133445"><ele>84.0</ele><time>2026-04-13T03:00:21Z</time></trkpt><trkpt lat="-30.242274644022547" lon="115.17068700868569"><ele>84.5</ele><time>2026-04-13T03:00:22Z</time></trkpt><trkpt lat="-30.24203988822886" lon="115.17056408975564"><ele>85.0</ele><time>2026-04-13T03:00:23Z</time></trkpt><trkpt lat="-30.2418075362006" lon="115.1704428720765"><ele>85.0</ele><time>2026-04-13T03:00:24Z</time></trkpt><trkpt lat="-30.24157201196563" lon="115.1703234023931"><ele>85.0</ele><time>2026-04-13T03:00:25Z</time></trkpt><trkpt lat="-30.24132925986742" lon="115.17021903659234"><ele>85.5</ele><time>2026-04-13T03:00:26Z</time></trkpt><trkpt lat="-30.241094421530484" lon="115.17009605940837"><ele>86.0</ele><time>2026-04-13T03:00:27Z</time></trkpt><trkpt lat="-30.24086008787323" lon="115.16997619314175"><ele>86.5</ele><time>2026-04-13T03:00:28Z</time></trkpt><trkpt lat="-30.24062473202992" lon="115.16985848792311"><ele>87.0</ele><time>2026-04-13T03:00:29Z</time></trkpt><trkpt lat="-30.240390225358933" lon="115.1697363206586"><ele>87.0</ele><time>2026-04-13T03:00:30Z</time></trkpt><trkpt lat="-30.240160825992717" lon="115.16960129659107"><ele>87.0</ele><time>2026-04-13T03:00:31Z</time></trkpt><trkpt lat="-30.23992476459187" lon="115.16947972546983"><ele>87.0</ele><time>2026-04-13T03:00:32Z</time></trkpt><trkpt lat="-30.239684728248253" lon="115.16935755403736"><ele>87.0</ele><time>2026-04-13T03:00:33Z</time></trkpt><trkpt lat="-30.239429468247852" lon="115.16925361140824"><ele>87.0</ele><time>2026-04-13T03:00:34Z</time></trkpt><trkpt lat="-30.239185236000118" lon="115.16913069636925"><ele>87.0</ele><time>2026-04-13T03:00:35Z</time></trkpt><trkpt lat="-30.23894013980363" lon="115.16900791893052"><ele>87.0</ele><time>2026-04-13T03:00:36Z</time></trkpt><trkpt lat="-30.23869566455154" lon="115.1688846971322"><ele>87.0</ele><time>2026-04-13T03:00:37Z</time></trkpt><trkpt lat="-30.238448181705486" lon="115.16875952891066"><ele>87.0</ele><time>2026-04-13T03:00:38Z</time></trkpt><trkpt lat="-30.23819261524922" lon="115.16862877172132"><ele>87.0</ele><time>2026-04-13T03:00:39Z</time></trkpt><trkpt lat="-30.23793558450748" lon="115.16849602127607"><ele>87.5</ele><time>2026-04-13T03:00:40Z</time></trkpt><trkpt lat="-30.23768146150045" lon="115.16836456779718"><ele>88.0</ele><time>2026-04-13T03:00:41Z</time></trkpt><trkpt lat="-30.23742168347824" lon="115.16823163515302"><ele>89.0</ele><time>2026-04-13T03:00:42Z</time></trkpt><trkpt lat="-30.237164442966858" lon="115.16810315399886"><ele>90.0</ele><time>2026-04-13T03:00:43Z</time></trkpt><trkpt lat="-30.23690543403065" lon="115.16796845433704"><ele>90.0</ele><time>2026-04-13T03:00:44Z</time></trkpt><trkpt lat="-30.236643133366062" lon="115.16783504076669"><ele>90.0</ele><time>2026-04-13T03:00:45Z</time></trkpt><trkpt lat="-30.23638199299848" lon="115.16770230031692"><ele>90.0</ele><time>2026-04-13T03:00:46Z</time></trkpt><trkpt lat="-30.236118811124076" lon="115.16756713937812"><ele>90.0</ele><time>2026-04-13T03:00:47Z</time></trkpt><trkpt lat="-30.235850667550245" lon="115.16742874991739"><ele>89.5</ele><time>2026-04-13T03:00:48Z</time></trkpt><trkpt lat="-30.235587248811818" lon="115.16729324076832"><ele>89.0</ele><time>2026-04-13T03:00:49Z</time></trkpt><trkpt lat="-30.2353192151575" lon="115.16715878379594"><ele>89.0</ele><time>2026-04-13T03:00:50Z</time></trkpt><trkpt lat="-30.235050360288543" lon="115.16702064710877"><ele>89.0</ele><time>2026-04-13T03:00:51Z</time></trkpt><trkpt lat="-30.23477974376712" lon="115.1668792248952"><ele>91.0</ele><time>2026-04-13T03:00:52Z</time></trkpt><trkpt lat="-30.234510724135426" lon="115.16674245064053"><ele>93.0</ele><time>2026-04-13T03:00:53Z</time></trkpt><trkpt lat="-30.23423842710953" lon="115.16660618281564"><ele>93.5</ele><time>2026-04-13T03:00:54Z</time></trkpt><trkpt lat="-30.233968758375777" lon="115.16646800005745"><ele>94.0</ele><time>2026-04-13T03:00:55Z</time></trkpt><trkpt lat="-30.233691169962214" lon="115.16632527367216"><ele>94.0</ele><time>2026-04-13T03:00:56Z</time></trkpt><trkpt lat="-30.233412649032413" lon="115.16618361210155"><ele>94.0</ele><time>2026-04-13T03:00:57Z</time></trkpt><trkpt lat="-30.2331348021448" lon="115.16604267242785"><ele>94.5</ele><time>2026-04-13T03:00:58Z</time></trkpt><trkpt lat="-30.23285986410425" lon="115.1658998239662"><ele>95.0</ele><time>2026-04-13T03:00:59Z</time></trkpt><trkpt lat="-30.23258403370797" lon="115.16575650965447"><ele>94.5</ele><time>2026-04-13T03:01:00Z</time></trkpt><trkpt lat="-30.232311059626678" lon="115.16561789050422"><ele>94.0</ele><time>2026-04-13T03:01:01Z</time></trkpt><trkpt lat="-30.232039946463264" lon="115.16548374249405"><ele>95.5</ele><time>2026-04-13T03:01:02Z</time></trkpt><trkpt lat="-30.231775371402005" lon="115.16535081859645"><ele>97.0</ele><time>2026-04-13T03:01:03Z</time></trkpt><trkpt lat="-30.23151090800648" lon="115.16521398247626"><ele>97.0</ele><time>2026-04-13T03:01:04Z</time></trkpt><trkpt lat="-30.23125067484204" lon="115.16507821482898"><ele>97.0</ele><time>2026-04-13T03:01:05Z</time></trkpt><trkpt lat="-30.230991431918717" lon="115.16494320512795"><ele>97.0</ele><time>2026-04-13T03:01:06Z</time></trkpt><trkpt lat="-30.23073328193478" lon="115.16481291197832"><ele>97.0</ele><time>2026-04-13T03:01:07Z</time></trkpt><trkpt lat="-30.230474696656497" lon="115.16468390235543"><ele>97.5</ele><time>2026-04-13T03:01:08Z</time></trkpt><trkpt lat="-30.23022260181332" lon="115.16455579661222"><ele>98.0</ele><time>2026-04-13T03:01:09Z</time></trkpt><trkpt lat="-30.22996657669072" lon="115.16442302147874"><ele>99.0</ele><time>2026-04-13T03:01:10Z</time></trkpt><trkpt lat="-30.229709383228606" lon="115.16429174451697"><ele>100.0</ele><time>2026-04-13T03:01:11Z</time></trkpt><trkpt lat="-30.229455748651063" lon="115.16416456871995"><ele>100.0</ele><time>2026-04-13T03:01:12Z</time></trkpt><trkpt lat="-30.229202666251673" lon="115.16403697266458"><ele>100.0</ele><time>2026-04-13T03:01:13Z</time></trkpt><trkpt lat="-30.228952642240177" lon="115.16390518995965"><ele>99.0</ele><time>2026-04-13T03:01:14Z</time></trkpt><trkpt lat="-30.228702140502424" lon="115.16377426620953"><ele>98.0</ele><time>2026-04-13T03:01:15Z</time></trkpt><trkpt lat="-30.228443278798974" lon="115.16364397969014"><ele>98.0</ele><time>2026-04-13T03:01:16Z</time></trkpt><trkpt lat="-30.228181873320416" lon="115.16351058953654"><ele>98.0</ele><time>2026-04-13T03:01:17Z</time></trkpt><trkpt lat="-30.227921850434313" lon="115.16337912144397"><ele>98.0</ele><time>2026-04-13T03:01:18Z</time></trkpt><trkpt lat="-30.22766559277331" lon="115.16324748612267"><ele>98.0</ele><time>2026-04-13T03:01:19Z</time></trkpt><trkpt lat="-30.227411265750177" lon="115.16311854463864"><ele>96.5</ele><time>2026-04-13T03:01:20Z</time></trkpt><trkpt lat="-30.22716503935264" lon="115.1629926839039"><ele>95.0</ele><time>2026-04-13T03:01:21Z</time></trkpt><trkpt lat="-30.226936719260557" lon="115.1628730311698"><ele>95.0</ele><time>2026-04-13T03:01:22Z</time></trkpt><trkpt lat="-30.22672612311741" lon="115.16276172798962"><ele>95.0</ele><time>2026-04-13T03:01:23Z</time></trkpt><trkpt lat="-30.226524755266585" lon="115.16265362392991"><ele>95.66666666666667</ele><time>2026-04-13T03:01:24Z</time></trkpt><trkpt lat="-30.226341349211197" lon="115.16255693868567"><ele>96.33333333333334</ele><time>2026-04-13T03:01:25Z</time></trkpt><trkpt lat="-30.226185940855782" lon="115.16247262860561"><ele>97.0</ele><time>2026-04-13T03:01:26Z</time></trkpt><trkpt lat="-30.226040004505823" lon="115.16239435480027"><ele>97.0</ele><time>2026-04-13T03:01:27Z</time></trkpt><trkpt lat="-30.225923353174256" lon="115.16232856024163"><ele>97.0</ele><time>2026-04-13T03:01:28Z</time></trkpt><trkpt lat="-30.225799100271974" lon="115.16226295486412"><ele>97.0</ele><time>2026-04-13T03:01:29Z</time></trkpt><trkpt lat="-30.225675755123806" lon="115.16220440940846"><ele>97.0</ele><time>2026-04-13T03:01:30Z</time></trkpt><trkpt lat="-30.225541601383966" lon="115.16214863925832"><ele>97.0</ele><time>2026-04-13T03:01:31Z</time></trkpt><trkpt lat="-30.2253926938646" lon="115.16208394417002"><ele>97.0</ele><time>2026-04-13T03:01:32Z</time></trkpt><trkpt lat="-30.225234280142676" lon="115.1620124602786"><ele>97.0</ele><time>2026-04-13T03:01:33Z</time></trkpt><trkpt lat="-30.22507191645585" lon="115.16193514525416"><ele>97.0</ele><time>2026-04-13T03:01:34Z</time></trkpt><trkpt lat="-30.224894447147335" lon="115.16184416908027"><ele>97.0</ele><time>2026-04-13T03:01:35Z</time></trkpt><trkpt lat="-30.22471040579365" lon="115.16174789231164"><ele>97.0</ele><time>2026-04-13T03:01:36Z</time></trkpt><trkpt lat="-30.224509354300295" lon="115.1616488984396"><ele>96.0</ele><time>2026-04-13T03:01:37Z</time></trkpt><trkpt lat="-30.224296346150236" lon="115.16153994782488"><ele>95.0</ele><time>2026-04-13T03:01:38Z</time></trkpt><trkpt lat="-30.22409686983517" lon="115.16140653801986"><ele>93.5</ele><time>2026-04-13T03:01:39Z</time></trkpt><trkpt lat="-30.22388011254305" lon="115.16129563350741"><ele>92.0</ele><time>2026-04-13T03:01:40Z</time></trkpt><trkpt lat="-30.223655577162315" lon="115.16118039571487"><ele>92.0</ele><time>2026-04-13T03:01:41Z</time></trkpt><trkpt lat="-30.223437754152837" lon="115.16106833342471"><ele>92.0</ele><time>2026-04-13T03:01:42Z</time></trkpt><trkpt lat="-30.223211596315387" lon="115.16095278946025"><ele>94.0</ele><time>2026-04-13T03:01:43Z</time></trkpt><trkpt lat="-30.222981790106" lon="115.16083476802979"><ele>96.0</ele><time>2026-04-13T03:01:44Z</time></trkpt><trkpt lat="-30.22275348623182" lon="115.1607182084845"><ele>94.5</ele><time>2026-04-13T03:01:45Z</time></trkpt><trkpt lat="-30.222526102540044" lon="115.16060211887527"><ele>93.0</ele><time>2026-04-13T03:01:46Z</time></trkpt><trkpt lat="-30.22229638156345" lon="115.1604848359715"><ele>92.5</ele><time>2026-04-13T03:01:47Z</time></trkpt><trkpt lat="-30.222065625664527" lon="115.16036702460566"><ele>92.0</ele><time>2026-04-13T03:01:48Z</time></trkpt><trkpt lat="-30.221833007476025" lon="115.16024841975263"><ele>92.0</ele><time>2026-04-13T03:01:49Z</time></trkpt><trkpt lat="-30.22160746635496" lon="115.16013369026861"><ele>92.0</ele><time>2026-04-13T03:01:50Z</time></trkpt><trkpt lat="-30.221376772441225" lon="115.16001620288631"><ele>92.5</ele><time>2026-04-13T03:01:51Z</time></trkpt><trkpt lat="-30.221148717266562" lon="115.15990003498337"><ele>93.0</ele><time>2026-04-13T03:01:52Z</time></trkpt><trkpt lat="-30.220920485543115" lon="115.15978432070159"><ele>91.5</ele><time>2026-04-13T03:01:53Z</time></trkpt><trkpt lat="-30.220691200759767" lon="115.15966818883385"><ele>90.0</ele><time>2026-04-13T03:01:54Z</time></trkpt><trkpt lat="-30.22045663914623" lon="115.15954935268265"><ele>90.0</ele><time>2026-04-13T03:01:55Z</time></trkpt><trkpt lat="-30.220222802346544" lon="115.15943090220941"><ele>90.0</ele><time>2026-04-13T03:01:56Z</time></trkpt><trkpt lat="-30.219982619830436" lon="115.1593094465791"><ele>92.5</ele><time>2026-04-13T03:01:57Z</time></trkpt><trkpt lat="-30.219745540340284" lon="115.15919003677335"><ele>95.0</ele><time>2026-04-13T03:01:58Z</time></trkpt><trkpt lat="-30.21950023052812" lon="115.15906656134042"><ele>93.5</ele><time>2026-04-13T03:01:59Z</time></trkpt><trkpt lat="-30.219257900883797" lon="115.15894422417287"><ele>92.0</ele><time>2026-04-13T03:02:00Z</time></trkpt><trkpt lat="-30.219016402933466" lon="115.15882230690924"><ele>93.0</ele><time>2026-04-13T03:02:01Z</time></trkpt><trkpt lat="-30.21876844792607" lon="115.15869712991507"><ele>94.0</ele><time>2026-04-13T03:02:02Z</time></trkpt><trkpt lat="-30.218513646021048" lon="115.15856739552504"><ele>94.0</ele><time>2026-04-13T03:02:03Z</time></trkpt><trkpt lat="-30.218256721921506" lon="115.15843714645483"><ele>94.0</ele><time>2026-04-13T03:02:04Z</time></trkpt><trkpt lat="-30.21799732718626" lon="115.15830566273247"><ele>95.0</ele><time>2026-04-13T03:02:05Z</time></trkpt><trkpt lat="-30.217730078339404" lon="115.15817019775764"><ele>96.0</ele><time>2026-04-13T03:02:06Z</time></trkpt><trkpt lat="-30.2174647017538" lon="115.15803485084956"><ele>98.0</ele><time>2026-04-13T03:02:07Z</time></trkpt><trkpt lat="-30.217210811648496" lon="115.15790448743469"><ele>100.0</ele><time>2026-04-13T03:02:08Z</time></trkpt><trkpt lat="-30.216961152529635" lon="115.15777649147053"><ele>100.0</ele><time>2026-04-13T03:02:09Z</time></trkpt><trkpt lat="-30.21670626492007" lon="115.15764584971235"><ele>100.0</ele><time>2026-04-13T03:02:10Z</time></trkpt><trkpt lat="-30.216453965091922" lon="115.15751540244527"><ele>99.0</ele><time>2026-04-13T03:02:11Z</time></trkpt><trkpt lat="-30.21620122154769" lon="115.15738556426628"><ele>98.0</ele><time>2026-04-13T03:02:12Z</time></trkpt><trkpt lat="-30.215957457220448" lon="115.15726025684226"><ele>96.0</ele><time>2026-04-13T03:02:13Z</time></trkpt><trkpt lat="-30.21570977009658" lon="115.15715492601481"><ele>94.0</ele><time>2026-04-13T03:02:14Z</time></trkpt><trkpt lat="-30.215472107780258" lon="115.15703412778576"><ele>93.5</ele><time>2026-04-13T03:02:15Z</time></trkpt><trkpt lat="-30.21523169246105" lon="115.15689105889376"><ele>93.0</ele><time>2026-04-13T03:02:16Z</time></trkpt><trkpt lat="-30.214979122424133" lon="115.15678243245657"><ele>92.5</ele><time>2026-04-13T03:02:17Z</time></trkpt><trkpt lat="-30.214732598967924" lon="115.15665637214757"><ele>92.0</ele><time>2026-04-13T03:02:18Z</time></trkpt><trkpt lat="-30.214493922096604" lon="115.15651434499753"><ele>92.0</ele><time>2026-04-13T03:02:19Z</time></trkpt><trkpt lat="-30.214240091936922" lon="115.15640485132909"><ele>92.0</ele><time>2026-04-13T03:02:20Z</time></trkpt><trkpt lat="-30.213985244882263" lon="115.15627420737829"><ele>92.0</ele><time>2026-04-13T03:02:21Z</time></trkpt><trkpt lat="-30.213737388498576" lon="115.15612798951244"><ele>92.0</ele><time>2026-04-13T03:02:22Z</time></trkpt><trkpt lat="-30.21347732772625" lon="115.15599514141117"><ele>92.0</ele><time>2026-04-13T03:02:23Z</time></trkpt><trkpt lat="-30.213221119310727" lon="115.15586426120952"><ele>92.0</ele><time>2026-04-13T03:02:24Z</time></trkpt><trkpt lat="-30.212958221708927" lon="115.15572996394413"><ele>93.0</ele><time>2026-04-13T03:02:25Z</time></trkpt><trkpt lat="-30.21268813667236" lon="115.15559273516502"><ele>94.0</ele><time>2026-04-13T03:02:26Z</time></trkpt><trkpt lat="-30.21241255463098" lon="115.15545178933549"><ele>94.5</ele><time>2026-04-13T03:02:27Z</time></trkpt><trkpt lat="-30.212121189480847" lon="115.15532447580141"><ele>95.0</ele><time>2026-04-13T03:02:28Z</time></trkpt><trkpt lat="-30.21183556935099" lon="115.15517853120184"><ele>95.0</ele><time>2026-04-13T03:02:29Z</time></trkpt><trkpt lat="-30.211557040492814" lon="115.1550161572002"><ele>95.0</ele><time>2026-04-13T03:02:30Z</time></trkpt><trkpt lat="-30.211269878218257" lon="115.15486952583116"><ele>96.5</ele><time>2026-04-13T03:02:31Z</time></trkpt><trkpt lat="-30.21098779174863" lon="115.15472673235357"><ele>98.0</ele><time>2026-04-13T03:02:32Z</time></trkpt><trkpt lat="-30.210701123627043" lon="115.15460114873478"><ele>96.5</ele><time>2026-04-13T03:02:33Z</time></trkpt><trkpt lat="-30.210420364732734" lon="115.15445783571985"><ele>95.0</ele><time>2026-04-13T03:02:34Z</time></trkpt><trkpt lat="-30.21013565357356" lon="115.15431494996832"><ele>95.0</ele><time>2026-04-13T03:02:35Z</time></trkpt><trkpt lat="-30.209853687271984" lon="115.15416907141108"><ele>95.0</ele><time>2026-04-13T03:02:36Z</time></trkpt><trkpt lat="-30.209568126245667" lon="115.15401883357939"><ele>96.0</ele><time>2026-04-13T03:02:37Z</time></trkpt><trkpt lat="-30.209285889549463" lon="115.15387082497874"><ele>97.0</ele><time>2026-04-13T03:02:38Z</time></trkpt><trkpt lat="-30.209002392995355" lon="115.1537252935632"><ele>98.0</ele><time>2026-04-13T03:02:39Z</time></trkpt><trkpt lat="-30.208721007580163" lon="115.15358436397052"><ele>99.0</ele><time>2026-04-13T03:02:40Z</time></trkpt><trkpt lat="-30.20844164103842" lon="115.15344290733921"><ele>99.0</ele><time>2026-04-13T03:02:41Z</time></trkpt><trkpt lat="-30.208166762807924" lon="115.1533032576436"><ele>99.0</ele><time>2026-04-13T03:02:42Z</time></trkpt><trkpt lat="-30.207895052180195" lon="115.15316296975367"><ele>96.5</ele><time>2026-04-13T03:02:43Z</time></trkpt><trkpt lat="-30.20762380543546" lon="115.1530262740948"><ele>94.0</ele><time>2026-04-13T03:02:44Z</time></trkpt><trkpt lat="-30.20735304148846" lon="115.15288679215921"><ele>95.0</ele><time>2026-04-13T03:02:45Z</time></trkpt><trkpt lat="-30.20708404320659" lon="115.15274901763443"><ele>96.0</ele><time>2026-04-13T03:02:46Z</time></trkpt><trkpt lat="-30.206817301478214" lon="115.15261094732355"><ele>96.0</ele><time>2026-04-13T03:02:47Z</time></trkpt><trkpt lat="-30.20655050519212" lon="115.1524752903562"><ele>96.0</ele><time>2026-04-13T03:02:48Z</time></trkpt><trkpt lat="-30.206288973258577" lon="115.15234501407059"><ele>95.5</ele><time>2026-04-13T03:02:49Z</time></trkpt><trkpt lat="-30.206032110470307" lon="115.15221817217895"><ele>95.0</ele><time>2026-04-13T03:02:50Z</time></trkpt><trkpt lat="-30.20577862157887" lon="115.1520896831276"><ele>96.5</ele><time>2026-04-13T03:02:51Z</time></trkpt><trkpt lat="-30.20552496478154" lon="115.15196081964876"><ele>98.0</ele><time>2026-04-13T03:02:52Z</time></trkpt><trkpt lat="-30.205269435130845" lon="115.15182961240605"><ele>98.0</ele><time>2026-04-13T03:02:53Z</time></trkpt><trkpt lat="-30.20501130226611" lon="115.15169729623068"><ele>98.0</ele><time>2026-04-13T03:02:54Z</time></trkpt><trkpt lat="-30.204746299451912" lon="115.15156265740758"><ele>97.5</ele><time>2026-04-13T03:02:55Z</time></trkpt><trkpt lat="-30.20447651801243" lon="115.15142114605594"><ele>97.0</ele><time>2026-04-13T03:02:56Z</time></trkpt><trkpt lat="-30.204207881302725" lon="115.1512818186297"><ele>97.5</ele><time>2026-04-13T03:02:57Z</time></trkpt><trkpt lat="-30.203937699996384" lon="115.15114517966217"><ele>98.0</ele><time>2026-04-13T03:02:58Z</time></trkpt><trkpt lat="-30.203668944242036" lon="115.15101098387923"><ele>98.0</ele><time>2026-04-13T03:02:59Z</time></trkpt><trkpt lat="-30.203398960786405" lon="115.15087674667319"><ele>98.0</ele><time>2026-04-13T03:03:00Z</time></trkpt><trkpt lat="-30.203130228287545" lon="115.15074387216565"><ele>96.5</ele><time>2026-04-13T03:03:01Z</time></trkpt><trkpt lat="-30.20286229145318" lon="115.15061067717748"><ele>95.0</ele><time>2026-04-13T03:03:02Z</time></trkpt><trkpt lat="-30.20259358095253" lon="115.15047427314943"><ele>96.0</ele><time>2026-04-13T03:03:03Z</time></trkpt><trkpt lat="-30.2023259324638" lon="115.1503349880367"><ele>97.0</ele><time>2026-04-13T03:03:04Z</time></trkpt><trkpt lat="-30.202063161934852" lon="115.15019618057437"><ele>97.0</ele><time>2026-04-13T03:03:05Z</time></trkpt><trkpt lat="-30.201804537058095" lon="115.15006021826535"><ele>97.0</ele><time>2026-04-13T03:03:06Z</time></trkpt><trkpt lat="-30.20154778448111" lon="115.14992643075772"><ele>95.0</ele><time>2026-04-13T03:03:07Z</time></trkpt><trkpt lat="-30.201293296692537" lon="115.1497967089499"><ele>93.0</ele><time>2026-04-13T03:03:08Z</time></trkpt><trkpt lat="-30.20104976203183" lon="115.14967416134854"><ele>93.0</ele><time>2026-04-13T03:03:09Z</time></trkpt><trkpt lat="-30.200816722137493" lon="115.14955880985477"><ele>93.0</ele><time>2026-04-13T03:03:10Z</time></trkpt><trkpt lat="-30.200587541819065" lon="115.14944374769452"><ele>95.0</ele><time>2026-04-13T03:03:11Z</time></trkpt><trkpt lat="-30.200366579301352" lon="115.14933113075541"><ele>97.0</ele><time>2026-04-13T03:03:12Z</time></trkpt><trkpt lat="-30.200143886380747" lon="115.14922120483631"><ele>97.0</ele><time>2026-04-13T03:03:13Z</time></trkpt><trkpt lat="-30.199922169398594" lon="115.14911135332727"><ele>97.0</ele><time>2026-04-13T03:03:14Z</time></trkpt><trkpt lat="-30.199691656184566" lon="115.1489980338974"><ele>95.5</ele><time>2026-04-13T03:03:15Z</time></trkpt><trkpt lat="-30.199459982368257" lon="115.14888061136418"><ele>94.0</ele><time>2026-04-13T03:03:16Z</time></trkpt><trkpt lat="-30.199220992631382" lon="115.14875623571962"><ele>95.0</ele><time>2026-04-13T03:03:17Z</time></trkpt><trkpt lat="-30.198981861602018" lon="115.14863605888254"><ele>96.0</ele><time>2026-04-13T03:03:18Z</time></trkpt><trkpt lat="-30.198740969792645" lon="115.14851597082011"><ele>96.0</ele><time>2026-04-13T03:03:19Z</time></trkpt><trkpt lat="-30.198499236336584" lon="115.14839067861054"><ele>96.0</ele><time>2026-04-13T03:03:20Z</time></trkpt><trkpt lat="-30.19826005152568" lon="115.14826382998301"><ele>95.0</ele><time>2026-04-13T03:03:21Z</time></trkpt><trkpt lat="-30.198021067692864" lon="115.14813970184018"><ele>94.0</ele><time>2026-04-13T03:03:22Z</time></trkpt><trkpt lat="-30.19777572122788" lon="115.14801052373376"><ele>94.0</ele><time>2026-04-13T03:03:23Z</time></trkpt><trkpt lat="-30.19753552997613" lon="115.1478855673515"><ele>94.0</ele><time>2026-04-13T03:03:24Z</time></trkpt><trkpt lat="-30.19729786541494" lon="115.14776880031768"><ele>97.0</ele><time>2026-04-13T03:03:25Z</time></trkpt><trkpt lat="-30.197050976513452" lon="115.14763769936478"><ele>100.0</ele><time>2026-04-13T03:03:26Z</time></trkpt><trkpt lat="-30.196803287735772" lon="115.14751262084478"><ele>100.0</ele><time>2026-04-13T03:03:27Z</time></trkpt><trkpt lat="-30.19655767625284" lon="115.14738800463041"><ele>100.0</ele><time>2026-04-13T03:03:28Z</time></trkpt><trkpt lat="-30.196310089834686" lon="115.14726684148857"><ele>99.0</ele><time>2026-04-13T03:03:29Z</time></trkpt><trkpt lat="-30.196060213160983" lon="115.14714291120598"><ele>98.0</ele><time>2026-04-13T03:03:30Z</time></trkpt><trkpt lat="-30.195811172083687" lon="115.14702287715272"><ele>99.0</ele><time>2026-04-13T03:03:31Z</time></trkpt><trkpt lat="-30.195555847380106" lon="115.14690343380879"><ele>100.0</ele><time>2026-04-13T03:03:32Z</time></trkpt><trkpt lat="-30.195303495283998" lon="115.14677904086366"><ele>100.0</ele><time>2026-04-13T03:03:33Z</time></trkpt><trkpt lat="-30.195050141988922" lon="115.14664865982866"><ele>100.0</ele><time>2026-04-13T03:03:34Z</time></trkpt><trkpt lat="-30.19479263927619" lon="115.14651430004828"><ele>100.0</ele><time>2026-04-13T03:03:35Z</time></trkpt><trkpt lat="-30.194540076098452" lon="115.1463839008371"><ele>100.0</ele><time>2026-04-13T03:03:36Z</time></trkpt><trkpt lat="-30.19428544596605" lon="115.14625375152538"><ele>100.0</ele><time>2026-04-13T03:03:37Z</time></trkpt><trkpt lat="-30.194027325494346" lon="115.14612625228133"><ele>100.0</ele><time>2026-04-13T03:03:38Z</time></trkpt><trkpt lat="-30.193789876710095" lon="115.14595598918785"><ele>99.5</ele><time>2026-04-13T03:03:39Z</time></trkpt><trkpt lat="-30.193538098348427" lon="115.14582812753522"><ele>99.0</ele><time>2026-04-13T03:03:40Z</time></trkpt><trkpt lat="-30.193287151041968" lon="115.1456994676522"><ele>98.5</ele><time>2026-04-13T03:03:41Z</time></trkpt><trkpt lat="-30.193034215091146" lon="115.14556961178451"><ele>98.0</ele><time>2026-04-13T03:03:42Z</time></trkpt><trkpt lat="-30.192775560926005" lon="115.14543760744615"><ele>98.0</ele><time>2026-04-13T03:03:43Z</time></trkpt><trkpt lat="-30.192522674988286" lon="115.1453078940893"><ele>98.0</ele><time>2026-04-13T03:03:44Z</time></trkpt><trkpt lat="-30.192261717545936" lon="115.14517368414427"><ele>98.5</ele><time>2026-04-13T03:03:45Z</time></trkpt><trkpt lat="-30.19199487928172" lon="115.14503624139867"><ele>99.0</ele><time>2026-04-13T03:03:46Z</time></trkpt><trkpt lat="-30.19172056320826" lon="115.14489511259892"><ele>99.0</ele><time>2026-04-13T03:03:47Z</time></trkpt><trkpt lat="-30.191441946195365" lon="115.14475202962713"><ele>99.0</ele><time>2026-04-13T03:03:48Z</time></trkpt><trkpt lat="-30.191160848215166" lon="115.1446076000495"><ele>99.0</ele><time>2026-04-13T03:03:49Z</time></trkpt><trkpt lat="-30.190875053775567" lon="115.1444613485767"><ele>99.0</ele><time>2026-04-13T03:03:50Z</time></trkpt><trkpt lat="-30.190592434302395" lon="115.14431571932037"><ele>99.5</ele><time>2026-04-13T03:03:51Z</time></trkpt><trkpt lat="-30.190306952538602" lon="115.14416844639905"><ele>100.0</ele><time>2026-04-13T03:03:52Z</time></trkpt><trkpt lat="-30.190027883095162" lon="115.14402525281608"><ele>99.0</ele><time>2026-04-13T03:03:53Z</time></trkpt><trkpt lat="-30.189753254832194" lon="115.14388433896369"><ele>98.0</ele><time>2026-04-13T03:03:54Z</time></trkpt><trkpt lat="-30.189480962273908" lon="115.14374571416374"><ele>98.0</ele><time>2026-04-13T03:03:55Z</time></trkpt><trkpt lat="-30.18921513339989" lon="115.14360994253443"><ele>98.0</ele><time>2026-04-13T03:03:56Z</time></trkpt><trkpt lat="-30.18894536449348" lon="115.14347191107454"><ele>98.5</ele><time>2026-04-13T03:03:57Z</time></trkpt><trkpt lat="-30.18868322836257" lon="115.14333767758716"><ele>99.0</ele><time>2026-04-13T03:03:58Z</time></trkpt><trkpt lat="-30.188413615332575" lon="115.14320005978239"><ele>100.0</ele><time>2026-04-13T03:03:59Z</time></trkpt><trkpt lat="-30.18814384522491" lon="115.14306217968563"><ele>101.0</ele><time>2026-04-13T03:04:00Z</time></trkpt><trkpt lat="-30.187864677972843" lon="115.14293965343407"><ele>101.0</ele><time>2026-04-13T03:04:01Z</time></trkpt><trkpt lat="-30.187598310921782" lon="115.14278286962295"><ele>101.0</ele><time>2026-04-13T03:04:02Z</time></trkpt><trkpt lat="-30.18732563605325" lon="115.14264355118542"><ele>101.0</ele><time>2026-04-13T03:04:03Z</time></trkpt><trkpt lat="-30.187052049019943" lon="115.14250307337618"><ele>101.0</ele><time>2026-04-13T03:04:04Z</time></trkpt><trkpt lat="-30.186780126730937" lon="115.14236259494137"><ele>100.0</ele><time>2026-04-13T03:04:05Z</time></trkpt><trkpt lat="-30.186507681334145" lon="115.14222104979291"><ele>99.0</ele><time>2026-04-13T03:04:06Z</time></trkpt><trkpt lat="-30.186237297314356" lon="115.14208001214429"><ele>99.0</ele><time>2026-04-13T03:04:07Z</time></trkpt><trkpt lat="-30.18596863200079" lon="115.14193987100164"><ele>99.0</ele><time>2026-04-13T03:04:08Z</time></trkpt><trkpt lat="-30.18569884484023" lon="115.14179919762108"><ele>99.5</ele><time>2026-04-13T03:04:09Z</time></trkpt><trkpt lat="-30.185432575343714" lon="115.14165972805172"><ele>100.0</ele><time>2026-04-13T03:04:10Z</time></trkpt><trkpt lat="-30.185166484611887" lon="115.14152109371594"><ele>100.0</ele><time>2026-04-13T03:04:11Z</time></trkpt><trkpt lat="-30.184902152764177" lon="115.14138337663275"><ele>100.0</ele><time>2026-04-13T03:04:12Z</time></trkpt><trkpt lat="-30.18463873989235" lon="115.14124610236036"><ele>101.0</ele><time>2026-04-13T03:04:13Z</time></trkpt><trkpt lat="-30.18437301228522" lon="115.14110823245113"><ele>102.0</ele><time>2026-04-13T03:04:14Z</time></trkpt><trkpt lat="-30.18411141179322" lon="115.14097273419594"><ele>101.5</ele><time>2026-04-13T03:04:15Z</time></trkpt><trkpt lat="-30.18384359478643" lon="115.14085375786026"><ele>101.0</ele><time>2026-04-13T03:04:16Z</time></trkpt><trkpt lat="-30.18358501822046" lon="115.14071311244138"><ele>100.5</ele><time>2026-04-13T03:04:17Z</time></trkpt><trkpt lat="-30.183325148960634" lon="115.14057204745068"><ele>100.0</ele><time>2026-04-13T03:04:18Z</time></trkpt><trkpt lat="-30.183065627978323" lon="115.1404329629475"><ele>100.0</ele><time>2026-04-13T03:04:19Z</time></trkpt><trkpt lat="-30.182805498751662" lon="115.14029269628244"><ele>100.0</ele><time>2026-04-13T03:04:20Z</time></trkpt><trkpt lat="-30.182549280278877" lon="115.14015634130367"><ele>101.0</ele><time>2026-04-13T03:04:21Z</time></trkpt><trkpt lat="-30.18228837496832" lon="115.14002148758661"><ele>102.0</ele><time>2026-04-13T03:04:22Z</time></trkpt><trkpt lat="-30.182022973349206" lon="115.13988789931965"><ele>101.0</ele><time>2026-04-13T03:04:23Z</time></trkpt><trkpt lat="-30.181763200942882" lon="115.13975509376068"><ele>100.0</ele><time>2026-04-13T03:04:24Z</time></trkpt><trkpt lat="-30.1815015414338" lon="115.13962216973218"><ele>100.0</ele><time>2026-04-13T03:04:25Z</time></trkpt><trkpt lat="-30.181237109234548" lon="115.13948924405506"><ele>100.0</ele><time>2026-04-13T03:04:26Z</time></trkpt><trkpt lat="-30.180969721100823" lon="115.13935466682236"><ele>100.0</ele><time>2026-04-13T03:04:27Z</time></trkpt><trkpt lat="-30.180706598432316" lon="115.13922265186409"><ele>100.0</ele><time>2026-04-13T03:04:28Z</time></trkpt><trkpt lat="-30.18044288529784" lon="115.13908708240521"><ele>99.0</ele><time>2026-04-13T03:04:29Z</time></trkpt><trkpt lat="-30.18018022786551" lon="115.13895221680036"><ele>98.0</ele><time>2026-04-13T03:04:30Z</time></trkpt><trkpt lat="-30.17991416334644" lon="115.13881760327885"><ele>98.5</ele><time>2026-04-13T03:04:31Z</time></trkpt><trkpt lat="-30.179639584490353" lon="115.13867815301532"><ele>99.0</ele><time>2026-04-13T03:04:32Z</time></trkpt><trkpt lat="-30.179357753084272" lon="115.13853312703448"><ele>99.0</ele><time>2026-04-13T03:04:33Z</time></trkpt><trkpt lat="-30.179076374689078" lon="115.13838906588606"><ele>99.0</ele><time>2026-04-13T03:04:34Z</time></trkpt><trkpt lat="-30.17879572759482" lon="115.13824506651228"><ele>100.5</ele><time>2026-04-13T03:04:35Z</time></trkpt><trkpt lat="-30.178514775068468" lon="115.13810049894069"><ele>102.0</ele><time>2026-04-13T03:04:36Z</time></trkpt><trkpt lat="-30.17823662122301" lon="115.1379592897676"><ele>101.5</ele><time>2026-04-13T03:04:37Z</time></trkpt><trkpt lat="-30.17796074323881" lon="115.1378198495045"><ele>101.0</ele><time>2026-04-13T03:04:38Z</time></trkpt><trkpt lat="-30.177687035834364" lon="115.13768273979278"><ele>101.0</ele><time>2026-04-13T03:04:39Z</time></trkpt><trkpt lat="-30.177415265424443" lon="115.13754286928481"><ele>101.0</ele><time>2026-04-13T03:04:40Z</time></trkpt><trkpt lat="-30.177144884716682" lon="115.13740601819734"><ele>102.0</ele><time>2026-04-13T03:04:41Z</time></trkpt><trkpt lat="-30.176876172675808" lon="115.13726945353899"><ele>103.0</ele><time>2026-04-13T03:04:42Z</time></trkpt><trkpt lat="-30.176608107549704" lon="115.13713262395292"><ele>102.5</ele><time>2026-04-13T03:04:43Z</time></trkpt><trkpt lat="-30.176354286611954" lon="115.13700126890062"><ele>102.0</ele><time>2026-04-13T03:04:44Z</time></trkpt><trkpt lat="-30.176111690596716" lon="115.13687411134981"><ele>102.0</ele><time>2026-04-13T03:04:45Z</time></trkpt><trkpt lat="-30.175872884657533" lon="115.13675449356306"><ele>102.0</ele><time>2026-04-13T03:04:46Z</time></trkpt><trkpt lat="-30.175633352652735" lon="115.13663787348759"><ele>101.5</ele><time>2026-04-13T03:04:47Z</time></trkpt><trkpt lat="-30.175393092247354" lon="115.13652082614642"><ele>101.0</ele><time>2026-04-13T03:04:48Z</time></trkpt><trkpt lat="-30.17514390849014" lon="115.1363982379638"><ele>101.0</ele><time>2026-04-13T03:04:49Z</time></trkpt><trkpt lat="-30.174896425112653" lon="115.13627257080418"><ele>101.0</ele><time>2026-04-13T03:04:50Z</time></trkpt><trkpt lat="-30.17465548650441" lon="115.13614676085525"><ele>103.0</ele><time>2026-04-13T03:04:51Z</time></trkpt><trkpt lat="-30.174415154058476" lon="115.13601995484709"><ele>105.0</ele><time>2026-04-13T03:04:52Z</time></trkpt><trkpt lat="-30.17417707840684" lon="115.13589675476712"><ele>104.5</ele><time>2026-04-13T03:04:53Z</time></trkpt><trkpt lat="-30.173934136736264" lon="115.1357749970365"><ele>104.0</ele><time>2026-04-13T03:04:54Z</time></trkpt><trkpt lat="-30.17368634706798" lon="115.1356516818341"><ele>104.0</ele><time>2026-04-13T03:04:55Z</time></trkpt><trkpt lat="-30.173438846388972" lon="115.13552756598769"><ele>104.0</ele><time>2026-04-13T03:04:56Z</time></trkpt><trkpt lat="-30.173190022646942" lon="115.13540377513227"><ele>103.0</ele><time>2026-04-13T03:04:57Z</time></trkpt><trkpt lat="-30.17294281625699" lon="115.13527610393318"><ele>102.0</ele><time>2026-04-13T03:04:58Z</time></trkpt><trkpt lat="-30.172694268429673" lon="115.13514394932382"><ele>102.0</ele><time>2026-04-13T03:04:59Z</time></trkpt><trkpt lat="-30.172443613076986" lon="115.13501496019695"><ele>102.0</ele><time>2026-04-13T03:05:00Z</time></trkpt><trkpt lat="-30.172190551552674" lon="115.1348859821593"><ele>102.5</ele><time>2026-04-13T03:05:01Z</time></trkpt><trkpt lat="-30.171936366029666" lon="115.13475721090654"><ele>103.0</ele><time>2026-04-13T03:05:02Z</time></trkpt><trkpt lat="-30.17167539795034" lon="115.13462365404582"><ele>104.0</ele><time>2026-04-13T03:05:03Z</time></trkpt><trkpt lat="-30.171408456256614" lon="115.1344880792609"><ele>105.0</ele><time>2026-04-13T03:05:04Z</time></trkpt><trkpt lat="-30.171138576195553" lon="115.13435084312046"><ele>105.0</ele><time>2026-04-13T03:05:05Z</time></trkpt><trkpt lat="-30.170868487249567" lon="115.13421412147459"><ele>105.0</ele><time>2026-04-13T03:05:06Z</time></trkpt><trkpt lat="-30.17060230695172" lon="115.13407713555408"><ele>104.5</ele><time>2026-04-13T03:05:07Z</time></trkpt><trkpt lat="-30.170333817061223" lon="115.13393737823847"><ele>104.0</ele><time>2026-04-13T03:05:08Z</time></trkpt><trkpt lat="-30.170064490372017" lon="115.13379875508554"><ele>105.5</ele><time>2026-04-13T03:05:09Z</time></trkpt><trkpt lat="-30.16979188752643" lon="115.13365621658653"><ele>107.0</ele><time>2026-04-13T03:05:10Z</time></trkpt><trkpt lat="-30.169516554756306" lon="115.13351349276294"><ele>107.0</ele><time>2026-04-13T03:05:11Z</time></trkpt><trkpt lat="-30.16924327942916" lon="115.13337496557902"><ele>107.0</ele><time>2026-04-13T03:05:12Z</time></trkpt><trkpt lat="-30.168968049876" lon="115.13323458299872"><ele>106.0</ele><time>2026-04-13T03:05:13Z</time></trkpt><trkpt lat="-30.168696067337326" lon="115.13309515807322"><ele>105.0</ele><time>2026-04-13T03:05:14Z</time></trkpt><trkpt lat="-30.16842331267446" lon="115.13295698321713"><ele>106.0</ele><time>2026-04-13T03:05:15Z</time></trkpt><trkpt lat="-30.16815369304761" lon="115.13281991620255"><ele>107.0</ele><time>2026-04-13T03:05:16Z</time></trkpt><trkpt lat="-30.167886608646803" lon="115.13268350447153"><ele>107.0</ele><time>2026-04-13T03:05:17Z</time></trkpt><trkpt lat="-30.16761790426771" lon="115.13254822759993"><ele>107.0</ele><time>2026-04-13T03:05:18Z</time></trkpt><trkpt lat="-30.167351944322316" lon="115.13241671078052"><ele>107.0</ele><time>2026-04-13T03:05:19Z</time></trkpt><trkpt lat="-30.167086318861642" lon="115.13228889802157"><ele>107.0</ele><time>2026-04-13T03:05:20Z</time></trkpt><trkpt lat="-30.16682582768226" lon="115.13217104462318"><ele>107.0</ele><time>2026-04-13T03:05:21Z</time></trkpt><trkpt lat="-30.16656215615755" lon="115.13205298088448"><ele>107.0</ele><time>2026-04-13T03:05:22Z</time></trkpt><trkpt lat="-30.166296705847504" lon="115.13193302394615"><ele>107.0</ele><time>2026-04-13T03:05:23Z</time></trkpt><trkpt lat="-30.166023817417802" lon="115.13181390197448"><ele>107.0</ele><time>2026-04-13T03:05:24Z</time></trkpt><trkpt lat="-30.16575807077906" lon="115.13169801086919"><ele>107.0</ele><time>2026-04-13T03:05:25Z</time></trkpt><trkpt lat="-30.165510119213653" lon="115.13158739758455"><ele>107.0</ele><time>2026-04-13T03:05:26Z</time></trkpt><trkpt lat="-30.165274681264574" lon="115.1314839987484"><ele>106.0</ele><time>2026-04-13T03:05:27Z</time></trkpt><trkpt lat="-30.165036546989768" lon="115.13137455658926"><ele>105.0</ele><time>2026-04-13T03:05:28Z</time></trkpt><trkpt lat="-30.164796060166573" lon="115.13126480166234"><ele>105.0</ele><time>2026-04-13T03:05:29Z</time></trkpt><trkpt lat="-30.164557773736664" lon="115.13115657206676"><ele>105.0</ele><time>2026-04-13T03:05:30Z</time></trkpt><trkpt lat="-30.16431427525854" lon="115.13104588687665"><ele>105.0</ele><time>2026-04-13T03:05:31Z</time></trkpt><trkpt lat="-30.164070786112987" lon="115.13093166102318"><ele>105.0</ele><time>2026-04-13T03:05:32Z</time></trkpt><trkpt lat="-30.163831499570577" lon="115.13081106561252"><ele>103.5</ele><time>2026-04-13T03:05:33Z</time></trkpt><trkpt lat="-30.16358288268811" lon="115.13067945057573"><ele>102.0</ele><time>2026-04-13T03:05:34Z</time></trkpt><trkpt lat="-30.16333713799829" lon="115.13055036697472"><ele>103.0</ele><time>2026-04-13T03:05:35Z</time></trkpt><trkpt lat="-30.16308748690493" lon="115.13041155104645"><ele>104.0</ele><time>2026-04-13T03:05:36Z</time></trkpt><trkpt lat="-30.1628399458144" lon="115.13026877290194"><ele>104.0</ele><time>2026-04-13T03:05:37Z</time></trkpt><trkpt lat="-30.162588375757146" lon="115.13011848287812"><ele>104.0</ele><time>2026-04-13T03:05:38Z</time></trkpt><trkpt lat="-30.162339797433283" lon="115.12997729408062"><ele>102.5</ele><time>2026-04-13T03:05:39Z</time></trkpt><trkpt lat="-30.162095776882627" lon="115.12983648053083"><ele>101.0</ele><time>2026-04-13T03:05:40Z</time></trkpt><trkpt lat="-30.161850622400177" lon="115.12968758263685"><ele>101.0</ele><time>2026-04-13T03:05:41Z</time></trkpt><trkpt lat="-30.161618661453943" lon="115.12955046296733"><ele>101.0</ele><time>2026-04-13T03:05:42Z</time></trkpt><trkpt lat="-30.161393402853548" lon="115.12941832583073"><ele>102.0</ele><time>2026-04-13T03:05:43Z</time></trkpt><trkpt lat="-30.161171645592653" lon="115.12929310787672"><ele>103.0</ele><time>2026-04-13T03:05:44Z</time></trkpt><trkpt lat="-30.160941390344252" lon="115.1291627858054"><ele>101.0</ele><time>2026-04-13T03:05:45Z</time></trkpt><trkpt lat="-30.160710242804946" lon="115.12903091545263"><ele>99.0</ele><time>2026-04-13T03:05:46Z</time></trkpt><trkpt lat="-30.1604900715673" lon="115.12890217242169"><ele>99.0</ele><time>2026-04-13T03:05:47Z</time></trkpt><trkpt lat="-30.16027383375856" lon="115.12877556915747"><ele>99.0</ele><time>2026-04-13T03:05:48Z</time></trkpt><trkpt lat="-30.160057003287324" lon="115.12864595147975"><ele>99.0</ele><time>2026-04-13T03:05:49Z</time></trkpt><trkpt lat="-30.15984364312854" lon="115.12851964961146"><ele>99.0</ele><time>2026-04-13T03:05:50Z</time></trkpt><trkpt lat="-30.15962561392562" lon="115.1283938422426"><ele>99.0</ele><time>2026-04-13T03:05:51Z</time></trkpt><trkpt lat="-30.15939607148923" lon="115.12826379930307"><ele>99.0</ele><time>2026-04-13T03:05:52Z</time></trkpt><trkpt lat="-30.159161380231723" lon="115.12813168343916"><ele>97.0</ele><time>2026-04-13T03:05:53Z</time></trkpt><trkpt lat="-30.158923791448657" lon="115.12800057987326"><ele>95.0</ele><time>2026-04-13T03:05:54Z</time></trkpt><trkpt lat="-30.15868441775585" lon="115.12786592385342"><ele>95.0</ele><time>2026-04-13T03:05:55Z</time></trkpt><trkpt lat="-30.158442936103178" lon="115.12772803644067"><ele>95.0</ele><time>2026-04-13T03:05:56Z</time></trkpt><trkpt lat="-30.158201646662928" lon="115.12759020264834"><ele>95.0</ele><time>2026-04-13T03:05:57Z</time></trkpt><trkpt lat="-30.157961780183737" lon="115.12745136403134"><ele>95.0</ele><time>2026-04-13T03:05:58Z</time></trkpt><trkpt lat="-30.15771817209143" lon="115.12730832388134"><ele>95.0</ele><time>2026-04-13T03:05:59Z</time></trkpt><trkpt lat="-30.157473113240172" lon="115.12716034396651"><ele>95.0</ele><time>2026-04-13T03:06:00Z</time></trkpt><trkpt lat="-30.15722782092981" lon="115.12701361307874"><ele>95.5</ele><time>2026-04-13T03:06:01Z</time></trkpt><trkpt lat="-30.156984497238582" lon="115.12686700532312"><ele>96.0</ele><time>2026-04-13T03:06:02Z</time></trkpt><trkpt lat="-30.156747263088562" lon="115.12672322877275"><ele>96.5</ele><time>2026-04-13T03:06:03Z</time></trkpt><trkpt lat="-30.15652282617804" lon="115.12658100620433"><ele>97.0</ele><time>2026-04-13T03:06:04Z</time></trkpt><trkpt lat="-30.156300477691325" lon="115.12643345485411"><ele>98.0</ele><time>2026-04-13T03:06:05Z</time></trkpt><trkpt lat="-30.15608558125459" lon="115.12628022323915"><ele>99.0</ele><time>2026-04-13T03:06:06Z</time></trkpt><trkpt lat="-30.155880271136404" lon="115.12611466857882"><ele>99.0</ele><time>2026-04-13T03:06:07Z</time></trkpt><trkpt lat="-30.15568893608491" lon="115.12593225836324"><ele>99.0</ele><time>2026-04-13T03:06:08Z</time></trkpt><trkpt lat="-30.155512868884298" lon="115.12573424267433"><ele>96.5</ele><time>2026-04-13T03:06:09Z</time></trkpt><trkpt lat="-30.155358237886393" lon="115.12552375360663"><ele>94.0</ele><time>2026-04-13T03:06:10Z</time></trkpt><trkpt lat="-30.15522113649635" lon="115.12531410179015"><ele>94.0</ele><time>2026-04-13T03:06:11Z</time></trkpt><trkpt lat="-30.155100647754765" lon="115.12509322128335"><ele>94.0</ele><time>2026-04-13T03:06:12Z</time></trkpt><trkpt lat="-30.154984860273824" lon="115.12486725838892"><ele>93.66666666666666</ele><time>2026-04-13T03:06:13Z</time></trkpt><trkpt lat="-30.154881524127944" lon="115.12463835823701"><ele>93.33333333333333</ele><time>2026-04-13T03:06:14Z</time></trkpt><trkpt lat="-30.154793578105174" lon="115.12441242338629"><ele>93.0</ele><time>2026-04-13T03:06:15Z</time></trkpt><trkpt lat="-30.154716723343707" lon="115.12417512455534"><ele>93.66666666666667</ele><time>2026-04-13T03:06:16Z</time></trkpt><trkpt lat="-30.154651796221778" lon="115.12393220174354"><ele>94.33333333333334</ele><time>2026-04-13T03:06:17Z</time></trkpt><trkpt lat="-30.15460790011815" lon="115.12367932532085"><ele>95.0</ele><time>2026-04-13T03:06:18Z</time></trkpt><trkpt lat="-30.154572214552402" lon="115.12340781091446"><ele>93.5</ele><time>2026-04-13T03:06:19Z</time></trkpt><trkpt lat="-30.15454720497896" lon="115.1231107637411"><ele>92.0</ele><time>2026-04-13T03:06:20Z</time></trkpt><trkpt lat="-30.154524316291056" lon="115.12280010297233"><ele>92.0</ele><time>2026-04-13T03:06:21Z</time></trkpt><trkpt lat="-30.15450878973111" lon="115.12249868082915"><ele>92.0</ele><time>2026-04-13T03:06:22Z</time></trkpt><trkpt lat="-30.154496527269682" lon="115.12220999774117"><ele>91.0</ele><time>2026-04-13T03:06:23Z</time></trkpt><trkpt lat="-30.154485505553822" lon="115.12192562420168"><ele>90.0</ele><time>2026-04-13T03:06:24Z</time></trkpt><trkpt lat="-30.154472390525143" lon="115.12165698483726"><ele>88.66666666666667</ele><time>2026-04-13T03:06:25Z</time></trkpt><trkpt lat="-30.15445878359256" lon="115.12140791173697"><ele>87.33333333333334</ele><time>2026-04-13T03:06:26Z</time></trkpt><trkpt lat="-30.154446170727535" lon="115.12117113396492"><ele>86.0</ele><time>2026-04-13T03:06:27Z</time></trkpt><trkpt lat="-30.15443496996629" lon="115.12094825542734"><ele>86.0</ele><time>2026-04-13T03:06:28Z</time></trkpt><trkpt lat="-30.154424945676453" lon="115.12073685848611"><ele>86.0</ele><time>2026-04-13T03:06:29Z</time></trkpt><trkpt lat="-30.154414691516052" lon="115.12051273862936"><ele>86.0</ele><time>2026-04-13T03:06:30Z</time></trkpt><trkpt lat="-30.154434787419362" lon="115.12027626704108"><ele>86.0</ele><time>2026-04-13T03:06:31Z</time></trkpt><trkpt lat="-30.154420388253598" lon="115.12002080595498"><ele>86.0</ele><time>2026-04-13T03:06:32Z</time></trkpt><trkpt lat="-30.15440565844414" lon="115.11976002459734"><ele>86.0</ele><time>2026-04-13T03:06:33Z</time></trkpt><trkpt lat="-30.15439140229145" lon="115.11949777272645"><ele>86.0</ele><time>2026-04-13T03:06:34Z</time></trkpt><trkpt lat="-30.15437687106105" lon="115.11922192667615"><ele>86.0</ele><time>2026-04-13T03:06:35Z</time></trkpt><trkpt lat="-30.15435945312247" lon="115.11893426185567"><ele>85.0</ele><time>2026-04-13T03:06:36Z</time></trkpt><trkpt lat="-30.1543410265378" lon="115.1186446568375"><ele>84.0</ele><time>2026-04-13T03:06:37Z</time></trkpt><trkpt lat="-30.15431957692074" lon="115.11835601032232"><ele>83.5</ele><time>2026-04-13T03:06:38Z</time></trkpt><trkpt lat="-30.154296338952722" lon="115.11806975121353"><ele>83.0</ele><time>2026-04-13T03:06:39Z</time></trkpt><trkpt lat="-30.1542731375623" lon="115.11779012623431"><ele>83.0</ele><time>2026-04-13T03:06:40Z</time></trkpt><trkpt lat="-30.15425099339679" lon="115.11752764724334"><ele>83.0</ele><time>2026-04-13T03:06:41Z</time></trkpt><trkpt lat="-30.154227556009154" lon="115.1172756946811"><ele>83.0</ele><time>2026-04-13T03:06:42Z</time></trkpt><trkpt lat="-30.154197168862652" lon="115.1170190354016"><ele>83.5</ele><time>2026-04-13T03:06:43Z</time></trkpt><trkpt lat="-30.15415518553748" lon="115.11674732551462"><ele>84.0</ele><time>2026-04-13T03:06:44Z</time></trkpt><trkpt lat="-30.15409865638326" lon="115.11646990085347"><ele>83.5</ele><time>2026-04-13T03:06:45Z</time></trkpt><trkpt lat="-30.154023780617973" lon="115.11619255070558"><ele>83.0</ele><time>2026-04-13T03:06:46Z</time></trkpt><trkpt lat="-30.153929959727797" lon="115.11590813447694"><ele>79.5</ele><time>2026-04-13T03:06:47Z</time></trkpt><trkpt lat="-30.153818362844653" lon="115.11561015254387"><ele>76.0</ele><time>2026-04-13T03:06:48Z</time></trkpt><trkpt lat="-30.153700618623663" lon="115.1153107426856"><ele>76.0</ele><time>2026-04-13T03:06:49Z</time></trkpt><trkpt lat="-30.15358865954025" lon="115.11502325518566"><ele>76.0</ele><time>2026-04-13T03:06:50Z</time></trkpt><trkpt lat="-30.153485536953806" lon="115.11474284722887"><ele>76.5</ele><time>2026-04-13T03:06:51Z</time></trkpt><trkpt lat="-30.153383758629513" lon="115.11446822641958"><ele>77.0</ele><time>2026-04-13T03:06:52Z</time></trkpt><trkpt lat="-30.15327817912101" lon="115.11418613872269"><ele>79.5</ele><time>2026-04-13T03:06:53Z</time></trkpt><trkpt lat="-30.153172238505682" lon="115.1139069828094"><ele>82.0</ele><time>2026-04-13T03:06:54Z</time></trkpt><trkpt lat="-30.15306674717614" lon="115.11362902554323"><ele>82.0</ele><time>2026-04-13T03:06:55Z</time></trkpt><trkpt lat="-30.152962211778764" lon="115.1133539617438"><ele>82.0</ele><time>2026-04-13T03:06:56Z</time></trkpt><trkpt lat="-30.152857570059776" lon="115.11307952862981"><ele>80.0</ele><time>2026-04-13T03:06:57Z</time></trkpt><trkpt lat="-30.152752239892376" lon="115.11280499320999"><ele>78.0</ele><time>2026-04-13T03:06:58Z</time></trkpt><trkpt lat="-30.152645925603363" lon="115.11252789274911"><ele>78.0</ele><time>2026-04-13T03:06:59Z</time></trkpt><trkpt lat="-30.152537361812822" lon="115.1122464853477"><ele>78.0</ele><time>2026-04-13T03:07:00Z</time></trkpt><trkpt lat="-30.152430308921492" lon="115.11196598429916"><ele>78.0</ele><time>2026-04-13T03:07:01Z</time></trkpt><trkpt lat="-30.152321274099602" lon="115.11167985828209"><ele>78.0</ele><time>2026-04-13T03:07:02Z</time></trkpt><trkpt lat="-30.15221470417552" lon="115.11139736330767"><ele>78.5</ele><time>2026-04-13T03:07:03Z</time></trkpt><trkpt lat="-30.15210846126032" lon="115.11111719026043"><ele>79.0</ele><time>2026-04-13T03:07:04Z</time></trkpt><trkpt lat="-30.152008250697552" lon="115.11085384418594"><ele>79.0</ele><time>2026-04-13T03:07:05Z</time></trkpt><trkpt lat="-30.151913068995064" lon="115.11061206650312"><ele>79.0</ele><time>2026-04-13T03:07:06Z</time></trkpt><trkpt lat="-30.151822316148955" lon="115.11038918803415"><ele>79.0</ele><time>2026-04-13T03:07:07Z</time></trkpt><trkpt lat="-30.15173679885699" lon="115.1101843467434"><ele>79.0</ele><time>2026-04-13T03:07:08Z</time></trkpt><trkpt lat="-30.151652762015285" lon="115.10998937206246"><ele>79.0</ele><time>2026-04-13T03:07:09Z</time></trkpt><trkpt lat="-30.151567061358943" lon="115.10980727530611"><ele>79.0</ele><time>2026-04-13T03:07:10Z</time></trkpt><trkpt lat="-30.151463767506918" lon="115.10961960881087"><ele>79.66666666666666</ele><time>2026-04-13T03:07:11Z</time></trkpt><trkpt lat="-30.151340330561915" lon="115.10941903136253"><ele>80.33333333333333</ele><time>2026-04-13T03:07:12Z</time></trkpt><trkpt lat="-30.15120115898166" lon="115.1092172372633"><ele>81.0</ele><time>2026-04-13T03:07:13Z</time></trkpt><trkpt lat="-30.15105241261404" lon="115.10902256461287"><ele>78.5</ele><time>2026-04-13T03:07:14Z</time></trkpt><trkpt lat="-30.15088879909335" lon="115.1088287080166"><ele>76.0</ele><time>2026-04-13T03:07:15Z</time></trkpt><trkpt lat="-30.150709711493807" lon="115.10864197236947"><ele>76.5</ele><time>2026-04-13T03:07:16Z</time></trkpt><trkpt lat="-30.150527128974193" lon="115.10847216931498"><ele>77.0</ele><time>2026-04-13T03:07:17Z</time></trkpt><trkpt lat="-30.150337340637723" lon="115.10833185992243"><ele>76.0</ele><time>2026-04-13T03:07:18Z</time></trkpt><trkpt lat="-30.15016287886441" lon="115.10818239273833"><ele>75.0</ele><time>2026-04-13T03:07:19Z</time></trkpt><trkpt lat="-30.14996580917501" lon="115.1080637261152"><ele>74.0</ele><time>2026-04-13T03:07:20Z</time></trkpt><trkpt lat="-30.149755698070777" lon="115.10797162257057"><ele>72.5</ele><time>2026-04-13T03:07:21Z</time></trkpt><trkpt lat="-30.149535520251373" lon="115.10791778038511"><ele>71.0</ele><time>2026-04-13T03:07:22Z</time></trkpt><trkpt lat="-30.14930912382782" lon="115.1078979783681"><ele>71.0</ele><time>2026-04-13T03:07:23Z</time></trkpt><trkpt lat="-30.149090534627057" lon="115.10784481301981"><ele>71.0</ele><time>2026-04-13T03:07:24Z</time></trkpt><trkpt lat="-30.14886673026817" lon="115.10782264162582"><ele>71.0</ele><time>2026-04-13T03:07:25Z</time></trkpt><trkpt lat="-30.148647129845173" lon="115.1078214195499"><ele>68.0</ele><time>2026-04-13T03:07:26Z</time></trkpt><trkpt lat="-30.14843224865586" lon="115.10784208630005"><ele>65.0</ele><time>2026-04-13T03:07:27Z</time></trkpt><trkpt lat="-30.148221581374322" lon="115.10788234827493"><ele>62.0</ele><time>2026-04-13T03:07:28Z</time></trkpt><trkpt lat="-30.14800908132773" lon="115.10794591704725"><ele>62.0</ele><time>2026-04-13T03:07:29Z</time></trkpt><trkpt lat="-30.147789876699196" lon="115.10800334791045"><ele>62.0</ele><time>2026-04-13T03:07:30Z</time></trkpt><trkpt lat="-30.147571387354013" lon="115.1080731040497"><ele>60.5</ele><time>2026-04-13T03:07:31Z</time></trkpt><trkpt lat="-30.147354180658066" lon="115.1081488972218"><ele>59.0</ele><time>2026-04-13T03:07:32Z</time></trkpt><trkpt lat="-30.14713197123438" lon="115.10823089151853"><ele>60.0</ele><time>2026-04-13T03:07:33Z</time></trkpt><trkpt lat="-30.14689817279091" lon="115.10831576687956"><ele>61.0</ele><time>2026-04-13T03:07:34Z</time></trkpt><trkpt lat="-30.146677428720785" lon="115.10840135776301"><ele>60.0</ele><time>2026-04-13T03:07:35Z</time></trkpt><trkpt lat="-30.1464647764658" lon="115.10846567267855"><ele>59.0</ele><time>2026-04-13T03:07:36Z</time></trkpt><trkpt lat="-30.1462461493034" lon="115.10855644830774"><ele>59.0</ele><time>2026-04-13T03:07:37Z</time></trkpt><trkpt lat="-30.146033224899554" lon="115.10866555671646"><ele>59.0</ele><time>2026-04-13T03:07:38Z</time></trkpt><trkpt lat="-30.145818522627636" lon="115.10874998914602"><ele>59.66666666666667</ele><time>2026-04-13T03:07:39Z</time></trkpt><trkpt lat="-30.145620078042565" lon="115.10883564261545"><ele>60.33333333333333</ele><time>2026-04-13T03:07:40Z</time></trkpt><trkpt lat="-30.145422041858833" lon="115.10891277418646"><ele>61.0</ele><time>2026-04-13T03:07:41Z</time></trkpt><trkpt lat="-30.145255831646175" lon="115.1090286061758"><ele>61.666666666666664</ele><time>2026-04-13T03:07:42Z</time></trkpt><trkpt lat="-30.145085079923522" lon="115.1091431058952"><ele>62.33333333333333</ele><time>2026-04-13T03:07:43Z</time></trkpt><trkpt lat="-30.144916935577868" lon="115.10925610498492"><ele>63.0</ele><time>2026-04-13T03:07:44Z</time></trkpt><trkpt lat="-30.144757009941962" lon="115.10937286068095"><ele>63.0</ele><time>2026-04-13T03:07:45Z</time></trkpt><trkpt lat="-30.14460280643191" lon="115.10950592790239"><ele>63.0</ele><time>2026-04-13T03:07:46Z</time></trkpt><trkpt lat="-30.14445614349311" lon="115.10965722018297"><ele>63.0</ele><time>2026-04-13T03:07:47Z</time></trkpt><trkpt lat="-30.14430775618676" lon="115.10982314065957"><ele>63.0</ele><time>2026-04-13T03:07:48Z</time></trkpt><trkpt lat="-30.144159931094944" lon="115.11000356454554"><ele>63.0</ele><time>2026-04-13T03:07:49Z</time></trkpt><trkpt lat="-30.144007890736393" lon="115.11019340594895"><ele>63.0</ele><time>2026-04-13T03:07:50Z</time></trkpt><trkpt lat="-30.143862876483194" lon="115.11039664754796"><ele>63.0</ele><time>2026-04-13T03:07:51Z</time></trkpt><trkpt lat="-30.14371823771717" lon="115.11061974211498"><ele>63.0</ele><time>2026-04-13T03:07:52Z</time></trkpt><trkpt lat="-30.143570423845688" lon="115.11085517380066"><ele>64.0</ele><time>2026-04-13T03:07:53Z</time></trkpt><trkpt lat="-30.14341722282838" lon="115.11109952262939"><ele>65.0</ele><time>2026-04-13T03:07:54Z</time></trkpt><trkpt lat="-30.14325524220551" lon="115.11135358467358"><ele>63.5</ele><time>2026-04-13T03:07:55Z</time></trkpt><trkpt lat="-30.14308903059891" lon="115.11161484252045"><ele>62.0</ele><time>2026-04-13T03:07:56Z</time></trkpt><trkpt lat="-30.14291690291686" lon="115.11188720310544"><ele>62.0</ele><time>2026-04-13T03:07:57Z</time></trkpt><trkpt lat="-30.142743506616295" lon="115.1121620852042"><ele>62.0</ele><time>2026-04-13T03:07:58Z</time></trkpt><trkpt lat="-30.1425707665557" lon="115.11244016311011"><ele>62.0</ele><time>2026-04-13T03:07:59Z</time></trkpt><trkpt lat="-30.142399716197495" lon="115.11271590383879"><ele>62.0</ele><time>2026-04-13T03:08:00Z</time></trkpt><trkpt lat="-30.14223405127372" lon="115.1129896332564"><ele>65.0</ele><time>2026-04-13T03:08:01Z</time></trkpt><trkpt lat="-30.142071900480673" lon="115.11326210289154"><ele>68.0</ele><time>2026-04-13T03:08:02Z</time></trkpt><trkpt lat="-30.14190983715593" lon="115.11353759238725"><ele>68.0</ele><time>2026-04-13T03:08:03Z</time></trkpt><trkpt lat="-30.141746164784784" lon="115.11381643330907"><ele>68.0</ele><time>2026-04-13T03:08:04Z</time></trkpt><trkpt lat="-30.14157979123812" lon="115.11409812141194"><ele>67.5</ele><time>2026-04-13T03:08:05Z</time></trkpt><trkpt lat="-30.14141058944155" lon="115.11437422537674"><ele>67.0</ele><time>2026-04-13T03:08:06Z</time></trkpt><trkpt lat="-30.14125228498797" lon="115.1146383853578"><ele>67.0</ele><time>2026-04-13T03:08:07Z</time></trkpt><trkpt lat="-30.141104357930665" lon="115.11489520792017"><ele>67.0</ele><time>2026-04-13T03:08:08Z</time></trkpt><trkpt lat="-30.140965873318283" lon="115.11513343171514"><ele>67.5</ele><time>2026-04-13T03:08:09Z</time></trkpt><trkpt lat="-30.14083163037572" lon="115.11536345394022"><ele>68.0</ele><time>2026-04-13T03:08:10Z</time></trkpt><trkpt lat="-30.140699900239333" lon="115.1155921243489"><ele>71.5</ele><time>2026-04-13T03:08:11Z</time></trkpt><trkpt lat="-30.140561078209707" lon="115.11582680658121"><ele>75.0</ele><time>2026-04-13T03:08:12Z</time></trkpt><trkpt lat="-30.140415007438964" lon="115.11606431897681"><ele>75.0</ele><time>2026-04-13T03:08:13Z</time></trkpt><trkpt lat="-30.14026625085227" lon="115.11630538209027"><ele>75.0</ele><time>2026-04-13T03:08:14Z</time></trkpt><trkpt lat="-30.140117003828898" lon="115.1165522353034"><ele>76.5</ele><time>2026-04-13T03:08:15Z</time></trkpt><trkpt lat="-30.139967019250903" lon="115.11680248485781"><ele>78.0</ele><time>2026-04-13T03:08:16Z</time></trkpt><trkpt lat="-30.139815531266702" lon="115.1170504855515"><ele>80.0</ele><time>2026-04-13T03:08:17Z</time></trkpt><trkpt lat="-30.139663257451836" lon="115.11729892971437"><ele>82.0</ele><time>2026-04-13T03:08:18Z</time></trkpt><trkpt lat="-30.139513097156655" lon="115.1175448166833"><ele>82.5</ele><time>2026-04-13T03:08:19Z</time></trkpt><trkpt lat="-30.139366606275217" lon="115.11778876922368"><ele>83.0</ele><time>2026-04-13T03:08:20Z</time></trkpt><trkpt lat="-30.139226499823508" lon="115.11802449743246"><ele>82.5</ele><time>2026-04-13T03:08:21Z</time></trkpt><trkpt lat="-30.139091242703778" lon="115.11825402966585"><ele>82.0</ele><time>2026-04-13T03:08:22Z</time></trkpt><trkpt lat="-30.13895857327478" lon="115.1184746356032"><ele>84.5</ele><time>2026-04-13T03:08:23Z</time></trkpt><trkpt lat="-30.138826344684766" lon="115.11869115460954"><ele>87.0</ele><time>2026-04-13T03:08:24Z</time></trkpt><trkpt lat="-30.138694678989967" lon="115.11890731075219"><ele>87.0</ele><time>2026-04-13T03:08:25Z</time></trkpt><trkpt lat="-30.138560326776428" lon="115.11913219441901"><ele>87.0</ele><time>2026-04-13T03:08:26Z</time></trkpt><trkpt lat="-30.138427069818675" lon="115.11935431414645"><ele>87.0</ele><time>2026-04-13T03:08:27Z</time></trkpt><trkpt lat="-30.13829277614285" lon="115.11957528390673"><ele>87.0</ele><time>2026-04-13T03:08:28Z</time></trkpt><trkpt lat="-30.13815943467345" lon="115.11979848694031"><ele>92.5</ele><time>2026-04-13T03:08:29Z</time></trkpt><trkpt lat="-30.138018939233987" lon="115.12003521343489"><ele>98.0</ele><time>2026-04-13T03:08:30Z</time></trkpt><trkpt lat="-30.13787768608211" lon="115.12026508476463"><ele>98.0</ele><time>2026-04-13T03:08:31Z</time></trkpt><trkpt lat="-30.137734333929302" lon="115.12050074018734"><ele>98.0</ele><time>2026-04-13T03:08:32Z</time></trkpt><trkpt lat="-30.137592780197497" lon="115.12073638484928"><ele>99.33333333333333</ele><time>2026-04-13T03:08:33Z</time></trkpt><trkpt lat="-30.13746127807251" lon="115.12095628779252"><ele>100.66666666666666</ele><time>2026-04-13T03:08:34Z</time></trkpt><trkpt lat="-30.137339752431966" lon="115.12116487099395"><ele>102.0</ele><time>2026-04-13T03:08:35Z</time></trkpt><trkpt lat="-30.137231490931033" lon="115.12134886191205"><ele>102.66666666666666</ele><time>2026-04-13T03:08:36Z</time></trkpt><trkpt lat="-30.137120689091155" lon="115.12153386959439"><ele>103.33333333333333</ele><time>2026-04-13T03:08:37Z</time></trkpt><trkpt lat="-30.137000679409407" lon="115.12172710936886"><ele>104.0</ele><time>2026-04-13T03:08:38Z</time></trkpt><trkpt lat="-30.13687537711491" lon="115.12193144024873"><ele>106.5</ele><time>2026-04-13T03:08:39Z</time></trkpt><trkpt lat="-30.13674353817424" lon="115.12214484867918"><ele>109.0</ele><time>2026-04-13T03:08:40Z</time></trkpt><trkpt lat="-30.136601848760524" lon="115.1223577033173"><ele>111.0</ele><time>2026-04-13T03:08:41Z</time></trkpt><trkpt lat="-30.136454714874656" lon="115.1225628371572"><ele>113.0</ele><time>2026-04-13T03:08:42Z</time></trkpt><trkpt lat="-30.136292300980887" lon="115.12275649536785"><ele>113.0</ele><time>2026-04-13T03:08:43Z</time></trkpt><trkpt lat="-30.136107377573374" lon="115.12293763660583"><ele>113.0</ele><time>2026-04-13T03:08:44Z</time></trkpt><trkpt lat="-30.135901082127223" lon="115.12310992497929"><ele>115.0</ele><time>2026-04-13T03:08:45Z</time></trkpt><trkpt lat="-30.135680494769254" lon="115.12326011548083"><ele>117.0</ele><time>2026-04-13T03:08:46Z</time></trkpt><trkpt lat="-30.13545086332729" lon="115.12338601028713"><ele>117.0</ele><time>2026-04-13T03:08:47Z</time></trkpt><trkpt lat="-30.135197410923407" lon="115.12348114203837"><ele>117.0</ele><time>2026-04-13T03:08:48Z</time></trkpt><trkpt lat="-30.134925056663615" lon="115.12356336574305"><ele>119.0</ele><time>2026-04-13T03:08:49Z</time></trkpt><trkpt lat="-30.13464662806458" lon="115.12362448885048"><ele>121.0</ele><time>2026-04-13T03:08:50Z</time></trkpt><trkpt lat="-30.134359561417664" lon="115.12365957071924"><ele>121.0</ele><time>2026-04-13T03:08:51Z</time></trkpt><trkpt lat="-30.13406348690872" lon="115.12367168102365"><ele>121.0</ele><time>2026-04-13T03:08:52Z</time></trkpt><trkpt lat="-30.133755446392456" lon="115.12366283873381"><ele>120.5</ele><time>2026-04-13T03:08:53Z</time></trkpt><trkpt lat="-30.133438845334265" lon="115.1236422404984"><ele>120.0</ele><time>2026-04-13T03:08:54Z</time></trkpt><trkpt lat="-30.13312257431426" lon="115.12362122699335"><ele>119.5</ele><time>2026-04-13T03:08:55Z</time></trkpt><trkpt lat="-30.132805439794932" lon="115.12360588659024"><ele>119.0</ele><time>2026-04-13T03:08:56Z</time></trkpt><trkpt lat="-30.13249438471621" lon="115.12359752453048"><ele>120.0</ele><time>2026-04-13T03:08:57Z</time></trkpt><trkpt lat="-30.13220524355873" lon="115.12358928118068"><ele>121.0</ele><time>2026-04-13T03:08:58Z</time></trkpt><trkpt lat="-30.13192743996132" lon="115.12357783334453"><ele>121.0</ele><time>2026-04-13T03:08:59Z</time></trkpt><trkpt lat="-30.131652635746505" lon="115.12356434008102"><ele>121.0</ele><time>2026-04-13T03:09:00Z</time></trkpt><trkpt lat="-30.131373778147168" lon="115.12355218936955"><ele>122.5</ele><time>2026-04-13T03:09:01Z</time></trkpt><trkpt lat="-30.13109393249465" lon="115.12354129909562"><ele>124.0</ele><time>2026-04-13T03:09:02Z</time></trkpt><trkpt lat="-30.130816876935825" lon="115.12353115235581"><ele>123.5</ele><time>2026-04-13T03:09:03Z</time></trkpt><trkpt lat="-30.130539568171976" lon="115.12351917804838"><ele>123.0</ele><time>2026-04-13T03:09:04Z</time></trkpt><trkpt lat="-30.13026151114097" lon="115.1235098961506"><ele>123.0</ele><time>2026-04-13T03:09:05Z</time></trkpt><trkpt lat="-30.129975150984382" lon="115.12350089522491"><ele>123.0</ele><time>2026-04-13T03:09:06Z</time></trkpt><trkpt lat="-30.129691215616987" lon="115.1234919551364"><ele>124.0</ele><time>2026-04-13T03:09:07Z</time></trkpt><trkpt lat="-30.12940728086908" lon="115.12348191391278"><ele>125.0</ele><time>2026-04-13T03:09:08Z</time></trkpt><trkpt lat="-30.129123654137395" lon="115.12347193181711"><ele>126.0</ele><time>2026-04-13T03:09:09Z</time></trkpt><trkpt lat="-30.128839788740162" lon="115.12346093249124"><ele>127.0</ele><time>2026-04-13T03:09:10Z</time></trkpt><trkpt lat="-30.12855925747017" lon="115.1234504179563"><ele>127.0</ele><time>2026-04-13T03:09:11Z</time></trkpt><trkpt lat="-30.12827805766886" lon="115.12343940120512"><ele>127.0</ele><time>2026-04-13T03:09:12Z</time></trkpt><trkpt lat="-30.127997164173276" lon="115.12342781060299"><ele>126.5</ele><time>2026-04-13T03:09:13Z</time></trkpt><trkpt lat="-30.127715169121867" lon="115.12341819866968"><ele>126.0</ele><time>2026-04-13T03:09:14Z</time></trkpt><trkpt lat="-30.12743317263408" lon="115.12340732078543"><ele>128.5</ele><time>2026-04-13T03:09:15Z</time></trkpt><trkpt lat="-30.127155366543935" lon="115.12339676925883"><ele>131.0</ele><time>2026-04-13T03:09:16Z</time></trkpt><trkpt lat="-30.126880206203854" lon="115.12338854486313"><ele>131.0</ele><time>2026-04-13T03:09:17Z</time></trkpt><trkpt lat="-30.12660674514117" lon="115.12337780718784"><ele>131.0</ele><time>2026-04-13T03:09:18Z</time></trkpt><trkpt lat="-30.126330213878056" lon="115.1233635230712"><ele>132.0</ele><time>2026-04-13T03:09:19Z</time></trkpt><trkpt lat="-30.126055719445414" lon="115.12335070437544"><ele>133.0</ele><time>2026-04-13T03:09:20Z</time></trkpt><trkpt lat="-30.125781787990896" lon="115.12334228945765"><ele>133.0</ele><time>2026-04-13T03:09:21Z</time></trkpt><trkpt lat="-30.125506685867055" lon="115.12333431562274"><ele>133.0</ele><time>2026-04-13T03:09:22Z</time></trkpt><trkpt lat="-30.125226146997544" lon="115.12332585242876"><ele>133.0</ele><time>2026-04-13T03:09:23Z</time></trkpt><trkpt lat="-30.124957235055426" lon="115.12331476642451"><ele>133.0</ele><time>2026-04-13T03:09:24Z</time></trkpt><trkpt lat="-30.124678535319415" lon="115.12330347462283"><ele>134.0</ele><time>2026-04-13T03:09:25Z</time></trkpt><trkpt lat="-30.124402678089748" lon="115.12329421456636"><ele>135.0</ele><time>2026-04-13T03:09:26Z</time></trkpt><trkpt lat="-30.124130077674945" lon="115.12328604371103"><ele>134.5</ele><time>2026-04-13T03:09:27Z</time></trkpt><trkpt lat="-30.123853700408663" lon="115.123273806752"><ele>134.0</ele><time>2026-04-13T03:09:28Z</time></trkpt><trkpt lat="-30.123565194233493" lon="115.12325969218396"><ele>134.0</ele><time>2026-04-13T03:09:29Z</time></trkpt><trkpt lat="-30.12327506975772" lon="115.12324571266544"><ele>134.0</ele><time>2026-04-13T03:09:30Z</time></trkpt><trkpt lat="-30.12298026123584" lon="115.12323587386508"><ele>134.5</ele><time>2026-04-13T03:09:31Z</time></trkpt><trkpt lat="-30.122682561395308" lon="115.12322333614331"><ele>135.0</ele><time>2026-04-13T03:09:32Z</time></trkpt><trkpt lat="-30.12237432518047" lon="115.1232130101336"><ele>135.0</ele><time>2026-04-13T03:09:33Z</time></trkpt><trkpt lat="-30.122069222211866" lon="115.12320145575671"><ele>135.0</ele><time>2026-04-13T03:09:34Z</time></trkpt><trkpt lat="-30.121760310975574" lon="115.12319692226417"><ele>135.5</ele><time>2026-04-13T03:09:35Z</time></trkpt><trkpt lat="-30.121444411611108" lon="115.12318771842313"><ele>136.0</ele><time>2026-04-13T03:09:36Z</time></trkpt><trkpt lat="-30.121124016655898" lon="115.12317184417303"><ele>136.0</ele><time>2026-04-13T03:09:37Z</time></trkpt><trkpt lat="-30.120806190321787" lon="115.12315686815889"><ele>136.0</ele><time>2026-04-13T03:09:38Z</time></trkpt><trkpt lat="-30.120494017500636" lon="115.12314664304444"><ele>136.5</ele><time>2026-04-13T03:09:39Z</time></trkpt><trkpt lat="-30.120188773867078" lon="115.12313588739501"><ele>137.0</ele><time>2026-04-13T03:09:40Z</time></trkpt><trkpt lat="-30.11987893261838" lon="115.12311906056087"><ele>139.5</ele><time>2026-04-13T03:09:41Z</time></trkpt><trkpt lat="-30.119568924173766" lon="115.12310392259468"><ele>142.0</ele><time>2026-04-13T03:09:42Z</time></trkpt><trkpt lat="-30.11925720548484" lon="115.12309215094854"><ele>144.0</ele><time>2026-04-13T03:09:43Z</time></trkpt><trkpt lat="-30.118951458565697" lon="115.12307966136365"><ele>146.0</ele><time>2026-04-13T03:09:44Z</time></trkpt><trkpt lat="-30.11864334886007" lon="115.12306871053453"><ele>146.0</ele><time>2026-04-13T03:09:45Z</time></trkpt><trkpt lat="-30.118335506220554" lon="115.1230591502194"><ele>146.0</ele><time>2026-04-13T03:09:46Z</time></trkpt><trkpt lat="-30.11803171251173" lon="115.12304589879655"><ele>146.5</ele><time>2026-04-13T03:09:47Z</time></trkpt><trkpt lat="-30.117730502534247" lon="115.12303252429975"><ele>147.0</ele><time>2026-04-13T03:09:48Z</time></trkpt><trkpt lat="-30.1174331992632" lon="115.12301819563014"><ele>146.0</ele><time>2026-04-13T03:09:49Z</time></trkpt><trkpt lat="-30.11713965573636" lon="115.1230054849489"><ele>145.0</ele><time>2026-04-13T03:09:50Z</time></trkpt><trkpt lat="-30.11684681119363" lon="115.12299325483858"><ele>150.0</ele><time>2026-04-13T03:09:51Z</time></trkpt><trkpt lat="-30.116556554211257" lon="115.1229860723211"><ele>155.0</ele><time>2026-04-13T03:09:52Z</time></trkpt><trkpt lat="-30.11626506530257" lon="115.12295346329661"><ele>155.0</ele><time>2026-04-13T03:09:53Z</time></trkpt><trkpt lat="-30.11597338742667" lon="115.12294083706199"><ele>155.0</ele><time>2026-04-13T03:09:54Z</time></trkpt><trkpt lat="-30.11568423671792" lon="115.12295247813822"><ele>158.0</ele><time>2026-04-13T03:09:55Z</time></trkpt><trkpt lat="-30.115396228385883" lon="115.12294175574266"><ele>161.0</ele><time>2026-04-13T03:09:56Z</time></trkpt><trkpt lat="-30.115112688917794" lon="115.12293532621389"><ele>165.5</ele><time>2026-04-13T03:09:57Z</time></trkpt><trkpt lat="-30.11483401548625" lon="115.12292637990235"><ele>170.0</ele><time>2026-04-13T03:09:58Z</time></trkpt><trkpt lat="-30.114562482628177" lon="115.12291587930133"><ele>170.0</ele><time>2026-04-13T03:09:59Z</time></trkpt><trkpt lat="-30.114297421842462" lon="115.12290358328072"><ele>170.0</ele><time>2026-04-13T03:10:00Z</time></trkpt><trkpt lat="-30.114032665774804" lon="115.12289408609861"><ele>172.5</ele><time>2026-04-13T03:10:01Z</time></trkpt><trkpt lat="-30.1137934249708" lon="115.12289228015959"><ele>175.0</ele><time>2026-04-13T03:10:02Z</time></trkpt><trkpt lat="-30.113531990112357" lon="115.12288186690215"><ele>175.0</ele><time>2026-04-13T03:10:03Z</time></trkpt><trkpt lat="-30.113280260755566" lon="115.12287015593324"><ele>175.0</ele><time>2026-04-13T03:10:04Z</time></trkpt><trkpt lat="-30.113024655262425" lon="115.12285680941903"><ele>175.0</ele><time>2026-04-13T03:10:05Z</time></trkpt><trkpt lat="-30.11275681843591" lon="115.12284463860351"><ele>175.0</ele><time>2026-04-13T03:10:06Z</time></trkpt><trkpt lat="-30.112476766783146" lon="115.1228388234318"><ele>176.5</ele><time>2026-04-13T03:10:07Z</time></trkpt><trkpt lat="-30.112188627903304" lon="115.12283307249153"><ele>178.0</ele><time>2026-04-13T03:10:08Z</time></trkpt><trkpt lat="-30.111893965629353" lon="115.12282308515938"><ele>178.0</ele><time>2026-04-13T03:10:09Z</time></trkpt><trkpt lat="-30.11160274589368" lon="115.12280616029106"><ele>178.0</ele><time>2026-04-13T03:10:10Z</time></trkpt><trkpt lat="-30.11131239500332" lon="115.1227833432893"><ele>179.5</ele><time>2026-04-13T03:10:11Z</time></trkpt><trkpt lat="-30.111028413585704" lon="115.12276339066202"><ele>181.0</ele><time>2026-04-13T03:10:12Z</time></trkpt><trkpt lat="-30.110748912401487" lon="115.12274309316096"><ele>180.5</ele><time>2026-04-13T03:10:13Z</time></trkpt><trkpt lat="-30.11047364480519" lon="115.12272957238612"><ele>180.0</ele><time>2026-04-13T03:10:14Z</time></trkpt><trkpt lat="-30.11019918463501" lon="115.12271945600241"><ele>180.0</ele><time>2026-04-13T03:10:15Z</time></trkpt><trkpt lat="-30.109926188194418" lon="115.1227103457657"><ele>180.0</ele><time>2026-04-13T03:10:16Z</time></trkpt><trkpt lat="-30.10964713938694" lon="115.12269204727657"><ele>179.0</ele><time>2026-04-13T03:10:17Z</time></trkpt><trkpt lat="-30.1093630458338" lon="115.12267587783961"><ele>178.0</ele><time>2026-04-13T03:10:18Z</time></trkpt><trkpt lat="-30.109068856518793" lon="115.12265887598086"><ele>177.5</ele><time>2026-04-13T03:10:19Z</time></trkpt><trkpt lat="-30.108763692981274" lon="115.12264095143034"><ele>177.0</ele><time>2026-04-13T03:10:20Z</time></trkpt><trkpt lat="-30.108451924168875" lon="115.12261993236082"><ele>175.5</ele><time>2026-04-13T03:10:21Z</time></trkpt><trkpt lat="-30.10814302642487" lon="115.12259881025486"><ele>174.0</ele><time>2026-04-13T03:10:22Z</time></trkpt><trkpt lat="-30.107843258561466" lon="115.12258072392349"><ele>174.0</ele><time>2026-04-13T03:10:23Z</time></trkpt><trkpt lat="-30.10754529115987" lon="115.12256157977617"><ele>174.0</ele><time>2026-04-13T03:10:24Z</time></trkpt><trkpt lat="-30.107247208207138" lon="115.12254324581983"><ele>175.0</ele><time>2026-04-13T03:10:25Z</time></trkpt><trkpt lat="-30.106945808186328" lon="115.122525680425"><ele>176.0</ele><time>2026-04-13T03:10:26Z</time></trkpt><trkpt lat="-30.10663795286175" lon="115.12250784776045"><ele>178.0</ele><time>2026-04-13T03:10:27Z</time></trkpt><trkpt lat="-30.106329881562043" lon="115.12248780698934"><ele>180.0</ele><time>2026-04-13T03:10:28Z</time></trkpt><trkpt lat="-30.106027951768223" lon="115.12246962414537"><ele>180.5</ele><time>2026-04-13T03:10:29Z</time></trkpt><trkpt lat="-30.10573006946033" lon="115.12245060406218"><ele>181.0</ele><time>2026-04-13T03:10:30Z</time></trkpt><trkpt lat="-30.1054337882821" lon="115.12243337284102"><ele>181.0</ele><time>2026-04-13T03:10:31Z</time></trkpt><trkpt lat="-30.105140110463843" lon="115.12241825771534"><ele>181.0</ele><time>2026-04-13T03:10:32Z</time></trkpt><trkpt lat="-30.104847290633405" lon="115.12240252520313"><ele>185.5</ele><time>2026-04-13T03:10:33Z</time></trkpt><trkpt lat="-30.1045579519297" lon="115.12238682118763"><ele>190.0</ele><time>2026-04-13T03:10:34Z</time></trkpt><trkpt lat="-30.104265481768977" lon="115.12237047240829"><ele>196.5</ele><time>2026-04-13T03:10:35Z</time></trkpt><trkpt lat="-30.10397173668514" lon="115.12235592814304"><ele>203.0</ele><time>2026-04-13T03:10:36Z</time></trkpt><trkpt lat="-30.10368275431238" lon="115.12234257546912"><ele>203.0</ele><time>2026-04-13T03:10:37Z</time></trkpt><trkpt lat="-30.103391641635017" lon="115.12233201790204"><ele>203.0</ele><time>2026-04-13T03:10:38Z</time></trkpt><trkpt lat="-30.1031057160168" lon="115.1223189491357"><ele>199.0</ele><time>2026-04-13T03:10:39Z</time></trkpt><trkpt lat="-30.102816379385093" lon="115.12230362365284"><ele>195.0</ele><time>2026-04-13T03:10:40Z</time></trkpt><trkpt lat="-30.102526800569333" lon="115.12228854587784"><ele>188.5</ele><time>2026-04-13T03:10:41Z</time></trkpt><trkpt lat="-30.1022347621945" lon="115.12227402478209"><ele>182.0</ele><time>2026-04-13T03:10:42Z</time></trkpt><trkpt lat="-30.101942489728565" lon="115.12226439982214"><ele>182.0</ele><time>2026-04-13T03:10:43Z</time></trkpt><trkpt lat="-30.10165039197914" lon="115.12225555583906"><ele>182.0</ele><time>2026-04-13T03:10:44Z</time></trkpt><trkpt lat="-30.10135940821559" lon="115.12224611545875"><ele>179.0</ele><time>2026-04-13T03:10:45Z</time></trkpt><trkpt lat="-30.101071293708504" lon="115.12223422948007"><ele>176.0</ele><time>2026-04-13T03:10:46Z</time></trkpt><trkpt lat="-30.100784420675282" lon="115.12222172021612"><ele>176.0</ele><time>2026-04-13T03:10:47Z</time></trkpt><trkpt lat="-30.100495645807374" lon="115.12220892489042"><ele>176.0</ele><time>2026-04-13T03:10:48Z</time></trkpt><trkpt lat="-30.10020267049338" lon="115.12219623072387"><ele>176.5</ele><time>2026-04-13T03:10:49Z</time></trkpt><trkpt lat="-30.099909786171168" lon="115.1221814786106"><ele>177.0</ele><time>2026-04-13T03:10:50Z</time></trkpt><trkpt lat="-30.099615392439706" lon="115.12216794759073"><ele>177.0</ele><time>2026-04-13T03:10:51Z</time></trkpt><trkpt lat="-30.09932026440554" lon="115.12215693782089"><ele>177.0</ele><time>2026-04-13T03:10:52Z</time></trkpt><trkpt lat="-30.099019531485954" lon="115.12214702061748"><ele>176.5</ele><time>2026-04-13T03:10:53Z</time></trkpt><trkpt lat="-30.098712745211717" lon="115.1221350888025"><ele>176.0</ele><time>2026-04-13T03:10:54Z</time></trkpt><trkpt lat="-30.098409571383968" lon="115.12211910370938"><ele>175.0</ele><time>2026-04-13T03:10:55Z</time></trkpt><trkpt lat="-30.098112068933453" lon="115.12210120985647"><ele>174.0</ele><time>2026-04-13T03:10:56Z</time></trkpt><trkpt lat="-30.097817362667517" lon="115.12208639293165"><ele>174.0</ele><time>2026-04-13T03:10:57Z</time></trkpt><trkpt lat="-30.097513847804514" lon="115.12207180614851"><ele>174.0</ele><time>2026-04-13T03:10:58Z</time></trkpt><trkpt lat="-30.097206723205115" lon="115.12205421808595"><ele>171.5</ele><time>2026-04-13T03:10:59Z</time></trkpt><trkpt lat="-30.096898714074488" lon="115.12203622086794"><ele>169.0</ele><time>2026-04-13T03:11:00Z</time></trkpt><trkpt lat="-30.096596062722643" lon="115.12202111321898"><ele>165.0</ele><time>2026-04-13T03:11:01Z</time></trkpt><trkpt lat="-30.09629627214164" lon="115.12200558163475"><ele>161.0</ele><time>2026-04-13T03:11:02Z</time></trkpt><trkpt lat="-30.096000249259067" lon="115.12198983882195"><ele>160.5</ele><time>2026-04-13T03:11:03Z</time></trkpt><trkpt lat="-30.095715482142456" lon="115.12197449233456"><ele>160.0</ele><time>2026-04-13T03:11:04Z</time></trkpt><trkpt lat="-30.095434048405373" lon="115.12196062476265"><ele>160.0</ele><time>2026-04-13T03:11:05Z</time></trkpt><trkpt lat="-30.095145830778495" lon="115.1219439802189"><ele>160.0</ele><time>2026-04-13T03:11:06Z</time></trkpt><trkpt lat="-30.094851949682365" lon="115.12192823961458"><ele>160.0</ele><time>2026-04-13T03:11:07Z</time></trkpt><trkpt lat="-30.094553229867675" lon="115.12191112227842"><ele>160.0</ele><time>2026-04-13T03:11:08Z</time></trkpt><trkpt lat="-30.094255106900857" lon="115.12189346064181"><ele>160.0</ele><time>2026-04-13T03:11:09Z</time></trkpt><trkpt lat="-30.093961340433626" lon="115.12187228111952"><ele>160.0</ele><time>2026-04-13T03:11:10Z</time></trkpt><trkpt lat="-30.0936693768344" lon="115.12185250462952"><ele>160.0</ele><time>2026-04-13T03:11:11Z</time></trkpt><trkpt lat="-30.093376072550196" lon="115.12183591301958"><ele>160.0</ele><time>2026-04-13T03:11:12Z</time></trkpt><trkpt lat="-30.093084059050355" lon="115.12182021738532"><ele>159.0</ele><time>2026-04-13T03:11:13Z</time></trkpt><trkpt lat="-30.092790370155207" lon="115.12180793183592"><ele>158.0</ele><time>2026-04-13T03:11:14Z</time></trkpt><trkpt lat="-30.09249795607107" lon="115.12179454559053"><ele>154.5</ele><time>2026-04-13T03:11:15Z</time></trkpt><trkpt lat="-30.09220295510031" lon="115.12175793079837"><ele>151.0</ele><time>2026-04-13T03:11:16Z</time></trkpt><trkpt lat="-30.091903723123654" lon="115.12173989752797"><ele>151.0</ele><time>2026-04-13T03:11:17Z</time></trkpt><trkpt lat="-30.09160360215206" lon="115.12173944777314"><ele>151.0</ele><time>2026-04-13T03:11:18Z</time></trkpt><trkpt lat="-30.09130693637249" lon="115.12171877848573"><ele>148.5</ele><time>2026-04-13T03:11:19Z</time></trkpt><trkpt lat="-30.09100965977934" lon="115.12169742132964"><ele>146.0</ele><time>2026-04-13T03:11:20Z</time></trkpt><trkpt lat="-30.09071015467024" lon="115.12167966351733"><ele>144.0</ele><time>2026-04-13T03:11:21Z</time></trkpt><trkpt lat="-30.09041338477422" lon="115.12166135793193"><ele>142.0</ele><time>2026-04-13T03:11:22Z</time></trkpt><trkpt lat="-30.090118735233222" lon="115.12164337599"><ele>141.5</ele><time>2026-04-13T03:11:23Z</time></trkpt><trkpt lat="-30.089826456574972" lon="115.12162385811395"><ele>141.0</ele><time>2026-04-13T03:11:24Z</time></trkpt><trkpt lat="-30.08953505511553" lon="115.12160723861074"><ele>141.0</ele><time>2026-04-13T03:11:25Z</time></trkpt><trkpt lat="-30.089247792873046" lon="115.1215907459066"><ele>141.0</ele><time>2026-04-13T03:11:26Z</time></trkpt><trkpt lat="-30.088959770274624" lon="115.1215749428542"><ele>141.5</ele><time>2026-04-13T03:11:27Z</time></trkpt><trkpt lat="-30.088669954514508" lon="115.12155781926802"><ele>142.0</ele><time>2026-04-13T03:11:28Z</time></trkpt><trkpt lat="-30.088377573734885" lon="115.12153851357776"><ele>141.5</ele><time>2026-04-13T03:11:29Z</time></trkpt><trkpt lat="-30.08808479258834" lon="115.12151917856173"><ele>141.0</ele><time>2026-04-13T03:11:30Z</time></trkpt><trkpt lat="-30.08779539459307" lon="115.12149951299978"><ele>141.0</ele><time>2026-04-13T03:11:31Z</time></trkpt><trkpt lat="-30.08750671897907" lon="115.1214800907538"><ele>141.0</ele><time>2026-04-13T03:11:32Z</time></trkpt><trkpt lat="-30.087222999658426" lon="115.12146305316242"><ele>141.0</ele><time>2026-04-13T03:11:33Z</time></trkpt><trkpt lat="-30.08694696996729" lon="115.12144572980797"><ele>141.0</ele><time>2026-04-13T03:11:34Z</time></trkpt><trkpt lat="-30.086683006700632" lon="115.12143513746534"><ele>141.0</ele><time>2026-04-13T03:11:35Z</time></trkpt><trkpt lat="-30.086415629792924" lon="115.12142101029582"><ele>141.0</ele><time>2026-04-13T03:11:36Z</time></trkpt><trkpt lat="-30.086151345255956" lon="115.12140292706867"><ele>141.0</ele><time>2026-04-13T03:11:37Z</time></trkpt><trkpt lat="-30.08587435881375" lon="115.12138595149932"><ele>141.0</ele><time>2026-04-13T03:11:38Z</time></trkpt><trkpt lat="-30.085596013680927" lon="115.12137189262785"><ele>141.5</ele><time>2026-04-13T03:11:39Z</time></trkpt><trkpt lat="-30.08531933937328" lon="115.1213606817067"><ele>142.0</ele><time>2026-04-13T03:11:40Z</time></trkpt><trkpt lat="-30.085045640294172" lon="115.1213466045984"><ele>141.5</ele><time>2026-04-13T03:11:41Z</time></trkpt><trkpt lat="-30.084775485482805" lon="115.12132987016355"><ele>141.0</ele><time>2026-04-13T03:11:42Z</time></trkpt><trkpt lat="-30.08450078177837" lon="115.12131555189195"><ele>141.0</ele><time>2026-04-13T03:11:43Z</time></trkpt><trkpt lat="-30.084220025661693" lon="115.12129997598116"><ele>141.0</ele><time>2026-04-13T03:11:44Z</time></trkpt><trkpt lat="-30.08394171530027" lon="115.12128189399847"><ele>142.0</ele><time>2026-04-13T03:11:45Z</time></trkpt><trkpt lat="-30.083671394426894" lon="115.12126407429814"><ele>143.0</ele><time>2026-04-13T03:11:46Z</time></trkpt><trkpt lat="-30.08339713665457" lon="115.12124676184933"><ele>141.0</ele><time>2026-04-13T03:11:47Z</time></trkpt><trkpt lat="-30.08312425304282" lon="115.12123281690087"><ele>139.0</ele><time>2026-04-13T03:11:48Z</time></trkpt><trkpt lat="-30.082852143253206" lon="115.12121844821185"><ele>139.0</ele><time>2026-04-13T03:11:49Z</time></trkpt><trkpt lat="-30.082579881616255" lon="115.12120185119888"><ele>139.0</ele><time>2026-04-13T03:11:50Z</time></trkpt><trkpt lat="-30.0823056668076" lon="115.12118498853559"><ele>139.0</ele><time>2026-04-13T03:11:51Z</time></trkpt><trkpt lat="-30.082028115866812" lon="115.12114953929509"><ele>139.0</ele><time>2026-04-13T03:11:52Z</time></trkpt><trkpt lat="-30.081739109655697" lon="115.12113267242006"><ele>138.0</ele><time>2026-04-13T03:11:53Z</time></trkpt><trkpt lat="-30.081448560106914" lon="115.12111571547396"><ele>137.0</ele><time>2026-04-13T03:11:54Z</time></trkpt><trkpt lat="-30.08115688947453" lon="115.12109870997612"><ele>137.0</ele><time>2026-04-13T03:11:55Z</time></trkpt><trkpt lat="-30.08086676808192" lon="115.12108186615005"><ele>137.0</ele><time>2026-04-13T03:11:56Z</time></trkpt><trkpt lat="-30.080580938056617" lon="115.12106507949728"><ele>136.0</ele><time>2026-04-13T03:11:57Z</time></trkpt><trkpt lat="-30.08029363179737" lon="115.12104924446396"><ele>135.0</ele><time>2026-04-13T03:11:58Z</time></trkpt><trkpt lat="-30.080005574894038" lon="115.12103299761361"><ele>135.5</ele><time>2026-04-13T03:11:59Z</time></trkpt><trkpt lat="-30.079713740777404" lon="115.12103533026438"><ele>136.0</ele><time>2026-04-13T03:12:00Z</time></trkpt><trkpt lat="-30.079422948769924" lon="115.12101507364402"><ele>136.0</ele><time>2026-04-13T03:12:01Z</time></trkpt><trkpt lat="-30.079136378783424" lon="115.12099873555393"><ele>136.0</ele><time>2026-04-13T03:12:02Z</time></trkpt><trkpt lat="-30.078852314473465" lon="115.12098254747089"><ele>133.0</ele><time>2026-04-13T03:12:03Z</time></trkpt><trkpt lat="-30.078573300144924" lon="115.12096791544249"><ele>130.0</ele><time>2026-04-13T03:12:04Z</time></trkpt><trkpt lat="-30.078293834847564" lon="115.12095249256717"><ele>131.0</ele><time>2026-04-13T03:12:05Z</time></trkpt><trkpt lat="-30.07801575094238" lon="115.12093929730557"><ele>132.0</ele><time>2026-04-13T03:12:06Z</time></trkpt><trkpt lat="-30.077734736106876" lon="115.12092317561924"><ele>132.0</ele><time>2026-04-13T03:12:07Z</time></trkpt><trkpt lat="-30.07745193247863" lon="115.12090617401093"><ele>132.0</ele><time>2026-04-13T03:12:08Z</time></trkpt><trkpt lat="-30.077163196884207" lon="115.12089189940794"><ele>131.5</ele><time>2026-04-13T03:12:09Z</time></trkpt><trkpt lat="-30.076872275088263" lon="115.12087538952764"><ele>131.0</ele><time>2026-04-13T03:12:10Z</time></trkpt><trkpt lat="-30.076582468623624" lon="115.12085995635425"><ele>131.0</ele><time>2026-04-13T03:12:11Z</time></trkpt><trkpt lat="-30.07629453407527" lon="115.12084504739505"><ele>131.0</ele><time>2026-04-13T03:12:12Z</time></trkpt><trkpt lat="-30.07600657226202" lon="115.12082892978255"><ele>128.5</ele><time>2026-04-13T03:12:13Z</time></trkpt><trkpt lat="-30.07572094897328" lon="115.12081400651688"><ele>126.0</ele><time>2026-04-13T03:12:14Z</time></trkpt><trkpt lat="-30.07543211123323" lon="115.12079963865804"><ele>126.0</ele><time>2026-04-13T03:12:15Z</time></trkpt><trkpt lat="-30.075141080577545" lon="115.12078383476276"><ele>126.0</ele><time>2026-04-13T03:12:16Z</time></trkpt><trkpt lat="-30.07484775510861" lon="115.12076754768675"><ele>125.5</ele><time>2026-04-13T03:12:17Z</time></trkpt><trkpt lat="-30.074557095775372" lon="115.12075139939114"><ele>125.0</ele><time>2026-04-13T03:12:18Z</time></trkpt><trkpt lat="-30.074262632387207" lon="115.12073693314088"><ele>124.0</ele><time>2026-04-13T03:12:19Z</time></trkpt><trkpt lat="-30.073969274215504" lon="115.12072315795429"><ele>123.0</ele><time>2026-04-13T03:12:20Z</time></trkpt><trkpt lat="-30.073676368328275" lon="115.1207064431215"><ele>123.0</ele><time>2026-04-13T03:12:21Z</time></trkpt><trkpt lat="-30.073380672132124" lon="115.12068839483064"><ele>123.0</ele><time>2026-04-13T03:12:22Z</time></trkpt><trkpt lat="-30.073086655585723" lon="115.12067309415504"><ele>122.0</ele><time>2026-04-13T03:12:23Z</time></trkpt><trkpt lat="-30.07279456916706" lon="115.12065591620642"><ele>121.0</ele><time>2026-04-13T03:12:24Z</time></trkpt><trkpt lat="-30.07250451474216" lon="115.12063777175665"><ele>118.0</ele><time>2026-04-13T03:12:25Z</time></trkpt><trkpt lat="-30.072215595164327" lon="115.12062351869957"><ele>115.0</ele><time>2026-04-13T03:12:26Z</time></trkpt><trkpt lat="-30.07192653515183" lon="115.12060812898055"><ele>115.0</ele><time>2026-04-13T03:12:27Z</time></trkpt><trkpt lat="-30.071638606011078" lon="115.12059494506353"><ele>115.0</ele><time>2026-04-13T03:12:28Z</time></trkpt><trkpt lat="-30.071350651357243" lon="115.12057979639172"><ele>115.5</ele><time>2026-04-13T03:12:29Z</time></trkpt><trkpt lat="-30.071059169424053" lon="115.12056289894473"><ele>116.0</ele><time>2026-04-13T03:12:30Z</time></trkpt><trkpt lat="-30.07076210202744" lon="115.12054746532809"><ele>116.0</ele><time>2026-04-13T03:12:31Z</time></trkpt><trkpt lat="-30.070460562725188" lon="115.12053295681892"><ele>116.0</ele><time>2026-04-13T03:12:32Z</time></trkpt><trkpt lat="-30.070162598610743" lon="115.12051901968361"><ele>116.5</ele><time>2026-04-13T03:12:33Z</time></trkpt><trkpt lat="-30.069868778472454" lon="115.12050204049343"><ele>117.0</ele><time>2026-04-13T03:12:34Z</time></trkpt><trkpt lat="-30.069579261633557" lon="115.12048330951737"><ele>117.0</ele><time>2026-04-13T03:12:35Z</time></trkpt><trkpt lat="-30.06928777656365" lon="115.12046577860029"><ele>117.0</ele><time>2026-04-13T03:12:36Z</time></trkpt><trkpt lat="-30.068997919855285" lon="115.12044772886253"><ele>115.5</ele><time>2026-04-13T03:12:37Z</time></trkpt><trkpt lat="-30.068710538529313" lon="115.12043119589337"><ele>114.0</ele><time>2026-04-13T03:12:38Z</time></trkpt><trkpt lat="-30.068416830621565" lon="115.12041533699954"><ele>117.5</ele><time>2026-04-13T03:12:39Z</time></trkpt><trkpt lat="-30.068121257335" lon="115.12039913697322"><ele>121.0</ele><time>2026-04-13T03:12:40Z</time></trkpt><trkpt lat="-30.067830513686317" lon="115.12038109780337"><ele>121.0</ele><time>2026-04-13T03:12:41Z</time></trkpt><trkpt lat="-30.067541779322365" lon="115.12036496916478"><ele>121.0</ele><time>2026-04-13T03:12:42Z</time></trkpt><trkpt lat="-30.067262810847442" lon="115.12035207206225"><ele>121.5</ele><time>2026-04-13T03:12:43Z</time></trkpt><trkpt lat="-30.066999634378785" lon="115.12034117498851"><ele>122.0</ele><time>2026-04-13T03:12:44Z</time></trkpt><trkpt lat="-30.06676812367399" lon="115.12033514877334"><ele>122.33333333333333</ele><time>2026-04-13T03:12:45Z</time></trkpt><trkpt lat="-30.066573819924415" lon="115.1203286680345"><ele>122.66666666666666</ele><time>2026-04-13T03:12:46Z</time></trkpt><trkpt lat="-30.066423833475017" lon="115.1203238839709"><ele>123.0</ele><time>2026-04-13T03:12:47Z</time></trkpt><trkpt lat="-30.06631133592951" lon="115.12031993168884"><ele>123.0</ele><time>2026-04-13T03:12:48Z</time></trkpt><trkpt lat="-30.066236242878784" lon="115.1203155002602"><ele>123.0</ele><time>2026-04-13T03:12:49Z</time></trkpt><trkpt lat="-30.066137640351116" lon="115.12030996433938"><ele>123.0</ele><time>2026-04-13T03:12:50Z</time></trkpt><trkpt lat="-30.066007086513697" lon="115.1203006853634"><ele>123.0</ele><time>2026-04-13T03:12:51Z</time></trkpt><trkpt lat="-30.06584475496437" lon="115.12029190469266"><ele>123.66666666666666</ele><time>2026-04-13T03:12:52Z</time></trkpt><trkpt lat="-30.06566671745588" lon="115.12028998048027"><ele>124.33333333333333</ele><time>2026-04-13T03:12:53Z</time></trkpt><trkpt lat="-30.065467206272153" lon="115.12028925021829"><ele>125.0</ele><time>2026-04-13T03:12:54Z</time></trkpt><trkpt lat="-30.065250279596757" lon="115.12028416603331"><ele>125.0</ele><time>2026-04-13T03:12:55Z</time></trkpt><trkpt lat="-30.065016422838166" lon="115.12027406492503"><ele>125.0</ele><time>2026-04-13T03:12:56Z</time></trkpt><trkpt lat="-30.06477694537911" lon="115.12025880781871"><ele>124.5</ele><time>2026-04-13T03:12:57Z</time></trkpt><trkpt lat="-30.064528238907062" lon="115.12024131798285"><ele>124.0</ele><time>2026-04-13T03:12:58Z</time></trkpt><trkpt lat="-30.064275296909297" lon="115.12022252535886"><ele>126.5</ele><time>2026-04-13T03:12:59Z</time></trkpt><trkpt lat="-30.06402311525849" lon="115.1202041618768"><ele>129.0</ele><time>2026-04-13T03:13:00Z</time></trkpt><trkpt lat="-30.063761181392046" lon="115.12019361875467"><ele>129.0</ele><time>2026-04-13T03:13:01Z</time></trkpt><trkpt lat="-30.063489470138926" lon="115.12018176300738"><ele>129.0</ele><time>2026-04-13T03:13:02Z</time></trkpt><trkpt lat="-30.063210350465372" lon="115.12016703306394"><ele>127.0</ele><time>2026-04-13T03:13:03Z</time></trkpt><trkpt lat="-30.06292488380764" lon="115.1201488073773"><ele>125.0</ele><time>2026-04-13T03:13:04Z</time></trkpt><trkpt lat="-30.062656373556695" lon="115.12012668468236"><ele>125.5</ele><time>2026-04-13T03:13:05Z</time></trkpt><trkpt lat="-30.06238843186974" lon="115.12010613859944"><ele>126.0</ele><time>2026-04-13T03:13:06Z</time></trkpt><trkpt lat="-30.062119685956592" lon="115.12008800680023"><ele>126.0</ele><time>2026-04-13T03:13:07Z</time></trkpt><trkpt lat="-30.061853111422003" lon="115.12007259002202"><ele>126.0</ele><time>2026-04-13T03:13:08Z</time></trkpt><trkpt lat="-30.06158506263672" lon="115.12005827453604"><ele>127.5</ele><time>2026-04-13T03:13:09Z</time></trkpt><trkpt lat="-30.061316858623968" lon="115.12004212303778"><ele>129.0</ele><time>2026-04-13T03:13:10Z</time></trkpt><trkpt lat="-30.06104867634597" lon="115.12002522910286"><ele>130.0</ele><time>2026-04-13T03:13:11Z</time></trkpt><trkpt lat="-30.06078135616058" lon="115.12000929869151"><ele>131.0</ele><time>2026-04-13T03:13:12Z</time></trkpt><trkpt lat="-30.060507441721274" lon="115.1199930354088"><ele>131.0</ele><time>2026-04-13T03:13:13Z</time></trkpt><trkpt lat="-30.06023291124779" lon="115.1199768314532"><ele>131.0</ele><time>2026-04-13T03:13:14Z</time></trkpt><trkpt lat="-30.05995929347018" lon="115.11996225926863"><ele>131.5</ele><time>2026-04-13T03:13:15Z</time></trkpt><trkpt lat="-30.059686297983795" lon="115.11994962847106"><ele>132.0</ele><time>2026-04-13T03:13:16Z</time></trkpt><trkpt lat="-30.059403501253694" lon="115.11993525395425"><ele>132.0</ele><time>2026-04-13T03:13:17Z</time></trkpt><trkpt lat="-30.05911907629212" lon="115.11992098139409"><ele>132.0</ele><time>2026-04-13T03:13:18Z</time></trkpt><trkpt lat="-30.058837590288373" lon="115.11988932442223"><ele>128.5</ele><time>2026-04-13T03:13:19Z</time></trkpt><trkpt lat="-30.05855347474071" lon="115.11987488496813"><ele>125.0</ele><time>2026-04-13T03:13:20Z</time></trkpt><trkpt lat="-30.05827184109035" lon="115.11985976462877"><ele>123.5</ele><time>2026-04-13T03:13:21Z</time></trkpt><trkpt lat="-30.057994144020682" lon="115.11986229744481"><ele>122.0</ele><time>2026-04-13T03:13:22Z</time></trkpt><trkpt lat="-30.05771545717158" lon="115.11984196103427"><ele>119.5</ele><time>2026-04-13T03:13:23Z</time></trkpt><trkpt lat="-30.057435391579585" lon="115.11982583071801"><ele>117.0</ele><time>2026-04-13T03:13:24Z</time></trkpt><trkpt lat="-30.05715588002076" lon="115.11981193714578"><ele>117.0</ele><time>2026-04-13T03:13:25Z</time></trkpt><trkpt lat="-30.056870617632413" lon="115.11979823696507"><ele>117.0</ele><time>2026-04-13T03:13:26Z</time></trkpt><trkpt lat="-30.056587586274002" lon="115.11978298160392"><ele>116.5</ele><time>2026-04-13T03:13:27Z</time></trkpt><trkpt lat="-30.056303454016103" lon="115.11976729847767"><ele>116.0</ele><time>2026-04-13T03:13:28Z</time></trkpt><trkpt lat="-30.056024843765982" lon="115.11975200905667"><ele>113.5</ele><time>2026-04-13T03:13:29Z</time></trkpt><trkpt lat="-30.05574574030677" lon="115.11973937732282"><ele>111.0</ele><time>2026-04-13T03:13:30Z</time></trkpt><trkpt lat="-30.05546778591289" lon="115.11972637245336"><ele>111.0</ele><time>2026-04-13T03:13:31Z</time></trkpt><trkpt lat="-30.055192445662538" lon="115.11971431591664"><ele>111.0</ele><time>2026-04-13T03:13:32Z</time></trkpt><trkpt lat="-30.054915948762567" lon="115.11968109695867"><ele>112.5</ele><time>2026-04-13T03:13:33Z</time></trkpt><trkpt lat="-30.05463633082699" lon="115.11968439590927"><ele>114.0</ele><time>2026-04-13T03:13:34Z</time></trkpt><trkpt lat="-30.054360116353408" lon="115.11966737132512"><ele>110.0</ele><time>2026-04-13T03:13:35Z</time></trkpt><trkpt lat="-30.054078670843523" lon="115.11965018150075"><ele>106.0</ele><time>2026-04-13T03:13:36Z</time></trkpt><trkpt lat="-30.05379634535598" lon="115.11963800803963"><ele>106.0</ele><time>2026-04-13T03:13:37Z</time></trkpt><trkpt lat="-30.05351309608678" lon="115.11960403059386"><ele>106.0</ele><time>2026-04-13T03:13:38Z</time></trkpt><trkpt lat="-30.053228193431227" lon="115.11958704924048"><ele>102.5</ele><time>2026-04-13T03:13:39Z</time></trkpt><trkpt lat="-30.052944993672444" lon="115.11957089172519"><ele>99.0</ele><time>2026-04-13T03:13:40Z</time></trkpt><trkpt lat="-30.052657302696815" lon="115.11955432986775"><ele>99.5</ele><time>2026-04-13T03:13:41Z</time></trkpt><trkpt lat="-30.052374166517872" lon="115.1195383546834"><ele>100.0</ele><time>2026-04-13T03:13:42Z</time></trkpt><trkpt lat="-30.052089198156875" lon="115.11952197340496"><ele>100.0</ele><time>2026-04-13T03:13:43Z</time></trkpt><trkpt lat="-30.05180766751344" lon="115.11952400844592"><ele>100.0</ele><time>2026-04-13T03:13:44Z</time></trkpt><trkpt lat="-30.051526611122092" lon="115.11950692902755"><ele>99.0</ele><time>2026-04-13T03:13:45Z</time></trkpt><trkpt lat="-30.051235199048932" lon="115.11948875975297"><ele>98.0</ele><time>2026-04-13T03:13:46Z</time></trkpt><trkpt lat="-30.050943485994864" lon="115.11947076142707"><ele>97.0</ele><time>2026-04-13T03:13:47Z</time></trkpt><trkpt lat="-30.050656100905787" lon="115.11945522454553"><ele>96.0</ele><time>2026-04-13T03:13:48Z</time></trkpt><trkpt lat="-30.05037174027936" lon="115.11944214730698"><ele>96.0</ele><time>2026-04-13T03:13:49Z</time></trkpt><trkpt lat="-30.050087410332758" lon="115.11942924685745"><ele>96.0</ele><time>2026-04-13T03:13:50Z</time></trkpt><trkpt lat="-30.049799103702387" lon="115.11941355316279"><ele>95.5</ele><time>2026-04-13T03:13:51Z</time></trkpt><trkpt lat="-30.049507646564514" lon="115.11939590565464"><ele>95.0</ele><time>2026-04-13T03:13:52Z</time></trkpt><trkpt lat="-30.0492145273627" lon="115.11938162346065"><ele>96.0</ele><time>2026-04-13T03:13:53Z</time></trkpt><trkpt lat="-30.048921589533492" lon="115.11936864021567"><ele>97.0</ele><time>2026-04-13T03:13:54Z</time></trkpt><trkpt lat="-30.048626663933526" lon="115.1193343612059"><ele>97.0</ele><time>2026-04-13T03:13:55Z</time></trkpt><trkpt lat="-30.04833008250535" lon="115.119319175736"><ele>97.0</ele><time>2026-04-13T03:13:56Z</time></trkpt><trkpt lat="-30.048035348041456" lon="115.11930301150807"><ele>96.0</ele><time>2026-04-13T03:13:57Z</time></trkpt><trkpt lat="-30.04774019861386" lon="115.11928799631238"><ele>95.0</ele><time>2026-04-13T03:13:58Z</time></trkpt><trkpt lat="-30.047445490441447" lon="115.11927209629222"><ele>94.5</ele><time>2026-04-13T03:13:59Z</time></trkpt><trkpt lat="-30.047154409766392" lon="115.11925552856363"><ele>94.0</ele><time>2026-04-13T03:14:00Z</time></trkpt><trkpt lat="-30.046865131859725" lon="115.11923950669927"><ele>91.5</ele><time>2026-04-13T03:14:01Z</time></trkpt><trkpt lat="-30.04657574558175" lon="115.11922378163075"><ele>89.0</ele><time>2026-04-13T03:14:02Z</time></trkpt><trkpt lat="-30.046284427127734" lon="115.11922562353162"><ele>89.0</ele><time>2026-04-13T03:14:03Z</time></trkpt><trkpt lat="-30.04599278416863" lon="115.11919016188911"><ele>89.0</ele><time>2026-04-13T03:14:04Z</time></trkpt><trkpt lat="-30.045698001918673" lon="115.11917380880554"><ele>87.5</ele><time>2026-04-13T03:14:05Z</time></trkpt><trkpt lat="-30.045400906760822" lon="115.11915597277573"><ele>86.0</ele><time>2026-04-13T03:14:06Z</time></trkpt><trkpt lat="-30.045107261363633" lon="115.11913894973043"><ele>88.5</ele><time>2026-04-13T03:14:07Z</time></trkpt><trkpt lat="-30.044809033408487" lon="115.11912167977866"><ele>91.0</ele><time>2026-04-13T03:14:08Z</time></trkpt><trkpt lat="-30.044510039708555" lon="115.1191040076471"><ele>91.0</ele><time>2026-04-13T03:14:09Z</time></trkpt><trkpt lat="-30.044211131905694" lon="115.11908757255867"><ele>91.0</ele><time>2026-04-13T03:14:10Z</time></trkpt><trkpt lat="-30.043915851142017" lon="115.11907047780748"><ele>87.5</ele><time>2026-04-13T03:14:11Z</time></trkpt><trkpt lat="-30.043618324163656" lon="115.11905217759278"><ele>84.0</ele><time>2026-04-13T03:14:12Z</time></trkpt><trkpt lat="-30.04332671689548" lon="115.11903524714208"><ele>86.5</ele><time>2026-04-13T03:14:13Z</time></trkpt><trkpt lat="-30.04303453825782" lon="115.11901852881981"><ele>89.0</ele><time>2026-04-13T03:14:14Z</time></trkpt><trkpt lat="-30.04274694792585" lon="115.11900220553387"><ele>89.5</ele><time>2026-04-13T03:14:15Z</time></trkpt><trkpt lat="-30.042457471873398" lon="115.11898575412286"><ele>90.0</ele><time>2026-04-13T03:14:16Z</time></trkpt><trkpt lat="-30.042165880382406" lon="115.11896993464757"><ele>90.0</ele><time>2026-04-13T03:14:17Z</time></trkpt><trkpt lat="-30.041873698720366" lon="115.1189538111622"><ele>90.0</ele><time>2026-04-13T03:14:18Z</time></trkpt><trkpt lat="-30.041577466614605" lon="115.11893877947702"><ele>88.0</ele><time>2026-04-13T03:14:19Z</time></trkpt><trkpt lat="-30.041285021036646" lon="115.118923902817"><ele>86.0</ele><time>2026-04-13T03:14:20Z</time></trkpt><trkpt lat="-30.040993897735028" lon="115.1189081026852"><ele>87.5</ele><time>2026-04-13T03:14:21Z</time></trkpt><trkpt lat="-30.04070624060463" lon="115.1188935393589"><ele>89.0</ele><time>2026-04-13T03:14:22Z</time></trkpt><trkpt lat="-30.04042024850461" lon="115.11887735497473"><ele>89.0</ele><time>2026-04-13T03:14:23Z</time></trkpt><trkpt lat="-30.040133924337802" lon="115.11886004253364"><ele>89.0</ele><time>2026-04-13T03:14:24Z</time></trkpt><trkpt lat="-30.039854854693086" lon="115.11884476128647"><ele>88.0</ele><time>2026-04-13T03:14:25Z</time></trkpt><trkpt lat="-30.0395702643251" lon="115.11886162528154"><ele>87.0</ele><time>2026-04-13T03:14:26Z</time></trkpt><trkpt lat="-30.03928817217621" lon="115.11884559012185"><ele>85.5</ele><time>2026-04-13T03:14:27Z</time></trkpt><trkpt lat="-30.039008242586913" lon="115.11883065812243"><ele>84.0</ele><time>2026-04-13T03:14:28Z</time></trkpt><trkpt lat="-30.0387261702056" lon="115.11881490247883"><ele>84.0</ele><time>2026-04-13T03:14:29Z</time></trkpt><trkpt lat="-30.038443238671153" lon="115.11879612690855"><ele>84.0</ele><time>2026-04-13T03:14:30Z</time></trkpt><trkpt lat="-30.03816149009255" lon="115.11877486658739"><ele>86.5</ele><time>2026-04-13T03:14:31Z</time></trkpt><trkpt lat="-30.03787334408955" lon="115.11875444126005"><ele>89.0</ele><time>2026-04-13T03:14:32Z</time></trkpt><trkpt lat="-30.03758651847801" lon="115.11873759044823"><ele>88.5</ele><time>2026-04-13T03:14:33Z</time></trkpt><trkpt lat="-30.037296621199488" lon="115.11872239104831"><ele>88.0</ele><time>2026-04-13T03:14:34Z</time></trkpt><trkpt lat="-30.03700869113343" lon="115.11870808740011"><ele>88.0</ele><time>2026-04-13T03:14:35Z</time></trkpt><trkpt lat="-30.036720395930423" lon="115.11869198026044"><ele>88.0</ele><time>2026-04-13T03:14:36Z</time></trkpt><trkpt lat="-30.03643560809318" lon="115.1186780461381"><ele>86.0</ele><time>2026-04-13T03:14:37Z</time></trkpt><trkpt lat="-30.03614509132906" lon="115.11865869518091"><ele>84.0</ele><time>2026-04-13T03:14:38Z</time></trkpt><trkpt lat="-30.03585496241973" lon="115.1186377238418"><ele>85.5</ele><time>2026-04-13T03:14:39Z</time></trkpt><trkpt lat="-30.035572483445282" lon="115.11861804598888"><ele>87.0</ele><time>2026-04-13T03:14:40Z</time></trkpt><trkpt lat="-30.035289832212907" lon="115.1185980627777"><ele>87.0</ele><time>2026-04-13T03:14:41Z</time></trkpt><trkpt lat="-30.035003638279015" lon="115.11857969235858"><ele>87.0</ele><time>2026-04-13T03:14:42Z</time></trkpt><trkpt lat="-30.034712737894342" lon="115.118562801021"><ele>86.5</ele><time>2026-04-13T03:14:43Z</time></trkpt><trkpt lat="-30.034415540018763" lon="115.11854321639287"><ele>86.0</ele><time>2026-04-13T03:14:44Z</time></trkpt><trkpt lat="-30.034121460503805" lon="115.11852580131163"><ele>86.0</ele><time>2026-04-13T03:14:45Z</time></trkpt><trkpt lat="-30.033821822499217" lon="115.11851076766096"><ele>86.0</ele><time>2026-04-13T03:14:46Z</time></trkpt><trkpt lat="-30.033521386895814" lon="115.11849680097424"><ele>87.5</ele><time>2026-04-13T03:14:47Z</time></trkpt><trkpt lat="-30.03321675465673" lon="115.11848279173188"><ele>89.0</ele><time>2026-04-13T03:14:48Z</time></trkpt><trkpt lat="-30.032910913028722" lon="115.11846593571599"><ele>89.0</ele><time>2026-04-13T03:14:49Z</time></trkpt><trkpt lat="-30.032607338638407" lon="115.11844652492495"><ele>89.0</ele><time>2026-04-13T03:14:50Z</time></trkpt><trkpt lat="-30.03230199664058" lon="115.11842709007914"><ele>88.0</ele><time>2026-04-13T03:14:51Z</time></trkpt><trkpt lat="-30.031994251566786" lon="115.11841091558654"><ele>87.0</ele><time>2026-04-13T03:14:52Z</time></trkpt><trkpt lat="-30.031684933653647" lon="115.11839474651813"><ele>87.5</ele><time>2026-04-13T03:14:53Z</time></trkpt><trkpt lat="-30.0313741172664" lon="115.11837478366063"><ele>88.0</ele><time>2026-04-13T03:14:54Z</time></trkpt><trkpt lat="-30.031060539900665" lon="115.11835801267033"><ele>90.5</ele><time>2026-04-13T03:14:55Z</time></trkpt><trkpt lat="-30.030747371159737" lon="115.11834405335959"><ele>93.0</ele><time>2026-04-13T03:14:56Z</time></trkpt><trkpt lat="-30.03043245588459" lon="115.11833101239026"><ele>93.0</ele><time>2026-04-13T03:14:57Z</time></trkpt><trkpt lat="-30.03011553741354" lon="115.11831273156544"><ele>93.0</ele><time>2026-04-13T03:14:58Z</time></trkpt><trkpt lat="-30.029794294211165" lon="115.1182920816638"><ele>92.0</ele><time>2026-04-13T03:14:59Z</time></trkpt><trkpt lat="-30.029476184744468" lon="115.1182736160978"><ele>91.0</ele><time>2026-04-13T03:15:00Z</time></trkpt><trkpt lat="-30.029158390820275" lon="115.11825385769728"><ele>88.5</ele><time>2026-04-13T03:15:01Z</time></trkpt><trkpt lat="-30.028840397905178" lon="115.11823412519414"><ele>86.0</ele><time>2026-04-13T03:15:02Z</time></trkpt><trkpt lat="-30.028522720308256" lon="115.11821706466306"><ele>84.0</ele><time>2026-04-13T03:15:03Z</time></trkpt><trkpt lat="-30.028200530261092" lon="115.11820189520208"><ele>82.0</ele><time>2026-04-13T03:15:04Z</time></trkpt><trkpt lat="-30.027873416410472" lon="115.11818427123085"><ele>82.0</ele><time>2026-04-13T03:15:05Z</time></trkpt><trkpt lat="-30.02754442157953" lon="115.11816512463537"><ele>82.0</ele><time>2026-04-13T03:15:06Z</time></trkpt><trkpt lat="-30.02722542238654" lon="115.11814303291027"><ele>81.5</ele><time>2026-04-13T03:15:07Z</time></trkpt><trkpt lat="-30.026905738066063" lon="115.11812174254618"><ele>81.0</ele><time>2026-04-13T03:15:08Z</time></trkpt><trkpt lat="-30.02659274741194" lon="115.118103029835"><ele>81.0</ele><time>2026-04-13T03:15:09Z</time></trkpt><trkpt lat="-30.026282893296678" lon="115.1180841947512"><ele>81.0</ele><time>2026-04-13T03:15:10Z</time></trkpt><trkpt lat="-30.025977068018012" lon="115.11806526752798"><ele>80.5</ele><time>2026-04-13T03:15:11Z</time></trkpt><trkpt lat="-30.02567906400891" lon="115.11804913433944"><ele>80.0</ele><time>2026-04-13T03:15:12Z</time></trkpt><trkpt lat="-30.02538196036738" lon="115.11803092449426"><ele>80.0</ele><time>2026-04-13T03:15:13Z</time></trkpt><trkpt lat="-30.025084477410783" lon="115.1180131432076"><ele>80.0</ele><time>2026-04-13T03:15:14Z</time></trkpt><trkpt lat="-30.024791980294395" lon="115.11799160514708"><ele>79.5</ele><time>2026-04-13T03:15:15Z</time></trkpt><trkpt lat="-30.02449388957604" lon="115.1179747545981"><ele>79.0</ele><time>2026-04-13T03:15:16Z</time></trkpt><trkpt lat="-30.024198272222257" lon="115.11795839954124"><ele>79.5</ele><time>2026-04-13T03:15:17Z</time></trkpt><trkpt lat="-30.023896034422787" lon="115.11794384238344"><ele>80.0</ele><time>2026-04-13T03:15:18Z</time></trkpt><trkpt lat="-30.02358908615885" lon="115.11792762969948"><ele>81.0</ele><time>2026-04-13T03:15:19Z</time></trkpt><trkpt lat="-30.023281576801974" lon="115.1179101953888"><ele>82.0</ele><time>2026-04-13T03:15:20Z</time></trkpt><trkpt lat="-30.022975987449986" lon="115.11789299150485"><ele>82.0</ele><time>2026-04-13T03:15:21Z</time></trkpt><trkpt lat="-30.022667594639678" lon="115.11787827784154"><ele>82.0</ele><time>2026-04-13T03:15:22Z</time></trkpt><trkpt lat="-30.02235849332861" lon="115.11785894986738"><ele>79.5</ele><time>2026-04-13T03:15:23Z</time></trkpt><trkpt lat="-30.022056143294854" lon="115.11784066723632"><ele>77.0</ele><time>2026-04-13T03:15:24Z</time></trkpt><trkpt lat="-30.021746529022263" lon="115.11782084673285"><ele>77.5</ele><time>2026-04-13T03:15:25Z</time></trkpt><trkpt lat="-30.021432895106333" lon="115.11780291074109"><ele>78.0</ele><time>2026-04-13T03:15:26Z</time></trkpt><trkpt lat="-30.02112076097988" lon="115.11778740357222"><ele>78.0</ele><time>2026-04-13T03:15:27Z</time></trkpt><trkpt lat="-30.02081273489915" lon="115.11777225671716"><ele>78.0</ele><time>2026-04-13T03:15:28Z</time></trkpt><trkpt lat="-30.02050371153619" lon="115.11775441562709"><ele>78.0</ele><time>2026-04-13T03:15:29Z</time></trkpt><trkpt lat="-30.02019205234593" lon="115.11773600291008"><ele>78.0</ele><time>2026-04-13T03:15:30Z</time></trkpt><trkpt lat="-30.019882147125465" lon="115.11771851400052"><ele>76.5</ele><time>2026-04-13T03:15:31Z</time></trkpt><trkpt lat="-30.01957134513432" lon="115.11770016662201"><ele>75.0</ele><time>2026-04-13T03:15:32Z</time></trkpt><trkpt lat="-30.01926180332094" lon="115.11768472914203"><ele>77.5</ele><time>2026-04-13T03:15:33Z</time></trkpt><trkpt lat="-30.018949530916974" lon="115.11766872402875"><ele>80.0</ele><time>2026-04-13T03:15:34Z</time></trkpt><trkpt lat="-30.018640676036295" lon="115.11763279830431"><ele>80.0</ele><time>2026-04-13T03:15:35Z</time></trkpt><trkpt lat="-30.01833004116341" lon="115.11763420904099"><ele>80.0</ele><time>2026-04-13T03:15:36Z</time></trkpt><trkpt lat="-30.018017193221194" lon="115.11761557802281"><ele>78.0</ele><time>2026-04-13T03:15:37Z</time></trkpt><trkpt lat="-30.017704719211256" lon="115.1175968501241"><ele>76.0</ele><time>2026-04-13T03:15:38Z</time></trkpt><trkpt lat="-30.017395272236094" lon="115.11758035619896"><ele>75.0</ele><time>2026-04-13T03:15:39Z</time></trkpt><trkpt lat="-30.01708729300564" lon="115.11756476261803"><ele>74.0</ele><time>2026-04-13T03:15:40Z</time></trkpt><trkpt lat="-30.016774186931848" lon="115.11754602013559"><ele>73.5</ele><time>2026-04-13T03:15:41Z</time></trkpt><trkpt lat="-30.016462287754923" lon="115.11752675814131"><ele>73.0</ele><time>2026-04-13T03:15:42Z</time></trkpt><trkpt lat="-30.016146558343937" lon="115.11750603474428"><ele>73.0</ele><time>2026-04-13T03:15:43Z</time></trkpt><trkpt lat="-30.01583256297957" lon="115.11748963939397"><ele>73.0</ele><time>2026-04-13T03:15:44Z</time></trkpt><trkpt lat="-30.015511678042827" lon="115.11745181805422"><ele>72.5</ele><time>2026-04-13T03:15:45Z</time></trkpt><trkpt lat="-30.015187909564126" lon="115.11743129630091"><ele>72.0</ele><time>2026-04-13T03:15:46Z</time></trkpt><trkpt lat="-30.014870751792007" lon="115.11741119712555"><ele>72.0</ele><time>2026-04-13T03:15:47Z</time></trkpt><trkpt lat="-30.01455581335566" lon="115.11739199756377"><ele>72.0</ele><time>2026-04-13T03:15:48Z</time></trkpt><trkpt lat="-30.01424196205238" lon="115.11737135249852"><ele>72.0</ele><time>2026-04-13T03:15:49Z</time></trkpt><trkpt lat="-30.013929855557414" lon="115.1173538637025"><ele>72.0</ele><time>2026-04-13T03:15:50Z</time></trkpt><trkpt lat="-30.013618888241247" lon="115.11733857396868"><ele>74.0</ele><time>2026-04-13T03:15:51Z</time></trkpt><trkpt lat="-30.01330696503433" lon="115.11732194975417"><ele>76.0</ele><time>2026-04-13T03:15:52Z</time></trkpt><trkpt lat="-30.01299444206549" lon="115.11730515050395"><ele>76.0</ele><time>2026-04-13T03:15:53Z</time></trkpt><trkpt lat="-30.012684538203008" lon="115.11728849204674"><ele>76.0</ele><time>2026-04-13T03:15:54Z</time></trkpt><trkpt lat="-30.012371387622032" lon="115.11727133125841"><ele>73.5</ele><time>2026-04-13T03:15:55Z</time></trkpt><trkpt lat="-30.01206344922176" lon="115.11725550529401"><ele>71.0</ele><time>2026-04-13T03:15:56Z</time></trkpt><trkpt lat="-30.011759120340592" lon="115.11723929846502"><ele>71.0</ele><time>2026-04-13T03:15:57Z</time></trkpt><trkpt lat="-30.01144688996279" lon="115.11722300191609"><ele>71.0</ele><time>2026-04-13T03:15:58Z</time></trkpt><trkpt lat="-30.011139325901873" lon="115.11720699902436"><ele>71.0</ele><time>2026-04-13T03:15:59Z</time></trkpt><trkpt lat="-30.010837953534033" lon="115.11720835153723"><ele>71.0</ele><time>2026-04-13T03:16:00Z</time></trkpt><trkpt lat="-30.010538158318507" lon="115.11719036106003"><ele>71.5</ele><time>2026-04-13T03:16:01Z</time></trkpt><trkpt lat="-30.010238602292286" lon="115.11717229926526"><ele>72.0</ele><time>2026-04-13T03:16:02Z</time></trkpt><trkpt lat="-30.009941429296966" lon="115.11715624428865"><ele>72.0</ele><time>2026-04-13T03:16:03Z</time></trkpt><trkpt lat="-30.0096459725133" lon="115.11714158378217"><ele>72.0</ele><time>2026-04-13T03:16:04Z</time></trkpt><trkpt lat="-30.009351834193193" lon="115.11710742644098"><ele>70.5</ele><time>2026-04-13T03:16:05Z</time></trkpt><trkpt lat="-30.009055294905853" lon="115.11709184213188"><ele>69.0</ele><time>2026-04-13T03:16:06Z</time></trkpt><trkpt lat="-30.008759491114514" lon="115.11709487798326"><ele>69.0</ele><time>2026-04-13T03:16:07Z</time></trkpt><trkpt lat="-30.00846586458727" lon="115.1170767326161"><ele>69.0</ele><time>2026-04-13T03:16:08Z</time></trkpt><trkpt lat="-30.008166352954934" lon="115.11705909677475"><ele>71.0</ele><time>2026-04-13T03:16:09Z</time></trkpt><trkpt lat="-30.007862113287207" lon="115.11704297740049"><ele>73.0</ele><time>2026-04-13T03:16:10Z</time></trkpt><trkpt lat="-30.007552465099145" lon="115.11702772606044"><ele>73.0</ele><time>2026-04-13T03:16:11Z</time></trkpt><trkpt lat="-30.007240997605173" lon="115.11701375698175"><ele>73.0</ele><time>2026-04-13T03:16:12Z</time></trkpt><trkpt lat="-30.006926737863203" lon="115.11699897913958"><ele>73.0</ele><time>2026-04-13T03:16:12.999Z</time></trkpt><trkpt lat="-30.00661067307392" lon="115.11696231019646"><ele>73.0</ele><time>2026-04-13T03:16:13.999Z</time></trkpt><trkpt lat="-30.00628695272661" lon="115.11694417838584"><ele>73.0</ele><time>2026-04-13T03:16:14.999Z</time></trkpt><trkpt lat="-30.005961208974565" lon="115.11692324323856"><ele>73.0</ele><time>2026-04-13T03:16:15.999Z</time></trkpt><trkpt lat="-30.005634611906537" lon="115.11690223424141"><ele>71.5</ele><time>2026-04-13T03:16:16.999Z</time></trkpt><trkpt lat="-30.005308167399974" lon="115.11688123600005"><ele>70.0</ele><time>2026-04-13T03:16:17.999Z</time></trkpt><trkpt lat="-30.004980929501638" lon="115.11686087626103"><ele>68.5</ele><time>2026-04-13T03:16:18.999Z</time></trkpt><trkpt lat="-30.004655819768157" lon="115.11685896362691"><ele>67.0</ele><time>2026-04-13T03:16:19.999Z</time></trkpt><trkpt lat="-30.004334250916152" lon="115.11683978528522"><ele>67.0</ele><time>2026-04-13T03:16:20.999Z</time></trkpt><trkpt lat="-30.004015598278095" lon="115.11682291691953"><ele>67.0</ele><time>2026-04-13T03:16:21.999Z</time></trkpt><trkpt lat="-30.003698815377973" lon="115.11680559850528"><ele>67.0</ele><time>2026-04-13T03:16:22.999Z</time></trkpt><trkpt lat="-30.003384136603017" lon="115.11678620594702"><ele>67.0</ele><time>2026-04-13T03:16:23.999Z</time></trkpt><trkpt lat="-30.003073870037877" lon="115.11676607741533"><ele>67.0</ele><time>2026-04-13T03:16:24.999Z</time></trkpt><trkpt lat="-30.002768060416457" lon="115.11674609047795"><ele>67.0</ele><time>2026-04-13T03:16:25.999Z</time></trkpt><trkpt lat="-30.002460158243142" lon="115.11672669099738"><ele>66.0</ele><time>2026-04-13T03:16:26.999Z</time></trkpt><trkpt lat="-30.002153698377718" lon="115.11671027651198"><ele>65.0</ele><time>2026-04-13T03:16:27.999Z</time></trkpt><trkpt lat="-30.001847321197474" lon="115.11669642050121"><ele>67.5</ele><time>2026-04-13T03:16:28.999Z</time></trkpt><trkpt lat="-30.001536623697493" lon="115.1166809257203"><ele>70.0</ele><time>2026-04-13T03:16:29.999Z</time></trkpt><trkpt lat="-30.00123208510079" lon="115.11666114542345"><ele>70.0</ele><time>2026-04-13T03:16:30.999Z</time></trkpt><trkpt lat="-30.000924746513938" lon="115.11664470313286"><ele>70.0</ele><time>2026-04-13T03:16:31.999Z</time></trkpt><trkpt lat="-30.000618986400408" lon="115.11662824345758"><ele>69.5</ele><time>2026-04-13T03:16:32.999Z</time></trkpt><trkpt lat="-30.000315139502298" lon="115.11661336170454"><ele>69.0</ele><time>2026-04-13T03:16:33.999Z</time></trkpt><trkpt lat="-30.000014149207775" lon="115.11659858343238"><ele>69.0</ele><time>2026-04-13T03:16:34.999Z</time></trkpt><trkpt lat="-29.999720247956816" lon="115.1165832984951"><ele>69.0</ele><time>2026-04-13T03:16:35.999Z</time></trkpt><trkpt lat="-29.999424281670084" lon="115.11656527855949"><ele>67.5</ele><time>2026-04-13T03:16:36.999Z</time></trkpt><trkpt lat="-29.999130550819064" lon="115.116547493239"><ele>66.0</ele><time>2026-04-13T03:16:37.999Z</time></trkpt><trkpt lat="-29.99883546062898" lon="115.11652749180524"><ele>66.0</ele><time>2026-04-13T03:16:38.999Z</time></trkpt><trkpt lat="-29.998537997330917" lon="115.11651086899569"><ele>66.0</ele><time>2026-04-13T03:16:39.999Z</time></trkpt><trkpt lat="-29.998234951780375" lon="115.11649676012415"><ele>67.5</ele><time>2026-04-13T03:16:40.999Z</time></trkpt><trkpt lat="-29.997938166090574" lon="115.11648488425298"><ele>69.0</ele><time>2026-04-13T03:16:41.999Z</time></trkpt><trkpt lat="-29.997637986134063" lon="115.11647015079373"><ele>67.0</ele><time>2026-04-13T03:16:42.999Z</time></trkpt><trkpt lat="-29.997341802563323" lon="115.11645017159863"><ele>65.0</ele><time>2026-04-13T03:16:43.999Z</time></trkpt><trkpt lat="-29.997046516347826" lon="115.1164318036379"><ele>65.0</ele><time>2026-04-13T03:16:44.999Z</time></trkpt><trkpt lat="-29.996754096154636" lon="115.1164151213768"><ele>65.0</ele><time>2026-04-13T03:16:45.999Z</time></trkpt><trkpt lat="-29.9964655462666" lon="115.11640021020517"><ele>66.5</ele><time>2026-04-13T03:16:46.999Z</time></trkpt><trkpt lat="-29.996177156907745" lon="115.11638116351115"><ele>68.0</ele><time>2026-04-13T03:16:47.999Z</time></trkpt><trkpt lat="-29.995890716054834" lon="115.11636159338116"><ele>68.0</ele><time>2026-04-13T03:16:48.999Z</time></trkpt><trkpt lat="-29.99560675733133" lon="115.116344172223"><ele>68.0</ele><time>2026-04-13T03:16:49.999Z</time></trkpt><trkpt lat="-29.995322300058522" lon="115.11632719880075"><ele>68.0</ele><time>2026-04-13T03:16:50.999Z</time></trkpt><trkpt lat="-29.99504311261045" lon="115.11631239873729"><ele>68.0</ele><time>2026-04-13T03:16:51.999Z</time></trkpt><trkpt lat="-29.994760842313518" lon="115.11629820941936"><ele>65.5</ele><time>2026-04-13T03:16:53Z</time></trkpt><trkpt lat="-29.99448345211862" lon="115.11628117669744"><ele>63.0</ele><time>2026-04-13T03:16:54Z</time></trkpt><trkpt lat="-29.994200107909435" lon="115.1162648507137"><ele>62.5</ele><time>2026-04-13T03:16:55Z</time></trkpt><trkpt lat="-29.993911668658868" lon="115.11624964764228"><ele>62.0</ele><time>2026-04-13T03:16:56Z</time></trkpt><trkpt lat="-29.99361986194705" lon="115.1162314527448"><ele>64.5</ele><time>2026-04-13T03:16:57Z</time></trkpt><trkpt lat="-29.99333058918744" lon="115.11621436542926"><ele>67.0</ele><time>2026-04-13T03:16:58Z</time></trkpt><trkpt lat="-29.993036142273855" lon="115.11619538994802"><ele>67.0</ele><time>2026-04-13T03:16:59Z</time></trkpt><trkpt lat="-29.99273385855936" lon="115.11617901591868"><ele>67.0</ele><time>2026-04-13T03:17:00Z</time></trkpt><trkpt lat="-29.992431620235827" lon="115.11616155304571"><ele>66.5</ele><time>2026-04-13T03:17:01Z</time></trkpt><trkpt lat="-29.99213348161" lon="115.11614160000093"><ele>66.0</ele><time>2026-04-13T03:17:02Z</time></trkpt><trkpt lat="-29.991837102238367" lon="115.1161231754719"><ele>62.5</ele><time>2026-04-13T03:17:03Z</time></trkpt><trkpt lat="-29.991542598008746" lon="115.11610845953028"><ele>59.0</ele><time>2026-04-13T03:17:04Z</time></trkpt><trkpt lat="-29.991247375135984" lon="115.11609208506252"><ele>59.0</ele><time>2026-04-13T03:17:05Z</time></trkpt><trkpt lat="-29.990952072652256" lon="115.11607369673956"><ele>59.0</ele><time>2026-04-13T03:17:06Z</time></trkpt><trkpt lat="-29.990662069038198" lon="115.11605390830543"><ele>60.5</ele><time>2026-04-13T03:17:07Z</time></trkpt><trkpt lat="-29.990369793167037" lon="115.116038298071"><ele>62.0</ele><time>2026-04-13T03:17:08Z</time></trkpt><trkpt lat="-29.990074920121312" lon="115.11602430529481"><ele>61.5</ele><time>2026-04-13T03:17:09Z</time></trkpt><trkpt lat="-29.989778245307956" lon="115.11600820697845"><ele>61.0</ele><time>2026-04-13T03:17:10Z</time></trkpt><trkpt lat="-29.989482615891557" lon="115.11598977233974"><ele>61.0</ele><time>2026-04-13T03:17:11Z</time></trkpt><trkpt lat="-29.989190116187707" lon="115.11597138724974"><ele>61.0</ele><time>2026-04-13T03:17:12Z</time></trkpt><trkpt lat="-29.988897307943997" lon="115.1159555810537"><ele>61.0</ele><time>2026-04-13T03:17:13Z</time></trkpt><trkpt lat="-29.988605238398023" lon="115.11594075814759"><ele>61.0</ele><time>2026-04-13T03:17:14Z</time></trkpt><trkpt lat="-29.988317620264915" lon="115.11592463574694"><ele>61.0</ele><time>2026-04-13T03:17:15Z</time></trkpt><trkpt lat="-29.988028938822595" lon="115.11590926898266"><ele>61.0</ele><time>2026-04-13T03:17:16Z</time></trkpt><trkpt lat="-29.987742276293233" lon="115.11589525657332"><ele>61.0</ele><time>2026-04-13T03:17:17Z</time></trkpt><trkpt lat="-29.98746054296737" lon="115.11587989143376"><ele>61.0</ele><time>2026-04-13T03:17:18Z</time></trkpt><trkpt lat="-29.98717981804063" lon="115.1158662286223"><ele>61.0</ele><time>2026-04-13T03:17:19Z</time></trkpt><trkpt lat="-29.986898327073018" lon="115.1158534464093"><ele>61.0</ele><time>2026-04-13T03:17:20Z</time></trkpt><trkpt lat="-29.986618178620443" lon="115.11584512902733"><ele>60.0</ele><time>2026-04-13T03:17:21Z</time></trkpt><trkpt lat="-29.98633624242297" lon="115.11583518561214"><ele>59.0</ele><time>2026-04-13T03:17:22Z</time></trkpt><trkpt lat="-29.986052304827776" lon="115.11582306440631"><ele>60.0</ele><time>2026-04-13T03:17:23Z</time></trkpt><trkpt lat="-29.98577259266597" lon="115.11580673752603"><ele>61.0</ele><time>2026-04-13T03:17:24Z</time></trkpt><trkpt lat="-29.98549007554901" lon="115.1157905144209"><ele>61.0</ele><time>2026-04-13T03:17:25Z</time></trkpt><trkpt lat="-29.985223047554683" lon="115.11577218988137"><ele>61.0</ele><time>2026-04-13T03:17:26Z</time></trkpt><trkpt lat="-29.98495789629335" lon="115.11575699977068"><ele>62.5</ele><time>2026-04-13T03:17:27Z</time></trkpt><trkpt lat="-29.984687917343294" lon="115.1157428698927"><ele>64.0</ele><time>2026-04-13T03:17:28Z</time></trkpt><trkpt lat="-29.98441084922927" lon="115.11572647503809"><ele>63.0</ele><time>2026-04-13T03:17:29Z</time></trkpt><trkpt lat="-29.984137076754433" lon="115.11571183648032"><ele>62.0</ele><time>2026-04-13T03:17:30Z</time></trkpt><trkpt lat="-29.983872042063698" lon="115.11569681778971"><ele>62.0</ele><time>2026-04-13T03:17:31Z</time></trkpt><trkpt lat="-29.983627669674373" lon="115.11568164485615"><ele>62.0</ele><time>2026-04-13T03:17:32Z</time></trkpt><trkpt lat="-29.98339795886537" lon="115.11566370829466"><ele>60.333333333333336</ele><time>2026-04-13T03:17:33Z</time></trkpt><trkpt lat="-29.983193247024786" lon="115.11564723733981"><ele>58.66666666666667</ele><time>2026-04-13T03:17:34Z</time></trkpt><trkpt lat="-29.983010365294586" lon="115.11563446212033"><ele>57.0</ele><time>2026-04-13T03:17:35Z</time></trkpt><trkpt lat="-29.98285122838588" lon="115.11562422384026"><ele>57.0</ele><time>2026-04-13T03:17:36Z</time></trkpt><trkpt lat="-29.98272531509538" lon="115.11557333697556"><ele>57.0</ele><time>2026-04-13T03:17:37Z</time></trkpt><trkpt lat="-29.98261921229802" lon="115.11555500029472"><ele>57.0</ele><time>2026-04-13T03:17:38Z</time></trkpt><trkpt lat="-29.98254518436961" lon="115.11554135943132"><ele>57.0</ele><time>2026-04-13T03:17:39Z</time></trkpt><trkpt lat="-29.982447523745666" lon="115.11552370603775"><ele>57.0</ele><time>2026-04-13T03:17:41Z</time></trkpt><trkpt lat="-29.98240013784107" lon="115.11579366345276"><ele>57.2</ele><time>2026-04-13T03:17:43Z</time></trkpt><trkpt lat="-29.982388597666414" lon="115.11588644202358"><ele>57.400000000000006</ele><time>2026-04-13T03:17:44Z</time></trkpt><trkpt lat="-29.982384052316252" lon="115.1159919879483"><ele>57.599999999999994</ele><time>2026-04-13T03:17:45Z</time></trkpt><trkpt lat="-29.98238061481792" lon="115.11613641442467"><ele>57.8</ele><time>2026-04-13T03:17:46Z</time></trkpt><trkpt lat="-29.98239111087792" lon="115.11630133817201"><ele>58.0</ele><time>2026-04-13T03:17:47Z</time></trkpt><trkpt lat="-29.982404399388454" lon="115.11649819661719"><ele>58.0</ele><time>2026-04-13T03:17:48Z</time></trkpt><trkpt lat="-29.98241654708288" lon="115.11671118011813"><ele>58.0</ele><time>2026-04-13T03:17:49Z</time></trkpt><trkpt lat="-29.982426779014688" lon="115.1169432507737"><ele>58.0</ele><time>2026-04-13T03:17:50Z</time></trkpt><trkpt lat="-29.982440975696907" lon="115.11719206011738"><ele>58.33333333333333</ele><time>2026-04-13T03:17:51Z</time></trkpt><trkpt lat="-29.9824538065608" lon="115.11744616227301"><ele>58.66666666666667</ele><time>2026-04-13T03:17:52Z</time></trkpt><trkpt lat="-29.982463491573707" lon="115.11770091904334"><ele>59.0</ele><time>2026-04-13T03:17:53Z</time></trkpt><trkpt lat="-29.98247491642318" lon="115.11796879278694"><ele>59.5</ele><time>2026-04-13T03:17:54Z</time></trkpt><trkpt lat="-29.982489708088096" lon="115.11824785258865"><ele>60.0</ele><time>2026-04-13T03:17:55Z</time></trkpt><trkpt lat="-29.9825038865355" lon="115.11852667640353"><ele>60.5</ele><time>2026-04-13T03:17:56Z</time></trkpt><trkpt lat="-29.982517449422723" lon="115.11880662353889"><ele>61.0</ele><time>2026-04-13T03:17:57Z</time></trkpt><trkpt lat="-29.982529842794733" lon="115.11908171070532"><ele>61.0</ele><time>2026-04-13T03:17:58Z</time></trkpt><trkpt lat="-29.98253905641217" lon="115.11936026592237"><ele>61.0</ele><time>2026-04-13T03:17:59Z</time></trkpt><trkpt lat="-29.98254939206822" lon="115.11964200024073"><ele>60.0</ele><time>2026-04-13T03:18:00Z</time></trkpt><trkpt lat="-29.982562933157347" lon="115.11992751169541"><ele>59.0</ele><time>2026-04-13T03:18:01Z</time></trkpt><trkpt lat="-29.98258083285455" lon="115.12021170163793"><ele>59.0</ele><time>2026-04-13T03:18:02Z</time></trkpt><trkpt lat="-29.98259603465708" lon="115.12049620928953"><ele>59.0</ele><time>2026-04-13T03:18:03Z</time></trkpt><trkpt lat="-29.98261042714043" lon="115.12078364743827"><ele>59.0</ele><time>2026-04-13T03:18:04Z</time></trkpt><trkpt lat="-29.982621253762087" lon="115.12107355833109"><ele>59.0</ele><time>2026-04-13T03:18:05Z</time></trkpt><trkpt lat="-29.982632372251555" lon="115.12136122053386"><ele>60.0</ele><time>2026-04-13T03:18:06Z</time></trkpt><trkpt lat="-29.98264549544715" lon="115.12165003131093"><ele>61.0</ele><time>2026-04-13T03:18:07Z</time></trkpt><trkpt lat="-29.982654731946916" lon="115.12194205648956"><ele>61.0</ele><time>2026-04-13T03:18:08Z</time></trkpt><trkpt lat="-29.98266657447523" lon="115.12223409715874"><ele>61.0</ele><time>2026-04-13T03:18:09Z</time></trkpt><trkpt lat="-29.982679673256616" lon="115.12252538938017"><ele>60.5</ele><time>2026-04-13T03:18:10Z</time></trkpt><trkpt lat="-29.98269046430494" lon="115.12281198012083"><ele>60.0</ele><time>2026-04-13T03:18:11Z</time></trkpt><trkpt lat="-29.982703132986536" lon="115.12310221136138"><ele>61.0</ele><time>2026-04-13T03:18:12Z</time></trkpt><trkpt lat="-29.982713372265035" lon="115.12338389390017"><ele>62.0</ele><time>2026-04-13T03:18:13Z</time></trkpt><trkpt lat="-29.982719985902335" lon="115.12366824008782"><ele>62.0</ele><time>2026-04-13T03:18:14Z</time></trkpt><trkpt lat="-29.98272758124003" lon="115.1239514421253"><ele>62.0</ele><time>2026-04-13T03:18:15Z</time></trkpt><trkpt lat="-29.982741506899725" lon="115.12423375741785"><ele>62.5</ele><time>2026-04-13T03:18:16Z</time></trkpt><trkpt lat="-29.982756539752636" lon="115.12451899639335"><ele>63.0</ele><time>2026-04-13T03:18:17Z</time></trkpt><trkpt lat="-29.98277326846788" lon="115.12479816683381"><ele>63.5</ele><time>2026-04-13T03:18:18Z</time></trkpt><trkpt lat="-29.982785568229897" lon="115.12507281093016"><ele>64.0</ele><time>2026-04-13T03:18:18.999Z</time></trkpt><trkpt lat="-29.982791334376998" lon="115.12535721826939"><ele>64.0</ele><time>2026-04-13T03:18:19.999Z</time></trkpt><trkpt lat="-29.98279070255324" lon="115.12563819283814"><ele>64.0</ele><time>2026-04-13T03:18:20.999Z</time></trkpt><trkpt lat="-29.98278700683126" lon="115.12591742541362"><ele>62.0</ele><time>2026-04-13T03:18:21.999Z</time></trkpt><trkpt lat="-29.98277942160332" lon="115.12620763680056"><ele>60.0</ele><time>2026-04-13T03:18:22.999Z</time></trkpt><trkpt lat="-29.98276310141872" lon="115.12650380538474"><ele>60.0</ele><time>2026-04-13T03:18:23.999Z</time></trkpt><trkpt lat="-29.98274155608949" lon="115.12680131090605"><ele>60.0</ele><time>2026-04-13T03:18:24.999Z</time></trkpt><trkpt lat="-29.982706383439925" lon="115.12709520759728"><ele>60.0</ele><time>2026-04-13T03:18:25.999Z</time></trkpt><trkpt lat="-29.982667769226715" lon="115.12738823280405"><ele>60.0</ele><time>2026-04-13T03:18:26.999Z</time></trkpt><trkpt lat="-29.98263086739337" lon="115.1276859918485"><ele>60.0</ele><time>2026-04-13T03:18:27.999Z</time></trkpt><trkpt lat="-29.98259730226602" lon="115.12799002110376"><ele>60.0</ele><time>2026-04-13T03:18:28.999Z</time></trkpt><trkpt lat="-29.982557053883852" lon="115.12829800763748"><ele>60.0</ele><time>2026-04-13T03:18:29.999Z</time></trkpt><trkpt lat="-29.982515497176124" lon="115.1286053352358"><ele>60.0</ele><time>2026-04-13T03:18:30.999Z</time></trkpt><trkpt lat="-29.98247458071576" lon="115.1289097927075"><ele>61.0</ele><time>2026-04-13T03:18:31.999Z</time></trkpt><trkpt lat="-29.982434731878975" lon="115.12921398100342"><ele>62.0</ele><time>2026-04-13T03:18:32.999Z</time></trkpt><trkpt lat="-29.98239314241444" lon="115.12952114985158"><ele>62.0</ele><time>2026-04-13T03:18:33.999Z</time></trkpt><trkpt lat="-29.982354627977934" lon="115.1298330721954"><ele>62.0</ele><time>2026-04-13T03:18:34.999Z</time></trkpt><trkpt lat="-29.982313503873833" lon="115.13015558524907"><ele>61.0</ele><time>2026-04-13T03:18:35.999Z</time></trkpt><trkpt lat="-29.982271432300575" lon="115.1304790079186"><ele>60.0</ele><time>2026-04-13T03:18:36.999Z</time></trkpt><trkpt lat="-29.982233186345077" lon="115.13079994447692"><ele>60.0</ele><time>2026-04-13T03:18:38Z</time></trkpt><trkpt lat="-29.982194521633737" lon="115.13111597487061"><ele>60.0</ele><time>2026-04-13T03:18:39Z</time></trkpt><trkpt lat="-29.982157211251874" lon="115.13141308388215"><ele>60.0</ele><time>2026-04-13T03:18:40Z</time></trkpt><trkpt lat="-29.982128454982462" lon="115.13167561278755"><ele>60.0</ele><time>2026-04-13T03:18:41Z</time></trkpt><trkpt lat="-29.98210309699149" lon="115.1318894031166"><ele>60.0</ele><time>2026-04-13T03:18:42Z</time></trkpt><trkpt lat="-29.98208018416629" lon="115.13207507246868"><ele>60.0</ele><time>2026-04-13T03:18:43Z</time></trkpt><trkpt lat="-29.982058386202187" lon="115.13222867743774"><ele>60.0</ele><time>2026-04-13T03:18:44Z</time></trkpt><trkpt lat="-29.982057988962445" lon="115.13236207872822"><ele>60.0</ele><time>2026-04-13T03:18:45Z</time></trkpt><trkpt lat="-29.982045058841877" lon="115.13246879471421"><ele>60.0</ele><time>2026-04-13T03:18:46Z</time></trkpt><trkpt lat="-29.9820357979199" lon="115.13254522774099"><ele>60.0</ele><time>2026-04-13T03:18:47Z</time></trkpt><trkpt lat="-29.982023944034825" lon="115.13264306124096"><ele>60.0</ele><time>2026-04-13T03:18:49Z</time></trkpt><trkpt lat="-29.9820145433187" lon="115.13272064803866"><ele>60.0</ele><time>2026-04-13T03:18:51Z</time></trkpt><trkpt lat="-29.982075742450412" lon="115.13266968471338"><ele>60.0</ele><time>2026-04-13T03:18:56Z</time></trkpt><trkpt lat="-29.982083994052115" lon="115.13256017591245"><ele>60.0</ele><time>2026-04-13T03:18:57Z</time></trkpt><trkpt lat="-29.982091468352042" lon="115.13244817526605"><ele>60.0</ele><time>2026-04-13T03:18:58Z</time></trkpt><trkpt lat="-29.982098728745544" lon="115.13233429843176"><ele>60.0</ele><time>2026-04-13T03:18:59Z</time></trkpt><trkpt lat="-29.982082676850553" lon="115.1322382294009"><ele>60.0</ele><time>2026-04-13T03:19:00Z</time></trkpt><trkpt lat="-29.982041075121913" lon="115.13215686033125"><ele>60.0</ele><time>2026-04-13T03:19:01Z</time></trkpt><trkpt lat="-29.981969006474717" lon="115.13209195189737"><ele>60.0</ele><time>2026-04-13T03:19:02Z</time></trkpt><trkpt lat="-29.981881665134765" lon="115.13204500270368"><ele>60.0</ele><time>2026-04-13T03:19:03Z</time></trkpt><trkpt lat="-29.981775414737736" lon="115.13202103249745"><ele>60.0</ele><time>2026-04-13T03:19:04Z</time></trkpt><trkpt lat="-29.981643212430303" lon="115.13198078596989"><ele>60.0</ele><time>2026-04-13T03:19:05Z</time></trkpt><trkpt lat="-29.981501333235364" lon="115.13195761064937"><ele>60.0</ele><time>2026-04-13T03:19:06Z</time></trkpt><trkpt lat="-29.98135345140386" lon="115.13193581711131"><ele>60.0</ele><time>2026-04-13T03:19:07Z</time></trkpt><trkpt lat="-29.981198214580463" lon="115.13193831918593"><ele>60.0</ele><time>2026-04-13T03:19:08Z</time></trkpt><trkpt lat="-29.9810499419957" lon="115.1319130096345"><ele>60.0</ele><time>2026-04-13T03:19:09Z</time></trkpt><trkpt lat="-29.980902824493388" lon="115.13188673146391"><ele>60.0</ele><time>2026-04-13T03:19:10Z</time></trkpt><trkpt lat="-29.980755374710142" lon="115.13186208902108"><ele>60.0</ele><time>2026-04-13T03:19:11Z</time></trkpt><trkpt lat="-29.9806125767829" lon="115.1318344561147"><ele>60.0</ele><time>2026-04-13T03:19:12Z</time></trkpt><trkpt lat="-29.980475924160643" lon="115.13180453480909"><ele>59.75</ele><time>2026-04-13T03:19:13Z</time></trkpt><trkpt lat="-29.980349174729525" lon="115.13177795692253"><ele>59.5</ele><time>2026-04-13T03:19:14Z</time></trkpt><trkpt lat="-29.980229294494848" lon="115.13175795681043"><ele>59.25</ele><time>2026-04-13T03:19:15Z</time></trkpt><trkpt lat="-29.98011272171435" lon="115.13173821030351"><ele>59.0</ele><time>2026-04-13T03:19:16Z</time></trkpt><trkpt lat="-29.979990264584764" lon="115.13171961533514"><ele>59.66666666666667</ele><time>2026-04-13T03:19:17Z</time></trkpt><trkpt lat="-29.979848607937992" lon="115.13169874636729"><ele>60.33333333333333</ele><time>2026-04-13T03:19:18Z</time></trkpt><trkpt lat="-29.979699592110073" lon="115.1316751395178"><ele>61.0</ele><time>2026-04-13T03:19:19Z</time></trkpt><trkpt lat="-29.979545139329172" lon="115.13164690284282"><ele>61.0</ele><time>2026-04-13T03:19:20Z</time></trkpt><trkpt lat="-29.979384857146524" lon="115.13161701359526"><ele>61.0</ele><time>2026-04-13T03:19:21Z</time></trkpt><trkpt lat="-29.979219218740667" lon="115.1315852629706"><ele>61.0</ele><time>2026-04-13T03:19:22Z</time></trkpt><trkpt lat="-29.97902898031764" lon="115.13155105392799"><ele>61.0</ele><time>2026-04-13T03:19:23Z</time></trkpt><trkpt lat="-29.978839544196948" lon="115.13151789400577"><ele>61.0</ele><time>2026-04-13T03:19:24Z</time></trkpt><trkpt lat="-29.97864146859974" lon="115.13148095209078"><ele>61.0</ele><time>2026-04-13T03:19:25Z</time></trkpt><trkpt lat="-29.978441102539033" lon="115.13144246016913"><ele>60.0</ele><time>2026-04-13T03:19:26Z</time></trkpt><trkpt lat="-29.978242906496018" lon="115.13141019718921"><ele>59.0</ele><time>2026-04-13T03:19:27Z</time></trkpt><trkpt lat="-29.97804931496782" lon="115.13137906290852"><ele>58.0</ele><time>2026-04-13T03:19:28Z</time></trkpt><trkpt lat="-29.977861845480334" lon="115.13134806674758"><ele>58.0</ele><time>2026-04-13T03:19:29Z</time></trkpt><trkpt lat="-29.977677191301506" lon="115.13129629089897"><ele>58.0</ele><time>2026-04-13T03:19:30Z</time></trkpt><trkpt lat="-29.977494403704544" lon="115.13128121720773"><ele>58.0</ele><time>2026-04-13T03:19:31Z</time></trkpt><trkpt lat="-29.97731243550008" lon="115.13124746467541"><ele>57.666666666666664</ele><time>2026-04-13T03:19:32Z</time></trkpt><trkpt lat="-29.97713191745434" lon="115.13121508035483"><ele>57.33333333333333</ele><time>2026-04-13T03:19:33.001Z</time></trkpt><trkpt lat="-29.976952854962025" lon="115.13118353415692"><ele>57.0</ele><time>2026-04-13T03:19:34.001Z</time></trkpt><trkpt lat="-29.97678428168064" lon="115.13115285880758"><ele>56.33333333333333</ele><time>2026-04-13T03:19:35.001Z</time></trkpt><trkpt lat="-29.976625595206567" lon="115.13112498426804"><ele>55.666666666666664</ele><time>2026-04-13T03:19:36.001Z</time></trkpt><trkpt lat="-29.976481560305242" lon="115.13108183604177"><ele>55.0</ele><time>2026-04-13T03:19:37.001Z</time></trkpt><trkpt lat="-29.97634056708274" lon="115.13107098380098"><ele>55.0</ele><time>2026-04-13T03:19:38.001Z</time></trkpt><trkpt lat="-29.976210427196534" lon="115.13103095131288"><ele>55.0</ele><time>2026-04-13T03:19:39.001Z</time></trkpt><trkpt lat="-29.976083817629785" lon="115.13100684741164"><ele>55.0</ele><time>2026-04-13T03:19:40.001Z</time></trkpt><trkpt lat="-29.975958062725596" lon="115.13098335562515"><ele>55.0</ele><time>2026-04-13T03:19:41.001Z</time></trkpt><trkpt lat="-29.975837877672426" lon="115.13097964878287"><ele>55.25</ele><time>2026-04-13T03:19:42.001Z</time></trkpt><trkpt lat="-29.975711724580016" lon="115.13094990678978"><ele>55.5</ele><time>2026-04-13T03:19:43.001Z</time></trkpt><trkpt lat="-29.975575971550917" lon="115.13091419113316"><ele>55.75</ele><time>2026-04-13T03:19:44.001Z</time></trkpt><trkpt lat="-29.975432669606665" lon="115.13088923169414"><ele>56.0</ele><time>2026-04-13T03:19:45.001Z</time></trkpt><trkpt lat="-29.975282195783333" lon="115.13086548722177"><ele>56.0</ele><time>2026-04-13T03:19:46.001Z</time></trkpt><trkpt lat="-29.975125952016626" lon="115.13085874644167"><ele>56.0</ele><time>2026-04-13T03:19:47.001Z</time></trkpt><trkpt lat="-29.974970365851217" lon="115.1308372010023"><ele>56.0</ele><time>2026-04-13T03:19:48.001Z</time></trkpt><trkpt lat="-29.974814643569434" lon="115.13081090092861"><ele>56.0</ele><time>2026-04-13T03:19:49.001Z</time></trkpt><trkpt lat="-29.974658407083695" lon="115.13078591307323"><ele>56.0</ele><time>2026-04-13T03:19:50.001Z</time></trkpt><trkpt lat="-29.97450496044497" lon="115.13076132562172"><ele>56.0</ele><time>2026-04-13T03:19:51.001Z</time></trkpt><trkpt lat="-29.97434719399598" lon="115.13073441849936"><ele>54.333333333333336</ele><time>2026-04-13T03:19:52.001Z</time></trkpt><trkpt lat="-29.974194485825148" lon="115.13070559758633"><ele>52.66666666666667</ele><time>2026-04-13T03:19:53.001Z</time></trkpt><trkpt lat="-29.974046819528365" lon="115.13067681898517"><ele>51.0</ele><time>2026-04-13T03:19:54.001Z</time></trkpt><trkpt lat="-29.973902656916874" lon="115.13065099100785"><ele>53.0</ele><time>2026-04-13T03:19:55.001Z</time></trkpt><trkpt lat="-29.973766304258998" lon="115.13060605085946"><ele>55.0</ele><time>2026-04-13T03:19:56.001Z</time></trkpt><trkpt lat="-29.973625110661377" lon="115.13060026638814"><ele>57.0</ele><time>2026-04-13T03:19:57.001Z</time></trkpt><trkpt lat="-29.97348877254683" lon="115.1305745646343"><ele>59.0</ele><time>2026-04-13T03:19:58.001Z</time></trkpt><trkpt lat="-29.973353053101434" lon="115.13055160396307"><ele>59.0</ele><time>2026-04-13T03:19:59.001Z</time></trkpt><trkpt lat="-29.973220469127295" lon="115.1305286923498"><ele>59.0</ele><time>2026-04-13T03:20:00.001Z</time></trkpt><trkpt lat="-29.973087829081834" lon="115.1305082696707"><ele>59.0</ele><time>2026-04-13T03:20:01.001Z</time></trkpt><trkpt lat="-29.972959598970853" lon="115.13046085292963"><ele>59.0</ele><time>2026-04-13T03:20:02.001Z</time></trkpt><trkpt lat="-29.972828459351682" lon="115.130423854804"><ele>59.0</ele><time>2026-04-13T03:20:03.001Z</time></trkpt><trkpt lat="-29.972694944875588" lon="115.13039952014407"><ele>59.0</ele><time>2026-04-13T03:20:04.001Z</time></trkpt><trkpt lat="-29.9725574773264" lon="115.13037588813891"><ele>59.0</ele><time>2026-04-13T03:20:05.001Z</time></trkpt><trkpt lat="-29.972411962469344" lon="115.13035143042868"><ele>59.0</ele><time>2026-04-13T03:20:06.001Z</time></trkpt><trkpt lat="-29.972258869490314" lon="115.130325728453"><ele>57.333333333333336</ele><time>2026-04-13T03:20:07.001Z</time></trkpt><trkpt lat="-29.972095843628598" lon="115.13029839999602"><ele>55.66666666666667</ele><time>2026-04-13T03:20:08.001Z</time></trkpt><trkpt lat="-29.97192210049098" lon="115.13026990215532"><ele>54.0</ele><time>2026-04-13T03:20:09.001Z</time></trkpt><trkpt lat="-29.97172739908799" lon="115.13025674884604"><ele>53.33333333333333</ele><time>2026-04-13T03:20:10.001Z</time></trkpt><trkpt lat="-29.971529809155122" lon="115.13022244735562"><ele>52.666666666666664</ele><time>2026-04-13T03:20:11.001Z</time></trkpt><trkpt lat="-29.971318404841675" lon="115.13018435035396"><ele>52.0</ele><time>2026-04-13T03:20:12.001Z</time></trkpt><trkpt lat="-29.971096800122034" lon="115.1301440085356"><ele>52.0</ele><time>2026-04-13T03:20:13.001Z</time></trkpt><trkpt lat="-29.970877916113377" lon="115.13010617580572"><ele>52.0</ele><time>2026-04-13T03:20:14.001Z</time></trkpt><trkpt lat="-29.97066007325778" lon="115.13007056883298"><ele>52.0</ele><time>2026-04-13T03:20:15.001Z</time></trkpt><trkpt lat="-29.970439236048648" lon="115.13000963549541"><ele>52.5</ele><time>2026-04-13T03:20:16.001Z</time></trkpt><trkpt lat="-29.970206435497975" lon="115.12996106476832"><ele>53.0</ele><time>2026-04-13T03:20:17.001Z</time></trkpt><trkpt lat="-29.969961216723977" lon="115.12990892034269"><ele>52.0</ele><time>2026-04-13T03:20:18.001Z</time></trkpt><trkpt lat="-29.96970637874522" lon="115.12985479245737"><ele>51.0</ele><time>2026-04-13T03:20:19.001Z</time></trkpt><trkpt lat="-29.969471203171256" lon="115.1298085517561"><ele>51.0</ele><time>2026-04-13T03:20:20.001Z</time></trkpt><trkpt lat="-29.969233835959557" lon="115.129768139558"><ele>51.0</ele><time>2026-04-13T03:20:21.001Z</time></trkpt><trkpt lat="-29.968991111089426" lon="115.12973394174527"><ele>52.0</ele><time>2026-04-13T03:20:22.001Z</time></trkpt><trkpt lat="-29.968746571212925" lon="115.1296977039199"><ele>53.0</ele><time>2026-04-13T03:20:23.001Z</time></trkpt><trkpt lat="-29.968498539288458" lon="115.12965728711559"><ele>52.0</ele><time>2026-04-13T03:20:24.001Z</time></trkpt><trkpt lat="-29.96825216655124" lon="115.12961353817334"><ele>51.0</ele><time>2026-04-13T03:20:25Z</time></trkpt><trkpt lat="-29.968002935433223" lon="115.12956811031121"><ele>51.0</ele><time>2026-04-13T03:20:26Z</time></trkpt><trkpt lat="-29.96775261805349" lon="115.12952248638592"><ele>51.0</ele><time>2026-04-13T03:20:27Z</time></trkpt><trkpt lat="-29.967496476945858" lon="115.12947584358348"><ele>50.5</ele><time>2026-04-13T03:20:28Z</time></trkpt><trkpt lat="-29.967232210037405" lon="115.12942640530181"><ele>50.0</ele><time>2026-04-13T03:20:29Z</time></trkpt><trkpt lat="-29.96695557498574" lon="115.129375078362"><ele>50.5</ele><time>2026-04-13T03:20:30Z</time></trkpt><trkpt lat="-29.96667201158694" lon="115.12932318810888"><ele>51.0</ele><time>2026-04-13T03:20:31Z</time></trkpt><trkpt lat="-29.966398641040556" lon="115.12927311473625"><ele>51.0</ele><time>2026-04-13T03:20:32Z</time></trkpt><trkpt lat="-29.966139463532645" lon="115.12922580283359"><ele>51.0</ele><time>2026-04-13T03:20:33Z</time></trkpt><trkpt lat="-29.96588009143725" lon="115.1291794105399"><ele>50.5</ele><time>2026-04-13T03:20:34Z</time></trkpt><trkpt lat="-29.96561641378617" lon="115.12913149254737"><ele>50.0</ele><time>2026-04-13T03:20:35Z</time></trkpt><trkpt lat="-29.965344901682677" lon="115.12908375635531"><ele>50.0</ele><time>2026-04-13T03:20:36Z</time></trkpt><trkpt lat="-29.965069240417158" lon="115.1290376642741"><ele>50.0</ele><time>2026-04-13T03:20:37Z</time></trkpt><trkpt lat="-29.96479879825098" lon="115.12899364389908"><ele>50.0</ele><time>2026-04-13T03:20:38Z</time></trkpt><trkpt lat="-29.964528661452707" lon="115.12895083317109"><ele>50.0</ele><time>2026-04-13T03:20:39Z</time></trkpt><trkpt lat="-29.964261537186502" lon="115.12890858754689"><ele>50.0</ele><time>2026-04-13T03:20:40Z</time></trkpt><trkpt lat="-29.96399268881356" lon="115.12886606904401"><ele>50.0</ele><time>2026-04-13T03:20:41Z</time></trkpt><trkpt lat="-29.963721423757978" lon="115.12884091077245"><ele>50.0</ele><time>2026-04-13T03:20:42Z</time></trkpt><trkpt lat="-29.96345461665145" lon="115.12879030883717"><ele>50.0</ele><time>2026-04-13T03:20:43Z</time></trkpt><trkpt lat="-29.963184186153196" lon="115.12874685243219"><ele>49.0</ele><time>2026-04-13T03:20:44Z</time></trkpt><trkpt lat="-29.962914780689758" lon="115.1286984700336"><ele>48.0</ele><time>2026-04-13T03:20:45Z</time></trkpt><trkpt lat="-29.962642454119223" lon="115.12865013056731"><ele>48.5</ele><time>2026-04-13T03:20:46Z</time></trkpt><trkpt lat="-29.96236361624673" lon="115.12860073890027"><ele>49.0</ele><time>2026-04-13T03:20:47Z</time></trkpt><trkpt lat="-29.962082105319787" lon="115.128551820326"><ele>49.0</ele><time>2026-04-13T03:20:48Z</time></trkpt><trkpt lat="-29.961802161056777" lon="115.12850113714813"><ele>49.0</ele><time>2026-04-13T03:20:49Z</time></trkpt><trkpt lat="-29.961521183145393" lon="115.12845224388984"><ele>45.5</ele><time>2026-04-13T03:20:50Z</time></trkpt><trkpt lat="-29.961242712396256" lon="115.12840698907726"><ele>42.0</ele><time>2026-04-13T03:20:51Z</time></trkpt><trkpt lat="-29.96096629460427" lon="115.12836041618007"><ele>44.5</ele><time>2026-04-13T03:20:52Z</time></trkpt><trkpt lat="-29.960693097412985" lon="115.12830854141083"><ele>47.0</ele><time>2026-04-13T03:20:53Z</time></trkpt><trkpt lat="-29.96042147279952" lon="115.12825803317168"><ele>46.5</ele><time>2026-04-13T03:20:54Z</time></trkpt><trkpt lat="-29.960151015667286" lon="115.1282079741783"><ele>46.0</ele><time>2026-04-13T03:20:55Z</time></trkpt><trkpt lat="-29.95988042218949" lon="115.12815803479334"><ele>47.0</ele><time>2026-04-13T03:20:56Z</time></trkpt><trkpt lat="-29.95960859459711" lon="115.12811005153084"><ele>48.0</ele><time>2026-04-13T03:20:57Z</time></trkpt><trkpt lat="-29.959344035231503" lon="115.1280636629555"><ele>46.5</ele><time>2026-04-13T03:20:58Z</time></trkpt><trkpt lat="-29.95907841957904" lon="115.12801810546311"><ele>45.0</ele><time>2026-04-13T03:20:59Z</time></trkpt><trkpt lat="-29.958809685809797" lon="115.127968739919"><ele>45.0</ele><time>2026-04-13T03:21:00Z</time></trkpt><trkpt lat="-29.958545450438503" lon="115.1279155046861"><ele>45.0</ele><time>2026-04-13T03:21:01Z</time></trkpt><trkpt lat="-29.95828002428382" lon="115.12786198657051"><ele>47.0</ele><time>2026-04-13T03:21:02Z</time></trkpt><trkpt lat="-29.95801786743235" lon="115.1278125227371"><ele>49.0</ele><time>2026-04-13T03:21:03Z</time></trkpt><trkpt lat="-29.957751869737855" lon="115.12776475819895"><ele>48.5</ele><time>2026-04-13T03:21:04Z</time></trkpt><trkpt lat="-29.95748811597126" lon="115.12771794001237"><ele>48.0</ele><time>2026-04-13T03:21:05Z</time></trkpt><trkpt lat="-29.957230067806503" lon="115.12767410982767"><ele>48.0</ele><time>2026-04-13T03:21:06Z</time></trkpt><trkpt lat="-29.956973775149468" lon="115.12763117811745"><ele>48.0</ele><time>2026-04-13T03:21:07Z</time></trkpt><trkpt lat="-29.95671412946022" lon="115.12758673544526"><ele>47.5</ele><time>2026-04-13T03:21:08Z</time></trkpt><trkpt lat="-29.956458051963995" lon="115.12754226777608"><ele>47.0</ele><time>2026-04-13T03:21:09Z</time></trkpt><trkpt lat="-29.95620019480579" lon="115.12749504321235"><ele>47.0</ele><time>2026-04-13T03:21:10Z</time></trkpt><trkpt lat="-29.95594042782149" lon="115.12744624066697"><ele>47.0</ele><time>2026-04-13T03:21:11Z</time></trkpt><trkpt lat="-29.9556752888828" lon="115.12739811044285"><ele>48.0</ele><time>2026-04-13T03:21:12Z</time></trkpt><trkpt lat="-29.955407214356658" lon="115.12735097152395"><ele>49.0</ele><time>2026-04-13T03:21:13Z</time></trkpt><trkpt lat="-29.955144266526318" lon="115.12730256714461"><ele>49.5</ele><time>2026-04-13T03:21:14Z</time></trkpt><trkpt lat="-29.954881249317875" lon="115.12725193016608"><ele>50.0</ele><time>2026-04-13T03:21:15Z</time></trkpt><trkpt lat="-29.954618231220916" lon="115.12720200971239"><ele>50.0</ele><time>2026-04-13T03:21:16Z</time></trkpt><trkpt lat="-29.95435381343803" lon="115.12715368972077"><ele>50.0</ele><time>2026-04-13T03:21:17Z</time></trkpt><trkpt lat="-29.954090825335133" lon="115.12710779713257"><ele>48.0</ele><time>2026-04-13T03:21:18Z</time></trkpt><trkpt lat="-29.95382157936887" lon="115.12706040951844"><ele>46.0</ele><time>2026-04-13T03:21:19Z</time></trkpt><trkpt lat="-29.953553026245224" lon="115.12701453370025"><ele>45.0</ele><time>2026-04-13T03:21:20Z</time></trkpt><trkpt lat="-29.953287639599136" lon="115.12696826782795"><ele>44.0</ele><time>2026-04-13T03:21:21Z</time></trkpt><trkpt lat="-29.95301973796302" lon="115.12692163568579"><ele>44.0</ele><time>2026-04-13T03:21:22Z</time></trkpt><trkpt lat="-29.952748002461338" lon="115.12687573261515"><ele>44.0</ele><time>2026-04-13T03:21:23Z</time></trkpt><trkpt lat="-29.952475734667253" lon="115.12682839294928"><ele>44.5</ele><time>2026-04-13T03:21:24Z</time></trkpt><trkpt lat="-29.95221338977911" lon="115.12677876234127"><ele>45.0</ele><time>2026-04-13T03:21:25Z</time></trkpt><trkpt lat="-29.951932635403793" lon="115.12672324504281"><ele>46.0</ele><time>2026-04-13T03:21:26Z</time></trkpt><trkpt lat="-29.95165684201757" lon="115.1266695456525"><ele>47.0</ele><time>2026-04-13T03:21:27Z</time></trkpt><trkpt lat="-29.95138001870362" lon="115.1266154397648"><ele>47.0</ele><time>2026-04-13T03:21:28Z</time></trkpt><trkpt lat="-29.95111899126202" lon="115.12656801036964"><ele>47.0</ele><time>2026-04-13T03:21:29Z</time></trkpt><trkpt lat="-29.950866908216547" lon="115.12652218571313"><ele>46.0</ele><time>2026-04-13T03:21:30Z</time></trkpt><trkpt lat="-29.95062062286084" lon="115.12648119662488"><ele>45.0</ele><time>2026-04-13T03:21:31Z</time></trkpt><trkpt lat="-29.950375066239886" lon="115.12643704660837"><ele>45.0</ele><time>2026-04-13T03:21:32Z</time></trkpt><trkpt lat="-29.950140468603546" lon="115.12639600006517"><ele>45.0</ele><time>2026-04-13T03:21:33Z</time></trkpt><trkpt lat="-29.94991680972654" lon="115.1263569289292"><ele>46.0</ele><time>2026-04-13T03:21:34Z</time></trkpt><trkpt lat="-29.94969175581349" lon="115.1263269962462"><ele>47.0</ele><time>2026-04-13T03:21:35Z</time></trkpt><trkpt lat="-29.94945750573618" lon="115.12631574920874"><ele>47.0</ele><time>2026-04-13T03:21:36Z</time></trkpt><trkpt lat="-29.949208593121305" lon="115.12632556803504"><ele>47.0</ele><time>2026-04-13T03:21:37Z</time></trkpt><trkpt lat="-29.94894464361046" lon="115.12635479103074"><ele>47.0</ele><time>2026-04-13T03:21:38Z</time></trkpt><trkpt lat="-29.948665162383985" lon="115.12640453590771"><ele>47.0</ele><time>2026-04-13T03:21:39Z</time></trkpt><trkpt lat="-29.948382368828433" lon="115.12645667829048"><ele>44.5</ele><time>2026-04-13T03:21:40Z</time></trkpt><trkpt lat="-29.948114236032072" lon="115.12650259758024"><ele>42.0</ele><time>2026-04-13T03:21:41Z</time></trkpt><trkpt lat="-29.947850740871267" lon="115.1265406211869"><ele>43.0</ele><time>2026-04-13T03:21:42Z</time></trkpt><trkpt lat="-29.94758140876283" lon="115.12657652314952"><ele>44.0</ele><time>2026-04-13T03:21:43Z</time></trkpt><trkpt lat="-29.947318112477863" lon="115.12661365533127"><ele>44.0</ele><time>2026-04-13T03:21:44Z</time></trkpt><trkpt lat="-29.947056169938005" lon="115.12664786961778"><ele>44.0</ele><time>2026-04-13T03:21:45Z</time></trkpt><trkpt lat="-29.94679835866381" lon="115.12668026724526"><ele>43.5</ele><time>2026-04-13T03:21:46Z</time></trkpt><trkpt lat="-29.94654702413266" lon="115.12671183624582"><ele>43.0</ele><time>2026-04-13T03:21:47.001Z</time></trkpt><trkpt lat="-29.94629038430702" lon="115.12674707963774"><ele>43.0</ele><time>2026-04-13T03:21:48.001Z</time></trkpt><trkpt lat="-29.94603730351848" lon="115.12678875593677"><ele>43.0</ele><time>2026-04-13T03:21:49.001Z</time></trkpt><trkpt lat="-29.945783809503823" lon="115.12683113217838"><ele>42.5</ele><time>2026-04-13T03:21:50.001Z</time></trkpt><trkpt lat="-29.94551979380316" lon="115.12687089758015"><ele>42.0</ele><time>2026-04-13T03:21:51.001Z</time></trkpt><trkpt lat="-29.945252519851987" lon="115.12690907596512"><ele>43.5</ele><time>2026-04-13T03:21:52.001Z</time></trkpt><trkpt lat="-29.944987299683728" lon="115.12695305489589"><ele>45.0</ele><time>2026-04-13T03:21:53.001Z</time></trkpt><trkpt lat="-29.944716310391023" lon="115.12699526863707"><ele>45.0</ele><time>2026-04-13T03:21:54.001Z</time></trkpt><trkpt lat="-29.944442315674" lon="115.1270371521315"><ele>45.0</ele><time>2026-04-13T03:21:55.001Z</time></trkpt><trkpt lat="-29.944165673183637" lon="115.12707905678475"><ele>44.0</ele><time>2026-04-13T03:21:56.001Z</time></trkpt><trkpt lat="-29.94388560766609" lon="115.127121264583"><ele>43.0</ele><time>2026-04-13T03:21:57.001Z</time></trkpt><trkpt lat="-29.94361124723775" lon="115.12716107107254"><ele>45.5</ele><time>2026-04-13T03:21:58.001Z</time></trkpt><trkpt lat="-29.943339557683043" lon="115.12720060813182"><ele>48.0</ele><time>2026-04-13T03:21:59.001Z</time></trkpt><trkpt lat="-29.943067361682697" lon="115.12726293838288"><ele>48.0</ele><time>2026-04-13T03:22:00.001Z</time></trkpt><trkpt lat="-29.942798422746478" lon="115.12729852288271"><ele>48.0</ele><time>2026-04-13T03:22:01.001Z</time></trkpt><trkpt lat="-29.942535103468913" lon="115.12731569473229"><ele>47.5</ele><time>2026-04-13T03:22:02.001Z</time></trkpt><trkpt lat="-29.94226730621364" lon="115.12735394268525"><ele>47.0</ele><time>2026-04-13T03:22:03.001Z</time></trkpt><trkpt lat="-29.942005629055114" lon="115.12739443803954"><ele>46.5</ele><time>2026-04-13T03:22:04.001Z</time></trkpt><trkpt lat="-29.941750124219144" lon="115.12743069790072"><ele>46.0</ele><time>2026-04-13T03:22:05.001Z</time></trkpt><trkpt lat="-29.94147970489855" lon="115.12746802795611"><ele>45.0</ele><time>2026-04-13T03:22:06.001Z</time></trkpt><trkpt lat="-29.941213232295947" lon="115.12750404455824"><ele>44.0</ele><time>2026-04-13T03:22:07.001Z</time></trkpt><trkpt lat="-29.94094462489955" lon="115.1275420222908"><ele>43.0</ele><time>2026-04-13T03:22:08.001Z</time></trkpt><trkpt lat="-29.940678763801994" lon="115.1275828671604"><ele>42.0</ele><time>2026-04-13T03:22:09.001Z</time></trkpt><trkpt lat="-29.940416442645542" lon="115.12762261113018"><ele>42.0</ele><time>2026-04-13T03:22:10.001Z</time></trkpt><trkpt lat="-29.940149497408242" lon="115.12766152320651"><ele>42.0</ele><time>2026-04-13T03:22:11.001Z</time></trkpt><trkpt lat="-29.93988310546737" lon="115.12769897167416"><ele>43.0</ele><time>2026-04-13T03:22:12.001Z</time></trkpt><trkpt lat="-29.939609593538183" lon="115.12773898128802"><ele>44.0</ele><time>2026-04-13T03:22:13.001Z</time></trkpt><trkpt lat="-29.939331879861157" lon="115.12777886689629"><ele>44.0</ele><time>2026-04-13T03:22:14.001Z</time></trkpt><trkpt lat="-29.939062850575446" lon="115.12781517273109"><ele>44.0</ele><time>2026-04-13T03:22:15.001Z</time></trkpt><trkpt lat="-29.93880603204571" lon="115.12785407118662"><ele>44.0</ele><time>2026-04-13T03:22:16.001Z</time></trkpt><trkpt lat="-29.93856184328224" lon="115.12790096603344"><ele>44.0</ele><time>2026-04-13T03:22:17.001Z</time></trkpt><trkpt lat="-29.93832542090294" lon="115.12796531085996"><ele>44.5</ele><time>2026-04-13T03:22:18.001Z</time></trkpt><trkpt lat="-29.938085544233783" lon="115.12805026894601"><ele>45.0</ele><time>2026-04-13T03:22:19.001Z</time></trkpt><trkpt lat="-29.937845111019193" lon="115.1281665359707"><ele>45.0</ele><time>2026-04-13T03:22:20.001Z</time></trkpt><trkpt lat="-29.93760836565176" lon="115.12829229388292"><ele>45.0</ele><time>2026-04-13T03:22:21.001Z</time></trkpt><trkpt lat="-29.937370736263876" lon="115.12843065580681"><ele>44.5</ele><time>2026-04-13T03:22:22.001Z</time></trkpt><trkpt lat="-29.937125189238373" lon="115.12856537553286"><ele>44.0</ele><time>2026-04-13T03:22:23.001Z</time></trkpt><trkpt lat="-29.936880390260797" lon="115.12869763999969"><ele>44.5</ele><time>2026-04-13T03:22:24.001Z</time></trkpt><trkpt lat="-29.936632339214782" lon="115.12882893776649"><ele>45.0</ele><time>2026-04-13T03:22:25.001Z</time></trkpt><trkpt lat="-29.93639127762605" lon="115.12895843120802"><ele>45.5</ele><time>2026-04-13T03:22:26.001Z</time></trkpt><trkpt lat="-29.936142650111076" lon="115.12906850707581"><ele>46.0</ele><time>2026-04-13T03:22:27.001Z</time></trkpt><trkpt lat="-29.935905312173837" lon="115.12918453072749"><ele>45.5</ele><time>2026-04-13T03:22:28.001Z</time></trkpt><trkpt lat="-29.93567405727701" lon="115.12931543752713"><ele>45.0</ele><time>2026-04-13T03:22:29.001Z</time></trkpt><trkpt lat="-29.935434323250842" lon="115.12943155748862"><ele>45.0</ele><time>2026-04-13T03:22:30.001Z</time></trkpt><trkpt lat="-29.935189699290916" lon="115.12956109426023"><ele>45.0</ele><time>2026-04-13T03:22:31Z</time></trkpt><trkpt lat="-29.934939189023826" lon="115.12969444833249"><ele>45.0</ele><time>2026-04-13T03:22:32Z</time></trkpt><trkpt lat="-29.9346864733121" lon="115.12982648294997"><ele>45.0</ele><time>2026-04-13T03:22:33Z</time></trkpt><trkpt lat="-29.934435783927796" lon="115.12995554932206"><ele>45.5</ele><time>2026-04-13T03:22:34Z</time></trkpt><trkpt lat="-29.934189606869293" lon="115.13008110677919"><ele>46.0</ele><time>2026-04-13T03:22:35Z</time></trkpt><trkpt lat="-29.933961256196774" lon="115.13020034139969"><ele>46.0</ele><time>2026-04-13T03:22:36Z</time></trkpt><trkpt lat="-29.933733922482507" lon="115.13031763055817"><ele>46.0</ele><time>2026-04-13T03:22:37Z</time></trkpt><trkpt lat="-29.933498700949194" lon="115.13044041044394"><ele>44.0</ele><time>2026-04-13T03:22:38Z</time></trkpt><trkpt lat="-29.93325623937361" lon="115.13056589040339"><ele>42.0</ele><time>2026-04-13T03:22:39Z</time></trkpt><trkpt lat="-29.93301006335929" lon="115.13069218666894"><ele>42.5</ele><time>2026-04-13T03:22:40Z</time></trkpt><trkpt lat="-29.93276082710626" lon="115.13081856717896"><ele>43.0</ele><time>2026-04-13T03:22:41Z</time></trkpt><trkpt lat="-29.932508587337754" lon="115.13094486306674"><ele>43.0</ele><time>2026-04-13T03:22:42Z</time></trkpt><trkpt lat="-29.932251596554007" lon="115.13107531324982"><ele>43.0</ele><time>2026-04-13T03:22:43Z</time></trkpt><trkpt lat="-29.931994318732144" lon="115.13120736555645"><ele>43.0</ele><time>2026-04-13T03:22:44Z</time></trkpt><trkpt lat="-29.93173619473389" lon="115.13134101982426"><ele>43.0</ele><time>2026-04-13T03:22:45Z</time></trkpt><trkpt lat="-29.931477085579537" lon="115.13147824645407"><ele>43.5</ele><time>2026-04-13T03:22:46Z</time></trkpt><trkpt lat="-29.93121966897485" lon="115.13161055120462"><ele>44.0</ele><time>2026-04-13T03:22:47Z</time></trkpt><trkpt lat="-29.930963247728755" lon="115.13174171631046"><ele>44.0</ele><time>2026-04-13T03:22:48Z</time></trkpt><trkpt lat="-29.930704577460688" lon="115.13187575690306"><ele>44.0</ele><time>2026-04-13T03:22:49Z</time></trkpt><trkpt lat="-29.930449032423976" lon="115.13201140703022"><ele>44.0</ele><time>2026-04-13T03:22:50Z</time></trkpt><trkpt lat="-29.930196708114497" lon="115.13212249226852"><ele>44.0</ele><time>2026-04-13T03:22:51Z</time></trkpt><trkpt lat="-29.929965606913314" lon="115.1322395922344"><ele>44.5</ele><time>2026-04-13T03:22:52Z</time></trkpt><trkpt lat="-29.929742241384915" lon="115.13235268941794"><ele>45.0</ele><time>2026-04-13T03:22:53Z</time></trkpt><trkpt lat="-29.929526731122248" lon="115.13246202261669"><ele>45.0</ele><time>2026-04-13T03:22:54Z</time></trkpt><trkpt lat="-29.92930104836033" lon="115.13257665599465"><ele>45.0</ele><time>2026-04-13T03:22:55Z</time></trkpt><trkpt lat="-29.92907244340316" lon="115.13271475340102"><ele>45.0</ele><time>2026-04-13T03:22:56Z</time></trkpt><trkpt lat="-29.928829975201243" lon="115.13283677321287"><ele>45.0</ele><time>2026-04-13T03:22:57Z</time></trkpt><trkpt lat="-29.928573625123413" lon="115.132965591941"><ele>45.0</ele><time>2026-04-13T03:22:58Z</time></trkpt><trkpt lat="-29.928315181578597" lon="115.13309613015895"><ele>45.0</ele><time>2026-04-13T03:22:59Z</time></trkpt><trkpt lat="-29.92805786140002" lon="115.13322724687387"><ele>45.0</ele><time>2026-04-13T03:23:00Z</time></trkpt><trkpt lat="-29.927801351012448" lon="115.13335862512831"><ele>45.0</ele><time>2026-04-13T03:23:01Z</time></trkpt><trkpt lat="-29.92754665776919" lon="115.13349060266748"><ele>45.0</ele><time>2026-04-13T03:23:02Z</time></trkpt><trkpt lat="-29.927284183243422" lon="115.13362479029936"><ele>45.0</ele><time>2026-04-13T03:23:03Z</time></trkpt><trkpt lat="-29.92704901309119" lon="115.13374867889947"><ele>45.0</ele><time>2026-04-13T03:23:04Z</time></trkpt><trkpt lat="-29.926817255705743" lon="115.13386908178829"><ele>45.0</ele><time>2026-04-13T03:23:05Z</time></trkpt><trkpt lat="-29.926586106373424" lon="115.13398539438204"><ele>45.5</ele><time>2026-04-13T03:23:06Z</time></trkpt><trkpt lat="-29.926353876298112" lon="115.13408284157669"><ele>46.0</ele><time>2026-04-13T03:23:07Z</time></trkpt><trkpt lat="-29.926138155624024" lon="115.13418565794795"><ele>46.0</ele><time>2026-04-13T03:23:08Z</time></trkpt><trkpt lat="-29.925918825726278" lon="115.13429019454173"><ele>46.0</ele><time>2026-04-13T03:23:09Z</time></trkpt><trkpt lat="-29.925702752428677" lon="115.1343953622881"><ele>47.5</ele><time>2026-04-13T03:23:10Z</time></trkpt><trkpt lat="-29.92549835225771" lon="115.13454025325007"><ele>49.0</ele><time>2026-04-13T03:23:11Z</time></trkpt><trkpt lat="-29.925281653884454" lon="115.13465553730553"><ele>49.0</ele><time>2026-04-13T03:23:12Z</time></trkpt><trkpt lat="-29.925062952056685" lon="115.13477609382856"><ele>49.0</ele><time>2026-04-13T03:23:13Z</time></trkpt><trkpt lat="-29.9248438173452" lon="115.1348978538815"><ele>47.0</ele><time>2026-04-13T03:23:14Z</time></trkpt><trkpt lat="-29.924615980650024" lon="115.13502143092457"><ele>45.0</ele><time>2026-04-13T03:23:15Z</time></trkpt><trkpt lat="-29.924389751144663" lon="115.13513951396835"><ele>46.0</ele><time>2026-04-13T03:23:16Z</time></trkpt><trkpt lat="-29.924161199111442" lon="115.13525596317048"><ele>47.0</ele><time>2026-04-13T03:23:17Z</time></trkpt><trkpt lat="-29.923934024063694" lon="115.13537065594595"><ele>47.0</ele><time>2026-04-13T03:23:18Z</time></trkpt><trkpt lat="-29.92372233749306" lon="115.1354788814711"><ele>47.0</ele><time>2026-04-13T03:23:19Z</time></trkpt><trkpt lat="-29.92351871706675" lon="115.13558250125078"><ele>46.5</ele><time>2026-04-13T03:23:20Z</time></trkpt><trkpt lat="-29.92331291223315" lon="115.13568774191754"><ele>46.0</ele><time>2026-04-13T03:23:21Z</time></trkpt><trkpt lat="-29.92310236950902" lon="115.13579736870462"><ele>46.0</ele><time>2026-04-13T03:23:22Z</time></trkpt><trkpt lat="-29.92289363705551" lon="115.1359043503237"><ele>46.0</ele><time>2026-04-13T03:23:23Z</time></trkpt><trkpt lat="-29.92269652131043" lon="115.13600661259161"><ele>46.0</ele><time>2026-04-13T03:23:24Z</time></trkpt><trkpt lat="-29.922506997747263" lon="115.13610955529144"><ele>44.333333333333336</ele><time>2026-04-13T03:23:25Z</time></trkpt><trkpt lat="-29.922321169168278" lon="115.13620805965589"><ele>42.666666666666664</ele><time>2026-04-13T03:23:26Z</time></trkpt><trkpt lat="-29.9221204099771" lon="115.1363104986291"><ele>41.0</ele><time>2026-04-13T03:23:27Z</time></trkpt><trkpt lat="-29.921919781921012" lon="115.13641181993654"><ele>41.0</ele><time>2026-04-13T03:23:28Z</time></trkpt><trkpt lat="-29.921735474652884" lon="115.13650576994235"><ele>41.0</ele><time>2026-04-13T03:23:29Z</time></trkpt><trkpt lat="-29.92156893016025" lon="115.13659523265143"><ele>41.0</ele><time>2026-04-13T03:23:30Z</time></trkpt><trkpt lat="-29.92140847523856" lon="115.13668312614516"><ele>42.33333333333333</ele><time>2026-04-13T03:23:31Z</time></trkpt><trkpt lat="-29.921259208721224" lon="115.13676408879972"><ele>43.666666666666664</ele><time>2026-04-13T03:23:32Z</time></trkpt><trkpt lat="-29.921119430475322" lon="115.13684172813967"><ele>45.0</ele><time>2026-04-13T03:23:33Z</time></trkpt><trkpt lat="-29.9209785466782" lon="115.1369210271109"><ele>45.0</ele><time>2026-04-13T03:23:34Z</time></trkpt><trkpt lat="-29.920848770792432" lon="115.13699071885588"><ele>45.0</ele><time>2026-04-13T03:23:35Z</time></trkpt><trkpt lat="-29.920722708273093" lon="115.13704343399142"><ele>45.0</ele><time>2026-04-13T03:23:36Z</time></trkpt><trkpt lat="-29.920607253500815" lon="115.13708157690895"><ele>45.0</ele><time>2026-04-13T03:23:37Z</time></trkpt><trkpt lat="-29.92050427267145" lon="115.13710346373969"><ele>45.0</ele><time>2026-04-13T03:23:38Z</time></trkpt><trkpt lat="-29.920420886891733" lon="115.1371108490745"><ele>45.0</ele><time>2026-04-13T03:23:39Z</time></trkpt><trkpt lat="-29.920333915199123" lon="115.13710615860339"><ele>45.0</ele><time>2026-04-13T03:23:40Z</time></trkpt><trkpt lat="-29.920237538674648" lon="115.1370712031256"><ele>45.0</ele><time>2026-04-13T03:23:41.001Z</time></trkpt><trkpt lat="-29.92012397262075" lon="115.13701874118433"><ele>45.0</ele><time>2026-04-13T03:23:42.001Z</time></trkpt><trkpt lat="-29.919988134659327" lon="115.13694057554964"><ele>44.333333333333336</ele><time>2026-04-13T03:23:43.001Z</time></trkpt><trkpt lat="-29.919826803549363" lon="115.13687567700134"><ele>43.66666666666667</ele><time>2026-04-13T03:23:44.001Z</time></trkpt><trkpt lat="-29.919657635168583" lon="115.13681727271582"><ele>43.0</ele><time>2026-04-13T03:23:45.001Z</time></trkpt><trkpt lat="-29.919481679442722" lon="115.13675618327593"><ele>43.0</ele><time>2026-04-13T03:23:46.001Z</time></trkpt><trkpt lat="-29.919297499172075" lon="115.13668978983786"><ele>43.0</ele><time>2026-04-13T03:23:47.001Z</time></trkpt><trkpt lat="-29.91910303588514" lon="115.13661821464123"><ele>43.0</ele><time>2026-04-13T03:23:48.001Z</time></trkpt><trkpt lat="-29.918906028518887" lon="115.13654879420923"><ele>43.0</ele><time>2026-04-13T03:23:49.001Z</time></trkpt><trkpt lat="-29.918698952615326" lon="115.1364772999359"><ele>43.0</ele><time>2026-04-13T03:23:50.001Z</time></trkpt><trkpt lat="-29.918496498409116" lon="115.13641389088197"><ele>43.0</ele><time>2026-04-13T03:23:51.001Z</time></trkpt><trkpt lat="-29.91829521611729" lon="115.13634248780546"><ele>43.0</ele><time>2026-04-13T03:23:52.001Z</time></trkpt><trkpt lat="-29.91808756011115" lon="115.13626466961162"><ele>43.0</ele><time>2026-04-13T03:23:53.001Z</time></trkpt><trkpt lat="-29.917878735655595" lon="115.13618562966825"><ele>43.0</ele><time>2026-04-13T03:23:54.001Z</time></trkpt><trkpt lat="-29.917672586810625" lon="115.13611624993598"><ele>43.333333333333336</ele><time>2026-04-13T03:23:55.001Z</time></trkpt><trkpt lat="-29.917459941822507" lon="115.13604568229349"><ele>43.666666666666664</ele><time>2026-04-13T03:23:56.001Z</time></trkpt><trkpt lat="-29.917249429784736" lon="115.13597721789823"><ele>44.0</ele><time>2026-04-13T03:23:57.001Z</time></trkpt><trkpt lat="-29.917039651754557" lon="115.1359106042771"><ele>44.0</ele><time>2026-04-13T03:23:58.001Z</time></trkpt><trkpt lat="-29.916827885247244" lon="115.1358376759419"><ele>44.0</ele><time>2026-04-13T03:23:59.001Z</time></trkpt><trkpt lat="-29.91661394287748" lon="115.1357558286765"><ele>44.0</ele><time>2026-04-13T03:24:00.001Z</time></trkpt><trkpt lat="-29.916399642028384" lon="115.13567493897604"><ele>43.5</ele><time>2026-04-13T03:24:01.001Z</time></trkpt><trkpt lat="-29.916180129870597" lon="115.135594564668"><ele>43.0</ele><time>2026-04-13T03:24:02.001Z</time></trkpt><trkpt lat="-29.915947842127313" lon="115.13551554515635"><ele>44.0</ele><time>2026-04-13T03:24:03.001Z</time></trkpt><trkpt lat="-29.915715674741996" lon="115.13543877044684"><ele>45.0</ele><time>2026-04-13T03:24:04.001Z</time></trkpt><trkpt lat="-29.915497132287097" lon="115.13536505716654"><ele>45.0</ele><time>2026-04-13T03:24:05.001Z</time></trkpt><trkpt lat="-29.915288098423087" lon="115.1352890440063"><ele>45.0</ele><time>2026-04-13T03:24:06.001Z</time></trkpt><trkpt lat="-29.91508229470709" lon="115.13521618015015"><ele>45.0</ele><time>2026-04-13T03:24:07.001Z</time></trkpt><trkpt lat="-29.91487132756816" lon="115.1351440295444"><ele>43.666666666666664</ele><time>2026-04-13T03:24:08.001Z</time></trkpt><trkpt lat="-29.91465945969991" lon="115.13507666698268"><ele>42.33333333333333</ele><time>2026-04-13T03:24:09.001Z</time></trkpt><trkpt lat="-29.914451309391467" lon="115.1350265712553"><ele>41.0</ele><time>2026-04-13T03:24:10.001Z</time></trkpt><trkpt lat="-29.914231321094867" lon="115.13498772517462"><ele>41.0</ele><time>2026-04-13T03:24:11.001Z</time></trkpt><trkpt lat="-29.913996930775767" lon="115.13496704405922"><ele>41.0</ele><time>2026-04-13T03:24:12.001Z</time></trkpt><trkpt lat="-29.91376047138932" lon="115.13495934471763"><ele>41.0</ele><time>2026-04-13T03:24:13.001Z</time></trkpt><trkpt lat="-29.913533507844317" lon="115.1349558277885"><ele>41.0</ele><time>2026-04-13T03:24:14.001Z</time></trkpt><trkpt lat="-29.91331427480305" lon="115.13496354685057"><ele>41.0</ele><time>2026-04-13T03:24:15.001Z</time></trkpt><trkpt lat="-29.913085800964907" lon="115.13499277608906"><ele>40.5</ele><time>2026-04-13T03:24:16.001Z</time></trkpt><trkpt lat="-29.912841900280448" lon="115.13501201052192"><ele>40.0</ele><time>2026-04-13T03:24:17.001Z</time></trkpt><trkpt lat="-29.91259816021353" lon="115.13508872931367"><ele>40.0</ele><time>2026-04-13T03:24:18.001Z</time></trkpt><trkpt lat="-29.91234924255633" lon="115.13514990069199"><ele>40.0</ele><time>2026-04-13T03:24:19.001Z</time></trkpt><trkpt lat="-29.912116795683335" lon="115.13521112801696"><ele>40.0</ele><time>2026-04-13T03:24:20.001Z</time></trkpt><trkpt lat="-29.911907485111435" lon="115.13529810332935"><ele>40.0</ele><time>2026-04-13T03:24:21.001Z</time></trkpt><trkpt lat="-29.911718094437674" lon="115.13542229065446"><ele>40.0</ele><time>2026-04-13T03:24:22.001Z</time></trkpt><trkpt lat="-29.911510071232943" lon="115.13553949390939"><ele>40.5</ele><time>2026-04-13T03:24:23.001Z</time></trkpt><trkpt lat="-29.911308080587137" lon="115.13566147803243"><ele>41.0</ele><time>2026-04-13T03:24:24.001Z</time></trkpt><trkpt lat="-29.911101383659577" lon="115.13576476346579"><ele>41.0</ele><time>2026-04-13T03:24:25.001Z</time></trkpt><trkpt lat="-29.910905517308798" lon="115.13589863109205"><ele>41.0</ele><time>2026-04-13T03:24:26.001Z</time></trkpt><trkpt lat="-29.91073147637479" lon="115.1360639511846"><ele>41.0</ele><time>2026-04-13T03:24:27.001Z</time></trkpt><trkpt lat="-29.910557699227947" lon="115.13623897919321"><ele>41.0</ele><time>2026-04-13T03:24:28.001Z</time></trkpt><trkpt lat="-29.91037791053837" lon="115.1364252188331"><ele>41.0</ele><time>2026-04-13T03:24:29.001Z</time></trkpt><trkpt lat="-29.910192997537383" lon="115.13661890880448"><ele>41.0</ele><time>2026-04-13T03:24:30.001Z</time></trkpt><trkpt lat="-29.910010287308424" lon="115.1368444827064"><ele>41.0</ele><time>2026-04-13T03:24:31.001Z</time></trkpt><trkpt lat="-29.909861999532556" lon="115.1370919886894"><ele>41.0</ele><time>2026-04-13T03:24:32.001Z</time></trkpt><trkpt lat="-29.90973047242738" lon="115.13736001584756"><ele>40.5</ele><time>2026-04-13T03:24:33.001Z</time></trkpt><trkpt lat="-29.909610805023515" lon="115.13763028769849"><ele>40.0</ele><time>2026-04-13T03:24:34.001Z</time></trkpt><trkpt lat="-29.909467388892864" lon="115.13786146787959"><ele>40.0</ele><time>2026-04-13T03:24:35.001Z</time></trkpt><trkpt lat="-29.909337742833834" lon="115.13810539062519"><ele>40.0</ele><time>2026-04-13T03:24:36.001Z</time></trkpt><trkpt lat="-29.90920270277626" lon="115.13835982503849"><ele>39.0</ele><time>2026-04-13T03:24:37Z</time></trkpt><trkpt lat="-29.909069546133416" lon="115.13861372089825"><ele>38.0</ele><time>2026-04-13T03:24:38Z</time></trkpt><trkpt lat="-29.90894356997155" lon="115.13885392539694"><ele>38.5</ele><time>2026-04-13T03:24:39Z</time></trkpt><trkpt lat="-29.908819125459054" lon="115.13909204479691"><ele>39.0</ele><time>2026-04-13T03:24:40Z</time></trkpt><trkpt lat="-29.908705951065542" lon="115.13931081682806"><ele>39.0</ele><time>2026-04-13T03:24:41Z</time></trkpt><trkpt lat="-29.90858870105273" lon="115.13953653478016"><ele>39.0</ele><time>2026-04-13T03:24:42Z</time></trkpt><trkpt lat="-29.908474561757586" lon="115.13975558456222"><ele>39.5</ele><time>2026-04-13T03:24:43Z</time></trkpt><trkpt lat="-29.908355226591837" lon="115.13998709529885"><ele>40.0</ele><time>2026-04-13T03:24:44Z</time></trkpt><trkpt lat="-29.908232720038036" lon="115.14022152939468"><ele>40.0</ele><time>2026-04-13T03:24:45Z</time></trkpt><trkpt lat="-29.908115798018617" lon="115.14044811109902"><ele>40.0</ele><time>2026-04-13T03:24:46Z</time></trkpt><trkpt lat="-29.908004381829265" lon="115.14066123009981"><ele>40.0</ele><time>2026-04-13T03:24:47Z</time></trkpt><trkpt lat="-29.907892466876255" lon="115.14087280832427"><ele>40.333333333333336</ele><time>2026-04-13T03:24:48Z</time></trkpt><trkpt lat="-29.90777800497596" lon="115.14109031262464"><ele>40.666666666666664</ele><time>2026-04-13T03:24:49Z</time></trkpt><trkpt lat="-29.907665283609262" lon="115.14131112839013"><ele>41.0</ele><time>2026-04-13T03:24:50Z</time></trkpt><trkpt lat="-29.907550968309177" lon="115.14153823685568"><ele>41.666666666666664</ele><time>2026-04-13T03:24:51Z</time></trkpt><trkpt lat="-29.90743797166876" lon="115.14176312490189"><ele>42.333333333333336</ele><time>2026-04-13T03:24:52Z</time></trkpt><trkpt lat="-29.907327370207973" lon="115.14198372564039"><ele>43.0</ele><time>2026-04-13T03:24:53Z</time></trkpt><trkpt lat="-29.907230475123733" lon="115.1421775273488"><ele>43.0</ele><time>2026-04-13T03:24:54Z</time></trkpt><trkpt lat="-29.907135097715816" lon="115.14236783616293"><ele>43.0</ele><time>2026-04-13T03:24:55Z</time></trkpt><trkpt lat="-29.907045986981785" lon="115.14254581152892"><ele>43.0</ele><time>2026-04-13T03:24:56Z</time></trkpt><trkpt lat="-29.90695741153922" lon="115.14271703009193"><ele>43.333333333333336</ele><time>2026-04-13T03:24:57Z</time></trkpt><trkpt lat="-29.906863893777903" lon="115.14288901291123"><ele>43.666666666666664</ele><time>2026-04-13T03:24:58Z</time></trkpt><trkpt lat="-29.906764651430006" lon="115.14305872059656"><ele>44.0</ele><time>2026-04-13T03:24:59Z</time></trkpt><trkpt lat="-29.906649500241244" lon="115.14320804766288"><ele>43.666666666666664</ele><time>2026-04-13T03:25:00Z</time></trkpt><trkpt lat="-29.90652150994901" lon="115.14334599903809"><ele>43.333333333333336</ele><time>2026-04-13T03:25:01Z</time></trkpt><trkpt lat="-29.90636880372863" lon="115.14344419073248"><ele>43.0</ele><time>2026-04-13T03:25:02Z</time></trkpt><trkpt lat="-29.906204848011054" lon="115.14355469727604"><ele>43.0</ele><time>2026-04-13T03:25:03Z</time></trkpt><trkpt lat="-29.906025792894166" lon="115.14364234148903"><ele>43.0</ele><time>2026-04-13T03:25:04Z</time></trkpt><trkpt lat="-29.905818057135985" lon="115.1437330031762"><ele>43.0</ele><time>2026-04-13T03:25:05Z</time></trkpt><trkpt lat="-29.90559920438681" lon="115.14382849503816"><ele>42.0</ele><time>2026-04-13T03:25:06Z</time></trkpt><trkpt lat="-29.905386825216453" lon="115.14392088489346"><ele>41.0</ele><time>2026-04-13T03:25:07Z</time></trkpt><trkpt lat="-29.905166053352577" lon="115.14401708148588"><ele>42.0</ele><time>2026-04-13T03:25:08Z</time></trkpt><trkpt lat="-29.9049442812771" lon="115.14411379493984"><ele>43.0</ele><time>2026-04-13T03:25:09Z</time></trkpt><trkpt lat="-29.9047000838071" lon="115.14422290496398"><ele>43.0</ele><time>2026-04-13T03:25:10Z</time></trkpt><trkpt lat="-29.90444412059094" lon="115.14433944827569"><ele>43.0</ele><time>2026-04-13T03:25:11Z</time></trkpt><trkpt lat="-29.90418229179158" lon="115.1444582929409"><ele>41.5</ele><time>2026-04-13T03:25:12Z</time></trkpt><trkpt lat="-29.903932193947313" lon="115.14457375519488"><ele>40.0</ele><time>2026-04-13T03:25:13Z</time></trkpt><trkpt lat="-29.9036870054215" lon="115.14468588965741"><ele>40.0</ele><time>2026-04-13T03:25:14Z</time></trkpt><trkpt lat="-29.903446559109955" lon="115.1447936098656"><ele>40.0</ele><time>2026-04-13T03:25:15Z</time></trkpt><trkpt lat="-29.903198598411947" lon="115.14489510535839"><ele>42.5</ele><time>2026-04-13T03:25:16Z</time></trkpt><trkpt lat="-29.902951977328765" lon="115.14499977973163"><ele>45.0</ele><time>2026-04-13T03:25:17Z</time></trkpt><trkpt lat="-29.902712187457173" lon="115.1451037523211"><ele>44.0</ele><time>2026-04-13T03:25:18Z</time></trkpt><trkpt lat="-29.9024824314426" lon="115.14520570319861"><ele>43.0</ele><time>2026-04-13T03:25:19Z</time></trkpt><trkpt lat="-29.902259134909826" lon="115.14530786735212"><ele>43.0</ele><time>2026-04-13T03:25:20Z</time></trkpt><trkpt lat="-29.902038148443175" lon="115.14540897455952"><ele>43.0</ele><time>2026-04-13T03:25:21Z</time></trkpt><trkpt lat="-29.901814818533136" lon="115.14551115395221"><ele>42.0</ele><time>2026-04-13T03:25:22Z</time></trkpt><trkpt lat="-29.901596828317512" lon="115.1456112240143"><ele>41.0</ele><time>2026-04-13T03:25:23Z</time></trkpt><trkpt lat="-29.901394956371742" lon="115.1457039694265"><ele>42.0</ele><time>2026-04-13T03:25:24.001Z</time></trkpt><trkpt lat="-29.901195909826786" lon="115.14579505383037"><ele>43.0</ele><time>2026-04-13T03:25:25.001Z</time></trkpt><trkpt lat="-29.900989302741635" lon="115.14590271912292"><ele>44.0</ele><time>2026-04-13T03:25:26.001Z</time></trkpt><trkpt lat="-29.900771346295187" lon="115.1460063401548"><ele>44.5</ele><time>2026-04-13T03:25:27.001Z</time></trkpt><trkpt lat="-29.900533849655652" lon="115.14609190313213"><ele>45.0</ele><time>2026-04-13T03:25:28.001Z</time></trkpt><trkpt lat="-29.900288510930608" lon="115.14619824097423"><ele>44.0</ele><time>2026-04-13T03:25:29.001Z</time></trkpt><trkpt lat="-29.900037022186602" lon="115.14630586962537"><ele>43.0</ele><time>2026-04-13T03:25:30.001Z</time></trkpt><trkpt lat="-29.89978372425712" lon="115.14641498312298"><ele>43.0</ele><time>2026-04-13T03:25:31.001Z</time></trkpt><trkpt lat="-29.899538043097646" lon="115.14652754551237"><ele>43.0</ele><time>2026-04-13T03:25:32.001Z</time></trkpt><trkpt lat="-29.89929218352962" lon="115.1466416524991"><ele>41.0</ele><time>2026-04-13T03:25:33.001Z</time></trkpt><trkpt lat="-29.89905283821036" lon="115.14675384448915"><ele>39.0</ele><time>2026-04-13T03:25:34.001Z</time></trkpt><trkpt lat="-29.898837137504646" lon="115.14687086542244"><ele>39.0</ele><time>2026-04-13T03:25:35.001Z</time></trkpt><trkpt lat="-29.89861690666161" lon="115.14696865215788"><ele>39.0</ele><time>2026-04-13T03:25:36.001Z</time></trkpt><trkpt lat="-29.898398802415333" lon="115.14706646690574"><ele>38.5</ele><time>2026-04-13T03:25:37.001Z</time></trkpt><trkpt lat="-29.898166845599558" lon="115.14715062676052"><ele>38.0</ele><time>2026-04-13T03:25:38.001Z</time></trkpt><trkpt lat="-29.897963134127586" lon="115.1472413423714"><ele>38.0</ele><time>2026-04-13T03:25:39.001Z</time></trkpt><trkpt lat="-29.897759955721778" lon="115.14733201892783"><ele>38.0</ele><time>2026-04-13T03:25:40.001Z</time></trkpt><trkpt lat="-29.897557837867012" lon="115.14742222023712"><ele>38.0</ele><time>2026-04-13T03:25:41.001Z</time></trkpt><trkpt lat="-29.897359392925438" lon="115.14751078239264"><ele>38.666666666666664</ele><time>2026-04-13T03:25:42.001Z</time></trkpt><trkpt lat="-29.897169696356624" lon="115.14759689375654"><ele>39.333333333333336</ele><time>2026-04-13T03:25:43.001Z</time></trkpt><trkpt lat="-29.896996407205915" lon="115.1476867553598"><ele>40.0</ele><time>2026-04-13T03:25:44.001Z</time></trkpt><trkpt lat="-29.89679849008604" lon="115.1477203578675"><ele>40.0</ele><time>2026-04-13T03:25:45.001Z</time></trkpt><trkpt lat="-29.896575228172786" lon="115.14773348745884"><ele>40.0</ele><time>2026-04-13T03:25:46.001Z</time></trkpt><trkpt lat="-29.896341712355678" lon="115.14772952413527"><ele>40.0</ele><time>2026-04-13T03:25:47.001Z</time></trkpt><trkpt lat="-29.89609955675581" lon="115.14771855929678"><ele>40.0</ele><time>2026-04-13T03:25:48.001Z</time></trkpt><trkpt lat="-29.895852210662113" lon="115.14770639641965"><ele>41.0</ele><time>2026-04-13T03:25:49.001Z</time></trkpt><trkpt lat="-29.895601339696352" lon="115.1477019738712"><ele>42.0</ele><time>2026-04-13T03:25:50.001Z</time></trkpt><trkpt lat="-29.895343486558698" lon="115.14770223104105"><ele>41.0</ele><time>2026-04-13T03:25:51.001Z</time></trkpt><trkpt lat="-29.89508026332503" lon="115.147698783327"><ele>40.0</ele><time>2026-04-13T03:25:52.001Z</time></trkpt><trkpt lat="-29.894813034813687" lon="115.14769460206463"><ele>40.0</ele><time>2026-04-13T03:25:53.001Z</time></trkpt><trkpt lat="-29.894549743261173" lon="115.14768876625618"><ele>40.0</ele><time>2026-04-13T03:25:54.001Z</time></trkpt><trkpt lat="-29.894294256734277" lon="115.14768755216575"><ele>40.0</ele><time>2026-04-13T03:25:55.001Z</time></trkpt><trkpt lat="-29.894034164866337" lon="115.14769069054505"><ele>40.0</ele><time>2026-04-13T03:25:56.001Z</time></trkpt><trkpt lat="-29.893771632464237" lon="115.14769417384596"><ele>40.0</ele><time>2026-04-13T03:25:57.001Z</time></trkpt><trkpt lat="-29.893508495999395" lon="115.1476967283007"><ele>40.0</ele><time>2026-04-13T03:25:58.001Z</time></trkpt><trkpt lat="-29.893240685619016" lon="115.14769846909428"><ele>39.0</ele><time>2026-04-13T03:25:59.001Z</time></trkpt><trkpt lat="-29.89297447176284" lon="115.1476991946314"><ele>38.0</ele><time>2026-04-13T03:26:00.001Z</time></trkpt><trkpt lat="-29.892702700678285" lon="115.14769877501647"><ele>38.0</ele><time>2026-04-13T03:26:01.001Z</time></trkpt><trkpt lat="-29.89243472742702" lon="115.14769483675562"><ele>38.0</ele><time>2026-04-13T03:26:02.001Z</time></trkpt><trkpt lat="-29.8921579692441" lon="115.1476906361727"><ele>38.0</ele><time>2026-04-13T03:26:03.001Z</time></trkpt><trkpt lat="-29.891876762600216" lon="115.14768569887337"><ele>38.0</ele><time>2026-04-13T03:26:04.001Z</time></trkpt><trkpt lat="-29.891599134176296" lon="115.14768151642079"><ele>39.5</ele><time>2026-04-13T03:26:05.001Z</time></trkpt><trkpt lat="-29.891321068570125" lon="115.14768279534697"><ele>41.0</ele><time>2026-04-13T03:26:06.001Z</time></trkpt><trkpt lat="-29.891036047050413" lon="115.14768847377991"><ele>40.5</ele><time>2026-04-13T03:26:07.001Z</time></trkpt><trkpt lat="-29.890758919968935" lon="115.14769598627032"><ele>40.0</ele><time>2026-04-13T03:26:08.001Z</time></trkpt><trkpt lat="-29.89048473778816" lon="115.14769941535566"><ele>40.0</ele><time>2026-04-13T03:26:09.001Z</time></trkpt><trkpt lat="-29.890215154060105" lon="115.14769897897719"><ele>40.0</ele><time>2026-04-13T03:26:10.001Z</time></trkpt><trkpt lat="-29.88993946065021" lon="115.14769736992156"><ele>38.0</ele><time>2026-04-13T03:26:11.001Z</time></trkpt><trkpt lat="-29.889664340948602" lon="115.14769448889729"><ele>36.0</ele><time>2026-04-13T03:26:12.001Z</time></trkpt><trkpt lat="-29.889389553224852" lon="115.1476919026211"><ele>38.0</ele><time>2026-04-13T03:26:13.001Z</time></trkpt><trkpt lat="-29.889117986762006" lon="115.14769083885773"><ele>40.0</ele><time>2026-04-13T03:26:14.001Z</time></trkpt><trkpt lat="-29.88886584010487" lon="115.14768859779122"><ele>40.0</ele><time>2026-04-13T03:26:15.001Z</time></trkpt><trkpt lat="-29.888628314650752" lon="115.14768450315516"><ele>40.0</ele><time>2026-04-13T03:26:16.001Z</time></trkpt><trkpt lat="-29.88839770271826" lon="115.14767956122444"><ele>40.5</ele><time>2026-04-13T03:26:17.001Z</time></trkpt><trkpt lat="-29.888162399554275" lon="115.14768262404361"><ele>41.0</ele><time>2026-04-13T03:26:18.001Z</time></trkpt><trkpt lat="-29.887909566496234" lon="115.14768547035912"><ele>41.0</ele><time>2026-04-13T03:26:19.001Z</time></trkpt><trkpt lat="-29.887642286832307" lon="115.14768752230171"><ele>41.0</ele><time>2026-04-13T03:26:20.001Z</time></trkpt><trkpt lat="-29.887380812492662" lon="115.14768593468774"><ele>40.0</ele><time>2026-04-13T03:26:21.001Z</time></trkpt><trkpt lat="-29.887123454945126" lon="115.14768411573272"><ele>39.0</ele><time>2026-04-13T03:26:22.001Z</time></trkpt><trkpt lat="-29.886872072498036" lon="115.14768462130814"><ele>40.0</ele><time>2026-04-13T03:26:23.001Z</time></trkpt><trkpt lat="-29.886627037776268" lon="115.14768467845131"><ele>41.0</ele><time>2026-04-13T03:26:24.001Z</time></trkpt><trkpt lat="-29.886384523609788" lon="115.14768526473878"><ele>41.0</ele><time>2026-04-13T03:26:25.001Z</time></trkpt><trkpt lat="-29.88614971126894" lon="115.14769001193315"><ele>41.0</ele><time>2026-04-13T03:26:26.001Z</time></trkpt><trkpt lat="-29.885918870231638" lon="115.14769403482552"><ele>41.0</ele><time>2026-04-13T03:26:27.001Z</time></trkpt><trkpt lat="-29.885677007016188" lon="115.14769636934786"><ele>41.0</ele><time>2026-04-13T03:26:28.001Z</time></trkpt><trkpt lat="-29.885423635817546" lon="115.14769887997642"><ele>41.0</ele><time>2026-04-13T03:26:29.001Z</time></trkpt><trkpt lat="-29.885164712428846" lon="115.14770156235782"><ele>41.0</ele><time>2026-04-13T03:26:30.001Z</time></trkpt><trkpt lat="-29.884906132028117" lon="115.14770512111664"><ele>40.5</ele><time>2026-04-13T03:26:31.001Z</time></trkpt><trkpt lat="-29.88465075233732" lon="115.14770445563651"><ele>40.0</ele><time>2026-04-13T03:26:32.001Z</time></trkpt><trkpt lat="-29.884392875222716" lon="115.14770011571787"><ele>40.5</ele><time>2026-04-13T03:26:33.001Z</time></trkpt><trkpt lat="-29.884133936358523" lon="115.14769970218055"><ele>41.0</ele><time>2026-04-13T03:26:34.001Z</time></trkpt><trkpt lat="-29.88388153887164" lon="115.14770202996803"><ele>41.0</ele><time>2026-04-13T03:26:35.001Z</time></trkpt><trkpt lat="-29.883646709259878" lon="115.14770738367493"><ele>41.0</ele><time>2026-04-13T03:26:36.001Z</time></trkpt><trkpt lat="-29.88341142745491" lon="115.147709502068"><ele>41.0</ele><time>2026-04-13T03:26:37.001Z</time></trkpt><trkpt lat="-29.88316804649202" lon="115.14770735294692"><ele>41.0</ele><time>2026-04-13T03:26:38.001Z</time></trkpt><trkpt lat="-29.88292027106014" lon="115.14770322271174"><ele>41.0</ele><time>2026-04-13T03:26:39.001Z</time></trkpt><trkpt lat="-29.882670785575517" lon="115.1476992751544"><ele>41.0</ele><time>2026-04-13T03:26:40.001Z</time></trkpt><trkpt lat="-29.882421524236463" lon="115.14769406876302"><ele>41.0</ele><time>2026-04-13T03:26:41.001Z</time></trkpt><trkpt lat="-29.882174351024844" lon="115.14768353702142"><ele>41.0</ele><time>2026-04-13T03:26:42.001Z</time></trkpt><trkpt lat="-29.881920864761238" lon="115.14767003542968"><ele>40.5</ele><time>2026-04-13T03:26:43Z</time></trkpt><trkpt lat="-29.881657512369877" lon="115.14766421986464"><ele>40.0</ele><time>2026-04-13T03:26:44Z</time></trkpt><trkpt lat="-29.881384475237482" lon="115.14767147033797"><ele>40.0</ele><time>2026-04-13T03:26:45Z</time></trkpt><trkpt lat="-29.881108527546782" lon="115.14768331812206"><ele>40.0</ele><time>2026-04-13T03:26:46Z</time></trkpt><trkpt lat="-29.88083361599807" lon="115.1476911006741"><ele>40.5</ele><time>2026-04-13T03:26:47Z</time></trkpt><trkpt lat="-29.880552879427377" lon="115.14769071731627"><ele>41.0</ele><time>2026-04-13T03:26:48Z</time></trkpt><trkpt lat="-29.880272769561152" lon="115.14769176102413"><ele>42.0</ele><time>2026-04-13T03:26:49Z</time></trkpt><trkpt lat="-29.879996823735446" lon="115.1476891182836"><ele>43.0</ele><time>2026-04-13T03:26:50Z</time></trkpt><trkpt lat="-29.879732516003834" lon="115.14768692287157"><ele>43.0</ele><time>2026-04-13T03:26:51Z</time></trkpt><trkpt lat="-29.879453660458328" lon="115.14768590839536"><ele>43.0</ele><time>2026-04-13T03:26:52Z</time></trkpt><trkpt lat="-29.879166197698563" lon="115.14768903175302"><ele>41.5</ele><time>2026-04-13T03:26:53Z</time></trkpt><trkpt lat="-29.87887314998078" lon="115.14769236511044"><ele>40.0</ele><time>2026-04-13T03:26:54Z</time></trkpt><trkpt lat="-29.878593892606037" lon="115.14769252491436"><ele>40.0</ele><time>2026-04-13T03:26:55Z</time></trkpt><trkpt lat="-29.87832186634192" lon="115.14769160815347"><ele>40.0</ele><time>2026-04-13T03:26:56Z</time></trkpt><trkpt lat="-29.87805715399014" lon="115.14768902691488"><ele>40.0</ele><time>2026-04-13T03:26:57Z</time></trkpt><trkpt lat="-29.87781368240498" lon="115.14768418117787"><ele>40.0</ele><time>2026-04-13T03:26:58Z</time></trkpt><trkpt lat="-29.87756669862215" lon="115.14767968442801"><ele>41.5</ele><time>2026-04-13T03:26:59Z</time></trkpt><trkpt lat="-29.877313267960215" lon="115.14767686247222"><ele>43.0</ele><time>2026-04-13T03:27:00Z</time></trkpt><trkpt lat="-29.87705805915449" lon="115.14767788500414"><ele>43.0</ele><time>2026-04-13T03:27:01Z</time></trkpt><trkpt lat="-29.876801211298098" lon="115.14768347137918"><ele>43.0</ele><time>2026-04-13T03:27:02Z</time></trkpt><trkpt lat="-29.876542094320254" lon="115.14768853230733"><ele>42.5</ele><time>2026-04-13T03:27:03Z</time></trkpt><trkpt lat="-29.876277452888395" lon="115.14768982762517"><ele>42.0</ele><time>2026-04-13T03:27:04Z</time></trkpt><trkpt lat="-29.87600455304804" lon="115.14768936903687"><ele>41.5</ele><time>2026-04-13T03:27:05Z</time></trkpt><trkpt lat="-29.87572881091746" lon="115.14768990514206"><ele>41.0</ele><time>2026-04-13T03:27:06Z</time></trkpt><trkpt lat="-29.875447213710913" lon="115.14768933737524"><ele>41.0</ele><time>2026-04-13T03:27:07Z</time></trkpt><trkpt lat="-29.8751605071912" lon="115.147687646417"><ele>41.0</ele><time>2026-04-13T03:27:08Z</time></trkpt><trkpt lat="-29.874874479415578" lon="115.14768552283593"><ele>40.5</ele><time>2026-04-13T03:27:09Z</time></trkpt><trkpt lat="-29.874592805043314" lon="115.14768448553365"><ele>40.0</ele><time>2026-04-13T03:27:10Z</time></trkpt><trkpt lat="-29.87431309538304" lon="115.14768320746902"><ele>40.5</ele><time>2026-04-13T03:27:11Z</time></trkpt><trkpt lat="-29.874031402060695" lon="115.14767966211967"><ele>41.0</ele><time>2026-04-13T03:27:12Z</time></trkpt><trkpt lat="-29.873748805573783" lon="115.14767510384151"><ele>41.0</ele><time>2026-04-13T03:27:13Z</time></trkpt><trkpt lat="-29.873476878560844" lon="115.14767802712483"><ele>41.0</ele><time>2026-04-13T03:27:14Z</time></trkpt><trkpt lat="-29.873216286489466" lon="115.14768406315459"><ele>41.5</ele><time>2026-04-13T03:27:15Z</time></trkpt><trkpt lat="-29.872968584331122" lon="115.14768942344959"><ele>42.0</ele><time>2026-04-13T03:27:16Z</time></trkpt><trkpt lat="-29.872715881930038" lon="115.14769205937286"><ele>42.0</ele><time>2026-04-13T03:27:17Z</time></trkpt><trkpt lat="-29.87245347483614" lon="115.14768870808746"><ele>42.0</ele><time>2026-04-13T03:27:18Z</time></trkpt><trkpt lat="-29.872178022195335" lon="115.14767894368602"><ele>42.0</ele><time>2026-04-13T03:27:19Z</time></trkpt><trkpt lat="-29.871892367294546" lon="115.14766927059684"><ele>42.0</ele><time>2026-04-13T03:27:20Z</time></trkpt><trkpt lat="-29.871609348710603" lon="115.147660259249"><ele>42.0</ele><time>2026-04-13T03:27:21Z</time></trkpt><trkpt lat="-29.871324453584766" lon="115.14765509130251"><ele>42.0</ele><time>2026-04-13T03:27:22Z</time></trkpt><trkpt lat="-29.871038003120862" lon="115.14765064843297"><ele>42.0</ele><time>2026-04-13T03:27:23Z</time></trkpt><trkpt lat="-29.870750487306097" lon="115.14764793039043"><ele>42.0</ele><time>2026-04-13T03:27:24Z</time></trkpt><trkpt lat="-29.87046351179911" lon="115.1476473498965"><ele>42.0</ele><time>2026-04-13T03:27:25.001Z</time></trkpt><trkpt lat="-29.870182245592975" lon="115.14764664609892"><ele>42.0</ele><time>2026-04-13T03:27:26.001Z</time></trkpt><trkpt lat="-29.869904675437315" lon="115.14764529150322"><ele>44.0</ele><time>2026-04-13T03:27:27.001Z</time></trkpt><trkpt lat="-29.86962715588184" lon="115.1476395087818"><ele>46.0</ele><time>2026-04-13T03:27:28.001Z</time></trkpt><trkpt lat="-29.869360815351044" lon="115.14763035678293"><ele>45.5</ele><time>2026-04-13T03:27:29.001Z</time></trkpt><trkpt lat="-29.869120008585625" lon="115.14763525676454"><ele>45.0</ele><time>2026-04-13T03:27:30.001Z</time></trkpt><trkpt lat="-29.868888423533384" lon="115.14763636019016"><ele>45.0</ele><time>2026-04-13T03:27:31.001Z</time></trkpt><trkpt lat="-29.868649772395077" lon="115.14764024675748"><ele>45.0</ele><time>2026-04-13T03:27:32.001Z</time></trkpt><trkpt lat="-29.86840000207579" lon="115.1476425409864"><ele>46.0</ele><time>2026-04-13T03:27:33.001Z</time></trkpt><trkpt lat="-29.86813257827595" lon="115.14764347815539"><ele>47.0</ele><time>2026-04-13T03:27:34.001Z</time></trkpt><trkpt lat="-29.867857628470606" lon="115.14764370310546"><ele>48.0</ele><time>2026-04-13T03:27:35.001Z</time></trkpt><trkpt lat="-29.867576582892134" lon="115.14764259927529"><ele>49.0</ele><time>2026-04-13T03:27:36.001Z</time></trkpt><trkpt lat="-29.86729500839002" lon="115.14764197254864"><ele>49.0</ele><time>2026-04-13T03:27:37.001Z</time></trkpt><trkpt lat="-29.867028302018287" lon="115.1476396805792"><ele>49.0</ele><time>2026-04-13T03:27:38.001Z</time></trkpt><trkpt lat="-29.866785396069496" lon="115.14764007892795"><ele>49.0</ele><time>2026-04-13T03:27:39.001Z</time></trkpt><trkpt lat="-29.866542518387586" lon="115.1476402473613"><ele>49.0</ele><time>2026-04-13T03:27:40.001Z</time></trkpt><trkpt lat="-29.866316345506675" lon="115.14763737695925"><ele>49.0</ele><time>2026-04-13T03:27:41.001Z</time></trkpt><trkpt lat="-29.866119860486076" lon="115.14763473006376"><ele>49.0</ele><time>2026-04-13T03:27:42.001Z</time></trkpt><trkpt lat="-29.865955052504678" lon="115.14763451828692"><ele>49.0</ele><time>2026-04-13T03:27:43.001Z</time></trkpt><trkpt lat="-29.865813674502338" lon="115.14763576017783"><ele>48.6</ele><time>2026-04-13T03:27:44.001Z</time></trkpt><trkpt lat="-29.86569587894113" lon="115.14763693849915"><ele>48.2</ele><time>2026-04-13T03:27:45.001Z</time></trkpt><trkpt lat="-29.865604923843915" lon="115.14763796144805"><ele>47.800000000000004</ele><time>2026-04-13T03:27:46.001Z</time></trkpt><trkpt lat="-29.86550535219434" lon="115.14763721241269"><ele>47.400000000000006</ele><time>2026-04-13T03:27:48.001Z</time></trkpt><trkpt lat="-29.865455354925786" lon="115.14758559710864"><ele>47.0</ele><time>2026-04-13T03:31:53.001Z</time></trkpt><trkpt lat="-29.86535597838137" lon="115.14757584626888"><ele>47.0</ele><time>2026-04-13T03:34:56.001Z</time></trkpt><trkpt lat="-29.865291307423636" lon="115.14757349513923"><ele>47.0</ele><time>2026-04-13T03:34:57.001Z</time></trkpt><trkpt lat="-29.865219595100573" lon="115.14756366319962"><ele>47.0</ele><time>2026-04-13T03:34:58.001Z</time></trkpt><trkpt lat="-29.865148385581875" lon="115.14755919076853"><ele>47.0</ele><time>2026-04-13T03:34:59.001Z</time></trkpt><trkpt lat="-29.865064555301405" lon="115.14757345013969"><ele>47.0</ele><time>2026-04-13T03:35:00.001Z</time></trkpt><trkpt lat="-29.864983584870092" lon="115.14761056325231"><ele>47.0</ele><time>2026-04-13T03:35:01.001Z</time></trkpt><trkpt lat="-29.8649008938447" lon="115.14768128793631"><ele>47.0</ele><time>2026-04-13T03:35:02.001Z</time></trkpt><trkpt lat="-29.864810895899723" lon="115.14777455466326"><ele>47.0</ele><time>2026-04-13T03:35:03.001Z</time></trkpt><trkpt lat="-29.864711022232004" lon="115.14787111909332"><ele>47.0</ele><time>2026-04-13T03:35:04.001Z</time></trkpt><trkpt lat="-29.864594211145235" lon="115.14797604078865"><ele>47.0</ele><time>2026-04-13T03:35:05.001Z</time></trkpt><trkpt lat="-29.86447344573789" lon="115.14808230540707"><ele>47.0</ele><time>2026-04-13T03:35:06.001Z</time></trkpt><trkpt lat="-29.86434235654296" lon="115.1482001087667"><ele>47.0</ele><time>2026-04-13T03:35:07Z</time></trkpt><trkpt lat="-29.86419693241633" lon="115.14832091913382"><ele>47.0</ele><time>2026-04-13T03:35:08Z</time></trkpt><trkpt lat="-29.86404883922507" lon="115.14844561190851"><ele>47.33333333333333</ele><time>2026-04-13T03:35:09Z</time></trkpt><trkpt lat="-29.863890004428477" lon="115.14858143505352"><ele>47.666666666666664</ele><time>2026-04-13T03:35:10Z</time></trkpt><trkpt lat="-29.86372305785001" lon="115.14873201733936"><ele>48.0</ele><time>2026-04-13T03:35:11Z</time></trkpt><trkpt lat="-29.86354874682505" lon="115.14888873381436"><ele>48.0</ele><time>2026-04-13T03:35:12Z</time></trkpt><trkpt lat="-29.86338133797346" lon="115.14903439998471"><ele>48.0</ele><time>2026-04-13T03:35:13Z</time></trkpt><trkpt lat="-29.863207397328136" lon="115.14918294678618"><ele>48.0</ele><time>2026-04-13T03:35:14Z</time></trkpt><trkpt lat="-29.863030853380952" lon="115.14933632458859"><ele>48.0</ele><time>2026-04-13T03:35:15Z</time></trkpt><trkpt lat="-29.86285337191672" lon="115.14949569875542"><ele>48.0</ele><time>2026-04-13T03:35:16Z</time></trkpt><trkpt lat="-29.862673029127613" lon="115.14965841433404"><ele>47.5</ele><time>2026-04-13T03:35:17Z</time></trkpt><trkpt lat="-29.862483857787215" lon="115.14982395663269"><ele>47.0</ele><time>2026-04-13T03:35:18Z</time></trkpt><trkpt lat="-29.862287933380905" lon="115.14999409653346"><ele>47.0</ele><time>2026-04-13T03:35:19Z</time></trkpt><trkpt lat="-29.86209255829003" lon="115.15016220722104"><ele>47.0</ele><time>2026-04-13T03:35:20Z</time></trkpt><trkpt lat="-29.861894961188398" lon="115.15033354699513"><ele>47.0</ele><time>2026-04-13T03:35:21Z</time></trkpt><trkpt lat="-29.861696038753465" lon="115.1505057006007"><ele>47.0</ele><time>2026-04-13T03:35:22Z</time></trkpt><trkpt lat="-29.861494759482277" lon="115.1506806679187"><ele>47.0</ele><time>2026-04-13T03:35:23Z</time></trkpt><trkpt lat="-29.861290553204046" lon="115.15085654278707"><ele>47.0</ele><time>2026-04-13T03:35:24Z</time></trkpt><trkpt lat="-29.861084737550318" lon="115.15103429245033"><ele>46.0</ele><time>2026-04-13T03:35:25Z</time></trkpt><trkpt lat="-29.86087962747686" lon="115.15121316519281"><ele>45.0</ele><time>2026-04-13T03:35:26Z</time></trkpt><trkpt lat="-29.860681401170215" lon="115.15138918594025"><ele>46.5</ele><time>2026-04-13T03:35:27Z</time></trkpt><trkpt lat="-29.860488988690985" lon="115.15157079304247"><ele>48.0</ele><time>2026-04-13T03:35:28Z</time></trkpt><trkpt lat="-29.86030220417581" lon="115.15175577908069"><ele>48.0</ele><time>2026-04-13T03:35:29Z</time></trkpt><trkpt lat="-29.860120246029453" lon="115.15195489229276"><ele>48.0</ele><time>2026-04-13T03:35:30Z</time></trkpt><trkpt lat="-29.859945818352916" lon="115.15216163283637"><ele>48.0</ele><time>2026-04-13T03:35:31Z</time></trkpt><trkpt lat="-29.85977792151547" lon="115.15237651151865"><ele>48.0</ele><time>2026-04-13T03:35:32Z</time></trkpt><trkpt lat="-29.859616961624923" lon="115.15260176240149"><ele>48.0</ele><time>2026-04-13T03:35:33Z</time></trkpt><trkpt lat="-29.85945874025199" lon="115.1528370074091"><ele>48.0</ele><time>2026-04-13T03:35:34Z</time></trkpt><trkpt lat="-29.859305323523664" lon="115.1530794471153"><ele>47.5</ele><time>2026-04-13T03:35:35Z</time></trkpt><trkpt lat="-29.859158547857035" lon="115.1533274465631"><ele>47.0</ele><time>2026-04-13T03:35:36Z</time></trkpt><trkpt lat="-29.859024083377548" lon="115.15357777584335"><ele>47.0</ele><time>2026-04-13T03:35:37Z</time></trkpt><trkpt lat="-29.85891427187384" lon="115.15382150917266"><ele>47.0</ele><time>2026-04-13T03:35:38Z</time></trkpt><trkpt lat="-29.8588167072855" lon="115.15406040910659"><ele>47.5</ele><time>2026-04-13T03:35:39Z</time></trkpt><trkpt lat="-29.858719222486325" lon="115.15431165628651"><ele>48.0</ele><time>2026-04-13T03:35:40Z</time></trkpt><trkpt lat="-29.858624882326687" lon="115.15456398636645"><ele>48.0</ele><time>2026-04-13T03:35:41Z</time></trkpt><trkpt lat="-29.858538497229766" lon="115.15481321114731"><ele>48.0</ele><time>2026-04-13T03:35:42Z</time></trkpt><trkpt lat="-29.85845846803935" lon="115.15507108891354"><ele>46.5</ele><time>2026-04-13T03:35:43Z</time></trkpt><trkpt lat="-29.85838370951989" lon="115.1553353709992"><ele>45.0</ele><time>2026-04-13T03:35:44Z</time></trkpt><trkpt lat="-29.858319178381283" lon="115.1556021015568"><ele>44.0</ele><time>2026-04-13T03:35:45Z</time></trkpt><trkpt lat="-29.858269373450717" lon="115.15586708404011"><ele>43.0</ele><time>2026-04-13T03:35:46Z</time></trkpt><trkpt lat="-29.85823076296591" lon="115.15612307499462"><ele>43.0</ele><time>2026-04-13T03:35:47Z</time></trkpt><trkpt lat="-29.85820014641631" lon="115.15636666882418"><ele>43.0</ele><time>2026-04-13T03:35:48Z</time></trkpt><trkpt lat="-29.85817162288623" lon="115.1565969155441"><ele>43.0</ele><time>2026-04-13T03:35:49Z</time></trkpt><trkpt lat="-29.85814530455115" lon="115.15681243752725"><ele>43.66666666666667</ele><time>2026-04-13T03:35:50Z</time></trkpt><trkpt lat="-29.85812517537806" lon="115.15701518293282"><ele>44.333333333333336</ele><time>2026-04-13T03:35:51Z</time></trkpt><trkpt lat="-29.858112443975095" lon="115.1571950103975"><ele>45.0</ele><time>2026-04-13T03:35:52Z</time></trkpt><trkpt lat="-29.85810405898162" lon="115.15733563881969"><ele>44.8</ele><time>2026-04-13T03:35:53Z</time></trkpt><trkpt lat="-29.858094622157754" lon="115.15745100920296"><ele>44.6</ele><time>2026-04-13T03:35:54Z</time></trkpt><trkpt lat="-29.858088540937644" lon="115.15754469379993"><ele>44.400000000000006</ele><time>2026-04-13T03:35:55Z</time></trkpt><trkpt lat="-29.858090061438464" lon="115.15766086478044"><ele>44.2</ele><time>2026-04-13T03:35:57Z</time></trkpt><trkpt lat="-29.8582001249911" lon="115.15762732735612"><ele>44.0</ele><time>2026-04-13T03:35:58Z</time></trkpt><trkpt lat="-29.85826503320785" lon="115.15762672805775"><ele>44.0</ele><time>2026-04-13T03:35:59Z</time></trkpt><trkpt lat="-29.858392624432746" lon="115.15762411569942"><ele>44.0</ele><time>2026-04-13T03:36:01Z</time></trkpt><trkpt lat="-29.858457655690607" lon="115.15760419198301"><ele>44.0</ele><time>2026-04-13T03:36:02Z</time></trkpt><trkpt lat="-29.858525182052265" lon="115.15755904921191"><ele>44.0</ele><time>2026-04-13T03:36:03Z</time></trkpt><trkpt lat="-29.858588696007182" lon="115.15749403546023"><ele>44.0</ele><time>2026-04-13T03:36:04Z</time></trkpt><trkpt lat="-29.8586372111424" lon="115.15741188945724"><ele>44.0</ele><time>2026-04-13T03:36:05Z</time></trkpt><trkpt lat="-29.858679158595077" lon="115.15730750377368"><ele>44.75</ele><time>2026-04-13T03:36:06Z</time></trkpt><trkpt lat="-29.858702162563315" lon="115.15717971180386"><ele>45.5</ele><time>2026-04-13T03:36:07Z</time></trkpt><trkpt lat="-29.858737193625686" lon="115.15703712331184"><ele>46.25</ele><time>2026-04-13T03:36:08Z</time></trkpt><trkpt lat="-29.858773293721423" lon="115.15688014943771"><ele>47.0</ele><time>2026-04-13T03:36:09Z</time></trkpt><trkpt lat="-29.85881280850182" lon="115.15671866059658"><ele>47.0</ele><time>2026-04-13T03:36:10Z</time></trkpt><trkpt lat="-29.858852668159493" lon="115.15655221493503"><ele>47.0</ele><time>2026-04-13T03:36:11Z</time></trkpt><trkpt lat="-29.85889325398338" lon="115.15638826313943"><ele>47.0</ele><time>2026-04-13T03:36:12Z</time></trkpt><trkpt lat="-29.858960018839497" lon="115.15623175394735"><ele>47.0</ele><time>2026-04-13T03:36:13Z</time></trkpt><trkpt lat="-29.859011984101755" lon="115.15606775356703"><ele>47.0</ele><time>2026-04-13T03:36:14Z</time></trkpt><trkpt lat="-29.85906861288493" lon="115.15591492267849"><ele>47.0</ele><time>2026-04-13T03:36:15Z</time></trkpt><trkpt lat="-29.859128494573042" lon="115.15578141370194"><ele>47.0</ele><time>2026-04-13T03:36:16Z</time></trkpt><trkpt lat="-29.859200158133596" lon="115.15566969819497"><ele>47.0</ele><time>2026-04-13T03:36:17Z</time></trkpt><trkpt lat="-29.85928861622803" lon="115.15559629277482"><ele>47.5</ele><time>2026-04-13T03:36:18Z</time></trkpt><trkpt lat="-29.859383879098694" lon="115.15555559852478"><ele>48.0</ele><time>2026-04-13T03:36:19Z</time></trkpt><trkpt lat="-29.859472740256383" lon="115.15551937005414"><ele>48.5</ele><time>2026-04-13T03:36:20Z</time></trkpt><trkpt lat="-29.8595638720944" lon="115.15552907522827"><ele>49.0</ele><time>2026-04-13T03:36:21Z</time></trkpt><trkpt lat="-29.859641549334363" lon="115.15554035676206"><ele>49.50000000000001</ele><time>2026-04-13T03:36:22Z</time></trkpt><trkpt lat="-29.859713331705148" lon="115.15555284069022"><ele>50.0</ele><time>2026-04-13T03:36:23Z</time></trkpt><trkpt lat="-29.85978084290519" lon="115.15558429506063"><ele>50.0</ele><time>2026-04-13T03:36:24Z</time></trkpt><trkpt lat="-29.85989324063937" lon="115.15562435342464"><ele>50.0</ele><time>2026-04-13T03:36:26Z</time></trkpt><trkpt lat="-29.859998309381975" lon="115.15565841858141"><ele>50.0</ele><time>2026-04-13T03:36:28Z</time></trkpt><trkpt lat="-29.860103385431998" lon="115.15565420376066"><ele>50.0</ele><time>2026-04-13T03:36:30Z</time></trkpt><trkpt lat="-29.860167883723197" lon="115.15560135575451"><ele>50.0</ele><time>2026-04-13T03:36:32Z</time></trkpt><trkpt lat="-29.860144143252633" lon="115.15545630722428"><ele>48.4</ele><time>2026-04-13T03:36:34Z</time></trkpt><trkpt lat="-29.860149972248493" lon="115.15537743740057"><ele>46.8</ele><time>2026-04-13T03:36:38Z</time></trkpt><trkpt lat="-29.860162461214586" lon="115.15524931918482"><ele>45.2</ele><time>2026-04-13T03:37:03.001Z</time></trkpt><trkpt lat="-29.86019794487751" lon="115.15513353842002"><ele>43.6</ele><time>2026-04-13T03:37:05.001Z</time></trkpt><trkpt lat="-29.86026041964364" lon="115.15505247581464"><ele>42.0</ele><time>2026-04-13T03:37:07.001Z</time></trkpt><trkpt lat="-29.860360492497257" lon="115.15509677737212"><ele>42.0</ele><time>2026-04-13T03:37:09.001Z</time></trkpt><trkpt lat="-29.86040384476612" lon="115.15515420529144"><ele>42.0</ele><time>2026-04-13T03:37:11.001Z</time></trkpt><trkpt lat="-29.860471270889814" lon="115.15507373901964"><ele>42.0</ele><time>2026-04-13T03:46:56.001Z</time></trkpt><trkpt lat="-29.860436290319175" lon="115.15498034484058"><ele>42.0</ele><time>2026-04-13T03:46:58.001Z</time></trkpt><trkpt lat="-29.86035441602402" lon="115.15492183210112"><ele>42.0</ele><time>2026-04-13T03:47:00.001Z</time></trkpt><trkpt lat="-29.860285493214683" lon="115.15495461850311"><ele>42.0</ele><time>2026-04-13T03:47:02.001Z</time></trkpt><trkpt lat="-29.860218229294492" lon="115.1550302441035"><ele>42.0</ele><time>2026-04-13T03:47:04.001Z</time></trkpt><trkpt lat="-29.860185849537572" lon="115.15509712234858"><ele>42.0</ele><time>2026-04-13T03:47:05.001Z</time></trkpt><trkpt lat="-29.86015502564402" lon="115.15519034900056"><ele>42.0</ele><time>2026-04-13T03:47:06.001Z</time></trkpt><trkpt lat="-29.860123498359233" lon="115.1553005927158"><ele>42.0</ele><time>2026-04-13T03:47:07.001Z</time></trkpt><trkpt lat="-29.86010557543228" lon="115.1554015630578"><ele>42.0</ele><time>2026-04-13T03:47:08.001Z</time></trkpt><trkpt lat="-29.860114369014074" lon="115.15548735680326"><ele>42.0</ele><time>2026-04-13T03:47:09.001Z</time></trkpt><trkpt lat="-29.860110708163944" lon="115.15556587695959"><ele>43.6</ele><time>2026-04-13T03:47:10.001Z</time></trkpt><trkpt lat="-29.86005623327514" lon="115.15566498947103"><ele>45.2</ele><time>2026-04-13T03:47:12.001Z</time></trkpt><trkpt lat="-29.859926996072033" lon="115.15561388288067"><ele>46.8</ele><time>2026-04-13T03:47:14.001Z</time></trkpt><trkpt lat="-29.859872244380657" lon="115.15557754868044"><ele>48.4</ele><time>2026-04-13T03:47:15.001Z</time></trkpt><trkpt lat="-29.8597848050874" lon="115.1555454233415"><ele>50.0</ele><time>2026-04-13T03:47:16.001Z</time></trkpt><trkpt lat="-29.859690611336777" lon="115.15550876630952"><ele>50.0</ele><time>2026-04-13T03:47:17.001Z</time></trkpt><trkpt lat="-29.85959410376043" lon="115.15549337420192"><ele>50.0</ele><time>2026-04-13T03:47:18.001Z</time></trkpt><trkpt lat="-29.859510044310593" lon="115.15548565475818"><ele>50.0</ele><time>2026-04-13T03:47:19.001Z</time></trkpt><trkpt lat="-29.859418767132404" lon="115.15548779743042"><ele>50.0</ele><time>2026-04-13T03:47:20.001Z</time></trkpt><trkpt lat="-29.859321164678274" lon="115.15552217895633"><ele>50.0</ele><time>2026-04-13T03:47:21.001Z</time></trkpt><trkpt lat="-29.85923808908814" lon="115.15557659149478"><ele>49.5</ele><time>2026-04-13T03:47:22.001Z</time></trkpt><trkpt lat="-29.85916293839014" lon="115.15565985961437"><ele>49.0</ele><time>2026-04-13T03:47:23.002Z</time></trkpt><trkpt lat="-29.859101118024306" lon="115.15578415673599"><ele>48.5</ele><time>2026-04-13T03:47:24.002Z</time></trkpt><trkpt lat="-29.859035116742966" lon="115.1558991722766"><ele>48.0</ele><time>2026-04-13T03:47:25.002Z</time></trkpt><trkpt lat="-29.858983778128515" lon="115.15603523365387"><ele>47.75</ele><time>2026-04-13T03:47:26.002Z</time></trkpt><trkpt lat="-29.858947387945648" lon="115.15619211922349"><ele>47.5</ele><time>2026-04-13T03:47:27.002Z</time></trkpt><trkpt lat="-29.85889654064942" lon="115.15634868557551"><ele>47.25</ele><time>2026-04-13T03:47:28.002Z</time></trkpt><trkpt lat="-29.85884443837796" lon="115.15651221899604"><ele>47.0</ele><time>2026-04-13T03:47:29.002Z</time></trkpt><trkpt lat="-29.85879408184482" lon="115.15668437479367"><ele>47.0</ele><time>2026-04-13T03:47:30.002Z</time></trkpt><trkpt lat="-29.858754065027636" lon="115.15685875138797"><ele>47.0</ele><time>2026-04-13T03:47:31.002Z</time></trkpt><trkpt lat="-29.858724094959026" lon="115.1570284064723"><ele>47.0</ele><time>2026-04-13T03:47:32.001Z</time></trkpt><trkpt lat="-29.85868895037598" lon="115.15718141922599"><ele>47.0</ele><time>2026-04-13T03:47:33.001Z</time></trkpt><trkpt lat="-29.858644889545605" lon="115.15731997083223"><ele>47.400000000000006</ele><time>2026-04-13T03:47:34.001Z</time></trkpt><trkpt lat="-29.858594678222282" lon="115.15743336779768"><ele>47.800000000000004</ele><time>2026-04-13T03:47:35.001Z</time></trkpt><trkpt lat="-29.85853233753498" lon="115.15751989214846"><ele>48.2</ele><time>2026-04-13T03:47:36.001Z</time></trkpt><trkpt lat="-29.858452906563244" lon="115.15758735844894"><ele>48.6</ele><time>2026-04-13T03:47:37.001Z</time></trkpt><trkpt lat="-29.858356983159158" lon="115.15760587427457"><ele>49.0</ele><time>2026-04-13T03:47:38.001Z</time></trkpt><trkpt lat="-29.858279013437848" lon="115.15758791164664"><ele>48.166666666666664</ele><time>2026-04-13T03:47:39.001Z</time></trkpt><trkpt lat="-29.85820812495517" lon="115.15758895854802"><ele>47.33333333333333</ele><time>2026-04-13T03:47:40.001Z</time></trkpt><trkpt lat="-29.858112710133202" lon="115.15760584758915"><ele>46.5</ele><time>2026-04-13T03:48:45.001Z</time></trkpt><trkpt lat="-29.858040385443747" lon="115.1576975065049"><ele>45.666666666666664</ele><time>2026-04-13T03:48:47.001Z</time></trkpt><trkpt lat="-29.85803221641032" lon="115.15777853144814"><ele>44.83333333333333</ele><time>2026-04-13T03:48:48.001Z</time></trkpt><trkpt lat="-29.858029692474123" lon="115.15785976623864"><ele>44.0</ele><time>2026-04-13T03:48:49.001Z</time></trkpt><trkpt lat="-29.858028176159017" lon="115.15796750129418"><ele>44.0</ele><time>2026-04-13T03:48:50.001Z</time></trkpt><trkpt lat="-29.858027558680917" lon="115.1580963149922"><ele>44.0</ele><time>2026-04-13T03:48:51.001Z</time></trkpt><trkpt lat="-29.858023913712213" lon="115.1582405758376"><ele>44.0</ele><time>2026-04-13T03:48:52.002Z</time></trkpt><trkpt lat="-29.85801459055187" lon="115.15840324969857"><ele>44.0</ele><time>2026-04-13T03:48:53.002Z</time></trkpt><trkpt lat="-29.857997375014858" lon="115.15858992562673"><ele>44.0</ele><time>2026-04-13T03:48:54.002Z</time></trkpt><trkpt lat="-29.857980573736057" lon="115.1587855587891"><ele>44.0</ele><time>2026-04-13T03:48:55.002Z</time></trkpt><trkpt lat="-29.857961634357462" lon="115.15898845081786"><ele>44.0</ele><time>2026-04-13T03:48:56.002Z</time></trkpt><trkpt lat="-29.857941653976024" lon="115.15921393822738"><ele>44.0</ele><time>2026-04-13T03:48:57.002Z</time></trkpt><trkpt lat="-29.857918783054522" lon="115.15944533561853"><ele>44.0</ele><time>2026-04-13T03:48:58.002Z</time></trkpt><trkpt lat="-29.857895824080387" lon="115.15967043175876"><ele>44.0</ele><time>2026-04-13T03:48:59.002Z</time></trkpt><trkpt lat="-29.85787260062388" lon="115.15990607088123"><ele>44.33333333333333</ele><time>2026-04-13T03:49:00.002Z</time></trkpt><trkpt lat="-29.85785160083346" lon="115.1601444964088"><ele>44.666666666666664</ele><time>2026-04-13T03:49:01.002Z</time></trkpt><trkpt lat="-29.85783218000714" lon="115.16038511460718"><ele>45.0</ele><time>2026-04-13T03:49:02.002Z</time></trkpt><trkpt lat="-29.857809759681633" lon="115.16063792428261"><ele>45.0</ele><time>2026-04-13T03:49:03.002Z</time></trkpt><trkpt lat="-29.85778692183527" lon="115.16088249102339"><ele>45.0</ele><time>2026-04-13T03:49:04.002Z</time></trkpt><trkpt lat="-29.85776394502714" lon="115.16113484847565"><ele>45.0</ele><time>2026-04-13T03:49:05.002Z</time></trkpt><trkpt lat="-29.857745644856358" lon="115.16138378215561"><ele>46.0</ele><time>2026-04-13T03:49:06.002Z</time></trkpt><trkpt lat="-29.85772582185722" lon="115.16164024958263"><ele>47.0</ele><time>2026-04-13T03:49:07.002Z</time></trkpt><trkpt lat="-29.857702464660655" lon="115.1618971473002"><ele>48.0</ele><time>2026-04-13T03:49:08.002Z</time></trkpt><trkpt lat="-29.857675368418693" lon="115.16215888907932"><ele>50.0</ele><time>2026-04-13T03:49:09.002Z</time></trkpt><trkpt lat="-29.857651329834027" lon="115.1624172529178"><ele>52.0</ele><time>2026-04-13T03:49:10.002Z</time></trkpt><trkpt lat="-29.857627694689157" lon="115.1626822141066"><ele>51.0</ele><time>2026-04-13T03:49:11.002Z</time></trkpt><trkpt lat="-29.857606159300715" lon="115.16294936114821"><ele>50.0</ele><time>2026-04-13T03:49:12.002Z</time></trkpt><trkpt lat="-29.857582424106454" lon="115.16322094903059"><ele>49.0</ele><time>2026-04-13T03:49:13.002Z</time></trkpt><trkpt lat="-29.857555759814762" lon="115.16349807007518"><ele>48.0</ele><time>2026-04-13T03:49:14.002Z</time></trkpt><trkpt lat="-29.85752575924235" lon="115.16378304770123"><ele>47.0</ele><time>2026-04-13T03:49:15.002Z</time></trkpt><trkpt lat="-29.857495725607144" lon="115.16407211718429"><ele>46.0</ele><time>2026-04-13T03:49:16.002Z</time></trkpt><trkpt lat="-29.857472829980384" lon="115.16435838705964"><ele>46.0</ele><time>2026-04-13T03:49:17.002Z</time></trkpt><trkpt lat="-29.857449776642927" lon="115.16463919868545"><ele>46.0</ele><time>2026-04-13T03:49:18.002Z</time></trkpt><trkpt lat="-29.8574286552144" lon="115.16492345905202"><ele>46.0</ele><time>2026-04-13T03:49:19.002Z</time></trkpt><trkpt lat="-29.85740258721818" lon="115.16521724615214"><ele>46.0</ele><time>2026-04-13T03:49:20.002Z</time></trkpt><trkpt lat="-29.857371876873955" lon="115.16550487581728"><ele>46.0</ele><time>2026-04-13T03:49:21.002Z</time></trkpt><trkpt lat="-29.857340989524882" lon="115.16579388032285"><ele>46.0</ele><time>2026-04-13T03:49:22.002Z</time></trkpt><trkpt lat="-29.85731492359915" lon="115.16607981973367"><ele>46.0</ele><time>2026-04-13T03:49:23.002Z</time></trkpt><trkpt lat="-29.857292242636202" lon="115.16636692529343"><ele>46.0</ele><time>2026-04-13T03:49:24.002Z</time></trkpt><trkpt lat="-29.85727096216795" lon="115.16665654125038"><ele>45.5</ele><time>2026-04-13T03:49:25.002Z</time></trkpt><trkpt lat="-29.857248703859838" lon="115.16694729886626"><ele>45.0</ele><time>2026-04-13T03:49:26.002Z</time></trkpt><trkpt lat="-29.85722396604201" lon="115.16723649410118"><ele>45.0</ele><time>2026-04-13T03:49:27.002Z</time></trkpt><trkpt lat="-29.857193833895334" lon="115.16752987930316"><ele>45.0</ele><time>2026-04-13T03:49:28.002Z</time></trkpt><trkpt lat="-29.85716508681677" lon="115.16782129472607"><ele>45.0</ele><time>2026-04-13T03:49:29.002Z</time></trkpt><trkpt lat="-29.857136045059775" lon="115.16811065859727"><ele>45.0</ele><time>2026-04-13T03:49:30.002Z</time></trkpt><trkpt lat="-29.857107096975728" lon="115.16840023050163"><ele>45.5</ele><time>2026-04-13T03:49:31.002Z</time></trkpt><trkpt lat="-29.857079085269554" lon="115.16869212372615"><ele>46.0</ele><time>2026-04-13T03:49:32.002Z</time></trkpt><trkpt lat="-29.857055917405862" lon="115.16898155029298"><ele>46.5</ele><time>2026-04-13T03:49:33.002Z</time></trkpt><trkpt lat="-29.857032873019712" lon="115.16926970817474"><ele>47.0</ele><time>2026-04-13T03:49:34.002Z</time></trkpt><trkpt lat="-29.857007352348838" lon="115.16955408510488"><ele>47.0</ele><time>2026-04-13T03:49:35.002Z</time></trkpt><trkpt lat="-29.856976666932244" lon="115.169840960942"><ele>47.0</ele><time>2026-04-13T03:49:36.002Z</time></trkpt><trkpt lat="-29.856951976893107" lon="115.17012460259862"><ele>46.0</ele><time>2026-04-13T03:49:37.002Z</time></trkpt><trkpt lat="-29.85692965502595" lon="115.17040934329829"><ele>45.0</ele><time>2026-04-13T03:49:38.001Z</time></trkpt><trkpt lat="-29.856905294292936" lon="115.17070135585368"><ele>45.0</ele><time>2026-04-13T03:49:39.001Z</time></trkpt><trkpt lat="-29.856878397097038" lon="115.17099716009051"><ele>45.0</ele><time>2026-04-13T03:49:40.001Z</time></trkpt><trkpt lat="-29.856852334949977" lon="115.17129263957816"><ele>46.0</ele><time>2026-04-13T03:49:41.001Z</time></trkpt><trkpt lat="-29.856823383778885" lon="115.17159104575069"><ele>47.0</ele><time>2026-04-13T03:49:42.001Z</time></trkpt><trkpt lat="-29.856792414716406" lon="115.17189083370351"><ele>46.0</ele><time>2026-04-13T03:49:43.001Z</time></trkpt><trkpt lat="-29.856758623533157" lon="115.17219048951173"><ele>45.0</ele><time>2026-04-13T03:49:44.001Z</time></trkpt><trkpt lat="-29.856712815116577" lon="115.17248895503475"><ele>44.5</ele><time>2026-04-13T03:49:45.001Z</time></trkpt><trkpt lat="-29.856655168386954" lon="115.17279890047251"><ele>44.0</ele><time>2026-04-13T03:49:46.001Z</time></trkpt><trkpt lat="-29.85659355653234" lon="115.17311393283548"><ele>45.0</ele><time>2026-04-13T03:49:47.001Z</time></trkpt><trkpt lat="-29.8565282884737" lon="115.17341226779094"><ele>46.0</ele><time>2026-04-13T03:49:48.001Z</time></trkpt><trkpt lat="-29.856453048114236" lon="115.17370852793611"><ele>46.0</ele><time>2026-04-13T03:49:49.001Z</time></trkpt><trkpt lat="-29.856369576703106" lon="115.17400725460374"><ele>46.0</ele><time>2026-04-13T03:49:50.001Z</time></trkpt><trkpt lat="-29.856282232321632" lon="115.17430651928366"><ele>46.0</ele><time>2026-04-13T03:49:51.001Z</time></trkpt><trkpt lat="-29.856186264320417" lon="115.17460577951665"><ele>46.0</ele><time>2026-04-13T03:49:52.001Z</time></trkpt><trkpt lat="-29.8560820738038" lon="115.17489976204678"><ele>46.5</ele><time>2026-04-13T03:49:53.001Z</time></trkpt><trkpt lat="-29.855972071810736" lon="115.17519325629972"><ele>47.0</ele><time>2026-04-13T03:49:54.001Z</time></trkpt><trkpt lat="-29.855857496813435" lon="115.17548679883534"><ele>48.0</ele><time>2026-04-13T03:49:55.001Z</time></trkpt><trkpt lat="-29.855737548670206" lon="115.17577536092087"><ele>49.0</ele><time>2026-04-13T03:49:56.001Z</time></trkpt><trkpt lat="-29.855607089220847" lon="115.17606534226381"><ele>49.0</ele><time>2026-04-13T03:49:57.001Z</time></trkpt><trkpt lat="-29.855466927825187" lon="115.17635173076319"><ele>49.0</ele><time>2026-04-13T03:49:58.001Z</time></trkpt><trkpt lat="-29.855319448033157" lon="115.1766374625901"><ele>49.0</ele><time>2026-04-13T03:49:59.001Z</time></trkpt><trkpt lat="-29.855165282355685" lon="115.17692048680303"><ele>49.0</ele><time>2026-04-13T03:50:00.001Z</time></trkpt><trkpt lat="-29.855003251902513" lon="115.17720095129435"><ele>49.0</ele><time>2026-04-13T03:50:01.001Z</time></trkpt><trkpt lat="-29.85483291470525" lon="115.177478995652"><ele>49.0</ele><time>2026-04-13T03:50:02.001Z</time></trkpt><trkpt lat="-29.854658977325375" lon="115.17775587288156"><ele>49.0</ele><time>2026-04-13T03:50:03.001Z</time></trkpt><trkpt lat="-29.854484738877282" lon="115.1780355559035"><ele>49.0</ele><time>2026-04-13T03:50:04.001Z</time></trkpt><trkpt lat="-29.854312500743333" lon="115.1783181182278"><ele>49.0</ele><time>2026-04-13T03:50:05.001Z</time></trkpt><trkpt lat="-29.854142647650217" lon="115.1786036059199"><ele>49.0</ele><time>2026-04-13T03:50:06.001Z</time></trkpt><trkpt lat="-29.85397221451008" lon="115.17888738784782"><ele>49.0</ele><time>2026-04-13T03:50:07.001Z</time></trkpt><trkpt lat="-29.853800575661825" lon="115.17916866504717"><ele>49.0</ele><time>2026-04-13T03:50:08.001Z</time></trkpt><trkpt lat="-29.853626630540234" lon="115.17945026506254"><ele>49.5</ele><time>2026-04-13T03:50:09.001Z</time></trkpt><trkpt lat="-29.853452774603596" lon="115.17973207643985"><ele>50.0</ele><time>2026-04-13T03:50:10.001Z</time></trkpt><trkpt lat="-29.853286985657814" lon="115.18001344234588"><ele>50.5</ele><time>2026-04-13T03:50:11.001Z</time></trkpt><trkpt lat="-29.853123450036403" lon="115.18029038797384"><ele>51.0</ele><time>2026-04-13T03:50:12.001Z</time></trkpt><trkpt lat="-29.852955519570806" lon="115.18056652031659"><ele>51.5</ele><time>2026-04-13T03:50:13.001Z</time></trkpt><trkpt lat="-29.852789216592527" lon="115.18084164338296"><ele>52.0</ele><time>2026-04-13T03:50:14.001Z</time></trkpt><trkpt lat="-29.852619053080304" lon="115.18111871862979"><ele>52.5</ele><time>2026-04-13T03:50:15.001Z</time></trkpt><trkpt lat="-29.852449177186184" lon="115.18139283772611"><ele>53.0</ele><time>2026-04-13T03:50:16.001Z</time></trkpt><trkpt lat="-29.852276926446585" lon="115.18166685976796"><ele>53.0</ele><time>2026-04-13T03:50:17.001Z</time></trkpt><trkpt lat="-29.852103749458394" lon="115.18194406843993"><ele>53.0</ele><time>2026-04-13T03:50:18.001Z</time></trkpt><trkpt lat="-29.851935588394735" lon="115.18222214351252"><ele>53.5</ele><time>2026-04-13T03:50:19.001Z</time></trkpt><trkpt lat="-29.851765092470913" lon="115.18250123464264"><ele>54.0</ele><time>2026-04-13T03:50:20.001Z</time></trkpt><trkpt lat="-29.851594353850334" lon="115.18278150822898"><ele>54.0</ele><time>2026-04-13T03:50:21.001Z</time></trkpt><trkpt lat="-29.851421642741638" lon="115.18306100443958"><ele>54.0</ele><time>2026-04-13T03:50:22.001Z</time></trkpt><trkpt lat="-29.85125298472561" lon="115.18334128639736"><ele>54.0</ele><time>2026-04-13T03:50:23.001Z</time></trkpt><trkpt lat="-29.85108373590285" lon="115.18362330786253"><ele>54.0</ele><time>2026-04-13T03:50:24.001Z</time></trkpt><trkpt lat="-29.850909782577663" lon="115.18391059807544"><ele>53.5</ele><time>2026-04-13T03:50:25.001Z</time></trkpt><trkpt lat="-29.850733405560966" lon="115.18420191855341"><ele>53.0</ele><time>2026-04-13T03:50:26.001Z</time></trkpt><trkpt lat="-29.850558429290583" lon="115.1844921034126"><ele>53.0</ele><time>2026-04-13T03:50:27.001Z</time></trkpt><trkpt lat="-29.850385053111882" lon="115.1847794988356"><ele>53.0</ele><time>2026-04-13T03:50:28.001Z</time></trkpt><trkpt lat="-29.850211037392732" lon="115.18506667128473"><ele>53.0</ele><time>2026-04-13T03:50:29.001Z</time></trkpt><trkpt lat="-29.85003707177283" lon="115.18535250680607"><ele>53.0</ele><time>2026-04-13T03:50:30.001Z</time></trkpt><trkpt lat="-29.849862689336675" lon="115.18563764429867"><ele>53.0</ele><time>2026-04-13T03:50:31.001Z</time></trkpt><trkpt lat="-29.84968966510776" lon="115.18592317487412"><ele>53.0</ele><time>2026-04-13T03:50:32.001Z</time></trkpt><trkpt lat="-29.849516567381283" lon="115.18621237297928"><ele>53.0</ele><time>2026-04-13T03:50:33.001Z</time></trkpt><trkpt lat="-29.849340819284564" lon="115.18650450053549"><ele>53.0</ele><time>2026-04-13T03:50:34.001Z</time></trkpt><trkpt lat="-29.849166745092845" lon="115.18679498235791"><ele>53.5</ele><time>2026-04-13T03:50:35.001Z</time></trkpt><trkpt lat="-29.84899662437083" lon="115.18708595497438"><ele>54.0</ele><time>2026-04-13T03:50:36.001Z</time></trkpt><trkpt lat="-29.848834962555934" lon="115.18737640768641"><ele>54.0</ele><time>2026-04-13T03:50:37.001Z</time></trkpt><trkpt lat="-29.848681987523452" lon="115.18767208001796"><ele>54.0</ele><time>2026-04-13T03:50:38.001Z</time></trkpt><trkpt lat="-29.848536401722086" lon="115.18797324390364"><ele>55.0</ele><time>2026-04-13T03:50:39.001Z</time></trkpt><trkpt lat="-29.84839451158194" lon="115.18827941214047"><ele>56.0</ele><time>2026-04-13T03:50:40.001Z</time></trkpt><trkpt lat="-29.84825774061594" lon="115.18859078122553"><ele>56.0</ele><time>2026-04-13T03:50:41.001Z</time></trkpt><trkpt lat="-29.848128378188044" lon="115.18890799913723"><ele>56.0</ele><time>2026-04-13T03:50:42.001Z</time></trkpt><trkpt lat="-29.848005449753543" lon="115.18922811781063"><ele>55.5</ele><time>2026-04-13T03:50:43.001Z</time></trkpt><trkpt lat="-29.84788808572663" lon="115.1895512977307"><ele>55.0</ele><time>2026-04-13T03:50:44.001Z</time></trkpt><trkpt lat="-29.847775709746916" lon="115.18987756447946"><ele>55.0</ele><time>2026-04-13T03:50:45.001Z</time></trkpt><trkpt lat="-29.847668028516203" lon="115.19020783491452"><ele>55.0</ele><time>2026-04-13T03:50:46.001Z</time></trkpt><trkpt lat="-29.847570044512707" lon="115.19054304100956"><ele>54.0</ele><time>2026-04-13T03:50:47.001Z</time></trkpt><trkpt lat="-29.84748192399672" lon="115.19088058946511"><ele>53.0</ele><time>2026-04-13T03:50:48.001Z</time></trkpt><trkpt lat="-29.84740050741137" lon="115.19122201333984"><ele>53.0</ele><time>2026-04-13T03:50:49.001Z</time></trkpt><trkpt lat="-29.847325722924765" lon="115.19156401437765"><ele>53.0</ele><time>2026-04-13T03:50:50.001Z</time></trkpt><trkpt lat="-29.847255984397435" lon="115.19190360242172"><ele>53.0</ele><time>2026-04-13T03:50:51.001Z</time></trkpt><trkpt lat="-29.847196381433225" lon="115.19224267541345"><ele>53.0</ele><time>2026-04-13T03:50:52.001Z</time></trkpt><trkpt lat="-29.847146587638896" lon="115.19258170421533"><ele>53.0</ele><time>2026-04-13T03:50:53.001Z</time></trkpt><trkpt lat="-29.84710322140663" lon="115.19292272768273"><ele>53.0</ele><time>2026-04-13T03:50:54.001Z</time></trkpt><trkpt lat="-29.847064091918774" lon="115.19326838753844"><ele>53.0</ele><time>2026-04-13T03:50:55.001Z</time></trkpt><trkpt lat="-29.847032221814832" lon="115.19361278164082"><ele>53.0</ele><time>2026-04-13T03:50:56.001Z</time></trkpt><trkpt lat="-29.847007404329577" lon="115.1939521458212"><ele>53.5</ele><time>2026-04-13T03:50:57.001Z</time></trkpt><trkpt lat="-29.84699053410962" lon="115.1942911501645"><ele>54.0</ele><time>2026-04-13T03:50:58.001Z</time></trkpt><trkpt lat="-29.846979714280415" lon="115.1946253894444"><ele>55.0</ele><time>2026-04-13T03:50:59.001Z</time></trkpt><trkpt lat="-29.846973853726386" lon="115.19495627570042"><ele>56.0</ele><time>2026-04-13T03:51:00.001Z</time></trkpt><trkpt lat="-29.846974170554404" lon="115.19528124564488"><ele>56.0</ele><time>2026-04-13T03:51:01.001Z</time></trkpt><trkpt lat="-29.846979740386917" lon="115.19560075816166"><ele>56.0</ele><time>2026-04-13T03:51:02.001Z</time></trkpt><trkpt lat="-29.846985620099115" lon="115.19591983673007"><ele>57.0</ele><time>2026-04-13T03:51:03.002Z</time></trkpt><trkpt lat="-29.84698555810474" lon="115.19624074157355"><ele>58.0</ele><time>2026-04-13T03:51:04.002Z</time></trkpt><trkpt lat="-29.8469831940989" lon="115.19656204224324"><ele>58.5</ele><time>2026-04-13T03:51:05.002Z</time></trkpt><trkpt lat="-29.846980851127284" lon="115.19688895803179"><ele>59.0</ele><time>2026-04-13T03:51:06.002Z</time></trkpt><trkpt lat="-29.846982184447754" lon="115.1972162981716"><ele>59.0</ele><time>2026-04-13T03:51:07.002Z</time></trkpt><trkpt lat="-29.846982066004724" lon="115.19754832371781"><ele>59.0</ele><time>2026-04-13T03:51:08.002Z</time></trkpt><trkpt lat="-29.846982894797225" lon="115.1978839195759"><ele>59.0</ele><time>2026-04-13T03:51:09.002Z</time></trkpt><trkpt lat="-29.846983246543562" lon="115.19822009332681"><ele>59.0</ele><time>2026-04-13T03:51:10.002Z</time></trkpt><trkpt lat="-29.846982621124063" lon="115.19856091332467"><ele>59.0</ele><time>2026-04-13T03:51:11.002Z</time></trkpt><trkpt lat="-29.846980667336148" lon="115.19890198482007"><ele>59.0</ele><time>2026-04-13T03:51:12.002Z</time></trkpt><trkpt lat="-29.84698044588373" lon="115.19924470539247"><ele>58.5</ele><time>2026-04-13T03:51:13.002Z</time></trkpt><trkpt lat="-29.846983516182032" lon="115.19959153576481"><ele>58.0</ele><time>2026-04-13T03:51:14.002Z</time></trkpt><trkpt lat="-29.84698733710476" lon="115.19993919844555"><ele>58.0</ele><time>2026-04-13T03:51:15.002Z</time></trkpt><trkpt lat="-29.84699179140583" lon="115.20028543877542"><ele>58.0</ele><time>2026-04-13T03:51:16.002Z</time></trkpt><trkpt lat="-29.84699198383473" lon="115.2006299137307"><ele>58.0</ele><time>2026-04-13T03:51:17.002Z</time></trkpt><trkpt lat="-29.84699033088309" lon="115.20097430116496"><ele>58.0</ele><time>2026-04-13T03:51:18.002Z</time></trkpt><trkpt lat="-29.846990728871816" lon="115.20131887270678"><ele>59.0</ele><time>2026-04-13T03:51:19.002Z</time></trkpt><trkpt lat="-29.8469909731484" lon="115.20166326369139"><ele>60.0</ele><time>2026-04-13T03:51:20.002Z</time></trkpt><trkpt lat="-29.84699313477383" lon="115.20200652470479"><ele>60.5</ele><time>2026-04-13T03:51:21.002Z</time></trkpt><trkpt lat="-29.846992953654393" lon="115.20235029813244"><ele>61.0</ele><time>2026-04-13T03:51:22.002Z</time></trkpt><trkpt lat="-29.846992906577505" lon="115.20269225308009"><ele>61.0</ele><time>2026-04-13T03:51:23.002Z</time></trkpt><trkpt lat="-29.84699142588279" lon="115.20304041030575"><ele>61.0</ele><time>2026-04-13T03:51:24.002Z</time></trkpt><trkpt lat="-29.846988975272392" lon="115.20339305604703"><ele>61.0</ele><time>2026-04-13T03:51:25.002Z</time></trkpt><trkpt lat="-29.846989710844166" lon="115.20374252654429"><ele>61.0</ele><time>2026-04-13T03:51:26.002Z</time></trkpt><trkpt lat="-29.84698966633722" lon="115.20408737624471"><ele>61.0</ele><time>2026-04-13T03:51:27.002Z</time></trkpt><trkpt lat="-29.84699088834321" lon="115.20442637810208"><ele>61.0</ele><time>2026-04-13T03:51:28.002Z</time></trkpt><trkpt lat="-29.84699255520226" lon="115.20476274601184"><ele>60.0</ele><time>2026-04-13T03:51:29.002Z</time></trkpt><trkpt lat="-29.846993334249184" lon="115.20509381202085"><ele>59.0</ele><time>2026-04-13T03:51:30.002Z</time></trkpt><trkpt lat="-29.846994339875685" lon="115.20542075831005"><ele>59.0</ele><time>2026-04-13T03:51:31.002Z</time></trkpt><trkpt lat="-29.846994510050177" lon="115.20574653356903"><ele>59.0</ele><time>2026-04-13T03:51:32.002Z</time></trkpt><trkpt lat="-29.846997086228853" lon="115.20607133563182"><ele>59.0</ele><time>2026-04-13T03:51:33.002Z</time></trkpt><trkpt lat="-29.846999677103387" lon="115.20639103317333"><ele>59.0</ele><time>2026-04-13T03:51:34.002Z</time></trkpt><trkpt lat="-29.847003007834058" lon="115.20670778704599"><ele>59.5</ele><time>2026-04-13T03:51:35.002Z</time></trkpt><trkpt lat="-29.847003585774132" lon="115.20702184446885"><ele>60.0</ele><time>2026-04-13T03:51:36.002Z</time></trkpt><trkpt lat="-29.84700270263221" lon="115.20733178112629"><ele>60.0</ele><time>2026-04-13T03:51:37.002Z</time></trkpt><trkpt lat="-29.847000160394174" lon="115.20763739892985"><ele>60.0</ele><time>2026-04-13T03:51:38.002Z</time></trkpt><trkpt lat="-29.84699983320383" lon="115.20793880604683"><ele>60.5</ele><time>2026-04-13T03:51:39.002Z</time></trkpt><trkpt lat="-29.846999094334187" lon="115.2082469135496"><ele>61.0</ele><time>2026-04-13T03:51:40.002Z</time></trkpt><trkpt lat="-29.846995442226874" lon="115.208553949554"><ele>61.0</ele><time>2026-04-13T03:51:41.002Z</time></trkpt><trkpt lat="-29.846987513598453" lon="115.20885489986667"><ele>61.0</ele><time>2026-04-13T03:51:42.002Z</time></trkpt><trkpt lat="-29.84696595726963" lon="115.20915646324077"><ele>61.0</ele><time>2026-04-13T03:51:43.002Z</time></trkpt><trkpt lat="-29.846928092273913" lon="115.20945847420482"><ele>61.0</ele><time>2026-04-13T03:51:44.001Z</time></trkpt><trkpt lat="-29.8468770239084" lon="115.20975716768558"><ele>61.0</ele><time>2026-04-13T03:51:45.001Z</time></trkpt><trkpt lat="-29.84681099095216" lon="115.21005254012692"><ele>61.0</ele><time>2026-04-13T03:51:46.001Z</time></trkpt><trkpt lat="-29.846733074602362" lon="115.21034873364502"><ele>61.0</ele><time>2026-04-13T03:51:47.001Z</time></trkpt><trkpt lat="-29.84664371028663" lon="115.21064054569771"><ele>61.0</ele><time>2026-04-13T03:51:48.001Z</time></trkpt><trkpt lat="-29.846541721144998" lon="115.21092608024814"><ele>61.0</ele><time>2026-04-13T03:51:49.001Z</time></trkpt><trkpt lat="-29.846429249760725" lon="115.21120786051357"><ele>61.0</ele><time>2026-04-13T03:51:50.001Z</time></trkpt><trkpt lat="-29.84630372099493" lon="115.21149033069942"><ele>61.5</ele><time>2026-04-13T03:51:51.001Z</time></trkpt><trkpt lat="-29.846164119858692" lon="115.21176980450943"><ele>62.0</ele><time>2026-04-13T03:51:52.001Z</time></trkpt><trkpt lat="-29.846011871810404" lon="115.21204348427395"><ele>61.5</ele><time>2026-04-13T03:51:53.001Z</time></trkpt><trkpt lat="-29.845855875379367" lon="115.2123095430554"><ele>61.0</ele><time>2026-04-13T03:51:54.001Z</time></trkpt><trkpt lat="-29.845701660566633" lon="115.21257082126623"><ele>61.0</ele><time>2026-04-13T03:51:55.001Z</time></trkpt><trkpt lat="-29.845551431273435" lon="115.21282830055374"><ele>61.0</ele><time>2026-04-13T03:51:56.001Z</time></trkpt><trkpt lat="-29.845403686994086" lon="115.2130784943121"><ele>62.0</ele><time>2026-04-13T03:51:57.001Z</time></trkpt><trkpt lat="-29.845256704642864" lon="115.21332870284753"><ele>63.0</ele><time>2026-04-13T03:51:58.001Z</time></trkpt><trkpt lat="-29.8451087851217" lon="115.21357776728065"><ele>63.0</ele><time>2026-04-13T03:51:59.001Z</time></trkpt><trkpt lat="-29.844960681055394" lon="115.21382511344676"><ele>63.0</ele><time>2026-04-13T03:52:00.001Z</time></trkpt><trkpt lat="-29.84481337681463" lon="115.21407614255098"><ele>63.0</ele><time>2026-04-13T03:52:01.001Z</time></trkpt><trkpt lat="-29.844667784202265" lon="115.21433231466025"><ele>63.0</ele><time>2026-04-13T03:52:02.001Z</time></trkpt><trkpt lat="-29.844520221118152" lon="115.21459057028893"><ele>63.5</ele><time>2026-04-13T03:52:03.001Z</time></trkpt><trkpt lat="-29.844369086032756" lon="115.21485258707096"><ele>64.0</ele><time>2026-04-13T03:52:04.001Z</time></trkpt><trkpt lat="-29.84421741250684" lon="115.2151152224418"><ele>64.0</ele><time>2026-04-13T03:52:05.001Z</time></trkpt><trkpt lat="-29.844067506053364" lon="115.21537946327253"><ele>64.0</ele><time>2026-04-13T03:52:06.001Z</time></trkpt><trkpt lat="-29.843912485738006" lon="115.21564598957833"><ele>63.5</ele><time>2026-04-13T03:52:07.001Z</time></trkpt><trkpt lat="-29.843755487940815" lon="115.21591413944833"><ele>63.0</ele><time>2026-04-13T03:52:08.001Z</time></trkpt><trkpt lat="-29.843602080344503" lon="115.2161820088869"><ele>63.5</ele><time>2026-04-13T03:52:09.001Z</time></trkpt><trkpt lat="-29.843450089092368" lon="115.21644953751368"><ele>64.0</ele><time>2026-04-13T03:52:10.001Z</time></trkpt><trkpt lat="-29.843295942989872" lon="115.21671797932167"><ele>64.5</ele><time>2026-04-13T03:52:11.001Z</time></trkpt><trkpt lat="-29.843140822805513" lon="115.21698463291496"><ele>65.0</ele><time>2026-04-13T03:52:12.001Z</time></trkpt><trkpt lat="-29.842987092468718" lon="115.21725157708897"><ele>66.0</ele><time>2026-04-13T03:52:13.001Z</time></trkpt><trkpt lat="-29.842836891021904" lon="115.21751537875691"><ele>67.0</ele><time>2026-04-13T03:52:14.001Z</time></trkpt><trkpt lat="-29.842682925776636" lon="115.21777973935949"><ele>67.0</ele><time>2026-04-13T03:52:15.001Z</time></trkpt><trkpt lat="-29.842529995404785" lon="115.21804221119822"><ele>67.0</ele><time>2026-04-13T03:52:16.001Z</time></trkpt><trkpt lat="-29.842375640330417" lon="115.21830639155745"><ele>67.0</ele><time>2026-04-13T03:52:17.001Z</time></trkpt><trkpt lat="-29.842221406157506" lon="115.2185705786642"><ele>67.0</ele><time>2026-04-13T03:52:18.001Z</time></trkpt><trkpt lat="-29.842067508178143" lon="115.2188348852132"><ele>66.5</ele><time>2026-04-13T03:52:19.001Z</time></trkpt><trkpt lat="-29.841911581058163" lon="115.21910387119502"><ele>66.0</ele><time>2026-04-13T03:52:20.001Z</time></trkpt><trkpt lat="-29.841754262192328" lon="115.21937718676598"><ele>66.0</ele><time>2026-04-13T03:52:21.001Z</time></trkpt><trkpt lat="-29.841594792043697" lon="115.21965042661466"><ele>66.0</ele><time>2026-04-13T03:52:22.001Z</time></trkpt><trkpt lat="-29.84143610362324" lon="115.21992116152833"><ele>66.0</ele><time>2026-04-13T03:52:23.001Z</time></trkpt><trkpt lat="-29.841277477891406" lon="115.22018989799432"><ele>66.0</ele><time>2026-04-13T03:52:24.001Z</time></trkpt><trkpt lat="-29.84112161037741" lon="115.22045826410665"><ele>66.0</ele><time>2026-04-13T03:52:25.001Z</time></trkpt><trkpt lat="-29.840965769682203" lon="115.22072517975971"><ele>66.0</ele><time>2026-04-13T03:52:26.001Z</time></trkpt><trkpt lat="-29.84080490215815" lon="115.22098678310115"><ele>66.0</ele><time>2026-04-13T03:52:27.001Z</time></trkpt><trkpt lat="-29.840641218351404" lon="115.22124142226934"><ele>66.0</ele><time>2026-04-13T03:52:28.001Z</time></trkpt><trkpt lat="-29.84048040908281" lon="115.22149463294296"><ele>66.0</ele><time>2026-04-13T03:52:29.001Z</time></trkpt><trkpt lat="-29.84032256231569" lon="115.22174674038554"><ele>66.0</ele><time>2026-04-13T03:52:30.001Z</time></trkpt><trkpt lat="-29.840163108165314" lon="115.22200114838364"><ele>67.0</ele><time>2026-04-13T03:52:31.001Z</time></trkpt><trkpt lat="-29.840007443622817" lon="115.22225375589102"><ele>68.0</ele><time>2026-04-13T03:52:32.001Z</time></trkpt><trkpt lat="-29.83985919852342" lon="115.22250759766375"><ele>68.5</ele><time>2026-04-13T03:52:33.001Z</time></trkpt><trkpt lat="-29.839710007855103" lon="115.22276490266829"><ele>69.0</ele><time>2026-04-13T03:52:34.001Z</time></trkpt><trkpt lat="-29.839557933784658" lon="115.2230211182765"><ele>69.0</ele><time>2026-04-13T03:52:35.001Z</time></trkpt><trkpt lat="-29.83940120516038" lon="115.22327568063173"><ele>69.0</ele><time>2026-04-13T03:52:36.001Z</time></trkpt><trkpt lat="-29.839247291463728" lon="115.22352529359266"><ele>69.5</ele><time>2026-04-13T03:52:37.001Z</time></trkpt><trkpt lat="-29.839094887266096" lon="115.22377797930258"><ele>70.0</ele><time>2026-04-13T03:52:38.001Z</time></trkpt><trkpt lat="-29.838945957857504" lon="115.22402596180439"><ele>70.0</ele><time>2026-04-13T03:52:39.001Z</time></trkpt><trkpt lat="-29.838795485158897" lon="115.22427292165017"><ele>70.0</ele><time>2026-04-13T03:52:40.001Z</time></trkpt><trkpt lat="-29.838646238073256" lon="115.22451696942144"><ele>70.0</ele><time>2026-04-13T03:52:41.001Z</time></trkpt><trkpt lat="-29.838499686001132" lon="115.22476228193312"><ele>70.0</ele><time>2026-04-13T03:52:42.001Z</time></trkpt><trkpt lat="-29.838353666995143" lon="115.22500781392507"><ele>70.0</ele><time>2026-04-13T03:52:43.001Z</time></trkpt><trkpt lat="-29.83820375669745" lon="115.22525749234504"><ele>70.0</ele><time>2026-04-13T03:52:44.001Z</time></trkpt><trkpt lat="-29.838046431936096" lon="115.22551385635404"><ele>70.5</ele><time>2026-04-13T03:52:45.001Z</time></trkpt><trkpt lat="-29.837884787371973" lon="115.22577588942265"><ele>71.0</ele><time>2026-04-13T03:52:46.001Z</time></trkpt><trkpt lat="-29.837720527887285" lon="115.22604178210076"><ele>70.5</ele><time>2026-04-13T03:52:47.001Z</time></trkpt><trkpt lat="-29.837555302586626" lon="115.22631395890755"><ele>70.0</ele><time>2026-04-13T03:52:48.001Z</time></trkpt><trkpt lat="-29.83739059028756" lon="115.22658975619922"><ele>71.0</ele><time>2026-04-13T03:52:49.001Z</time></trkpt><trkpt lat="-29.83722652093368" lon="115.22687020158104"><ele>72.0</ele><time>2026-04-13T03:52:50.001Z</time></trkpt><trkpt lat="-29.837064037290403" lon="115.22715572045159"><ele>72.0</ele><time>2026-04-13T03:52:51.001Z</time></trkpt><trkpt lat="-29.836902410059665" lon="115.22744792637982"><ele>72.0</ele><time>2026-04-13T03:52:52.001Z</time></trkpt><trkpt lat="-29.83674167186813" lon="115.22774109067268"><ele>71.5</ele><time>2026-04-13T03:52:53.001Z</time></trkpt><trkpt lat="-29.83658209861309" lon="115.22803020946311"><ele>71.0</ele><time>2026-04-13T03:52:54.001Z</time></trkpt><trkpt lat="-29.836421978961248" lon="115.2283154570223"><ele>72.0</ele><time>2026-04-13T03:52:55.001Z</time></trkpt><trkpt lat="-29.836263194135903" lon="115.22859743007405"><ele>73.0</ele><time>2026-04-13T03:52:56.001Z</time></trkpt><trkpt lat="-29.836111588378145" lon="115.2288763119149"><ele>72.5</ele><time>2026-04-13T03:52:57.001Z</time></trkpt><trkpt lat="-29.835960929154286" lon="115.22915473062781"><ele>72.0</ele><time>2026-04-13T03:52:58.001Z</time></trkpt><trkpt lat="-29.835808986412907" lon="115.22942988196915"><ele>72.0</ele><time>2026-04-13T03:52:59.001Z</time></trkpt><trkpt lat="-29.835652530685493" lon="115.22970960343983"><ele>72.0</ele><time>2026-04-13T03:53:00.001Z</time></trkpt><trkpt lat="-29.83549600683228" lon="115.22999374657786"><ele>72.0</ele><time>2026-04-13T03:53:01.001Z</time></trkpt><trkpt lat="-29.83534047075487" lon="115.23027769969"><ele>72.0</ele><time>2026-04-13T03:53:02.001Z</time></trkpt><trkpt lat="-29.83518882556277" lon="115.23055583033488"><ele>71.5</ele><time>2026-04-13T03:53:03.001Z</time></trkpt><trkpt lat="-29.83503633283409" lon="115.2308300803867"><ele>71.0</ele><time>2026-04-13T03:53:04.001Z</time></trkpt><trkpt lat="-29.83488541776389" lon="115.23109943340576"><ele>71.0</ele><time>2026-04-13T03:53:05.001Z</time></trkpt><trkpt lat="-29.8347331640702" lon="115.23137080928734"><ele>71.0</ele><time>2026-04-13T03:53:06.001Z</time></trkpt><trkpt lat="-29.834585554440228" lon="115.23164011922081"><ele>72.0</ele><time>2026-04-13T03:53:07.001Z</time></trkpt><trkpt lat="-29.83443979611209" lon="115.23191384437136"><ele>73.0</ele><time>2026-04-13T03:53:08.001Z</time></trkpt><trkpt lat="-29.8342960213383" lon="115.23218482285931"><ele>74.5</ele><time>2026-04-13T03:53:09.001Z</time></trkpt><trkpt lat="-29.834146390481987" lon="115.23245925955378"><ele>76.0</ele><time>2026-04-13T03:53:10.001Z</time></trkpt><trkpt lat="-29.833994218080207" lon="115.23273267127321"><ele>76.0</ele><time>2026-04-13T03:53:11.001Z</time></trkpt><trkpt lat="-29.83383878290349" lon="115.23301012053722"><ele>76.0</ele><time>2026-04-13T03:53:12.001Z</time></trkpt><trkpt lat="-29.83368561147468" lon="115.23328783090312"><ele>76.0</ele><time>2026-04-13T03:53:13.002Z</time></trkpt><trkpt lat="-29.83353183856358" lon="115.23357044522537"><ele>76.0</ele><time>2026-04-13T03:53:14.002Z</time></trkpt><trkpt lat="-29.833380151963425" lon="115.23384895611943"><ele>76.0</ele><time>2026-04-13T03:53:15.002Z</time></trkpt><trkpt lat="-29.833226635607815" lon="115.23412569581917"><ele>76.0</ele><time>2026-04-13T03:53:16.002Z</time></trkpt><trkpt lat="-29.83307389125669" lon="115.23440175111969"><ele>76.0</ele><time>2026-04-13T03:53:17.002Z</time></trkpt><trkpt lat="-29.83292296184756" lon="115.23467588931366"><ele>76.0</ele><time>2026-04-13T03:53:18.002Z</time></trkpt><trkpt lat="-29.832774329556187" lon="115.23494748314819"><ele>75.5</ele><time>2026-04-13T03:53:19.002Z</time></trkpt><trkpt lat="-29.83262812793932" lon="115.23521563812595"><ele>75.0</ele><time>2026-04-13T03:53:20.002Z</time></trkpt><trkpt lat="-29.832484827254483" lon="115.23548245232803"><ele>75.5</ele><time>2026-04-13T03:53:21.002Z</time></trkpt><trkpt lat="-29.832342953333317" lon="115.2357476229695"><ele>76.0</ele><time>2026-04-13T03:53:22.002Z</time></trkpt><trkpt lat="-29.83219801597041" lon="115.23601283691053"><ele>76.0</ele><time>2026-04-13T03:53:23.002Z</time></trkpt><trkpt lat="-29.83205474814414" lon="115.23627510713791"><ele>76.0</ele><time>2026-04-13T03:53:24.002Z</time></trkpt><trkpt lat="-29.831910655647057" lon="115.2365347191408"><ele>75.5</ele><time>2026-04-13T03:53:25.002Z</time></trkpt><trkpt lat="-29.831765522173523" lon="115.23679611775378"><ele>75.0</ele><time>2026-04-13T03:53:26.002Z</time></trkpt><trkpt lat="-29.83162166629718" lon="115.2370570379361"><ele>76.5</ele><time>2026-04-13T03:53:27.002Z</time></trkpt><trkpt lat="-29.831476185483154" lon="115.23732320156834"><ele>78.0</ele><time>2026-04-13T03:53:28.002Z</time></trkpt><trkpt lat="-29.831326042066998" lon="115.23759644362102"><ele>78.0</ele><time>2026-04-13T03:53:29.002Z</time></trkpt><trkpt lat="-29.831172153456833" lon="115.23787398536942"><ele>78.0</ele><time>2026-04-13T03:53:30.002Z</time></trkpt><trkpt lat="-29.831020149276856" lon="115.23815182385658"><ele>79.0</ele><time>2026-04-13T03:53:31.002Z</time></trkpt><trkpt lat="-29.830871873627697" lon="115.23843385129342"><ele>80.0</ele><time>2026-04-13T03:53:32.002Z</time></trkpt><trkpt lat="-29.830725915027337" lon="115.23871497377866"><ele>80.5</ele><time>2026-04-13T03:53:33.002Z</time></trkpt><trkpt lat="-29.830580232647783" lon="115.23899821252898"><ele>81.0</ele><time>2026-04-13T03:53:34.002Z</time></trkpt><trkpt lat="-29.830434871787112" lon="115.23928690619054"><ele>81.0</ele><time>2026-04-13T03:53:35.002Z</time></trkpt><trkpt lat="-29.830293430958246" lon="115.23958076167274"><ele>81.0</ele><time>2026-04-13T03:53:36.002Z</time></trkpt><trkpt lat="-29.830153704433865" lon="115.23987863038198"><ele>81.0</ele><time>2026-04-13T03:53:37.002Z</time></trkpt><trkpt lat="-29.830013465724605" lon="115.24017887495393"><ele>81.0</ele><time>2026-04-13T03:53:38.002Z</time></trkpt><trkpt lat="-29.82986839375942" lon="115.24048630384637"><ele>80.5</ele><time>2026-04-13T03:53:39.002Z</time></trkpt><trkpt lat="-29.82972107459645" lon="115.24079496414316"><ele>80.0</ele><time>2026-04-13T03:53:40.002Z</time></trkpt><trkpt lat="-29.829576211425188" lon="115.24109989668159"><ele>80.0</ele><time>2026-04-13T03:53:41.002Z</time></trkpt><trkpt lat="-29.829432483316005" lon="115.24140368930415"><ele>80.0</ele><time>2026-04-13T03:53:42.002Z</time></trkpt><trkpt lat="-29.829290738068032" lon="115.24170518403649"><ele>80.0</ele><time>2026-04-13T03:53:43.002Z</time></trkpt><trkpt lat="-29.829149590786063" lon="115.2420032396659"><ele>80.0</ele><time>2026-04-13T03:53:44.002Z</time></trkpt><trkpt lat="-29.82900926484981" lon="115.24230215896468"><ele>80.0</ele><time>2026-04-13T03:53:45.002Z</time></trkpt><trkpt lat="-29.82887382642342" lon="115.24259964711256"><ele>80.0</ele><time>2026-04-13T03:53:46.002Z</time></trkpt><trkpt lat="-29.828739630623673" lon="115.2428926232684"><ele>80.0</ele><time>2026-04-13T03:53:47.002Z</time></trkpt><trkpt lat="-29.828604287563525" lon="115.24318380519067"><ele>80.0</ele><time>2026-04-13T03:53:48.002Z</time></trkpt><trkpt lat="-29.82847117276333" lon="115.24347244066938"><ele>79.5</ele><time>2026-04-13T03:53:49.002Z</time></trkpt><trkpt lat="-29.82833844166043" lon="115.24375740234267"><ele>79.0</ele><time>2026-04-13T03:53:50.001Z</time></trkpt><trkpt lat="-29.828203738549842" lon="115.24403757083552"><ele>79.0</ele><time>2026-04-13T03:53:51.001Z</time></trkpt><trkpt lat="-29.828071023413173" lon="115.24431672659846"><ele>79.0</ele><time>2026-04-13T03:53:52.001Z</time></trkpt><trkpt lat="-29.82793937252157" lon="115.24459994669053"><ele>80.0</ele><time>2026-04-13T03:53:53.001Z</time></trkpt><trkpt lat="-29.827808723360388" lon="115.24488231392183"><ele>81.0</ele><time>2026-04-13T03:53:54.001Z</time></trkpt><trkpt lat="-29.827675550963438" lon="115.24516301028034"><ele>81.5</ele><time>2026-04-13T03:53:55.001Z</time></trkpt><trkpt lat="-29.827541287349806" lon="115.24544323447581"><ele>82.0</ele><time>2026-04-13T03:53:56.001Z</time></trkpt><trkpt lat="-29.82740796111226" lon="115.2457236200747"><ele>83.0</ele><time>2026-04-13T03:53:57.001Z</time></trkpt><trkpt lat="-29.82727984942558" lon="115.24600129855929"><ele>84.0</ele><time>2026-04-13T03:53:58.001Z</time></trkpt><trkpt lat="-29.82715065789395" lon="115.24627506789663"><ele>83.5</ele><time>2026-04-13T03:53:59.001Z</time></trkpt><trkpt lat="-29.827024194294395" lon="115.24654538669935"><ele>83.0</ele><time>2026-04-13T03:54:00.001Z</time></trkpt><trkpt lat="-29.826904573986422" lon="115.24680948500605"><ele>82.5</ele><time>2026-04-13T03:54:01.001Z</time></trkpt><trkpt lat="-29.826793758977118" lon="115.24707195036109"><ele>82.0</ele><time>2026-04-13T03:54:02.001Z</time></trkpt><trkpt lat="-29.82669243514675" lon="115.24733975705742"><ele>84.0</ele><time>2026-04-13T03:54:03.001Z</time></trkpt><trkpt lat="-29.826602109094495" lon="115.24761715066188"><ele>86.0</ele><time>2026-04-13T03:54:04.001Z</time></trkpt><trkpt lat="-29.82652681537428" lon="115.24790235896303"><ele>87.0</ele><time>2026-04-13T03:54:05.001Z</time></trkpt><trkpt lat="-29.826462963715123" lon="115.24820346626211"><ele>88.0</ele><time>2026-04-13T03:54:06.001Z</time></trkpt><trkpt lat="-29.82640893203265" lon="115.24851555805887"><ele>88.0</ele><time>2026-04-13T03:54:07.001Z</time></trkpt><trkpt lat="-29.826360766377086" lon="115.24883951726538"><ele>88.0</ele><time>2026-04-13T03:54:08.001Z</time></trkpt><trkpt lat="-29.82632284465284" lon="115.24916892581295"><ele>88.0</ele><time>2026-04-13T03:54:09.001Z</time></trkpt><trkpt lat="-29.82629943852839" lon="115.24949978381387"><ele>88.0</ele><time>2026-04-13T03:54:10.001Z</time></trkpt><trkpt lat="-29.826290868649725" lon="115.2498293186203"><ele>86.5</ele><time>2026-04-13T03:54:11.001Z</time></trkpt><trkpt lat="-29.826300605517023" lon="115.25015936298912"><ele>85.0</ele><time>2026-04-13T03:54:12.001Z</time></trkpt><trkpt lat="-29.826326642394534" lon="115.250496023414"><ele>85.0</ele><time>2026-04-13T03:54:13.001Z</time></trkpt><trkpt lat="-29.826365840929444" lon="115.25083230086904"><ele>85.0</ele><time>2026-04-13T03:54:14.001Z</time></trkpt><trkpt lat="-29.82641422772585" lon="115.25116748955148"><ele>86.0</ele><time>2026-04-13T03:54:15.001Z</time></trkpt><trkpt lat="-29.82646154427058" lon="115.251506398749"><ele>87.0</ele><time>2026-04-13T03:54:16.001Z</time></trkpt><trkpt lat="-29.82650701506829" lon="115.25183948952386"><ele>87.0</ele><time>2026-04-13T03:54:17.001Z</time></trkpt><trkpt lat="-29.82655063642471" lon="115.25216882678184"><ele>87.0</ele><time>2026-04-13T03:54:18.001Z</time></trkpt><trkpt lat="-29.826589989118467" lon="115.25249270678158"><ele>87.0</ele><time>2026-04-13T03:54:19.001Z</time></trkpt><trkpt lat="-29.82662750498531" lon="115.252814695317"><ele>87.0</ele><time>2026-04-13T03:54:20.001Z</time></trkpt><trkpt lat="-29.82666359519421" lon="115.25313586115672"><ele>87.5</ele><time>2026-04-13T03:54:21.001Z</time></trkpt><trkpt lat="-29.826700760304313" lon="115.25345243803449"><ele>88.0</ele><time>2026-04-13T03:54:22.001Z</time></trkpt><trkpt lat="-29.826743345208243" lon="115.25376790199788"><ele>88.5</ele><time>2026-04-13T03:54:23.001Z</time></trkpt><trkpt lat="-29.826785707851776" lon="115.25408927674187"><ele>89.0</ele><time>2026-04-13T03:54:24.001Z</time></trkpt><trkpt lat="-29.826830359578537" lon="115.25441370782568"><ele>89.5</ele><time>2026-04-13T03:54:25.001Z</time></trkpt><trkpt lat="-29.826872481493474" lon="115.25473400142259"><ele>90.0</ele><time>2026-04-13T03:54:26.001Z</time></trkpt><trkpt lat="-29.826909391296155" lon="115.25503837008952"><ele>88.0</ele><time>2026-04-13T03:54:27.001Z</time></trkpt><trkpt lat="-29.826943517467445" lon="115.25531320059763"><ele>86.0</ele><time>2026-04-13T03:54:28.001Z</time></trkpt><trkpt lat="-29.826975358486443" lon="115.25557162924328"><ele>86.66666666666667</ele><time>2026-04-13T03:54:29.001Z</time></trkpt><trkpt lat="-29.827006201366903" lon="115.25581779008976"><ele>87.33333333333333</ele><time>2026-04-13T03:54:30.001Z</time></trkpt><trkpt lat="-29.827034321897756" lon="115.25604684174735"><ele>88.0</ele><time>2026-04-13T03:54:31.001Z</time></trkpt><trkpt lat="-29.827062720978823" lon="115.2562642324482"><ele>89.0</ele><time>2026-04-13T03:54:32.001Z</time></trkpt><trkpt lat="-29.82709158840837" lon="115.25648291020573"><ele>90.0</ele><time>2026-04-13T03:54:33.001Z</time></trkpt><trkpt lat="-29.82712049330376" lon="115.25671429922512"><ele>91.0</ele><time>2026-04-13T03:54:34.001Z</time></trkpt><trkpt lat="-29.82714933128669" lon="115.25695519751423"><ele>91.0</ele><time>2026-04-13T03:54:35.001Z</time></trkpt><trkpt lat="-29.827178573764478" lon="115.25717839856566"><ele>91.0</ele><time>2026-04-13T03:54:36.001Z</time></trkpt><trkpt lat="-29.82720469322753" lon="115.2573808333636"><ele>91.0</ele><time>2026-04-13T03:54:37.001Z</time></trkpt><trkpt lat="-29.82722780798342" lon="115.25756321418402"><ele>91.0</ele><time>2026-04-13T03:54:38.001Z</time></trkpt><trkpt lat="-29.827244955357607" lon="115.2577228687076"><ele>91.0</ele><time>2026-04-13T03:54:39.001Z</time></trkpt><trkpt lat="-29.827256115064987" lon="115.25785346486208"><ele>91.0</ele><time>2026-04-13T03:54:40.001Z</time></trkpt><trkpt lat="-29.827265031139675" lon="115.2579618657404"><ele>91.0</ele><time>2026-04-13T03:54:41.001Z</time></trkpt><trkpt lat="-29.827274709112043" lon="115.25804222115994"><ele>91.0</ele><time>2026-04-13T03:54:42.001Z</time></trkpt><trkpt lat="-29.82727370369134" lon="115.25814076311471"><ele>91.0</ele><time>2026-04-13T03:54:44.001Z</time></trkpt><trkpt lat="-29.827296458147575" lon="115.25824365620728"><ele>91.0</ele><time>2026-04-13T03:54:47.001Z</time></trkpt><trkpt lat="-29.82741342346829" lon="115.25829217123959"><ele>91.0</ele><time>2026-04-13T03:54:49.001Z</time></trkpt><trkpt lat="-29.827502749340276" lon="115.2582853404716"><ele>91.0</ele><time>2026-04-13T03:54:50.001Z</time></trkpt><trkpt lat="-29.8276154082966" lon="115.2582611681521"><ele>91.0</ele><time>2026-04-13T03:54:51.001Z</time></trkpt><trkpt lat="-29.82773202526385" lon="115.25823292982535"><ele>91.0</ele><time>2026-04-13T03:54:52.001Z</time></trkpt><trkpt lat="-29.827865538133995" lon="115.25820433655997"><ele>91.0</ele><time>2026-04-13T03:54:53.001Z</time></trkpt><trkpt lat="-29.828021967074992" lon="115.25817069673533"><ele>91.0</ele><time>2026-04-13T03:54:54.001Z</time></trkpt><trkpt lat="-29.828205267991358" lon="115.25813384248596"><ele>91.0</ele><time>2026-04-13T03:54:55.001Z</time></trkpt><trkpt lat="-29.828409844586268" lon="115.25809505319172"><ele>91.0</ele><time>2026-04-13T03:54:56.001Z</time></trkpt><trkpt lat="-29.828625694236933" lon="115.25805852124967"><ele>91.0</ele><time>2026-04-13T03:54:57.001Z</time></trkpt><trkpt lat="-29.828860092327243" lon="115.25801659343955"><ele>90.5</ele><time>2026-04-13T03:54:58.001Z</time></trkpt><trkpt lat="-29.82910611671087" lon="115.2579718465874"><ele>90.0</ele><time>2026-04-13T03:54:59.001Z</time></trkpt><trkpt lat="-29.829358063838427" lon="115.25792530757327"><ele>90.0</ele><time>2026-04-13T03:55:00.001Z</time></trkpt><trkpt lat="-29.829625071328305" lon="115.25787820625112"><ele>90.0</ele><time>2026-04-13T03:55:01.001Z</time></trkpt><trkpt lat="-29.8298864376568" lon="115.25783475243567"><ele>89.5</ele><time>2026-04-13T03:55:02.001Z</time></trkpt><trkpt lat="-29.83014781716943" lon="115.2577946929529"><ele>89.0</ele><time>2026-04-13T03:55:03.001Z</time></trkpt><trkpt lat="-29.83039741822228" lon="115.25775716062381"><ele>89.0</ele><time>2026-04-13T03:55:04.001Z</time></trkpt><trkpt lat="-29.830624974664477" lon="115.25772010325531"><ele>89.0</ele><time>2026-04-13T03:55:05.001Z</time></trkpt><trkpt lat="-29.83083973692763" lon="115.25768328465655"><ele>89.0</ele><time>2026-04-13T03:55:06.001Z</time></trkpt><trkpt lat="-29.831044400653877" lon="115.25764836230496"><ele>88.33333333333334</ele><time>2026-04-13T03:55:07.001Z</time></trkpt><trkpt lat="-29.83124440809534" lon="115.25761477370236"><ele>87.66666666666667</ele><time>2026-04-13T03:55:08.001Z</time></trkpt><trkpt lat="-29.83143909496062" lon="115.25758367681506"><ele>87.0</ele><time>2026-04-13T03:55:09.001Z</time></trkpt><trkpt lat="-29.83161975530506" lon="115.25755540315589"><ele>87.0</ele><time>2026-04-13T03:55:10.001Z</time></trkpt><trkpt lat="-29.83178160672985" lon="115.25752761172873"><ele>87.0</ele><time>2026-04-13T03:55:11.001Z</time></trkpt><trkpt lat="-29.83192923445707" lon="115.25750250879621"><ele>87.0</ele><time>2026-04-13T03:55:12.001Z</time></trkpt><trkpt lat="-29.83206077202009" lon="115.25747805184386"><ele>87.0</ele><time>2026-04-13T03:55:13.001Z</time></trkpt><trkpt lat="-29.832172276109834" lon="115.25745652629847"><ele>87.0</ele><time>2026-04-13T03:55:14.001Z</time></trkpt><trkpt lat="-29.832265999103985" lon="115.2574521713173"><ele>87.0</ele><time>2026-04-13T03:55:15.001Z</time></trkpt><trkpt lat="-29.832346816780216" lon="115.25747846695727"><ele>87.0</ele><time>2026-04-13T03:55:16.001Z</time></trkpt><trkpt lat="-29.832424897029735" lon="115.25749746953605"><ele>87.0</ele><time>2026-04-13T03:55:18.001Z</time></trkpt><trkpt lat="-29.83242793139598" lon="115.2577400354486"><ele>87.0</ele><time>2026-04-13T03:55:19.001Z</time></trkpt><trkpt lat="-29.832444111401255" lon="115.25787935873666"><ele>87.0</ele><time>2026-04-13T03:55:20.001Z</time></trkpt><trkpt lat="-29.83246479738077" lon="115.2580412619531"><ele>87.0</ele><time>2026-04-13T03:55:21.001Z</time></trkpt><trkpt lat="-29.832484345493278" lon="115.25822636308247"><ele>87.0</ele><time>2026-04-13T03:55:22.001Z</time></trkpt><trkpt lat="-29.832507585878997" lon="115.25842883866802"><ele>87.66666666666667</ele><time>2026-04-13T03:55:23.001Z</time></trkpt><trkpt lat="-29.832532429729305" lon="115.2586437893718"><ele>88.33333333333334</ele><time>2026-04-13T03:55:24.001Z</time></trkpt><trkpt lat="-29.832559616736326" lon="115.2588778356004"><ele>89.0</ele><time>2026-04-13T03:55:25.001Z</time></trkpt><trkpt lat="-29.83258876555521" lon="115.25913710493148"><ele>89.0</ele><time>2026-04-13T03:55:26.001Z</time></trkpt><trkpt lat="-29.83262083949796" lon="115.25941025246422"><ele>89.0</ele><time>2026-04-13T03:55:27.001Z</time></trkpt><trkpt lat="-29.832654439090465" lon="115.25970479062124"><ele>91.0</ele><time>2026-04-13T03:55:28.001Z</time></trkpt><trkpt lat="-29.832683111966663" lon="115.25999368631116"><ele>93.0</ele><time>2026-04-13T03:55:29.001Z</time></trkpt><trkpt lat="-29.832713203782024" lon="115.26028710284447"><ele>93.0</ele><time>2026-04-13T03:55:30.001Z</time></trkpt><trkpt lat="-29.832743527196406" lon="115.26058440343202"><ele>93.0</ele><time>2026-04-13T03:55:31.001Z</time></trkpt><trkpt lat="-29.832769547549248" lon="115.26086591823885"><ele>92.0</ele><time>2026-04-13T03:55:32.002Z</time></trkpt><trkpt lat="-29.832787236715987" lon="115.26114182946857"><ele>91.0</ele><time>2026-04-13T03:55:33.002Z</time></trkpt><trkpt lat="-29.832791173809916" lon="115.2614161708014"><ele>92.5</ele><time>2026-04-13T03:55:34.002Z</time></trkpt><trkpt lat="-29.832784229114708" lon="115.26169220759756"><ele>94.0</ele><time>2026-04-13T03:55:35.002Z</time></trkpt><trkpt lat="-29.832769150420578" lon="115.26197145660828"><ele>94.0</ele><time>2026-04-13T03:55:36.002Z</time></trkpt><trkpt lat="-29.83274304573031" lon="115.26225435247069"><ele>94.0</ele><time>2026-04-13T03:55:37.002Z</time></trkpt><trkpt lat="-29.832703447845308" lon="115.26253639159476"><ele>94.5</ele><time>2026-04-13T03:55:38.002Z</time></trkpt><trkpt lat="-29.832655034822547" lon="115.26282029392154"><ele>95.0</ele><time>2026-04-13T03:55:39.002Z</time></trkpt><trkpt lat="-29.83259456129713" lon="115.26310051179952"><ele>94.5</ele><time>2026-04-13T03:55:40.002Z</time></trkpt><trkpt lat="-29.832524713961515" lon="115.26337950506425"><ele>94.0</ele><time>2026-04-13T03:55:41.002Z</time></trkpt><trkpt lat="-29.83243938615775" lon="115.26365081196155"><ele>94.0</ele><time>2026-04-13T03:55:42.002Z</time></trkpt><trkpt lat="-29.832340425405867" lon="115.26392203442133"><ele>94.0</ele><time>2026-04-13T03:55:43.002Z</time></trkpt><trkpt lat="-29.83223025653041" lon="115.26419909963158"><ele>94.5</ele><time>2026-04-13T03:55:44.002Z</time></trkpt><trkpt lat="-29.832113513239364" lon="115.2644669036808"><ele>95.0</ele><time>2026-04-13T03:55:45.002Z</time></trkpt><trkpt lat="-29.83198768241559" lon="115.26472827549432"><ele>93.5</ele><time>2026-04-13T03:55:46.002Z</time></trkpt><trkpt lat="-29.83184692670565" lon="115.26498491015523"><ele>92.0</ele><time>2026-04-13T03:55:47.002Z</time></trkpt><trkpt lat="-29.831695966889423" lon="115.26522798437695"><ele>92.0</ele><time>2026-04-13T03:55:48.002Z</time></trkpt><trkpt lat="-29.831530570839163" lon="115.26546653910533"><ele>92.0</ele><time>2026-04-13T03:55:49.002Z</time></trkpt><trkpt lat="-29.83135815315616" lon="115.26569239264593"><ele>92.5</ele><time>2026-04-13T03:55:50.002Z</time></trkpt><trkpt lat="-29.831163957295626" lon="115.26589639551769"><ele>93.0</ele><time>2026-04-13T03:55:51.002Z</time></trkpt><trkpt lat="-29.830983582084052" lon="115.26611871424986"><ele>93.0</ele><time>2026-04-13T03:55:52.002Z</time></trkpt><trkpt lat="-29.83078899475115" lon="115.26632154847381"><ele>93.0</ele><time>2026-04-13T03:55:53.002Z</time></trkpt><trkpt lat="-29.830589302004324" lon="115.26650850540769"><ele>94.5</ele><time>2026-04-13T03:55:54.002Z</time></trkpt><trkpt lat="-29.830381696376833" lon="115.26668321979487"><ele>96.0</ele><time>2026-04-13T03:55:55.002Z</time></trkpt><trkpt lat="-29.830160663937036" lon="115.26684480293227"><ele>96.0</ele><time>2026-04-13T03:55:56.001Z</time></trkpt><trkpt lat="-29.829933275968386" lon="115.26699818893967"><ele>96.0</ele><time>2026-04-13T03:55:57.001Z</time></trkpt><trkpt lat="-29.829702389073354" lon="115.26714084418722"><ele>96.0</ele><time>2026-04-13T03:55:58.001Z</time></trkpt><trkpt lat="-29.829467033949584" lon="115.26727136663125"><ele>96.0</ele><time>2026-04-13T03:55:59.001Z</time></trkpt><trkpt lat="-29.829218483821798" lon="115.2673668010904"><ele>95.5</ele><time>2026-04-13T03:56:00.001Z</time></trkpt><trkpt lat="-29.8289748403254" lon="115.26748520358645"><ele>95.0</ele><time>2026-04-13T03:56:01.001Z</time></trkpt><trkpt lat="-29.828720102259314" lon="115.2675748847463"><ele>93.5</ele><time>2026-04-13T03:56:02.001Z</time></trkpt><trkpt lat="-29.828456540100095" lon="115.2676509590496"><ele>92.0</ele><time>2026-04-13T03:56:03.001Z</time></trkpt><trkpt lat="-29.828192204971415" lon="115.26771467592692"><ele>92.0</ele><time>2026-04-13T03:56:04.001Z</time></trkpt><trkpt lat="-29.827928261330317" lon="115.26776177270912"><ele>92.0</ele><time>2026-04-13T03:56:05.001Z</time></trkpt><trkpt lat="-29.827664763548242" lon="115.26777223728347"><ele>92.5</ele><time>2026-04-13T03:56:06.001Z</time></trkpt><trkpt lat="-29.827399209025376" lon="115.26780937722212"><ele>93.0</ele><time>2026-04-13T03:56:07.001Z</time></trkpt><trkpt lat="-29.827124670047205" lon="115.2678120083424"><ele>93.0</ele><time>2026-04-13T03:56:08.001Z</time></trkpt><trkpt lat="-29.826845159827265" lon="115.26780108709853"><ele>93.0</ele><time>2026-04-13T03:56:09.001Z</time></trkpt><trkpt lat="-29.826568528981394" lon="115.26775305916122"><ele>92.5</ele><time>2026-04-13T03:56:10.001Z</time></trkpt><trkpt lat="-29.8262967425899" lon="115.26770983187991"><ele>92.0</ele><time>2026-04-13T03:56:11.001Z</time></trkpt><trkpt lat="-29.826029613438333" lon="115.26767843020149"><ele>94.5</ele><time>2026-04-13T03:56:12.001Z</time></trkpt><trkpt lat="-29.82577835649494" lon="115.26761091966672"><ele>97.0</ele><time>2026-04-13T03:56:13.001Z</time></trkpt><trkpt lat="-29.825547802254693" lon="115.26752603385613"><ele>97.0</ele><time>2026-04-13T03:56:14.001Z</time></trkpt><trkpt lat="-29.825311587704846" lon="115.26743399219055"><ele>97.0</ele><time>2026-04-13T03:56:15.001Z</time></trkpt><trkpt lat="-29.825069665965984" lon="115.2673445313883"><ele>99.0</ele><time>2026-04-13T03:56:16.001Z</time></trkpt><trkpt lat="-29.82482709007084" lon="115.26725446583222"><ele>101.0</ele><time>2026-04-13T03:56:17.001Z</time></trkpt><trkpt lat="-29.82458926025858" lon="115.26716574081723"><ele>101.0</ele><time>2026-04-13T03:56:18.001Z</time></trkpt><trkpt lat="-29.82434863261886" lon="115.2670816624648"><ele>101.0</ele><time>2026-04-13T03:56:19.001Z</time></trkpt><trkpt lat="-29.824107624172136" lon="115.2669993322393"><ele>99.0</ele><time>2026-04-13T03:56:20.001Z</time></trkpt><trkpt lat="-29.823863809361708" lon="115.26691479828354"><ele>97.0</ele><time>2026-04-13T03:56:21.001Z</time></trkpt><trkpt lat="-29.823623255943634" lon="115.26683271558203"><ele>96.5</ele><time>2026-04-13T03:56:22.001Z</time></trkpt><trkpt lat="-29.823378225980935" lon="115.26675377332054"><ele>96.0</ele><time>2026-04-13T03:56:23.001Z</time></trkpt><trkpt lat="-29.823147199986177" lon="115.26667368921096"><ele>96.0</ele><time>2026-04-13T03:56:24.001Z</time></trkpt><trkpt lat="-29.822937723888934" lon="115.26660053837912"><ele>96.0</ele><time>2026-04-13T03:56:25.001Z</time></trkpt><trkpt lat="-29.822737194506647" lon="115.26653025711609"><ele>96.0</ele><time>2026-04-13T03:56:26.001Z</time></trkpt><trkpt lat="-29.82254955004239" lon="115.26646288937516"><ele>96.66666666666666</ele><time>2026-04-13T03:56:27.001Z</time></trkpt><trkpt lat="-29.822372985155813" lon="115.26639612115945"><ele>97.33333333333333</ele><time>2026-04-13T03:56:28.001Z</time></trkpt><trkpt lat="-29.822207142829978" lon="115.26633111846289"><ele>98.0</ele><time>2026-04-13T03:56:29.001Z</time></trkpt><trkpt lat="-29.822046311356218" lon="115.26627425747013"><ele>98.0</ele><time>2026-04-13T03:56:30.001Z</time></trkpt><trkpt lat="-29.821892950848955" lon="115.26622483331099"><ele>98.0</ele><time>2026-04-13T03:56:31.001Z</time></trkpt><trkpt lat="-29.82174603014462" lon="115.26617877907071"><ele>98.0</ele><time>2026-04-13T03:56:32.001Z</time></trkpt><trkpt lat="-29.82160625903641" lon="115.26612824460877"><ele>97.5</ele><time>2026-04-13T03:56:33.001Z</time></trkpt><trkpt lat="-29.8214769889856" lon="115.26607661108297"><ele>97.0</ele><time>2026-04-13T03:56:34.001Z</time></trkpt><trkpt lat="-29.821354732550773" lon="115.266029349673"><ele>96.5</ele><time>2026-04-13T03:56:35.001Z</time></trkpt><trkpt lat="-29.821243561659546" lon="115.26599084835645"><ele>96.0</ele><time>2026-04-13T03:56:36.001Z</time></trkpt><trkpt lat="-29.82114230982371" lon="115.26596094356249"><ele>96.0</ele><time>2026-04-13T03:56:37.001Z</time></trkpt><trkpt lat="-29.821049713079248" lon="115.26593330202044"><ele>96.0</ele><time>2026-04-13T03:56:38.001Z</time></trkpt><trkpt lat="-29.820960762988683" lon="115.26590005501905"><ele>96.0</ele><time>2026-04-13T03:56:39.001Z</time></trkpt><trkpt lat="-29.82086379288066" lon="115.26585684556912"><ele>96.0</ele><time>2026-04-13T03:56:40.001Z</time></trkpt><trkpt lat="-29.820758663504467" lon="115.26581765749523"><ele>96.0</ele><time>2026-04-13T03:56:41.001Z</time></trkpt><trkpt lat="-29.82065024800402" lon="115.2657788185669"><ele>96.19999999999999</ele><time>2026-04-13T03:56:42.001Z</time></trkpt><trkpt lat="-29.820550542558752" lon="115.26573234577357"><ele>96.39999999999999</ele><time>2026-04-13T03:56:43.001Z</time></trkpt><trkpt lat="-29.820461473092045" lon="115.26569314631432"><ele>96.6</ele><time>2026-04-13T03:56:44.001Z</time></trkpt><trkpt lat="-29.820375391684752" lon="115.26566752776152"><ele>96.8</ele><time>2026-04-13T03:56:45.001Z</time></trkpt><trkpt lat="-29.820295790649844" lon="115.26563854560203"><ele>97.0</ele><time>2026-04-13T03:56:46.001Z</time></trkpt><trkpt lat="-29.82021229216716" lon="115.2656043688421"><ele>97.00000000000001</ele><time>2026-04-13T03:56:47.001Z</time></trkpt><trkpt lat="-29.82012203218735" lon="115.2655733163975"><ele>97.0</ele><time>2026-04-13T03:56:48.001Z</time></trkpt><trkpt lat="-29.820029614968146" lon="115.2655447415929"><ele>97.0</ele><time>2026-04-13T03:56:49.001Z</time></trkpt><trkpt lat="-29.819939383224476" lon="115.26551741042685"><ele>97.0</ele><time>2026-04-13T03:56:50.001Z</time></trkpt><trkpt lat="-29.819857426582168" lon="115.26550978173516"><ele>97.00000000000001</ele><time>2026-04-13T03:56:51.001Z</time></trkpt><trkpt lat="-29.81978500647795" lon="115.26550811412184"><ele>97.0</ele><time>2026-04-13T03:56:52.001Z</time></trkpt><trkpt lat="-29.81971189499836" lon="115.26548566103372"><ele>97.0</ele><time>2026-04-13T03:56:53.001Z</time></trkpt><trkpt lat="-29.819632223496093" lon="115.2654436851725"><ele>97.0</ele><time>2026-04-13T03:56:54.001Z</time></trkpt><trkpt lat="-29.819547140266824" lon="115.26540249406804"><ele>97.0</ele><time>2026-04-13T03:56:55.001Z</time></trkpt><trkpt lat="-29.819457976097347" lon="115.26535986907211"><ele>97.0</ele><time>2026-04-13T03:56:56.001Z</time></trkpt><trkpt lat="-29.81936577277863" lon="115.26529924156033"><ele>97.0</ele><time>2026-04-13T03:56:57.001Z</time></trkpt><trkpt lat="-29.81927433395506" lon="115.26522369410013"><ele>97.0</ele><time>2026-04-13T03:56:58.001Z</time></trkpt><trkpt lat="-29.819176010058104" lon="115.2651382664873"><ele>97.0</ele><time>2026-04-13T03:56:59.001Z</time></trkpt><trkpt lat="-29.819075639353056" lon="115.26503252153886"><ele>97.0</ele><time>2026-04-13T03:57:00.001Z</time></trkpt><trkpt lat="-29.818977697170688" lon="115.2649089819757"><ele>97.0</ele><time>2026-04-13T03:57:01.001Z</time></trkpt><trkpt lat="-29.818876154884755" lon="115.26477675239221"><ele>97.0</ele><time>2026-04-13T03:57:02.001Z</time></trkpt><trkpt lat="-29.81876608480653" lon="115.2646355622599"><ele>97.0</ele><time>2026-04-13T03:57:03.001Z</time></trkpt><trkpt lat="-29.81864689346739" lon="115.26449351464663"><ele>97.0</ele><time>2026-04-13T03:57:04.001Z</time></trkpt><trkpt lat="-29.81852923472071" lon="115.26435702845102"><ele>97.25</ele><time>2026-04-13T03:57:05.001Z</time></trkpt><trkpt lat="-29.818419357659568" lon="115.26422394718732"><ele>97.5</ele><time>2026-04-13T03:57:06.001Z</time></trkpt><trkpt lat="-29.818323759291896" lon="115.2640948142481"><ele>97.75</ele><time>2026-04-13T03:57:07.001Z</time></trkpt><trkpt lat="-29.818236021868234" lon="115.26397116770336"><ele>98.0</ele><time>2026-04-13T03:57:08.001Z</time></trkpt><trkpt lat="-29.81815135029506" lon="115.26385493361585"><ele>97.5</ele><time>2026-04-13T03:57:09.001Z</time></trkpt><trkpt lat="-29.818065809181544" lon="115.26375049795408"><ele>97.0</ele><time>2026-04-13T03:57:10.001Z</time></trkpt><trkpt lat="-29.81798231989743" lon="115.26364911462308"><ele>96.5</ele><time>2026-04-13T03:57:11.001Z</time></trkpt><trkpt lat="-29.817907671160377" lon="115.26355803748126"><ele>96.0</ele><time>2026-04-13T03:57:12.001Z</time></trkpt><trkpt lat="-29.817841850710597" lon="115.26347300174882"><ele>96.0</ele><time>2026-04-13T03:57:13.001Z</time></trkpt><trkpt lat="-29.81778459289794" lon="115.26340029722247"><ele>96.0</ele><time>2026-04-13T03:57:14.001Z</time></trkpt><trkpt lat="-29.817736485199983" lon="115.26334578619432"><ele>96.0</ele><time>2026-04-13T03:57:15.001Z</time></trkpt><trkpt lat="-29.817675663650217" lon="115.26331004239373"><ele>96.0</ele><time>2026-04-13T03:57:16.001Z</time></trkpt><trkpt lat="-29.817595511061658" lon="115.26331563248023"><ele>96.0</ele><time>2026-04-13T03:57:17.001Z</time></trkpt><trkpt lat="-29.81750572148562" lon="115.2633606932405"><ele>96.0</ele><time>2026-04-13T03:57:18.001Z</time></trkpt><trkpt lat="-29.81741373825313" lon="115.26342961982611"><ele>96.5</ele><time>2026-04-13T03:57:19.001Z</time></trkpt><trkpt lat="-29.817322504931514" lon="115.26351956593187"><ele>97.0</ele><time>2026-04-13T03:57:20.001Z</time></trkpt><trkpt lat="-29.817218205071384" lon="115.2636320558801"><ele>97.5</ele><time>2026-04-13T03:57:21.001Z</time></trkpt><trkpt lat="-29.81709295623165" lon="115.2637635768573"><ele>98.0</ele><time>2026-04-13T03:57:22.001Z</time></trkpt><trkpt lat="-29.816955998051945" lon="115.26390496245898"><ele>97.66666666666666</ele><time>2026-04-13T03:57:23.001Z</time></trkpt><trkpt lat="-29.816817759145714" lon="115.26405086936767"><ele>97.33333333333334</ele><time>2026-04-13T03:57:24.001Z</time></trkpt><trkpt lat="-29.816660648715704" lon="115.2642163043725"><ele>97.0</ele><time>2026-04-13T03:57:25.001Z</time></trkpt><trkpt lat="-29.816497194982073" lon="115.26439355960271"><ele>97.0</ele><time>2026-04-13T03:57:26.001Z</time></trkpt><trkpt lat="-29.816333639884494" lon="115.264568698921"><ele>97.0</ele><time>2026-04-13T03:57:27.001Z</time></trkpt><trkpt lat="-29.816162493240807" lon="115.26474912525656"><ele>98.0</ele><time>2026-04-13T03:57:28.001Z</time></trkpt><trkpt lat="-29.815982540184592" lon="115.26493344011747"><ele>99.0</ele><time>2026-04-13T03:57:29.001Z</time></trkpt><trkpt lat="-29.81580792704439" lon="115.26510885265104"><ele>99.0</ele><time>2026-04-13T03:57:30.001Z</time></trkpt><trkpt lat="-29.815638984952223" lon="115.26528222635265"><ele>99.0</ele><time>2026-04-13T03:57:31.001Z</time></trkpt><trkpt lat="-29.815474979392235" lon="115.2654520991914"><ele>99.0</ele><time>2026-04-13T03:57:32.001Z</time></trkpt><trkpt lat="-29.815321755526288" lon="115.26561513393516"><ele>99.66666666666666</ele><time>2026-04-13T03:57:33.001Z</time></trkpt><trkpt lat="-29.815178486777533" lon="115.26577739497888"><ele>100.33333333333333</ele><time>2026-04-13T03:57:34.001Z</time></trkpt><trkpt lat="-29.81504100640339" lon="115.2659383686498"><ele>101.0</ele><time>2026-04-13T03:57:35.001Z</time></trkpt><trkpt lat="-29.814908142242835" lon="115.26609947724299"><ele>101.0</ele><time>2026-04-13T03:57:36.001Z</time></trkpt><trkpt lat="-29.814765793539816" lon="115.26623102572947"><ele>101.0</ele><time>2026-04-13T03:57:37.001Z</time></trkpt><trkpt lat="-29.814640039428408" lon="115.26636484343774"><ele>101.0</ele><time>2026-04-13T03:57:38.001Z</time></trkpt><trkpt lat="-29.814530124640196" lon="115.26648204233905"><ele>100.66666666666666</ele><time>2026-04-13T03:57:39.001Z</time></trkpt><trkpt lat="-29.81443945026919" lon="115.26657872575575"><ele>100.33333333333333</ele><time>2026-04-13T03:57:40.001Z</time></trkpt><trkpt lat="-29.8143700230102" lon="115.26665347738579"><ele>100.0</ele><time>2026-04-13T03:57:41.001Z</time></trkpt><trkpt lat="-29.814311520256826" lon="115.26671656627497"><ele>99.66666666666666</ele><time>2026-04-13T03:57:42.001Z</time></trkpt><trkpt lat="-29.814256194393096" lon="115.26677622925084"><ele>99.33333333333333</ele><time>2026-04-13T03:57:43.001Z</time></trkpt><trkpt lat="-29.814210354290523" lon="115.26682615037917"><ele>99.0</ele><time>2026-04-13T03:57:44.001Z</time></trkpt><trkpt lat="-29.814323666719233" lon="115.26702622763989"><ele>98.75</ele><time>2026-04-13T03:57:45.001Z</time></trkpt><trkpt lat="-29.81439530589247" lon="115.26710903621544"><ele>98.5</ele><time>2026-04-13T03:57:46.001Z</time></trkpt><trkpt lat="-29.814473661859044" lon="115.26720740456503"><ele>98.25</ele><time>2026-04-13T03:57:47.001Z</time></trkpt><trkpt lat="-29.81457204867525" lon="115.26730476793527"><ele>98.0</ele><time>2026-04-13T03:57:48.001Z</time></trkpt><trkpt lat="-29.814687543532376" lon="115.26740863911031"><ele>98.66666666666666</ele><time>2026-04-13T03:57:49.001Z</time></trkpt><trkpt lat="-29.81480063497852" lon="115.26754627552583"><ele>99.33333333333334</ele><time>2026-04-13T03:57:50.001Z</time></trkpt><trkpt lat="-29.81491990604317" lon="115.26770681901007"><ele>100.0</ele><time>2026-04-13T03:57:51.001Z</time></trkpt><trkpt lat="-29.8150525435604" lon="115.26787493453965"><ele>100.33333333333334</ele><time>2026-04-13T03:57:52.001Z</time></trkpt><trkpt lat="-29.815198695788197" lon="115.2680532935469"><ele>100.66666666666666</ele><time>2026-04-13T03:57:53.001Z</time></trkpt><trkpt lat="-29.81534483579578" lon="115.26823392721272"><ele>101.0</ele><time>2026-04-13T03:57:54.001Z</time></trkpt><trkpt lat="-29.81548421065787" lon="115.26841857113511"><ele>101.33333333333333</ele><time>2026-04-13T03:57:55.001Z</time></trkpt><trkpt lat="-29.81561861300406" lon="115.26860953409005"><ele>101.66666666666666</ele><time>2026-04-13T03:57:56.001Z</time></trkpt><trkpt lat="-29.815746128674913" lon="115.2688205653627"><ele>102.0</ele><time>2026-04-13T03:57:57.001Z</time></trkpt><trkpt lat="-29.81586184412574" lon="115.26904643316519"><ele>100.5</ele><time>2026-04-13T03:57:58.001Z</time></trkpt><trkpt lat="-29.815962549211314" lon="115.26928377109596"><ele>99.0</ele><time>2026-04-13T03:57:59.001Z</time></trkpt><trkpt lat="-29.816046837086088" lon="115.26952682608426"><ele>99.0</ele><time>2026-04-13T03:58:00.001Z</time></trkpt><trkpt lat="-29.816109973003442" lon="115.26977504118005"><ele>99.0</ele><time>2026-04-13T03:58:01.001Z</time></trkpt><trkpt lat="-29.816158970055362" lon="115.27003685398277"><ele>100.0</ele><time>2026-04-13T03:58:02.001Z</time></trkpt><trkpt lat="-29.816190867276436" lon="115.270308625692"><ele>101.0</ele><time>2026-04-13T03:58:03.001Z</time></trkpt><trkpt lat="-29.816204648761026" lon="115.2705859583151"><ele>101.5</ele><time>2026-04-13T03:58:04.001Z</time></trkpt><trkpt lat="-29.816197593479416" lon="115.27086054650188"><ele>102.0</ele><time>2026-04-13T03:58:05.001Z</time></trkpt><trkpt lat="-29.81616513797176" lon="115.27113799232316"><ele>102.0</ele><time>2026-04-13T03:58:06.001Z</time></trkpt><trkpt lat="-29.816109685612457" lon="115.27142152680797"><ele>102.0</ele><time>2026-04-13T03:58:07.001Z</time></trkpt><trkpt lat="-29.816039061422657" lon="115.27170624214686"><ele>102.0</ele><time>2026-04-13T03:58:08.001Z</time></trkpt><trkpt lat="-29.81595964852418" lon="115.27199403145946"><ele>102.0</ele><time>2026-04-13T03:58:09.001Z</time></trkpt><trkpt lat="-29.815875923687496" lon="115.2722815767619"><ele>102.0</ele><time>2026-04-13T03:58:10.001Z</time></trkpt><trkpt lat="-29.81579169619115" lon="115.27257106554207"><ele>102.0</ele><time>2026-04-13T03:58:11.001Z</time></trkpt><trkpt lat="-29.815709219444617" lon="115.27286278337594"><ele>102.5</ele><time>2026-04-13T03:58:12.001Z</time></trkpt><trkpt lat="-29.81563318506545" lon="115.27314102445132"><ele>103.0</ele><time>2026-04-13T03:58:13.001Z</time></trkpt><trkpt lat="-29.815565252111078" lon="115.27339857136396"><ele>103.0</ele><time>2026-04-13T03:58:14.001Z</time></trkpt><trkpt lat="-29.81549862934345" lon="115.27365036467262"><ele>103.0</ele><time>2026-04-13T03:58:15.001Z</time></trkpt><trkpt lat="-29.815432578428904" lon="115.27390086021794"><ele>103.33333333333334</ele><time>2026-04-13T03:58:16.001Z</time></trkpt><trkpt lat="-29.815367622541032" lon="115.27414735205737"><ele>103.66666666666666</ele><time>2026-04-13T03:58:17.001Z</time></trkpt><trkpt lat="-29.815299584906203" lon="115.27438902906218"><ele>104.0</ele><time>2026-04-13T03:58:18.001Z</time></trkpt><trkpt lat="-29.815228414260773" lon="115.2746222549927"><ele>104.0</ele><time>2026-04-13T03:58:19.001Z</time></trkpt><trkpt lat="-29.815146228388457" lon="115.27486578664133"><ele>104.0</ele><time>2026-04-13T03:58:20.001Z</time></trkpt><trkpt lat="-29.815054184494002" lon="115.27511159109203"><ele>104.0</ele><time>2026-04-13T03:58:21.001Z</time></trkpt><trkpt lat="-29.814953912012307" lon="115.27536427802355"><ele>104.0</ele><time>2026-04-13T03:58:22.001Z</time></trkpt><trkpt lat="-29.814857029640446" lon="115.27561913868517"><ele>105.0</ele><time>2026-04-13T03:58:23.001Z</time></trkpt><trkpt lat="-29.814756694879932" lon="115.27588121412532"><ele>106.0</ele><time>2026-04-13T03:58:24.001Z</time></trkpt><trkpt lat="-29.81465590162595" lon="115.27614352464862"><ele>106.0</ele><time>2026-04-13T03:58:25.001Z</time></trkpt><trkpt lat="-29.814560719876365" lon="115.27640447418959"><ele>106.0</ele><time>2026-04-13T03:58:26.001Z</time></trkpt><trkpt lat="-29.81446078629121" lon="115.27666895509049"><ele>105.5</ele><time>2026-04-13T03:58:27.001Z</time></trkpt><trkpt lat="-29.814357689160794" lon="115.27693154988803"><ele>105.0</ele><time>2026-04-13T03:58:28.001Z</time></trkpt><trkpt lat="-29.814253676064332" lon="115.27719589642439"><ele>105.0</ele><time>2026-04-13T03:58:29.001Z</time></trkpt><trkpt lat="-29.814148433063295" lon="115.27746302338777"><ele>105.0</ele><time>2026-04-13T03:58:30.001Z</time></trkpt><trkpt lat="-29.814039268194218" lon="115.27773598457468"><ele>105.0</ele><time>2026-04-13T03:58:31.001Z</time></trkpt><trkpt lat="-29.81393018798784" lon="115.27800940165527"><ele>105.0</ele><time>2026-04-13T03:58:32.001Z</time></trkpt><trkpt lat="-29.813821610344263" lon="115.27828709515975"><ele>105.0</ele><time>2026-04-13T03:58:33.001Z</time></trkpt><trkpt lat="-29.813716334463017" lon="115.2785657037328"><ele>105.0</ele><time>2026-04-13T03:58:34.001Z</time></trkpt><trkpt lat="-29.81360727121727" lon="115.27884737742222"><ele>105.0</ele><time>2026-04-13T03:58:35.001Z</time></trkpt><trkpt lat="-29.813500917811627" lon="115.27912716271969"><ele>105.0</ele><time>2026-04-13T03:58:36.001Z</time></trkpt><trkpt lat="-29.81339216196457" lon="115.2794119281313"><ele>105.0</ele><time>2026-04-13T03:58:37.001Z</time></trkpt><trkpt lat="-29.813288475668934" lon="115.27968780435967"><ele>105.0</ele><time>2026-04-13T03:58:38.001Z</time></trkpt><trkpt lat="-29.813177322401895" lon="115.27996786620045"><ele>105.0</ele><time>2026-04-13T03:58:39.001Z</time></trkpt><trkpt lat="-29.81306627731865" lon="115.28024868477927"><ele>105.0</ele><time>2026-04-13T03:58:40.001Z</time></trkpt><trkpt lat="-29.812956095653032" lon="115.28052779932352"><ele>106.0</ele><time>2026-04-13T03:58:41.001Z</time></trkpt><trkpt lat="-29.812849384983604" lon="115.28080366918455"><ele>107.0</ele><time>2026-04-13T03:58:42.001Z</time></trkpt><trkpt lat="-29.812744395875626" lon="115.28107984607153"><ele>108.0</ele><time>2026-04-13T03:58:43.001Z</time></trkpt><trkpt lat="-29.812635301615355" lon="115.28135501719945"><ele>109.0</ele><time>2026-04-13T03:58:44.001Z</time></trkpt><trkpt lat="-29.81252804813594" lon="115.28162429480352"><ele>109.5</ele><time>2026-04-13T03:58:45.001Z</time></trkpt><trkpt lat="-29.812419078730084" lon="115.28189899071756"><ele>110.0</ele><time>2026-04-13T03:58:46.001Z</time></trkpt><trkpt lat="-29.81231248655592" lon="115.2821725476812"><ele>110.0</ele><time>2026-04-13T03:58:47.001Z</time></trkpt><trkpt lat="-29.812206030689303" lon="115.28244860656082"><ele>110.0</ele><time>2026-04-13T03:58:48.001Z</time></trkpt><trkpt lat="-29.812101295462604" lon="115.2827237168533"><ele>110.0</ele><time>2026-04-13T03:58:49.001Z</time></trkpt><trkpt lat="-29.811993937091753" lon="115.2830032477158"><ele>110.0</ele><time>2026-04-13T03:58:50.001Z</time></trkpt><trkpt lat="-29.81188645483083" lon="115.2832819908891"><ele>111.5</ele><time>2026-04-13T03:58:51.001Z</time></trkpt><trkpt lat="-29.811778713390733" lon="115.28356108380807"><ele>113.0</ele><time>2026-04-13T03:58:52.001Z</time></trkpt><trkpt lat="-29.81166546613461" lon="115.28384406050517"><ele>111.5</ele><time>2026-04-13T03:58:53.001Z</time></trkpt><trkpt lat="-29.81155559424067" lon="115.28412767933308"><ele>110.0</ele><time>2026-04-13T03:58:54.001Z</time></trkpt><trkpt lat="-29.8114430153804" lon="115.28441257692027"><ele>110.0</ele><time>2026-04-13T03:58:55.001Z</time></trkpt><trkpt lat="-29.81133237526382" lon="115.2846948096981"><ele>110.0</ele><time>2026-04-13T03:58:56.001Z</time></trkpt><trkpt lat="-29.81122074118778" lon="115.28497521144952"><ele>111.0</ele><time>2026-04-13T03:58:57.001Z</time></trkpt><trkpt lat="-29.811111820405017" lon="115.28525506932168"><ele>112.0</ele><time>2026-04-13T03:58:58.001Z</time></trkpt><trkpt lat="-29.811005660381603" lon="115.28553385694008"><ele>113.0</ele><time>2026-04-13T03:58:59.001Z</time></trkpt><trkpt lat="-29.810898465719124" lon="115.28580957485205"><ele>114.0</ele><time>2026-04-13T03:59:00.001Z</time></trkpt><trkpt lat="-29.810792783688328" lon="115.28608552856865"><ele>114.0</ele><time>2026-04-13T03:59:01.001Z</time></trkpt><trkpt lat="-29.81068792943573" lon="115.28635568492672"><ele>114.0</ele><time>2026-04-13T03:59:02.001Z</time></trkpt><trkpt lat="-29.81058095403395" lon="115.28662374255707"><ele>113.5</ele><time>2026-04-13T03:59:03.001Z</time></trkpt><trkpt lat="-29.810479074475253" lon="115.28689159407247"><ele>113.0</ele><time>2026-04-13T03:59:04.001Z</time></trkpt><trkpt lat="-29.81038019649671" lon="115.2871593312187"><ele>113.0</ele><time>2026-04-13T03:59:05.001Z</time></trkpt><trkpt lat="-29.810278174436665" lon="115.28742957147595"><ele>113.0</ele><time>2026-04-13T03:59:06.001Z</time></trkpt><trkpt lat="-29.810176101866016" lon="115.28770325051467"><ele>112.0</ele><time>2026-04-13T03:59:07.001Z</time></trkpt><trkpt lat="-29.81007135804468" lon="115.28797933501707"><ele>111.0</ele><time>2026-04-13T03:59:08.001Z</time></trkpt><trkpt lat="-29.809965704804263" lon="115.28825643981713"><ele>111.0</ele><time>2026-04-13T03:59:09.001Z</time></trkpt><trkpt lat="-29.809858084959952" lon="115.28853144054428"><ele>111.0</ele><time>2026-04-13T03:59:10.001Z</time></trkpt><trkpt lat="-29.80974715073425" lon="115.28880925601251"><ele>112.5</ele><time>2026-04-13T03:59:11.001Z</time></trkpt><trkpt lat="-29.809637592894855" lon="115.28908837272725"><ele>114.0</ele><time>2026-04-13T03:59:12.001Z</time></trkpt><trkpt lat="-29.809528483664437" lon="115.28936121701436"><ele>114.0</ele><time>2026-04-13T03:59:13.001Z</time></trkpt><trkpt lat="-29.809421092654485" lon="115.28963151968212"><ele>114.0</ele><time>2026-04-13T03:59:14.001Z</time></trkpt><trkpt lat="-29.80931301049142" lon="115.28990385428699"><ele>113.5</ele><time>2026-04-13T03:59:15.001Z</time></trkpt><trkpt lat="-29.80920497206683" lon="115.2901785371311"><ele>113.0</ele><time>2026-04-13T03:59:16.001Z</time></trkpt><trkpt lat="-29.809098167028647" lon="115.29045544990689"><ele>113.0</ele><time>2026-04-13T03:59:17.001Z</time></trkpt><trkpt lat="-29.808994481266314" lon="115.29073245916179"><ele>113.0</ele><time>2026-04-13T03:59:18.001Z</time></trkpt><trkpt lat="-29.808891506880794" lon="115.29101242559742"><ele>113.0</ele><time>2026-04-13T03:59:19.001Z</time></trkpt><trkpt lat="-29.808787274510706" lon="115.29128708061383"><ele>113.0</ele><time>2026-04-13T03:59:20.001Z</time></trkpt><trkpt lat="-29.808680428983102" lon="115.29156235960217"><ele>114.5</ele><time>2026-04-13T03:59:21.001Z</time></trkpt><trkpt lat="-29.808566896294227" lon="115.29183986130847"><ele>116.0</ele><time>2026-04-13T03:59:22.001Z</time></trkpt><trkpt lat="-29.808457489787397" lon="115.29211073192675"><ele>117.0</ele><time>2026-04-13T03:59:23.001Z</time></trkpt><trkpt lat="-29.808346926471096" lon="115.29238640081073"><ele>118.0</ele><time>2026-04-13T03:59:24.001Z</time></trkpt><trkpt lat="-29.808238877471865" lon="115.2926619158702"><ele>118.0</ele><time>2026-04-13T03:59:25.001Z</time></trkpt><trkpt lat="-29.80813193472266" lon="115.29293978469437"><ele>118.0</ele><time>2026-04-13T03:59:26.001Z</time></trkpt><trkpt lat="-29.808025108299933" lon="115.2932202748138"><ele>118.0</ele><time>2026-04-13T03:59:27.001Z</time></trkpt><trkpt lat="-29.807917968570077" lon="115.29350409913688"><ele>118.0</ele><time>2026-04-13T03:59:28.001Z</time></trkpt><trkpt lat="-29.807811863666537" lon="115.29378763106618"><ele>117.5</ele><time>2026-04-13T03:59:29.001Z</time></trkpt><trkpt lat="-29.80770410615466" lon="115.29407164352216"><ele>117.0</ele><time>2026-04-13T03:59:30.001Z</time></trkpt><trkpt lat="-29.807590463244804" lon="115.29435412549857"><ele>116.5</ele><time>2026-04-13T03:59:31.001Z</time></trkpt><trkpt lat="-29.807464768777383" lon="115.29463427040588"><ele>116.0</ele><time>2026-04-13T03:59:32.001Z</time></trkpt><trkpt lat="-29.80732945905837" lon="115.29491293315257"><ele>116.0</ele><time>2026-04-13T03:59:33.001Z</time></trkpt><trkpt lat="-29.807186871779003" lon="115.29519196107826"><ele>116.0</ele><time>2026-04-13T03:59:34.001Z</time></trkpt><trkpt lat="-29.80704168581073" lon="115.29546724974335"><ele>116.5</ele><time>2026-04-13T03:59:35.001Z</time></trkpt><trkpt lat="-29.806887192760968" lon="115.29573686050064"><ele>117.0</ele><time>2026-04-13T03:59:36.001Z</time></trkpt><trkpt lat="-29.806725069879423" lon="115.29599942796084"><ele>117.0</ele><time>2026-04-13T03:59:37.001Z</time></trkpt><trkpt lat="-29.806555533175562" lon="115.29625657468328"><ele>117.0</ele><time>2026-04-13T03:59:38.001Z</time></trkpt><trkpt lat="-29.80638298203805" lon="115.29651536445847"><ele>117.0</ele><time>2026-04-13T03:59:39.001Z</time></trkpt><trkpt lat="-29.806212159265975" lon="115.29677490244748"><ele>117.0</ele><time>2026-04-13T03:59:40.001Z</time></trkpt><trkpt lat="-29.806046629104095" lon="115.29703138918808"><ele>118.5</ele><time>2026-04-13T03:59:41.001Z</time></trkpt><trkpt lat="-29.805883008784868" lon="115.29728749343862"><ele>120.0</ele><time>2026-04-13T03:59:42.001Z</time></trkpt><trkpt lat="-29.805718711177743" lon="115.29754109873869"><ele>120.0</ele><time>2026-04-13T03:59:43.001Z</time></trkpt><trkpt lat="-29.805556211171563" lon="115.29778893542544"><ele>120.0</ele><time>2026-04-13T03:59:44.001Z</time></trkpt><trkpt lat="-29.80539616598301" lon="115.2980339413377"><ele>119.5</ele><time>2026-04-13T03:59:45.001Z</time></trkpt><trkpt lat="-29.80523640089662" lon="115.29827556954943"><ele>119.0</ele><time>2026-04-13T03:59:46.001Z</time></trkpt><trkpt lat="-29.805077375108503" lon="115.29851638218699"><ele>119.0</ele><time>2026-04-13T03:59:47.001Z</time></trkpt><trkpt lat="-29.804918383162793" lon="115.29875842076075"><ele>119.0</ele><time>2026-04-13T03:59:48.001Z</time></trkpt><trkpt lat="-29.80476076629989" lon="115.2990038585067"><ele>119.5</ele><time>2026-04-13T03:59:49.001Z</time></trkpt><trkpt lat="-29.804599557681907" lon="115.29925316221102"><ele>120.0</ele><time>2026-04-13T03:59:50.001Z</time></trkpt><trkpt lat="-29.804441507762814" lon="115.2994983530032"><ele>120.0</ele><time>2026-04-13T03:59:51.001Z</time></trkpt><trkpt lat="-29.804283484126223" lon="115.29974321454677"><ele>120.0</ele><time>2026-04-13T03:59:52.001Z</time></trkpt><trkpt lat="-29.804123352523067" lon="115.29998770353971"><ele>120.5</ele><time>2026-04-13T03:59:53.001Z</time></trkpt><trkpt lat="-29.803964756596592" lon="115.30023049687996"><ele>121.0</ele><time>2026-04-13T03:59:54.001Z</time></trkpt><trkpt lat="-29.80381189939812" lon="115.30047330144772"><ele>121.0</ele><time>2026-04-13T03:59:55.001Z</time></trkpt><trkpt lat="-29.80366143500794" lon="115.30071418764342"><ele>121.0</ele><time>2026-04-13T03:59:56.001Z</time></trkpt><trkpt lat="-29.803509229620857" lon="115.30095425617525"><ele>120.5</ele><time>2026-04-13T03:59:57.001Z</time></trkpt><trkpt lat="-29.8033582645384" lon="115.30119378013512"><ele>120.0</ele><time>2026-04-13T03:59:58.001Z</time></trkpt><trkpt lat="-29.803207175531682" lon="115.3014305622403"><ele>119.5</ele><time>2026-04-13T03:59:59.001Z</time></trkpt><trkpt lat="-29.80305746580712" lon="115.30166218933337"><ele>119.0</ele><time>2026-04-13T04:00:00.001Z</time></trkpt><trkpt lat="-29.802908232068475" lon="115.30189348237764"><ele>119.0</ele><time>2026-04-13T04:00:01.001Z</time></trkpt><trkpt lat="-29.80276106683519" lon="115.30212959868079"><ele>119.0</ele><time>2026-04-13T04:00:02.001Z</time></trkpt><trkpt lat="-29.802616718849634" lon="115.30237028353348"><ele>120.0</ele><time>2026-04-13T04:00:03.001Z</time></trkpt><trkpt lat="-29.80247678484573" lon="115.30261833427171"><ele>121.0</ele><time>2026-04-13T04:00:04.001Z</time></trkpt><trkpt lat="-29.802344969311605" lon="115.30287195444154"><ele>121.5</ele><time>2026-04-13T04:00:05.001Z</time></trkpt><trkpt lat="-29.802221197358513" lon="115.30313026568486"><ele>122.0</ele><time>2026-04-13T04:00:06.001Z</time></trkpt><trkpt lat="-29.80209992197248" lon="115.30339546864614"><ele>122.0</ele><time>2026-04-13T04:00:07.001Z</time></trkpt><trkpt lat="-29.801981775895953" lon="115.30366491530732"><ele>122.0</ele><time>2026-04-13T04:00:08.001Z</time></trkpt><trkpt lat="-29.801866437265403" lon="115.3039406666502"><ele>120.5</ele><time>2026-04-13T04:00:09.001Z</time></trkpt><trkpt lat="-29.801755893047442" lon="115.30422015771839"><ele>119.0</ele><time>2026-04-13T04:00:10.001Z</time></trkpt><trkpt lat="-29.801648234691978" lon="115.30449929230163"><ele>119.5</ele><time>2026-04-13T04:00:11.001Z</time></trkpt><trkpt lat="-29.80153901543923" lon="115.3047744382023"><ele>120.0</ele><time>2026-04-13T04:00:12.001Z</time></trkpt><trkpt lat="-29.801429434791913" lon="115.30504452828626"><ele>120.0</ele><time>2026-04-13T04:00:13.001Z</time></trkpt><trkpt lat="-29.801315465241412" lon="115.30531576612499"><ele>120.0</ele><time>2026-04-13T04:00:14.001Z</time></trkpt><trkpt lat="-29.80120322934753" lon="115.30558845562918"><ele>121.0</ele><time>2026-04-13T04:00:15.001Z</time></trkpt><trkpt lat="-29.801088158012597" lon="115.30586884455353"><ele>122.0</ele><time>2026-04-13T04:00:16.001Z</time></trkpt><trkpt lat="-29.800972272507824" lon="115.30615619035075"><ele>121.5</ele><time>2026-04-13T04:00:17.001Z</time></trkpt><trkpt lat="-29.80085693074518" lon="115.30644632767576"><ele>121.0</ele><time>2026-04-13T04:00:18.001Z</time></trkpt><trkpt lat="-29.800741430119043" lon="115.30673769605625"><ele>121.0</ele><time>2026-04-13T04:00:19.001Z</time></trkpt><trkpt lat="-29.800626497764046" lon="115.30702904267339"><ele>121.0</ele><time>2026-04-13T04:00:20.001Z</time></trkpt><trkpt lat="-29.80050891105769" lon="115.30732215642016"><ele>121.5</ele><time>2026-04-13T04:00:21.001Z</time></trkpt><trkpt lat="-29.800390367990843" lon="115.30761547217537"><ele>122.0</ele><time>2026-04-13T04:00:22.001Z</time></trkpt><trkpt lat="-29.800272987516" lon="115.30790944947988"><ele>123.5</ele><time>2026-04-13T04:00:23.001Z</time></trkpt><trkpt lat="-29.800155660574482" lon="115.30820360850466"><ele>125.0</ele><time>2026-04-13T04:00:24.001Z</time></trkpt><trkpt lat="-29.800037709043348" lon="115.30849880780058"><ele>125.0</ele><time>2026-04-13T04:00:25.001Z</time></trkpt><trkpt lat="-29.79991857582997" lon="115.3087934935247"><ele>125.0</ele><time>2026-04-13T04:00:26.001Z</time></trkpt><trkpt lat="-29.799797938226487" lon="115.30908753998914"><ele>124.5</ele><time>2026-04-13T04:00:27.001Z</time></trkpt><trkpt lat="-29.799679091176458" lon="115.30938257308061"><ele>124.0</ele><time>2026-04-13T04:00:28.001Z</time></trkpt><trkpt lat="-29.79956167985407" lon="115.3096760846101"><ele>125.0</ele><time>2026-04-13T04:00:29.001Z</time></trkpt><trkpt lat="-29.799444302909592" lon="115.30996953445856"><ele>126.0</ele><time>2026-04-13T04:00:30.001Z</time></trkpt><trkpt lat="-29.799328385174288" lon="115.31026246787806"><ele>126.0</ele><time>2026-04-13T04:00:31.001Z</time></trkpt><trkpt lat="-29.7992125249231" lon="115.31055525172"><ele>126.0</ele><time>2026-04-13T04:00:32.001Z</time></trkpt><trkpt lat="-29.799097337901063" lon="115.31084837593421"><ele>126.0</ele><time>2026-04-13T04:00:33.001Z</time></trkpt><trkpt lat="-29.798982202258742" lon="115.31114278557672"><ele>126.0</ele><time>2026-04-13T04:00:34.001Z</time></trkpt><trkpt lat="-29.798868998095426" lon="115.31143613124735"><ele>127.0</ele><time>2026-04-13T04:00:35.001Z</time></trkpt><trkpt lat="-29.798758385964476" lon="115.31172873141549"><ele>128.0</ele><time>2026-04-13T04:00:36.001Z</time></trkpt><trkpt lat="-29.79864904971506" lon="115.31202109974139"><ele>128.5</ele><time>2026-04-13T04:00:37.001Z</time></trkpt><trkpt lat="-29.798542729480314" lon="115.31231516615833"><ele>129.0</ele><time>2026-04-13T04:00:38.001Z</time></trkpt><trkpt lat="-29.798443445086292" lon="115.31260869356522"><ele>129.0</ele><time>2026-04-13T04:00:39.001Z</time></trkpt><trkpt lat="-29.79835220863159" lon="115.3129075982192"><ele>129.0</ele><time>2026-04-13T04:00:40.001Z</time></trkpt><trkpt lat="-29.798270239523237" lon="115.31321240900431"><ele>131.5</ele><time>2026-04-13T04:00:41.001Z</time></trkpt><trkpt lat="-29.79819815660594" lon="115.31352038240443"><ele>134.0</ele><time>2026-04-13T04:00:42.001Z</time></trkpt><trkpt lat="-29.798135610211034" lon="115.31383296129867"><ele>131.5</ele><time>2026-04-13T04:00:43.001Z</time></trkpt><trkpt lat="-29.79807712582555" lon="115.3141556824452"><ele>129.0</ele><time>2026-04-13T04:00:44.001Z</time></trkpt><trkpt lat="-29.798021155177707" lon="115.31448372786899"><ele>130.0</ele><time>2026-04-13T04:00:45.001Z</time></trkpt><trkpt lat="-29.797971987346678" lon="115.3148113089212"><ele>131.0</ele><time>2026-04-13T04:00:46.001Z</time></trkpt><trkpt lat="-29.79792900731087" lon="115.3151412679457"><ele>131.0</ele><time>2026-04-13T04:00:47.001Z</time></trkpt><trkpt lat="-29.797889801737803" lon="115.31547106522738"><ele>131.0</ele><time>2026-04-13T04:00:48.001Z</time></trkpt><trkpt lat="-29.797848506762072" lon="115.31579962163599"><ele>130.0</ele><time>2026-04-13T04:00:49.001Z</time></trkpt><trkpt lat="-29.797807093384485" lon="115.31612548036443"><ele>129.0</ele><time>2026-04-13T04:00:50.001Z</time></trkpt><trkpt lat="-29.797765724819993" lon="115.31645219046521"><ele>131.0</ele><time>2026-04-13T04:00:51.001Z</time></trkpt><trkpt lat="-29.797723778534554" lon="115.3167776477973"><ele>133.0</ele><time>2026-04-13T04:00:52.001Z</time></trkpt><trkpt lat="-29.79768375419977" lon="115.3171011678517"><ele>131.5</ele><time>2026-04-13T04:00:53.001Z</time></trkpt><trkpt lat="-29.79764491748367" lon="115.3174238731255"><ele>130.0</ele><time>2026-04-13T04:00:54.001Z</time></trkpt><trkpt lat="-29.79760827124448" lon="115.31774996107279"><ele>132.5</ele><time>2026-04-13T04:00:55.001Z</time></trkpt><trkpt lat="-29.797571982689167" lon="115.31807971490596"><ele>135.0</ele><time>2026-04-13T04:00:56.001Z</time></trkpt><trkpt lat="-29.79753531200244" lon="115.31841005313801"><ele>135.0</ele><time>2026-04-13T04:00:57.001Z</time></trkpt><trkpt lat="-29.79749786660927" lon="115.31874277655811"><ele>135.0</ele><time>2026-04-13T04:00:58.001Z</time></trkpt><trkpt lat="-29.797459137160086" lon="115.31907798080873"><ele>135.0</ele><time>2026-04-13T04:00:59.001Z</time></trkpt><trkpt lat="-29.7974204399008" lon="115.31941122729872"><ele>135.0</ele><time>2026-04-13T04:01:00.001Z</time></trkpt><trkpt lat="-29.797377806469875" lon="115.31974512103638"><ele>135.0</ele><time>2026-04-13T04:01:01.001Z</time></trkpt><trkpt lat="-29.79732825623684" lon="115.32007836614522"><ele>135.0</ele><time>2026-04-13T04:01:02.001Z</time></trkpt><trkpt lat="-29.79726924479803" lon="115.32041087448849"><ele>134.5</ele><time>2026-04-13T04:01:03.001Z</time></trkpt><trkpt lat="-29.797199398727805" lon="115.32074044413622"><ele>134.0</ele><time>2026-04-13T04:01:04.001Z</time></trkpt><trkpt lat="-29.797115603586683" lon="115.3210644538367"><ele>134.0</ele><time>2026-04-13T04:01:05.001Z</time></trkpt><trkpt lat="-29.797015702557363" lon="115.32137779635613"><ele>134.0</ele><time>2026-04-13T04:01:06.001Z</time></trkpt><trkpt lat="-29.796901487696175" lon="115.32169220009641"><ele>134.0</ele><time>2026-04-13T04:01:07.001Z</time></trkpt><trkpt lat="-29.796774042376448" lon="115.32200418267996"><ele>134.0</ele><time>2026-04-13T04:01:08.001Z</time></trkpt><trkpt lat="-29.796636846575964" lon="115.3223119429807"><ele>134.0</ele><time>2026-04-13T04:01:09.001Z</time></trkpt><trkpt lat="-29.796486446436294" lon="115.32261096576433"><ele>134.0</ele><time>2026-04-13T04:01:10.001Z</time></trkpt><trkpt lat="-29.79632391900775" lon="115.32290439911785"><ele>133.5</ele><time>2026-04-13T04:01:11.001Z</time></trkpt><trkpt lat="-29.796153833965022" lon="115.323196838953"><ele>133.0</ele><time>2026-04-13T04:01:12.001Z</time></trkpt><trkpt lat="-29.795978169976397" lon="115.3234792379893"><ele>133.0</ele><time>2026-04-13T04:01:13.001Z</time></trkpt><trkpt lat="-29.795794865047842" lon="115.32375073441834"><ele>133.0</ele><time>2026-04-13T04:01:14.001Z</time></trkpt><trkpt lat="-29.795602178041833" lon="115.3240132610574"><ele>133.5</ele><time>2026-04-13T04:01:15.001Z</time></trkpt><trkpt lat="-29.795407615806056" lon="115.32426989813692"><ele>134.0</ele><time>2026-04-13T04:01:16.001Z</time></trkpt><trkpt lat="-29.795213507167553" lon="115.32452431613676"><ele>134.0</ele><time>2026-04-13T04:01:17.001Z</time></trkpt><trkpt lat="-29.79502242897598" lon="115.32478171412109"><ele>134.0</ele><time>2026-04-13T04:01:18.001Z</time></trkpt><trkpt lat="-29.794836318113397" lon="115.32503634649984"><ele>134.0</ele><time>2026-04-13T04:01:19.001Z</time></trkpt><trkpt lat="-29.79465039017774" lon="115.32529141071689"><ele>134.0</ele><time>2026-04-13T04:01:20.001Z</time></trkpt><trkpt lat="-29.794466089439435" lon="115.32554377941882"><ele>135.0</ele><time>2026-04-13T04:01:21.001Z</time></trkpt><trkpt lat="-29.79428110757214" lon="115.32579331687936"><ele>136.0</ele><time>2026-04-13T04:01:22.001Z</time></trkpt><trkpt lat="-29.794098187168068" lon="115.3260432922068"><ele>136.0</ele><time>2026-04-13T04:01:23.001Z</time></trkpt><trkpt lat="-29.793918348988562" lon="115.32629081024085"><ele>136.0</ele><time>2026-04-13T04:01:24.001Z</time></trkpt><trkpt lat="-29.793736542897847" lon="115.32654112203808"><ele>136.0</ele><time>2026-04-13T04:01:25.001Z</time></trkpt><trkpt lat="-29.79355694191772" lon="115.32678852494828"><ele>136.0</ele><time>2026-04-13T04:01:26.001Z</time></trkpt><trkpt lat="-29.79337486475245" lon="115.327039743918"><ele>136.5</ele><time>2026-04-13T04:01:27.001Z</time></trkpt><trkpt lat="-29.79319311691962" lon="115.32729085901006"><ele>137.0</ele><time>2026-04-13T04:01:28.001Z</time></trkpt><trkpt lat="-29.793007704960065" lon="115.3275433103151"><ele>137.0</ele><time>2026-04-13T04:01:29.001Z</time></trkpt><trkpt lat="-29.79282213421938" lon="115.32779682482827"><ele>137.0</ele><time>2026-04-13T04:01:30.001Z</time></trkpt><trkpt lat="-29.792641719513913" lon="115.32804868730331"><ele>139.5</ele><time>2026-04-13T04:01:31.001Z</time></trkpt><trkpt lat="-29.79245833897928" lon="115.3282976035054"><ele>142.0</ele><time>2026-04-13T04:01:32.001Z</time></trkpt><trkpt lat="-29.792271059674054" lon="115.3285471971518"><ele>142.0</ele><time>2026-04-13T04:01:33.001Z</time></trkpt><trkpt lat="-29.792084693295536" lon="115.32879355859251"><ele>142.0</ele><time>2026-04-13T04:01:34.001Z</time></trkpt><trkpt lat="-29.7918980536361" lon="115.32904505810404"><ele>139.5</ele><time>2026-04-13T04:01:35.001Z</time></trkpt><trkpt lat="-29.791717702649134" lon="115.32929861843145"><ele>137.0</ele><time>2026-04-13T04:01:36.001Z</time></trkpt><trkpt lat="-29.79153905429615" lon="115.32955356129398"><ele>137.5</ele><time>2026-04-13T04:01:37.001Z</time></trkpt><trkpt lat="-29.79135818529171" lon="115.32980644875893"><ele>138.0</ele><time>2026-04-13T04:01:38.001Z</time></trkpt><trkpt lat="-29.791174452782762" lon="115.33005919658777"><ele>138.5</ele><time>2026-04-13T04:01:39.001Z</time></trkpt><trkpt lat="-29.79098139741569" lon="115.330296819695"><ele>139.0</ele><time>2026-04-13T04:01:40.001Z</time></trkpt><trkpt lat="-29.790796090443393" lon="115.33054677525277"><ele>138.5</ele><time>2026-04-13T04:01:41.001Z</time></trkpt><trkpt lat="-29.79062387823313" lon="115.33080828165791"><ele>138.0</ele><time>2026-04-13T04:01:42.001Z</time></trkpt><trkpt lat="-29.790440835475877" lon="115.33105786196057"><ele>138.0</ele><time>2026-04-13T04:01:43.001Z</time></trkpt><trkpt lat="-29.79025903874544" lon="115.33130789040061"><ele>138.0</ele><time>2026-04-13T04:01:44.001Z</time></trkpt><trkpt lat="-29.790072433881974" lon="115.33156063702329"><ele>141.5</ele><time>2026-04-13T04:01:45.001Z</time></trkpt><trkpt lat="-29.789887817957982" lon="115.33181359300337"><ele>145.0</ele><time>2026-04-13T04:01:46.001Z</time></trkpt><trkpt lat="-29.789706733736384" lon="115.33206576133449"><ele>144.5</ele><time>2026-04-13T04:01:47.001Z</time></trkpt><trkpt lat="-29.789509227899714" lon="115.33230593027122"><ele>144.0</ele><time>2026-04-13T04:01:48.001Z</time></trkpt><trkpt lat="-29.78932147613131" lon="115.33256146777798"><ele>146.0</ele><time>2026-04-13T04:01:49.001Z</time></trkpt><trkpt lat="-29.789149265049826" lon="115.3328258158898"><ele>148.0</ele><time>2026-04-13T04:01:50.001Z</time></trkpt><trkpt lat="-29.788960421737883" lon="115.33307760367533"><ele>148.0</ele><time>2026-04-13T04:01:51.001Z</time></trkpt><trkpt lat="-29.788770672357252" lon="115.33333131169995"><ele>148.0</ele><time>2026-04-13T04:01:52.001Z</time></trkpt><trkpt lat="-29.788585962067266" lon="115.33358627223404"><ele>149.5</ele><time>2026-04-13T04:01:53.001Z</time></trkpt><trkpt lat="-29.78839986597037" lon="115.3338406209749"><ele>151.0</ele><time>2026-04-13T04:01:54.001Z</time></trkpt><trkpt lat="-29.788214971475412" lon="115.33409324955642"><ele>151.0</ele><time>2026-04-13T04:01:55.001Z</time></trkpt><trkpt lat="-29.788028414132864" lon="115.3343471301145"><ele>151.0</ele><time>2026-04-13T04:01:56.001Z</time></trkpt><trkpt lat="-29.787844896552205" lon="115.33459795878692"><ele>153.0</ele><time>2026-04-13T04:01:57.001Z</time></trkpt><trkpt lat="-29.787659237391324" lon="115.3348493672496"><ele>155.0</ele><time>2026-04-13T04:01:58.001Z</time></trkpt><trkpt lat="-29.78747614298668" lon="115.33510084940865"><ele>155.0</ele><time>2026-04-13T04:01:59.001Z</time></trkpt><trkpt lat="-29.78729475611042" lon="115.33535035293444"><ele>155.0</ele><time>2026-04-13T04:02:00.001Z</time></trkpt><trkpt lat="-29.787116110671757" lon="115.33559425502472"><ele>156.5</ele><time>2026-04-13T04:02:01.001Z</time></trkpt><trkpt lat="-29.786942741672764" lon="115.33583001284465"><ele>158.0</ele><time>2026-04-13T04:02:02.001Z</time></trkpt><trkpt lat="-29.786775786691265" lon="115.33605623814513"><ele>158.0</ele><time>2026-04-13T04:02:03.001Z</time></trkpt><trkpt lat="-29.78661591400465" lon="115.33627319576598"><ele>158.0</ele><time>2026-04-13T04:02:04.001Z</time></trkpt><trkpt lat="-29.786458674889925" lon="115.33648838633191"><ele>157.0</ele><time>2026-04-13T04:02:05.001Z</time></trkpt><trkpt lat="-29.7863006378261" lon="115.33670456575818"><ele>156.0</ele><time>2026-04-13T04:02:06.001Z</time></trkpt><trkpt lat="-29.78614380819609" lon="115.33691983335419"><ele>156.0</ele><time>2026-04-13T04:02:07.001Z</time></trkpt><trkpt lat="-29.78598815479483" lon="115.33713762288703"><ele>156.0</ele><time>2026-04-13T04:02:08.001Z</time></trkpt><trkpt lat="-29.785831667995495" lon="115.33732259133367"><ele>156.0</ele><time>2026-04-13T04:02:09.001Z</time></trkpt><trkpt lat="-29.78570224107077" lon="115.33750645665368"><ele>156.0</ele><time>2026-04-13T04:02:10.001Z</time></trkpt><trkpt lat="-29.785588407176547" lon="115.33769237212069"><ele>156.0</ele><time>2026-04-13T04:02:11.001Z</time></trkpt><trkpt lat="-29.7854745898971" lon="115.337862482505"><ele>156.0</ele><time>2026-04-13T04:02:12.001Z</time></trkpt><trkpt lat="-29.78537625725555" lon="115.33802808294129"><ele>156.0</ele><time>2026-04-13T04:02:13.001Z</time></trkpt><trkpt lat="-29.78527650911305" lon="115.33817067247938"><ele>156.0</ele><time>2026-04-13T04:02:14.001Z</time></trkpt><trkpt lat="-29.7851978585631" lon="115.33831070729148"><ele>157.2</ele><time>2026-04-13T04:02:15.001Z</time></trkpt><trkpt lat="-29.785141372230278" lon="115.33844467374144"><ele>158.39999999999998</ele><time>2026-04-13T04:02:16.001Z</time></trkpt><trkpt lat="-29.78506182313024" lon="115.3385410674504"><ele>159.6</ele><time>2026-04-13T04:02:17.001Z</time></trkpt><trkpt lat="-29.784982556495102" lon="115.33861866738535"><ele>160.79999999999998</ele><time>2026-04-13T04:02:18.001Z</time></trkpt><trkpt lat="-29.78493995880629" lon="115.33870080089106"><ele>162.0</ele><time>2026-04-13T04:02:19.001Z</time></trkpt><trkpt lat="-29.78471851361035" lon="115.33859020608865"><ele>162.0</ele><time>2026-04-13T04:02:20.001Z</time></trkpt><trkpt lat="-29.784562210484857" lon="115.33856822685532"><ele>162.0</ele><time>2026-04-13T04:02:21.001Z</time></trkpt><trkpt lat="-29.784393469824984" lon="115.33856329098253"><ele>162.0</ele><time>2026-04-13T04:02:22.001Z</time></trkpt><trkpt lat="-29.78419851724257" lon="115.33856631617756"><ele>162.66666666666666</ele><time>2026-04-13T04:02:23.001Z</time></trkpt><trkpt lat="-29.783988042775086" lon="115.33856856762188"><ele>163.33333333333331</ele><time>2026-04-13T04:02:24.001Z</time></trkpt><trkpt lat="-29.783754248053235" lon="115.33855569077487"><ele>164.0</ele><time>2026-04-13T04:02:25Z</time></trkpt><trkpt lat="-29.783506589988907" lon="115.33852488044198"><ele>165.5</ele><time>2026-04-13T04:02:26Z</time></trkpt><trkpt lat="-29.78323884058143" lon="115.33852100658277"><ele>167.0</ele><time>2026-04-13T04:02:27Z</time></trkpt><trkpt lat="-29.78298501845848" lon="115.33852426762921"><ele>167.0</ele><time>2026-04-13T04:02:28Z</time></trkpt><trkpt lat="-29.782713592902603" lon="115.3385278666146"><ele>167.0</ele><time>2026-04-13T04:02:29Z</time></trkpt><trkpt lat="-29.782434243989712" lon="115.33853098912604"><ele>166.5</ele><time>2026-04-13T04:02:30Z</time></trkpt><trkpt lat="-29.782147346169413" lon="115.3385343605088"><ele>166.0</ele><time>2026-04-13T04:02:31Z</time></trkpt><trkpt lat="-29.781872277074076" lon="115.3385357769049"><ele>166.5</ele><time>2026-04-13T04:02:32Z</time></trkpt><trkpt lat="-29.781596115684724" lon="115.33853429776465"><ele>167.0</ele><time>2026-04-13T04:02:33Z</time></trkpt><trkpt lat="-29.781321160207714" lon="115.33853252666486"><ele>167.0</ele><time>2026-04-13T04:02:34Z</time></trkpt><trkpt lat="-29.7810503419685" lon="115.33853096855452"><ele>167.0</ele><time>2026-04-13T04:02:35Z</time></trkpt><trkpt lat="-29.78078005862617" lon="115.33852966855727"><ele>169.5</ele><time>2026-04-13T04:02:36Z</time></trkpt><trkpt lat="-29.780509256240084" lon="115.33852705936178"><ele>172.0</ele><time>2026-04-13T04:02:37Z</time></trkpt><trkpt lat="-29.780229356120685" lon="115.33852545876383"><ele>174.0</ele><time>2026-04-13T04:02:38Z</time></trkpt><trkpt lat="-29.7799564496245" lon="115.33852501724733"><ele>176.0</ele><time>2026-04-13T04:02:39Z</time></trkpt><trkpt lat="-29.77968751513035" lon="115.3385278197891"><ele>176.0</ele><time>2026-04-13T04:02:40Z</time></trkpt><trkpt lat="-29.779419629632365" lon="115.33853040947142"><ele>176.0</ele><time>2026-04-13T04:02:41Z</time></trkpt><trkpt lat="-29.779149694343804" lon="115.33853316621419"><ele>177.0</ele><time>2026-04-13T04:02:42Z</time></trkpt><trkpt lat="-29.778886526319276" lon="115.3385352600296"><ele>178.0</ele><time>2026-04-13T04:02:43Z</time></trkpt><trkpt lat="-29.77861648023852" lon="115.33853906858288"><ele>179.5</ele><time>2026-04-13T04:02:44Z</time></trkpt><trkpt lat="-29.778342459746952" lon="115.3385382410253"><ele>181.0</ele><time>2026-04-13T04:02:45Z</time></trkpt><trkpt lat="-29.778065600656756" lon="115.33853605473932"><ele>181.0</ele><time>2026-04-13T04:02:46Z</time></trkpt><trkpt lat="-29.777795521131466" lon="115.3385340198635"><ele>181.0</ele><time>2026-04-13T04:02:47Z</time></trkpt><trkpt lat="-29.777519666840803" lon="115.33853236860175"><ele>184.0</ele><time>2026-04-13T04:02:48Z</time></trkpt><trkpt lat="-29.777249043947865" lon="115.33852983756756"><ele>187.0</ele><time>2026-04-13T04:02:49Z</time></trkpt><trkpt lat="-29.776968341127912" lon="115.33852861676839"><ele>189.0</ele><time>2026-04-13T04:02:50Z</time></trkpt><trkpt lat="-29.776693238133436" lon="115.33852696952171"><ele>191.0</ele><time>2026-04-13T04:02:51Z</time></trkpt><trkpt lat="-29.776419872888646" lon="115.33852426952666"><ele>191.0</ele><time>2026-04-13T04:02:52Z</time></trkpt><trkpt lat="-29.77614388339501" lon="115.33852296953168"><ele>191.0</ele><time>2026-04-13T04:02:53Z</time></trkpt><trkpt lat="-29.77587613972509" lon="115.33852296953746"><ele>194.5</ele><time>2026-04-13T04:02:54Z</time></trkpt><trkpt lat="-29.77560719636817" lon="115.33852296954211"><ele>198.0</ele><time>2026-04-13T04:02:55Z</time></trkpt><trkpt lat="-29.775351783899424" lon="115.3385237905814"><ele>201.5</ele><time>2026-04-13T04:02:56Z</time></trkpt><trkpt lat="-29.77509419377754" lon="115.3385242695524"><ele>205.0</ele><time>2026-04-13T04:02:57Z</time></trkpt><trkpt lat="-29.774840042741545" lon="115.33852426955788"><ele>205.0</ele><time>2026-04-13T04:02:58Z</time></trkpt><trkpt lat="-29.774577816577175" lon="115.338524269564"><ele>205.0</ele><time>2026-04-13T04:02:59Z</time></trkpt><trkpt lat="-29.774319154807703" lon="115.33852426956813"><ele>206.0</ele><time>2026-04-13T04:03:00Z</time></trkpt><trkpt lat="-29.77406226833521" lon="115.33852426957054"><ele>207.0</ele><time>2026-04-13T04:03:01Z</time></trkpt><trkpt lat="-29.773811121396324" lon="115.33852426956909"><ele>207.0</ele><time>2026-04-13T04:03:02Z</time></trkpt><trkpt lat="-29.77354311765814" lon="115.33852426956524"><ele>207.0</ele><time>2026-04-13T04:03:03Z</time></trkpt><trkpt lat="-29.773272395346932" lon="115.33852777288948"><ele>204.5</ele><time>2026-04-13T04:03:04Z</time></trkpt><trkpt lat="-29.77299967571998" lon="115.33859355662304"><ele>202.0</ele><time>2026-04-13T04:03:05Z</time></trkpt><trkpt lat="-29.772723897321367" lon="115.33859171124641"><ele>200.0</ele><time>2026-04-13T04:03:06Z</time></trkpt><trkpt lat="-29.772448666182104" lon="115.33859312035594"><ele>198.0</ele><time>2026-04-13T04:03:07Z</time></trkpt><trkpt lat="-29.77217203886197" lon="115.33859422701327"><ele>198.0</ele><time>2026-04-13T04:03:08Z</time></trkpt><trkpt lat="-29.771895136011256" lon="115.33859183701902"><ele>198.0</ele><time>2026-04-13T04:03:09Z</time></trkpt><trkpt lat="-29.771617721303187" lon="115.33858892611966"><ele>197.0</ele><time>2026-04-13T04:03:10Z</time></trkpt><trkpt lat="-29.771339660755242" lon="115.33859117218722"><ele>196.0</ele><time>2026-04-13T04:03:11Z</time></trkpt><trkpt lat="-29.771063276254683" lon="115.33860023402482"><ele>196.0</ele><time>2026-04-13T04:03:12.001Z</time></trkpt><trkpt lat="-29.770777001358123" lon="115.33860939629584"><ele>196.0</ele><time>2026-04-13T04:03:13.001Z</time></trkpt><trkpt lat="-29.770495286532576" lon="115.33861435945765"><ele>196.0</ele><time>2026-04-13T04:03:14.001Z</time></trkpt><trkpt lat="-29.77021528545966" lon="115.33861362473064"><ele>196.0</ele><time>2026-04-13T04:03:15.001Z</time></trkpt><trkpt lat="-29.769937352866204" lon="115.33860795705498"><ele>194.5</ele><time>2026-04-13T04:03:16.001Z</time></trkpt><trkpt lat="-29.769658132382283" lon="115.3386019602267"><ele>193.0</ele><time>2026-04-13T04:03:17.001Z</time></trkpt><trkpt lat="-29.769382944002608" lon="115.33859821433751"><ele>191.5</ele><time>2026-04-13T04:03:18.001Z</time></trkpt><trkpt lat="-29.769104061434525" lon="115.3385951064154"><ele>190.0</ele><time>2026-04-13T04:03:19.001Z</time></trkpt><trkpt lat="-29.768821300300914" lon="115.33859224701975"><ele>190.0</ele><time>2026-04-13T04:03:20.001Z</time></trkpt><trkpt lat="-29.76853925108948" lon="115.33858969909757"><ele>190.0</ele><time>2026-04-13T04:03:21.001Z</time></trkpt><trkpt lat="-29.768254954482916" lon="115.33859132462217"><ele>188.5</ele><time>2026-04-13T04:03:22.001Z</time></trkpt><trkpt lat="-29.767968433541427" lon="115.33859134104091"><ele>187.0</ele><time>2026-04-13T04:03:23.001Z</time></trkpt><trkpt lat="-29.767683187232972" lon="115.33858701473932"><ele>185.5</ele><time>2026-04-13T04:03:24.001Z</time></trkpt><trkpt lat="-29.767393751559833" lon="115.33858284144276"><ele>184.0</ele><time>2026-04-13T04:03:25.001Z</time></trkpt><trkpt lat="-29.767108682849887" lon="115.33857877002362"><ele>182.5</ele><time>2026-04-13T04:03:26.001Z</time></trkpt><trkpt lat="-29.766822161224056" lon="115.3385808236267"><ele>181.0</ele><time>2026-04-13T04:03:27.001Z</time></trkpt><trkpt lat="-29.766534789570947" lon="115.33858012151669"><ele>181.0</ele><time>2026-04-13T04:03:28.001Z</time></trkpt><trkpt lat="-29.766245712352426" lon="115.3385801260382"><ele>181.0</ele><time>2026-04-13T04:03:29.001Z</time></trkpt><trkpt lat="-29.76595637520085" lon="115.33858132218181"><ele>182.0</ele><time>2026-04-13T04:03:30.001Z</time></trkpt><trkpt lat="-29.76567013538887" lon="115.33858067905742"><ele>183.0</ele><time>2026-04-13T04:03:31.001Z</time></trkpt><trkpt lat="-29.76538517884892" lon="115.33857979679867"><ele>183.0</ele><time>2026-04-13T04:03:32.001Z</time></trkpt><trkpt lat="-29.76510587996442" lon="115.33858145446182"><ele>183.0</ele><time>2026-04-13T04:03:33.001Z</time></trkpt><trkpt lat="-29.764821666094374" lon="115.33858403991515"><ele>183.0</ele><time>2026-04-13T04:03:34.001Z</time></trkpt><trkpt lat="-29.76453662993604" lon="115.33858428918552"><ele>183.0</ele><time>2026-04-13T04:03:35.001Z</time></trkpt><trkpt lat="-29.764250091045124" lon="115.33858120092077"><ele>182.5</ele><time>2026-04-13T04:03:36.001Z</time></trkpt><trkpt lat="-29.763960891805407" lon="115.33857886623193"><ele>182.0</ele><time>2026-04-13T04:03:37.001Z</time></trkpt><trkpt lat="-29.763671480585653" lon="115.3385782737391"><ele>182.5</ele><time>2026-04-13T04:03:38.001Z</time></trkpt><trkpt lat="-29.76338185481208" lon="115.33858058959949"><ele>183.0</ele><time>2026-04-13T04:03:39.001Z</time></trkpt><trkpt lat="-29.763090516045523" lon="115.33858626349344"><ele>183.0</ele><time>2026-04-13T04:03:40.001Z</time></trkpt><trkpt lat="-29.762794089684434" lon="115.33858631623386"><ele>183.0</ele><time>2026-04-13T04:03:41.001Z</time></trkpt><trkpt lat="-29.762496342171943" lon="115.33858341958442"><ele>182.0</ele><time>2026-04-13T04:03:42.001Z</time></trkpt><trkpt lat="-29.76219476768101" lon="115.33857990007681"><ele>181.0</ele><time>2026-04-13T04:03:43.001Z</time></trkpt><trkpt lat="-29.76189587326918" lon="115.33858275214578"><ele>180.0</ele><time>2026-04-13T04:03:44.001Z</time></trkpt><trkpt lat="-29.761590117423594" lon="115.33858588555559"><ele>179.0</ele><time>2026-04-13T04:03:45.001Z</time></trkpt><trkpt lat="-29.761281370361633" lon="115.33858777867339"><ele>178.5</ele><time>2026-04-13T04:03:46.001Z</time></trkpt><trkpt lat="-29.760987720550595" lon="115.33858991778555"><ele>178.0</ele><time>2026-04-13T04:03:47.001Z</time></trkpt><trkpt lat="-29.760698771459396" lon="115.338596977489"><ele>178.0</ele><time>2026-04-13T04:03:48.001Z</time></trkpt><trkpt lat="-29.760419737607762" lon="115.33861868285965"><ele>178.0</ele><time>2026-04-13T04:03:49.001Z</time></trkpt><trkpt lat="-29.760145195111935" lon="115.33865858544544"><ele>179.0</ele><time>2026-04-13T04:03:50.001Z</time></trkpt><trkpt lat="-29.75986844678036" lon="115.3387184788815"><ele>180.0</ele><time>2026-04-13T04:03:51.001Z</time></trkpt><trkpt lat="-29.75959422608016" lon="115.33879538165641"><ele>178.5</ele><time>2026-04-13T04:03:52.001Z</time></trkpt><trkpt lat="-29.759323881664358" lon="115.33888760867812"><ele>177.0</ele><time>2026-04-13T04:03:53.001Z</time></trkpt><trkpt lat="-29.75906161316206" lon="115.3390001281409"><ele>177.0</ele><time>2026-04-13T04:03:54.001Z</time></trkpt><trkpt lat="-29.75880849000444" lon="115.33913411768539"><ele>177.0</ele><time>2026-04-13T04:03:55.001Z</time></trkpt><trkpt lat="-29.75855277129423" lon="115.33928442066217"><ele>176.0</ele><time>2026-04-13T04:03:56.001Z</time></trkpt><trkpt lat="-29.75829454352047" lon="115.33944627377359"><ele>175.0</ele><time>2026-04-13T04:03:57.001Z</time></trkpt><trkpt lat="-29.75804268094067" lon="115.33961078703727"><ele>174.0</ele><time>2026-04-13T04:03:58.001Z</time></trkpt><trkpt lat="-29.75779805467753" lon="115.3397812456005"><ele>173.0</ele><time>2026-04-13T04:03:59.001Z</time></trkpt><trkpt lat="-29.757553033245518" lon="115.33995393744868"><ele>171.0</ele><time>2026-04-13T04:04:00.001Z</time></trkpt><trkpt lat="-29.757305187249468" lon="115.34012581864805"><ele>169.0</ele><time>2026-04-13T04:04:01.001Z</time></trkpt><trkpt lat="-29.75705449373002" lon="115.34029416016318"><ele>166.0</ele><time>2026-04-13T04:04:02.001Z</time></trkpt><trkpt lat="-29.756802777066955" lon="115.34045697838128"><ele>163.0</ele><time>2026-04-13T04:04:03.001Z</time></trkpt><trkpt lat="-29.75654793664652" lon="115.34062476111473"><ele>162.5</ele><time>2026-04-13T04:04:04.001Z</time></trkpt><trkpt lat="-29.756288664650782" lon="115.34079603255185"><ele>162.0</ele><time>2026-04-13T04:04:05.001Z</time></trkpt><trkpt lat="-29.756035904572048" lon="115.3409521151062"><ele>162.0</ele><time>2026-04-13T04:04:06.001Z</time></trkpt><trkpt lat="-29.75577996013237" lon="115.34108781338227"><ele>162.0</ele><time>2026-04-13T04:04:07.001Z</time></trkpt><trkpt lat="-29.755524014213822" lon="115.34120984301757"><ele>162.0</ele><time>2026-04-13T04:04:08.001Z</time></trkpt><trkpt lat="-29.75526918892316" lon="115.34131536556708"><ele>162.0</ele><time>2026-04-13T04:04:09.001Z</time></trkpt><trkpt lat="-29.755001689582038" lon="115.34133529724762"><ele>166.0</ele><time>2026-04-13T04:04:10.001Z</time></trkpt><trkpt lat="-29.754747567930277" lon="115.34142031159153"><ele>170.0</ele><time>2026-04-13T04:04:11.001Z</time></trkpt><trkpt lat="-29.754482005837787" lon="115.3414789597526"><ele>170.0</ele><time>2026-04-13T04:04:12.001Z</time></trkpt><trkpt lat="-29.75420510000672" lon="115.34151154207024"><ele>170.0</ele><time>2026-04-13T04:04:13.001Z</time></trkpt><trkpt lat="-29.75392742935064" lon="115.34155572355824"><ele>170.0</ele><time>2026-04-13T04:04:14.001Z</time></trkpt><trkpt lat="-29.753643557784546" lon="115.34155996897039"><ele>170.0</ele><time>2026-04-13T04:04:15.001Z</time></trkpt><trkpt lat="-29.75335130455215" lon="115.34155941321836"><ele>170.0</ele><time>2026-04-13T04:04:16.001Z</time></trkpt><trkpt lat="-29.753046835945515" lon="115.34155385260978"><ele>170.0</ele><time>2026-04-13T04:04:17.001Z</time></trkpt><trkpt lat="-29.75274240337209" lon="115.34154548115734"><ele>168.5</ele><time>2026-04-13T04:04:18Z</time></trkpt><trkpt lat="-29.752434459266873" lon="115.34153785781147"><ele>167.0</ele><time>2026-04-13T04:04:19Z</time></trkpt><trkpt lat="-29.752131531201197" lon="115.341532502906"><ele>166.5</ele><time>2026-04-13T04:04:20Z</time></trkpt><trkpt lat="-29.751828578938266" lon="115.34152740958532"><ele>166.0</ele><time>2026-04-13T04:04:21Z</time></trkpt><trkpt lat="-29.75152843411044" lon="115.34150017233651"><ele>166.0</ele><time>2026-04-13T04:04:22Z</time></trkpt><trkpt lat="-29.751229305698153" lon="115.3414899278618"><ele>166.0</ele><time>2026-04-13T04:04:23Z</time></trkpt><trkpt lat="-29.750928671841024" lon="115.34147969119977"><ele>164.5</ele><time>2026-04-13T04:04:24Z</time></trkpt><trkpt lat="-29.7506272721215" lon="115.34147009113519"><ele>163.0</ele><time>2026-04-13T04:04:25Z</time></trkpt><trkpt lat="-29.75032535983263" lon="115.3414600068541"><ele>163.0</ele><time>2026-04-13T04:04:26Z</time></trkpt><trkpt lat="-29.750024290131794" lon="115.34144891116966"><ele>163.0</ele><time>2026-04-13T04:04:27Z</time></trkpt><trkpt lat="-29.74972767724009" lon="115.34144044102584"><ele>163.0</ele><time>2026-04-13T04:04:28Z</time></trkpt><trkpt lat="-29.749432824952503" lon="115.34143238319376"><ele>163.0</ele><time>2026-04-13T04:04:29Z</time></trkpt><trkpt lat="-29.74914040868769" lon="115.34142460924869"><ele>162.5</ele><time>2026-04-13T04:04:30Z</time></trkpt><trkpt lat="-29.748853298876355" lon="115.34141778767325"><ele>162.0</ele><time>2026-04-13T04:04:31Z</time></trkpt><trkpt lat="-29.748563714191306" lon="115.34141047552424"><ele>163.0</ele><time>2026-04-13T04:04:32Z</time></trkpt><trkpt lat="-29.74827405806668" lon="115.34140424065536"><ele>164.0</ele><time>2026-04-13T04:04:33Z</time></trkpt><trkpt lat="-29.747979611037266" lon="115.34139775165964"><ele>167.0</ele><time>2026-04-13T04:04:34Z</time></trkpt><trkpt lat="-29.74768523609722" lon="115.34140939535811"><ele>170.0</ele><time>2026-04-13T04:04:35Z</time></trkpt><trkpt lat="-29.74739298732391" lon="115.34140217260885"><ele>168.5</ele><time>2026-04-13T04:04:36Z</time></trkpt><trkpt lat="-29.747105750747558" lon="115.34137608085071"><ele>167.0</ele><time>2026-04-13T04:04:37Z</time></trkpt><trkpt lat="-29.74681587875857" lon="115.34136879065973"><ele>165.5</ele><time>2026-04-13T04:04:38Z</time></trkpt><trkpt lat="-29.746527421705544" lon="115.3413612713208"><ele>164.0</ele><time>2026-04-13T04:04:39Z</time></trkpt><trkpt lat="-29.746238713696226" lon="115.34137254413571"><ele>165.0</ele><time>2026-04-13T04:04:40Z</time></trkpt><trkpt lat="-29.745947314964265" lon="115.34136054083372"><ele>166.0</ele><time>2026-04-13T04:04:41Z</time></trkpt><trkpt lat="-29.745657926317758" lon="115.34135059464425"><ele>166.0</ele><time>2026-04-13T04:04:42Z</time></trkpt><trkpt lat="-29.74536583805582" lon="115.34134318010905"><ele>166.0</ele><time>2026-04-13T04:04:43Z</time></trkpt><trkpt lat="-29.745074773965985" lon="115.34133684919374"><ele>168.0</ele><time>2026-04-13T04:04:44Z</time></trkpt><trkpt lat="-29.74478136930413" lon="115.34132963597699"><ele>170.0</ele><time>2026-04-13T04:04:45Z</time></trkpt><trkpt lat="-29.744485874012554" lon="115.34132194366308"><ele>170.0</ele><time>2026-04-13T04:04:46Z</time></trkpt><trkpt lat="-29.744180287597832" lon="115.34131334132006"><ele>170.0</ele><time>2026-04-13T04:04:47Z</time></trkpt><trkpt lat="-29.743874431307315" lon="115.34128687746436"><ele>170.0</ele><time>2026-04-13T04:04:48Z</time></trkpt><trkpt lat="-29.743562295052207" lon="115.34127843604146"><ele>170.0</ele><time>2026-04-13T04:04:49Z</time></trkpt><trkpt lat="-29.743253597717864" lon="115.34127014157168"><ele>165.0</ele><time>2026-04-13T04:04:50Z</time></trkpt><trkpt lat="-29.742944701467305" lon="115.34126183911586"><ele>160.0</ele><time>2026-04-13T04:04:51Z</time></trkpt><trkpt lat="-29.742631609554767" lon="115.34125282700836"><ele>160.0</ele><time>2026-04-13T04:04:52Z</time></trkpt><trkpt lat="-29.742325909098017" lon="115.34124275772281"><ele>160.0</ele><time>2026-04-13T04:04:53Z</time></trkpt><trkpt lat="-29.742033012603525" lon="115.34123256271084"><ele>159.5</ele><time>2026-04-13T04:04:54Z</time></trkpt><trkpt lat="-29.741754078903842" lon="115.34122285371286"><ele>159.0</ele><time>2026-04-13T04:04:55Z</time></trkpt><trkpt lat="-29.74146128802808" lon="115.34121310098556"><ele>159.0</ele><time>2026-04-13T04:04:56Z</time></trkpt><trkpt lat="-29.741182767984423" lon="115.3412047581669"><ele>159.0</ele><time>2026-04-13T04:04:57Z</time></trkpt><trkpt lat="-29.740898662910915" lon="115.3411967265354"><ele>158.5</ele><time>2026-04-13T04:04:58Z</time></trkpt><trkpt lat="-29.740633789443788" lon="115.34118917249549"><ele>158.0</ele><time>2026-04-13T04:04:59Z</time></trkpt><trkpt lat="-29.740355431751116" lon="115.341181664498"><ele>158.5</ele><time>2026-04-13T04:05:00Z</time></trkpt><trkpt lat="-29.740083811050916" lon="115.34117622398264"><ele>159.0</ele><time>2026-04-13T04:05:01Z</time></trkpt><trkpt lat="-29.739807636527015" lon="115.34117123021952"><ele>159.0</ele><time>2026-04-13T04:05:02Z</time></trkpt><trkpt lat="-29.739525487590097" lon="115.34116675432836"><ele>159.0</ele><time>2026-04-13T04:05:03Z</time></trkpt><trkpt lat="-29.739240988538047" lon="115.34116188402027"><ele>157.0</ele><time>2026-04-13T04:05:04Z</time></trkpt><trkpt lat="-29.738958211522778" lon="115.34117511350607"><ele>155.0</ele><time>2026-04-13T04:05:05Z</time></trkpt><trkpt lat="-29.738675369052366" lon="115.34116797810658"><ele>155.5</ele><time>2026-04-13T04:05:06Z</time></trkpt><trkpt lat="-29.738393640005675" lon="115.3411620066271"><ele>156.0</ele><time>2026-04-13T04:05:07Z</time></trkpt><trkpt lat="-29.738110254359146" lon="115.34115664552178"><ele>156.0</ele><time>2026-04-13T04:05:08Z</time></trkpt><trkpt lat="-29.737828958274218" lon="115.3411527782712"><ele>156.0</ele><time>2026-04-13T04:05:09Z</time></trkpt><trkpt lat="-29.73754676718639" lon="115.34114414932118"><ele>156.5</ele><time>2026-04-13T04:05:10Z</time></trkpt><trkpt lat="-29.737264428648555" lon="115.34113572772196"><ele>157.0</ele><time>2026-04-13T04:05:11Z</time></trkpt><trkpt lat="-29.736984660533356" lon="115.34112562300518"><ele>159.5</ele><time>2026-04-13T04:05:12Z</time></trkpt><trkpt lat="-29.736706579594728" lon="115.34111676715366"><ele>162.0</ele><time>2026-04-13T04:05:13Z</time></trkpt><trkpt lat="-29.736427858437423" lon="115.34110989808842"><ele>162.0</ele><time>2026-04-13T04:05:14Z</time></trkpt><trkpt lat="-29.736151009652897" lon="115.34108390970187"><ele>162.0</ele><time>2026-04-13T04:05:15Z</time></trkpt><trkpt lat="-29.735875549274766" lon="115.34107540653383"><ele>163.0</ele><time>2026-04-13T04:05:16Z</time></trkpt><trkpt lat="-29.735601923032448" lon="115.34106563899694"><ele>164.0</ele><time>2026-04-13T04:05:17Z</time></trkpt><trkpt lat="-29.73532501696468" lon="115.34105575356475"><ele>164.0</ele><time>2026-04-13T04:05:18Z</time></trkpt><trkpt lat="-29.73504692579631" lon="115.34104765461358"><ele>164.0</ele><time>2026-04-13T04:05:19Z</time></trkpt><trkpt lat="-29.73476565387134" lon="115.3410705110051"><ele>164.0</ele><time>2026-04-13T04:05:20Z</time></trkpt><trkpt lat="-29.734487247495977" lon="115.34105775233752"><ele>164.0</ele><time>2026-04-13T04:05:21Z</time></trkpt><trkpt lat="-29.734209433329987" lon="115.3410489227453"><ele>166.5</ele><time>2026-04-13T04:05:22Z</time></trkpt><trkpt lat="-29.7339252756722" lon="115.34104159847693"><ele>169.0</ele><time>2026-04-13T04:05:23Z</time></trkpt><trkpt lat="-29.73364480192918" lon="115.34103472022146"><ele>172.0</ele><time>2026-04-13T04:05:24Z</time></trkpt><trkpt lat="-29.733366768591175" lon="115.34102926170057"><ele>175.0</ele><time>2026-04-13T04:05:25Z</time></trkpt><trkpt lat="-29.733092058038523" lon="115.34102183511666"><ele>175.0</ele><time>2026-04-13T04:05:26Z</time></trkpt><trkpt lat="-29.732816740999745" lon="115.34101368506526"><ele>175.0</ele><time>2026-04-13T04:05:27Z</time></trkpt><trkpt lat="-29.732538918055695" lon="115.34100571833683"><ele>177.5</ele><time>2026-04-13T04:05:28Z</time></trkpt><trkpt lat="-29.73226405483991" lon="115.34100105596984"><ele>180.0</ele><time>2026-04-13T04:05:29Z</time></trkpt><trkpt lat="-29.731988287798973" lon="115.34099790582218"><ele>180.5</ele><time>2026-04-13T04:05:30Z</time></trkpt><trkpt lat="-29.731718244903913" lon="115.34099842639947"><ele>181.0</ele><time>2026-04-13T04:05:31Z</time></trkpt><trkpt lat="-29.73143541951341" lon="115.34099482300398"><ele>181.0</ele><time>2026-04-13T04:05:32Z</time></trkpt><trkpt lat="-29.73115295189192" lon="115.34098945795877"><ele>181.0</ele><time>2026-04-13T04:05:33Z</time></trkpt><trkpt lat="-29.73086714743098" lon="115.34097760198874"><ele>185.0</ele><time>2026-04-13T04:05:34Z</time></trkpt><trkpt lat="-29.730581700028747" lon="115.3409634496645"><ele>189.0</ele><time>2026-04-13T04:05:35Z</time></trkpt><trkpt lat="-29.730304255529195" lon="115.34095360288872"><ele>190.5</ele><time>2026-04-13T04:05:36Z</time></trkpt><trkpt lat="-29.730028650074754" lon="115.34094753634515"><ele>192.0</ele><time>2026-04-13T04:05:37Z</time></trkpt><trkpt lat="-29.729756354523108" lon="115.34094444660371"><ele>192.0</ele><time>2026-04-13T04:05:38Z</time></trkpt><trkpt lat="-29.729483027175842" lon="115.34093635101924"><ele>192.0</ele><time>2026-04-13T04:05:39Z</time></trkpt><trkpt lat="-29.729213991369964" lon="115.3409308455293"><ele>194.5</ele><time>2026-04-13T04:05:40Z</time></trkpt><trkpt lat="-29.72893741641343" lon="115.34092463135794"><ele>197.0</ele><time>2026-04-13T04:05:41Z</time></trkpt><trkpt lat="-29.728663807493525" lon="115.34091909844679"><ele>198.5</ele><time>2026-04-13T04:05:42Z</time></trkpt><trkpt lat="-29.728387369889436" lon="115.34090986323474"><ele>200.0</ele><time>2026-04-13T04:05:43.001Z</time></trkpt><trkpt lat="-29.728102935166373" lon="115.34089875692234"><ele>200.0</ele><time>2026-04-13T04:05:44.001Z</time></trkpt><trkpt lat="-29.72781441272133" lon="115.34088543759431"><ele>200.0</ele><time>2026-04-13T04:05:45.001Z</time></trkpt><trkpt lat="-29.727526763194778" lon="115.34087490140215"><ele>202.5</ele><time>2026-04-13T04:05:46.001Z</time></trkpt><trkpt lat="-29.72724414852997" lon="115.34086453251165"><ele>205.0</ele><time>2026-04-13T04:05:47.001Z</time></trkpt><trkpt lat="-29.72696189243651" lon="115.3408554880124"><ele>205.5</ele><time>2026-04-13T04:05:48.001Z</time></trkpt><trkpt lat="-29.726678201428584" lon="115.34084738791621"><ele>206.0</ele><time>2026-04-13T04:05:49.001Z</time></trkpt><trkpt lat="-29.726394680564347" lon="115.340840646118"><ele>206.0</ele><time>2026-04-13T04:05:50.001Z</time></trkpt><trkpt lat="-29.726112194190037" lon="115.34083118206455"><ele>206.0</ele><time>2026-04-13T04:05:51.001Z</time></trkpt><trkpt lat="-29.725828542760677" lon="115.34082163760299"><ele>209.5</ele><time>2026-04-13T04:05:52.001Z</time></trkpt><trkpt lat="-29.725543741748783" lon="115.3408104861633"><ele>213.0</ele><time>2026-04-13T04:05:53.001Z</time></trkpt><trkpt lat="-29.725258032350258" lon="115.340803187378"><ele>216.0</ele><time>2026-04-13T04:05:54.001Z</time></trkpt><trkpt lat="-29.72496529043257" lon="115.3407929032504"><ele>219.0</ele><time>2026-04-13T04:05:55.001Z</time></trkpt><trkpt lat="-29.724671441880414" lon="115.34078197730291"><ele>220.5</ele><time>2026-04-13T04:05:56.001Z</time></trkpt><trkpt lat="-29.724383713662572" lon="115.34077113742747"><ele>222.0</ele><time>2026-04-13T04:05:57.001Z</time></trkpt><trkpt lat="-29.724095650736874" lon="115.34076302845344"><ele>222.0</ele><time>2026-04-13T04:05:58.001Z</time></trkpt><trkpt lat="-29.723804796640685" lon="115.34075794996407"><ele>222.0</ele><time>2026-04-13T04:05:59.001Z</time></trkpt><trkpt lat="-29.72351482513609" lon="115.34075652244492"><ele>226.0</ele><time>2026-04-13T04:06:00.001Z</time></trkpt><trkpt lat="-29.723222925274985" lon="115.34075050542587"><ele>230.0</ele><time>2026-04-13T04:06:01.001Z</time></trkpt><trkpt lat="-29.722933877179432" lon="115.34074397010443"><ele>231.5</ele><time>2026-04-13T04:06:02.001Z</time></trkpt><trkpt lat="-29.722645274782824" lon="115.34073729291669"><ele>233.0</ele><time>2026-04-13T04:06:03.001Z</time></trkpt><trkpt lat="-29.722356972279524" lon="115.34073071521811"><ele>233.0</ele><time>2026-04-13T04:06:04.001Z</time></trkpt><trkpt lat="-29.72206647679885" lon="115.34072419066342"><ele>233.0</ele><time>2026-04-13T04:06:05.001Z</time></trkpt><trkpt lat="-29.721774724874823" lon="115.34071582947311"><ele>235.5</ele><time>2026-04-13T04:06:06.001Z</time></trkpt><trkpt lat="-29.721480365882446" lon="115.34070840530285"><ele>238.0</ele><time>2026-04-13T04:06:07.001Z</time></trkpt><trkpt lat="-29.72117852507939" lon="115.34070193098691"><ele>237.5</ele><time>2026-04-13T04:06:08.001Z</time></trkpt><trkpt lat="-29.720863276407574" lon="115.34069443574776"><ele>237.0</ele><time>2026-04-13T04:06:09.001Z</time></trkpt><trkpt lat="-29.72054165250805" lon="115.3406864938396"><ele>237.0</ele><time>2026-04-13T04:06:10.001Z</time></trkpt><trkpt lat="-29.720233410864175" lon="115.34067873058581"><ele>237.0</ele><time>2026-04-13T04:06:11.001Z</time></trkpt><trkpt lat="-29.71992718524678" lon="115.34067079597814"><ele>238.0</ele><time>2026-04-13T04:06:12.001Z</time></trkpt><trkpt lat="-29.719625965547092" lon="115.34066269547202"><ele>239.0</ele><time>2026-04-13T04:06:13.001Z</time></trkpt><trkpt lat="-29.719325433405707" lon="115.34065336749076"><ele>237.0</ele><time>2026-04-13T04:06:14.001Z</time></trkpt><trkpt lat="-29.719027899778045" lon="115.34064499686399"><ele>235.0</ele><time>2026-04-13T04:06:15.001Z</time></trkpt><trkpt lat="-29.718734018444543" lon="115.34063806267626"><ele>234.5</ele><time>2026-04-13T04:06:16.001Z</time></trkpt><trkpt lat="-29.718440643157585" lon="115.34062972525928"><ele>234.0</ele><time>2026-04-13T04:06:17.001Z</time></trkpt><trkpt lat="-29.718149093096528" lon="115.34061814192746"><ele>234.0</ele><time>2026-04-13T04:06:18.001Z</time></trkpt><trkpt lat="-29.717855615397188" lon="115.34061009054624"><ele>234.0</ele><time>2026-04-13T04:06:19.001Z</time></trkpt><trkpt lat="-29.717556878723343" lon="115.34060341075042"><ele>232.5</ele><time>2026-04-13T04:06:20.001Z</time></trkpt><trkpt lat="-29.71725499247557" lon="115.34059355870413"><ele>231.0</ele><time>2026-04-13T04:06:21.001Z</time></trkpt><trkpt lat="-29.716953888574533" lon="115.34058686664441"><ele>230.5</ele><time>2026-04-13T04:06:22.001Z</time></trkpt><trkpt lat="-29.71665087710577" lon="115.34058019599505"><ele>230.0</ele><time>2026-04-13T04:06:23.001Z</time></trkpt><trkpt lat="-29.716348770251546" lon="115.3405731235878"><ele>230.0</ele><time>2026-04-13T04:06:24Z</time></trkpt><trkpt lat="-29.71604982571138" lon="115.34056455509864"><ele>230.0</ele><time>2026-04-13T04:06:25Z</time></trkpt><trkpt lat="-29.715748673753954" lon="115.340557240165"><ele>230.0</ele><time>2026-04-13T04:06:26Z</time></trkpt><trkpt lat="-29.715446336018978" lon="115.34055022496356"><ele>230.0</ele><time>2026-04-13T04:06:27Z</time></trkpt><trkpt lat="-29.715145125741458" lon="115.34054470073659"><ele>230.0</ele><time>2026-04-13T04:06:28Z</time></trkpt><trkpt lat="-29.71484507698313" lon="115.34054128678069"><ele>230.0</ele><time>2026-04-13T04:06:29Z</time></trkpt><trkpt lat="-29.71454292706219" lon="115.3405181638245"><ele>229.5</ele><time>2026-04-13T04:06:30Z</time></trkpt><trkpt lat="-29.714238418937665" lon="115.3405105948615"><ele>229.0</ele><time>2026-04-13T04:06:31Z</time></trkpt><trkpt lat="-29.71393365110909" lon="115.34052027584141"><ele>229.0</ele><time>2026-04-13T04:06:32Z</time></trkpt><trkpt lat="-29.71362992723216" lon="115.34050566779095"><ele>229.0</ele><time>2026-04-13T04:06:33Z</time></trkpt><trkpt lat="-29.713324447990157" lon="115.34049451998386"><ele>231.0</ele><time>2026-04-13T04:06:34Z</time></trkpt><trkpt lat="-29.713015699098186" lon="115.34048401732227"><ele>233.0</ele><time>2026-04-13T04:06:35Z</time></trkpt><trkpt lat="-29.712703203004097" lon="115.3404745649103"><ele>235.0</ele><time>2026-04-13T04:06:36Z</time></trkpt><trkpt lat="-29.712391496781684" lon="115.3404635082063"><ele>237.0</ele><time>2026-04-13T04:06:37Z</time></trkpt><trkpt lat="-29.712078638109357" lon="115.34045533815639"><ele>240.5</ele><time>2026-04-13T04:06:38Z</time></trkpt><trkpt lat="-29.711772614692528" lon="115.34044956300384"><ele>244.0</ele><time>2026-04-13T04:06:39Z</time></trkpt><trkpt lat="-29.711471918129103" lon="115.3404429689793"><ele>244.0</ele><time>2026-04-13T04:06:40Z</time></trkpt><trkpt lat="-29.71117509833445" lon="115.34041480883396"><ele>244.0</ele><time>2026-04-13T04:06:41Z</time></trkpt><trkpt lat="-29.710876508061197" lon="115.34040610877666"><ele>245.5</ele><time>2026-04-13T04:06:42Z</time></trkpt><trkpt lat="-29.710575695060825" lon="115.34039808202104"><ele>247.0</ele><time>2026-04-13T04:06:43Z</time></trkpt><trkpt lat="-29.71027801528127" lon="115.34039023558117"><ele>247.5</ele><time>2026-04-13T04:06:44Z</time></trkpt><trkpt lat="-29.70997881827921" lon="115.34038252583802"><ele>248.0</ele><time>2026-04-13T04:06:45Z</time></trkpt><trkpt lat="-29.709676047211975" lon="115.34039125155456"><ele>249.5</ele><time>2026-04-13T04:06:46Z</time></trkpt><trkpt lat="-29.709379630466543" lon="115.34038126786126"><ele>251.0</ele><time>2026-04-13T04:06:47Z</time></trkpt><trkpt lat="-29.709084538497137" lon="115.34036798540228"><ele>251.0</ele><time>2026-04-13T04:06:48Z</time></trkpt><trkpt lat="-29.708785765139908" lon="115.34035389666037"><ele>251.0</ele><time>2026-04-13T04:06:49Z</time></trkpt><trkpt lat="-29.70848027683383" lon="115.34033719424369"><ele>252.0</ele><time>2026-04-13T04:06:50Z</time></trkpt><trkpt lat="-29.708172691228633" lon="115.34032509005574"><ele>253.0</ele><time>2026-04-13T04:06:51Z</time></trkpt><trkpt lat="-29.707864072886952" lon="115.34031596928239"><ele>254.0</ele><time>2026-04-13T04:06:52Z</time></trkpt><trkpt lat="-29.707553903736724" lon="115.3403091769976"><ele>255.0</ele><time>2026-04-13T04:06:53Z</time></trkpt><trkpt lat="-29.707241137654695" lon="115.34030136007466"><ele>255.0</ele><time>2026-04-13T04:06:54Z</time></trkpt><trkpt lat="-29.70692949252415" lon="115.34029140337424"><ele>255.0</ele><time>2026-04-13T04:06:55Z</time></trkpt><trkpt lat="-29.706616182655917" lon="115.34027696654319"><ele>253.5</ele><time>2026-04-13T04:06:56Z</time></trkpt><trkpt lat="-29.70630926570848" lon="115.34026532117372"><ele>252.0</ele><time>2026-04-13T04:06:57Z</time></trkpt><trkpt lat="-29.706004297580137" lon="115.3402578208376"><ele>252.0</ele><time>2026-04-13T04:06:58Z</time></trkpt><trkpt lat="-29.705701134563157" lon="115.34025598930587"><ele>252.0</ele><time>2026-04-13T04:06:59Z</time></trkpt><trkpt lat="-29.705391688657432" lon="115.34025305451894"><ele>253.5</ele><time>2026-04-13T04:07:00Z</time></trkpt><trkpt lat="-29.70508315479216" lon="115.34024912066118"><ele>255.0</ele><time>2026-04-13T04:07:01Z</time></trkpt><trkpt lat="-29.704771916034424" lon="115.34024084167702"><ele>255.0</ele><time>2026-04-13T04:07:02Z</time></trkpt><trkpt lat="-29.704466462519562" lon="115.34023201940624"><ele>255.0</ele><time>2026-04-13T04:07:03Z</time></trkpt><trkpt lat="-29.70416522453256" lon="115.34022320021093"><ele>255.0</ele><time>2026-04-13T04:07:04Z</time></trkpt><trkpt lat="-29.703871011391943" lon="115.34021700582053"><ele>255.0</ele><time>2026-04-13T04:07:05Z</time></trkpt><trkpt lat="-29.70358580269536" lon="115.34021597056403"><ele>256.0</ele><time>2026-04-13T04:07:06Z</time></trkpt><trkpt lat="-29.703308235776603" lon="115.34022523342747"><ele>257.0</ele><time>2026-04-13T04:07:07Z</time></trkpt><trkpt lat="-29.7030338434846" lon="115.340247408119"><ele>257.0</ele><time>2026-04-13T04:07:08Z</time></trkpt><trkpt lat="-29.702760255009867" lon="115.34028310367538"><ele>257.0</ele><time>2026-04-13T04:07:09Z</time></trkpt><trkpt lat="-29.702483679433964" lon="115.34033459706757"><ele>257.0</ele><time>2026-04-13T04:07:10Z</time></trkpt><trkpt lat="-29.702197106218193" lon="115.34039957778603"><ele>257.0</ele><time>2026-04-13T04:07:11Z</time></trkpt><trkpt lat="-29.70190750816198" lon="115.34047654853705"><ele>258.0</ele><time>2026-04-13T04:07:12Z</time></trkpt><trkpt lat="-29.701614773736214" lon="115.3405617113574"><ele>259.0</ele><time>2026-04-13T04:07:13Z</time></trkpt><trkpt lat="-29.701338111472115" lon="115.34064710173578"><ele>258.5</ele><time>2026-04-13T04:07:14Z</time></trkpt><trkpt lat="-29.70108205545554" lon="115.34072646930618"><ele>258.0</ele><time>2026-04-13T04:07:15Z</time></trkpt><trkpt lat="-29.700826535751315" lon="115.34079240989303"><ele>258.0</ele><time>2026-04-13T04:07:16Z</time></trkpt><trkpt lat="-29.700565666679907" lon="115.34083722321087"><ele>258.0</ele><time>2026-04-13T04:07:17Z</time></trkpt><trkpt lat="-29.70030213376012" lon="115.34086424486463"><ele>256.0</ele><time>2026-04-13T04:07:18Z</time></trkpt><trkpt lat="-29.700034438950183" lon="115.34087839301009"><ele>254.0</ele><time>2026-04-13T04:07:19Z</time></trkpt><trkpt lat="-29.6997581242147" lon="115.34088143978111"><ele>254.0</ele><time>2026-04-13T04:07:20Z</time></trkpt><trkpt lat="-29.69947125638046" lon="115.34086883308869"><ele>254.0</ele><time>2026-04-13T04:07:21Z</time></trkpt><trkpt lat="-29.699183471403583" lon="115.34083658220003"><ele>253.0</ele><time>2026-04-13T04:07:22Z</time></trkpt><trkpt lat="-29.69890473585162" lon="115.34077899240165"><ele>252.0</ele><time>2026-04-13T04:07:23Z</time></trkpt><trkpt lat="-29.69861758046869" lon="115.340700197155"><ele>250.5</ele><time>2026-04-13T04:07:24Z</time></trkpt><trkpt lat="-29.698324994934055" lon="115.34061050184464"><ele>249.0</ele><time>2026-04-13T04:07:25Z</time></trkpt><trkpt lat="-29.69803080186764" lon="115.34051825788873"><ele>247.5</ele><time>2026-04-13T04:07:26Z</time></trkpt><trkpt lat="-29.697731070688413" lon="115.3404297405417"><ele>246.0</ele><time>2026-04-13T04:07:27Z</time></trkpt><trkpt lat="-29.697430943020983" lon="115.34034305474175"><ele>246.0</ele><time>2026-04-13T04:07:28Z</time></trkpt><trkpt lat="-29.6971369555875" lon="115.34023761755302"><ele>246.0</ele><time>2026-04-13T04:07:29Z</time></trkpt><trkpt lat="-29.69684263358477" lon="115.34014877102643"><ele>246.5</ele><time>2026-04-13T04:07:30Z</time></trkpt><trkpt lat="-29.69653605865473" lon="115.34010149042079"><ele>247.0</ele><time>2026-04-13T04:07:31Z</time></trkpt><trkpt lat="-29.696234204015344" lon="115.34005103636794"><ele>245.5</ele><time>2026-04-13T04:07:32Z</time></trkpt><trkpt lat="-29.69592451807018" lon="115.34002060677086"><ele>244.0</ele><time>2026-04-13T04:07:33Z</time></trkpt><trkpt lat="-29.695612625626428" lon="115.33999724923393"><ele>244.0</ele><time>2026-04-13T04:07:34Z</time></trkpt><trkpt lat="-29.695308150048156" lon="115.33998405970641"><ele>244.0</ele><time>2026-04-13T04:07:35Z</time></trkpt><trkpt lat="-29.69500953231248" lon="115.33997941470614"><ele>243.0</ele><time>2026-04-13T04:07:36Z</time></trkpt><trkpt lat="-29.694714205985086" lon="115.33998571233234"><ele>242.0</ele><time>2026-04-13T04:07:37Z</time></trkpt><trkpt lat="-29.69441967345745" lon="115.33999652895831"><ele>241.0</ele><time>2026-04-13T04:07:38Z</time></trkpt><trkpt lat="-29.69412374944346" lon="115.3400033157421"><ele>240.0</ele><time>2026-04-13T04:07:39Z</time></trkpt><trkpt lat="-29.693830051752272" lon="115.34000570925797"><ele>237.5</ele><time>2026-04-13T04:07:40Z</time></trkpt><trkpt lat="-29.69353372175847" lon="115.34000264296058"><ele>235.0</ele><time>2026-04-13T04:07:41Z</time></trkpt><trkpt lat="-29.693238320257915" lon="115.33999988062448"><ele>235.0</ele><time>2026-04-13T04:07:42Z</time></trkpt><trkpt lat="-29.69294488748683" lon="115.33999999389107"><ele>235.0</ele><time>2026-04-13T04:07:43Z</time></trkpt><trkpt lat="-29.692654521605398" lon="115.34000260261965"><ele>232.5</ele><time>2026-04-13T04:07:44Z</time></trkpt><trkpt lat="-29.692360724529983" lon="115.34000583926084"><ele>230.0</ele><time>2026-04-13T04:07:45Z</time></trkpt><trkpt lat="-29.692071340336728" lon="115.34000782911595"><ele>228.0</ele><time>2026-04-13T04:07:46Z</time></trkpt><trkpt lat="-29.691781138963574" lon="115.34000590698842"><ele>226.0</ele><time>2026-04-13T04:07:47Z</time></trkpt><trkpt lat="-29.691491092736403" lon="115.34000368995233"><ele>226.0</ele><time>2026-04-13T04:07:48Z</time></trkpt><trkpt lat="-29.69120222717067" lon="115.34000292436953"><ele>226.0</ele><time>2026-04-13T04:07:49Z</time></trkpt><trkpt lat="-29.69090851780708" lon="115.3400022606898"><ele>226.0</ele><time>2026-04-13T04:07:50Z</time></trkpt><trkpt lat="-29.69061129054256" lon="115.34000037265541"><ele>226.0</ele><time>2026-04-13T04:07:51Z</time></trkpt><trkpt lat="-29.690308658142143" lon="115.3399993431446"><ele>225.5</ele><time>2026-04-13T04:07:52Z</time></trkpt><trkpt lat="-29.690005249554734" lon="115.340000939305"><ele>225.0</ele><time>2026-04-13T04:07:53Z</time></trkpt><trkpt lat="-29.689700852587613" lon="115.34000240334538"><ele>223.5</ele><time>2026-04-13T04:07:54Z</time></trkpt><trkpt lat="-29.68939541148412" lon="115.34000556650362"><ele>222.0</ele><time>2026-04-13T04:07:55Z</time></trkpt><trkpt lat="-29.68908898389531" lon="115.34001042863821"><ele>222.0</ele><time>2026-04-13T04:07:56Z</time></trkpt><trkpt lat="-29.688782252759697" lon="115.34001374442694"><ele>222.0</ele><time>2026-04-13T04:07:57Z</time></trkpt><trkpt lat="-29.688479279567712" lon="115.34001488673003"><ele>220.0</ele><time>2026-04-13T04:07:58Z</time></trkpt><trkpt lat="-29.688204180552173" lon="115.34001321524865"><ele>218.0</ele><time>2026-04-13T04:07:59Z</time></trkpt><trkpt lat="-29.68795809598786" lon="115.34001015555084"><ele>217.66666666666669</ele><time>2026-04-13T04:08:00Z</time></trkpt><trkpt lat="-29.68773363895431" lon="115.3400076365279"><ele>217.33333333333331</ele><time>2026-04-13T04:08:01Z</time></trkpt><trkpt lat="-29.687529076369657" lon="115.34000201504124"><ele>217.0</ele><time>2026-04-13T04:08:02Z</time></trkpt><trkpt lat="-29.687310838320315" lon="115.33999766144373"><ele>217.0</ele><time>2026-04-13T04:08:03Z</time></trkpt><trkpt lat="-29.68707241717335" lon="115.33999404412884"><ele>217.0</ele><time>2026-04-13T04:08:04Z</time></trkpt><trkpt lat="-29.68682539089742" lon="115.33999655771724"><ele>216.0</ele><time>2026-04-13T04:08:05Z</time></trkpt><trkpt lat="-29.68656536794935" lon="115.34000197638876"><ele>215.0</ele><time>2026-04-13T04:08:06Z</time></trkpt><trkpt lat="-29.68629651575681" lon="115.3400038429027"><ele>213.5</ele><time>2026-04-13T04:08:07Z</time></trkpt><trkpt lat="-29.686017306767322" lon="115.34000411595721"><ele>212.0</ele><time>2026-04-13T04:08:08Z</time></trkpt><trkpt lat="-29.685737230184042" lon="115.34000583425033"><ele>212.0</ele><time>2026-04-13T04:08:09Z</time></trkpt><trkpt lat="-29.68545109962944" lon="115.34000626895407"><ele>212.0</ele><time>2026-04-13T04:08:10Z</time></trkpt><trkpt lat="-29.685164121249286" lon="115.34000750305452"><ele>210.5</ele><time>2026-04-13T04:08:11Z</time></trkpt><trkpt lat="-29.684873523101203" lon="115.34000794597323"><ele>209.0</ele><time>2026-04-13T04:08:12Z</time></trkpt><trkpt lat="-29.684582726882407" lon="115.34000774280753"><ele>208.5</ele><time>2026-04-13T04:08:13Z</time></trkpt><trkpt lat="-29.684288100492978" lon="115.34000580579871"><ele>208.0</ele><time>2026-04-13T04:08:14Z</time></trkpt><trkpt lat="-29.683994736566895" lon="115.34000641309335"><ele>208.0</ele><time>2026-04-13T04:08:15Z</time></trkpt><trkpt lat="-29.68369806662493" lon="115.340007318044"><ele>208.0</ele><time>2026-04-13T04:08:16Z</time></trkpt><trkpt lat="-29.683400933093406" lon="115.3400111163"><ele>207.5</ele><time>2026-04-13T04:08:17Z</time></trkpt><trkpt lat="-29.683103621555055" lon="115.34001438436756"><ele>207.0</ele><time>2026-04-13T04:08:18Z</time></trkpt><trkpt lat="-29.68280828150568" lon="115.34001798555404"><ele>206.5</ele><time>2026-04-13T04:08:19Z</time></trkpt><trkpt lat="-29.682514914368653" lon="115.34002072609661"><ele>206.0</ele><time>2026-04-13T04:08:20Z</time></trkpt><trkpt lat="-29.682221271961378" lon="115.34002236604123"><ele>204.0</ele><time>2026-04-13T04:08:21Z</time></trkpt><trkpt lat="-29.681928501487942" lon="115.3400241112158"><ele>202.0</ele><time>2026-04-13T04:08:22Z</time></trkpt><trkpt lat="-29.681633026601165" lon="115.34002280648578"><ele>202.0</ele><time>2026-04-13T04:08:23Z</time></trkpt><trkpt lat="-29.681335573374607" lon="115.34001894948149"><ele>202.0</ele><time>2026-04-13T04:08:24Z</time></trkpt><trkpt lat="-29.681041168725383" lon="115.34001693766929"><ele>202.0</ele><time>2026-04-13T04:08:25.001Z</time></trkpt><trkpt lat="-29.680745271026495" lon="115.34001876580952"><ele>202.0</ele><time>2026-04-13T04:08:26.001Z</time></trkpt><trkpt lat="-29.680447727168854" lon="115.34002140824684"><ele>201.0</ele><time>2026-04-13T04:08:27.001Z</time></trkpt><trkpt lat="-29.680148500463744" lon="115.34002153025654"><ele>200.0</ele><time>2026-04-13T04:08:28.001Z</time></trkpt><trkpt lat="-29.679848013748014" lon="115.34001918167792"><ele>200.0</ele><time>2026-04-13T04:08:29.001Z</time></trkpt><trkpt lat="-29.679549744218107" lon="115.34001942049177"><ele>200.0</ele><time>2026-04-13T04:08:30Z</time></trkpt><trkpt lat="-29.67924993382167" lon="115.34001921727356"><ele>201.5</ele><time>2026-04-13T04:08:31Z</time></trkpt><trkpt lat="-29.67895151323956" lon="115.34002124368945"><ele>203.0</ele><time>2026-04-13T04:08:32Z</time></trkpt><trkpt lat="-29.678651950650945" lon="115.34002062263862"><ele>204.5</ele><time>2026-04-13T04:08:33Z</time></trkpt><trkpt lat="-29.67835404001805" lon="115.34002189525788"><ele>206.0</ele><time>2026-04-13T04:08:34Z</time></trkpt><trkpt lat="-29.67805602057405" lon="115.34002555489135"><ele>208.5</ele><time>2026-04-13T04:08:35Z</time></trkpt><trkpt lat="-29.677758825605327" lon="115.3400287100994"><ele>211.0</ele><time>2026-04-13T04:08:36Z</time></trkpt><trkpt lat="-29.67745640655356" lon="115.34003145021006"><ele>211.0</ele><time>2026-04-13T04:08:37Z</time></trkpt><trkpt lat="-29.677153712627845" lon="115.34003457180732"><ele>211.0</ele><time>2026-04-13T04:08:38Z</time></trkpt><trkpt lat="-29.676848609678068" lon="115.34003612265356"><ele>212.5</ele><time>2026-04-13T04:08:39Z</time></trkpt><trkpt lat="-29.676544137186138" lon="115.340037513754"><ele>214.0</ele><time>2026-04-13T04:08:40Z</time></trkpt><trkpt lat="-29.676236546442137" lon="115.34003875907668"><ele>213.5</ele><time>2026-04-13T04:08:41Z</time></trkpt><trkpt lat="-29.675926836459325" lon="115.3400405055229"><ele>213.0</ele><time>2026-04-13T04:08:42Z</time></trkpt><trkpt lat="-29.67561466430136" lon="115.34003976209527"><ele>213.0</ele><time>2026-04-13T04:08:43Z</time></trkpt><trkpt lat="-29.675302345391778" lon="115.34003697863407"><ele>213.0</ele><time>2026-04-13T04:08:44Z</time></trkpt><trkpt lat="-29.674985681581777" lon="115.3400317476036"><ele>211.5</ele><time>2026-04-13T04:08:45Z</time></trkpt><trkpt lat="-29.67466697701791" lon="115.34002625805924"><ele>210.0</ele><time>2026-04-13T04:08:46Z</time></trkpt><trkpt lat="-29.67434692852798" lon="115.34002120646001"><ele>209.0</ele><time>2026-04-13T04:08:47Z</time></trkpt><trkpt lat="-29.674027290058113" lon="115.3400153256153"><ele>208.0</ele><time>2026-04-13T04:08:48Z</time></trkpt><trkpt lat="-29.673713998566726" lon="115.34001141305998"><ele>206.0</ele><time>2026-04-13T04:08:49Z</time></trkpt><trkpt lat="-29.67339837498197" lon="115.34001001273897"><ele>204.0</ele><time>2026-04-13T04:08:50Z</time></trkpt><trkpt lat="-29.67308779832035" lon="115.34001011522565"><ele>204.0</ele><time>2026-04-13T04:08:51Z</time></trkpt><trkpt lat="-29.672781898813053" lon="115.34001161830822"><ele>204.0</ele><time>2026-04-13T04:08:52Z</time></trkpt><trkpt lat="-29.672474349070594" lon="115.34001237205233"><ele>202.5</ele><time>2026-04-13T04:08:53Z</time></trkpt><trkpt lat="-29.67216895058913" lon="115.34001369842409"><ele>201.0</ele><time>2026-04-13T04:08:54Z</time></trkpt><trkpt lat="-29.671862346760886" lon="115.34001546284422"><ele>200.5</ele><time>2026-04-13T04:08:55Z</time></trkpt><trkpt lat="-29.671558001361667" lon="115.34001838903474"><ele>200.0</ele><time>2026-04-13T04:08:56Z</time></trkpt><trkpt lat="-29.671247728595628" lon="115.34001897804941"><ele>197.5</ele><time>2026-04-13T04:08:57Z</time></trkpt><trkpt lat="-29.670939552490157" lon="115.34001867968502"><ele>195.0</ele><time>2026-04-13T04:08:58Z</time></trkpt><trkpt lat="-29.670627950460915" lon="115.34001795561838"><ele>195.0</ele><time>2026-04-13T04:08:59Z</time></trkpt><trkpt lat="-29.670322385253304" lon="115.34002225224316"><ele>195.0</ele><time>2026-04-13T04:09:00Z</time></trkpt><trkpt lat="-29.67001814077341" lon="115.34002584692675"><ele>193.5</ele><time>2026-04-13T04:09:01Z</time></trkpt><trkpt lat="-29.669715910843042" lon="115.3400285244778"><ele>192.0</ele><time>2026-04-13T04:09:02Z</time></trkpt><trkpt lat="-29.66941066381088" lon="115.34003241508086"><ele>190.5</ele><time>2026-04-13T04:09:03Z</time></trkpt><trkpt lat="-29.669103969546416" lon="115.34001449001427"><ele>189.0</ele><time>2026-04-13T04:09:04Z</time></trkpt><trkpt lat="-29.668788761620938" lon="115.34001532512231"><ele>186.5</ele><time>2026-04-13T04:09:05Z</time></trkpt><trkpt lat="-29.66847401361968" lon="115.34001579000534"><ele>184.0</ele><time>2026-04-13T04:09:06Z</time></trkpt><trkpt lat="-29.668162381893207" lon="115.34001671611009"><ele>184.0</ele><time>2026-04-13T04:09:07Z</time></trkpt><trkpt lat="-29.66785483761189" lon="115.34003599475714"><ele>184.0</ele><time>2026-04-13T04:09:08Z</time></trkpt><trkpt lat="-29.66755159080878" lon="115.3400373552247"><ele>182.0</ele><time>2026-04-13T04:09:09Z</time></trkpt><trkpt lat="-29.66724470606418" lon="115.34001937028458"><ele>180.0</ele><time>2026-04-13T04:09:10Z</time></trkpt><trkpt lat="-29.666934026192585" lon="115.34002118998215"><ele>179.0</ele><time>2026-04-13T04:09:11Z</time></trkpt><trkpt lat="-29.666624472828367" lon="115.34002258364744"><ele>178.0</ele><time>2026-04-13T04:09:12Z</time></trkpt><trkpt lat="-29.66631452372202" lon="115.34002400560048"><ele>175.5</ele><time>2026-04-13T04:09:13Z</time></trkpt><trkpt lat="-29.666007465235925" lon="115.34002605195833"><ele>173.0</ele><time>2026-04-13T04:09:14Z</time></trkpt><trkpt lat="-29.665696057169125" lon="115.34004514279044"><ele>173.0</ele><time>2026-04-13T04:09:15Z</time></trkpt><trkpt lat="-29.665377085693446" lon="115.34004744390838"><ele>173.0</ele><time>2026-04-13T04:09:16Z</time></trkpt><trkpt lat="-29.665058662309807" lon="115.34005185636411"><ele>171.0</ele><time>2026-04-13T04:09:17Z</time></trkpt><trkpt lat="-29.664738212662943" lon="115.34005358121568"><ele>169.0</ele><time>2026-04-13T04:09:18Z</time></trkpt><trkpt lat="-29.66442045792173" lon="115.34005331515503"><ele>168.5</ele><time>2026-04-13T04:09:19Z</time></trkpt><trkpt lat="-29.66410085265205" lon="115.3400521510103"><ele>168.0</ele><time>2026-04-13T04:09:20Z</time></trkpt><trkpt lat="-29.663781757259958" lon="115.34005047914256"><ele>167.5</ele><time>2026-04-13T04:09:21Z</time></trkpt><trkpt lat="-29.663464609109077" lon="115.34005251010367"><ele>167.0</ele><time>2026-04-13T04:09:22Z</time></trkpt><trkpt lat="-29.663147387496856" lon="115.34005322609488"><ele>167.0</ele><time>2026-04-13T04:09:23Z</time></trkpt><trkpt lat="-29.66283211739626" lon="115.34004985609366"><ele>167.0</ele><time>2026-04-13T04:09:24Z</time></trkpt><trkpt lat="-29.662517013132888" lon="115.34004758682535"><ele>166.5</ele><time>2026-04-13T04:09:25Z</time></trkpt><trkpt lat="-29.662205335192745" lon="115.34004738907306"><ele>166.0</ele><time>2026-04-13T04:09:26Z</time></trkpt><trkpt lat="-29.66189510144437" lon="115.3400508522847"><ele>165.0</ele><time>2026-04-13T04:09:27Z</time></trkpt><trkpt lat="-29.66157998552701" lon="115.34005318347668"><ele>164.0</ele><time>2026-04-13T04:09:28Z</time></trkpt><trkpt lat="-29.661263771500387" lon="115.34005363895179"><ele>163.5</ele><time>2026-04-13T04:09:29Z</time></trkpt><trkpt lat="-29.66094633635406" lon="115.34005295002436"><ele>163.0</ele><time>2026-04-13T04:09:30Z</time></trkpt><trkpt lat="-29.66063057658726" lon="115.34004891657582"><ele>163.0</ele><time>2026-04-13T04:09:31Z</time></trkpt><trkpt lat="-29.66031565989814" lon="115.34004615166336"><ele>163.0</ele><time>2026-04-13T04:09:32Z</time></trkpt><trkpt lat="-29.660004951550224" lon="115.3400474653333"><ele>160.5</ele><time>2026-04-13T04:09:33Z</time></trkpt><trkpt lat="-29.659697153687993" lon="115.3400494506322"><ele>158.0</ele><time>2026-04-13T04:09:34Z</time></trkpt><trkpt lat="-29.659389376731422" lon="115.3400545569947"><ele>157.5</ele><time>2026-04-13T04:09:35Z</time></trkpt><trkpt lat="-29.659081086879446" lon="115.3400583276266"><ele>157.0</ele><time>2026-04-13T04:09:36Z</time></trkpt><trkpt lat="-29.658769217437914" lon="115.34005990184552"><ele>156.5</ele><time>2026-04-13T04:09:37Z</time></trkpt><trkpt lat="-29.658460113553936" lon="115.34005882567722"><ele>156.0</ele><time>2026-04-13T04:09:38Z</time></trkpt><trkpt lat="-29.65815282266832" lon="115.34005778430718"><ele>156.0</ele><time>2026-04-13T04:09:39Z</time></trkpt><trkpt lat="-29.657845516086436" lon="115.3400547183301"><ele>156.0</ele><time>2026-04-13T04:09:40Z</time></trkpt><trkpt lat="-29.657539615770528" lon="115.34005423193038"><ele>153.5</ele><time>2026-04-13T04:09:41Z</time></trkpt><trkpt lat="-29.657224607491557" lon="115.34005674865251"><ele>151.0</ele><time>2026-04-13T04:09:42Z</time></trkpt><trkpt lat="-29.65690733950852" lon="115.34005878021539"><ele>149.0</ele><time>2026-04-13T04:09:43Z</time></trkpt><trkpt lat="-29.65659389691812" lon="115.3400586112531"><ele>147.0</ele><time>2026-04-13T04:09:44Z</time></trkpt><trkpt lat="-29.656278404974138" lon="115.34005622268846"><ele>147.5</ele><time>2026-04-13T04:09:45Z</time></trkpt><trkpt lat="-29.65596679116168" lon="115.34005708310768"><ele>148.0</ele><time>2026-04-13T04:09:46Z</time></trkpt><trkpt lat="-29.65565594341693" lon="115.3400574824019"><ele>148.0</ele><time>2026-04-13T04:09:47Z</time></trkpt><trkpt lat="-29.655343508781584" lon="115.34005584492726"><ele>148.0</ele><time>2026-04-13T04:09:48Z</time></trkpt><trkpt lat="-29.655032714185925" lon="115.34005518101867"><ele>147.5</ele><time>2026-04-13T04:09:49Z</time></trkpt><trkpt lat="-29.654727966995" lon="115.3400570998875"><ele>147.0</ele><time>2026-04-13T04:09:50Z</time></trkpt><trkpt lat="-29.65441706670705" lon="115.34005627886998"><ele>145.5</ele><time>2026-04-13T04:09:51Z</time></trkpt><trkpt lat="-29.65409962412345" lon="115.34005618385079"><ele>144.0</ele><time>2026-04-13T04:09:52Z</time></trkpt><trkpt lat="-29.65377459807035" lon="115.34005752116337"><ele>144.5</ele><time>2026-04-13T04:09:53Z</time></trkpt><trkpt lat="-29.65345008227933" lon="115.34006067734961"><ele>145.0</ele><time>2026-04-13T04:09:54Z</time></trkpt><trkpt lat="-29.653131623842903" lon="115.34006562579128"><ele>145.0</ele><time>2026-04-13T04:09:55Z</time></trkpt><trkpt lat="-29.652813015550116" lon="115.34007183641023"><ele>145.0</ele><time>2026-04-13T04:09:56Z</time></trkpt><trkpt lat="-29.652494277036364" lon="115.34007498312596"><ele>146.5</ele><time>2026-04-13T04:09:57Z</time></trkpt><trkpt lat="-29.65217430750855" lon="115.34007262171062"><ele>148.0</ele><time>2026-04-13T04:09:58Z</time></trkpt><trkpt lat="-29.65185745099068" lon="115.34006894035767"><ele>149.0</ele><time>2026-04-13T04:09:59Z</time></trkpt><trkpt lat="-29.65154755566353" lon="115.34006914597522"><ele>150.0</ele><time>2026-04-13T04:10:00Z</time></trkpt><trkpt lat="-29.651237501445824" lon="115.34007027504563"><ele>151.0</ele><time>2026-04-13T04:10:01Z</time></trkpt><trkpt lat="-29.650925734868096" lon="115.3400702205594"><ele>152.0</ele><time>2026-04-13T04:10:02Z</time></trkpt><trkpt lat="-29.650617387161088" lon="115.34006989021671"><ele>152.0</ele><time>2026-04-13T04:10:03Z</time></trkpt><trkpt lat="-29.650313517994597" lon="115.34007025280661"><ele>152.0</ele><time>2026-04-13T04:10:04Z</time></trkpt><trkpt lat="-29.650036512330438" lon="115.34006661040769"><ele>151.0</ele><time>2026-04-13T04:10:05Z</time></trkpt><trkpt lat="-29.649781619118524" lon="115.34006364997055"><ele>150.0</ele><time>2026-04-13T04:10:06Z</time></trkpt><trkpt lat="-29.649536307283075" lon="115.34006503420382"><ele>149.0</ele><time>2026-04-13T04:10:07Z</time></trkpt><trkpt lat="-29.649282418163093" lon="115.34007322128839"><ele>148.0</ele><time>2026-04-13T04:10:08Z</time></trkpt><trkpt lat="-29.649024050926528" lon="115.34007963665525"><ele>148.0</ele><time>2026-04-13T04:10:09Z</time></trkpt><trkpt lat="-29.64876269738722" lon="115.34008118479261"><ele>148.0</ele><time>2026-04-13T04:10:10Z</time></trkpt><trkpt lat="-29.648492859921255" lon="115.34008079802678"><ele>147.0</ele><time>2026-04-13T04:10:11Z</time></trkpt><trkpt lat="-29.648220195162935" lon="115.34008210315085"><ele>146.0</ele><time>2026-04-13T04:10:12Z</time></trkpt><trkpt lat="-29.6479433520152" lon="115.34008506115083"><ele>144.5</ele><time>2026-04-13T04:10:13Z</time></trkpt><trkpt lat="-29.64766596482635" lon="115.34008778025931"><ele>143.0</ele><time>2026-04-13T04:10:14Z</time></trkpt><trkpt lat="-29.647385527634643" lon="115.34008653525628"><ele>143.0</ele><time>2026-04-13T04:10:15Z</time></trkpt><trkpt lat="-29.64711086184432" lon="115.3400811162201"><ele>143.0</ele><time>2026-04-13T04:10:16Z</time></trkpt><trkpt lat="-29.646831948508233" lon="115.34007470395817"><ele>141.5</ele><time>2026-04-13T04:10:17Z</time></trkpt><trkpt lat="-29.64655111377808" lon="115.34007284099329"><ele>140.0</ele><time>2026-04-13T04:10:18Z</time></trkpt><trkpt lat="-29.646270165737615" lon="115.34007358308472"><ele>139.0</ele><time>2026-04-13T04:10:19Z</time></trkpt><trkpt lat="-29.645989466015095" lon="115.34007512873411"><ele>138.0</ele><time>2026-04-13T04:10:20Z</time></trkpt><trkpt lat="-29.64570721363904" lon="115.34007624296102"><ele>138.0</ele><time>2026-04-13T04:10:21Z</time></trkpt><trkpt lat="-29.645421722449566" lon="115.34007966398441"><ele>138.0</ele><time>2026-04-13T04:10:22Z</time></trkpt><trkpt lat="-29.64513304402316" lon="115.34008269414002"><ele>137.5</ele><time>2026-04-13T04:10:23Z</time></trkpt><trkpt lat="-29.6448465136474" lon="115.34008445722219"><ele>137.0</ele><time>2026-04-13T04:10:24Z</time></trkpt><trkpt lat="-29.644564945549646" lon="115.34008655775045"><ele>136.5</ele><time>2026-04-13T04:10:25Z</time></trkpt><trkpt lat="-29.64427636551523" lon="115.34008473101512"><ele>136.0</ele><time>2026-04-13T04:10:26Z</time></trkpt><trkpt lat="-29.643992137346512" lon="115.34008316090772"><ele>136.0</ele><time>2026-04-13T04:10:27Z</time></trkpt><trkpt lat="-29.643711707113937" lon="115.34008181028861"><ele>136.0</ele><time>2026-04-13T04:10:28Z</time></trkpt><trkpt lat="-29.643433158963163" lon="115.34007855324849"><ele>139.0</ele><time>2026-04-13T04:10:29Z</time></trkpt><trkpt lat="-29.643157963356053" lon="115.34007884957816"><ele>142.0</ele><time>2026-04-13T04:10:30Z</time></trkpt><trkpt lat="-29.642879746893744" lon="115.34007789185598"><ele>145.0</ele><time>2026-04-13T04:10:31Z</time></trkpt><trkpt lat="-29.642601331516484" lon="115.34007589956045"><ele>148.0</ele><time>2026-04-13T04:10:32Z</time></trkpt><trkpt lat="-29.6423238661196" lon="115.34007599510764"><ele>148.0</ele><time>2026-04-13T04:10:33Z</time></trkpt><trkpt lat="-29.642049373323456" lon="115.34007725740682"><ele>148.0</ele><time>2026-04-13T04:10:34Z</time></trkpt><trkpt lat="-29.641771345009307" lon="115.34007847523958"><ele>150.0</ele><time>2026-04-13T04:10:35Z</time></trkpt><trkpt lat="-29.641490733713734" lon="115.34008055984725"><ele>152.0</ele><time>2026-04-13T04:10:36Z</time></trkpt><trkpt lat="-29.641205797631176" lon="115.34008061442425"><ele>154.0</ele><time>2026-04-13T04:10:37Z</time></trkpt><trkpt lat="-29.640924470723387" lon="115.34008216116524"><ele>156.0</ele><time>2026-04-13T04:10:38Z</time></trkpt><trkpt lat="-29.640645799070754" lon="115.34008444690485"><ele>156.0</ele><time>2026-04-13T04:10:39Z</time></trkpt><trkpt lat="-29.64036639832132" lon="115.34008474895111"><ele>156.0</ele><time>2026-04-13T04:10:40Z</time></trkpt><trkpt lat="-29.640087752949167" lon="115.34008277221888"><ele>159.5</ele><time>2026-04-13T04:10:41Z</time></trkpt><trkpt lat="-29.639808776239725" lon="115.3400821549301"><ele>163.0</ele><time>2026-04-13T04:10:42Z</time></trkpt><trkpt lat="-29.639531875787288" lon="115.34007983758514"><ele>164.0</ele><time>2026-04-13T04:10:43Z</time></trkpt><trkpt lat="-29.639255335251715" lon="115.34008150189972"><ele>165.0</ele><time>2026-04-13T04:10:44Z</time></trkpt><trkpt lat="-29.638986992190347" lon="115.34008357222305"><ele>165.0</ele><time>2026-04-13T04:10:45Z</time></trkpt><trkpt lat="-29.638714947983985" lon="115.34008891621012"><ele>165.0</ele><time>2026-04-13T04:10:46Z</time></trkpt><trkpt lat="-29.638439885160633" lon="115.3400947599445"><ele>166.5</ele><time>2026-04-13T04:10:47Z</time></trkpt><trkpt lat="-29.6381623248469" lon="115.34007619540273"><ele>168.0</ele><time>2026-04-13T04:10:48Z</time></trkpt><trkpt lat="-29.637883120174937" lon="115.34007619540479"><ele>168.0</ele><time>2026-04-13T04:10:49Z</time></trkpt><trkpt lat="-29.6376014459361" lon="115.3400937770286"><ele>168.0</ele><time>2026-04-13T04:10:50Z</time></trkpt><trkpt lat="-29.637320093427054" lon="115.34009374139708"><ele>168.0</ele><time>2026-04-13T04:10:51Z</time></trkpt><trkpt lat="-29.63704072498804" lon="115.3400941444477"><ele>168.0</ele><time>2026-04-13T04:10:52Z</time></trkpt><trkpt lat="-29.63675897241806" lon="115.34009283593291"><ele>170.0</ele><time>2026-04-13T04:10:53Z</time></trkpt><trkpt lat="-29.636476100126078" lon="115.34009015122919"><ele>172.0</ele><time>2026-04-13T04:10:54Z</time></trkpt><trkpt lat="-29.636189440819003" lon="115.34008734041514"><ele>174.5</ele><time>2026-04-13T04:10:55Z</time></trkpt><trkpt lat="-29.63590306025023" lon="115.34008735842275"><ele>177.0</ele><time>2026-04-13T04:10:56Z</time></trkpt><trkpt lat="-29.635614738784763" lon="115.34008769661462"><ele>177.0</ele><time>2026-04-13T04:10:57Z</time></trkpt><trkpt lat="-29.63532576844458" lon="115.34009122652695"><ele>177.0</ele><time>2026-04-13T04:10:58Z</time></trkpt><trkpt lat="-29.635035150854726" lon="115.34009522053444"><ele>177.5</ele><time>2026-04-13T04:10:59Z</time></trkpt><trkpt lat="-29.63474536051738" lon="115.34009620286385"><ele>178.0</ele><time>2026-04-13T04:11:00Z</time></trkpt><trkpt lat="-29.634455308127094" lon="115.34009388075603"><ele>180.0</ele><time>2026-04-13T04:11:01Z</time></trkpt><trkpt lat="-29.63416356366187" lon="115.34009303629104"><ele>182.0</ele><time>2026-04-13T04:11:02Z</time></trkpt><trkpt lat="-29.633869925042106" lon="115.34009454036786"><ele>182.0</ele><time>2026-04-13T04:11:03Z</time></trkpt><trkpt lat="-29.633572889563307" lon="115.34009619238142"><ele>182.0</ele><time>2026-04-13T04:11:04Z</time></trkpt><trkpt lat="-29.63327717294817" lon="115.34010000850672"><ele>182.0</ele><time>2026-04-13T04:11:05Z</time></trkpt><trkpt lat="-29.6329767895991" lon="115.34010282697571"><ele>182.0</ele><time>2026-04-13T04:11:06Z</time></trkpt><trkpt lat="-29.63267909490398" lon="115.34010506217423"><ele>183.0</ele><time>2026-04-13T04:11:07Z</time></trkpt><trkpt lat="-29.632382083509935" lon="115.34010456811984"><ele>184.0</ele><time>2026-04-13T04:11:08Z</time></trkpt><trkpt lat="-29.63208180980896" lon="115.34010115486039"><ele>186.5</ele><time>2026-04-13T04:11:09Z</time></trkpt><trkpt lat="-29.63177852252786" lon="115.34009860447104"><ele>189.0</ele><time>2026-04-13T04:11:10Z</time></trkpt><trkpt lat="-29.63147166104171" lon="115.3400960003036"><ele>189.0</ele><time>2026-04-13T04:11:11Z</time></trkpt><trkpt lat="-29.6311631091074" lon="115.34009487759498"><ele>189.0</ele><time>2026-04-13T04:11:12Z</time></trkpt><trkpt lat="-29.630856040181285" lon="115.34009672290422"><ele>190.0</ele><time>2026-04-13T04:11:13Z</time></trkpt><trkpt lat="-29.630552007200926" lon="115.34009903004758"><ele>191.0</ele><time>2026-04-13T04:11:14Z</time></trkpt><trkpt lat="-29.630249921244" lon="115.34010238029312"><ele>191.0</ele><time>2026-04-13T04:11:15Z</time></trkpt><trkpt lat="-29.629949567400374" lon="115.34010275719226"><ele>191.0</ele><time>2026-04-13T04:11:16Z</time></trkpt><trkpt lat="-29.629648809276002" lon="115.34010354589516"><ele>190.5</ele><time>2026-04-13T04:11:17Z</time></trkpt><trkpt lat="-29.62934902478423" lon="115.34010457710411"><ele>190.0</ele><time>2026-04-13T04:11:18Z</time></trkpt><trkpt lat="-29.62904852060278" lon="115.34010334002137"><ele>190.0</ele><time>2026-04-13T04:11:19Z</time></trkpt><trkpt lat="-29.6287493878105" lon="115.34010125924843"><ele>190.0</ele><time>2026-04-13T04:11:20Z</time></trkpt><trkpt lat="-29.628452038693986" lon="115.34009989892165"><ele>188.0</ele><time>2026-04-13T04:11:21Z</time></trkpt><trkpt lat="-29.628161693548872" lon="115.34010072955458"><ele>186.0</ele><time>2026-04-13T04:11:22Z</time></trkpt><trkpt lat="-29.627872606597155" lon="115.34009992720387"><ele>187.0</ele><time>2026-04-13T04:11:23Z</time></trkpt><trkpt lat="-29.62758515666604" lon="115.34009775595001"><ele>188.0</ele><time>2026-04-13T04:11:24Z</time></trkpt><trkpt lat="-29.62729827495131" lon="115.34009721915439"><ele>188.0</ele><time>2026-04-13T04:11:25Z</time></trkpt><trkpt lat="-29.627007722490813" lon="115.34009855487011"><ele>188.0</ele><time>2026-04-13T04:11:26Z</time></trkpt><trkpt lat="-29.626718560426006" lon="115.3401008177984"><ele>187.5</ele><time>2026-04-13T04:11:27Z</time></trkpt><trkpt lat="-29.626429830926376" lon="115.34010302042445"><ele>187.0</ele><time>2026-04-13T04:11:28Z</time></trkpt><trkpt lat="-29.62614010711648" lon="115.34010404099618"><ele>185.5</ele><time>2026-04-13T04:11:29Z</time></trkpt><trkpt lat="-29.62584893410599" lon="115.34010341065346"><ele>184.0</ele><time>2026-04-13T04:11:30Z</time></trkpt><trkpt lat="-29.62556199455625" lon="115.3401038715119"><ele>186.0</ele><time>2026-04-13T04:11:31Z</time></trkpt><trkpt lat="-29.625280704853328" lon="115.340101992334"><ele>188.0</ele><time>2026-04-13T04:11:32Z</time></trkpt><trkpt lat="-29.62500699818417" lon="115.34010453684103"><ele>188.0</ele><time>2026-04-13T04:11:33Z</time></trkpt><trkpt lat="-29.62473485219749" lon="115.34010777651817"><ele>188.0</ele><time>2026-04-13T04:11:34Z</time></trkpt><trkpt lat="-29.624458976373827" lon="115.34011061736757"><ele>187.5</ele><time>2026-04-13T04:11:35Z</time></trkpt><trkpt lat="-29.624183402744144" lon="115.34011252723123"><ele>187.0</ele><time>2026-04-13T04:11:36Z</time></trkpt><trkpt lat="-29.623911125611208" lon="115.34011422365255"><ele>187.0</ele><time>2026-04-13T04:11:37Z</time></trkpt><trkpt lat="-29.623639032774" lon="115.34011176932515"><ele>187.0</ele><time>2026-04-13T04:11:38Z</time></trkpt><trkpt lat="-29.623362314453146" lon="115.34011145865288"><ele>187.0</ele><time>2026-04-13T04:11:39Z</time></trkpt><trkpt lat="-29.623074910449432" lon="115.34011174598157"><ele>187.0</ele><time>2026-04-13T04:11:40Z</time></trkpt><trkpt lat="-29.622780183162337" lon="115.34011150490976"><ele>186.5</ele><time>2026-04-13T04:11:41Z</time></trkpt><trkpt lat="-29.622481859042423" lon="115.34011295121007"><ele>186.0</ele><time>2026-04-13T04:11:42Z</time></trkpt><trkpt lat="-29.622181386944227" lon="115.3401137183091"><ele>186.5</ele><time>2026-04-13T04:11:43Z</time></trkpt><trkpt lat="-29.621883002291593" lon="115.34011477218068"><ele>187.0</ele><time>2026-04-13T04:11:44Z</time></trkpt><trkpt lat="-29.621585241476247" lon="115.34011589476515"><ele>187.0</ele><time>2026-04-13T04:11:45Z</time></trkpt><trkpt lat="-29.621291027807956" lon="115.34011239655378"><ele>187.0</ele><time>2026-04-13T04:11:46Z</time></trkpt><trkpt lat="-29.620997120674375" lon="115.34011924444073"><ele>187.5</ele><time>2026-04-13T04:11:47Z</time></trkpt><trkpt lat="-29.62070225152545" lon="115.3401204619263"><ele>188.0</ele><time>2026-04-13T04:11:48Z</time></trkpt><trkpt lat="-29.62041030309677" lon="115.34012376041541"><ele>186.5</ele><time>2026-04-13T04:11:49Z</time></trkpt><trkpt lat="-29.620116745432572" lon="115.34012579459495"><ele>185.0</ele><time>2026-04-13T04:11:50Z</time></trkpt><trkpt lat="-29.619824658181077" lon="115.34012220564975"><ele>185.0</ele><time>2026-04-13T04:11:51Z</time></trkpt><trkpt lat="-29.61953436005113" lon="115.34011844839138"><ele>185.0</ele><time>2026-04-13T04:11:52Z</time></trkpt><trkpt lat="-29.619245230311364" lon="115.34012075867129"><ele>186.0</ele><time>2026-04-13T04:11:53Z</time></trkpt><trkpt lat="-29.61895903862334" lon="115.34012411841536"><ele>187.0</ele><time>2026-04-13T04:11:54Z</time></trkpt><trkpt lat="-29.61867121782102" lon="115.3401261187836"><ele>188.5</ele><time>2026-04-13T04:11:55Z</time></trkpt><trkpt lat="-29.618389722832227" lon="115.34012946163185"><ele>190.0</ele><time>2026-04-13T04:11:56Z</time></trkpt><trkpt lat="-29.618105167204313" lon="115.34013217343959"><ele>190.0</ele><time>2026-04-13T04:11:57Z</time></trkpt><trkpt lat="-29.61781801426702" lon="115.34012926711691"><ele>190.0</ele><time>2026-04-13T04:11:58Z</time></trkpt><trkpt lat="-29.61753539083331" lon="115.34012560335418"><ele>190.0</ele><time>2026-04-13T04:11:59Z</time></trkpt><trkpt lat="-29.617266492085317" lon="115.3401222919094"><ele>190.0</ele><time>2026-04-13T04:12:00Z</time></trkpt><trkpt lat="-29.61701743951469" lon="115.34012020037063"><ele>191.5</ele><time>2026-04-13T04:12:01Z</time></trkpt><trkpt lat="-29.61677445146605" lon="115.34011549214706"><ele>193.0</ele><time>2026-04-13T04:12:02Z</time></trkpt><trkpt lat="-29.61653441657101" lon="115.34011379531711"><ele>193.0</ele><time>2026-04-13T04:12:03Z</time></trkpt><trkpt lat="-29.616288173781502" lon="115.3401164903124"><ele>193.0</ele><time>2026-04-13T04:12:04Z</time></trkpt><trkpt lat="-29.61604107743914" lon="115.34011833230026"><ele>193.33333333333331</ele><time>2026-04-13T04:12:05Z</time></trkpt><trkpt lat="-29.615816410972222" lon="115.34011835965202"><ele>193.66666666666669</ele><time>2026-04-13T04:12:06Z</time></trkpt><trkpt lat="-29.615605768310715" lon="115.34011908884762"><ele>194.0</ele><time>2026-04-13T04:12:07Z</time></trkpt><trkpt lat="-29.615408204863993" lon="115.34011788935165"><ele>194.33333333333334</ele><time>2026-04-13T04:12:08Z</time></trkpt><trkpt lat="-29.61522129350942" lon="115.340115751863"><ele>194.66666666666669</ele><time>2026-04-13T04:12:09Z</time></trkpt><trkpt lat="-29.61504576092284" lon="115.34011353169082"><ele>195.0</ele><time>2026-04-13T04:12:10Z</time></trkpt><trkpt lat="-29.614892920778157" lon="115.34011166926095"><ele>195.0</ele><time>2026-04-13T04:12:11Z</time></trkpt><trkpt lat="-29.61476511177982" lon="115.34010524004631"><ele>195.0</ele><time>2026-04-13T04:12:12Z</time></trkpt><trkpt lat="-29.61467640884406" lon="115.34009207062321"><ele>195.0</ele><time>2026-04-13T04:12:13Z</time></trkpt><trkpt lat="-29.6146008805996" lon="115.34005302234027"><ele>195.0</ele><time>2026-04-13T04:12:15Z</time></trkpt><trkpt lat="-29.614574088260223" lon="115.33992096605124"><ele>195.0</ele><time>2026-04-13T04:12:17Z</time></trkpt><trkpt lat="-29.614574416393147" lon="115.33980138358719"><ele>194.25</ele><time>2026-04-13T04:12:18Z</time></trkpt><trkpt lat="-29.614575859708506" lon="115.33966485539311"><ele>193.5</ele><time>2026-04-13T04:12:19Z</time></trkpt><trkpt lat="-29.614581448513864" lon="115.33951540469222"><ele>192.75</ele><time>2026-04-13T04:12:20Z</time></trkpt><trkpt lat="-29.614591443842443" lon="115.33934040670701"><ele>192.0</ele><time>2026-04-13T04:12:21Z</time></trkpt><trkpt lat="-29.614599670592387" lon="115.33914956492673"><ele>192.0</ele><time>2026-04-13T04:12:22Z</time></trkpt><trkpt lat="-29.614607742246665" lon="115.33894296162119"><ele>192.0</ele><time>2026-04-13T04:12:23Z</time></trkpt><trkpt lat="-29.614609072907236" lon="115.33872611030026"><ele>192.0</ele><time>2026-04-13T04:12:24Z</time></trkpt><trkpt lat="-29.61460512079277" lon="115.33850696902387"><ele>191.33333333333334</ele><time>2026-04-13T04:12:25Z</time></trkpt><trkpt lat="-29.614602140650234" lon="115.3382878431784"><ele>190.66666666666669</ele><time>2026-04-13T04:12:26Z</time></trkpt><trkpt lat="-29.614603322608303" lon="115.33806985684436"><ele>190.0</ele><time>2026-04-13T04:12:27Z</time></trkpt><trkpt lat="-29.614609999293254" lon="115.3378554338801"><ele>189.33333333333334</ele><time>2026-04-13T04:12:28Z</time></trkpt><trkpt lat="-29.614617900263777" lon="115.3376449279926"><ele>188.66666666666666</ele><time>2026-04-13T04:12:29Z</time></trkpt><trkpt lat="-29.614623112370715" lon="115.33742727710599"><ele>188.0</ele><time>2026-04-13T04:12:30Z</time></trkpt><trkpt lat="-29.614627264068368" lon="115.33720094659996"><ele>187.33333333333331</ele><time>2026-04-13T04:12:31Z</time></trkpt><trkpt lat="-29.614626898154235" lon="115.33697289962576"><ele>186.66666666666666</ele><time>2026-04-13T04:12:32Z</time></trkpt><trkpt lat="-29.614621941536242" lon="115.3367525343206"><ele>186.0</ele><time>2026-04-13T04:12:33Z</time></trkpt><trkpt lat="-29.614616422611178" lon="115.33652881174245"><ele>185.0</ele><time>2026-04-13T04:12:34Z</time></trkpt><trkpt lat="-29.614611727881005" lon="115.33630964628053"><ele>184.0</ele><time>2026-04-13T04:12:35Z</time></trkpt><trkpt lat="-29.614609763019658" lon="115.33609645629029"><ele>183.0</ele><time>2026-04-13T04:12:36Z</time></trkpt><trkpt lat="-29.614610907764998" lon="115.33588938639662"><ele>183.0</ele><time>2026-04-13T04:12:37Z</time></trkpt><trkpt lat="-29.61461350787148" lon="115.3356768904533"><ele>183.0</ele><time>2026-04-13T04:12:38Z</time></trkpt><trkpt lat="-29.614621464894736" lon="115.33544257150656"><ele>183.0</ele><time>2026-04-13T04:12:39Z</time></trkpt><trkpt lat="-29.614638457397987" lon="115.33518803149295"><ele>180.0</ele><time>2026-04-13T04:12:40Z</time></trkpt><trkpt lat="-29.61466690403063" lon="115.3349169870009"><ele>177.0</ele><time>2026-04-13T04:12:41Z</time></trkpt><trkpt lat="-29.614706864527474" lon="115.33463706819379"><ele>176.0</ele><time>2026-04-13T04:12:42Z</time></trkpt><trkpt lat="-29.61475723261258" lon="115.33435065751384"><ele>175.0</ele><time>2026-04-13T04:12:43Z</time></trkpt><trkpt lat="-29.614812441633628" lon="115.334057419548"><ele>172.5</ele><time>2026-04-13T04:12:44Z</time></trkpt><trkpt lat="-29.61486553753996" lon="115.3337683563919"><ele>170.0</ele><time>2026-04-13T04:12:45Z</time></trkpt><trkpt lat="-29.61491688105418" lon="115.33348452114585"><ele>170.0</ele><time>2026-04-13T04:12:46Z</time></trkpt><trkpt lat="-29.6149700487832" lon="115.33319854387666"><ele>170.0</ele><time>2026-04-13T04:12:47Z</time></trkpt><trkpt lat="-29.61502606993154" lon="115.33290942264476"><ele>168.5</ele><time>2026-04-13T04:12:48Z</time></trkpt><trkpt lat="-29.61508158515478" lon="115.33262161518485"><ele>167.0</ele><time>2026-04-13T04:12:49Z</time></trkpt><trkpt lat="-29.615135141193118" lon="115.33233371387529"><ele>166.0</ele><time>2026-04-13T04:12:50Z</time></trkpt><trkpt lat="-29.615185132431634" lon="115.33204724146714"><ele>165.0</ele><time>2026-04-13T04:12:51Z</time></trkpt><trkpt lat="-29.615235911701383" lon="115.33175999331996"><ele>165.0</ele><time>2026-04-13T04:12:52Z</time></trkpt><trkpt lat="-29.61528777442696" lon="115.33147436538022"><ele>165.0</ele><time>2026-04-13T04:12:53Z</time></trkpt><trkpt lat="-29.61533900163697" lon="115.33119225182533"><ele>163.5</ele><time>2026-04-13T04:12:54Z</time></trkpt><trkpt lat="-29.615389883517146" lon="115.33090735524983"><ele>162.0</ele><time>2026-04-13T04:12:55Z</time></trkpt><trkpt lat="-29.615463055005357" lon="115.33062099701895"><ele>161.5</ele><time>2026-04-13T04:12:56Z</time></trkpt><trkpt lat="-29.615516592960546" lon="115.3303253235847"><ele>161.0</ele><time>2026-04-13T04:12:57Z</time></trkpt><trkpt lat="-29.61557086503358" lon="115.33002361472307"><ele>161.0</ele><time>2026-04-13T04:12:58Z</time></trkpt><trkpt lat="-29.61562363978992" lon="115.32972685167567"><ele>161.0</ele><time>2026-04-13T04:12:59Z</time></trkpt><trkpt lat="-29.615676341467783" lon="115.32942803364651"><ele>159.5</ele><time>2026-04-13T04:13:00Z</time></trkpt><trkpt lat="-29.61572893348016" lon="115.32912981526879"><ele>158.0</ele><time>2026-04-13T04:13:01Z</time></trkpt><trkpt lat="-29.615783331281424" lon="115.3288211988419"><ele>156.5</ele><time>2026-04-13T04:13:02Z</time></trkpt><trkpt lat="-29.615837897502082" lon="115.32851245797686"><ele>155.0</ele><time>2026-04-13T04:13:03Z</time></trkpt><trkpt lat="-29.615892786209" lon="115.32820255016506"><ele>153.5</ele><time>2026-04-13T04:13:04Z</time></trkpt><trkpt lat="-29.615948034665937" lon="115.32788789024413"><ele>152.0</ele><time>2026-04-13T04:13:05Z</time></trkpt><trkpt lat="-29.61600442740281" lon="115.32757313543904"><ele>152.0</ele><time>2026-04-13T04:13:06Z</time></trkpt><trkpt lat="-29.61606018420948" lon="115.32725652240927"><ele>152.0</ele><time>2026-04-13T04:13:07Z</time></trkpt><trkpt lat="-29.61611708253861" lon="115.32693743947682"><ele>151.0</ele><time>2026-04-13T04:13:08Z</time></trkpt><trkpt lat="-29.61617433318123" lon="115.32661670338383"><ele>150.0</ele><time>2026-04-13T04:13:09Z</time></trkpt><trkpt lat="-29.61623187610353" lon="115.3262943298291"><ele>148.0</ele><time>2026-04-13T04:13:10Z</time></trkpt><trkpt lat="-29.616289549883103" lon="115.32596966523808"><ele>146.0</ele><time>2026-04-13T04:13:11Z</time></trkpt><trkpt lat="-29.616347782089903" lon="115.32564159895169"><ele>145.5</ele><time>2026-04-13T04:13:12Z</time></trkpt><trkpt lat="-29.616406405056075" lon="115.32531188247856"><ele>145.0</ele><time>2026-04-13T04:13:13Z</time></trkpt><trkpt lat="-29.616465430277835" lon="115.32497954407815"><ele>144.0</ele><time>2026-04-13T04:13:14Z</time></trkpt><trkpt lat="-29.61652360421511" lon="115.3246510102221"><ele>143.0</ele><time>2026-04-13T04:13:15Z</time></trkpt><trkpt lat="-29.616580246809708" lon="115.32433112454963"><ele>143.0</ele><time>2026-04-13T04:13:16Z</time></trkpt><trkpt lat="-29.61663687624882" lon="115.324010407976"><ele>143.0</ele><time>2026-04-13T04:13:17Z</time></trkpt><trkpt lat="-29.616693536977117" lon="115.32369299980856"><ele>143.0</ele><time>2026-04-13T04:13:18Z</time></trkpt><trkpt lat="-29.61675175851927" lon="115.32337513618849"><ele>143.0</ele><time>2026-04-13T04:13:19Z</time></trkpt><trkpt lat="-29.616799639347448" lon="115.32306026428527"><ele>143.0</ele><time>2026-04-13T04:13:20Z</time></trkpt><trkpt lat="-29.616866820506043" lon="115.32274268475348"><ele>143.0</ele><time>2026-04-13T04:13:21Z</time></trkpt><trkpt lat="-29.616929383810202" lon="115.32242793153387"><ele>144.0</ele><time>2026-04-13T04:13:22Z</time></trkpt><trkpt lat="-29.616988426778946" lon="115.3221106280894"><ele>145.0</ele><time>2026-04-13T04:13:23Z</time></trkpt><trkpt lat="-29.6170474379082" lon="115.32178740807"><ele>145.0</ele><time>2026-04-13T04:13:24Z</time></trkpt><trkpt lat="-29.617102763217613" lon="115.32146551451858"><ele>145.0</ele><time>2026-04-13T04:13:25Z</time></trkpt><trkpt lat="-29.61715909836065" lon="115.32114163658085"><ele>144.0</ele><time>2026-04-13T04:13:26Z</time></trkpt><trkpt lat="-29.617216276373508" lon="115.32081729250622"><ele>143.0</ele><time>2026-04-13T04:13:27Z</time></trkpt><trkpt lat="-29.617275656504358" lon="115.32049547038254"><ele>142.0</ele><time>2026-04-13T04:13:28Z</time></trkpt><trkpt lat="-29.61733299448148" lon="115.32017421801397"><ele>141.0</ele><time>2026-04-13T04:13:29Z</time></trkpt><trkpt lat="-29.617389831871815" lon="115.31985291796843"><ele>139.5</ele><time>2026-04-13T04:13:30Z</time></trkpt><trkpt lat="-29.617444511439373" lon="115.31953221592985"><ele>138.0</ele><time>2026-04-13T04:13:31Z</time></trkpt><trkpt lat="-29.617499476065092" lon="115.3192092929491"><ele>136.5</ele><time>2026-04-13T04:13:32Z</time></trkpt><trkpt lat="-29.61755629126165" lon="115.31888592586262"><ele>135.0</ele><time>2026-04-13T04:13:33Z</time></trkpt><trkpt lat="-29.61761245219135" lon="115.31856264729039"><ele>135.0</ele><time>2026-04-13T04:13:34Z</time></trkpt><trkpt lat="-29.617665675352995" lon="115.31823764829765"><ele>135.0</ele><time>2026-04-13T04:13:35Z</time></trkpt><trkpt lat="-29.617718946179394" lon="115.31791128632646"><ele>135.0</ele><time>2026-04-13T04:13:36Z</time></trkpt><trkpt lat="-29.6177740628473" lon="115.31758476516352"><ele>135.0</ele><time>2026-04-13T04:13:37Z</time></trkpt><trkpt lat="-29.617832158508254" lon="115.31725784442892"><ele>135.0</ele><time>2026-04-13T04:13:38Z</time></trkpt><trkpt lat="-29.61788852081547" lon="115.3169336487737"><ele>135.0</ele><time>2026-04-13T04:13:39Z</time></trkpt><trkpt lat="-29.61794590890002" lon="115.31661135701513"><ele>132.5</ele><time>2026-04-13T04:13:40Z</time></trkpt><trkpt lat="-29.61800083094802" lon="115.3162870762979"><ele>130.0</ele><time>2026-04-13T04:13:41Z</time></trkpt><trkpt lat="-29.618056756830054" lon="115.3159601064854"><ele>130.0</ele><time>2026-04-13T04:13:42Z</time></trkpt><trkpt lat="-29.61811332454518" lon="115.31563060509643"><ele>130.0</ele><time>2026-04-13T04:13:43Z</time></trkpt><trkpt lat="-29.61817149534398" lon="115.31529644802357"><ele>129.0</ele><time>2026-04-13T04:13:44Z</time></trkpt><trkpt lat="-29.618231269482354" lon="115.31496581602822"><ele>128.0</ele><time>2026-04-13T04:13:45Z</time></trkpt><trkpt lat="-29.618291325813676" lon="115.3146336301959"><ele>127.5</ele><time>2026-04-13T04:13:46Z</time></trkpt><trkpt lat="-29.618353104043873" lon="115.31430091063274"><ele>127.0</ele><time>2026-04-13T04:13:47Z</time></trkpt><trkpt lat="-29.6184144582816" lon="115.31396614097056"><ele>126.5</ele><time>2026-04-13T04:13:48Z</time></trkpt><trkpt lat="-29.6184744902762" lon="115.31363428117179"><ele>126.0</ele><time>2026-04-13T04:13:49Z</time></trkpt><trkpt lat="-29.61853406216766" lon="115.31330098316985"><ele>125.0</ele><time>2026-04-13T04:13:50Z</time></trkpt><trkpt lat="-29.618591415182298" lon="115.31296895153854"><ele>124.0</ele><time>2026-04-13T04:13:51Z</time></trkpt><trkpt lat="-29.618650271180144" lon="115.31263475865457"><ele>124.5</ele><time>2026-04-13T04:13:52Z</time></trkpt><trkpt lat="-29.618711399170415" lon="115.31230198884948"><ele>125.0</ele><time>2026-04-13T04:13:53Z</time></trkpt><trkpt lat="-29.618772420840266" lon="115.31196770008222"><ele>123.5</ele><time>2026-04-13T04:13:54Z</time></trkpt><trkpt lat="-29.618847861434187" lon="115.31164121259141"><ele>122.0</ele><time>2026-04-13T04:13:55Z</time></trkpt><trkpt lat="-29.61888714794423" lon="115.3113006738508"><ele>119.5</ele><time>2026-04-13T04:13:56Z</time></trkpt><trkpt lat="-29.61894914065904" lon="115.31096043608832"><ele>117.0</ele><time>2026-04-13T04:13:57Z</time></trkpt><trkpt lat="-29.61901148478736" lon="115.3106186614092"><ele>115.0</ele><time>2026-04-13T04:13:58Z</time></trkpt><trkpt lat="-29.61907258612645" lon="115.3102754648102"><ele>113.0</ele><time>2026-04-13T04:13:59Z</time></trkpt><trkpt lat="-29.61913212970998" lon="115.30993154841995"><ele>112.5</ele><time>2026-04-13T04:14:00Z</time></trkpt><trkpt lat="-29.619188970299945" lon="115.30959368397022"><ele>112.0</ele><time>2026-04-13T04:14:01Z</time></trkpt><trkpt lat="-29.619245158784963" lon="115.3092669163895"><ele>112.0</ele><time>2026-04-13T04:14:02Z</time></trkpt><trkpt lat="-29.61930043500524" lon="115.30895895314451"><ele>112.0</ele><time>2026-04-13T04:14:03Z</time></trkpt><trkpt lat="-29.61935465368689" lon="115.30866087274332"><ele>111.5</ele><time>2026-04-13T04:14:04Z</time></trkpt><trkpt lat="-29.619412267806705" lon="115.30837998360181"><ele>111.0</ele><time>2026-04-13T04:14:05Z</time></trkpt><trkpt lat="-29.61948042787948" lon="115.30810615449849"><ele>110.0</ele><time>2026-04-13T04:14:06Z</time></trkpt><trkpt lat="-29.619565044049434" lon="115.30783381144111"><ele>109.0</ele><time>2026-04-13T04:14:07Z</time></trkpt><trkpt lat="-29.619668516150337" lon="115.30757574731281"><ele>109.0</ele><time>2026-04-13T04:14:08Z</time></trkpt><trkpt lat="-29.619797914958475" lon="115.30732954062789"><ele>109.0</ele><time>2026-04-13T04:14:09Z</time></trkpt><trkpt lat="-29.619952638037823" lon="115.3070993340485"><ele>108.5</ele><time>2026-04-13T04:14:10Z</time></trkpt><trkpt lat="-29.62012887398704" lon="115.30687962189086"><ele>108.0</ele><time>2026-04-13T04:14:11Z</time></trkpt><trkpt lat="-29.620323917354582" lon="115.30666746059369"><ele>108.0</ele><time>2026-04-13T04:14:12Z</time></trkpt><trkpt lat="-29.620523585995294" lon="115.30645806478567"><ele>108.0</ele><time>2026-04-13T04:14:13Z</time></trkpt><trkpt lat="-29.620723304949347" lon="115.30624836337435"><ele>108.0</ele><time>2026-04-13T04:14:14Z</time></trkpt><trkpt lat="-29.62091856968367" lon="115.3060313914875"><ele>108.0</ele><time>2026-04-13T04:14:15Z</time></trkpt><trkpt lat="-29.62111046431684" lon="115.30580256652404"><ele>109.0</ele><time>2026-04-13T04:14:16Z</time></trkpt><trkpt lat="-29.621306732629634" lon="115.30557423461157"><ele>110.0</ele><time>2026-04-13T04:14:17Z</time></trkpt><trkpt lat="-29.621508038744967" lon="115.30534567943245"><ele>110.0</ele><time>2026-04-13T04:14:18Z</time></trkpt><trkpt lat="-29.621714773824387" lon="115.3051154527771"><ele>110.0</ele><time>2026-04-13T04:14:19Z</time></trkpt><trkpt lat="-29.621924553117946" lon="115.30488197955327"><ele>109.0</ele><time>2026-04-13T04:14:20Z</time></trkpt><trkpt lat="-29.62213601889011" lon="115.30464345817141"><ele>108.0</ele><time>2026-04-13T04:14:21Z</time></trkpt><trkpt lat="-29.622349544968984" lon="115.30440567407548"><ele>108.0</ele><time>2026-04-13T04:14:22Z</time></trkpt><trkpt lat="-29.622565190927975" lon="115.30416432233686"><ele>108.0</ele><time>2026-04-13T04:14:23Z</time></trkpt><trkpt lat="-29.622783468180348" lon="115.30392077422134"><ele>108.5</ele><time>2026-04-13T04:14:24Z</time></trkpt><trkpt lat="-29.622999135680914" lon="115.30367543337697"><ele>109.0</ele><time>2026-04-13T04:14:25Z</time></trkpt><trkpt lat="-29.623217673457837" lon="115.3034239310427"><ele>109.0</ele><time>2026-04-13T04:14:26Z</time></trkpt><trkpt lat="-29.623440548686645" lon="115.30317240196572"><ele>109.0</ele><time>2026-04-13T04:14:27Z</time></trkpt><trkpt lat="-29.623662292862864" lon="115.30292479849554"><ele>107.0</ele><time>2026-04-13T04:14:28Z</time></trkpt><trkpt lat="-29.62388229247944" lon="115.30267779347247"><ele>105.0</ele><time>2026-04-13T04:14:29Z</time></trkpt><trkpt lat="-29.624102803950848" lon="115.30243316883528"><ele>105.0</ele><time>2026-04-13T04:14:30Z</time></trkpt><trkpt lat="-29.624322030593483" lon="115.30218879645489"><ele>105.0</ele><time>2026-04-13T04:14:31Z</time></trkpt><trkpt lat="-29.624541400394197" lon="115.30194825790957"><ele>105.0</ele><time>2026-04-13T04:14:32Z</time></trkpt><trkpt lat="-29.624757235834288" lon="115.30171046402448"><ele>105.0</ele><time>2026-04-13T04:14:33Z</time></trkpt><trkpt lat="-29.624968439351644" lon="115.30147587433667"><ele>104.5</ele><time>2026-04-13T04:14:34Z</time></trkpt><trkpt lat="-29.625175913514273" lon="115.30124453964136"><ele>104.0</ele><time>2026-04-13T04:14:35Z</time></trkpt><trkpt lat="-29.625379847324812" lon="115.30101775008622"><ele>105.5</ele><time>2026-04-13T04:14:36Z</time></trkpt><trkpt lat="-29.62558119240431" lon="115.3007955043811"><ele>107.0</ele><time>2026-04-13T04:14:37Z</time></trkpt><trkpt lat="-29.62577291980433" lon="115.30058920641662"><ele>107.0</ele><time>2026-04-13T04:14:38Z</time></trkpt><trkpt lat="-29.625953487046843" lon="115.30039741316163"><ele>107.0</ele><time>2026-04-13T04:14:39Z</time></trkpt><trkpt lat="-29.62612028244974" lon="115.30021300398221"><ele>107.33333333333333</ele><time>2026-04-13T04:14:40Z</time></trkpt><trkpt lat="-29.626272898268848" lon="115.30002811363447"><ele>107.66666666666666</ele><time>2026-04-13T04:14:41Z</time></trkpt><trkpt lat="-29.626414458032144" lon="115.2998317824811"><ele>108.0</ele><time>2026-04-13T04:14:42Z</time></trkpt><trkpt lat="-29.6265336804902" lon="115.29963638589005"><ele>108.0</ele><time>2026-04-13T04:14:43Z</time></trkpt><trkpt lat="-29.626632247333532" lon="115.29943979079334"><ele>108.0</ele><time>2026-04-13T04:14:44Z</time></trkpt><trkpt lat="-29.62669804068203" lon="115.29924583532576"><ele>108.0</ele><time>2026-04-13T04:14:45Z</time></trkpt><trkpt lat="-29.626749862232042" lon="115.29904481156902"><ele>109.0</ele><time>2026-04-13T04:14:46Z</time></trkpt><trkpt lat="-29.626783334055297" lon="115.29883746122033"><ele>110.0</ele><time>2026-04-13T04:14:47Z</time></trkpt><trkpt lat="-29.626800953182602" lon="115.29861277296642"><ele>111.0</ele><time>2026-04-13T04:14:48Z</time></trkpt><trkpt lat="-29.62680738344067" lon="115.29836974909637"><ele>111.0</ele><time>2026-04-13T04:14:49Z</time></trkpt><trkpt lat="-29.626802246171785" lon="115.29812453199492"><ele>111.0</ele><time>2026-04-13T04:14:50Z</time></trkpt><trkpt lat="-29.626778479246237" lon="115.2978697976792"><ele>111.0</ele><time>2026-04-13T04:14:51Z</time></trkpt><trkpt lat="-29.626748903388243" lon="115.29761713089623"><ele>110.5</ele><time>2026-04-13T04:14:52Z</time></trkpt><trkpt lat="-29.62671021192865" lon="115.29734831727384"><ele>110.0</ele><time>2026-04-13T04:14:53Z</time></trkpt><trkpt lat="-29.62666391551313" lon="115.29706457030518"><ele>111.0</ele><time>2026-04-13T04:14:54Z</time></trkpt><trkpt lat="-29.62662120429197" lon="115.29677553794447"><ele>112.0</ele><time>2026-04-13T04:14:55Z</time></trkpt><trkpt lat="-29.626583610904525" lon="115.29648724015287"><ele>111.5</ele><time>2026-04-13T04:14:56Z</time></trkpt><trkpt lat="-29.626541323069365" lon="115.29618676423496"><ele>111.0</ele><time>2026-04-13T04:14:57Z</time></trkpt><trkpt lat="-29.626499652596667" lon="115.29588323027333"><ele>111.0</ele><time>2026-04-13T04:14:58Z</time></trkpt><trkpt lat="-29.62646122744717" lon="115.2955934111728"><ele>111.0</ele><time>2026-04-13T04:14:59Z</time></trkpt><trkpt lat="-29.626421878137908" lon="115.29529990785363"><ele>110.0</ele><time>2026-04-13T04:15:00Z</time></trkpt><trkpt lat="-29.626383850049695" lon="115.29500315290963"><ele>109.0</ele><time>2026-04-13T04:15:01Z</time></trkpt><trkpt lat="-29.626340459212773" lon="115.2947017575915"><ele>108.5</ele><time>2026-04-13T04:15:02Z</time></trkpt><trkpt lat="-29.626295384056274" lon="115.29439790150961"><ele>108.0</ele><time>2026-04-13T04:15:03Z</time></trkpt><trkpt lat="-29.626250084817006" lon="115.29409149669416"><ele>107.0</ele><time>2026-04-13T04:15:04Z</time></trkpt><trkpt lat="-29.626222870500634" lon="115.29378470990156"><ele>106.0</ele><time>2026-04-13T04:15:05Z</time></trkpt><trkpt lat="-29.626181114292926" lon="115.29348794438609"><ele>105.5</ele><time>2026-04-13T04:15:06Z</time></trkpt><trkpt lat="-29.626140818914656" lon="115.29320173924721"><ele>105.0</ele><time>2026-04-13T04:15:07Z</time></trkpt><trkpt lat="-29.62610121604003" lon="115.29292460065993"><ele>106.0</ele><time>2026-04-13T04:15:08Z</time></trkpt><trkpt lat="-29.62606262924846" lon="115.29265290645587"><ele>107.0</ele><time>2026-04-13T04:15:09Z</time></trkpt><trkpt lat="-29.626025429059144" lon="115.29239104779171"><ele>107.0</ele><time>2026-04-13T04:15:10Z</time></trkpt><trkpt lat="-29.625990137263035" lon="115.29213695407361"><ele>107.0</ele><time>2026-04-13T04:15:11Z</time></trkpt><trkpt lat="-29.625955146381433" lon="115.29188856990956"><ele>107.0</ele><time>2026-04-13T04:15:12Z</time></trkpt><trkpt lat="-29.625907747446735" lon="115.29165334573113"><ele>107.33333333333333</ele><time>2026-04-13T04:15:13Z</time></trkpt><trkpt lat="-29.625878157664644" lon="115.2914189765937"><ele>107.66666666666666</ele><time>2026-04-13T04:15:14Z</time></trkpt><trkpt lat="-29.625849748016858" lon="115.29119691268029"><ele>108.0</ele><time>2026-04-13T04:15:15Z</time></trkpt><trkpt lat="-29.62582253371926" lon="115.29097924404493"><ele>108.0</ele><time>2026-04-13T04:15:16Z</time></trkpt><trkpt lat="-29.62579692900009" lon="115.29077374363801"><ele>108.0</ele><time>2026-04-13T04:15:17Z</time></trkpt><trkpt lat="-29.625772444260186" lon="115.29058125288182"><ele>108.0</ele><time>2026-04-13T04:15:18Z</time></trkpt><trkpt lat="-29.625745886946014" lon="115.29038719590419"><ele>108.0</ele><time>2026-04-13T04:15:19Z</time></trkpt><trkpt lat="-29.625720102535116" lon="115.2902001705044"><ele>108.0</ele><time>2026-04-13T04:15:20Z</time></trkpt><trkpt lat="-29.62570057317986" lon="115.29002860751517"><ele>108.0</ele><time>2026-04-13T04:15:21Z</time></trkpt><trkpt lat="-29.625681533598648" lon="115.28987722393876"><ele>108.0</ele><time>2026-04-13T04:15:22Z</time></trkpt><trkpt lat="-29.62566537851948" lon="115.2897436530464"><ele>107.83333333333333</ele><time>2026-04-13T04:15:23Z</time></trkpt><trkpt lat="-29.625652731755874" lon="115.28964187454861"><ele>107.66666666666666</ele><time>2026-04-13T04:15:24Z</time></trkpt><trkpt lat="-29.625644506033698" lon="115.2895694501659"><ele>107.5</ele><time>2026-04-13T04:15:25Z</time></trkpt><trkpt lat="-29.62561611686172" lon="115.28949983098877"><ele>107.33333333333333</ele><time>2026-04-13T04:15:27Z</time></trkpt><trkpt lat="-29.625485942992327" lon="115.28951882164127"><ele>107.16666666666666</ele><time>2026-04-13T04:15:30Z</time></trkpt><trkpt lat="-29.625406143057326" lon="115.28953947285112"><ele>107.0</ele><time>2026-04-13T04:15:31Z</time></trkpt><trkpt lat="-29.625307473966966" lon="115.28953179774744"><ele>107.0</ele><time>2026-04-13T04:15:32Z</time></trkpt><trkpt lat="-29.625192882819142" lon="115.28953179774723"><ele>107.0</ele><time>2026-04-13T04:15:33Z</time></trkpt><trkpt lat="-29.6250591735411" lon="115.28953007539457"><ele>107.0</ele><time>2026-04-13T04:15:34Z</time></trkpt><trkpt lat="-29.624907651344095" lon="115.28952729896692"><ele>107.0</ele><time>2026-04-13T04:15:35Z</time></trkpt><trkpt lat="-29.624746623805784" lon="115.28952639540576"><ele>107.0</ele><time>2026-04-13T04:15:36Z</time></trkpt><trkpt lat="-29.624561908496926" lon="115.28952109774572"><ele>107.0</ele><time>2026-04-13T04:15:37Z</time></trkpt><trkpt lat="-29.624360040647378" lon="115.2895210977459"><ele>107.0</ele><time>2026-04-13T04:15:38Z</time></trkpt><trkpt lat="-29.624145686284816" lon="115.28951972908355"><ele>107.0</ele><time>2026-04-13T04:15:39Z</time></trkpt><trkpt lat="-29.623929860230646" lon="115.28951935317609"><ele>107.0</ele><time>2026-04-13T04:15:40Z</time></trkpt><trkpt lat="-29.62372217274122" lon="115.28952230003313"><ele>107.0</ele><time>2026-04-13T04:15:41Z</time></trkpt><trkpt lat="-29.623502133762663" lon="115.28954385193623"><ele>107.5</ele><time>2026-04-13T04:15:42Z</time></trkpt><trkpt lat="-29.623269785730063" lon="115.28954446957832"><ele>108.0</ele><time>2026-04-13T04:15:43Z</time></trkpt><trkpt lat="-29.623022977434857" lon="115.28954663410074"><ele>107.0</ele><time>2026-04-13T04:15:44Z</time></trkpt><trkpt lat="-29.622764217609802" lon="115.2895510902087"><ele>106.0</ele><time>2026-04-13T04:15:45Z</time></trkpt><trkpt lat="-29.6225185810287" lon="115.28955350454568"><ele>106.0</ele><time>2026-04-13T04:15:46Z</time></trkpt><trkpt lat="-29.622281505402093" lon="115.28955609035877"><ele>106.0</ele><time>2026-04-13T04:15:47Z</time></trkpt><trkpt lat="-29.622045974963648" lon="115.28955570711726"><ele>103.5</ele><time>2026-04-13T04:15:48Z</time></trkpt><trkpt lat="-29.621810597776815" lon="115.28955640561439"><ele>101.0</ele><time>2026-04-13T04:15:49Z</time></trkpt><trkpt lat="-29.621565117545025" lon="115.28955810059355"><ele>101.0</ele><time>2026-04-13T04:15:50Z</time></trkpt><trkpt lat="-29.62130845814432" lon="115.28955692904232"><ele>101.0</ele><time>2026-04-13T04:15:51Z</time></trkpt><trkpt lat="-29.62105301344648" lon="115.28955588051524"><ele>101.0</ele><time>2026-04-13T04:15:52Z</time></trkpt><trkpt lat="-29.62080058496727" lon="115.28955578742102"><ele>101.0</ele><time>2026-04-13T04:15:53Z</time></trkpt><trkpt lat="-29.62055501490684" lon="115.28955545930202"><ele>102.0</ele><time>2026-04-13T04:15:54Z</time></trkpt><trkpt lat="-29.620305188110198" lon="115.28955413572172"><ele>103.0</ele><time>2026-04-13T04:15:55Z</time></trkpt><trkpt lat="-29.620054316693274" lon="115.28955269205838"><ele>103.0</ele><time>2026-04-13T04:15:56Z</time></trkpt><trkpt lat="-29.619805766784797" lon="115.289551654241"><ele>103.0</ele><time>2026-04-13T04:15:57Z</time></trkpt><trkpt lat="-29.619562855515053" lon="115.28955253657297"><ele>101.0</ele><time>2026-04-13T04:15:58Z</time></trkpt><trkpt lat="-29.619331128071806" lon="115.28955320675313"><ele>99.0</ele><time>2026-04-13T04:15:59Z</time></trkpt><trkpt lat="-29.619114743154626" lon="115.28955300283506"><ele>97.0</ele><time>2026-04-13T04:16:00Z</time></trkpt><trkpt lat="-29.618911189289303" lon="115.28955433397275"><ele>97.0</ele><time>2026-04-13T04:16:01Z</time></trkpt><trkpt lat="-29.61872040812195" lon="115.28955416053816"><ele>97.0</ele><time>2026-04-13T04:16:02Z</time></trkpt><trkpt lat="-29.618547100584273" lon="115.28955567048526"><ele>97.0</ele><time>2026-04-13T04:16:03Z</time></trkpt><trkpt lat="-29.618382644002992" lon="115.28955422701802"><ele>97.0</ele><time>2026-04-13T04:16:04Z</time></trkpt><trkpt lat="-29.618212531059473" lon="115.28955387722831"><ele>97.0</ele><time>2026-04-13T04:16:05Z</time></trkpt><trkpt lat="-29.61802302502251" lon="115.28955184429385"><ele>97.0</ele><time>2026-04-13T04:16:06Z</time></trkpt><trkpt lat="-29.61782965386875" lon="115.28954950631261"><ele>97.0</ele><time>2026-04-13T04:16:07Z</time></trkpt><trkpt lat="-29.61763184653394" lon="115.28954469527758"><ele>97.0</ele><time>2026-04-13T04:16:08Z</time></trkpt><trkpt lat="-29.61745748842385" lon="115.2895415049101"><ele>97.0</ele><time>2026-04-13T04:16:09Z</time></trkpt><trkpt lat="-29.617270889412847" lon="115.28953902787035"><ele>97.0</ele><time>2026-04-13T04:16:10Z</time></trkpt><trkpt lat="-29.617067324976517" lon="115.28954247595782"><ele>97.0</ele><time>2026-04-13T04:16:11Z</time></trkpt><trkpt lat="-29.616852835008345" lon="115.28954462325562"><ele>97.0</ele><time>2026-04-13T04:16:12Z</time></trkpt><trkpt lat="-29.616623324243857" lon="115.28954956252983"><ele>97.0</ele><time>2026-04-13T04:16:13Z</time></trkpt><trkpt lat="-29.616383678560364" lon="115.28953403722873"><ele>97.0</ele><time>2026-04-13T04:16:14Z</time></trkpt><trkpt lat="-29.616144800595457" lon="115.28955561095967"><ele>97.5</ele><time>2026-04-13T04:16:15Z</time></trkpt><trkpt lat="-29.61590303810572" lon="115.28955706817352"><ele>98.0</ele><time>2026-04-13T04:16:16Z</time></trkpt><trkpt lat="-29.6156550146718" lon="115.28953767110809"><ele>98.0</ele><time>2026-04-13T04:16:17Z</time></trkpt><trkpt lat="-29.615408574299686" lon="115.28953653891591"><ele>98.0</ele><time>2026-04-13T04:16:18Z</time></trkpt><trkpt lat="-29.615156947455457" lon="115.28953579952464"><ele>99.0</ele><time>2026-04-13T04:16:19Z</time></trkpt><trkpt lat="-29.614900942196673" lon="115.28953685772741"><ele>100.0</ele><time>2026-04-13T04:16:20Z</time></trkpt><trkpt lat="-29.614646633431583" lon="115.28955629160153"><ele>100.0</ele><time>2026-04-13T04:16:21Z</time></trkpt><trkpt lat="-29.614385484521172" lon="115.28955234913077"><ele>100.0</ele><time>2026-04-13T04:16:22Z</time></trkpt><trkpt lat="-29.61412109766066" lon="115.28955160573395"><ele>100.0</ele><time>2026-04-13T04:16:23Z</time></trkpt><trkpt lat="-29.613852283428876" lon="115.28955294907524"><ele>100.0</ele><time>2026-04-13T04:16:24Z</time></trkpt><trkpt lat="-29.613581715323843" lon="115.28955789242208"><ele>100.0</ele><time>2026-04-13T04:16:25Z</time></trkpt><trkpt lat="-29.613307994519946" lon="115.28954119952671"><ele>100.0</ele><time>2026-04-13T04:16:26Z</time></trkpt><trkpt lat="-29.613035512363385" lon="115.28954119952786"><ele>100.0</ele><time>2026-04-13T04:16:27Z</time></trkpt><trkpt lat="-29.612763807505747" lon="115.28956012436306"><ele>100.0</ele><time>2026-04-13T04:16:28Z</time></trkpt><trkpt lat="-29.612492844816398" lon="115.28955632222174"><ele>100.0</ele><time>2026-04-13T04:16:29Z</time></trkpt><trkpt lat="-29.612222925693207" lon="115.28955577913048"><ele>100.0</ele><time>2026-04-13T04:16:30Z</time></trkpt><trkpt lat="-29.611950691828426" lon="115.2895565821823"><ele>101.0</ele><time>2026-04-13T04:16:31Z</time></trkpt><trkpt lat="-29.611675361630414" lon="115.2895516345457"><ele>102.0</ele><time>2026-04-13T04:16:32Z</time></trkpt><trkpt lat="-29.611398935838842" lon="115.2895532828681"><ele>103.0</ele><time>2026-04-13T04:16:33Z</time></trkpt><trkpt lat="-29.611123557393668" lon="115.28953682671306"><ele>104.0</ele><time>2026-04-13T04:16:34Z</time></trkpt><trkpt lat="-29.61085174792853" lon="115.28956031781222"><ele>104.0</ele><time>2026-04-13T04:16:35Z</time></trkpt><trkpt lat="-29.61058071842679" lon="115.28955870296764"><ele>104.0</ele><time>2026-04-13T04:16:36Z</time></trkpt><trkpt lat="-29.6103095660443" lon="115.28955966322543"><ele>102.5</ele><time>2026-04-13T04:16:37Z</time></trkpt><trkpt lat="-29.610040695068747" lon="115.28956088075037"><ele>101.0</ele><time>2026-04-13T04:16:38Z</time></trkpt><trkpt lat="-29.60977411691975" lon="115.28956437082485"><ele>101.0</ele><time>2026-04-13T04:16:39Z</time></trkpt><trkpt lat="-29.609503485735427" lon="115.28956885777163"><ele>101.0</ele><time>2026-04-13T04:16:40Z</time></trkpt><trkpt lat="-29.60923967076427" lon="115.28957741770165"><ele>103.5</ele><time>2026-04-13T04:16:41Z</time></trkpt><trkpt lat="-29.60897508995758" lon="115.28959427204954"><ele>106.0</ele><time>2026-04-13T04:16:42Z</time></trkpt><trkpt lat="-29.608707873207578" lon="115.28962104076938"><ele>105.0</ele><time>2026-04-13T04:16:43Z</time></trkpt><trkpt lat="-29.608433227038436" lon="115.28966036256566"><ele>104.0</ele><time>2026-04-13T04:16:44Z</time></trkpt><trkpt lat="-29.608164234340375" lon="115.28969659525005"><ele>104.0</ele><time>2026-04-13T04:16:45Z</time></trkpt><trkpt lat="-29.6078919730319" lon="115.28971696961072"><ele>104.0</ele><time>2026-04-13T04:16:46Z</time></trkpt><trkpt lat="-29.607619065658845" lon="115.28972413436058"><ele>103.0</ele><time>2026-04-13T04:16:47Z</time></trkpt><trkpt lat="-29.607344671001922" lon="115.28972597121714"><ele>102.0</ele><time>2026-04-13T04:16:48Z</time></trkpt><trkpt lat="-29.607070662372585" lon="115.28972204108155"><ele>103.0</ele><time>2026-04-13T04:16:49Z</time></trkpt><trkpt lat="-29.606799534996565" lon="115.28971944549365"><ele>104.0</ele><time>2026-04-13T04:16:50Z</time></trkpt><trkpt lat="-29.606527854195473" lon="115.28971872645641"><ele>104.0</ele><time>2026-04-13T04:16:51Z</time></trkpt><trkpt lat="-29.606259633962257" lon="115.28972043307643"><ele>104.0</ele><time>2026-04-13T04:16:52Z</time></trkpt><trkpt lat="-29.60600237361653" lon="115.2897225642618"><ele>104.0</ele><time>2026-04-13T04:16:53Z</time></trkpt><trkpt lat="-29.60574529188725" lon="115.28972127355317"><ele>104.0</ele><time>2026-04-13T04:16:53.999Z</time></trkpt><trkpt lat="-29.605498987301264" lon="115.28972007080382"><ele>104.0</ele><time>2026-04-13T04:16:54.999Z</time></trkpt><trkpt lat="-29.6052520217046" lon="115.28971688726344"><ele>104.0</ele><time>2026-04-13T04:16:55.999Z</time></trkpt><trkpt lat="-29.60500761409501" lon="115.28971696238109"><ele>104.0</ele><time>2026-04-13T04:16:56.999Z</time></trkpt><trkpt lat="-29.604764179809358" lon="115.28971879579586"><ele>104.0</ele><time>2026-04-13T04:16:57.999Z</time></trkpt><trkpt lat="-29.60452171227501" lon="115.28971894748334"><ele>103.5</ele><time>2026-04-13T04:16:58.999Z</time></trkpt><trkpt lat="-29.60428443928644" lon="115.2897156188184"><ele>103.0</ele><time>2026-04-13T04:16:59.999Z</time></trkpt><trkpt lat="-29.604058904824086" lon="115.28971604855089"><ele>103.0</ele><time>2026-04-13T04:17:00.999Z</time></trkpt><trkpt lat="-29.60384979591594" lon="115.28972356443289"><ele>103.0</ele><time>2026-04-13T04:17:01.999Z</time></trkpt><trkpt lat="-29.60366608708041" lon="115.28973140793245"><ele>103.0</ele><time>2026-04-13T04:17:02.999Z</time></trkpt><trkpt lat="-29.603504818306693" lon="115.28973319002999"><ele>104.0</ele><time>2026-04-13T04:17:03.999Z</time></trkpt><trkpt lat="-29.60334806287644" lon="115.28973090113577"><ele>105.0</ele><time>2026-04-13T04:17:04.999Z</time></trkpt><trkpt lat="-29.603203067427952" lon="115.28973379020654"><ele>106.0</ele><time>2026-04-13T04:17:05.999Z</time></trkpt><trkpt lat="-29.603058392843273" lon="115.28973243130602"><ele>107.0</ele><time>2026-04-13T04:17:06.999Z</time></trkpt><trkpt lat="-29.602914577437314" lon="115.28972618151852"><ele>109.0</ele><time>2026-04-13T04:17:07.999Z</time></trkpt><trkpt lat="-29.602761940266063" lon="115.28971576025259"><ele>111.0</ele><time>2026-04-13T04:17:08.999Z</time></trkpt><trkpt lat="-29.602619392707684" lon="115.28971445979083"><ele>113.0</ele><time>2026-04-13T04:17:09.999Z</time></trkpt><trkpt lat="-29.602474671867576" lon="115.28971656650971"><ele>115.0</ele><time>2026-04-13T04:17:10.999Z</time></trkpt><trkpt lat="-29.602314345222354" lon="115.28971978593292"><ele>115.0</ele><time>2026-04-13T04:17:11.999Z</time></trkpt><trkpt lat="-29.60214383152826" lon="115.28971942774999"><ele>115.0</ele><time>2026-04-13T04:17:12.999Z</time></trkpt><trkpt lat="-29.60196804956951" lon="115.28971733283544"><ele>115.0</ele><time>2026-04-13T04:17:13.999Z</time></trkpt><trkpt lat="-29.601801999828126" lon="115.28971693962629"><ele>115.0</ele><time>2026-04-13T04:17:14.999Z</time></trkpt><trkpt lat="-29.601633767885037" lon="115.2897139922699"><ele>115.0</ele><time>2026-04-13T04:17:15.999Z</time></trkpt><trkpt lat="-29.601455686691633" lon="115.28970799390154"><ele>115.0</ele><time>2026-04-13T04:17:16.999Z</time></trkpt><trkpt lat="-29.601296003951262" lon="115.28971572358165"><ele>116.33333333333334</ele><time>2026-04-13T04:17:18Z</time></trkpt><trkpt lat="-29.601116601068387" lon="115.28971620713205"><ele>117.66666666666666</ele><time>2026-04-13T04:17:19Z</time></trkpt><trkpt lat="-29.600947060205495" lon="115.28971758212782"><ele>119.0</ele><time>2026-04-13T04:17:20Z</time></trkpt><trkpt lat="-29.600781074738514" lon="115.28971956440735"><ele>119.0</ele><time>2026-04-13T04:17:21Z</time></trkpt><trkpt lat="-29.600646518639426" lon="115.28972317768141"><ele>119.0</ele><time>2026-04-13T04:17:22Z</time></trkpt><trkpt lat="-29.600512102585636" lon="115.28972025948472"><ele>119.0</ele><time>2026-04-13T04:17:23Z</time></trkpt><trkpt lat="-29.60038612367521" lon="115.2897230857406"><ele>119.0</ele><time>2026-04-13T04:17:24Z</time></trkpt><trkpt lat="-29.600260859869174" lon="115.28972129757612"><ele>119.75</ele><time>2026-04-13T04:17:25Z</time></trkpt><trkpt lat="-29.6001402601782" lon="115.28972302031367"><ele>120.5</ele><time>2026-04-13T04:17:26Z</time></trkpt><trkpt lat="-29.600027234873146" lon="115.28972392989049"><ele>121.25</ele><time>2026-04-13T04:17:27Z</time></trkpt><trkpt lat="-29.599904227051663" lon="115.28972068922899"><ele>122.0</ele><time>2026-04-13T04:17:28Z</time></trkpt><trkpt lat="-29.59976899564021" lon="115.28972393010547"><ele>122.0</ele><time>2026-04-13T04:17:29Z</time></trkpt><trkpt lat="-29.5996324530759" lon="115.28972617857188"><ele>122.0</ele><time>2026-04-13T04:17:30Z</time></trkpt><trkpt lat="-29.599502583346812" lon="115.28973245477704"><ele>122.0</ele><time>2026-04-13T04:17:31Z</time></trkpt><trkpt lat="-29.599370940126278" lon="115.28973449289386"><ele>122.0</ele><time>2026-04-13T04:17:32Z</time></trkpt><trkpt lat="-29.599221128266933" lon="115.28973213214545"><ele>123.25</ele><time>2026-04-13T04:17:33Z</time></trkpt><trkpt lat="-29.599075058474437" lon="115.28973341494154"><ele>124.5</ele><time>2026-04-13T04:17:34Z</time></trkpt><trkpt lat="-29.59893148893305" lon="115.28973086783368"><ele>125.75</ele><time>2026-04-13T04:17:35Z</time></trkpt><trkpt lat="-29.598786143540703" lon="115.28972926286761"><ele>127.0</ele><time>2026-04-13T04:17:36Z</time></trkpt><trkpt lat="-29.598652844527663" lon="115.2897320928764"><ele>128.25</ele><time>2026-04-13T04:17:37Z</time></trkpt><trkpt lat="-29.598521671591172" lon="115.28972953289818"><ele>129.5</ele><time>2026-04-13T04:17:38Z</time></trkpt><trkpt lat="-29.598382498870784" lon="115.28971020305198"><ele>130.75</ele><time>2026-04-13T04:17:39Z</time></trkpt><trkpt lat="-29.598233072957377" lon="115.2897102030528"><ele>132.0</ele><time>2026-04-13T04:17:40Z</time></trkpt><trkpt lat="-29.598089935048215" lon="115.28971020305437"><ele>132.0</ele><time>2026-04-13T04:17:41Z</time></trkpt><trkpt lat="-29.597943249920064" lon="115.28971038992475"><ele>132.0</ele><time>2026-04-13T04:17:42Z</time></trkpt><trkpt lat="-29.597790681866172" lon="115.28972988465014"><ele>132.0</ele><time>2026-04-13T04:17:43Z</time></trkpt><trkpt lat="-29.597640857208702" lon="115.28971134240237"><ele>132.66666666666666</ele><time>2026-04-13T04:17:44Z</time></trkpt><trkpt lat="-29.597477481962134" lon="115.28971185700173"><ele>133.33333333333331</ele><time>2026-04-13T04:17:45Z</time></trkpt><trkpt lat="-29.597300822089686" lon="115.28971241344507"><ele>134.0</ele><time>2026-04-13T04:17:46Z</time></trkpt><trkpt lat="-29.597121409914926" lon="115.28971290306544"><ele>133.33333333333331</ele><time>2026-04-13T04:17:47Z</time></trkpt><trkpt lat="-29.596943175212175" lon="115.2897129030665"><ele>132.66666666666666</ele><time>2026-04-13T04:17:48Z</time></trkpt><trkpt lat="-29.59676843131483" lon="115.28971290306754"><ele>132.0</ele><time>2026-04-13T04:17:49Z</time></trkpt><trkpt lat="-29.5965939452941" lon="115.2897129030704"><ele>132.0</ele><time>2026-04-13T04:17:50Z</time></trkpt><trkpt lat="-29.59641217542697" lon="115.28971413613986"><ele>132.0</ele><time>2026-04-13T04:17:51Z</time></trkpt><trkpt lat="-29.596244782924614" lon="115.28971420307316"><ele>132.0</ele><time>2026-04-13T04:17:52Z</time></trkpt><trkpt lat="-29.5960646780419" lon="115.28971420307431"><ele>133.33333333333334</ele><time>2026-04-13T04:17:53Z</time></trkpt><trkpt lat="-29.595894958827603" lon="115.2897142030763"><ele>134.66666666666669</ele><time>2026-04-13T04:17:54Z</time></trkpt><trkpt lat="-29.595724329665444" lon="115.28971428676284"><ele>136.0</ele><time>2026-04-13T04:17:55Z</time></trkpt><trkpt lat="-29.595546919290214" lon="115.28971446233099"><ele>136.0</ele><time>2026-04-13T04:17:56Z</time></trkpt><trkpt lat="-29.595369340204986" lon="115.28971463806717"><ele>136.0</ele><time>2026-04-13T04:17:57Z</time></trkpt><trkpt lat="-29.595189747436077" lon="115.2897148157959"><ele>136.0</ele><time>2026-04-13T04:17:58Z</time></trkpt><trkpt lat="-29.59500912740911" lon="115.28971499454138"><ele>137.33333333333334</ele><time>2026-04-13T04:17:59Z</time></trkpt><trkpt lat="-29.59481729932435" lon="115.28971518437814"><ele>138.66666666666666</ele><time>2026-04-13T04:18:00Z</time></trkpt><trkpt lat="-29.594614920693814" lon="115.28971538465522"><ele>140.0</ele><time>2026-04-13T04:18:01Z</time></trkpt><trkpt lat="-29.594402664503583" lon="115.28971559470801"><ele>140.66666666666666</ele><time>2026-04-13T04:18:02Z</time></trkpt><trkpt lat="-29.594180414638462" lon="115.28971560309387"><ele>141.33333333333334</ele><time>2026-04-13T04:18:03Z</time></trkpt><trkpt lat="-29.593959128267283" lon="115.2897156040303"><ele>142.0</ele><time>2026-04-13T04:18:04Z</time></trkpt><trkpt lat="-29.593730916938554" lon="115.28971560403181"><ele>143.66666666666669</ele><time>2026-04-13T04:18:05Z</time></trkpt><trkpt lat="-29.593513886651998" lon="115.28971560403393"><ele>145.33333333333334</ele><time>2026-04-13T04:18:06Z</time></trkpt><trkpt lat="-29.59329707360031" lon="115.28971560403681"><ele>147.0</ele><time>2026-04-13T04:18:07Z</time></trkpt><trkpt lat="-29.593085380844926" lon="115.2897156040393"><ele>147.0</ele><time>2026-04-13T04:18:08Z</time></trkpt><trkpt lat="-29.59287615383172" lon="115.28971560404219"><ele>147.0</ele><time>2026-04-13T04:18:09Z</time></trkpt><trkpt lat="-29.592656063372427" lon="115.28971560404503"><ele>147.0</ele><time>2026-04-13T04:18:10Z</time></trkpt><trkpt lat="-29.59243788611556" lon="115.28971637623206"><ele>148.0</ele><time>2026-04-13T04:18:11Z</time></trkpt><trkpt lat="-29.592218542776106" lon="115.2897175392652"><ele>149.0</ele><time>2026-04-13T04:18:12Z</time></trkpt><trkpt lat="-29.592002476807494" lon="115.28971853875598"><ele>150.0</ele><time>2026-04-13T04:18:13Z</time></trkpt><trkpt lat="-29.591786585350846" lon="115.28971946883607"><ele>151.0</ele><time>2026-04-13T04:18:14Z</time></trkpt><trkpt lat="-29.591573507727812" lon="115.28972038679429"><ele>152.0</ele><time>2026-04-13T04:18:15Z</time></trkpt><trkpt lat="-29.591364093465018" lon="115.28972128897173"><ele>153.0</ele><time>2026-04-13T04:18:16Z</time></trkpt><trkpt lat="-29.591146805532247" lon="115.28972222506872"><ele>153.0</ele><time>2026-04-13T04:18:17Z</time></trkpt><trkpt lat="-29.59092337080288" lon="115.28972302861729"><ele>153.0</ele><time>2026-04-13T04:18:18Z</time></trkpt><trkpt lat="-29.590685535580228" lon="115.28972386879762"><ele>153.0</ele><time>2026-04-13T04:18:19Z</time></trkpt><trkpt lat="-29.59043919897935" lon="115.28972473900859"><ele>153.0</ele><time>2026-04-13T04:18:20Z</time></trkpt><trkpt lat="-29.5901939361134" lon="115.28972490406885"><ele>152.5</ele><time>2026-04-13T04:18:21Z</time></trkpt><trkpt lat="-29.589952337102005" lon="115.28972491253086"><ele>152.0</ele><time>2026-04-13T04:18:22Z</time></trkpt><trkpt lat="-29.58971612220601" lon="115.28972561600008"><ele>153.33333333333331</ele><time>2026-04-13T04:18:23Z</time></trkpt><trkpt lat="-29.589490101463817" lon="115.28972628910898"><ele>154.66666666666666</ele><time>2026-04-13T04:18:24Z</time></trkpt><trkpt lat="-29.589273598583794" lon="115.28972630406773"><ele>156.0</ele><time>2026-04-13T04:18:25Z</time></trkpt><trkpt lat="-29.589069319625988" lon="115.28973797934997"><ele>156.0</ele><time>2026-04-13T04:18:26Z</time></trkpt><trkpt lat="-29.588862783240753" lon="115.28973254219599"><ele>156.0</ele><time>2026-04-13T04:18:27Z</time></trkpt><trkpt lat="-29.58865876239569" lon="115.28973081453161"><ele>156.0</ele><time>2026-04-13T04:18:28Z</time></trkpt><trkpt lat="-29.58844849460578" lon="115.28972887753409"><ele>156.0</ele><time>2026-04-13T04:18:29Z</time></trkpt><trkpt lat="-29.588247466823535" lon="115.28973257941813"><ele>156.0</ele><time>2026-04-13T04:18:30Z</time></trkpt><trkpt lat="-29.588043443205912" lon="115.28973225059195"><ele>156.0</ele><time>2026-04-13T04:18:31Z</time></trkpt><trkpt lat="-29.587837006708877" lon="115.28973387503842"><ele>155.66666666666666</ele><time>2026-04-13T04:18:32Z</time></trkpt><trkpt lat="-29.58763723419981" lon="115.2897333246157"><ele>155.33333333333331</ele><time>2026-04-13T04:18:33Z</time></trkpt><trkpt lat="-29.587446470033612" lon="115.28973529094732"><ele>155.0</ele><time>2026-04-13T04:18:34Z</time></trkpt><trkpt lat="-29.587262336596872" lon="115.28973158041687"><ele>155.0</ele><time>2026-04-13T04:18:35Z</time></trkpt><trkpt lat="-29.58708522233743" lon="115.28973421829441"><ele>155.0</ele><time>2026-04-13T04:18:36Z</time></trkpt><trkpt lat="-29.586910012099313" lon="115.28973826288953"><ele>155.0</ele><time>2026-04-13T04:18:37Z</time></trkpt><trkpt lat="-29.586729936308597" lon="115.28973899420983"><ele>155.0</ele><time>2026-04-13T04:18:38Z</time></trkpt><trkpt lat="-29.586543913440316" lon="115.28973910493076"><ele>155.0</ele><time>2026-04-13T04:18:39Z</time></trkpt><trkpt lat="-29.586356219786776" lon="115.28974005049929"><ele>155.0</ele><time>2026-04-13T04:18:40Z</time></trkpt><trkpt lat="-29.586162444448384" lon="115.28973789590181"><ele>155.0</ele><time>2026-04-13T04:18:41Z</time></trkpt><trkpt lat="-29.585974112352133" lon="115.28973694538843"><ele>155.0</ele><time>2026-04-13T04:18:42Z</time></trkpt><trkpt lat="-29.585784229433994" lon="115.2897362039464"><ele>155.0</ele><time>2026-04-13T04:18:43Z</time></trkpt><trkpt lat="-29.585604768324313" lon="115.28973728039806"><ele>155.0</ele><time>2026-04-13T04:18:44Z</time></trkpt><trkpt lat="-29.58543302865621" lon="115.28971998853481"><ele>155.0</ele><time>2026-04-13T04:18:45Z</time></trkpt><trkpt lat="-29.585258944271928" lon="115.28971910664994"><ele>155.0</ele><time>2026-04-13T04:18:46Z</time></trkpt><trkpt lat="-29.58507723638214" lon="115.28971818614582"><ele>157.33333333333331</ele><time>2026-04-13T04:18:47Z</time></trkpt><trkpt lat="-29.584894094458825" lon="115.28971725837592"><ele>159.66666666666666</ele><time>2026-04-13T04:18:48Z</time></trkpt><trkpt lat="-29.584726768162042" lon="115.28973322654917"><ele>162.0</ele><time>2026-04-13T04:18:49Z</time></trkpt><trkpt lat="-29.584565700765236" lon="115.28972974836302"><ele>161.25</ele><time>2026-04-13T04:18:50Z</time></trkpt><trkpt lat="-29.584408816395513" lon="115.28972262025047"><ele>160.5</ele><time>2026-04-13T04:18:51Z</time></trkpt><trkpt lat="-29.584257860656486" lon="115.28971823213664"><ele>159.75</ele><time>2026-04-13T04:18:52Z</time></trkpt><trkpt lat="-29.584124410233155" lon="115.28971815002915"><ele>159.0</ele><time>2026-04-13T04:18:53Z</time></trkpt><trkpt lat="-29.58400699583912" lon="115.2897101314275"><ele>159.0</ele><time>2026-04-13T04:18:54Z</time></trkpt><trkpt lat="-29.58390121631171" lon="115.28969571747227"><ele>159.0</ele><time>2026-04-13T04:18:55Z</time></trkpt><trkpt lat="-29.583785303742918" lon="115.2896650196349"><ele>159.0</ele><time>2026-04-13T04:18:56Z</time></trkpt><trkpt lat="-29.583669968872904" lon="115.28962649332044"><ele>159.0</ele><time>2026-04-13T04:18:57Z</time></trkpt><trkpt lat="-29.583550907427597" lon="115.28958558448744"><ele>160.25</ele><time>2026-04-13T04:18:58Z</time></trkpt><trkpt lat="-29.583434659017897" lon="115.2895374970047"><ele>161.5</ele><time>2026-04-13T04:18:59Z</time></trkpt><trkpt lat="-29.583324061663728" lon="115.28949460926059"><ele>162.75</ele><time>2026-04-13T04:18:59.999Z</time></trkpt><trkpt lat="-29.583213867410425" lon="115.28946017779106"><ele>164.0</ele><time>2026-04-13T04:19:00.999Z</time></trkpt><trkpt lat="-29.583114860937606" lon="115.2894173229785"><ele>164.0</ele><time>2026-04-13T04:19:01.999Z</time></trkpt><trkpt lat="-29.583036666330695" lon="115.28938942401713"><ele>164.0</ele><time>2026-04-13T04:19:02.999Z</time></trkpt><trkpt lat="-29.582979931485827" lon="115.28934325470142"><ele>164.0</ele><time>2026-04-13T04:19:06.999Z</time></trkpt><trkpt lat="-29.582892466434153" lon="115.2892584884717"><ele>164.0</ele><time>2026-04-13T04:19:41Z</time></trkpt><trkpt lat="-29.582842250759544" lon="115.28921205507588"><ele>164.0</ele><time>2026-04-13T04:19:42Z</time></trkpt><trkpt lat="-29.58279033076024" lon="115.28916021065884"><ele>164.0</ele><time>2026-04-13T04:19:43Z</time></trkpt><trkpt lat="-29.58273287943167" lon="115.2891011911647"><ele>164.0</ele><time>2026-04-13T04:19:44Z</time></trkpt><trkpt lat="-29.582657561309407" lon="115.28902794716858"><ele>164.0</ele><time>2026-04-13T04:19:45Z</time></trkpt><trkpt lat="-29.582582796089635" lon="115.28895211572241"><ele>164.0</ele><time>2026-04-13T04:19:46Z</time></trkpt><trkpt lat="-29.582505374359407" lon="115.28887993068244"><ele>164.0</ele><time>2026-04-13T04:19:47Z</time></trkpt><trkpt lat="-29.582424918617818" lon="115.2888063597353"><ele>164.0</ele><time>2026-04-13T04:19:48Z</time></trkpt><trkpt lat="-29.58233642339125" lon="115.28873394892206"><ele>164.0</ele><time>2026-04-13T04:19:49Z</time></trkpt><trkpt lat="-29.5822374183318" lon="115.28865563976343"><ele>164.0</ele><time>2026-04-13T04:19:50Z</time></trkpt><trkpt lat="-29.58213985809174" lon="115.28856489192412"><ele>164.0</ele><time>2026-04-13T04:19:51Z</time></trkpt><trkpt lat="-29.582041162379298" lon="115.28847358836147"><ele>164.0</ele><time>2026-04-13T04:19:52Z</time></trkpt><trkpt lat="-29.581937445403675" lon="115.28838022570774"><ele>163.75</ele><time>2026-04-13T04:19:53Z</time></trkpt><trkpt lat="-29.581829101268628" lon="115.28828042575431"><ele>163.5</ele><time>2026-04-13T04:19:54Z</time></trkpt><trkpt lat="-29.58171981680629" lon="115.28818463731359"><ele>163.25</ele><time>2026-04-13T04:19:55Z</time></trkpt><trkpt lat="-29.581610235313818" lon="115.28808645766064"><ele>163.0</ele><time>2026-04-13T04:19:56Z</time></trkpt><trkpt lat="-29.58149663546195" lon="115.28797809648714"><ele>163.0</ele><time>2026-04-13T04:19:57Z</time></trkpt><trkpt lat="-29.581381883012188" lon="115.28786913175631"><ele>163.0</ele><time>2026-04-13T04:19:58Z</time></trkpt><trkpt lat="-29.581266431654537" lon="115.28776047173076"><ele>163.0</ele><time>2026-04-13T04:19:59Z</time></trkpt><trkpt lat="-29.581147678648748" lon="115.28765297393954"><ele>163.0</ele><time>2026-04-13T04:20:00Z</time></trkpt><trkpt lat="-29.581028189734557" lon="115.28754485750048"><ele>163.66666666666669</ele><time>2026-04-13T04:20:01Z</time></trkpt><trkpt lat="-29.58090026066213" lon="115.28742587780704"><ele>164.33333333333334</ele><time>2026-04-13T04:20:02Z</time></trkpt><trkpt lat="-29.58077223814034" lon="115.28730739962144"><ele>165.0</ele><time>2026-04-13T04:20:03Z</time></trkpt><trkpt lat="-29.5806397398382" lon="115.28718541921512"><ele>164.33333333333334</ele><time>2026-04-13T04:20:04Z</time></trkpt><trkpt lat="-29.5804967058022" lon="115.2870559069777"><ele>163.66666666666669</ele><time>2026-04-13T04:20:05Z</time></trkpt><trkpt lat="-29.580355816299317" lon="115.2869223124915"><ele>163.0</ele><time>2026-04-13T04:20:06Z</time></trkpt><trkpt lat="-29.58021148695921" lon="115.2867912766713"><ele>163.0</ele><time>2026-04-13T04:20:07Z</time></trkpt><trkpt lat="-29.58006970016039" lon="115.28665781145656"><ele>163.0</ele><time>2026-04-13T04:20:08Z</time></trkpt><trkpt lat="-29.579926161978843" lon="115.28652599362262"><ele>163.0</ele><time>2026-04-13T04:20:09Z</time></trkpt><trkpt lat="-29.579777475266077" lon="115.2863929332398"><ele>162.66666666666669</ele><time>2026-04-13T04:20:10Z</time></trkpt><trkpt lat="-29.579633053269422" lon="115.28626198852446"><ele>162.33333333333334</ele><time>2026-04-13T04:20:11Z</time></trkpt><trkpt lat="-29.579494952379665" lon="115.28613141601151"><ele>162.0</ele><time>2026-04-13T04:20:12Z</time></trkpt><trkpt lat="-29.579357796266393" lon="115.28600619369445"><ele>162.0</ele><time>2026-04-13T04:20:13Z</time></trkpt><trkpt lat="-29.579212775080407" lon="115.28587075551617"><ele>162.0</ele><time>2026-04-13T04:20:14Z</time></trkpt><trkpt lat="-29.57906560618955" lon="115.28573863048675"><ele>162.0</ele><time>2026-04-13T04:20:15Z</time></trkpt><trkpt lat="-29.578916121403534" lon="115.28560215938593"><ele>162.0</ele><time>2026-04-13T04:20:16Z</time></trkpt><trkpt lat="-29.57876548184697" lon="115.28546729597218"><ele>162.0</ele><time>2026-04-13T04:20:17Z</time></trkpt><trkpt lat="-29.578620443734177" lon="115.28533330341862"><ele>162.0</ele><time>2026-04-13T04:20:18Z</time></trkpt><trkpt lat="-29.57847651634616" lon="115.28519979455473"><ele>162.0</ele><time>2026-04-13T04:20:19Z</time></trkpt><trkpt lat="-29.578333859737807" lon="115.28507024368736"><ele>162.0</ele><time>2026-04-13T04:20:20Z</time></trkpt><trkpt lat="-29.578194595441733" lon="115.28494606661157"><ele>162.0</ele><time>2026-04-13T04:20:21Z</time></trkpt><trkpt lat="-29.578046894667356" lon="115.28481253208041"><ele>162.0</ele><time>2026-04-13T04:20:22Z</time></trkpt><trkpt lat="-29.577904899505594" lon="115.28467855367526"><ele>162.0</ele><time>2026-04-13T04:20:23Z</time></trkpt><trkpt lat="-29.577774623934133" lon="115.28456116680019"><ele>162.0</ele><time>2026-04-13T04:20:24Z</time></trkpt><trkpt lat="-29.577627106668167" lon="115.28442886283638"><ele>162.0</ele><time>2026-04-13T04:20:25Z</time></trkpt><trkpt lat="-29.577500479267783" lon="115.28430546164594"><ele>162.0</ele><time>2026-04-13T04:20:26Z</time></trkpt><trkpt lat="-29.577375028420775" lon="115.28418564253246"><ele>162.0</ele><time>2026-04-13T04:20:27Z</time></trkpt><trkpt lat="-29.57725250238508" lon="115.2840703123046"><ele>162.0</ele><time>2026-04-13T04:20:28Z</time></trkpt><trkpt lat="-29.57712649201679" lon="115.28395978891062"><ele>162.0</ele><time>2026-04-13T04:20:29Z</time></trkpt><trkpt lat="-29.57701310584699" lon="115.28385391945841"><ele>162.0</ele><time>2026-04-13T04:20:30Z</time></trkpt><trkpt lat="-29.576895079559005" lon="115.28374589898488"><ele>162.25</ele><time>2026-04-13T04:20:31Z</time></trkpt><trkpt lat="-29.57678448363356" lon="115.2836424745066"><ele>162.5</ele><time>2026-04-13T04:20:32Z</time></trkpt><trkpt lat="-29.576666436467903" lon="115.28353502266312"><ele>162.75</ele><time>2026-04-13T04:20:33Z</time></trkpt><trkpt lat="-29.576560854920082" lon="115.28343155442651"><ele>163.0</ele><time>2026-04-13T04:20:34Z</time></trkpt><trkpt lat="-29.57644890946419" lon="115.28333019483566"><ele>163.0</ele><time>2026-04-13T04:20:35Z</time></trkpt><trkpt lat="-29.576329143590314" lon="115.28321741945865"><ele>163.0</ele><time>2026-04-13T04:20:36Z</time></trkpt><trkpt lat="-29.576223045187515" lon="115.28311409502297"><ele>163.0</ele><time>2026-04-13T04:20:37Z</time></trkpt><trkpt lat="-29.576109839606993" lon="115.28301164141125"><ele>163.0</ele><time>2026-04-13T04:20:38Z</time></trkpt><trkpt lat="-29.575987832558297" lon="115.2829168636175"><ele>163.25</ele><time>2026-04-13T04:20:39Z</time></trkpt><trkpt lat="-29.57586908005763" lon="115.28281569830037"><ele>163.5</ele><time>2026-04-13T04:20:40Z</time></trkpt><trkpt lat="-29.57576552705215" lon="115.28270666067003"><ele>163.75</ele><time>2026-04-13T04:20:41Z</time></trkpt><trkpt lat="-29.57566112506671" lon="115.28259657789403"><ele>164.0</ele><time>2026-04-13T04:20:42Z</time></trkpt><trkpt lat="-29.575550938047613" lon="115.2824929501104"><ele>164.0</ele><time>2026-04-13T04:20:43Z</time></trkpt><trkpt lat="-29.575436773962924" lon="115.28238826458531"><ele>164.0</ele><time>2026-04-13T04:20:44Z</time></trkpt><trkpt lat="-29.575323741370728" lon="115.28228784593108"><ele>164.0</ele><time>2026-04-13T04:20:45Z</time></trkpt><trkpt lat="-29.57520869151886" lon="115.28218621026934"><ele>164.0</ele><time>2026-04-13T04:20:46Z</time></trkpt><trkpt lat="-29.575092313619276" lon="115.28208078600684"><ele>164.75</ele><time>2026-04-13T04:20:47Z</time></trkpt><trkpt lat="-29.574977543748947" lon="115.28197456163117"><ele>165.5</ele><time>2026-04-13T04:20:48Z</time></trkpt><trkpt lat="-29.574863155530966" lon="115.28187592704695"><ele>166.25</ele><time>2026-04-13T04:20:49Z</time></trkpt><trkpt lat="-29.57474602472806" lon="115.28177231234459"><ele>167.0</ele><time>2026-04-13T04:20:50Z</time></trkpt><trkpt lat="-29.574630779799108" lon="115.28166580052846"><ele>167.0</ele><time>2026-04-13T04:20:51Z</time></trkpt><trkpt lat="-29.574515087053197" lon="115.28155173756024"><ele>167.0</ele><time>2026-04-13T04:20:52Z</time></trkpt><trkpt lat="-29.574395653193776" lon="115.28145160718678"><ele>167.0</ele><time>2026-04-13T04:20:53Z</time></trkpt><trkpt lat="-29.574272185107166" lon="115.28134811907329"><ele>167.0</ele><time>2026-04-13T04:20:54Z</time></trkpt><trkpt lat="-29.57414622719977" lon="115.28123522479397"><ele>167.0</ele><time>2026-04-13T04:20:55Z</time></trkpt><trkpt lat="-29.574023264335043" lon="115.281117705915"><ele>167.0</ele><time>2026-04-13T04:20:56Z</time></trkpt><trkpt lat="-29.573887723148413" lon="115.28099493440362"><ele>167.0</ele><time>2026-04-13T04:20:57Z</time></trkpt><trkpt lat="-29.573760241955576" lon="115.28087683471274"><ele>167.0</ele><time>2026-04-13T04:20:58Z</time></trkpt><trkpt lat="-29.573642325068054" lon="115.28077053936103"><ele>167.0</ele><time>2026-04-13T04:20:59Z</time></trkpt><trkpt lat="-29.573550820463012" lon="115.28068664292098"><ele>167.0</ele><time>2026-04-13T04:21:00Z</time></trkpt><trkpt lat="-29.57347790328983" lon="115.28062645066368"><ele>167.2</ele><time>2026-04-13T04:21:01Z</time></trkpt><trkpt lat="-29.5734134301778" lon="115.2805702912808"><ele>167.39999999999998</ele><time>2026-04-13T04:21:02Z</time></trkpt><trkpt lat="-29.573342057639884" lon="115.28050497974321"><ele>167.60000000000002</ele><time>2026-04-13T04:21:03Z</time></trkpt><trkpt lat="-29.573254885301278" lon="115.28042626102449"><ele>167.8</ele><time>2026-04-13T04:21:04Z</time></trkpt><trkpt lat="-29.573154924134712" lon="115.28033651492507"><ele>168.0</ele><time>2026-04-13T04:21:05Z</time></trkpt><trkpt lat="-29.5730505632064" lon="115.2802405677862"><ele>168.0</ele><time>2026-04-13T04:21:06Z</time></trkpt><trkpt lat="-29.57293736964646" lon="115.28013901238408"><ele>168.0</ele><time>2026-04-13T04:21:07Z</time></trkpt><trkpt lat="-29.57281769263686" lon="115.28003682495724"><ele>168.0</ele><time>2026-04-13T04:21:08Z</time></trkpt><trkpt lat="-29.572685685285414" lon="115.2799183088758"><ele>167.33333333333334</ele><time>2026-04-13T04:21:09Z</time></trkpt><trkpt lat="-29.572552894884428" lon="115.2797935565981"><ele>166.66666666666669</ele><time>2026-04-13T04:21:10Z</time></trkpt><trkpt lat="-29.572420257576763" lon="115.27966419912504"><ele>166.0</ele><time>2026-04-13T04:21:11Z</time></trkpt><trkpt lat="-29.57228758035997" lon="115.27954147003176"><ele>166.0</ele><time>2026-04-13T04:21:12Z</time></trkpt><trkpt lat="-29.572165976895306" lon="115.27942994526343"><ele>166.0</ele><time>2026-04-13T04:21:13Z</time></trkpt><trkpt lat="-29.57205570008731" lon="115.27932718440896"><ele>166.0</ele><time>2026-04-13T04:21:14Z</time></trkpt><trkpt lat="-29.571948440373784" lon="115.27923300093796"><ele>166.0</ele><time>2026-04-13T04:21:15Z</time></trkpt><trkpt lat="-29.57184487533515" lon="115.27914189696529"><ele>166.33333333333334</ele><time>2026-04-13T04:21:16Z</time></trkpt><trkpt lat="-29.5717345849707" lon="115.27903857677025"><ele>166.66666666666666</ele><time>2026-04-13T04:21:17Z</time></trkpt><trkpt lat="-29.571617869029865" lon="115.27892711242218"><ele>167.0</ele><time>2026-04-13T04:21:18Z</time></trkpt><trkpt lat="-29.571489734797986" lon="115.27880601905464"><ele>166.33333333333331</ele><time>2026-04-13T04:21:19Z</time></trkpt><trkpt lat="-29.571367489159385" lon="115.27869408890994"><ele>165.66666666666666</ele><time>2026-04-13T04:21:20Z</time></trkpt><trkpt lat="-29.571241441515106" lon="115.27858110578316"><ele>165.0</ele><time>2026-04-13T04:21:21Z</time></trkpt><trkpt lat="-29.57111747485081" lon="115.27846443834171"><ele>165.0</ele><time>2026-04-13T04:21:22Z</time></trkpt><trkpt lat="-29.570993098289325" lon="115.27834334632315"><ele>165.0</ele><time>2026-04-13T04:21:23Z</time></trkpt><trkpt lat="-29.57086708196243" lon="115.27822163706972"><ele>165.0</ele><time>2026-04-13T04:21:24Z</time></trkpt><trkpt lat="-29.5707400412031" lon="115.27809701744009"><ele>164.0</ele><time>2026-04-13T04:21:25Z</time></trkpt><trkpt lat="-29.570611923519316" lon="115.27797665748245"><ele>163.0</ele><time>2026-04-13T04:21:26Z</time></trkpt><trkpt lat="-29.570479414154686" lon="115.2778596842487"><ele>162.0</ele><time>2026-04-13T04:21:27Z</time></trkpt><trkpt lat="-29.57035138599551" lon="115.27775180553603"><ele>162.0</ele><time>2026-04-13T04:21:28Z</time></trkpt><trkpt lat="-29.57022358617943" lon="115.27764048771438"><ele>162.0</ele><time>2026-04-13T04:21:29Z</time></trkpt><trkpt lat="-29.570095539840793" lon="115.27752318670538"><ele>162.0</ele><time>2026-04-13T04:21:30Z</time></trkpt><trkpt lat="-29.569971360309058" lon="115.27740349720435"><ele>162.0</ele><time>2026-04-13T04:21:31Z</time></trkpt><trkpt lat="-29.569852600138653" lon="115.27729004337432"><ele>162.0</ele><time>2026-04-13T04:21:32Z</time></trkpt><trkpt lat="-29.569736436245552" lon="115.27717900338597"><ele>162.0</ele><time>2026-04-13T04:21:33Z</time></trkpt><trkpt lat="-29.569610671683936" lon="115.27706935588047"><ele>162.33333333333334</ele><time>2026-04-13T04:21:34Z</time></trkpt><trkpt lat="-29.569470933390484" lon="115.2769481091137"><ele>162.66666666666669</ele><time>2026-04-13T04:21:35Z</time></trkpt><trkpt lat="-29.569338967080338" lon="115.27683894234912"><ele>163.0</ele><time>2026-04-13T04:21:36Z</time></trkpt><trkpt lat="-29.569206662961086" lon="115.27672052816412"><ele>163.0</ele><time>2026-04-13T04:21:37Z</time></trkpt><trkpt lat="-29.569080079651407" lon="115.27660407641703"><ele>163.0</ele><time>2026-04-13T04:21:38Z</time></trkpt><trkpt lat="-29.568950700135282" lon="115.27647945439165"><ele>163.0</ele><time>2026-04-13T04:21:39Z</time></trkpt><trkpt lat="-29.56883391127411" lon="115.2763744058317"><ele>162.75</ele><time>2026-04-13T04:21:40Z</time></trkpt><trkpt lat="-29.568715604755504" lon="115.2762644539174"><ele>162.5</ele><time>2026-04-13T04:21:41Z</time></trkpt><trkpt lat="-29.568596284444144" lon="115.27616134156523"><ele>162.25</ele><time>2026-04-13T04:21:42Z</time></trkpt><trkpt lat="-29.56848213582064" lon="115.27605965240318"><ele>162.0</ele><time>2026-04-13T04:21:43Z</time></trkpt><trkpt lat="-29.568382992692243" lon="115.27597755905208"><ele>162.5</ele><time>2026-04-13T04:21:44Z</time></trkpt><trkpt lat="-29.568300002602033" lon="115.27590988950327"><ele>163.0</ele><time>2026-04-13T04:21:45Z</time></trkpt><trkpt lat="-29.568235420039194" lon="115.27585288232683"><ele>163.5</ele><time>2026-04-13T04:21:46Z</time></trkpt><trkpt lat="-29.568196328828876" lon="115.27577382766746"><ele>164.0</ele><time>2026-04-13T04:21:48Z</time></trkpt><trkpt lat="-29.56820942274779" lon="115.27569991878023"><ele>164.5</ele><time>2026-04-13T04:21:51Z</time></trkpt><trkpt lat="-29.568270999237235" lon="115.27563260936851"><ele>165.0</ele><time>2026-04-13T04:21:53Z</time></trkpt><trkpt lat="-29.568297910455605" lon="115.2755655805572"><ele>165.0</ele><time>2026-04-13T04:21:55Z</time></trkpt><trkpt lat="-29.568222617108653" lon="115.27550607015547"><ele>165.0</ele><time>2026-04-13T04:22:14Z</time></trkpt><trkpt lat="-29.568112559626606" lon="115.27540113058278"><ele>165.0</ele><time>2026-04-13T04:22:16Z</time></trkpt><trkpt lat="-29.568048380544116" lon="115.27533734121262"><ele>165.0</ele><time>2026-04-13T04:22:17Z</time></trkpt><trkpt lat="-29.567970096503384" lon="115.27526415459731"><ele>165.0</ele><time>2026-04-13T04:22:18Z</time></trkpt><trkpt lat="-29.567889462799894" lon="115.27518903600252"><ele>164.75</ele><time>2026-04-13T04:22:19Z</time></trkpt><trkpt lat="-29.5677975563943" lon="115.27510459925087"><ele>164.5</ele><time>2026-04-13T04:22:20Z</time></trkpt><trkpt lat="-29.567693516508033" lon="115.27501052824819"><ele>164.25</ele><time>2026-04-13T04:22:21Z</time></trkpt><trkpt lat="-29.56757743424669" lon="115.27490971963584"><ele>164.0</ele><time>2026-04-13T04:22:22Z</time></trkpt><trkpt lat="-29.56744793050311" lon="115.27479161965621"><ele>164.0</ele><time>2026-04-13T04:22:23Z</time></trkpt><trkpt lat="-29.567314044231214" lon="115.27466778394827"><ele>164.0</ele><time>2026-04-13T04:22:24Z</time></trkpt><trkpt lat="-29.567181488888878" lon="115.2745416356095"><ele>164.0</ele><time>2026-04-13T04:22:25Z</time></trkpt><trkpt lat="-29.567044297519665" lon="115.27441469689042"><ele>164.66666666666666</ele><time>2026-04-13T04:22:26Z</time></trkpt><trkpt lat="-29.5669000454028" lon="115.27427879014301"><ele>165.33333333333334</ele><time>2026-04-13T04:22:27Z</time></trkpt><trkpt lat="-29.5667551355885" lon="115.27414894123464"><ele>166.0</ele><time>2026-04-13T04:22:28Z</time></trkpt><trkpt lat="-29.56661355225337" lon="115.27402000642884"><ele>166.33333333333334</ele><time>2026-04-13T04:22:29Z</time></trkpt><trkpt lat="-29.566473788925595" lon="115.27389245709502"><ele>166.66666666666666</ele><time>2026-04-13T04:22:30Z</time></trkpt><trkpt lat="-29.56634797075272" lon="115.2737730307814"><ele>167.0</ele><time>2026-04-13T04:22:31Z</time></trkpt><trkpt lat="-29.566225055119354" lon="115.27365165910692"><ele>167.66666666666666</ele><time>2026-04-13T04:22:32Z</time></trkpt><trkpt lat="-29.566105851512965" lon="115.27354521831724"><ele>168.33333333333334</ele><time>2026-04-13T04:22:33Z</time></trkpt><trkpt lat="-29.565980671374714" lon="115.27343261068366"><ele>169.0</ele><time>2026-04-13T04:22:34Z</time></trkpt><trkpt lat="-29.56586232457205" lon="115.27331830514952"><ele>169.0</ele><time>2026-04-13T04:22:35Z</time></trkpt><trkpt lat="-29.565751905830286" lon="115.27321759766855"><ele>169.0</ele><time>2026-04-13T04:22:36Z</time></trkpt><trkpt lat="-29.565623781071032" lon="115.27310598137989"><ele>169.0</ele><time>2026-04-13T04:22:37Z</time></trkpt><trkpt lat="-29.565507491898323" lon="115.27300235213447"><ele>169.0</ele><time>2026-04-13T04:22:38Z</time></trkpt><trkpt lat="-29.565390702263848" lon="115.27289032181262"><ele>170.66666666666669</ele><time>2026-04-13T04:22:39Z</time></trkpt><trkpt lat="-29.565268447069094" lon="115.27278196068505"><ele>172.33333333333334</ele><time>2026-04-13T04:22:40Z</time></trkpt><trkpt lat="-29.56513797712809" lon="115.27266778672183"><ele>174.0</ele><time>2026-04-13T04:22:41Z</time></trkpt><trkpt lat="-29.56500096810584" lon="115.27254427201288"><ele>174.0</ele><time>2026-04-13T04:22:42Z</time></trkpt><trkpt lat="-29.564866156749737" lon="115.2724199899949"><ele>174.0</ele><time>2026-04-13T04:22:43Z</time></trkpt><trkpt lat="-29.56473108039661" lon="115.27229009817772"><ele>174.0</ele><time>2026-04-13T04:22:44Z</time></trkpt><trkpt lat="-29.56459342058763" lon="115.27216344854521"><ele>175.66666666666666</ele><time>2026-04-13T04:22:45Z</time></trkpt><trkpt lat="-29.564457176168393" lon="115.27203835591756"><ele>177.33333333333331</ele><time>2026-04-13T04:22:46Z</time></trkpt><trkpt lat="-29.56432190235396" lon="115.27190994749195"><ele>179.0</ele><time>2026-04-13T04:22:47Z</time></trkpt><trkpt lat="-29.564187802456036" lon="115.27178783500186"><ele>179.0</ele><time>2026-04-13T04:22:48Z</time></trkpt><trkpt lat="-29.564047033948956" lon="115.27165440204283"><ele>179.0</ele><time>2026-04-13T04:22:49Z</time></trkpt><trkpt lat="-29.563907016997263" lon="115.27152806368986"><ele>179.0</ele><time>2026-04-13T04:22:50Z</time></trkpt><trkpt lat="-29.563760652646057" lon="115.27139843597345"><ele>180.66666666666666</ele><time>2026-04-13T04:22:51Z</time></trkpt><trkpt lat="-29.56362151039002" lon="115.27127503544385"><ele>182.33333333333334</ele><time>2026-04-13T04:22:52Z</time></trkpt><trkpt lat="-29.563478841541645" lon="115.27114741087223"><ele>184.0</ele><time>2026-04-13T04:22:53Z</time></trkpt><trkpt lat="-29.563341880691773" lon="115.27101636284542"><ele>184.0</ele><time>2026-04-13T04:22:54Z</time></trkpt><trkpt lat="-29.563203330546372" lon="115.27088858945834"><ele>184.0</ele><time>2026-04-13T04:22:55Z</time></trkpt><trkpt lat="-29.563057327858893" lon="115.27075638152529"><ele>184.0</ele><time>2026-04-13T04:22:56Z</time></trkpt><trkpt lat="-29.562928814124596" lon="115.27063769213626"><ele>184.0</ele><time>2026-04-13T04:22:57Z</time></trkpt><trkpt lat="-29.562798768063963" lon="115.27051595366457"><ele>184.0</ele><time>2026-04-13T04:22:58Z</time></trkpt><trkpt lat="-29.5626726249432" lon="115.27039852990535"><ele>184.0</ele><time>2026-04-13T04:22:59Z</time></trkpt><trkpt lat="-29.56255104925744" lon="115.270289367111"><ele>184.0</ele><time>2026-04-13T04:23:00Z</time></trkpt><trkpt lat="-29.562426942427276" lon="115.27017850979912"><ele>184.0</ele><time>2026-04-13T04:23:01Z</time></trkpt><trkpt lat="-29.56231202581979" lon="115.2700746784321"><ele>184.0</ele><time>2026-04-13T04:23:02Z</time></trkpt><trkpt lat="-29.56220408450163" lon="115.26997652815392"><ele>184.0</ele><time>2026-04-13T04:23:03Z</time></trkpt><trkpt lat="-29.562092849661" lon="115.2698670160724"><ele>183.33333333333334</ele><time>2026-04-13T04:23:04Z</time></trkpt><trkpt lat="-29.56197121349806" lon="115.26975424042843"><ele>182.66666666666666</ele><time>2026-04-13T04:23:05Z</time></trkpt><trkpt lat="-29.561845499728157" lon="115.26963934222708"><ele>182.0</ele><time>2026-04-13T04:23:06Z</time></trkpt><trkpt lat="-29.561712052139654" lon="115.26951409422657"><ele>182.0</ele><time>2026-04-13T04:23:07Z</time></trkpt><trkpt lat="-29.561580868587818" lon="115.26939974718135"><ele>182.0</ele><time>2026-04-13T04:23:08Z</time></trkpt><trkpt lat="-29.561443057118513" lon="115.2692761997949"><ele>182.0</ele><time>2026-04-13T04:23:09Z</time></trkpt><trkpt lat="-29.56130152062082" lon="115.26914422164131"><ele>181.66666666666666</ele><time>2026-04-13T04:23:10Z</time></trkpt><trkpt lat="-29.561160605265357" lon="115.26901015130194"><ele>181.33333333333334</ele><time>2026-04-13T04:23:11Z</time></trkpt><trkpt lat="-29.561020531886346" lon="115.26887195515512"><ele>181.0</ele><time>2026-04-13T04:23:11.999Z</time></trkpt><trkpt lat="-29.560888220556084" lon="115.26875135876098"><ele>181.0</ele><time>2026-04-13T04:23:12.999Z</time></trkpt><trkpt lat="-29.56075196855497" lon="115.26862987784475"><ele>181.0</ele><time>2026-04-13T04:23:13.999Z</time></trkpt><trkpt lat="-29.560622115817154" lon="115.26851738396343"><ele>181.0</ele><time>2026-04-13T04:23:14.999Z</time></trkpt><trkpt lat="-29.560493897276665" lon="115.26840485013912"><ele>181.0</ele><time>2026-04-13T04:23:15.999Z</time></trkpt><trkpt lat="-29.56036420715255" lon="115.26828270073786"><ele>181.0</ele><time>2026-04-13T04:23:16.999Z</time></trkpt><trkpt lat="-29.560234489129325" lon="115.26816348977432"><ele>181.0</ele><time>2026-04-13T04:23:17.999Z</time></trkpt><trkpt lat="-29.560111464723573" lon="115.26804783543146"><ele>181.0</ele><time>2026-04-13T04:23:18.999Z</time></trkpt><trkpt lat="-29.56000895518845" lon="115.2679517339692"><ele>181.0</ele><time>2026-04-13T04:23:19.999Z</time></trkpt><trkpt lat="-29.559944974438828" lon="115.26789366837659"><ele>181.0</ele><time>2026-04-13T04:23:20.999Z</time></trkpt><trkpt lat="-29.559888839342428" lon="115.2679279320566"><ele>181.0</ele><time>2026-04-13T04:24:53Z</time></trkpt><trkpt lat="-29.559774860654453" lon="115.26793416965066"><ele>181.0</ele><time>2026-04-13T04:24:55Z</time></trkpt><trkpt lat="-29.559706098627082" lon="115.26793151150498"><ele>181.0</ele><time>2026-04-13T04:24:56Z</time></trkpt><trkpt lat="-29.559642536493104" lon="115.267922603911"><ele>181.0</ele><time>2026-04-13T04:24:57Z</time></trkpt><trkpt lat="-29.559565142365198" lon="115.2679148728151"><ele>181.0</ele><time>2026-04-13T04:24:58Z</time></trkpt><trkpt lat="-29.559489440887155" lon="115.26791567580149"><ele>181.0</ele><time>2026-04-13T04:24:59Z</time></trkpt><trkpt lat="-29.559415088004307" lon="115.26792079957875"><ele>181.0</ele><time>2026-04-13T04:25:00Z</time></trkpt><trkpt lat="-29.559333755932826" lon="115.26792174936816"><ele>181.0</ele><time>2026-04-13T04:25:01Z</time></trkpt><trkpt lat="-29.55924263188981" lon="115.26792353021565"><ele>181.20000000000002</ele><time>2026-04-13T04:25:02Z</time></trkpt><trkpt lat="-29.55914581779647" lon="115.26792821566289"><ele>181.4</ele><time>2026-04-13T04:25:03Z</time></trkpt><trkpt lat="-29.559048945194874" lon="115.26793437658948"><ele>181.6</ele><time>2026-04-13T04:25:04Z</time></trkpt><trkpt lat="-29.558962483909312" lon="115.26794304136521"><ele>181.8</ele><time>2026-04-13T04:25:05Z</time></trkpt><trkpt lat="-29.55886726431827" lon="115.26796113113548"><ele>182.0</ele><time>2026-04-13T04:25:06Z</time></trkpt><trkpt lat="-29.55876259341937" lon="115.26797251043084"><ele>181.75</ele><time>2026-04-13T04:25:07Z</time></trkpt><trkpt lat="-29.558649725443857" lon="115.267972104856"><ele>181.5</ele><time>2026-04-13T04:25:08Z</time></trkpt><trkpt lat="-29.55853170685247" lon="115.26795537024795"><ele>181.25</ele><time>2026-04-13T04:25:09Z</time></trkpt><trkpt lat="-29.558404525802576" lon="115.26793945102087"><ele>181.0</ele><time>2026-04-13T04:25:10Z</time></trkpt><trkpt lat="-29.55827804355513" lon="115.26793193739444"><ele>181.0</ele><time>2026-04-13T04:25:11Z</time></trkpt><trkpt lat="-29.558154400544634" lon="115.26792956975991"><ele>181.0</ele><time>2026-04-13T04:25:12Z</time></trkpt><trkpt lat="-29.558031663989727" lon="115.26793046168203"><ele>181.0</ele><time>2026-04-13T04:25:13Z</time></trkpt><trkpt lat="-29.5579021537154" lon="115.26792968046709"><ele>181.0</ele><time>2026-04-13T04:25:14Z</time></trkpt><trkpt lat="-29.557769887162742" lon="115.26792870319566"><ele>181.5</ele><time>2026-04-13T04:25:15Z</time></trkpt><trkpt lat="-29.55763637905015" lon="115.26792703899844"><ele>182.0</ele><time>2026-04-13T04:25:16Z</time></trkpt><trkpt lat="-29.557499082522042" lon="115.26792541247481"><ele>182.5</ele><time>2026-04-13T04:25:17Z</time></trkpt><trkpt lat="-29.557365125272394" lon="115.267926873797"><ele>183.0</ele><time>2026-04-13T04:25:18Z</time></trkpt><trkpt lat="-29.557241463581786" lon="115.26793058117445"><ele>183.0</ele><time>2026-04-13T04:25:19Z</time></trkpt><trkpt lat="-29.55712380567098" lon="115.2679396387119"><ele>183.0</ele><time>2026-04-13T04:25:20Z</time></trkpt><trkpt lat="-29.557016562145705" lon="115.26795471929724"><ele>183.0</ele><time>2026-04-13T04:25:21Z</time></trkpt><trkpt lat="-29.55691577018219" lon="115.26796963028247"><ele>183.0</ele><time>2026-04-13T04:25:22Z</time></trkpt><trkpt lat="-29.556811503705486" lon="115.26796802333546"><ele>183.0</ele><time>2026-04-13T04:25:23Z</time></trkpt><trkpt lat="-29.5567011027792" lon="115.26795463832237"><ele>182.5</ele><time>2026-04-13T04:25:24Z</time></trkpt><trkpt lat="-29.556577682356114" lon="115.26794935796933"><ele>182.0</ele><time>2026-04-13T04:25:25Z</time></trkpt><trkpt lat="-29.556446273881228" lon="115.267955222681"><ele>181.5</ele><time>2026-04-13T04:25:26Z</time></trkpt><trkpt lat="-29.556290223610837" lon="115.2679527677953"><ele>181.0</ele><time>2026-04-13T04:25:27Z</time></trkpt><trkpt lat="-29.556125321492118" lon="115.26794984869889"><ele>180.33333333333334</ele><time>2026-04-13T04:25:28Z</time></trkpt><trkpt lat="-29.555942025087482" lon="115.26794732557806"><ele>179.66666666666666</ele><time>2026-04-13T04:25:29Z</time></trkpt><trkpt lat="-29.555749804862703" lon="115.26794380754427"><ele>179.0</ele><time>2026-04-13T04:25:30Z</time></trkpt><trkpt lat="-29.55555597866904" lon="115.26794128073517"><ele>179.0</ele><time>2026-04-13T04:25:31Z</time></trkpt><trkpt lat="-29.555372013731056" lon="115.26793640836374"><ele>179.0</ele><time>2026-04-13T04:25:32Z</time></trkpt><trkpt lat="-29.555196553808855" lon="115.26793150956452"><ele>179.0</ele><time>2026-04-13T04:25:33Z</time></trkpt><trkpt lat="-29.55502743662039" lon="115.26793468708883"><ele>179.0</ele><time>2026-04-13T04:25:34Z</time></trkpt><trkpt lat="-29.554850148478515" lon="115.26794227681903"><ele>179.0</ele><time>2026-04-13T04:25:35Z</time></trkpt><trkpt lat="-29.55465394943566" lon="115.26794588603966"><ele>179.0</ele><time>2026-04-13T04:25:36Z</time></trkpt><trkpt lat="-29.5544703206856" lon="115.26794646937041"><ele>178.66666666666666</ele><time>2026-04-13T04:25:37Z</time></trkpt><trkpt lat="-29.554278874112768" lon="115.26794948278"><ele>178.33333333333334</ele><time>2026-04-13T04:25:38Z</time></trkpt><trkpt lat="-29.554090611146282" lon="115.26794456689504"><ele>178.0</ele><time>2026-04-13T04:25:39Z</time></trkpt><trkpt lat="-29.55390338352199" lon="115.26795018640115"><ele>178.0</ele><time>2026-04-13T04:25:40Z</time></trkpt><trkpt lat="-29.553718765654644" lon="115.26794850207257"><ele>178.0</ele><time>2026-04-13T04:25:41Z</time></trkpt><trkpt lat="-29.55354171671845" lon="115.26794407691206"><ele>178.0</ele><time>2026-04-13T04:25:42Z</time></trkpt><trkpt lat="-29.553386063649945" lon="115.2679373457968"><ele>179.66666666666669</ele><time>2026-04-13T04:25:43Z</time></trkpt><trkpt lat="-29.553223793806325" lon="115.26792725273273"><ele>181.33333333333334</ele><time>2026-04-13T04:25:44Z</time></trkpt><trkpt lat="-29.55306473708593" lon="115.26792841889424"><ele>183.0</ele><time>2026-04-13T04:25:45Z</time></trkpt><trkpt lat="-29.552897001294212" lon="115.2679353207148"><ele>184.0</ele><time>2026-04-13T04:25:46Z</time></trkpt><trkpt lat="-29.55271995306725" lon="115.26794531186152"><ele>185.0</ele><time>2026-04-13T04:25:47Z</time></trkpt><trkpt lat="-29.55253336728673" lon="115.26794648444387"><ele>186.0</ele><time>2026-04-13T04:25:48Z</time></trkpt><trkpt lat="-29.552344104606142" lon="115.2679467320804"><ele>186.0</ele><time>2026-04-13T04:25:49Z</time></trkpt><trkpt lat="-29.552150100973154" lon="115.26794390700073"><ele>186.0</ele><time>2026-04-13T04:25:50Z</time></trkpt><trkpt lat="-29.55196018547522" lon="115.2679431683342"><ele>186.0</ele><time>2026-04-13T04:25:51Z</time></trkpt><trkpt lat="-29.551773124726267" lon="115.26793988291818"><ele>186.33333333333334</ele><time>2026-04-13T04:25:52Z</time></trkpt><trkpt lat="-29.551596063349322" lon="115.26794358370192"><ele>186.66666666666669</ele><time>2026-04-13T04:25:53Z</time></trkpt><trkpt lat="-29.55141860862718" lon="115.26794448880153"><ele>187.0</ele><time>2026-04-13T04:25:54Z</time></trkpt><trkpt lat="-29.55123401822064" lon="115.26793768192742"><ele>187.0</ele><time>2026-04-13T04:25:55Z</time></trkpt><trkpt lat="-29.5510383757585" lon="115.26793008295112"><ele>187.0</ele><time>2026-04-13T04:25:56Z</time></trkpt><trkpt lat="-29.550822426227462" lon="115.26793168843838"><ele>187.0</ele><time>2026-04-13T04:25:57Z</time></trkpt><trkpt lat="-29.550608463415774" lon="115.26793222974217"><ele>187.0</ele><time>2026-04-13T04:25:58Z</time></trkpt><trkpt lat="-29.550395660344655" lon="115.26793473358741"><ele>187.0</ele><time>2026-04-13T04:25:59Z</time></trkpt><trkpt lat="-29.55017206201801" lon="115.26793208874464"><ele>187.0</ele><time>2026-04-13T04:26:00Z</time></trkpt><trkpt lat="-29.549961947663817" lon="115.26793378284805"><ele>187.33333333333334</ele><time>2026-04-13T04:26:01Z</time></trkpt><trkpt lat="-29.54975069990012" lon="115.26793380265951"><ele>187.66666666666666</ele><time>2026-04-13T04:26:02Z</time></trkpt><trkpt lat="-29.549540537030385" lon="115.26793457250486"><ele>188.0</ele><time>2026-04-13T04:26:03Z</time></trkpt><trkpt lat="-29.54933527299775" lon="115.26793584188958"><ele>188.0</ele><time>2026-04-13T04:26:04Z</time></trkpt><trkpt lat="-29.549125814693586" lon="115.26794168483246"><ele>188.0</ele><time>2026-04-13T04:26:05Z</time></trkpt><trkpt lat="-29.548911857562768" lon="115.26794476188627"><ele>188.0</ele><time>2026-04-13T04:26:06Z</time></trkpt><trkpt lat="-29.548694490422843" lon="115.26794753987278"><ele>188.33333333333331</ele><time>2026-04-13T04:26:07Z</time></trkpt><trkpt lat="-29.548484145276387" lon="115.26794561244078"><ele>188.66666666666666</ele><time>2026-04-13T04:26:08Z</time></trkpt><trkpt lat="-29.54827503929899" lon="115.26794787313396"><ele>189.0</ele><time>2026-04-13T04:26:09Z</time></trkpt><trkpt lat="-29.54806454664284" lon="115.26795099924557"><ele>189.33333333333334</ele><time>2026-04-13T04:26:10Z</time></trkpt><trkpt lat="-29.54785943044102" lon="115.26795118823334"><ele>189.66666666666669</ele><time>2026-04-13T04:26:11Z</time></trkpt><trkpt lat="-29.54767309861416" lon="115.2679515338584"><ele>190.0</ele><time>2026-04-13T04:26:12Z</time></trkpt><trkpt lat="-29.54748899694497" lon="115.26795034797186"><ele>190.0</ele><time>2026-04-13T04:26:13Z</time></trkpt><trkpt lat="-29.5473185140668" lon="115.26794744334623"><ele>190.0</ele><time>2026-04-13T04:26:14Z</time></trkpt><trkpt lat="-29.547144392768043" lon="115.26794796978733"><ele>190.0</ele><time>2026-04-13T04:26:15Z</time></trkpt><trkpt lat="-29.546979786298625" lon="115.26795114631229"><ele>188.33333333333334</ele><time>2026-04-13T04:26:16Z</time></trkpt><trkpt lat="-29.54680700304892" lon="115.267945068849"><ele>186.66666666666666</ele><time>2026-04-13T04:26:17Z</time></trkpt><trkpt lat="-29.54662640761624" lon="115.26794805008532"><ele>185.0</ele><time>2026-04-13T04:26:18Z</time></trkpt><trkpt lat="-29.546452078986345" lon="115.26795219904486"><ele>185.0</ele><time>2026-04-13T04:26:19Z</time></trkpt><trkpt lat="-29.546283381296153" lon="115.26795797392808"><ele>185.0</ele><time>2026-04-13T04:26:20Z</time></trkpt><trkpt lat="-29.546106015036273" lon="115.26796263706888"><ele>185.0</ele><time>2026-04-13T04:26:21Z</time></trkpt><trkpt lat="-29.54592721574708" lon="115.26797243610046"><ele>185.66666666666666</ele><time>2026-04-13T04:26:22Z</time></trkpt><trkpt lat="-29.545746382610822" lon="115.26797378735569"><ele>186.33333333333334</ele><time>2026-04-13T04:26:23Z</time></trkpt><trkpt lat="-29.545561602480234" lon="115.26797011398003"><ele>187.0</ele><time>2026-04-13T04:26:24Z</time></trkpt><trkpt lat="-29.545363822535634" lon="115.26796248020449"><ele>189.0</ele><time>2026-04-13T04:26:25Z</time></trkpt><trkpt lat="-29.54517284598932" lon="115.26796284182852"><ele>191.0</ele><time>2026-04-13T04:26:26Z</time></trkpt><trkpt lat="-29.544982241886608" lon="115.2679640063335"><ele>193.0</ele><time>2026-04-13T04:26:27Z</time></trkpt><trkpt lat="-29.54478588661955" lon="115.26796299885861"><ele>193.0</ele><time>2026-04-13T04:26:28Z</time></trkpt><trkpt lat="-29.544585208619324" lon="115.26796162402043"><ele>193.0</ele><time>2026-04-13T04:26:29Z</time></trkpt><trkpt lat="-29.54438430363117" lon="115.26795540746018"><ele>193.0</ele><time>2026-04-13T04:26:30Z</time></trkpt><trkpt lat="-29.54417792007943" lon="115.2679498300498"><ele>192.66666666666666</ele><time>2026-04-13T04:26:31Z</time></trkpt><trkpt lat="-29.543959763450747" lon="115.26794387622763"><ele>192.33333333333331</ele><time>2026-04-13T04:26:32Z</time></trkpt><trkpt lat="-29.543758812405837" lon="115.26794728911574"><ele>192.0</ele><time>2026-04-13T04:26:33Z</time></trkpt><trkpt lat="-29.54356218056266" lon="115.26794662896023"><ele>192.0</ele><time>2026-04-13T04:26:34Z</time></trkpt><trkpt lat="-29.543370539618223" lon="115.26794976366511"><ele>192.0</ele><time>2026-04-13T04:26:35Z</time></trkpt><trkpt lat="-29.54318195394982" lon="115.26795053772948"><ele>192.0</ele><time>2026-04-13T04:26:36Z</time></trkpt><trkpt lat="-29.542991324218793" lon="115.2679482279612"><ele>192.66666666666669</ele><time>2026-04-13T04:26:37Z</time></trkpt><trkpt lat="-29.542801108010156" lon="115.26794564547966"><ele>193.33333333333334</ele><time>2026-04-13T04:26:38Z</time></trkpt><trkpt lat="-29.542618991429812" lon="115.26794222871015"><ele>194.0</ele><time>2026-04-13T04:26:39Z</time></trkpt><trkpt lat="-29.542434675310766" lon="115.2679441072876"><ele>194.0</ele><time>2026-04-13T04:26:40Z</time></trkpt><trkpt lat="-29.542243835322207" lon="115.26793590314028"><ele>194.0</ele><time>2026-04-13T04:26:41Z</time></trkpt><trkpt lat="-29.542067849915206" lon="115.2679279713153"><ele>194.0</ele><time>2026-04-13T04:26:42Z</time></trkpt><trkpt lat="-29.541898273280847" lon="115.2679324964257"><ele>194.33333333333334</ele><time>2026-04-13T04:26:43Z</time></trkpt><trkpt lat="-29.54172948948139" lon="115.26793910709907"><ele>194.66666666666669</ele><time>2026-04-13T04:26:44Z</time></trkpt><trkpt lat="-29.541560959119742" lon="115.26794059365199"><ele>195.0</ele><time>2026-04-13T04:26:45Z</time></trkpt><trkpt lat="-29.541409008548268" lon="115.26793444216568"><ele>195.0</ele><time>2026-04-13T04:26:46Z</time></trkpt><trkpt lat="-29.541264422571814" lon="115.26793324918987"><ele>195.0</ele><time>2026-04-13T04:26:47Z</time></trkpt><trkpt lat="-29.54113257969743" lon="115.2679337621193"><ele>195.0</ele><time>2026-04-13T04:26:48Z</time></trkpt><trkpt lat="-29.54101285469716" lon="115.26793253400731"><ele>195.0</ele><time>2026-04-13T04:26:49Z</time></trkpt><trkpt lat="-29.540896379793093" lon="115.26793865966948"><ele>195.4</ele><time>2026-04-13T04:26:50Z</time></trkpt><trkpt lat="-29.540795811213215" lon="115.26794980199254"><ele>195.8</ele><time>2026-04-13T04:26:51Z</time></trkpt><trkpt lat="-29.540702748309794" lon="115.26796968927303"><ele>196.2</ele><time>2026-04-13T04:26:52Z</time></trkpt><trkpt lat="-29.540609536210855" lon="115.26798021603979"><ele>196.6</ele><time>2026-04-13T04:26:53Z</time></trkpt><trkpt lat="-29.540509795849744" lon="115.26797558511666"><ele>197.0</ele><time>2026-04-13T04:26:54Z</time></trkpt><trkpt lat="-29.54041002334938" lon="115.26796095860506"><ele>197.2</ele><time>2026-04-13T04:26:55Z</time></trkpt><trkpt lat="-29.540308254639754" lon="115.26794021079358"><ele>197.39999999999998</ele><time>2026-04-13T04:26:56Z</time></trkpt><trkpt lat="-29.540206701691265" lon="115.26793455763256"><ele>197.60000000000002</ele><time>2026-04-13T04:26:57Z</time></trkpt><trkpt lat="-29.54011024791092" lon="115.26794020498444"><ele>197.8</ele><time>2026-04-13T04:26:58Z</time></trkpt><trkpt lat="-29.540016297617115" lon="115.26796161700237"><ele>198.0</ele><time>2026-04-13T04:26:59Z</time></trkpt><trkpt lat="-29.539908999631542" lon="115.2679656602915"><ele>198.0</ele><time>2026-04-13T04:27:00Z</time></trkpt><trkpt lat="-29.539807972311323" lon="115.26795098352846"><ele>198.0</ele><time>2026-04-13T04:27:01Z</time></trkpt><trkpt lat="-29.5397102001036" lon="115.26794646857445"><ele>198.0</ele><time>2026-04-13T04:27:02Z</time></trkpt><trkpt lat="-29.539623320994643" lon="115.26795017606057"><ele>198.0</ele><time>2026-04-13T04:27:03Z</time></trkpt><trkpt lat="-29.539511531893474" lon="115.26795043231984"><ele>198.0</ele><time>2026-04-13T04:27:04Z</time></trkpt><trkpt lat="-29.53938947212343" lon="115.26795157700211"><ele>198.25</ele><time>2026-04-13T04:27:05Z</time></trkpt><trkpt lat="-29.539259786236403" lon="115.2679529769046"><ele>198.5</ele><time>2026-04-13T04:27:06Z</time></trkpt><trkpt lat="-29.53913032128711" lon="115.26795163012879"><ele>198.75</ele><time>2026-04-13T04:27:07Z</time></trkpt><trkpt lat="-29.538994004491204" lon="115.26795555409322"><ele>199.0</ele><time>2026-04-13T04:27:08Z</time></trkpt><trkpt lat="-29.53885290518082" lon="115.26795343353243"><ele>199.0</ele><time>2026-04-13T04:27:09Z</time></trkpt><trkpt lat="-29.53872040212944" lon="115.26794165382933"><ele>199.0</ele><time>2026-04-13T04:27:10Z</time></trkpt><trkpt lat="-29.538594900776438" lon="115.26793093307988"><ele>199.0</ele><time>2026-04-13T04:27:11Z</time></trkpt><trkpt lat="-29.538464318414192" lon="115.2679255696248"><ele>199.0</ele><time>2026-04-13T04:27:12Z</time></trkpt><trkpt lat="-29.538307905494655" lon="115.26792748316579"><ele>199.66666666666666</ele><time>2026-04-13T04:27:13Z</time></trkpt><trkpt lat="-29.538148362787442" lon="115.26793034097695"><ele>200.33333333333331</ele><time>2026-04-13T04:27:14Z</time></trkpt><trkpt lat="-29.537977551015402" lon="115.267928880818"><ele>201.0</ele><time>2026-04-13T04:27:15Z</time></trkpt><trkpt lat="-29.537801000510303" lon="115.26792956310788"><ele>201.0</ele><time>2026-04-13T04:27:16Z</time></trkpt><trkpt lat="-29.537626308703363" lon="115.26792992106432"><ele>201.0</ele><time>2026-04-13T04:27:17Z</time></trkpt><trkpt lat="-29.53747377582633" lon="115.26794018898347"><ele>201.0</ele><time>2026-04-13T04:27:18Z</time></trkpt><trkpt lat="-29.537336401996377" lon="115.26794854729762"><ele>201.0</ele><time>2026-04-13T04:27:19Z</time></trkpt><trkpt lat="-29.537196549790945" lon="115.26795480022685"><ele>201.0</ele><time>2026-04-13T04:27:20Z</time></trkpt><trkpt lat="-29.537044796281677" lon="115.26795150936532"><ele>201.0</ele><time>2026-04-13T04:27:21Z</time></trkpt><trkpt lat="-29.536881916520127" lon="115.26794797974466"><ele>200.0</ele><time>2026-04-13T04:27:22Z</time></trkpt><trkpt lat="-29.536716234634923" lon="115.26794852314998"><ele>199.0</ele><time>2026-04-13T04:27:23Z</time></trkpt><trkpt lat="-29.536551202623173" lon="115.26794910951915"><ele>198.0</ele><time>2026-04-13T04:27:24Z</time></trkpt><trkpt lat="-29.53638042985432" lon="115.26795059348781"><ele>196.33333333333331</ele><time>2026-04-13T04:27:25Z</time></trkpt><trkpt lat="-29.536215802694368" lon="115.26795234104698"><ele>194.66666666666666</ele><time>2026-04-13T04:27:26Z</time></trkpt><trkpt lat="-29.536044368441665" lon="115.26795217215482"><ele>193.0</ele><time>2026-04-13T04:27:27Z</time></trkpt><trkpt lat="-29.535866691311895" lon="115.26795186152465"><ele>193.0</ele><time>2026-04-13T04:27:28Z</time></trkpt><trkpt lat="-29.53568963641862" lon="115.26795016634625"><ele>193.0</ele><time>2026-04-13T04:27:29Z</time></trkpt><trkpt lat="-29.535520506071265" lon="115.26794665774987"><ele>193.0</ele><time>2026-04-13T04:27:30Z</time></trkpt><trkpt lat="-29.535356702993187" lon="115.26794621990129"><ele>192.0</ele><time>2026-04-13T04:27:31Z</time></trkpt><trkpt lat="-29.53519959610607" lon="115.26795057569284"><ele>191.0</ele><time>2026-04-13T04:27:32Z</time></trkpt><trkpt lat="-29.535030404764004" lon="115.26795283232528"><ele>190.0</ele><time>2026-04-13T04:27:33Z</time></trkpt><trkpt lat="-29.534861772848227" lon="115.26795438610074"><ele>190.0</ele><time>2026-04-13T04:27:34Z</time></trkpt><trkpt lat="-29.53468963006067" lon="115.2679512693596"><ele>190.0</ele><time>2026-04-13T04:27:35Z</time></trkpt><trkpt lat="-29.534521729478367" lon="115.26794934028202"><ele>190.0</ele><time>2026-04-13T04:27:36Z</time></trkpt><trkpt lat="-29.534352510677554" lon="115.26794984711874"><ele>188.33333333333334</ele><time>2026-04-13T04:27:37Z</time></trkpt><trkpt lat="-29.53417416662875" lon="115.2679464865536"><ele>186.66666666666666</ele><time>2026-04-13T04:27:38Z</time></trkpt><trkpt lat="-29.533993624493778" lon="115.26794452398137"><ele>185.0</ele><time>2026-04-13T04:27:39Z</time></trkpt><trkpt lat="-29.53380900350939" lon="115.26794702367867"><ele>184.0</ele><time>2026-04-13T04:27:40Z</time></trkpt><trkpt lat="-29.53362956359709" lon="115.26794811879778"><ele>183.0</ele><time>2026-04-13T04:27:41Z</time></trkpt><trkpt lat="-29.53345697827131" lon="115.26794699734045"><ele>182.0</ele><time>2026-04-13T04:27:42Z</time></trkpt><trkpt lat="-29.533278686734132" lon="115.26794611297142"><ele>182.0</ele><time>2026-04-13T04:27:43Z</time></trkpt><trkpt lat="-29.53308090524476" lon="115.26794543614399"><ele>182.0</ele><time>2026-04-13T04:27:44Z</time></trkpt><trkpt lat="-29.53287758685649" lon="115.26794530977315"><ele>182.0</ele><time>2026-04-13T04:27:45Z</time></trkpt><trkpt lat="-29.53268029612583" lon="115.26794571856158"><ele>181.33333333333331</ele><time>2026-04-13T04:27:46Z</time></trkpt><trkpt lat="-29.532503724830367" lon="115.2679451998992"><ele>180.66666666666666</ele><time>2026-04-13T04:27:47Z</time></trkpt><trkpt lat="-29.532350898891735" lon="115.26794553442443"><ele>180.0</ele><time>2026-04-13T04:27:48Z</time></trkpt><trkpt lat="-29.532213972507606" lon="115.26794303703704"><ele>180.0</ele><time>2026-04-13T04:27:49Z</time></trkpt><trkpt lat="-29.532086416247147" lon="115.26792989545547"><ele>180.0</ele><time>2026-04-13T04:27:50Z</time></trkpt><trkpt lat="-29.53196582712183" lon="115.26791477551842"><ele>180.0</ele><time>2026-04-13T04:27:51Z</time></trkpt><trkpt lat="-29.531864260932846" lon="115.26790443530896"><ele>180.0</ele><time>2026-04-13T04:27:52Z</time></trkpt><trkpt lat="-29.53178505168587" lon="115.26790204929573"><ele>180.0</ele><time>2026-04-13T04:27:53Z</time></trkpt><trkpt lat="-29.53170243678869" lon="115.26791166274334"><ele>179.83333333333334</ele><time>2026-04-13T04:27:55Z</time></trkpt><trkpt lat="-29.531663867163598" lon="115.26797564430174"><ele>179.66666666666666</ele><time>2026-04-13T04:28:11Z</time></trkpt><trkpt lat="-29.531617603552352" lon="115.26808069217881"><ele>179.5</ele><time>2026-04-13T04:28:14Z</time></trkpt><trkpt lat="-29.531628440004308" lon="115.26820183310136"><ele>179.33333333333331</ele><time>2026-04-13T04:28:16Z</time></trkpt><trkpt lat="-29.53163487253081" lon="115.26827904894031"><ele>179.16666666666666</ele><time>2026-04-13T04:28:17Z</time></trkpt><trkpt lat="-29.53164066836354" lon="115.26837883311714"><ele>179.0</ele><time>2026-04-13T04:28:18Z</time></trkpt><trkpt lat="-29.531645579967254" lon="115.26850312854218"><ele>179.0</ele><time>2026-04-13T04:28:19Z</time></trkpt><trkpt lat="-29.531650159908104" lon="115.26863322572966"><ele>179.0</ele><time>2026-04-13T04:28:20Z</time></trkpt><trkpt lat="-29.53165035830456" lon="115.2687754193473"><ele>179.0</ele><time>2026-04-13T04:28:21Z</time></trkpt><trkpt lat="-29.531650420662363" lon="115.26891322187993"><ele>179.0</ele><time>2026-04-13T04:28:22Z</time></trkpt><trkpt lat="-29.531647561329493" lon="115.26905588715233"><ele>179.0</ele><time>2026-04-13T04:28:23Z</time></trkpt><trkpt lat="-29.53164631885475" lon="115.26918534297289"><ele>179.0</ele><time>2026-04-13T04:28:24Z</time></trkpt><trkpt lat="-29.531649697043527" lon="115.26931083567713"><ele>179.0</ele><time>2026-04-13T04:28:25Z</time></trkpt><trkpt lat="-29.531653891767125" lon="115.26944163805958"><ele>179.0</ele><time>2026-04-13T04:28:26Z</time></trkpt><trkpt lat="-29.531656709153477" lon="115.26957865918087"><ele>179.0</ele><time>2026-04-13T04:28:27Z</time></trkpt><trkpt lat="-29.53165951210683" lon="115.26970475698036"><ele>179.0</ele><time>2026-04-13T04:28:28Z</time></trkpt><trkpt lat="-29.531658070180107" lon="115.269841707093"><ele>179.0</ele><time>2026-04-13T04:28:29Z</time></trkpt><trkpt lat="-29.5316593934344" lon="115.26997546252896"><ele>179.0</ele><time>2026-04-13T04:28:30Z</time></trkpt><trkpt lat="-29.531656859981336" lon="115.27010988292257"><ele>180.25</ele><time>2026-04-13T04:28:31Z</time></trkpt><trkpt lat="-29.53165449954577" lon="115.27025873591677"><ele>181.5</ele><time>2026-04-13T04:28:32Z</time></trkpt><trkpt lat="-29.53165443538327" lon="115.27041947884834"><ele>182.75</ele><time>2026-04-13T04:28:33Z</time></trkpt><trkpt lat="-29.531658091118178" lon="115.27057283194563"><ele>184.0</ele><time>2026-04-13T04:28:34Z</time></trkpt><trkpt lat="-29.53165902796641" lon="115.27071984544408"><ele>184.0</ele><time>2026-04-13T04:28:35Z</time></trkpt><trkpt lat="-29.53165839840203" lon="115.27086150271924"><ele>184.0</ele><time>2026-04-13T04:28:36Z</time></trkpt><trkpt lat="-29.531657976717288" lon="115.27099345313356"><ele>184.0</ele><time>2026-04-13T04:28:37Z</time></trkpt><trkpt lat="-29.53165702943279" lon="115.2711210916993"><ele>184.0</ele><time>2026-04-13T04:28:38Z</time></trkpt><trkpt lat="-29.53165203455389" lon="115.27123258830225"><ele>184.0</ele><time>2026-04-13T04:28:39Z</time></trkpt><trkpt lat="-29.531648569004226" lon="115.27134607629993"><ele>184.5</ele><time>2026-04-13T04:28:40Z</time></trkpt><trkpt lat="-29.531653112681585" lon="115.2714646428358"><ele>185.0</ele><time>2026-04-13T04:28:41Z</time></trkpt><trkpt lat="-29.531656247227822" lon="115.27159483047053"><ele>185.5</ele><time>2026-04-13T04:28:42Z</time></trkpt><trkpt lat="-29.531654331820505" lon="115.27173325485066"><ele>186.0</ele><time>2026-04-13T04:28:43Z</time></trkpt><trkpt lat="-29.531651614363806" lon="115.27187420999985"><ele>186.0</ele><time>2026-04-13T04:28:44Z</time></trkpt><trkpt lat="-29.53165180690396" lon="115.27201487321312"><ele>186.0</ele><time>2026-04-13T04:28:45Z</time></trkpt><trkpt lat="-29.53165551698276" lon="115.27215942668867"><ele>186.0</ele><time>2026-04-13T04:28:46Z</time></trkpt><trkpt lat="-29.531657104934013" lon="115.27230046928634"><ele>186.0</ele><time>2026-04-13T04:28:47Z</time></trkpt><trkpt lat="-29.531656599700753" lon="115.27244617726349"><ele>186.25</ele><time>2026-04-13T04:28:48Z</time></trkpt><trkpt lat="-29.531656441312766" lon="115.27258992723613"><ele>186.5</ele><time>2026-04-13T04:28:49Z</time></trkpt><trkpt lat="-29.531655941636775" lon="115.27272690895201"><ele>186.75</ele><time>2026-04-13T04:28:50Z</time></trkpt><trkpt lat="-29.5316566218775" lon="115.2728641284949"><ele>187.0</ele><time>2026-04-13T04:28:51Z</time></trkpt><trkpt lat="-29.531652077709705" lon="115.2730109588949"><ele>188.0</ele><time>2026-04-13T04:28:52Z</time></trkpt><trkpt lat="-29.53164902270693" lon="115.2731641525859"><ele>189.0</ele><time>2026-04-13T04:28:53Z</time></trkpt><trkpt lat="-29.531642957150623" lon="115.2733181730625"><ele>190.0</ele><time>2026-04-13T04:28:54Z</time></trkpt><trkpt lat="-29.531640786821676" lon="115.2734601554195"><ele>191.0</ele><time>2026-04-13T04:28:55Z</time></trkpt><trkpt lat="-29.531639866364376" lon="115.2736200792054"><ele>191.0</ele><time>2026-04-13T04:28:56Z</time></trkpt><trkpt lat="-29.531640965880353" lon="115.27379070146506"><ele>191.0</ele><time>2026-04-13T04:28:57Z</time></trkpt><trkpt lat="-29.53163615264349" lon="115.27395846246726"><ele>191.0</ele><time>2026-04-13T04:28:58Z</time></trkpt><trkpt lat="-29.53163929773621" lon="115.27411904712598"><ele>191.0</ele><time>2026-04-13T04:28:59Z</time></trkpt><trkpt lat="-29.531643690582914" lon="115.27427246366246"><ele>192.0</ele><time>2026-04-13T04:29:00Z</time></trkpt><trkpt lat="-29.531651871126375" lon="115.27442791953902"><ele>193.0</ele><time>2026-04-13T04:29:01Z</time></trkpt><trkpt lat="-29.531653605886785" lon="115.27459475512778"><ele>194.0</ele><time>2026-04-13T04:29:02Z</time></trkpt><trkpt lat="-29.531652213052453" lon="115.27476035204893"><ele>195.0</ele><time>2026-04-13T04:29:03Z</time></trkpt><trkpt lat="-29.53165390975937" lon="115.27493003627728"><ele>196.0</ele><time>2026-04-13T04:29:04Z</time></trkpt><trkpt lat="-29.531650648824737" lon="115.27510768908239"><ele>197.0</ele><time>2026-04-13T04:29:05Z</time></trkpt><trkpt lat="-29.531640020929512" lon="115.27527989126342"><ele>198.0</ele><time>2026-04-13T04:29:06Z</time></trkpt><trkpt lat="-29.53163780212776" lon="115.27545954327725"><ele>199.0</ele><time>2026-04-13T04:29:07Z</time></trkpt><trkpt lat="-29.531641705650152" lon="115.27565648891382"><ele>200.0</ele><time>2026-04-13T04:29:08Z</time></trkpt><trkpt lat="-29.531644719446533" lon="115.2758766620044"><ele>201.0</ele><time>2026-04-13T04:29:09Z</time></trkpt><trkpt lat="-29.53164898573114" lon="115.2760819378869"><ele>201.0</ele><time>2026-04-13T04:29:10Z</time></trkpt><trkpt lat="-29.53164943516414" lon="115.27627813212357"><ele>201.0</ele><time>2026-04-13T04:29:11Z</time></trkpt><trkpt lat="-29.531651547296075" lon="115.27648319442852"><ele>201.0</ele><time>2026-04-13T04:29:12Z</time></trkpt><trkpt lat="-29.53165045608745" lon="115.27669336110408"><ele>201.0</ele><time>2026-04-13T04:29:13Z</time></trkpt><trkpt lat="-29.53165072771829" lon="115.27689770334374"><ele>201.0</ele><time>2026-04-13T04:29:14Z</time></trkpt><trkpt lat="-29.53165005950496" lon="115.27708980017069"><ele>201.0</ele><time>2026-04-13T04:29:15Z</time></trkpt><trkpt lat="-29.531648831789077" lon="115.27728349807883"><ele>200.0</ele><time>2026-04-13T04:29:16Z</time></trkpt><trkpt lat="-29.53164624153676" lon="115.27747739799706"><ele>199.0</ele><time>2026-04-13T04:29:17Z</time></trkpt><trkpt lat="-29.53164377368147" lon="115.27766988602478"><ele>198.0</ele><time>2026-04-13T04:29:18Z</time></trkpt><trkpt lat="-29.531648146437348" lon="115.27784944648776"><ele>198.0</ele><time>2026-04-13T04:29:19Z</time></trkpt><trkpt lat="-29.53165071617975" lon="115.27803299114828"><ele>198.0</ele><time>2026-04-13T04:29:20Z</time></trkpt><trkpt lat="-29.531649782363008" lon="115.27824201565075"><ele>198.0</ele><time>2026-04-13T04:29:21Z</time></trkpt><trkpt lat="-29.53164855172904" lon="115.27847200149124"><ele>199.0</ele><time>2026-04-13T04:29:22Z</time></trkpt><trkpt lat="-29.53165403903794" lon="115.27873310688996"><ele>200.0</ele><time>2026-04-13T04:29:23Z</time></trkpt><trkpt lat="-29.531655992324453" lon="115.27897881234865"><ele>201.0</ele><time>2026-04-13T04:29:24Z</time></trkpt><trkpt lat="-29.531657955849607" lon="115.27918831985525"><ele>202.0</ele><time>2026-04-13T04:29:25Z</time></trkpt><trkpt lat="-29.531655142459684" lon="115.2793675444482"><ele>203.0</ele><time>2026-04-13T04:29:26Z</time></trkpt><trkpt lat="-29.531656236118348" lon="115.27953072579602"><ele>204.0</ele><time>2026-04-13T04:29:27Z</time></trkpt><trkpt lat="-29.531656645193504" lon="115.27967153561073"><ele>205.0</ele><time>2026-04-13T04:29:28Z</time></trkpt><trkpt lat="-29.53165585728172" lon="115.27979367582037"><ele>205.0</ele><time>2026-04-13T04:29:29Z</time></trkpt><trkpt lat="-29.53165545879892" lon="115.27990300038614"><ele>205.0</ele><time>2026-04-13T04:29:30Z</time></trkpt><trkpt lat="-29.531656006401295" lon="115.28000404348072"><ele>205.0</ele><time>2026-04-13T04:29:31Z</time></trkpt><trkpt lat="-29.531656183105248" lon="115.28008424731391"><ele>205.0</ele><time>2026-04-13T04:29:32Z</time></trkpt><trkpt lat="-29.531644023500522" lon="115.2797187533038"><ele>205.33333333333331</ele><time>2026-04-13T04:30:39Z</time></trkpt><trkpt lat="-29.531643582461005" lon="115.27979577402863"><ele>205.66666666666666</ele><time>2026-04-13T04:31:19Z</time></trkpt><trkpt lat="-29.531643890648528" lon="115.2798694406273"><ele>206.0</ele><time>2026-04-13T04:31:27Z</time></trkpt><trkpt lat="-29.53164561053015" lon="115.27994483310499"><ele>206.33333333333331</ele><time>2026-04-13T04:31:41.999Z</time></trkpt><trkpt lat="-29.531647439175604" lon="115.28002048458107"><ele>206.66666666666666</ele><time>2026-04-13T04:32:25Z</time></trkpt><trkpt lat="-29.531651592146165" lon="115.28018885800171"><ele>207.0</ele><time>2026-04-13T04:33:55.998Z</time></trkpt><trkpt lat="-29.53164251818493" lon="115.28030572096085"><ele>207.0</ele><time>2026-04-13T04:33:57.998Z</time></trkpt><trkpt lat="-29.531637847167893" lon="115.28043542442406"><ele>207.0</ele><time>2026-04-13T04:33:59.998Z</time></trkpt><trkpt lat="-29.531648672931578" lon="115.2805837964775"><ele>207.0</ele><time>2026-04-13T04:34:01.999Z</time></trkpt><trkpt lat="-29.531655659015044" lon="115.28066678793213"><ele>207.0</ele><time>2026-04-13T04:34:02.999Z</time></trkpt><trkpt lat="-29.531656621150788" lon="115.28074607508783"><ele>207.0</ele><time>2026-04-13T04:34:03.999Z</time></trkpt><trkpt lat="-29.531648159083062" lon="115.28083545728572"><ele>207.39999999999998</ele><time>2026-04-13T04:34:04.999Z</time></trkpt><trkpt lat="-29.531649541990515" lon="115.2809340000495"><ele>207.79999999999998</ele><time>2026-04-13T04:34:05.999Z</time></trkpt><trkpt lat="-29.53165019057199" lon="115.28105029711323"><ele>208.2</ele><time>2026-04-13T04:34:06.999Z</time></trkpt><trkpt lat="-29.531649971053245" lon="115.28116875400401"><ele>208.6</ele><time>2026-04-13T04:34:07.999Z</time></trkpt><trkpt lat="-29.531647678552595" lon="115.2812901270817"><ele>209.0</ele><time>2026-04-13T04:34:08.999Z</time></trkpt><trkpt lat="-29.53164842350755" lon="115.28140428843918"><ele>209.79999999999998</ele><time>2026-04-13T04:34:09.999Z</time></trkpt><trkpt lat="-29.531650517212185" lon="115.28152900107561"><ele>210.6</ele><time>2026-04-13T04:34:10.999Z</time></trkpt><trkpt lat="-29.531652636928" lon="115.28164686180536"><ele>211.4</ele><time>2026-04-13T04:34:11.999Z</time></trkpt><trkpt lat="-29.531653680068924" lon="115.28177181292277"><ele>212.2</ele><time>2026-04-13T04:34:12.999Z</time></trkpt><trkpt lat="-29.531660215359707" lon="115.2818952778194"><ele>213.0</ele><time>2026-04-13T04:34:13.999Z</time></trkpt><trkpt lat="-29.53166217619418" lon="115.28201506361557"><ele>213.0</ele><time>2026-04-13T04:34:14.999Z</time></trkpt><trkpt lat="-29.531657870778993" lon="115.28213937148735"><ele>213.0</ele><time>2026-04-13T04:34:15.999Z</time></trkpt><trkpt lat="-29.531654322332972" lon="115.28226741500494"><ele>213.0</ele><time>2026-04-13T04:34:16.999Z</time></trkpt><trkpt lat="-29.53165655873346" lon="115.28240135669023"><ele>213.0</ele><time>2026-04-13T04:34:17.999Z</time></trkpt><trkpt lat="-29.531657311177444" lon="115.28253704928237"><ele>213.25</ele><time>2026-04-13T04:34:18.999Z</time></trkpt><trkpt lat="-29.531659349705265" lon="115.28267145970341"><ele>213.5</ele><time>2026-04-13T04:34:19.999Z</time></trkpt><trkpt lat="-29.531659647866835" lon="115.28280997881791"><ele>213.75</ele><time>2026-04-13T04:34:20.999Z</time></trkpt><trkpt lat="-29.531659693498725" lon="115.28293895798879"><ele>214.0</ele><time>2026-04-13T04:34:21.999Z</time></trkpt><trkpt lat="-29.5316565400971" lon="115.28307593545031"><ele>214.5</ele><time>2026-04-13T04:34:22.999Z</time></trkpt><trkpt lat="-29.531654292152847" lon="115.28320903043581"><ele>215.0</ele><time>2026-04-13T04:34:23.999Z</time></trkpt><trkpt lat="-29.531655598118498" lon="115.28334946153977"><ele>215.5</ele><time>2026-04-13T04:34:24.999Z</time></trkpt><trkpt lat="-29.531657070386082" lon="115.28349580689179"><ele>216.0</ele><time>2026-04-13T04:34:25.999Z</time></trkpt><trkpt lat="-29.53165941385327" lon="115.28364257307601"><ele>216.0</ele><time>2026-04-13T04:34:26.999Z</time></trkpt><trkpt lat="-29.531656659576214" lon="115.2837866479165"><ele>216.00000000000003</ele><time>2026-04-13T04:34:27.999Z</time></trkpt><trkpt lat="-29.531656814087693" lon="115.28391744566333"><ele>216.00000000000003</ele><time>2026-04-13T04:34:28.999Z</time></trkpt><trkpt lat="-29.531658920713806" lon="115.28404643446473"><ele>216.0</ele><time>2026-04-13T04:34:29.999Z</time></trkpt><trkpt lat="-29.531660797883934" lon="115.28415286261408"><ele>216.0</ele><time>2026-04-13T04:34:30.999Z</time></trkpt><trkpt lat="-29.531662903285643" lon="115.28423718100309"><ele>216.5</ele><time>2026-04-13T04:34:31.999Z</time></trkpt><trkpt lat="-29.531659577842667" lon="115.28436820720155"><ele>217.0</ele><time>2026-04-13T04:34:33.999Z</time></trkpt><trkpt lat="-29.531652375121453" lon="115.28445135133269"><ele>217.5</ele><time>2026-04-13T04:34:35.999Z</time></trkpt><trkpt lat="-29.531676084867193" lon="115.28453587132773"><ele>218.0</ele><time>2026-04-13T04:34:39.999Z</time></trkpt><trkpt lat="-29.53173675145364" lon="115.28458050682595"><ele>218.5</ele><time>2026-04-13T04:34:41.999Z</time></trkpt><trkpt lat="-29.531752137444563" lon="115.28467387046017"><ele>219.0</ele><time>2026-04-13T04:34:44.999Z</time></trkpt><trkpt lat="-29.53170454376018" lon="115.28472357991532"><ele>219.0</ele><time>2026-04-13T04:34:47.999Z</time></trkpt><trkpt lat="-29.531637389214335" lon="115.28472189415086"><ele>219.0</ele><time>2026-04-13T04:34:51.999Z</time></trkpt><trkpt lat="-29.531643192421775" lon="115.28479954531444"><ele>219.0</ele><time>2026-04-13T04:34:55.999Z</time></trkpt><trkpt lat="-29.531666088963682" lon="115.28492039184863"><ele>219.0</ele><time>2026-04-13T04:34:57.999Z</time></trkpt><trkpt lat="-29.531667242340426" lon="115.28499509226067"><ele>219.0</ele><time>2026-04-13T04:34:58.999Z</time></trkpt><trkpt lat="-29.531659514033585" lon="115.28508169359053"><ele>219.0</ele><time>2026-04-13T04:34:59.999Z</time></trkpt><trkpt lat="-29.53165164498048" lon="115.28517595329454"><ele>219.0</ele><time>2026-04-13T04:35:00.999Z</time></trkpt><trkpt lat="-29.531657193853963" lon="115.28528766490093"><ele>218.99999999999997</ele><time>2026-04-13T04:35:01.999Z</time></trkpt><trkpt lat="-29.531662275636762" lon="115.28540426405779"><ele>218.99999999999997</ele><time>2026-04-13T04:35:02.999Z</time></trkpt><trkpt lat="-29.531668562829722" lon="115.28552726824668"><ele>219.0</ele><time>2026-04-13T04:35:04Z</time></trkpt><trkpt lat="-29.531680160930808" lon="115.28565000720421"><ele>219.0</ele><time>2026-04-13T04:35:05Z</time></trkpt><trkpt lat="-29.53168850718355" lon="115.28576725104944"><ele>219.0</ele><time>2026-04-13T04:35:06Z</time></trkpt><trkpt lat="-29.531690972315168" lon="115.28587550576975"><ele>218.99999999999997</ele><time>2026-04-13T04:35:07Z</time></trkpt><trkpt lat="-29.531682939759172" lon="115.28597705005897"><ele>218.99999999999997</ele><time>2026-04-13T04:35:08Z</time></trkpt><trkpt lat="-29.531664890781247" lon="115.28608059935804"><ele>219.0</ele><time>2026-04-13T04:35:09Z</time></trkpt><trkpt lat="-29.53164778733767" lon="115.28618629770102"><ele>219.0</ele><time>2026-04-13T04:35:10Z</time></trkpt><trkpt lat="-29.531643862774754" lon="115.28629369183345"><ele>219.0</ele><time>2026-04-13T04:35:11Z</time></trkpt><trkpt lat="-29.5316519144014" lon="115.2864087645501"><ele>218.99999999999997</ele><time>2026-04-13T04:35:12Z</time></trkpt><trkpt lat="-29.53166246451955" lon="115.28653167263894"><ele>218.99999999999997</ele><time>2026-04-13T04:35:13Z</time></trkpt><trkpt lat="-29.53166508896968" lon="115.28667121263743"><ele>219.0</ele><time>2026-04-13T04:35:14Z</time></trkpt><trkpt lat="-29.53165665221389" lon="115.28680293716319"><ele>219.0</ele><time>2026-04-13T04:35:15Z</time></trkpt><trkpt lat="-29.53164972261318" lon="115.28693811851363"><ele>219.6</ele><time>2026-04-13T04:35:16Z</time></trkpt><trkpt lat="-29.531651483196306" lon="115.28707955781938"><ele>220.2</ele><time>2026-04-13T04:35:17Z</time></trkpt><trkpt lat="-29.531650347149757" lon="115.28720060487127"><ele>220.79999999999998</ele><time>2026-04-13T04:35:18Z</time></trkpt><trkpt lat="-29.531656019718508" lon="115.28731325808009"><ele>221.39999999999998</ele><time>2026-04-13T04:35:19Z</time></trkpt><trkpt lat="-29.53166544331717" lon="115.28741879848445"><ele>222.0</ele><time>2026-04-13T04:35:20Z</time></trkpt><trkpt lat="-29.531674979415893" lon="115.28751830718714"><ele>222.16666666666666</ele><time>2026-04-13T04:35:21Z</time></trkpt><trkpt lat="-29.53167443806482" lon="115.28761558067309"><ele>222.33333333333331</ele><time>2026-04-13T04:35:22Z</time></trkpt><trkpt lat="-29.531677101128214" lon="115.28769906085347"><ele>222.5</ele><time>2026-04-13T04:35:23Z</time></trkpt><trkpt lat="-29.5316965608069" lon="115.28781528518039"><ele>222.66666666666666</ele><time>2026-04-13T04:35:25Z</time></trkpt><trkpt lat="-29.53169956153226" lon="115.28790355065325"><ele>222.83333333333331</ele><time>2026-04-13T04:35:43Z</time></trkpt><trkpt lat="-29.53168695577548" lon="115.28800628509991"><ele>223.0</ele><time>2026-04-13T04:35:45Z</time></trkpt><trkpt lat="-29.531670043484475" lon="115.28813521896522"><ele>223.0</ele><time>2026-04-13T04:35:47Z</time></trkpt><trkpt lat="-29.531665750597" lon="115.28822017414734"><ele>223.0</ele><time>2026-04-13T04:35:47.998Z</time></trkpt><trkpt lat="-29.531669738307208" lon="115.2883229374167"><ele>223.0</ele><time>2026-04-13T04:35:48.998Z</time></trkpt><trkpt lat="-29.531675288951888" lon="115.28843715129062"><ele>223.0</ele><time>2026-04-13T04:35:49.998Z</time></trkpt><trkpt lat="-29.531675084698477" lon="115.28855656279352"><ele>223.0</ele><time>2026-04-13T04:35:50.998Z</time></trkpt><trkpt lat="-29.531671496610077" lon="115.28868247882613"><ele>223.0</ele><time>2026-04-13T04:35:51.998Z</time></trkpt><trkpt lat="-29.531668422499962" lon="115.28882038178986"><ele>223.0</ele><time>2026-04-13T04:35:52.998Z</time></trkpt><trkpt lat="-29.53166714392061" lon="115.28896975357289"><ele>223.0</ele><time>2026-04-13T04:35:53.998Z</time></trkpt><trkpt lat="-29.531669522359547" lon="115.28911862804442"><ele>223.0</ele><time>2026-04-13T04:35:54.998Z</time></trkpt><trkpt lat="-29.531670999765314" lon="115.28924757818825"><ele>223.16666666666666</ele><time>2026-04-13T04:35:55.998Z</time></trkpt><trkpt lat="-29.531672205948222" lon="115.28936461132524"><ele>223.33333333333331</ele><time>2026-04-13T04:35:56.998Z</time></trkpt><trkpt lat="-29.531677513415154" lon="115.28946345838746"><ele>223.5</ele><time>2026-04-13T04:35:57.998Z</time></trkpt><trkpt lat="-29.531684996568103" lon="115.28954113206336"><ele>223.66666666666669</ele><time>2026-04-13T04:35:58.998Z</time></trkpt><trkpt lat="-29.5316962758361" lon="115.28966674974691"><ele>223.83333333333334</ele><time>2026-04-13T04:36:00.998Z</time></trkpt><trkpt lat="-29.53170734972223" lon="115.289749596793"><ele>224.0</ele><time>2026-04-13T04:36:02.998Z</time></trkpt><trkpt lat="-29.531685349356362" lon="115.28982413894107"><ele>224.39999999999998</ele><time>2026-04-13T04:36:04.998Z</time></trkpt><trkpt lat="-29.531683889116124" lon="115.28995138475067"><ele>224.79999999999998</ele><time>2026-04-13T04:36:06.999Z</time></trkpt><trkpt lat="-29.531675031797732" lon="115.2900450985131"><ele>225.20000000000002</ele><time>2026-04-13T04:36:07.999Z</time></trkpt><trkpt lat="-29.53166713869546" lon="115.2901525801611"><ele>225.60000000000002</ele><time>2026-04-13T04:36:08.999Z</time></trkpt><trkpt lat="-29.531664754938863" lon="115.29025788354748"><ele>226.0</ele><time>2026-04-13T04:36:09.999Z</time></trkpt><trkpt lat="-29.531669509520494" lon="115.29036664423631"><ele>226.0</ele><time>2026-04-13T04:36:10.999Z</time></trkpt><trkpt lat="-29.531678980038837" lon="115.29049408535232"><ele>226.0</ele><time>2026-04-13T04:36:11.999Z</time></trkpt><trkpt lat="-29.5316823242435" lon="115.2906375233088"><ele>226.0</ele><time>2026-04-13T04:36:12.999Z</time></trkpt><trkpt lat="-29.53168087045657" lon="115.29078985130235"><ele>226.0</ele><time>2026-04-13T04:36:13.999Z</time></trkpt><trkpt lat="-29.5316806434349" lon="115.29093454000784"><ele>226.4</ele><time>2026-04-13T04:36:14.999Z</time></trkpt><trkpt lat="-29.531678772774296" lon="115.29106109077087"><ele>226.8</ele><time>2026-04-13T04:36:15.999Z</time></trkpt><trkpt lat="-29.531674463601327" lon="115.29117929803999"><ele>227.20000000000002</ele><time>2026-04-13T04:36:16.999Z</time></trkpt><trkpt lat="-29.53166447356788" lon="115.29129709186839"><ele>227.60000000000002</ele><time>2026-04-13T04:36:17.999Z</time></trkpt><trkpt lat="-29.53166050042822" lon="115.29142060532838"><ele>228.0</ele><time>2026-04-13T04:36:18.999Z</time></trkpt><trkpt lat="-29.53166482405739" lon="115.29154655966477"><ele>228.4</ele><time>2026-04-13T04:36:19.999Z</time></trkpt><trkpt lat="-29.53167352954188" lon="115.29167850114366"><ele>228.8</ele><time>2026-04-13T04:36:20.999Z</time></trkpt><trkpt lat="-29.531681124945134" lon="115.29180537692332"><ele>229.2</ele><time>2026-04-13T04:36:21.999Z</time></trkpt><trkpt lat="-29.531680371879208" lon="115.29192388334675"><ele>229.6</ele><time>2026-04-13T04:36:22.999Z</time></trkpt><trkpt lat="-29.531675206286213" lon="115.29205619862891"><ele>230.0</ele><time>2026-04-13T04:36:23.999Z</time></trkpt><trkpt lat="-29.531675381493834" lon="115.29219365723742"><ele>230.0</ele><time>2026-04-13T04:36:24.999Z</time></trkpt><trkpt lat="-29.531675895988094" lon="115.29233372174563"><ele>230.0</ele><time>2026-04-13T04:36:25.999Z</time></trkpt><trkpt lat="-29.5316716361951" lon="115.29247659482115"><ele>230.0</ele><time>2026-04-13T04:36:26.999Z</time></trkpt><trkpt lat="-29.53166737815317" lon="115.29261339288341"><ele>230.0</ele><time>2026-04-13T04:36:27.999Z</time></trkpt><trkpt lat="-29.531663074999738" lon="115.29275076972486"><ele>230.0</ele><time>2026-04-13T04:36:28.999Z</time></trkpt><trkpt lat="-29.53165549810549" lon="115.29288306431093"><ele>230.0</ele><time>2026-04-13T04:36:29.999Z</time></trkpt><trkpt lat="-29.531651889427796" lon="115.293018468769"><ele>230.0</ele><time>2026-04-13T04:36:30.999Z</time></trkpt><trkpt lat="-29.531660128511522" lon="115.29314997936356"><ele>230.0</ele><time>2026-04-13T04:36:31.999Z</time></trkpt><trkpt lat="-29.53167145520428" lon="115.29327035790037"><ele>230.33333333333334</ele><time>2026-04-13T04:36:32.999Z</time></trkpt><trkpt lat="-29.531681206609303" lon="115.29337653073931"><ele>230.66666666666669</ele><time>2026-04-13T04:36:33.999Z</time></trkpt><trkpt lat="-29.531681622224184" lon="115.29348330194053"><ele>231.0</ele><time>2026-04-13T04:36:34.999Z</time></trkpt><trkpt lat="-29.531671100846566" lon="115.29359152083848"><ele>231.33333333333331</ele><time>2026-04-13T04:36:35.999Z</time></trkpt><trkpt lat="-29.531647603479552" lon="115.29369982943899"><ele>231.66666666666666</ele><time>2026-04-13T04:36:36.999Z</time></trkpt><trkpt lat="-29.53164865873168" lon="115.29378160857307"><ele>232.0</ele><time>2026-04-13T04:36:37.999Z</time></trkpt><trkpt lat="-29.53166209015923" lon="115.2938807338004"><ele>232.2</ele><time>2026-04-13T04:36:38.999Z</time></trkpt><trkpt lat="-29.53166253003037" lon="115.29399795598508"><ele>232.39999999999998</ele><time>2026-04-13T04:36:39.999Z</time></trkpt><trkpt lat="-29.53166255692103" lon="115.29411384034827"><ele>232.60000000000002</ele><time>2026-04-13T04:36:40.999Z</time></trkpt><trkpt lat="-29.531659234920888" lon="115.29422276838297"><ele>232.8</ele><time>2026-04-13T04:36:41.999Z</time></trkpt><trkpt lat="-29.53165439397145" lon="115.29432530478923"><ele>233.0</ele><time>2026-04-13T04:36:42.999Z</time></trkpt><trkpt lat="-29.531657728307934" lon="115.29442362611067"><ele>233.00000000000003</ele><time>2026-04-13T04:36:43.999Z</time></trkpt><trkpt lat="-29.53166726932067" lon="115.2945141755859"><ele>233.0</ele><time>2026-04-13T04:36:44.999Z</time></trkpt><trkpt lat="-29.531672795849204" lon="115.29459946022718"><ele>233.0</ele><time>2026-04-13T04:36:45.999Z</time></trkpt><trkpt lat="-29.53167449073582" lon="115.29468585517343"><ele>233.0</ele><time>2026-04-13T04:36:46.999Z</time></trkpt><trkpt lat="-29.53167568027167" lon="115.29478214428829"><ele>233.00000000000003</ele><time>2026-04-13T04:36:47.999Z</time></trkpt><trkpt lat="-29.531681548943677" lon="115.294890674919"><ele>233.0</ele><time>2026-04-13T04:36:48.999Z</time></trkpt><trkpt lat="-29.53168478437969" lon="115.2949876966117"><ele>233.0</ele><time>2026-04-13T04:36:49.999Z</time></trkpt><trkpt lat="-29.531672599060812" lon="115.29509153086696"><ele>233.0</ele><time>2026-04-13T04:36:50.999Z</time></trkpt><trkpt lat="-29.531657301787913" lon="115.29521224910059"><ele>233.0</ele><time>2026-04-13T04:36:51.999Z</time></trkpt><trkpt lat="-29.531657968203007" lon="115.29531046528666"><ele>233.0</ele><time>2026-04-13T04:36:52.999Z</time></trkpt><trkpt lat="-29.5316657143447" lon="115.29539740720934"><ele>233.0</ele><time>2026-04-13T04:36:53.999Z</time></trkpt><trkpt lat="-29.53168291780503" lon="115.29552917645454"><ele>233.16666666666669</ele><time>2026-04-13T04:36:56Z</time></trkpt><trkpt lat="-29.53169342847057" lon="115.29566945479476"><ele>233.33333333333334</ele><time>2026-04-13T04:36:58Z</time></trkpt><trkpt lat="-29.531692253122518" lon="115.29575078073914"><ele>233.5</ele><time>2026-04-13T04:36:59Z</time></trkpt><trkpt lat="-29.53168316512556" lon="115.29583967084078"><ele>233.66666666666669</ele><time>2026-04-13T04:37:00Z</time></trkpt><trkpt lat="-29.531674688939052" lon="115.29593489239055"><ele>233.83333333333334</ele><time>2026-04-13T04:37:01Z</time></trkpt><trkpt lat="-29.53167363536163" lon="115.29602588817446"><ele>234.0</ele><time>2026-04-13T04:37:02Z</time></trkpt><trkpt lat="-29.53167575157416" lon="115.29612058606443"><ele>234.0</ele><time>2026-04-13T04:37:03Z</time></trkpt><trkpt lat="-29.53167479735581" lon="115.2962266175215"><ele>234.0</ele><time>2026-04-13T04:37:04Z</time></trkpt><trkpt lat="-29.531672166990376" lon="115.2963313048584"><ele>234.0</ele><time>2026-04-13T04:37:05Z</time></trkpt><trkpt lat="-29.53167264550413" lon="115.2964290804987"><ele>234.0</ele><time>2026-04-13T04:37:06Z</time></trkpt><trkpt lat="-29.531673796371653" lon="115.29651900233443"><ele>234.0</ele><time>2026-04-13T04:37:07Z</time></trkpt><trkpt lat="-29.531672161298793" lon="115.29661625415895"><ele>234.0</ele><time>2026-04-13T04:37:08Z</time></trkpt><trkpt lat="-29.531664849456448" lon="115.29671375795878"><ele>233.83333333333334</ele><time>2026-04-13T04:37:09Z</time></trkpt><trkpt lat="-29.53165869300429" lon="115.29681613729707"><ele>233.66666666666669</ele><time>2026-04-13T04:37:10Z</time></trkpt><trkpt lat="-29.531660574494268" lon="115.29691667909468"><ele>233.5</ele><time>2026-04-13T04:37:11Z</time></trkpt><trkpt lat="-29.53166484670667" lon="115.29701373433662"><ele>233.33333333333334</ele><time>2026-04-13T04:37:12Z</time></trkpt><trkpt lat="-29.53166613993995" lon="115.29709862580604"><ele>233.16666666666669</ele><time>2026-04-13T04:37:13Z</time></trkpt><trkpt lat="-29.53166164940537" lon="115.29722526951939"><ele>233.0</ele><time>2026-04-13T04:37:15Z</time></trkpt><trkpt lat="-29.531660905327563" lon="115.29730112220575"><ele>232.83333333333334</ele><time>2026-04-13T04:37:56.998Z</time></trkpt><trkpt lat="-29.531683670652285" lon="115.297406415223"><ele>232.66666666666669</ele><time>2026-04-13T04:37:59.998Z</time></trkpt><trkpt lat="-29.53168444334608" lon="115.2975088739717"><ele>232.5</ele><time>2026-04-13T04:38:01.999Z</time></trkpt><trkpt lat="-29.53166793766041" lon="115.29759350349504"><ele>232.33333333333331</ele><time>2026-04-13T04:38:03.999Z</time></trkpt><trkpt lat="-29.53166314264843" lon="115.29767291266533"><ele>232.16666666666666</ele><time>2026-04-13T04:38:21.999Z</time></trkpt><trkpt lat="-29.531665320136042" lon="115.29777363791105"><ele>232.0</ele><time>2026-04-13T04:38:23.999Z</time></trkpt><trkpt lat="-29.531672287176605" lon="115.29790242379265"><ele>231.99999999999997</ele><time>2026-04-13T04:38:25.999Z</time></trkpt><trkpt lat="-29.53168253662233" lon="115.29804254485677"><ele>232.0</ele><time>2026-04-13T04:38:27.999Z</time></trkpt><trkpt lat="-29.531686082452566" lon="115.29812200885276"><ele>232.0</ele><time>2026-04-13T04:38:28.999Z</time></trkpt><trkpt lat="-29.53168050225674" lon="115.29820675243475"><ele>232.0</ele><time>2026-04-13T04:38:29.999Z</time></trkpt><trkpt lat="-29.531671924520104" lon="115.2983023951553"><ele>231.99999999999997</ele><time>2026-04-13T04:38:30.999Z</time></trkpt><trkpt lat="-29.531667991043406" lon="115.29838610791417"><ele>232.0</ele><time>2026-04-13T04:38:31.999Z</time></trkpt><trkpt lat="-29.531667148124356" lon="115.29848047666972"><ele>232.0</ele><time>2026-04-13T04:38:32.999Z</time></trkpt><trkpt lat="-29.531667697078152" lon="115.29858650272855"><ele>232.0</ele><time>2026-04-13T04:38:33.999Z</time></trkpt><trkpt lat="-29.531671472359672" lon="115.29869228208494"><ele>232.0</ele><time>2026-04-13T04:38:34.999Z</time></trkpt><trkpt lat="-29.531676724073005" lon="115.29879627870605"><ele>232.0</ele><time>2026-04-13T04:38:35.999Z</time></trkpt><trkpt lat="-29.531680304398158" lon="115.29890716344751"><ele>232.0</ele><time>2026-04-13T04:38:36.999Z</time></trkpt><trkpt lat="-29.53167655689951" lon="115.2990138514705"><ele>232.0</ele><time>2026-04-13T04:38:37.999Z</time></trkpt><trkpt lat="-29.531672785899552" lon="115.299123115292"><ele>232.0</ele><time>2026-04-13T04:38:38.999Z</time></trkpt><trkpt lat="-29.531671312558643" lon="115.29922910488315"><ele>232.0</ele><time>2026-04-13T04:38:39.999Z</time></trkpt><trkpt lat="-29.53167628053058" lon="115.29933748431607"><ele>232.0</ele><time>2026-04-13T04:38:41Z</time></trkpt><trkpt lat="-29.53168285498177" lon="115.2994506662958"><ele>232.0</ele><time>2026-04-13T04:38:42Z</time></trkpt><trkpt lat="-29.531690621639278" lon="115.29956020014525"><ele>232.0</ele><time>2026-04-13T04:38:43Z</time></trkpt><trkpt lat="-29.53169234264725" lon="115.29966770567533"><ele>232.0</ele><time>2026-04-13T04:38:44Z</time></trkpt><trkpt lat="-29.531682455970138" lon="115.29978125413864"><ele>232.0</ele><time>2026-04-13T04:38:45Z</time></trkpt><trkpt lat="-29.531671342659095" lon="115.29989237215129"><ele>232.0</ele><time>2026-04-13T04:38:46Z</time></trkpt><trkpt lat="-29.531673972563674" lon="115.30000563714454"><ele>232.0</ele><time>2026-04-13T04:38:47Z</time></trkpt><trkpt lat="-29.53168194469972" lon="115.30012829283064"><ele>232.0</ele><time>2026-04-13T04:38:48Z</time></trkpt><trkpt lat="-29.53168883824352" lon="115.30024304926948"><ele>232.0</ele><time>2026-04-13T04:38:49Z</time></trkpt><trkpt lat="-29.531690347989308" lon="115.30035005924019"><ele>232.0</ele><time>2026-04-13T04:38:50Z</time></trkpt><trkpt lat="-29.531683279269178" lon="115.30046714724479"><ele>232.0</ele><time>2026-04-13T04:38:51Z</time></trkpt><trkpt lat="-29.531673309860864" lon="115.3005804825112"><ele>232.0</ele><time>2026-04-13T04:38:52Z</time></trkpt><trkpt lat="-29.531669178129718" lon="115.30068983318839"><ele>232.16666666666666</ele><time>2026-04-13T04:38:53Z</time></trkpt><trkpt lat="-29.531671827045002" lon="115.30079996246052"><ele>232.33333333333331</ele><time>2026-04-13T04:38:54Z</time></trkpt><trkpt lat="-29.531674201755965" lon="115.30089088090428"><ele>232.5</ele><time>2026-04-13T04:38:55Z</time></trkpt><trkpt lat="-29.53167686019069" lon="115.30096530360922"><ele>232.66666666666669</ele><time>2026-04-13T04:38:56Z</time></trkpt><trkpt lat="-29.531671148220006" lon="115.30107554112688"><ele>232.83333333333334</ele><time>2026-04-13T04:38:58Z</time></trkpt><trkpt lat="-29.531735044380095" lon="115.30112377063982"><ele>233.0</ele><time>2026-04-13T04:39:08Z</time></trkpt><trkpt lat="-29.531795159735548" lon="115.30114568587598"><ele>233.00000000000003</ele><time>2026-04-13T04:39:10Z</time></trkpt><trkpt lat="-29.5318529274722" lon="115.30117499468966"><ele>233.0</ele><time>2026-04-13T04:39:13Z</time></trkpt><trkpt lat="-29.531852851326352" lon="115.30125278747447"><ele>233.0</ele><time>2026-04-13T04:39:20Z</time></trkpt><trkpt lat="-29.531851639550442" lon="115.3013496599588"><ele>233.0</ele><time>2026-04-13T04:39:22Z</time></trkpt><trkpt lat="-29.531849569790218" lon="115.30145406843269"><ele>233.00000000000003</ele><time>2026-04-13T04:39:24Z</time></trkpt><trkpt lat="-29.531846124719323" lon="115.30155072714763"><ele>233.0</ele><time>2026-04-13T04:39:26Z</time></trkpt><trkpt lat="-29.531844010301846" lon="115.30167554244325"><ele>232.60000000000002</ele><time>2026-04-13T04:39:28Z</time></trkpt><trkpt lat="-29.531841566731593" lon="115.30177504707432"><ele>232.20000000000002</ele><time>2026-04-13T04:39:30Z</time></trkpt><trkpt lat="-29.531861004081115" lon="115.30188455112"><ele>231.8</ele><time>2026-04-13T04:39:32Z</time></trkpt><trkpt lat="-29.531860613162422" lon="115.30202719822202"><ele>231.4</ele><time>2026-04-13T04:39:34Z</time></trkpt><trkpt lat="-29.53187140144151" lon="115.30217043929738"><ele>231.0</ele><time>2026-04-13T04:39:36Z</time></trkpt><trkpt lat="-29.531874023877055" lon="115.30225407835445"><ele>231.0</ele><time>2026-04-13T04:39:37Z</time></trkpt><trkpt lat="-29.531878389542783" lon="115.30234446523491"><ele>231.0</ele><time>2026-04-13T04:39:38Z</time></trkpt><trkpt lat="-29.531882686032123" lon="115.30244169451835"><ele>231.0</ele><time>2026-04-13T04:39:39Z</time></trkpt><trkpt lat="-29.531886061538305" lon="115.30254334016708"><ele>231.0</ele><time>2026-04-13T04:39:40Z</time></trkpt><trkpt lat="-29.531889097574197" lon="115.30265507795096"><ele>231.0</ele><time>2026-04-13T04:39:41Z</time></trkpt><trkpt lat="-29.53189093560578" lon="115.3027676923648"><ele>231.0</ele><time>2026-04-13T04:39:42Z</time></trkpt><trkpt lat="-29.53189544004123" lon="115.30287759828387"><ele>231.0</ele><time>2026-04-13T04:39:43Z</time></trkpt><trkpt lat="-29.531896929686805" lon="115.30299221127878"><ele>231.00000000000003</ele><time>2026-04-13T04:39:44Z</time></trkpt><trkpt lat="-29.531896234544913" lon="115.30311017930843"><ele>231.00000000000003</ele><time>2026-04-13T04:39:45Z</time></trkpt><trkpt lat="-29.531903023537186" lon="115.30322741452468"><ele>231.0</ele><time>2026-04-13T04:39:46Z</time></trkpt><trkpt lat="-29.531912745922945" lon="115.3033421756918"><ele>231.0</ele><time>2026-04-13T04:39:47Z</time></trkpt><trkpt lat="-29.531919399041755" lon="115.30345243892387"><ele>230.8</ele><time>2026-04-13T04:39:48Z</time></trkpt><trkpt lat="-29.531921225561344" lon="115.30356289782085"><ele>230.60000000000002</ele><time>2026-04-13T04:39:49Z</time></trkpt><trkpt lat="-29.531920570577213" lon="115.30367397701788"><ele>230.4</ele><time>2026-04-13T04:39:50.001Z</time></trkpt><trkpt lat="-29.531918838957232" lon="115.30378984470978"><ele>230.2</ele><time>2026-04-13T04:39:51.001Z</time></trkpt><trkpt lat="-29.53191661123388" lon="115.30391602211118"><ele>230.0</ele><time>2026-04-13T04:39:52.001Z</time></trkpt><trkpt lat="-29.531920049412573" lon="115.30404230156464"><ele>230.4</ele><time>2026-04-13T04:39:53.001Z</time></trkpt><trkpt lat="-29.53192470110643" lon="115.30417215474611"><ele>230.8</ele><time>2026-04-13T04:39:54.001Z</time></trkpt><trkpt lat="-29.531923406113282" lon="115.30430216817281"><ele>231.2</ele><time>2026-04-13T04:39:55.001Z</time></trkpt><trkpt lat="-29.53191593611241" lon="115.30442720708602"><ele>231.6</ele><time>2026-04-13T04:39:56.001Z</time></trkpt><trkpt lat="-29.531911670322568" lon="115.30455615303211"><ele>232.0</ele><time>2026-04-13T04:39:57.001Z</time></trkpt><trkpt lat="-29.531911949148515" lon="115.30467598535255"><ele>232.2</ele><time>2026-04-13T04:39:58.001Z</time></trkpt><trkpt lat="-29.531917185476328" lon="115.30479716627073"><ele>232.39999999999998</ele><time>2026-04-13T04:39:59.001Z</time></trkpt><trkpt lat="-29.531925247215106" lon="115.30491885881762"><ele>232.60000000000002</ele><time>2026-04-13T04:39:59.999Z</time></trkpt><trkpt lat="-29.531927825881894" lon="115.30505513437332"><ele>232.8</ele><time>2026-04-13T04:40:00.999Z</time></trkpt><trkpt lat="-29.531935124985953" lon="115.30519041179424"><ele>233.0</ele><time>2026-04-13T04:40:01.999Z</time></trkpt><trkpt lat="-29.531936786361143" lon="115.30533126688557"><ele>233.0</ele><time>2026-04-13T04:40:02.999Z</time></trkpt><trkpt lat="-29.531925508502425" lon="115.30547764241277"><ele>233.0</ele><time>2026-04-13T04:40:03.999Z</time></trkpt><trkpt lat="-29.531906798805245" lon="115.3056420505914"><ele>233.0</ele><time>2026-04-13T04:40:04.999Z</time></trkpt><trkpt lat="-29.531894965597537" lon="115.3058219620859"><ele>233.0</ele><time>2026-04-13T04:40:05.999Z</time></trkpt><trkpt lat="-29.53188882313656" lon="115.30602098094366"><ele>233.0</ele><time>2026-04-13T04:40:06.999Z</time></trkpt><trkpt lat="-29.531886057426558" lon="115.30621291961224"><ele>233.0</ele><time>2026-04-13T04:40:07.999Z</time></trkpt><trkpt lat="-29.531884628635222" lon="115.30639378059458"><ele>233.0</ele><time>2026-04-13T04:40:08.999Z</time></trkpt><trkpt lat="-29.53188394950068" lon="115.30657352511898"><ele>233.0</ele><time>2026-04-13T04:40:09.999Z</time></trkpt><trkpt lat="-29.531880399544196" lon="115.3067470352238"><ele>233.0</ele><time>2026-04-13T04:40:10.999Z</time></trkpt><trkpt lat="-29.531876785828008" lon="115.30692124040168"><ele>233.0</ele><time>2026-04-13T04:40:11.999Z</time></trkpt><trkpt lat="-29.531872475472166" lon="115.30709666751832"><ele>233.5</ele><time>2026-04-13T04:40:12.999Z</time></trkpt><trkpt lat="-29.531872970717824" lon="115.30727491171082"><ele>234.0</ele><time>2026-04-13T04:40:13.999Z</time></trkpt><trkpt lat="-29.531868552223102" lon="115.30744862484113"><ele>234.5</ele><time>2026-04-13T04:40:14.999Z</time></trkpt><trkpt lat="-29.531861899932935" lon="115.30760744939806"><ele>235.0</ele><time>2026-04-13T04:40:15.999Z</time></trkpt><trkpt lat="-29.53184521068272" lon="115.30776463692665"><ele>235.0</ele><time>2026-04-13T04:40:16.999Z</time></trkpt><trkpt lat="-29.531828221250855" lon="115.30791852882705"><ele>235.0</ele><time>2026-04-13T04:40:17.999Z</time></trkpt><trkpt lat="-29.531822480976498" lon="115.30808635565099"><ele>235.0</ele><time>2026-04-13T04:40:18.999Z</time></trkpt><trkpt lat="-29.5318290330448" lon="115.30824796759856"><ele>235.0</ele><time>2026-04-13T04:40:20Z</time></trkpt><trkpt lat="-29.531833547666583" lon="115.30840966768713"><ele>236.5</ele><time>2026-04-13T04:40:21Z</time></trkpt><trkpt lat="-29.53183422198586" lon="115.3085562188736"><ele>238.0</ele><time>2026-04-13T04:40:22Z</time></trkpt><trkpt lat="-29.53184926487375" lon="115.308699652896"><ele>239.5</ele><time>2026-04-13T04:40:23Z</time></trkpt><trkpt lat="-29.531866793272645" lon="115.30884393155625"><ele>241.0</ele><time>2026-04-13T04:40:24Z</time></trkpt><trkpt lat="-29.53187530192228" lon="115.30900226180228"><ele>241.0</ele><time>2026-04-13T04:40:25Z</time></trkpt><trkpt lat="-29.531883633596674" lon="115.30916665200826"><ele>241.0</ele><time>2026-04-13T04:40:26Z</time></trkpt><trkpt lat="-29.53189117880547" lon="115.30932270009272"><ele>241.0</ele><time>2026-04-13T04:40:27Z</time></trkpt><trkpt lat="-29.531891782904708" lon="115.30948131778806"><ele>241.0</ele><time>2026-04-13T04:40:28Z</time></trkpt><trkpt lat="-29.531894186055307" lon="115.30964536529785"><ele>241.0</ele><time>2026-04-13T04:40:29Z</time></trkpt><trkpt lat="-29.53190480782414" lon="115.30981293898093"><ele>241.0</ele><time>2026-04-13T04:40:30Z</time></trkpt><trkpt lat="-29.531918006231294" lon="115.30998505283547"><ele>241.0</ele><time>2026-04-13T04:40:31Z</time></trkpt><trkpt lat="-29.53193894165751" lon="115.31014843626481"><ele>241.0</ele><time>2026-04-13T04:40:32Z</time></trkpt><trkpt lat="-29.531967088025706" lon="115.31029737621714"><ele>241.0</ele><time>2026-04-13T04:40:33Z</time></trkpt><trkpt lat="-29.53200377284159" lon="115.3104316846792"><ele>241.0</ele><time>2026-04-13T04:40:34Z</time></trkpt><trkpt lat="-29.5320355532055" lon="115.31058097081939"><ele>241.0</ele><time>2026-04-13T04:40:35Z</time></trkpt><trkpt lat="-29.532042821064735" lon="115.31073778627427"><ele>241.0</ele><time>2026-04-13T04:40:36Z</time></trkpt><trkpt lat="-29.53204036294168" lon="115.31090403454355"><ele>241.5</ele><time>2026-04-13T04:40:37Z</time></trkpt><trkpt lat="-29.53202758508067" lon="115.3110607105035"><ele>242.0</ele><time>2026-04-13T04:40:38Z</time></trkpt><trkpt lat="-29.53200201068838" lon="115.31120740714825"><ele>242.5</ele><time>2026-04-13T04:40:39Z</time></trkpt><trkpt lat="-29.53196394523789" lon="115.31134577655881"><ele>243.0</ele><time>2026-04-13T04:40:40Z</time></trkpt><trkpt lat="-29.53193871181925" lon="115.31148426053673"><ele>243.75</ele><time>2026-04-13T04:40:41Z</time></trkpt><trkpt lat="-29.53193084491313" lon="115.31164644183225"><ele>244.5</ele><time>2026-04-13T04:40:42Z</time></trkpt><trkpt lat="-29.53193536009216" lon="115.31182433755782"><ele>245.25</ele><time>2026-04-13T04:40:43Z</time></trkpt><trkpt lat="-29.531939560507343" lon="115.31199957917778"><ele>246.0</ele><time>2026-04-13T04:40:44Z</time></trkpt><trkpt lat="-29.531935396276502" lon="115.31217240829871"><ele>246.66666666666669</ele><time>2026-04-13T04:40:45Z</time></trkpt><trkpt lat="-29.5319163573094" lon="115.31235720678869"><ele>247.33333333333334</ele><time>2026-04-13T04:40:46Z</time></trkpt><trkpt lat="-29.531888913431647" lon="115.31255935733873"><ele>248.0</ele><time>2026-04-13T04:40:47Z</time></trkpt><trkpt lat="-29.531869690910597" lon="115.3127649245494"><ele>248.0</ele><time>2026-04-13T04:40:48Z</time></trkpt><trkpt lat="-29.531860429681934" lon="115.31294710191159"><ele>248.0</ele><time>2026-04-13T04:40:49Z</time></trkpt><trkpt lat="-29.531849728090016" lon="115.31312144274095"><ele>248.0</ele><time>2026-04-13T04:40:50Z</time></trkpt><trkpt lat="-29.531850732587408" lon="115.313278810908"><ele>248.0</ele><time>2026-04-13T04:40:51Z</time></trkpt><trkpt lat="-29.53185759854651" lon="115.31344813127238"><ele>249.33333333333334</ele><time>2026-04-13T04:40:52Z</time></trkpt><trkpt lat="-29.531858238155177" lon="115.31362848908088"><ele>250.66666666666669</ele><time>2026-04-13T04:40:53Z</time></trkpt><trkpt lat="-29.531853487725797" lon="115.31381450000985"><ele>252.0</ele><time>2026-04-13T04:40:54Z</time></trkpt><trkpt lat="-29.531847513658178" lon="115.31399926649455"><ele>252.33333333333331</ele><time>2026-04-13T04:40:55Z</time></trkpt><trkpt lat="-29.531840065912167" lon="115.31417948225167"><ele>252.66666666666666</ele><time>2026-04-13T04:40:56Z</time></trkpt><trkpt lat="-29.53183402378756" lon="115.31436324681934"><ele>253.0</ele><time>2026-04-13T04:40:57Z</time></trkpt><trkpt lat="-29.53183125273689" lon="115.314545762242"><ele>253.0</ele><time>2026-04-13T04:40:58Z</time></trkpt><trkpt lat="-29.53182746550906" lon="115.3147375736154"><ele>253.0</ele><time>2026-04-13T04:40:59Z</time></trkpt><trkpt lat="-29.531828542988155" lon="115.3149455858669"><ele>253.0</ele><time>2026-04-13T04:41:00Z</time></trkpt><trkpt lat="-29.531831796963555" lon="115.31514499828445"><ele>252.66666666666666</ele><time>2026-04-13T04:41:01Z</time></trkpt><trkpt lat="-29.531833726328983" lon="115.31534472981305"><ele>252.33333333333331</ele><time>2026-04-13T04:41:02Z</time></trkpt><trkpt lat="-29.531834891327996" lon="115.31554986370561"><ele>252.0</ele><time>2026-04-13T04:41:03Z</time></trkpt><trkpt lat="-29.531840759134937" lon="115.31575802702957"><ele>253.0</ele><time>2026-04-13T04:41:04Z</time></trkpt><trkpt lat="-29.531848201234503" lon="115.31597450139881"><ele>254.0</ele><time>2026-04-13T04:41:05Z</time></trkpt><trkpt lat="-29.531854259994525" lon="115.3161903483919"><ele>255.0</ele><time>2026-04-13T04:41:06Z</time></trkpt><trkpt lat="-29.531854658858204" lon="115.31640921157187"><ele>256.3333333333333</ele><time>2026-04-13T04:41:07Z</time></trkpt><trkpt lat="-29.531852535440862" lon="115.31663964904072"><ele>257.66666666666663</ele><time>2026-04-13T04:41:08Z</time></trkpt><trkpt lat="-29.531849681679134" lon="115.31687045709401"><ele>259.0</ele><time>2026-04-13T04:41:09Z</time></trkpt><trkpt lat="-29.531851477333372" lon="115.31709616268297"><ele>259.3333333333333</ele><time>2026-04-13T04:41:10Z</time></trkpt><trkpt lat="-29.531852514685237" lon="115.31731674434033"><ele>259.6666666666667</ele><time>2026-04-13T04:41:11Z</time></trkpt><trkpt lat="-29.531849061189792" lon="115.3175507184642"><ele>260.0</ele><time>2026-04-13T04:41:12Z</time></trkpt><trkpt lat="-29.531852045797706" lon="115.31777295373155"><ele>260.0</ele><time>2026-04-13T04:41:13Z</time></trkpt><trkpt lat="-29.53185784669274" lon="115.31799023822146"><ele>260.0</ele><time>2026-04-13T04:41:14Z</time></trkpt><trkpt lat="-29.53186196032256" lon="115.31820237690755"><ele>260.0</ele><time>2026-04-13T04:41:15Z</time></trkpt><trkpt lat="-29.531868186589755" lon="115.3184101792496"><ele>259.6666666666667</ele><time>2026-04-13T04:41:16Z</time></trkpt><trkpt lat="-29.53186635669841" lon="115.31860120256117"><ele>259.3333333333333</ele><time>2026-04-13T04:41:17Z</time></trkpt><trkpt lat="-29.531862666335886" lon="115.31879857875857"><ele>259.0</ele><time>2026-04-13T04:41:18Z</time></trkpt><trkpt lat="-29.531855977745227" lon="115.31898755439937"><ele>259.75</ele><time>2026-04-13T04:41:19Z</time></trkpt><trkpt lat="-29.53185639001986" lon="115.31916101659361"><ele>260.5</ele><time>2026-04-13T04:41:20Z</time></trkpt><trkpt lat="-29.531870497060538" lon="115.3193207186642"><ele>261.25</ele><time>2026-04-13T04:41:21Z</time></trkpt><trkpt lat="-29.53190316006419" lon="115.31946375591446"><ele>262.0</ele><time>2026-04-13T04:41:22Z</time></trkpt><trkpt lat="-29.531946018693606" lon="115.31957835271872"><ele>262.0</ele><time>2026-04-13T04:41:23Z</time></trkpt><trkpt lat="-29.531993309670852" lon="115.31967086472342"><ele>262.0</ele><time>2026-04-13T04:41:24Z</time></trkpt><trkpt lat="-29.532039257518193" lon="115.31974216501521"><ele>262.0</ele><time>2026-04-13T04:41:25Z</time></trkpt><trkpt lat="-29.532081568762138" lon="115.31982819073589"><ele>262.0</ele><time>2026-04-13T04:41:27Z</time></trkpt><trkpt lat="-29.532118445500643" lon="115.31992810396889"><ele>262.0</ele><time>2026-04-13T04:41:54.001Z</time></trkpt><trkpt lat="-29.53215040987294" lon="115.3199972138927"><ele>262.0</ele><time>2026-04-13T04:41:55.001Z</time></trkpt><trkpt lat="-29.53219363283945" lon="115.32008945042213"><ele>261.16666666666663</ele><time>2026-04-13T04:41:56.001Z</time></trkpt><trkpt lat="-29.532239255894662" lon="115.32018903493442"><ele>260.3333333333333</ele><time>2026-04-13T04:41:57.001Z</time></trkpt><trkpt lat="-29.53228134462034" lon="115.32027466023042"><ele>259.5</ele><time>2026-04-13T04:41:58.001Z</time></trkpt><trkpt lat="-29.532319170289238" lon="115.32035353614643"><ele>258.6666666666667</ele><time>2026-04-13T04:41:59.001Z</time></trkpt><trkpt lat="-29.532352350304098" lon="115.32042515135026"><ele>257.83333333333337</ele><time>2026-04-13T04:42:00.001Z</time></trkpt><trkpt lat="-29.532402074484573" lon="115.32054370151799"><ele>257.0</ele><time>2026-04-13T04:42:02.001Z</time></trkpt><trkpt lat="-29.53244130187299" lon="115.32070035399589"><ele>257.0</ele><time>2026-04-13T04:42:05.001Z</time></trkpt><trkpt lat="-29.532464636756835" lon="115.32076954269803"><ele>257.0</ele><time>2026-04-13T04:42:08Z</time></trkpt><trkpt lat="-29.532480502535563" lon="115.3208542039281"><ele>257.0</ele><time>2026-04-13T04:42:36Z</time></trkpt><trkpt lat="-29.53249147824479" lon="115.32093655305364"><ele>257.0</ele><time>2026-04-13T04:42:37Z</time></trkpt><trkpt lat="-29.5324963468392" lon="115.32103767106364"><ele>257.0</ele><time>2026-04-13T04:42:38Z</time></trkpt><trkpt lat="-29.532500014082657" lon="115.32116485786126"><ele>257.0</ele><time>2026-04-13T04:42:39Z</time></trkpt><trkpt lat="-29.532506426983613" lon="115.32130778624999"><ele>256.5</ele><time>2026-04-13T04:42:40Z</time></trkpt><trkpt lat="-29.532516828565583" lon="115.32146577334905"><ele>256.0</ele><time>2026-04-13T04:42:41Z</time></trkpt><trkpt lat="-29.532530219719746" lon="115.32162701095783"><ele>255.5</ele><time>2026-04-13T04:42:42Z</time></trkpt><trkpt lat="-29.532549716358684" lon="115.32179068855467"><ele>255.0</ele><time>2026-04-13T04:42:43Z</time></trkpt><trkpt lat="-29.532575697451957" lon="115.32196007466959"><ele>255.0</ele><time>2026-04-13T04:42:44Z</time></trkpt><trkpt lat="-29.532599508446314" lon="115.32212817756425"><ele>255.0</ele><time>2026-04-13T04:42:45Z</time></trkpt><trkpt lat="-29.532620164910448" lon="115.32227910327539"><ele>255.0</ele><time>2026-04-13T04:42:46Z</time></trkpt><trkpt lat="-29.532642694934413" lon="115.32242270327235"><ele>255.0</ele><time>2026-04-13T04:42:47Z</time></trkpt><trkpt lat="-29.532658215020493" lon="115.32255085078141"><ele>254.57142857142858</ele><time>2026-04-13T04:42:48Z</time></trkpt><trkpt lat="-29.53266234701352" lon="115.32265381569812"><ele>254.14285714285717</ele><time>2026-04-13T04:42:49Z</time></trkpt><trkpt lat="-29.5326569984475" lon="115.32274534064238"><ele>253.71428571428572</ele><time>2026-04-13T04:42:50Z</time></trkpt><trkpt lat="-29.532655195788276" lon="115.32282555715504"><ele>253.28571428571428</ele><time>2026-04-13T04:42:51Z</time></trkpt><trkpt lat="-29.532667441512427" lon="115.32290343452418"><ele>252.85714285714286</ele><time>2026-04-13T04:42:52Z</time></trkpt><trkpt lat="-29.53268124914899" lon="115.32297721852247"><ele>252.42857142857144</ele><time>2026-04-13T04:42:53Z</time></trkpt><trkpt lat="-29.532695942113556" lon="115.32304874053979"><ele>252.0</ele><time>2026-04-13T04:42:54Z</time></trkpt><trkpt lat="-29.53271027543001" lon="115.32312204937664"><ele>250.6</ele><time>2026-04-13T04:42:55Z</time></trkpt><trkpt lat="-29.532718902849552" lon="115.32321823560507"><ele>249.2</ele><time>2026-04-13T04:42:56Z</time></trkpt><trkpt lat="-29.5327263504372" lon="115.32331544352408"><ele>247.8</ele><time>2026-04-13T04:42:57Z</time></trkpt><trkpt lat="-29.532733831453747" lon="115.32343032038168"><ele>246.4</ele><time>2026-04-13T04:42:58Z</time></trkpt><trkpt lat="-29.532742777676322" lon="115.32354599193182"><ele>245.0</ele><time>2026-04-13T04:42:59Z</time></trkpt><trkpt lat="-29.532745610125534" lon="115.3236687559613"><ele>245.0</ele><time>2026-04-13T04:43:00Z</time></trkpt><trkpt lat="-29.53274633168587" lon="115.32380123239399"><ele>245.0</ele><time>2026-04-13T04:43:01Z</time></trkpt><trkpt lat="-29.53274270216762" lon="115.32394996932989"><ele>245.0</ele><time>2026-04-13T04:43:02Z</time></trkpt><trkpt lat="-29.53274494248118" lon="115.32411177370604"><ele>245.0</ele><time>2026-04-13T04:43:03Z</time></trkpt><trkpt lat="-29.532748586467765" lon="115.32426114232273"><ele>244.2</ele><time>2026-04-13T04:43:04Z</time></trkpt><trkpt lat="-29.53275014145324" lon="115.32439627249197"><ele>243.4</ele><time>2026-04-13T04:43:05Z</time></trkpt><trkpt lat="-29.53274347517006" lon="115.3245040374326"><ele>242.60000000000002</ele><time>2026-04-13T04:43:06Z</time></trkpt><trkpt lat="-29.532726737064035" lon="115.3245984240509"><ele>241.8</ele><time>2026-04-13T04:43:07Z</time></trkpt><trkpt lat="-29.532689781606063" lon="115.32471105863488"><ele>241.0</ele><time>2026-04-13T04:43:08Z</time></trkpt><trkpt lat="-29.532656568403226" lon="115.32484858666818"><ele>240.0</ele><time>2026-04-13T04:43:09Z</time></trkpt><trkpt lat="-29.53261939564924" lon="115.32500377914971"><ele>239.0</ele><time>2026-04-13T04:43:10Z</time></trkpt><trkpt lat="-29.532578278770703" lon="115.3251628995007"><ele>238.0</ele><time>2026-04-13T04:43:11Z</time></trkpt><trkpt lat="-29.532539956727167" lon="115.32532064684098"><ele>237.0</ele><time>2026-04-13T04:43:12Z</time></trkpt><trkpt lat="-29.53250879389626" lon="115.32547106138728"><ele>236.25</ele><time>2026-04-13T04:43:13Z</time></trkpt><trkpt lat="-29.532475095243463" lon="115.32562615576292"><ele>235.5</ele><time>2026-04-13T04:43:14Z</time></trkpt><trkpt lat="-29.532441889932237" lon="115.32578296193545"><ele>234.75</ele><time>2026-04-13T04:43:15Z</time></trkpt><trkpt lat="-29.532410775943568" lon="115.32593315060268"><ele>234.0</ele><time>2026-04-13T04:43:16Z</time></trkpt><trkpt lat="-29.53238301466352" lon="115.32608520904684"><ele>234.0</ele><time>2026-04-13T04:43:17Z</time></trkpt><trkpt lat="-29.532356080586844" lon="115.32624215484617"><ele>234.0</ele><time>2026-04-13T04:43:18Z</time></trkpt><trkpt lat="-29.532331450814507" lon="115.32639401665142"><ele>234.0</ele><time>2026-04-13T04:43:19Z</time></trkpt><trkpt lat="-29.532306105487827" lon="115.32655263565523"><ele>234.0</ele><time>2026-04-13T04:43:20Z</time></trkpt><trkpt lat="-29.532274432149393" lon="115.32671229551384"><ele>232.5</ele><time>2026-04-13T04:43:21Z</time></trkpt><trkpt lat="-29.532247560543794" lon="115.32686814228917"><ele>231.0</ele><time>2026-04-13T04:43:22.001Z</time></trkpt><trkpt lat="-29.532228481329703" lon="115.32701224322963"><ele>229.5</ele><time>2026-04-13T04:43:23.001Z</time></trkpt><trkpt lat="-29.532214754730948" lon="115.32713682169503"><ele>228.0</ele><time>2026-04-13T04:43:24.001Z</time></trkpt><trkpt lat="-29.53219708614954" lon="115.32724131349731"><ele>227.66666666666666</ele><time>2026-04-13T04:43:25.001Z</time></trkpt><trkpt lat="-29.53217762168709" lon="115.32734642945675"><ele>227.33333333333331</ele><time>2026-04-13T04:43:26.001Z</time></trkpt><trkpt lat="-29.532157754206427" lon="115.32745670884164"><ele>227.0</ele><time>2026-04-13T04:43:27.001Z</time></trkpt><trkpt lat="-29.53215017302298" lon="115.32754901897283"><ele>226.66666666666666</ele><time>2026-04-13T04:43:28.001Z</time></trkpt><trkpt lat="-29.532157577497905" lon="115.32764277389984"><ele>226.33333333333331</ele><time>2026-04-13T04:43:29.001Z</time></trkpt><trkpt lat="-29.53217189930611" lon="115.32773923531305"><ele>226.0</ele><time>2026-04-13T04:43:30.001Z</time></trkpt><trkpt lat="-29.532180032138076" lon="115.32784548742644"><ele>226.0</ele><time>2026-04-13T04:43:31.001Z</time></trkpt><trkpt lat="-29.53218908067531" lon="115.32796015983952"><ele>226.00000000000003</ele><time>2026-04-13T04:43:32.001Z</time></trkpt><trkpt lat="-29.532183243630616" lon="115.32808248308193"><ele>226.00000000000003</ele><time>2026-04-13T04:43:33.001Z</time></trkpt><trkpt lat="-29.532167904862014" lon="115.32818709850858"><ele>226.0</ele><time>2026-04-13T04:43:34.001Z</time></trkpt><trkpt lat="-29.532133938980788" lon="115.32827417868269"><ele>226.0</ele><time>2026-04-13T04:43:35.001Z</time></trkpt><trkpt lat="-29.532086656500713" lon="115.32837132689262"><ele>225.60000000000002</ele><time>2026-04-13T04:43:36.001Z</time></trkpt><trkpt lat="-29.532053628229917" lon="115.32846921407332"><ele>225.20000000000002</ele><time>2026-04-13T04:43:37.001Z</time></trkpt><trkpt lat="-29.53203986325938" lon="115.328581355936"><ele>224.79999999999998</ele><time>2026-04-13T04:43:38.001Z</time></trkpt><trkpt lat="-29.532034299179053" lon="115.32869649095217"><ele>224.39999999999998</ele><time>2026-04-13T04:43:39.001Z</time></trkpt><trkpt lat="-29.532009746662183" lon="115.32878994311803"><ele>224.0</ele><time>2026-04-13T04:43:40.001Z</time></trkpt><trkpt lat="-29.531976855333756" lon="115.32886997795902"><ele>223.39999999999998</ele><time>2026-04-13T04:43:41.001Z</time></trkpt><trkpt lat="-29.531943869275185" lon="115.32894295346678"><ele>222.79999999999998</ele><time>2026-04-13T04:43:42.001Z</time></trkpt><trkpt lat="-29.531850971955063" lon="115.32902582854054"><ele>222.20000000000002</ele><time>2026-04-13T04:43:44.001Z</time></trkpt><trkpt lat="-29.53178592028721" lon="115.32903949834953"><ele>221.60000000000002</ele><time>2026-04-13T04:43:45.001Z</time></trkpt><trkpt lat="-29.531693611258227" lon="115.32911652573948"><ele>221.0</ele><time>2026-04-13T04:43:47.001Z</time></trkpt><trkpt lat="-29.531700066101397" lon="115.32924490062672"><ele>221.00000000000003</ele><time>2026-04-13T04:43:49.001Z</time></trkpt><trkpt lat="-29.531756519448596" lon="115.32936184149443"><ele>221.0</ele><time>2026-04-13T04:43:51.001Z</time></trkpt><trkpt lat="-29.53180002847305" lon="115.32941943615614"><ele>221.0</ele><time>2026-04-13T04:43:52.001Z</time></trkpt><trkpt lat="-29.531885254672584" lon="115.32949966598174"><ele>221.0</ele><time>2026-04-13T04:43:54.001Z</time></trkpt><trkpt lat="-29.53192454368274" lon="115.32955835979837"><ele>221.00000000000003</ele><time>2026-04-13T04:43:56.001Z</time></trkpt><trkpt lat="-29.531999599968913" lon="115.32951287722938"><ele>221.0</ele><time>2026-04-13T04:44:08.001Z</time></trkpt><trkpt lat="-29.532068229956252" lon="115.32954946334756"><ele>221.0</ele><time>2026-04-13T04:44:11.001Z</time></trkpt><trkpt lat="-29.532044867923194" lon="115.32966062989527"><ele>221.00000000000003</ele><time>2026-04-13T04:44:14Z</time></trkpt><trkpt lat="-29.532034524952607" lon="115.32974426231048"><ele>221.00000000000003</ele><time>2026-04-13T04:44:17Z</time></trkpt><trkpt lat="-29.531953322262066" lon="115.32975379843504"><ele>221.0</ele><time>2026-04-13T04:44:20Z</time></trkpt><trkpt lat="-29.5318751710386" lon="115.32979386850221"><ele>221.0</ele><time>2026-04-13T04:44:22Z</time></trkpt><trkpt lat="-29.531882989256058" lon="115.32992137658026"><ele>220.4</ele><time>2026-04-13T04:44:24Z</time></trkpt><trkpt lat="-29.531904975350002" lon="115.33000431951551"><ele>219.8</ele><time>2026-04-13T04:44:25Z</time></trkpt><trkpt lat="-29.531926792687173" lon="115.33010015732813"><ele>219.20000000000002</ele><time>2026-04-13T04:44:26Z</time></trkpt><trkpt lat="-29.53193584695438" lon="115.33020949801114"><ele>218.60000000000002</ele><time>2026-04-13T04:44:27Z</time></trkpt><trkpt lat="-29.531930943164674" lon="115.33033630145358"><ele>218.0</ele><time>2026-04-13T04:44:28Z</time></trkpt><trkpt lat="-29.531922327816513" lon="115.3304723665573"><ele>217.0</ele><time>2026-04-13T04:44:29Z</time></trkpt><trkpt lat="-29.53191998732197" lon="115.33059999489593"><ele>216.0</ele><time>2026-04-13T04:44:30Z</time></trkpt><trkpt lat="-29.531921428392817" lon="115.33074735934467"><ele>215.0</ele><time>2026-04-13T04:44:31Z</time></trkpt><trkpt lat="-29.53192292894489" lon="115.33091486451777"><ele>214.0</ele><time>2026-04-13T04:44:32Z</time></trkpt><trkpt lat="-29.53192038043676" lon="115.33108348078535"><ele>213.99999999999997</ele><time>2026-04-13T04:44:33Z</time></trkpt><trkpt lat="-29.53190813948373" lon="115.33122396287843"><ele>214.0</ele><time>2026-04-13T04:44:34Z</time></trkpt><trkpt lat="-29.53189377937763" lon="115.33132224088578"><ele>214.0</ele><time>2026-04-13T04:44:35Z</time></trkpt><trkpt lat="-29.531877229236372" lon="115.33141287705254"><ele>214.0</ele><time>2026-04-13T04:44:36Z</time></trkpt><trkpt lat="-29.53186953320185" lon="115.33150538648121"><ele>213.99999999999997</ele><time>2026-04-13T04:44:37Z</time></trkpt><trkpt lat="-29.531876654300294" lon="115.33159131917643"><ele>214.0</ele><time>2026-04-13T04:44:38Z</time></trkpt><trkpt lat="-29.531898191514447" lon="115.33167644848906"><ele>213.99999999999997</ele><time>2026-04-13T04:44:39Z</time></trkpt><trkpt lat="-29.531913733690864" lon="115.3317584442138"><ele>214.0</ele><time>2026-04-13T04:44:40Z</time></trkpt><trkpt lat="-29.5319044843815" lon="115.33183597030113"><ele>214.0</ele><time>2026-04-13T04:44:41Z</time></trkpt><trkpt lat="-29.531854558628957" lon="115.33195120610985"><ele>214.0</ele><time>2026-04-13T04:44:43Z</time></trkpt><trkpt lat="-29.53184593279627" lon="115.33202680314726"><ele>213.99999999999997</ele><time>2026-04-13T04:44:44Z</time></trkpt><trkpt lat="-29.531840360187143" lon="115.33213709784005"><ele>214.0</ele><time>2026-04-13T04:44:45Z</time></trkpt><trkpt lat="-29.5318231312629" lon="115.3322622394339"><ele>214.0</ele><time>2026-04-13T04:44:46Z</time></trkpt><trkpt lat="-29.531801015844792" lon="115.33241145201617"><ele>214.0</ele><time>2026-04-13T04:44:47Z</time></trkpt><trkpt lat="-29.531782323390345" lon="115.33256069243103"><ele>214.0</ele><time>2026-04-13T04:44:48Z</time></trkpt><trkpt lat="-29.531767723605473" lon="115.33268978722471"><ele>214.0</ele><time>2026-04-13T04:44:49Z</time></trkpt><trkpt lat="-29.5317590617133" lon="115.33280022118926"><ele>214.0</ele><time>2026-04-13T04:44:50Z</time></trkpt><trkpt lat="-29.53175874870065" lon="115.33292350870994"><ele>213.99999999999997</ele><time>2026-04-13T04:44:51Z</time></trkpt><trkpt lat="-29.531767660749566" lon="115.33305802535921"><ele>213.99999999999997</ele><time>2026-04-13T04:44:52Z</time></trkpt><trkpt lat="-29.531785318307474" lon="115.33317466938215"><ele>214.0</ele><time>2026-04-13T04:44:53Z</time></trkpt><trkpt lat="-29.531808852427343" lon="115.33328422278939"><ele>214.0</ele><time>2026-04-13T04:44:54Z</time></trkpt><trkpt lat="-29.53182687415334" lon="115.33338018439856"><ele>214.2</ele><time>2026-04-13T04:44:55Z</time></trkpt><trkpt lat="-29.531821109618352" lon="115.3334606477726"><ele>214.39999999999998</ele><time>2026-04-13T04:44:56Z</time></trkpt><trkpt lat="-29.53179790935196" lon="115.33356622100986"><ele>214.6</ele><time>2026-04-13T04:44:57Z</time></trkpt><trkpt lat="-29.53178381073481" lon="115.33367560394059"><ele>214.8</ele><time>2026-04-13T04:44:58Z</time></trkpt><trkpt lat="-29.53179985081785" lon="115.33378699816362"><ele>215.0</ele><time>2026-04-13T04:44:59Z</time></trkpt><trkpt lat="-29.531834784473013" lon="115.33391066752249"><ele>215.0</ele><time>2026-04-13T04:45:00Z</time></trkpt><trkpt lat="-29.531864478730228" lon="115.3340402751551"><ele>215.0</ele><time>2026-04-13T04:45:01Z</time></trkpt><trkpt lat="-29.53188922754504" lon="115.33415434662052"><ele>215.0</ele><time>2026-04-13T04:45:02Z</time></trkpt><trkpt lat="-29.5319155048263" lon="115.33425075091226"><ele>215.0</ele><time>2026-04-13T04:45:03Z</time></trkpt><trkpt lat="-29.531926689913476" lon="115.33434300386557"><ele>215.0</ele><time>2026-04-13T04:45:04Z</time></trkpt><trkpt lat="-29.531910162091783" lon="115.33443546824269"><ele>215.0</ele><time>2026-04-13T04:45:05Z</time></trkpt><trkpt lat="-29.531884857680108" lon="115.33454167328334"><ele>215.0</ele><time>2026-04-13T04:45:06Z</time></trkpt><trkpt lat="-29.531881441952898" lon="115.33464018620506"><ele>215.0</ele><time>2026-04-13T04:45:07Z</time></trkpt><trkpt lat="-29.531905386928447" lon="115.33474446654773"><ele>215.0</ele><time>2026-04-13T04:45:08Z</time></trkpt><trkpt lat="-29.531949347938845" lon="115.3348415807672"><ele>215.0</ele><time>2026-04-13T04:45:09Z</time></trkpt><trkpt lat="-29.531993785771157" lon="115.33493155305734"><ele>215.2</ele><time>2026-04-13T04:45:10Z</time></trkpt><trkpt lat="-29.53201465494676" lon="115.33501860349597"><ele>215.4</ele><time>2026-04-13T04:45:11Z</time></trkpt><trkpt lat="-29.53201305396414" lon="115.33512571443053"><ele>215.60000000000002</ele><time>2026-04-13T04:45:12Z</time></trkpt><trkpt lat="-29.532011930859227" lon="115.33524278126659"><ele>215.8</ele><time>2026-04-13T04:45:13Z</time></trkpt><trkpt lat="-29.53200252943804" lon="115.33535605381215"><ele>216.0</ele><time>2026-04-13T04:45:14Z</time></trkpt><trkpt lat="-29.53198075027647" lon="115.33548056427449"><ele>216.25</ele><time>2026-04-13T04:45:15Z</time></trkpt><trkpt lat="-29.531960333033982" lon="115.33562466526858"><ele>216.5</ele><time>2026-04-13T04:45:16Z</time></trkpt><trkpt lat="-29.531941022875138" lon="115.33579167971932"><ele>216.75</ele><time>2026-04-13T04:45:17Z</time></trkpt><trkpt lat="-29.531923421784466" lon="115.33596559522023"><ele>217.0</ele><time>2026-04-13T04:45:18Z</time></trkpt><trkpt lat="-29.531917809271338" lon="115.3361252057442"><ele>217.0</ele><time>2026-04-13T04:45:19Z</time></trkpt><trkpt lat="-29.531926484635374" lon="115.33628970205278"><ele>217.0</ele><time>2026-04-13T04:45:20Z</time></trkpt><trkpt lat="-29.531935531052927" lon="115.33646319917378"><ele>217.0</ele><time>2026-04-13T04:45:21Z</time></trkpt><trkpt lat="-29.531949699487768" lon="115.33664383562231"><ele>217.5</ele><time>2026-04-13T04:45:22Z</time></trkpt><trkpt lat="-29.5319624011213" lon="115.33681971678033"><ele>218.0</ele><time>2026-04-13T04:45:23.001Z</time></trkpt><trkpt lat="-29.5319742539497" lon="115.33698801977806"><ele>218.5</ele><time>2026-04-13T04:45:24.001Z</time></trkpt><trkpt lat="-29.531979832157067" lon="115.33713901183285"><ele>219.0</ele><time>2026-04-13T04:45:25.001Z</time></trkpt><trkpt lat="-29.531980983258155" lon="115.33728227653592"><ele>219.0</ele><time>2026-04-13T04:45:26.001Z</time></trkpt><trkpt lat="-29.531982669361657" lon="115.33743796615708"><ele>219.0</ele><time>2026-04-13T04:45:27.001Z</time></trkpt><trkpt lat="-29.53198294995978" lon="115.33759644020374"><ele>219.0</ele><time>2026-04-13T04:45:28.001Z</time></trkpt><trkpt lat="-29.531979897139152" lon="115.33775025088339"><ele>219.0</ele><time>2026-04-13T04:45:29.001Z</time></trkpt><trkpt lat="-29.531976984250925" lon="115.33789621343212"><ele>219.0</ele><time>2026-04-13T04:45:30.001Z</time></trkpt><trkpt lat="-29.531974916926405" lon="115.3380384314197"><ele>219.0</ele><time>2026-04-13T04:45:31.001Z</time></trkpt><trkpt lat="-29.531973561834906" lon="115.33817915238266"><ele>219.0</ele><time>2026-04-13T04:45:32.001Z</time></trkpt><trkpt lat="-29.53197244075793" lon="115.33832452157571"><ele>219.0</ele><time>2026-04-13T04:45:33.001Z</time></trkpt><trkpt lat="-29.531977296788543" lon="115.33846682756783"><ele>218.75</ele><time>2026-04-13T04:45:34.001Z</time></trkpt><trkpt lat="-29.531980476638388" lon="115.33861137358801"><ele>218.5</ele><time>2026-04-13T04:45:35.001Z</time></trkpt><trkpt lat="-29.531978580462333" lon="115.33875635463774"><ele>218.25</ele><time>2026-04-13T04:45:36.001Z</time></trkpt><trkpt lat="-29.531968582891075" lon="115.33889893343654"><ele>218.0</ele><time>2026-04-13T04:45:37.001Z</time></trkpt><trkpt lat="-29.531969570036267" lon="115.33903083309666"><ele>217.0</ele><time>2026-04-13T04:45:38.001Z</time></trkpt><trkpt lat="-29.531975746875705" lon="115.33917457483658"><ele>216.0</ele><time>2026-04-13T04:45:39.001Z</time></trkpt><trkpt lat="-29.531977309808973" lon="115.33931610777279"><ele>215.0</ele><time>2026-04-13T04:45:40.001Z</time></trkpt><trkpt lat="-29.531976372008703" lon="115.33946577947428"><ele>214.0</ele><time>2026-04-13T04:45:41.001Z</time></trkpt><trkpt lat="-29.531974701197306" lon="115.3396140418044"><ele>212.75</ele><time>2026-04-13T04:45:42.001Z</time></trkpt><trkpt lat="-29.531974797502187" lon="115.33976301061173"><ele>211.5</ele><time>2026-04-13T04:45:43.001Z</time></trkpt><trkpt lat="-29.53197432155793" lon="115.3399026810999"><ele>210.25</ele><time>2026-04-13T04:45:44.001Z</time></trkpt><trkpt lat="-29.53196843782102" lon="115.3400401941139"><ele>209.0</ele><time>2026-04-13T04:45:45.001Z</time></trkpt><trkpt lat="-29.531953975541903" lon="115.34017418027221"><ele>209.0</ele><time>2026-04-13T04:45:46.001Z</time></trkpt><trkpt lat="-29.531945029655887" lon="115.34030486299166"><ele>209.0</ele><time>2026-04-13T04:45:47.001Z</time></trkpt><trkpt lat="-29.53194593275965" lon="115.34043926716564"><ele>209.0</ele><time>2026-04-13T04:45:48.001Z</time></trkpt><trkpt lat="-29.53194821776277" lon="115.3405739003519"><ele>209.0</ele><time>2026-04-13T04:45:49.001Z</time></trkpt><trkpt lat="-29.53194829931584" lon="115.34070870079688"><ele>208.0</ele><time>2026-04-13T04:45:50.001Z</time></trkpt><trkpt lat="-29.531947443443006" lon="115.34084890404034"><ele>207.0</ele><time>2026-04-13T04:45:51.001Z</time></trkpt><trkpt lat="-29.531945339685468" lon="115.3409890046018"><ele>206.0</ele><time>2026-04-13T04:45:52.001Z</time></trkpt><trkpt lat="-29.53194015579354" lon="115.34113328133192"><ele>205.0</ele><time>2026-04-13T04:45:53.001Z</time></trkpt><trkpt lat="-29.531930203231102" lon="115.34127376714574"><ele>204.0</ele><time>2026-04-13T04:45:54.001Z</time></trkpt><trkpt lat="-29.531917346653966" lon="115.34141907393158"><ele>203.0</ele><time>2026-04-13T04:45:55.001Z</time></trkpt><trkpt lat="-29.53190173972599" lon="115.34156219885006"><ele>202.0</ele><time>2026-04-13T04:45:56.001Z</time></trkpt><trkpt lat="-29.531887346756516" lon="115.34170971915992"><ele>201.0</ele><time>2026-04-13T04:45:57.001Z</time></trkpt><trkpt lat="-29.531875183392863" lon="115.34185210088549"><ele>201.0</ele><time>2026-04-13T04:45:58.001Z</time></trkpt><trkpt lat="-29.53186799973887" lon="115.3420070354013"><ele>201.0</ele><time>2026-04-13T04:45:59.001Z</time></trkpt><trkpt lat="-29.531862522762644" lon="115.34213921100819"><ele>201.0</ele><time>2026-04-13T04:46:00.001Z</time></trkpt><trkpt lat="-29.53187006920907" lon="115.34228059764982"><ele>201.0</ele><time>2026-04-13T04:46:01.001Z</time></trkpt><trkpt lat="-29.531883972418456" lon="115.34242370646734"><ele>200.0</ele><time>2026-04-13T04:46:02.001Z</time></trkpt><trkpt lat="-29.531892428312204" lon="115.34257431014342"><ele>199.0</ele><time>2026-04-13T04:46:03.001Z</time></trkpt><trkpt lat="-29.53189998365494" lon="115.34272911260067"><ele>198.0</ele><time>2026-04-13T04:46:04.001Z</time></trkpt><trkpt lat="-29.531910639589988" lon="115.34288055043764"><ele>197.0</ele><time>2026-04-13T04:46:05.001Z</time></trkpt><trkpt lat="-29.53191343603152" lon="115.34303306678387"><ele>196.5</ele><time>2026-04-13T04:46:06.001Z</time></trkpt><trkpt lat="-29.531916879925205" lon="115.34318166004829"><ele>196.0</ele><time>2026-04-13T04:46:07.001Z</time></trkpt><trkpt lat="-29.53192204091071" lon="115.34332033444781"><ele>195.5</ele><time>2026-04-13T04:46:08.001Z</time></trkpt><trkpt lat="-29.531928635512074" lon="115.3434761983568"><ele>195.0</ele><time>2026-04-13T04:46:09.001Z</time></trkpt><trkpt lat="-29.531934798282233" lon="115.34363528886671"><ele>195.0</ele><time>2026-04-13T04:46:10.001Z</time></trkpt><trkpt lat="-29.531934154069035" lon="115.3438031564639"><ele>195.0</ele><time>2026-04-13T04:46:11.001Z</time></trkpt><trkpt lat="-29.531924801084266" lon="115.34397176856366"><ele>195.0</ele><time>2026-04-13T04:46:12.001Z</time></trkpt><trkpt lat="-29.531918618836674" lon="115.34414428494964"><ele>195.0</ele><time>2026-04-13T04:46:13.001Z</time></trkpt><trkpt lat="-29.531918372751687" lon="115.34430913054645"><ele>194.5</ele><time>2026-04-13T04:46:14.001Z</time></trkpt><trkpt lat="-29.531925769314956" lon="115.34447666171012"><ele>194.0</ele><time>2026-04-13T04:46:15.001Z</time></trkpt><trkpt lat="-29.53192802043325" lon="115.34464091705287"><ele>193.5</ele><time>2026-04-13T04:46:16.001Z</time></trkpt><trkpt lat="-29.531928736299566" lon="115.34480179984686"><ele>193.0</ele><time>2026-04-13T04:46:17.001Z</time></trkpt><trkpt lat="-29.531932669447265" lon="115.34496654206185"><ele>192.0</ele><time>2026-04-13T04:46:18.001Z</time></trkpt><trkpt lat="-29.531946297424653" lon="115.3451254297921"><ele>191.0</ele><time>2026-04-13T04:46:19.001Z</time></trkpt><trkpt lat="-29.531961099722977" lon="115.34528461334115"><ele>190.0</ele><time>2026-04-13T04:46:20.001Z</time></trkpt><trkpt lat="-29.531975711533764" lon="115.3454330792008"><ele>189.0</ele><time>2026-04-13T04:46:21.001Z</time></trkpt><trkpt lat="-29.531991134755387" lon="115.34558593951552"><ele>188.0</ele><time>2026-04-13T04:46:22.001Z</time></trkpt><trkpt lat="-29.532005370799563" lon="115.34574208381673"><ele>187.0</ele><time>2026-04-13T04:46:23.001Z</time></trkpt><trkpt lat="-29.53202178571375" lon="115.34590203269313"><ele>186.0</ele><time>2026-04-13T04:46:24.001Z</time></trkpt><trkpt lat="-29.532028564970446" lon="115.34605731800127"><ele>185.0</ele><time>2026-04-13T04:46:25.001Z</time></trkpt><trkpt lat="-29.53201948582469" lon="115.34621741621156"><ele>184.5</ele><time>2026-04-13T04:46:26.001Z</time></trkpt><trkpt lat="-29.53200512854912" lon="115.34638476649492"><ele>184.0</ele><time>2026-04-13T04:46:27Z</time></trkpt><trkpt lat="-29.532006751957987" lon="115.34654287394976"><ele>183.5</ele><time>2026-04-13T04:46:28Z</time></trkpt><trkpt lat="-29.532016430874766" lon="115.3467028303217"><ele>183.0</ele><time>2026-04-13T04:46:29Z</time></trkpt><trkpt lat="-29.532025764601883" lon="115.34684688447035"><ele>183.0</ele><time>2026-04-13T04:46:30Z</time></trkpt><trkpt lat="-29.5320262916593" lon="115.34698565242822"><ele>183.0</ele><time>2026-04-13T04:46:31Z</time></trkpt><trkpt lat="-29.532014828599696" lon="115.347123192808"><ele>183.0</ele><time>2026-04-13T04:46:32Z</time></trkpt><trkpt lat="-29.531995701634106" lon="115.3472515155433"><ele>183.0</ele><time>2026-04-13T04:46:33Z</time></trkpt><trkpt lat="-29.531976452959196" lon="115.34737836658711"><ele>182.0</ele><time>2026-04-13T04:46:34Z</time></trkpt><trkpt lat="-29.531957435858963" lon="115.34752477864234"><ele>181.0</ele><time>2026-04-13T04:46:35Z</time></trkpt><trkpt lat="-29.531929027453476" lon="115.34767887316218"><ele>180.0</ele><time>2026-04-13T04:46:36Z</time></trkpt><trkpt lat="-29.531896991491866" lon="115.34783856415862"><ele>179.0</ele><time>2026-04-13T04:46:37Z</time></trkpt><trkpt lat="-29.531871291588008" lon="115.34800278157051"><ele>179.33333333333331</ele><time>2026-04-13T04:46:38Z</time></trkpt><trkpt lat="-29.53185072151434" lon="115.34818000707557"><ele>179.66666666666666</ele><time>2026-04-13T04:46:39Z</time></trkpt><trkpt lat="-29.53184315908107" lon="115.34836021442167"><ele>180.0</ele><time>2026-04-13T04:46:40Z</time></trkpt><trkpt lat="-29.531837933557192" lon="115.34852578069233"><ele>180.0</ele><time>2026-04-13T04:46:41Z</time></trkpt><trkpt lat="-29.53183031433005" lon="115.34868620686358"><ele>180.0</ele><time>2026-04-13T04:46:42Z</time></trkpt><trkpt lat="-29.531834674405612" lon="115.34882824927391"><ele>180.0</ele><time>2026-04-13T04:46:43Z</time></trkpt><trkpt lat="-29.531845886014274" lon="115.34896420272634"><ele>180.0</ele><time>2026-04-13T04:46:44Z</time></trkpt><trkpt lat="-29.531866367613848" lon="115.34910603908578"><ele>181.0</ele><time>2026-04-13T04:46:45Z</time></trkpt><trkpt lat="-29.5318971295411" lon="115.3492485879607"><ele>182.0</ele><time>2026-04-13T04:46:46Z</time></trkpt><trkpt lat="-29.531916646323438" lon="115.34939735815985"><ele>183.0</ele><time>2026-04-13T04:46:47Z</time></trkpt><trkpt lat="-29.531924242355455" lon="115.34955416585103"><ele>184.0</ele><time>2026-04-13T04:46:48Z</time></trkpt><trkpt lat="-29.53193379851289" lon="115.34972849210149"><ele>185.75</ele><time>2026-04-13T04:46:49Z</time></trkpt><trkpt lat="-29.531945696990437" lon="115.34990478691401"><ele>187.5</ele><time>2026-04-13T04:46:50Z</time></trkpt><trkpt lat="-29.53195887467374" lon="115.3500732737285"><ele>189.25</ele><time>2026-04-13T04:46:51Z</time></trkpt><trkpt lat="-29.531973149621706" lon="115.35024082929027"><ele>191.0</ele><time>2026-04-13T04:46:52Z</time></trkpt><trkpt lat="-29.531984224975883" lon="115.35040155220035"><ele>192.75</ele><time>2026-04-13T04:46:53Z</time></trkpt><trkpt lat="-29.5319870608254" lon="115.35056297735213"><ele>194.5</ele><time>2026-04-13T04:46:54Z</time></trkpt><trkpt lat="-29.531985269773795" lon="115.3507257723003"><ele>196.25</ele><time>2026-04-13T04:46:55Z</time></trkpt><trkpt lat="-29.531981819806084" lon="115.35089195072094"><ele>198.0</ele><time>2026-04-13T04:46:56Z</time></trkpt><trkpt lat="-29.53197904981211" lon="115.35105550053201"><ele>198.0</ele><time>2026-04-13T04:46:57Z</time></trkpt><trkpt lat="-29.531976789918765" lon="115.35122669225233"><ele>198.0</ele><time>2026-04-13T04:46:58Z</time></trkpt><trkpt lat="-29.531975277290456" lon="115.35139845244966"><ele>198.0</ele><time>2026-04-13T04:46:59Z</time></trkpt><trkpt lat="-29.531974307539944" lon="115.35157601679694"><ele>200.66666666666669</ele><time>2026-04-13T04:47:00Z</time></trkpt><trkpt lat="-29.531968215867597" lon="115.35175214159182"><ele>203.33333333333334</ele><time>2026-04-13T04:47:01Z</time></trkpt><trkpt lat="-29.53196250295328" lon="115.35192929846038"><ele>206.0</ele><time>2026-04-13T04:47:02.001Z</time></trkpt><trkpt lat="-29.531960095458622" lon="115.3520970299958"><ele>206.25</ele><time>2026-04-13T04:47:03.001Z</time></trkpt><trkpt lat="-29.53195101015067" lon="115.35227577804737"><ele>206.5</ele><time>2026-04-13T04:47:04.001Z</time></trkpt><trkpt lat="-29.53194232757817" lon="115.35243956834103"><ele>206.75</ele><time>2026-04-13T04:47:05.001Z</time></trkpt><trkpt lat="-29.531942088850936" lon="115.35259416491759"><ele>207.0</ele><time>2026-04-13T04:47:06.001Z</time></trkpt><trkpt lat="-29.531945020985912" lon="115.35275866817489"><ele>207.0</ele><time>2026-04-13T04:47:07.001Z</time></trkpt><trkpt lat="-29.53194807750402" lon="115.35293659934119"><ele>207.0</ele><time>2026-04-13T04:47:08.001Z</time></trkpt><trkpt lat="-29.53195052243528" lon="115.35310769949356"><ele>207.0</ele><time>2026-04-13T04:47:09.001Z</time></trkpt><trkpt lat="-29.531952437103545" lon="115.35326962420129"><ele>207.0</ele><time>2026-04-13T04:47:10.001Z</time></trkpt><trkpt lat="-29.531955486017957" lon="115.35343120904028"><ele>207.6</ele><time>2026-04-13T04:47:11.001Z</time></trkpt><trkpt lat="-29.531961418862878" lon="115.35357004406139"><ele>208.2</ele><time>2026-04-13T04:47:12.001Z</time></trkpt><trkpt lat="-29.531965294993608" lon="115.35368164352738"><ele>208.8</ele><time>2026-04-13T04:47:13.001Z</time></trkpt><trkpt lat="-29.53196573647328" lon="115.35376584081044"><ele>209.4</ele><time>2026-04-13T04:47:14.001Z</time></trkpt><trkpt lat="-29.53191871409073" lon="115.35386214297182"><ele>210.0</ele><time>2026-04-13T04:47:16.001Z</time></trkpt><trkpt lat="-29.531847912519837" lon="115.35387820744752"><ele>210.8</ele><time>2026-04-13T04:47:34.001Z</time></trkpt><trkpt lat="-29.531765453995146" lon="115.35388840264322"><ele>211.6</ele><time>2026-04-13T04:47:37.001Z</time></trkpt><trkpt lat="-29.53167475961209" lon="115.35388786858584"><ele>212.39999999999998</ele><time>2026-04-13T04:47:39.001Z</time></trkpt><trkpt lat="-29.531557016669897" lon="115.35388512711783"><ele>213.2</ele><time>2026-04-13T04:47:41.001Z</time></trkpt><trkpt lat="-29.53143182291925" lon="115.35388708571051"><ele>214.0</ele><time>2026-04-13T04:47:43.001Z</time></trkpt><trkpt lat="-29.53134648705044" lon="115.35388757994922"><ele>213.99999999999997</ele><time>2026-04-13T04:47:44.001Z</time></trkpt><trkpt lat="-29.53125767455071" lon="115.35388893888174"><ele>214.0</ele><time>2026-04-13T04:47:45.001Z</time></trkpt><trkpt lat="-29.53118241211767" lon="115.3538896614902"><ele>214.0</ele><time>2026-04-13T04:47:46.001Z</time></trkpt><trkpt lat="-29.5311191901512" lon="115.35389576738696"><ele>214.0</ele><time>2026-04-13T04:47:47.001Z</time></trkpt><trkpt lat="-29.531054869565935" lon="115.35389279268317"><ele>213.99999999999997</ele><time>2026-04-13T04:47:48.001Z</time></trkpt><trkpt lat="-29.530979793270316" lon="115.35389470902342"><ele>214.0</ele><time>2026-04-13T04:47:49.001Z</time></trkpt><trkpt lat="-29.530897764979244" lon="115.35390748693054"><ele>214.79999999999998</ele><time>2026-04-13T04:47:50.001Z</time></trkpt><trkpt lat="-29.530805286768686" lon="115.35391473110589"><ele>215.59999999999997</ele><time>2026-04-13T04:47:51.001Z</time></trkpt><trkpt lat="-29.530716072032067" lon="115.35391958301092"><ele>216.4</ele><time>2026-04-13T04:47:52.001Z</time></trkpt><trkpt lat="-29.530625138642222" lon="115.35392046413875"><ele>217.2</ele><time>2026-04-13T04:47:53.001Z</time></trkpt><trkpt lat="-29.53053274827453" lon="115.35391318511638"><ele>218.0</ele><time>2026-04-13T04:47:54.001Z</time></trkpt><trkpt lat="-29.53044985079431" lon="115.35389253625385"><ele>216.60000000000002</ele><time>2026-04-13T04:47:55.001Z</time></trkpt><trkpt lat="-29.530382329374604" lon="115.35386610902015"><ele>215.20000000000002</ele><time>2026-04-13T04:47:56.001Z</time></trkpt><trkpt lat="-29.530301094713078" lon="115.35380481945585"><ele>213.8</ele><time>2026-04-13T04:47:58.001Z</time></trkpt><trkpt lat="-29.53023500826307" lon="115.35369959911849"><ele>212.4</ele><time>2026-04-13T04:48:00.001Z</time></trkpt><trkpt lat="-29.530185352394945" lon="115.35361412523619"><ele>211.0</ele><time>2026-04-13T04:48:01.001Z</time></trkpt><trkpt lat="-29.530131240660026" lon="115.35351316915556"><ele>210.99999999999997</ele><time>2026-04-13T04:48:02.001Z</time></trkpt><trkpt lat="-29.53008193810127" lon="115.35341328320477"><ele>211.0</ele><time>2026-04-13T04:48:03.001Z</time></trkpt><trkpt lat="-29.530032480244962" lon="115.35332525936197"><ele>211.0</ele><time>2026-04-13T04:48:04.001Z</time></trkpt><trkpt lat="-29.52997377905838" lon="115.35324936410382"><ele>211.0</ele><time>2026-04-13T04:48:05.001Z</time></trkpt><trkpt lat="-29.52991402463043" lon="115.35317599440084"><ele>210.99999999999997</ele><time>2026-04-13T04:48:06.001Z</time></trkpt><trkpt lat="-29.529849593126453" lon="115.35312482991206"><ele>211.0</ele><time>2026-04-13T04:48:07.001Z</time></trkpt><trkpt lat="-29.529773288711926" lon="115.35310335129543"><ele>210.99999999999997</ele><time>2026-04-13T04:48:08.001Z</time></trkpt><trkpt lat="-29.529687843084126" lon="115.35309267179925"><ele>211.0</ele><time>2026-04-13T04:48:09.001Z</time></trkpt><trkpt lat="-29.529611464828278" lon="115.35311176620853"><ele>211.0</ele><time>2026-04-13T04:48:10.001Z</time></trkpt><trkpt lat="-29.52954242079106" lon="115.35315788311776"><ele>211.0</ele><time>2026-04-13T04:48:11.001Z</time></trkpt><trkpt lat="-29.529483683047317" lon="115.35321561461383"><ele>210.99999999999997</ele><time>2026-04-13T04:48:12.001Z</time></trkpt><trkpt lat="-29.529410672998758" lon="115.3532907348936"><ele>211.0</ele><time>2026-04-13T04:48:13.001Z</time></trkpt><trkpt lat="-29.529331756250876" lon="115.3533797594026"><ele>211.4</ele><time>2026-04-13T04:48:14.001Z</time></trkpt><trkpt lat="-29.52924665623539" lon="115.3534626333154"><ele>211.8</ele><time>2026-04-13T04:48:15.001Z</time></trkpt><trkpt lat="-29.529163618497222" lon="115.35351637097179"><ele>212.20000000000002</ele><time>2026-04-13T04:48:16.001Z</time></trkpt><trkpt lat="-29.529068485955282" lon="115.35355335992558"><ele>212.60000000000002</ele><time>2026-04-13T04:48:17.001Z</time></trkpt><trkpt lat="-29.52895537298129" lon="115.3535785040651"><ele>213.0</ele><time>2026-04-13T04:48:18.001Z</time></trkpt><trkpt lat="-29.52882635463987" lon="115.35359296070331"><ele>213.5</ele><time>2026-04-13T04:48:19.001Z</time></trkpt><trkpt lat="-29.528692048122775" lon="115.3535985495023"><ele>214.0</ele><time>2026-04-13T04:48:20.001Z</time></trkpt><trkpt lat="-29.528543189170588" lon="115.35360737333632"><ele>214.5</ele><time>2026-04-13T04:48:21.001Z</time></trkpt><trkpt lat="-29.528395716940203" lon="115.35361871909653"><ele>215.0</ele><time>2026-04-13T04:48:22.001Z</time></trkpt><trkpt lat="-29.52823581216096" lon="115.3536318142234"><ele>215.0</ele><time>2026-04-13T04:48:23.001Z</time></trkpt><trkpt lat="-29.528073885533402" lon="115.35364952223395"><ele>215.0</ele><time>2026-04-13T04:48:24.001Z</time></trkpt><trkpt lat="-29.527904692954404" lon="115.35366707813625"><ele>215.0</ele><time>2026-04-13T04:48:25.001Z</time></trkpt><trkpt lat="-29.527746091944845" lon="115.3536791795853"><ele>215.75</ele><time>2026-04-13T04:48:26.001Z</time></trkpt><trkpt lat="-29.527598627128935" lon="115.35368745117178"><ele>216.5</ele><time>2026-04-13T04:48:27.001Z</time></trkpt><trkpt lat="-29.5274627705912" lon="115.35368882615195"><ele>217.25</ele><time>2026-04-13T04:48:28.001Z</time></trkpt><trkpt lat="-29.52733786189798" lon="115.35368106527682"><ele>218.0</ele><time>2026-04-13T04:48:29.001Z</time></trkpt><trkpt lat="-29.527221305246528" lon="115.35368439607385"><ele>218.0</ele><time>2026-04-13T04:48:30.001Z</time></trkpt><trkpt lat="-29.52709322244941" lon="115.35371292977923"><ele>218.0</ele><time>2026-04-13T04:48:31.001Z</time></trkpt><trkpt lat="-29.526956185946347" lon="115.35373961237052"><ele>218.0</ele><time>2026-04-13T04:48:32.001Z</time></trkpt><trkpt lat="-29.526840992782283" lon="115.35376201456286"><ele>218.0</ele><time>2026-04-13T04:48:33.001Z</time></trkpt><trkpt lat="-29.526753752048116" lon="115.35377582035278"><ele>217.50000000000003</ele><time>2026-04-13T04:48:34.001Z</time></trkpt><trkpt lat="-29.52666856137357" lon="115.35378184173699"><ele>217.0</ele><time>2026-04-13T04:48:36.001Z</time></trkpt><trkpt lat="-29.526636477377966" lon="115.35371758644588"><ele>216.5</ele><time>2026-04-13T04:48:40.001Z</time></trkpt><trkpt lat="-29.526577212264854" lon="115.35366333809783"><ele>216.0</ele><time>2026-04-13T04:48:43.001Z</time></trkpt><trkpt lat="-29.526496504575956" lon="115.35361438369249"><ele>215.50000000000003</ele><time>2026-04-13T04:48:46Z</time></trkpt><trkpt lat="-29.52638661457228" lon="115.35362629801389"><ele>215.0</ele><time>2026-04-13T04:48:48Z</time></trkpt><trkpt lat="-29.52627020902079" lon="115.35365493183593"><ele>214.2</ele><time>2026-04-13T04:48:50.001Z</time></trkpt><trkpt lat="-29.52619357749636" lon="115.35368565454934"><ele>213.4</ele><time>2026-04-13T04:48:51.001Z</time></trkpt><trkpt lat="-29.526103186963734" lon="115.35373106291279"><ele>212.60000000000002</ele><time>2026-04-13T04:48:52.001Z</time></trkpt><trkpt lat="-29.525993071835305" lon="115.35378443806955"><ele>211.8</ele><time>2026-04-13T04:48:53.001Z</time></trkpt><trkpt lat="-29.525894070608402" lon="115.35382779818859"><ele>211.0</ele><time>2026-04-13T04:48:54.001Z</time></trkpt><trkpt lat="-29.52581270102364" lon="115.35385887435994"><ele>210.99999999999997</ele><time>2026-04-13T04:48:55.001Z</time></trkpt><trkpt lat="-29.52571252421429" lon="115.35389206806288"><ele>211.0</ele><time>2026-04-13T04:48:57.001Z</time></trkpt><trkpt lat="-29.52560673603797" lon="115.35387883776124"><ele>211.0</ele><time>2026-04-13T04:48:59.001Z</time></trkpt><trkpt lat="-29.525527044900887" lon="115.3538555623555"><ele>211.0</ele><time>2026-04-13T04:49:00.001Z</time></trkpt><trkpt lat="-29.525446266291524" lon="115.35383518869165"><ele>210.99999999999997</ele><time>2026-04-13T04:49:01.001Z</time></trkpt><trkpt lat="-29.52537932865745" lon="115.35382995915886"><ele>211.0</ele><time>2026-04-13T04:49:02.001Z</time></trkpt><trkpt lat="-29.525314893924843" lon="115.35384204156"><ele>210.60000000000002</ele><time>2026-04-13T04:49:03.001Z</time></trkpt><trkpt lat="-29.525237719467253" lon="115.35386884368359"><ele>210.2</ele><time>2026-04-13T04:49:04.001Z</time></trkpt><trkpt lat="-29.525129505465653" lon="115.35388127758897"><ele>209.8</ele><time>2026-04-13T04:49:05.001Z</time></trkpt><trkpt lat="-29.52500163686977" lon="115.35388193366401"><ele>209.39999999999998</ele><time>2026-04-13T04:49:06.001Z</time></trkpt><trkpt lat="-29.524871539707167" lon="115.35388639626217"><ele>209.0</ele><time>2026-04-13T04:49:07.001Z</time></trkpt><trkpt lat="-29.524740913310538" lon="115.35388899473784"><ele>209.5</ele><time>2026-04-13T04:49:08.002Z</time></trkpt><trkpt lat="-29.524586879954292" lon="115.35388567055786"><ele>210.0</ele><time>2026-04-13T04:49:09.002Z</time></trkpt><trkpt lat="-29.524443563464484" lon="115.3538790923903"><ele>210.5</ele><time>2026-04-13T04:49:10.002Z</time></trkpt><trkpt lat="-29.524304652426093" lon="115.35387412534475"><ele>211.0</ele><time>2026-04-13T04:49:11.002Z</time></trkpt><trkpt lat="-29.524154679264125" lon="115.35387776343889"><ele>211.0</ele><time>2026-04-13T04:49:12.002Z</time></trkpt><trkpt lat="-29.524000079983136" lon="115.35388317393651"><ele>211.0</ele><time>2026-04-13T04:49:13.002Z</time></trkpt><trkpt lat="-29.52382852333235" lon="115.35389464766445"><ele>211.0</ele><time>2026-04-13T04:49:14.002Z</time></trkpt><trkpt lat="-29.523655862860952" lon="115.3539003070232"><ele>211.0</ele><time>2026-04-13T04:49:15.002Z</time></trkpt><trkpt lat="-29.52349146928314" lon="115.35390149893728"><ele>211.0</ele><time>2026-04-13T04:49:16.002Z</time></trkpt><trkpt lat="-29.52333903441829" lon="115.35389343406297"><ele>211.0</ele><time>2026-04-13T04:49:17.002Z</time></trkpt><trkpt lat="-29.523199890071762" lon="115.35389101054984"><ele>211.0</ele><time>2026-04-13T04:49:18.002Z</time></trkpt><trkpt lat="-29.523070230159355" lon="115.35389311000442"><ele>211.0</ele><time>2026-04-13T04:49:19.002Z</time></trkpt><trkpt lat="-29.522925463902624" lon="115.35389040937605"><ele>211.0</ele><time>2026-04-13T04:49:20.002Z</time></trkpt><trkpt lat="-29.522766973587924" lon="115.35388674796705"><ele>211.0</ele><time>2026-04-13T04:49:21.002Z</time></trkpt><trkpt lat="-29.522610217656545" lon="115.35388797557108"><ele>210.66666666666666</ele><time>2026-04-13T04:49:22.002Z</time></trkpt><trkpt lat="-29.522435479382857" lon="115.35389151226079"><ele>210.33333333333331</ele><time>2026-04-13T04:49:23.002Z</time></trkpt><trkpt lat="-29.52225490974037" lon="115.35389494290126"><ele>210.0</ele><time>2026-04-13T04:49:24.002Z</time></trkpt><trkpt lat="-29.522083809177733" lon="115.35389366320962"><ele>210.33333333333331</ele><time>2026-04-13T04:49:25.002Z</time></trkpt><trkpt lat="-29.521912412708442" lon="115.35389620677186"><ele>210.66666666666666</ele><time>2026-04-13T04:49:26.002Z</time></trkpt><trkpt lat="-29.52174747337888" lon="115.35389311081215"><ele>211.0</ele><time>2026-04-13T04:49:27.002Z</time></trkpt><trkpt lat="-29.52158317390927" lon="115.35389324724993"><ele>211.0</ele><time>2026-04-13T04:49:28.002Z</time></trkpt><trkpt lat="-29.521433432414735" lon="115.35389465399429"><ele>211.0</ele><time>2026-04-13T04:49:29.002Z</time></trkpt><trkpt lat="-29.521282257755875" lon="115.35389878153138"><ele>211.0</ele><time>2026-04-13T04:49:30.002Z</time></trkpt><trkpt lat="-29.52112898486486" lon="115.3539044271326"><ele>211.66666666666666</ele><time>2026-04-13T04:49:31.002Z</time></trkpt><trkpt lat="-29.520956992814945" lon="115.35390257768321"><ele>212.33333333333331</ele><time>2026-04-13T04:49:32.002Z</time></trkpt><trkpt lat="-29.52078016232909" lon="115.35389052556128"><ele>213.0</ele><time>2026-04-13T04:49:33.002Z</time></trkpt><trkpt lat="-29.520618336617037" lon="115.35387901335682"><ele>213.0</ele><time>2026-04-13T04:49:34.002Z</time></trkpt><trkpt lat="-29.52047503646692" lon="115.3538736256649"><ele>213.0</ele><time>2026-04-13T04:49:35.002Z</time></trkpt><trkpt lat="-29.520340368007" lon="115.35386843925048"><ele>213.0</ele><time>2026-04-13T04:49:36.002Z</time></trkpt><trkpt lat="-29.520199876530782" lon="115.35386503233656"><ele>213.0</ele><time>2026-04-13T04:49:37.002Z</time></trkpt><trkpt lat="-29.52004690575667" lon="115.35387532159149"><ele>213.66666666666669</ele><time>2026-04-13T04:49:38.002Z</time></trkpt><trkpt lat="-29.519872602161414" lon="115.35388027400452"><ele>214.33333333333334</ele><time>2026-04-13T04:49:39.002Z</time></trkpt><trkpt lat="-29.5196970698193" lon="115.35388008031507"><ele>215.0</ele><time>2026-04-13T04:49:40.002Z</time></trkpt><trkpt lat="-29.519514158332296" lon="115.35388196152115"><ele>215.0</ele><time>2026-04-13T04:49:41.002Z</time></trkpt><trkpt lat="-29.519326381126806" lon="115.35388092357402"><ele>215.0</ele><time>2026-04-13T04:49:42.002Z</time></trkpt><trkpt lat="-29.51914803307722" lon="115.35388341968412"><ele>215.0</ele><time>2026-04-13T04:49:43.002Z</time></trkpt><trkpt lat="-29.518970669226444" lon="115.35388552459419"><ele>215.0</ele><time>2026-04-13T04:49:44.002Z</time></trkpt><trkpt lat="-29.518778256150206" lon="115.35388440187579"><ele>215.0</ele><time>2026-04-13T04:49:45.002Z</time></trkpt><trkpt lat="-29.518587529652557" lon="115.35387890689269"><ele>215.0</ele><time>2026-04-13T04:49:46.002Z</time></trkpt><trkpt lat="-29.518394643739732" lon="115.3538770784951"><ele>215.66666666666669</ele><time>2026-04-13T04:49:47.002Z</time></trkpt><trkpt lat="-29.518216153367092" lon="115.35387780148572"><ele>216.33333333333331</ele><time>2026-04-13T04:49:48.002Z</time></trkpt><trkpt lat="-29.518048589451475" lon="115.35387781711009"><ele>217.0</ele><time>2026-04-13T04:49:49.002Z</time></trkpt><trkpt lat="-29.51789644603738" lon="115.35387799790487"><ele>217.0</ele><time>2026-04-13T04:49:50.002Z</time></trkpt><trkpt lat="-29.51774863942159" lon="115.35387513146681"><ele>217.0</ele><time>2026-04-13T04:49:51.002Z</time></trkpt><trkpt lat="-29.517600500370005" lon="115.35387763072991"><ele>217.0</ele><time>2026-04-13T04:49:52.002Z</time></trkpt><trkpt lat="-29.517461037924647" lon="115.35387422488247"><ele>217.0</ele><time>2026-04-13T04:49:53.002Z</time></trkpt><trkpt lat="-29.51733885154192" lon="115.35386838270259"><ele>217.0</ele><time>2026-04-13T04:49:54.002Z</time></trkpt><trkpt lat="-29.517216671433896" lon="115.35385246282169"><ele>217.0</ele><time>2026-04-13T04:49:55.002Z</time></trkpt><trkpt lat="-29.51711469363199" lon="115.35383724970245"><ele>217.0</ele><time>2026-04-13T04:49:56.002Z</time></trkpt><trkpt lat="-29.51702533750351" lon="115.35384757773068"><ele>217.0</ele><time>2026-04-13T04:49:57.002Z</time></trkpt><trkpt lat="-29.51695874575824" lon="115.35387158109172"><ele>217.0</ele><time>2026-04-13T04:49:58.002Z</time></trkpt><trkpt lat="-29.516883433497796" lon="115.35382055144446"><ele>216.6</ele><time>2026-04-13T04:50:10.002Z</time></trkpt><trkpt lat="-29.516872490945026" lon="115.35372389050937"><ele>216.2</ele><time>2026-04-13T04:50:11.002Z</time></trkpt><trkpt lat="-29.516873586935098" lon="115.35360654342999"><ele>215.8</ele><time>2026-04-13T04:50:12.002Z</time></trkpt><trkpt lat="-29.516904812163972" lon="115.35346928266537"><ele>215.4</ele><time>2026-04-13T04:50:13.002Z</time></trkpt><trkpt lat="-29.516884925596557" lon="115.35332393314165"><ele>215.0</ele><time>2026-04-13T04:50:14.002Z</time></trkpt><trkpt lat="-29.516848189689863" lon="115.35317664012776"><ele>214.5</ele><time>2026-04-13T04:50:15.002Z</time></trkpt><trkpt lat="-29.516794944509595" lon="115.35303311729929"><ele>214.0</ele><time>2026-04-13T04:50:16.002Z</time></trkpt><trkpt lat="-29.516721158472393" lon="115.35290267788083"><ele>213.5</ele><time>2026-04-13T04:50:17.002Z</time></trkpt><trkpt lat="-29.516626180098697" lon="115.3527992256998"><ele>213.0</ele><time>2026-04-13T04:50:18.002Z</time></trkpt><trkpt lat="-29.5165185094043" lon="115.3527185987443"><ele>213.0</ele><time>2026-04-13T04:50:19.002Z</time></trkpt><trkpt lat="-29.516397627268525" lon="115.35265647730863"><ele>213.0</ele><time>2026-04-13T04:50:20.002Z</time></trkpt><trkpt lat="-29.516263164078808" lon="115.35261507950118"><ele>213.0</ele><time>2026-04-13T04:50:21.002Z</time></trkpt><trkpt lat="-29.516117607652077" lon="115.35259877647248"><ele>213.0</ele><time>2026-04-13T04:50:22.002Z</time></trkpt><trkpt lat="-29.51596389416636" lon="115.3525969596595"><ele>214.0</ele><time>2026-04-13T04:50:23.002Z</time></trkpt><trkpt lat="-29.515805875040048" lon="115.3526085612711"><ele>215.0</ele><time>2026-04-13T04:50:24.002Z</time></trkpt><trkpt lat="-29.515633390530063" lon="115.352641054116"><ele>216.0</ele><time>2026-04-13T04:50:25.002Z</time></trkpt><trkpt lat="-29.515450060916706" lon="115.35270586410094"><ele>217.0</ele><time>2026-04-13T04:50:26.002Z</time></trkpt><trkpt lat="-29.5152455068163" lon="115.35275763579394"><ele>218.0</ele><time>2026-04-13T04:50:27.002Z</time></trkpt><trkpt lat="-29.515049475908896" lon="115.35281961845315"><ele>219.0</ele><time>2026-04-13T04:50:28.002Z</time></trkpt><trkpt lat="-29.514838503450385" lon="115.35285628745513"><ele>219.0</ele><time>2026-04-13T04:50:29.002Z</time></trkpt><trkpt lat="-29.514624485866698" lon="115.3528990057382"><ele>219.0</ele><time>2026-04-13T04:50:30.002Z</time></trkpt><trkpt lat="-29.514405463179955" lon="115.35293546269082"><ele>219.0</ele><time>2026-04-13T04:50:31.002Z</time></trkpt><trkpt lat="-29.514191729741437" lon="115.35296021687651"><ele>221.0</ele><time>2026-04-13T04:50:32.002Z</time></trkpt><trkpt lat="-29.51396774045153" lon="115.35296515329793"><ele>223.0</ele><time>2026-04-13T04:50:33.002Z</time></trkpt><trkpt lat="-29.513733887995176" lon="115.35295691746089"><ele>224.5</ele><time>2026-04-13T04:50:34.001Z</time></trkpt><trkpt lat="-29.51349135346899" lon="115.3529373345086"><ele>226.0</ele><time>2026-04-13T04:50:35.001Z</time></trkpt><trkpt lat="-29.513236466052817" lon="115.35292562149915"><ele>226.0</ele><time>2026-04-13T04:50:36.001Z</time></trkpt><trkpt lat="-29.51299440167945" lon="115.35289135566195"><ele>226.0</ele><time>2026-04-13T04:50:37.001Z</time></trkpt><trkpt lat="-29.51276093570836" lon="115.3528642326659"><ele>227.5</ele><time>2026-04-13T04:50:38.001Z</time></trkpt><trkpt lat="-29.51253162226748" lon="115.35283653004284"><ele>229.0</ele><time>2026-04-13T04:50:39.001Z</time></trkpt><trkpt lat="-29.51230924645465" lon="115.35280807581135"><ele>229.0</ele><time>2026-04-13T04:50:40.001Z</time></trkpt><trkpt lat="-29.51210108782504" lon="115.35275991770827"><ele>229.0</ele><time>2026-04-13T04:50:41.001Z</time></trkpt><trkpt lat="-29.511892162327683" lon="115.35272715345954"><ele>229.0</ele><time>2026-04-13T04:50:42.001Z</time></trkpt><trkpt lat="-29.51168808111398" lon="115.35269376755824"><ele>231.0</ele><time>2026-04-13T04:50:43.001Z</time></trkpt><trkpt lat="-29.511488929121615" lon="115.35266559392805"><ele>233.0</ele><time>2026-04-13T04:50:44.001Z</time></trkpt><trkpt lat="-29.51130583271803" lon="115.35265504633307"><ele>235.0</ele><time>2026-04-13T04:50:45.001Z</time></trkpt><trkpt lat="-29.51116157477101" lon="115.35265619455633"><ele>236.0</ele><time>2026-04-13T04:50:46.001Z</time></trkpt><trkpt lat="-29.51104085929106" lon="115.35267401551347"><ele>237.0</ele><time>2026-04-13T04:50:47.001Z</time></trkpt><trkpt lat="-29.510917494709588" lon="115.35271974935112"><ele>238.0</ele><time>2026-04-13T04:50:48.001Z</time></trkpt><trkpt lat="-29.510800690577966" lon="115.35281369427204"><ele>239.0</ele><time>2026-04-13T04:50:49.001Z</time></trkpt><trkpt lat="-29.510701395117213" lon="115.35294458362424"><ele>239.66666666666669</ele><time>2026-04-13T04:50:50.001Z</time></trkpt><trkpt lat="-29.510596824355762" lon="115.35307309009403"><ele>240.33333333333331</ele><time>2026-04-13T04:50:51.001Z</time></trkpt><trkpt lat="-29.510490982143033" lon="115.35321399780783"><ele>241.0</ele><time>2026-04-13T04:50:52.001Z</time></trkpt><trkpt lat="-29.510390047922243" lon="115.3533627110952"><ele>241.0</ele><time>2026-04-13T04:50:53.001Z</time></trkpt><trkpt lat="-29.51029775743611" lon="115.35352096536703"><ele>241.0</ele><time>2026-04-13T04:50:54.001Z</time></trkpt><trkpt lat="-29.510204105064595" lon="115.35368658311388"><ele>241.0</ele><time>2026-04-13T04:50:55.001Z</time></trkpt><trkpt lat="-29.510108437254367" lon="115.35386210017008"><ele>242.0</ele><time>2026-04-13T04:50:56.001Z</time></trkpt><trkpt lat="-29.510013342218528" lon="115.35404157525761"><ele>243.0</ele><time>2026-04-13T04:50:57.001Z</time></trkpt><trkpt lat="-29.509908915240405" lon="115.35421886277679"><ele>244.0</ele><time>2026-04-13T04:50:58.001Z</time></trkpt><trkpt lat="-29.509794358719862" lon="115.3543919248092"><ele>244.0</ele><time>2026-04-13T04:50:59.001Z</time></trkpt><trkpt lat="-29.50967999124811" lon="115.3545626637209"><ele>244.0</ele><time>2026-04-13T04:51:00.001Z</time></trkpt><trkpt lat="-29.509564034759876" lon="115.35471916940764"><ele>244.0</ele><time>2026-04-13T04:51:01.001Z</time></trkpt><trkpt lat="-29.509446529709912" lon="115.35485469647968"><ele>244.0</ele><time>2026-04-13T04:51:02.001Z</time></trkpt><trkpt lat="-29.509320114570816" lon="115.35497611671362"><ele>244.0</ele><time>2026-04-13T04:51:03.001Z</time></trkpt><trkpt lat="-29.50918450995033" lon="115.35507653403643"><ele>244.0</ele><time>2026-04-13T04:51:04.001Z</time></trkpt><trkpt lat="-29.509026385996364" lon="115.3551634418145"><ele>244.0</ele><time>2026-04-13T04:51:05.001Z</time></trkpt><trkpt lat="-29.508834024351977" lon="115.35522310316328"><ele>244.0</ele><time>2026-04-13T04:51:06.001Z</time></trkpt><trkpt lat="-29.508633492939094" lon="115.35531868485923"><ele>244.0</ele><time>2026-04-13T04:51:07.001Z</time></trkpt><trkpt lat="-29.508410311369033" lon="115.35540038537982"><ele>244.0</ele><time>2026-04-13T04:51:08.001Z</time></trkpt><trkpt lat="-29.50817458737383" lon="115.35549288776781"><ele>244.0</ele><time>2026-04-13T04:51:09.001Z</time></trkpt><trkpt lat="-29.507936425886694" lon="115.35558377282149"><ele>242.0</ele><time>2026-04-13T04:51:10.001Z</time></trkpt><trkpt lat="-29.507694751963836" lon="115.35567471592509"><ele>240.0</ele><time>2026-04-13T04:51:11.001Z</time></trkpt><trkpt lat="-29.5074452626029" lon="115.35576958836113"><ele>240.0</ele><time>2026-04-13T04:51:12.001Z</time></trkpt><trkpt lat="-29.507185931430552" lon="115.3558705406546"><ele>240.0</ele><time>2026-04-13T04:51:13.001Z</time></trkpt><trkpt lat="-29.506937115952436" lon="115.35596816386061"><ele>238.0</ele><time>2026-04-13T04:51:14.001Z</time></trkpt><trkpt lat="-29.506693896111237" lon="115.35605900521702"><ele>236.0</ele><time>2026-04-13T04:51:15.001Z</time></trkpt><trkpt lat="-29.506447895831965" lon="115.35614896087225"><ele>233.5</ele><time>2026-04-13T04:51:16.001Z</time></trkpt><trkpt lat="-29.506201395177133" lon="115.35623888300084"><ele>231.0</ele><time>2026-04-13T04:51:17.001Z</time></trkpt><trkpt lat="-29.505953683123554" lon="115.35632362048234"><ele>231.5</ele><time>2026-04-13T04:51:18.001Z</time></trkpt><trkpt lat="-29.50570216014162" lon="115.35637429402597"><ele>232.0</ele><time>2026-04-13T04:51:19.001Z</time></trkpt><trkpt lat="-29.5054486062282" lon="115.3564134615724"><ele>231.5</ele><time>2026-04-13T04:51:20.001Z</time></trkpt><trkpt lat="-29.505195871781638" lon="115.35643619102393"><ele>231.0</ele><time>2026-04-13T04:51:21.001Z</time></trkpt><trkpt lat="-29.504943436481682" lon="115.35644336759701"><ele>231.0</ele><time>2026-04-13T04:51:22.001Z</time></trkpt><trkpt lat="-29.504692628472416" lon="115.35644116887904"><ele>231.0</ele><time>2026-04-13T04:51:23.001Z</time></trkpt><trkpt lat="-29.504440078630513" lon="115.35643844555182"><ele>228.5</ele><time>2026-04-13T04:51:24.001Z</time></trkpt><trkpt lat="-29.504176646947588" lon="115.35643906090384"><ele>226.0</ele><time>2026-04-13T04:51:25.001Z</time></trkpt><trkpt lat="-29.503911149729014" lon="115.35643984183342"><ele>225.5</ele><time>2026-04-13T04:51:26.001Z</time></trkpt><trkpt lat="-29.503635153999927" lon="115.35644065364257"><ele>225.0</ele><time>2026-04-13T04:51:27.001Z</time></trkpt><trkpt lat="-29.503359283133726" lon="115.3564414650857"><ele>225.0</ele><time>2026-04-13T04:51:28.001Z</time></trkpt><trkpt lat="-29.50308225821043" lon="115.35644227992312"><ele>225.0</ele><time>2026-04-13T04:51:29.001Z</time></trkpt><trkpt lat="-29.502802981458295" lon="115.35644360622982"><ele>224.5</ele><time>2026-04-13T04:51:30.001Z</time></trkpt><trkpt lat="-29.50252208588876" lon="115.35644496567389"><ele>224.0</ele><time>2026-04-13T04:51:31.001Z</time></trkpt><trkpt lat="-29.502240865039557" lon="115.35644633335845"><ele>223.0</ele><time>2026-04-13T04:51:32.001Z</time></trkpt><trkpt lat="-29.501962084313178" lon="115.35644952822274"><ele>222.0</ele><time>2026-04-13T04:51:33.001Z</time></trkpt><trkpt lat="-29.501674551131863" lon="115.35645293098429"><ele>222.0</ele><time>2026-04-13T04:51:34.001Z</time></trkpt><trkpt lat="-29.501383131759198" lon="115.35645637973474"><ele>222.0</ele><time>2026-04-13T04:51:35.001Z</time></trkpt><trkpt lat="-29.501094006271426" lon="115.35647569106742"><ele>221.5</ele><time>2026-04-13T04:51:36.001Z</time></trkpt><trkpt lat="-29.500817548073478" lon="115.35647593647352"><ele>221.0</ele><time>2026-04-13T04:51:37.001Z</time></trkpt><trkpt lat="-29.500548512503958" lon="115.35647710852655"><ele>221.5</ele><time>2026-04-13T04:51:38.001Z</time></trkpt><trkpt lat="-29.50028338244973" lon="115.3564790217458"><ele>222.0</ele><time>2026-04-13T04:51:39.001Z</time></trkpt><trkpt lat="-29.500025066693215" lon="115.35648093575331"><ele>222.0</ele><time>2026-04-13T04:51:40.001Z</time></trkpt><trkpt lat="-29.49976654076827" lon="115.35648424565446"><ele>222.0</ele><time>2026-04-13T04:51:41.001Z</time></trkpt><trkpt lat="-29.499503546708073" lon="115.35648637218273"><ele>222.5</ele><time>2026-04-13T04:51:42.001Z</time></trkpt><trkpt lat="-29.499239719798872" lon="115.35648524836458"><ele>223.0</ele><time>2026-04-13T04:51:43.001Z</time></trkpt><trkpt lat="-29.498978846749576" lon="115.35648368492964"><ele>224.0</ele><time>2026-04-13T04:51:44.001Z</time></trkpt><trkpt lat="-29.498718578116" lon="115.35648575673234"><ele>225.0</ele><time>2026-04-13T04:51:45.001Z</time></trkpt><trkpt lat="-29.498458822518977" lon="115.35648972079635"><ele>225.0</ele><time>2026-04-13T04:51:46.001Z</time></trkpt><trkpt lat="-29.49820369957385" lon="115.3564916781468"><ele>225.0</ele><time>2026-04-13T04:51:47.001Z</time></trkpt><trkpt lat="-29.497950377034442" lon="115.35649305033115"><ele>225.5</ele><time>2026-04-13T04:51:48.001Z</time></trkpt><trkpt lat="-29.49769581279847" lon="115.3564928983826"><ele>226.0</ele><time>2026-04-13T04:51:49.001Z</time></trkpt><trkpt lat="-29.497447792428233" lon="115.35649221835568"><ele>226.0</ele><time>2026-04-13T04:51:50.001Z</time></trkpt><trkpt lat="-29.497196147180695" lon="115.35649523633116"><ele>226.0</ele><time>2026-04-13T04:51:51.002Z</time></trkpt><trkpt lat="-29.49694696866285" lon="115.3564986949104"><ele>228.0</ele><time>2026-04-13T04:51:52.002Z</time></trkpt><trkpt lat="-29.496702860341863" lon="115.35649907791007"><ele>230.0</ele><time>2026-04-13T04:51:53.002Z</time></trkpt><trkpt lat="-29.49645930481974" lon="115.35649930508328"><ele>230.5</ele><time>2026-04-13T04:51:54.002Z</time></trkpt><trkpt lat="-29.496217676947847" lon="115.35649866392694"><ele>231.0</ele><time>2026-04-13T04:51:55.002Z</time></trkpt><trkpt lat="-29.495978037050318" lon="115.35650190227177"><ele>231.0</ele><time>2026-04-13T04:51:56.002Z</time></trkpt><trkpt lat="-29.495742154925868" lon="115.35649500116274"><ele>231.0</ele><time>2026-04-13T04:51:57.002Z</time></trkpt><trkpt lat="-29.49550106640797" lon="115.35649254840114"><ele>232.0</ele><time>2026-04-13T04:51:58.002Z</time></trkpt><trkpt lat="-29.49525394671862" lon="115.35649083391853"><ele>233.0</ele><time>2026-04-13T04:51:59.002Z</time></trkpt><trkpt lat="-29.49499820675804" lon="115.3564893249457"><ele>233.0</ele><time>2026-04-13T04:52:00.002Z</time></trkpt><trkpt lat="-29.49473369093429" lon="115.35648879357328"><ele>233.0</ele><time>2026-04-13T04:52:01.002Z</time></trkpt><trkpt lat="-29.494463613598" lon="115.3564914615597"><ele>234.0</ele><time>2026-04-13T04:52:02.002Z</time></trkpt><trkpt lat="-29.49418575875937" lon="115.35649477099831"><ele>235.0</ele><time>2026-04-13T04:52:03.002Z</time></trkpt><trkpt lat="-29.49390279590452" lon="115.35649649273653"><ele>236.5</ele><time>2026-04-13T04:52:04.002Z</time></trkpt><trkpt lat="-29.493614806339338" lon="115.35649677823103"><ele>238.0</ele><time>2026-04-13T04:52:05.002Z</time></trkpt><trkpt lat="-29.493322811633227" lon="115.3564952121053"><ele>238.0</ele><time>2026-04-13T04:52:06.002Z</time></trkpt><trkpt lat="-29.493028260486575" lon="115.35649323557811"><ele>238.0</ele><time>2026-04-13T04:52:07.002Z</time></trkpt><trkpt lat="-29.49272947492224" lon="115.3564930780729"><ele>239.5</ele><time>2026-04-13T04:52:08.002Z</time></trkpt><trkpt lat="-29.492430921876064" lon="115.35649682998879"><ele>241.0</ele><time>2026-04-13T04:52:09.002Z</time></trkpt><trkpt lat="-29.492129913031878" lon="115.3565011065304"><ele>242.5</ele><time>2026-04-13T04:52:10.002Z</time></trkpt><trkpt lat="-29.49183310968078" lon="115.35649882812051"><ele>244.0</ele><time>2026-04-13T04:52:11.002Z</time></trkpt><trkpt lat="-29.49153658380949" lon="115.35649762955777"><ele>244.5</ele><time>2026-04-13T04:52:12.002Z</time></trkpt><trkpt lat="-29.49123764512191" lon="115.35650029454997"><ele>245.0</ele><time>2026-04-13T04:52:13.002Z</time></trkpt><trkpt lat="-29.49094029251375" lon="115.3565021909423"><ele>245.0</ele><time>2026-04-13T04:52:14.002Z</time></trkpt><trkpt lat="-29.49064725112918" lon="115.35650461409182"><ele>245.0</ele><time>2026-04-13T04:52:15.002Z</time></trkpt><trkpt lat="-29.490359205206087" lon="115.3565073411048"><ele>245.5</ele><time>2026-04-13T04:52:16.002Z</time></trkpt><trkpt lat="-29.490070432420474" lon="115.35650873320216"><ele>246.0</ele><time>2026-04-13T04:52:17.002Z</time></trkpt><trkpt lat="-29.48978594746592" lon="115.3565064533408"><ele>247.5</ele><time>2026-04-13T04:52:18.002Z</time></trkpt><trkpt lat="-29.489506141799207" lon="115.35650160495756"><ele>249.0</ele><time>2026-04-13T04:52:19.002Z</time></trkpt><trkpt lat="-29.48922953352083" lon="115.35649738242276"><ele>249.0</ele><time>2026-04-13T04:52:20.002Z</time></trkpt><trkpt lat="-29.488955067890462" lon="115.35649877379358"><ele>249.0</ele><time>2026-04-13T04:52:21.002Z</time></trkpt><trkpt lat="-29.488685297174694" lon="115.35650267043997"><ele>249.0</ele><time>2026-04-13T04:52:22.002Z</time></trkpt><trkpt lat="-29.488415736195158" lon="115.3565046471409"><ele>249.0</ele><time>2026-04-13T04:52:23.002Z</time></trkpt><trkpt lat="-29.48814591332429" lon="115.3565070709439"><ele>248.5</ele><time>2026-04-13T04:52:24.002Z</time></trkpt><trkpt lat="-29.487875008431057" lon="115.35650825036926"><ele>248.0</ele><time>2026-04-13T04:52:25.002Z</time></trkpt><trkpt lat="-29.487600558138194" lon="115.35650631736307"><ele>248.0</ele><time>2026-04-13T04:52:26.002Z</time></trkpt><trkpt lat="-29.48733121389349" lon="115.35650412285065"><ele>248.0</ele><time>2026-04-13T04:52:27.002Z</time></trkpt><trkpt lat="-29.487059631163554" lon="115.35650431217219"><ele>248.0</ele><time>2026-04-13T04:52:28.002Z</time></trkpt><trkpt lat="-29.48679005435035" lon="115.35650846667569"><ele>248.0</ele><time>2026-04-13T04:52:29.002Z</time></trkpt><trkpt lat="-29.48652090729226" lon="115.35650937293822"><ele>247.5</ele><time>2026-04-13T04:52:30.002Z</time></trkpt><trkpt lat="-29.48625274419759" lon="115.35650483129506"><ele>247.0</ele><time>2026-04-13T04:52:31.002Z</time></trkpt><trkpt lat="-29.48598515219508" lon="115.35649607754509"><ele>247.0</ele><time>2026-04-13T04:52:32.002Z</time></trkpt><trkpt lat="-29.485720381491316" lon="115.356493938717"><ele>247.0</ele><time>2026-04-13T04:52:33.002Z</time></trkpt><trkpt lat="-29.485460529556086" lon="115.35649476558048"><ele>248.0</ele><time>2026-04-13T04:52:34.002Z</time></trkpt><trkpt lat="-29.485202397876076" lon="115.35649615126529"><ele>249.0</ele><time>2026-04-13T04:52:35.002Z</time></trkpt><trkpt lat="-29.4849429951367" lon="115.35649910259737"><ele>249.0</ele><time>2026-04-13T04:52:36.001Z</time></trkpt><trkpt lat="-29.48467484124854" lon="115.35650196777247"><ele>249.0</ele><time>2026-04-13T04:52:37.001Z</time></trkpt><trkpt lat="-29.48440334135212" lon="115.35650288545672"><ele>250.5</ele><time>2026-04-13T04:52:38.001Z</time></trkpt><trkpt lat="-29.484127070158554" lon="115.35650491044355"><ele>252.0</ele><time>2026-04-13T04:52:39.001Z</time></trkpt><trkpt lat="-29.48384962141434" lon="115.35650770473553"><ele>252.5</ele><time>2026-04-13T04:52:40.001Z</time></trkpt><trkpt lat="-29.483566152169168" lon="115.3565116697271"><ele>253.0</ele><time>2026-04-13T04:52:41.001Z</time></trkpt><trkpt lat="-29.483278286092716" lon="115.35651490106247"><ele>253.0</ele><time>2026-04-13T04:52:42.001Z</time></trkpt><trkpt lat="-29.482987351037004" lon="115.35651603588143"><ele>253.0</ele><time>2026-04-13T04:52:43.001Z</time></trkpt><trkpt lat="-29.482694139890715" lon="115.35651523063132"><ele>254.0</ele><time>2026-04-13T04:52:44.001Z</time></trkpt><trkpt lat="-29.482398104974756" lon="115.35651526474659"><ele>255.0</ele><time>2026-04-13T04:52:45.001Z</time></trkpt><trkpt lat="-29.48180794622678" lon="115.35652327282843"><ele>256.5</ele><time>2026-04-13T04:52:47.001Z</time></trkpt><trkpt lat="-29.481516023554825" lon="115.3565290977824"><ele>258.0</ele><time>2026-04-13T04:52:48.001Z</time></trkpt><trkpt lat="-29.481229498373178" lon="115.35653268523073"><ele>258.0</ele><time>2026-04-13T04:52:49.001Z</time></trkpt><trkpt lat="-29.480947246633125" lon="115.35653117237658"><ele>258.0</ele><time>2026-04-13T04:52:50.001Z</time></trkpt><trkpt lat="-29.480671306459875" lon="115.35652549927579"><ele>258.5</ele><time>2026-04-13T04:52:51.001Z</time></trkpt><trkpt lat="-29.480399645712204" lon="115.35652430146754"><ele>259.0</ele><time>2026-04-13T04:52:52.001Z</time></trkpt><trkpt lat="-29.480128371915423" lon="115.35652185166096"><ele>259.0</ele><time>2026-04-13T04:52:53.001Z</time></trkpt><trkpt lat="-29.479853217407662" lon="115.35652176893325"><ele>259.0</ele><time>2026-04-13T04:52:54.001Z</time></trkpt><trkpt lat="-29.479572307236378" lon="115.35652136618617"><ele>260.0</ele><time>2026-04-13T04:52:55.001Z</time></trkpt><trkpt lat="-29.479292912795376" lon="115.3565229230354"><ele>261.0</ele><time>2026-04-13T04:52:56.001Z</time></trkpt><trkpt lat="-29.479017356982695" lon="115.35652428330775"><ele>262.0</ele><time>2026-04-13T04:52:57.001Z</time></trkpt><trkpt lat="-29.478747636498703" lon="115.35652562645431"><ele>263.0</ele><time>2026-04-13T04:52:58.001Z</time></trkpt><trkpt lat="-29.478480646870427" lon="115.35652925690943"><ele>263.0</ele><time>2026-04-13T04:52:59.001Z</time></trkpt><trkpt lat="-29.478216022210106" lon="115.3565343734838"><ele>263.0</ele><time>2026-04-13T04:53:00.001Z</time></trkpt><trkpt lat="-29.47795653967829" lon="115.35653622331542"><ele>264.0</ele><time>2026-04-13T04:53:01.001Z</time></trkpt><trkpt lat="-29.477697807869834" lon="115.35650402610457"><ele>265.0</ele><time>2026-04-13T04:53:02.001Z</time></trkpt><trkpt lat="-29.477438059915258" lon="115.3565043268159"><ele>265.0</ele><time>2026-04-13T04:53:03.001Z</time></trkpt><trkpt lat="-29.477174112566413" lon="115.35650499762892"><ele>265.0</ele><time>2026-04-13T04:53:04.001Z</time></trkpt><trkpt lat="-29.476911771023182" lon="115.35650566436178"><ele>266.0</ele><time>2026-04-13T04:53:05.001Z</time></trkpt><trkpt lat="-29.476647230651796" lon="115.35650633668332"><ele>267.0</ele><time>2026-04-13T04:53:06.001Z</time></trkpt><trkpt lat="-29.476379785475167" lon="115.35650701638761"><ele>268.0</ele><time>2026-04-13T04:53:07.001Z</time></trkpt><trkpt lat="-29.47610595577582" lon="115.35650771231721"><ele>269.0</ele><time>2026-04-13T04:53:08.001Z</time></trkpt><trkpt lat="-29.475834011982826" lon="115.3565087106974"><ele>269.0</ele><time>2026-04-13T04:53:09.001Z</time></trkpt><trkpt lat="-29.47555949825253" lon="115.35650942612804"><ele>269.0</ele><time>2026-04-13T04:53:10.001Z</time></trkpt><trkpt lat="-29.475286389067048" lon="115.35650942613047"><ele>271.0</ele><time>2026-04-13T04:53:11.001Z</time></trkpt><trkpt lat="-29.47501209613553" lon="115.3565094261326"><ele>273.0</ele><time>2026-04-13T04:53:12.001Z</time></trkpt><trkpt lat="-29.474737906252724" lon="115.35650810543817"><ele>274.5</ele><time>2026-04-13T04:53:13.001Z</time></trkpt><trkpt lat="-29.4744630843827" lon="115.35650802613713"><ele>276.0</ele><time>2026-04-13T04:53:14.001Z</time></trkpt><trkpt lat="-29.474184623718283" lon="115.35650802613986"><ele>276.0</ele><time>2026-04-13T04:53:15.001Z</time></trkpt><trkpt lat="-29.473905638858206" lon="115.35650802614218"><ele>276.0</ele><time>2026-04-13T04:53:16.001Z</time></trkpt><trkpt lat="-29.473625972567216" lon="115.35650802703634"><ele>277.0</ele><time>2026-04-13T04:53:17.001Z</time></trkpt><trkpt lat="-29.47334903176942" lon="115.35650802703934"><ele>278.0</ele><time>2026-04-13T04:53:18.001Z</time></trkpt><trkpt lat="-29.47307165243288" lon="115.35650802704329"><ele>279.5</ele><time>2026-04-13T04:53:19.001Z</time></trkpt><trkpt lat="-29.472789604763452" lon="115.35650875177522"><ele>281.0</ele><time>2026-04-13T04:53:20.001Z</time></trkpt><trkpt lat="-29.47251214649423" lon="115.35651009357812"><ele>281.0</ele><time>2026-04-13T04:53:21.001Z</time></trkpt><trkpt lat="-29.472234057796253" lon="115.35651143842975"><ele>281.0</ele><time>2026-04-13T04:53:22.001Z</time></trkpt><trkpt lat="-29.47195765678299" lon="115.35651286929068"><ele>281.5</ele><time>2026-04-13T04:53:23.001Z</time></trkpt><trkpt lat="-29.4716857090388" lon="115.35651367455448"><ele>282.0</ele><time>2026-04-13T04:53:24.001Z</time></trkpt><trkpt lat="-29.47142029995117" lon="115.35653221282702"><ele>282.5</ele><time>2026-04-13T04:53:25.001Z</time></trkpt><trkpt lat="-29.471162982465454" lon="115.35653041960887"><ele>283.0</ele><time>2026-04-13T04:53:26.001Z</time></trkpt><trkpt lat="-29.470925108500495" lon="115.35652823149735"><ele>283.0</ele><time>2026-04-13T04:53:27.001Z</time></trkpt><trkpt lat="-29.470697263822515" lon="115.35652849005817"><ele>283.0</ele><time>2026-04-13T04:53:28.001Z</time></trkpt><trkpt lat="-29.47046146757141" lon="115.35653025190364"><ele>282.5</ele><time>2026-04-13T04:53:29.001Z</time></trkpt><trkpt lat="-29.47022343913406" lon="115.35653081446394"><ele>282.0</ele><time>2026-04-13T04:53:30.001Z</time></trkpt><trkpt lat="-29.46999401082354" lon="115.35652846855729"><ele>282.0</ele><time>2026-04-13T04:53:31.001Z</time></trkpt><trkpt lat="-29.469785184558148" lon="115.35652918158729"><ele>282.0</ele><time>2026-04-13T04:53:32.001Z</time></trkpt><trkpt lat="-29.469589380254067" lon="115.3565319117749"><ele>282.0</ele><time>2026-04-13T04:53:33.001Z</time></trkpt><trkpt lat="-29.469403388356977" lon="115.356535546651"><ele>282.0</ele><time>2026-04-13T04:53:34.001Z</time></trkpt><trkpt lat="-29.469231715957445" lon="115.35653484503823"><ele>282.0</ele><time>2026-04-13T04:53:35.001Z</time></trkpt><trkpt lat="-29.469073824798173" lon="115.35653285660841"><ele>282.0</ele><time>2026-04-13T04:53:36.001Z</time></trkpt><trkpt lat="-29.46893567280465" lon="115.35652811608713"><ele>282.0</ele><time>2026-04-13T04:53:37.001Z</time></trkpt><trkpt lat="-29.46882633264452" lon="115.35652001344029"><ele>282.0</ele><time>2026-04-13T04:53:38.001Z</time></trkpt><trkpt lat="-29.46875159844456" lon="115.35650340445464"><ele>282.0</ele><time>2026-04-13T04:53:39.001Z</time></trkpt><trkpt lat="-29.46865843022744" lon="115.35650647414275"><ele>282.0</ele><time>2026-04-13T04:53:41.001Z</time></trkpt><trkpt lat="-29.468686989435554" lon="115.35629741847175"><ele>282.75</ele><time>2026-04-13T04:53:42.001Z</time></trkpt><trkpt lat="-29.468687550609314" lon="115.35618261160053"><ele>283.5</ele><time>2026-04-13T04:53:43.001Z</time></trkpt><trkpt lat="-29.468688189433518" lon="115.35604254448552"><ele>284.25</ele><time>2026-04-13T04:53:44.001Z</time></trkpt><trkpt lat="-29.468688189432612" lon="115.35588077288206"><ele>285.0</ele><time>2026-04-13T04:53:45.001Z</time></trkpt><trkpt lat="-29.46868818943196" lon="115.3556934046814"><ele>285.0</ele><time>2026-04-13T04:53:46.001Z</time></trkpt><trkpt lat="-29.468689215498962" lon="115.35548417387983"><ele>285.0</ele><time>2026-04-13T04:53:47.001Z</time></trkpt><trkpt lat="-29.4686893894295" lon="115.3552667121502"><ele>285.0</ele><time>2026-04-13T04:53:48.001Z</time></trkpt><trkpt lat="-29.46868985486403" lon="115.35503382668493"><ele>285.0</ele><time>2026-04-13T04:53:49.001Z</time></trkpt><trkpt lat="-29.468690931869872" lon="115.35477848419349"><ele>285.0</ele><time>2026-04-13T04:53:50.001Z</time></trkpt><trkpt lat="-29.468691611596" lon="115.35451939499826"><ele>285.0</ele><time>2026-04-13T04:53:51.001Z</time></trkpt><trkpt lat="-29.468691689426315" lon="115.3542661770702"><ele>285.3333333333333</ele><time>2026-04-13T04:53:52.001Z</time></trkpt><trkpt lat="-29.468691689425942" lon="115.35401216970739"><ele>285.66666666666663</ele><time>2026-04-13T04:53:53.001Z</time></trkpt><trkpt lat="-29.468691130680813" lon="115.35375652390921"><ele>286.0</ele><time>2026-04-13T04:53:54.001Z</time></trkpt><trkpt lat="-29.468690519261923" lon="115.3535016139818"><ele>287.5</ele><time>2026-04-13T04:53:55.001Z</time></trkpt><trkpt lat="-29.468689194461625" lon="115.35324056228274"><ele>289.0</ele><time>2026-04-13T04:53:56.001Z</time></trkpt><trkpt lat="-29.468687071817158" lon="115.35295905784417"><ele>289.0</ele><time>2026-04-13T04:53:57.001Z</time></trkpt><trkpt lat="-29.468684909399812" lon="115.35267227877148"><ele>289.0</ele><time>2026-04-13T04:53:58.001Z</time></trkpt><trkpt lat="-29.468682728207394" lon="115.35238300972564"><ele>289.5</ele><time>2026-04-13T04:53:59.001Z</time></trkpt><trkpt lat="-29.468668996292767" lon="115.35208007662992"><ele>290.0</ele><time>2026-04-13T04:54:00.001Z</time></trkpt><trkpt lat="-29.46866804315863" lon="115.35178806287216"><ele>290.0</ele><time>2026-04-13T04:54:01.001Z</time></trkpt><trkpt lat="-29.468667333795356" lon="115.35150293527924"><ele>290.0</ele><time>2026-04-13T04:54:02.001Z</time></trkpt><trkpt lat="-29.46866791337539" lon="115.35121127926782"><ele>290.0</ele><time>2026-04-13T04:54:03.001Z</time></trkpt><trkpt lat="-29.468671689624927" lon="115.35092020500713"><ele>290.0</ele><time>2026-04-13T04:54:04.001Z</time></trkpt><trkpt lat="-29.468670783413163" lon="115.35062700242632"><ele>290.0</ele><time>2026-04-13T04:54:05.001Z</time></trkpt><trkpt lat="-29.468669529637737" lon="115.35033193693829"><ele>290.0</ele><time>2026-04-13T04:54:06.001Z</time></trkpt><trkpt lat="-29.468668494345177" lon="115.35003613068386"><ele>290.0</ele><time>2026-04-13T04:54:07.001Z</time></trkpt><trkpt lat="-29.468668211226888" lon="115.34973503104084"><ele>290.0</ele><time>2026-04-13T04:54:08.001Z</time></trkpt><trkpt lat="-29.46866502631898" lon="115.34943361052325"><ele>290.0</ele><time>2026-04-13T04:54:09.001Z</time></trkpt><trkpt lat="-29.468679928540453" lon="115.34913343574286"><ele>290.0</ele><time>2026-04-13T04:54:10.001Z</time></trkpt><trkpt lat="-29.468662705408246" lon="115.34883369879765"><ele>289.5</ele><time>2026-04-13T04:54:11.001Z</time></trkpt><trkpt lat="-29.46866371642789" lon="115.3485346967528"><ele>289.0</ele><time>2026-04-13T04:54:12.001Z</time></trkpt><trkpt lat="-29.46866319024209" lon="115.34823279371672"><ele>288.5</ele><time>2026-04-13T04:54:13.001Z</time></trkpt><trkpt lat="-29.468659400749797" lon="115.34792659103837"><ele>288.0</ele><time>2026-04-13T04:54:14.001Z</time></trkpt><trkpt lat="-29.468675289425022" lon="115.34762444293177"><ele>288.0</ele><time>2026-04-13T04:54:15.001Z</time></trkpt><trkpt lat="-29.468675289425363" lon="115.3473204077871"><ele>288.0</ele><time>2026-04-13T04:54:16.001Z</time></trkpt><trkpt lat="-29.468675289425065" lon="115.34701992498171"><ele>288.5</ele><time>2026-04-13T04:54:17.001Z</time></trkpt><trkpt lat="-29.468660482613366" lon="115.34672223411219"><ele>289.0</ele><time>2026-04-13T04:54:18.001Z</time></trkpt><trkpt lat="-29.468660053445294" lon="115.34642212037456"><ele>290.0</ele><time>2026-04-13T04:54:19.001Z</time></trkpt><trkpt lat="-29.46866013515582" lon="115.34613003128675"><ele>291.0</ele><time>2026-04-13T04:54:20.001Z</time></trkpt><trkpt lat="-29.46866025033468" lon="115.34584378292409"><ele>291.0</ele><time>2026-04-13T04:54:21.001Z</time></trkpt><trkpt lat="-29.468664646943928" lon="115.34556170466986"><ele>291.0</ele><time>2026-04-13T04:54:22.001Z</time></trkpt><trkpt lat="-29.468663040920767" lon="115.3452839072736"><ele>292.0</ele><time>2026-04-13T04:54:23.001Z</time></trkpt><trkpt lat="-29.468679720360388" lon="115.34499817419713"><ele>293.0</ele><time>2026-04-13T04:54:24.001Z</time></trkpt><trkpt lat="-29.468679665748574" lon="115.34472723865386"><ele>292.5</ele><time>2026-04-13T04:54:25.001Z</time></trkpt><trkpt lat="-29.468652165076474" lon="115.34444986003919"><ele>292.0</ele><time>2026-04-13T04:54:26.001Z</time></trkpt><trkpt lat="-29.468647255583694" lon="115.34417770208302"><ele>292.0</ele><time>2026-04-13T04:54:27.001Z</time></trkpt><trkpt lat="-29.468643017932006" lon="115.34390461254543"><ele>292.0</ele><time>2026-04-13T04:54:28.001Z</time></trkpt><trkpt lat="-29.46864058888951" lon="115.34362936727115"><ele>293.0</ele><time>2026-04-13T04:54:29.001Z</time></trkpt><trkpt lat="-29.468645700348297" lon="115.3433528725377"><ele>294.0</ele><time>2026-04-13T04:54:30.001Z</time></trkpt><trkpt lat="-29.468654891320433" lon="115.34306837500597"><ele>294.5</ele><time>2026-04-13T04:54:31.001Z</time></trkpt><trkpt lat="-29.46865665009421" lon="115.34278759998918"><ele>295.0</ele><time>2026-04-13T04:54:32.001Z</time></trkpt><trkpt lat="-29.468653870878807" lon="115.34250843084187"><ele>295.0</ele><time>2026-04-13T04:54:33.001Z</time></trkpt><trkpt lat="-29.468656960965067" lon="115.34222826616605"><ele>295.0</ele><time>2026-04-13T04:54:34.001Z</time></trkpt><trkpt lat="-29.46866327869479" lon="115.34194592134955"><ele>295.5</ele><time>2026-04-13T04:54:35.001Z</time></trkpt><trkpt lat="-29.46866641431818" lon="115.34166144940244"><ele>296.0</ele><time>2026-04-13T04:54:36.001Z</time></trkpt><trkpt lat="-29.46866671469852" lon="115.34137464792533"><ele>294.5</ele><time>2026-04-13T04:54:37.001Z</time></trkpt><trkpt lat="-29.46866973481091" lon="115.34108080247364"><ele>293.0</ele><time>2026-04-13T04:54:38.001Z</time></trkpt><trkpt lat="-29.468670666862856" lon="115.34078485252024"><ele>292.0</ele><time>2026-04-13T04:54:39.001Z</time></trkpt><trkpt lat="-29.468671508748827" lon="115.34048841707776"><ele>291.0</ele><time>2026-04-13T04:54:40.001Z</time></trkpt><trkpt lat="-29.468671922184647" lon="115.34018641711239"><ele>291.0</ele><time>2026-04-13T04:54:41.001Z</time></trkpt><trkpt lat="-29.468672777092472" lon="115.33987856286844"><ele>291.0</ele><time>2026-04-13T04:54:42Z</time></trkpt><trkpt lat="-29.468673561562877" lon="115.33957088242151"><ele>289.5</ele><time>2026-04-13T04:54:43Z</time></trkpt><trkpt lat="-29.468674835945027" lon="115.33926182836758"><ele>288.0</ele><time>2026-04-13T04:54:44Z</time></trkpt><trkpt lat="-29.468673265291244" lon="115.33895211088246"><ele>288.0</ele><time>2026-04-13T04:54:45Z</time></trkpt><trkpt lat="-29.468671571794133" lon="115.33864531189184"><ele>288.0</ele><time>2026-04-13T04:54:46Z</time></trkpt><trkpt lat="-29.468668826897893" lon="115.3383341275023"><ele>287.5</ele><time>2026-04-13T04:54:47Z</time></trkpt><trkpt lat="-29.468668344666177" lon="115.33802277688811"><ele>287.0</ele><time>2026-04-13T04:54:48Z</time></trkpt><trkpt lat="-29.468671306649775" lon="115.33770553465196"><ele>287.0</ele><time>2026-04-13T04:54:49Z</time></trkpt><trkpt lat="-29.468671905951123" lon="115.33739280347515"><ele>287.0</ele><time>2026-04-13T04:54:50Z</time></trkpt><trkpt lat="-29.468671285371418" lon="115.3370683783273"><ele>286.5</ele><time>2026-04-13T04:54:51Z</time></trkpt><trkpt lat="-29.468673885423843" lon="115.33673604201134"><ele>286.0</ele><time>2026-04-13T04:54:52Z</time></trkpt><trkpt lat="-29.46867538014264" lon="115.3364022005401"><ele>285.0</ele><time>2026-04-13T04:54:53Z</time></trkpt><trkpt lat="-29.46867484521234" lon="115.33605980453443"><ele>284.0</ele><time>2026-04-13T04:54:54Z</time></trkpt><trkpt lat="-29.468673800566584" lon="115.33571413912512"><ele>283.5</ele><time>2026-04-13T04:54:55Z</time></trkpt><trkpt lat="-29.468673467784086" lon="115.33537336537218"><ele>283.0</ele><time>2026-04-13T04:54:56Z</time></trkpt><trkpt lat="-29.468672605572568" lon="115.33503593626136"><ele>282.0</ele><time>2026-04-13T04:54:57Z</time></trkpt><trkpt lat="-29.46867173616952" lon="115.33470182121832"><ele>281.0</ele><time>2026-04-13T04:54:58Z</time></trkpt><trkpt lat="-29.46867025000499" lon="115.33437526071307"><ele>281.0</ele><time>2026-04-13T04:54:59Z</time></trkpt><trkpt lat="-29.468668741484933" lon="115.33404950589446"><ele>281.0</ele><time>2026-04-13T04:55:00Z</time></trkpt><trkpt lat="-29.468667721732437" lon="115.33372447048731"><ele>280.5</ele><time>2026-04-13T04:55:01Z</time></trkpt><trkpt lat="-29.468670462852135" lon="115.333400156714"><ele>280.0</ele><time>2026-04-13T04:55:02Z</time></trkpt><trkpt lat="-29.46867544622534" lon="115.33307461374713"><ele>279.5</ele><time>2026-04-13T04:55:03Z</time></trkpt><trkpt lat="-29.468675717058645" lon="115.33275140595583"><ele>279.0</ele><time>2026-04-13T04:55:04Z</time></trkpt><trkpt lat="-29.46867638526411" lon="115.33242644252984"><ele>278.5</ele><time>2026-04-13T04:55:05Z</time></trkpt><trkpt lat="-29.4686787533785" lon="115.33209976385722"><ele>278.0</ele><time>2026-04-13T04:55:06Z</time></trkpt><trkpt lat="-29.468679624329784" lon="115.33177906967383"><ele>278.0</ele><time>2026-04-13T04:55:07.001Z</time></trkpt><trkpt lat="-29.46867602028435" lon="115.33145735737195"><ele>278.0</ele><time>2026-04-13T04:55:08.001Z</time></trkpt><trkpt lat="-29.468668460432063" lon="115.33113273076259"><ele>278.0</ele><time>2026-04-13T04:55:09.001Z</time></trkpt><trkpt lat="-29.468661197868002" lon="115.33081725854657"><ele>278.0</ele><time>2026-04-13T04:55:10.001Z</time></trkpt><trkpt lat="-29.468656916386717" lon="115.3304954239367"><ele>278.0</ele><time>2026-04-13T04:55:11.001Z</time></trkpt><trkpt lat="-29.46865807494188" lon="115.33017572594726"><ele>278.0</ele><time>2026-04-13T04:55:12.001Z</time></trkpt><trkpt lat="-29.4686623960318" lon="115.32984475293965"><ele>278.0</ele><time>2026-04-13T04:55:13.001Z</time></trkpt><trkpt lat="-29.468664336589814" lon="115.32951907645163"><ele>278.0</ele><time>2026-04-13T04:55:14.001Z</time></trkpt><trkpt lat="-29.4686642017622" lon="115.32919205828108"><ele>277.0</ele><time>2026-04-13T04:55:15.001Z</time></trkpt><trkpt lat="-29.468663159757078" lon="115.32886574153551"><ele>276.0</ele><time>2026-04-13T04:55:16.001Z</time></trkpt><trkpt lat="-29.4686627054075" lon="115.32854005825283"><ele>276.0</ele><time>2026-04-13T04:55:17.001Z</time></trkpt><trkpt lat="-29.4686592867809" lon="115.32821358564789"><ele>276.0</ele><time>2026-04-13T04:55:18.001Z</time></trkpt><trkpt lat="-29.46865594964046" lon="115.32788979737091"><ele>275.5</ele><time>2026-04-13T04:55:19.001Z</time></trkpt><trkpt lat="-29.46865617331662" lon="115.3275672562752"><ele>275.0</ele><time>2026-04-13T04:55:20.001Z</time></trkpt><trkpt lat="-29.46865645209873" lon="115.32723908974488"><ele>275.0</ele><time>2026-04-13T04:55:21.001Z</time></trkpt><trkpt lat="-29.468658157205866" lon="115.32690579688989"><ele>275.0</ele><time>2026-04-13T04:55:22.001Z</time></trkpt><trkpt lat="-29.468656164478247" lon="115.32657456313939"><ele>275.0</ele><time>2026-04-13T04:55:23.001Z</time></trkpt><trkpt lat="-29.468654039552845" lon="115.32623911986676"><ele>275.0</ele><time>2026-04-13T04:55:24.001Z</time></trkpt><trkpt lat="-29.468653415300217" lon="115.32590506240874"><ele>275.0</ele><time>2026-04-13T04:55:25.001Z</time></trkpt><trkpt lat="-29.46865218748039" lon="115.32557108697213"><ele>275.0</ele><time>2026-04-13T04:55:26.001Z</time></trkpt><trkpt lat="-29.4686502236429" lon="115.32524180007307"><ele>274.0</ele><time>2026-04-13T04:55:27.001Z</time></trkpt><trkpt lat="-29.468650119641364" lon="115.32491983354917"><ele>273.0</ele><time>2026-04-13T04:55:28.001Z</time></trkpt><trkpt lat="-29.468653041998948" lon="115.3245998069362"><ele>273.0</ele><time>2026-04-13T04:55:29.001Z</time></trkpt><trkpt lat="-29.468653878638964" lon="115.32429278958148"><ele>273.0</ele><time>2026-04-13T04:55:30.001Z</time></trkpt><trkpt lat="-29.468652877632106" lon="115.32399076799669"><ele>274.0</ele><time>2026-04-13T04:55:31.001Z</time></trkpt><trkpt lat="-29.4686528442102" lon="115.32368724555623"><ele>275.0</ele><time>2026-04-13T04:55:32.001Z</time></trkpt><trkpt lat="-29.468653316314892" lon="115.32338406942242"><ele>275.0</ele><time>2026-04-13T04:55:33.001Z</time></trkpt><trkpt lat="-29.46865449505892" lon="115.32310567714512"><ele>275.0</ele><time>2026-04-13T04:55:34.001Z</time></trkpt><trkpt lat="-29.468649786754607" lon="115.32284213340614"><ele>275.0</ele><time>2026-04-13T04:55:35.001Z</time></trkpt><trkpt lat="-29.468634926771063" lon="115.32258671073883"><ele>275.0</ele><time>2026-04-13T04:55:36.001Z</time></trkpt><trkpt lat="-29.468608855129055" lon="115.32233755566115"><ele>275.0</ele><time>2026-04-13T04:55:37.001Z</time></trkpt><trkpt lat="-29.468566172139912" lon="115.32209963129574"><ele>275.6666666666667</ele><time>2026-04-13T04:55:38.001Z</time></trkpt><trkpt lat="-29.46850385042081" lon="115.32186944983187"><ele>276.3333333333333</ele><time>2026-04-13T04:55:39.001Z</time></trkpt><trkpt lat="-29.46842648407805" lon="115.32165520490813"><ele>277.0</ele><time>2026-04-13T04:55:40.001Z</time></trkpt><trkpt lat="-29.46833886790878" lon="115.3214548719466"><ele>277.66666666666663</ele><time>2026-04-13T04:55:41.001Z</time></trkpt><trkpt lat="-29.468245415447303" lon="115.32126090944976"><ele>278.3333333333333</ele><time>2026-04-13T04:55:42.001Z</time></trkpt><trkpt lat="-29.46814102387741" lon="115.321058204408"><ele>279.0</ele><time>2026-04-13T04:55:43.001Z</time></trkpt><trkpt lat="-29.46805172548571" lon="115.32084337494058"><ele>279.0</ele><time>2026-04-13T04:55:44.001Z</time></trkpt><trkpt lat="-29.467944532465907" lon="115.32062830101319"><ele>279.0</ele><time>2026-04-13T04:55:45.001Z</time></trkpt><trkpt lat="-29.467831111553238" lon="115.32041977215434"><ele>279.0</ele><time>2026-04-13T04:55:46.001Z</time></trkpt><trkpt lat="-29.467737522809827" lon="115.32020307244595"><ele>276.6666666666667</ele><time>2026-04-13T04:55:47.001Z</time></trkpt><trkpt lat="-29.467639789068738" lon="115.31997511072356"><ele>274.33333333333337</ele><time>2026-04-13T04:55:48.001Z</time></trkpt><trkpt lat="-29.467543750075876" lon="115.3197587570653"><ele>272.0</ele><time>2026-04-13T04:55:49.001Z</time></trkpt><trkpt lat="-29.467449883582983" lon="115.31955578477756"><ele>271.6666666666667</ele><time>2026-04-13T04:55:50.001Z</time></trkpt><trkpt lat="-29.467366333569675" lon="115.31935815320213"><ele>271.3333333333333</ele><time>2026-04-13T04:55:51.001Z</time></trkpt><trkpt lat="-29.46731359700924" lon="115.31915165747726"><ele>271.0</ele><time>2026-04-13T04:55:52.001Z</time></trkpt><trkpt lat="-29.46726781015134" lon="115.31894795500895"><ele>270.0</ele><time>2026-04-13T04:55:53.001Z</time></trkpt><trkpt lat="-29.467243544047427" lon="115.3187348249904"><ele>269.0</ele><time>2026-04-13T04:55:54.001Z</time></trkpt><trkpt lat="-29.467250237728702" lon="115.31851306144527"><ele>268.0</ele><time>2026-04-13T04:55:55.001Z</time></trkpt><trkpt lat="-29.46727397712923" lon="115.31827586351275"><ele>264.5</ele><time>2026-04-13T04:55:56.001Z</time></trkpt><trkpt lat="-29.46734375818992" lon="115.3180279632359"><ele>261.0</ele><time>2026-04-13T04:55:57.001Z</time></trkpt><trkpt lat="-29.46745482482658" lon="115.31778021202615"><ele>261.0</ele><time>2026-04-13T04:55:58.001Z</time></trkpt><trkpt lat="-29.467551227733665" lon="115.31751626429585"><ele>261.0</ele><time>2026-04-13T04:55:59.001Z</time></trkpt><trkpt lat="-29.467675938131674" lon="115.31726592238832"><ele>258.5</ele><time>2026-04-13T04:56:00.001Z</time></trkpt><trkpt lat="-29.467797686933952" lon="115.31700678005856"><ele>256.0</ele><time>2026-04-13T04:56:01.001Z</time></trkpt><trkpt lat="-29.467904930126686" lon="115.31675543602745"><ele>256.5</ele><time>2026-04-13T04:56:02.001Z</time></trkpt><trkpt lat="-29.468006124898675" lon="115.31651558083324"><ele>257.0</ele><time>2026-04-13T04:56:03.001Z</time></trkpt><trkpt lat="-29.468107448193386" lon="115.31628344846305"><ele>256.33333333333337</ele><time>2026-04-13T04:56:04.001Z</time></trkpt><trkpt lat="-29.46820620213781" lon="115.31605826640605"><ele>255.66666666666669</ele><time>2026-04-13T04:56:05.001Z</time></trkpt><trkpt lat="-29.468301913630075" lon="115.31583814932576"><ele>255.0</ele><time>2026-04-13T04:56:06.001Z</time></trkpt><trkpt lat="-29.468397222381096" lon="115.31560777186003"><ele>254.0</ele><time>2026-04-13T04:56:07.001Z</time></trkpt><trkpt lat="-29.468483323107996" lon="115.31536587643133"><ele>253.0</ele><time>2026-04-13T04:56:08.001Z</time></trkpt><trkpt lat="-29.46854955932465" lon="115.31511677401343"><ele>253.0</ele><time>2026-04-13T04:56:09.001Z</time></trkpt><trkpt lat="-29.468596110852516" lon="115.31484624593836"><ele>253.0</ele><time>2026-04-13T04:56:10.001Z</time></trkpt><trkpt lat="-29.46862454606272" lon="115.3145572649926"><ele>250.5</ele><time>2026-04-13T04:56:11.001Z</time></trkpt><trkpt lat="-29.468636752362716" lon="115.31425214613886"><ele>248.0</ele><time>2026-04-13T04:56:12.001Z</time></trkpt><trkpt lat="-29.46863848952454" lon="115.31393340309461"><ele>246.0</ele><time>2026-04-13T04:56:13.001Z</time></trkpt><trkpt lat="-29.46863791880451" lon="115.3136109764848"><ele>244.0</ele><time>2026-04-13T04:56:14.001Z</time></trkpt><trkpt lat="-29.468637965556994" lon="115.31329029093122"><ele>243.5</ele><time>2026-04-13T04:56:15.001Z</time></trkpt><trkpt lat="-29.46863869196922" lon="115.3129698280568"><ele>243.0</ele><time>2026-04-13T04:56:16.001Z</time></trkpt><trkpt lat="-29.468641591732073" lon="115.31264963431185"><ele>243.0</ele><time>2026-04-13T04:56:17.001Z</time></trkpt><trkpt lat="-29.46864113682944" lon="115.31233161355506"><ele>243.0</ele><time>2026-04-13T04:56:18.001Z</time></trkpt><trkpt lat="-29.46863610815777" lon="115.31201652784273"><ele>243.0</ele><time>2026-04-13T04:56:19.001Z</time></trkpt><trkpt lat="-29.468631157560246" lon="115.31169302408935"><ele>243.0</ele><time>2026-04-13T04:56:20.001Z</time></trkpt><trkpt lat="-29.468631871120778" lon="115.31136978522889"><ele>243.5</ele><time>2026-04-13T04:56:21.001Z</time></trkpt><trkpt lat="-29.468630455910628" lon="115.3110493924327"><ele>244.0</ele><time>2026-04-13T04:56:22.001Z</time></trkpt><trkpt lat="-29.468628048497862" lon="115.31073563383232"><ele>244.0</ele><time>2026-04-13T04:56:23.001Z</time></trkpt><trkpt lat="-29.46862430947632" lon="115.31041784623497"><ele>244.0</ele><time>2026-04-13T04:56:24.001Z</time></trkpt><trkpt lat="-29.468623789494693" lon="115.31008999486616"><ele>244.0</ele><time>2026-04-13T04:56:25.001Z</time></trkpt><trkpt lat="-29.468627223052614" lon="115.30976132758911"><ele>244.0</ele><time>2026-04-13T04:56:26.001Z</time></trkpt><trkpt lat="-29.46863026553857" lon="115.3094333574026"><ele>244.0</ele><time>2026-04-13T04:56:27.001Z</time></trkpt><trkpt lat="-29.468629861644487" lon="115.30910424841251"><ele>244.0</ele><time>2026-04-13T04:56:28.001Z</time></trkpt><trkpt lat="-29.468624777458555" lon="115.30877438220486"><ele>243.0</ele><time>2026-04-13T04:56:29.001Z</time></trkpt><trkpt lat="-29.468623597031726" lon="115.30844482702425"><ele>242.0</ele><time>2026-04-13T04:56:30.001Z</time></trkpt><trkpt lat="-29.46862589421323" lon="115.30811016380565"><ele>241.5</ele><time>2026-04-13T04:56:31.001Z</time></trkpt><trkpt lat="-29.4686276113854" lon="115.30777750751881"><ele>241.0</ele><time>2026-04-13T04:56:32.001Z</time></trkpt><trkpt lat="-29.468623897845923" lon="115.30744053381726"><ele>240.5</ele><time>2026-04-13T04:56:33.001Z</time></trkpt><trkpt lat="-29.468617999397665" lon="115.3071023546871"><ele>240.0</ele><time>2026-04-13T04:56:34.001Z</time></trkpt><trkpt lat="-29.468614288865712" lon="115.30675769576825"><ele>240.0</ele><time>2026-04-13T04:56:35.001Z</time></trkpt><trkpt lat="-29.468612411000144" lon="115.30640922717672"><ele>240.0</ele><time>2026-04-13T04:56:36.001Z</time></trkpt><trkpt lat="-29.468612503853905" lon="115.30605712324315"><ele>240.0</ele><time>2026-04-13T04:56:37.001Z</time></trkpt><trkpt lat="-29.468614629393002" lon="115.3057029963679"><ele>240.0</ele><time>2026-04-13T04:56:38.001Z</time></trkpt><trkpt lat="-29.468617047803846" lon="115.30534824483964"><ele>239.5</ele><time>2026-04-13T04:56:39.001Z</time></trkpt><trkpt lat="-29.46861703867043" lon="115.3049922813639"><ele>239.0</ele><time>2026-04-13T04:56:40.001Z</time></trkpt><trkpt lat="-29.468615992663782" lon="115.30462805856286"><ele>238.0</ele><time>2026-04-13T04:56:41.001Z</time></trkpt><trkpt lat="-29.468612924193042" lon="115.30426794335958"><ele>237.0</ele><time>2026-04-13T04:56:42.001Z</time></trkpt><trkpt lat="-29.468610193587157" lon="115.30390507498433"><ele>235.5</ele><time>2026-04-13T04:56:43.001Z</time></trkpt><trkpt lat="-29.468608498280908" lon="115.30355213391192"><ele>234.0</ele><time>2026-04-13T04:56:44.001Z</time></trkpt><trkpt lat="-29.46860800010514" lon="115.30320059502444"><ele>233.5</ele><time>2026-04-13T04:56:45.001Z</time></trkpt><trkpt lat="-29.46860813079321" lon="115.30284409740143"><ele>233.0</ele><time>2026-04-13T04:56:46.001Z</time></trkpt><trkpt lat="-29.468609785528066" lon="115.3024938363556"><ele>230.5</ele><time>2026-04-13T04:56:47.001Z</time></trkpt><trkpt lat="-29.468611027343805" lon="115.30214037398757"><ele>228.0</ele><time>2026-04-13T04:56:48.001Z</time></trkpt><trkpt lat="-29.468610668569298" lon="115.3017859580285"><ele>228.0</ele><time>2026-04-13T04:56:49.001Z</time></trkpt><trkpt lat="-29.468607237321294" lon="115.30142636507915"><ele>228.0</ele><time>2026-04-13T04:56:50.001Z</time></trkpt><trkpt lat="-29.468604215057702" lon="115.30107043353814"><ele>227.0</ele><time>2026-04-13T04:56:51.001Z</time></trkpt><trkpt lat="-29.468605406817726" lon="115.30071096228035"><ele>226.0</ele><time>2026-04-13T04:56:52.001Z</time></trkpt><trkpt lat="-29.468603908327026" lon="115.30035935283222"><ele>224.5</ele><time>2026-04-13T04:56:53.001Z</time></trkpt><trkpt lat="-29.468603538581068" lon="115.3000057948141"><ele>223.0</ele><time>2026-04-13T04:56:54.001Z</time></trkpt><trkpt lat="-29.46860392644239" lon="115.29965303240208"><ele>222.0</ele><time>2026-04-13T04:56:55.001Z</time></trkpt><trkpt lat="-29.468602410172736" lon="115.29930437328277"><ele>221.0</ele><time>2026-04-13T04:56:56.001Z</time></trkpt><trkpt lat="-29.468604378679906" lon="115.2989521296877"><ele>219.0</ele><time>2026-04-13T04:56:57.001Z</time></trkpt><trkpt lat="-29.468605386664777" lon="115.29860231537744"><ele>217.0</ele><time>2026-04-13T04:56:58.001Z</time></trkpt><trkpt lat="-29.468607966420585" lon="115.29825123142773"><ele>216.5</ele><time>2026-04-13T04:56:59.001Z</time></trkpt><trkpt lat="-29.468611335458014" lon="115.29789978428012"><ele>216.0</ele><time>2026-04-13T04:57:00.001Z</time></trkpt><trkpt lat="-29.468611819964174" lon="115.29754951770823"><ele>215.0</ele><time>2026-04-13T04:57:01.001Z</time></trkpt><trkpt lat="-29.46860960595045" lon="115.29719963783064"><ele>214.0</ele><time>2026-04-13T04:57:02.001Z</time></trkpt><trkpt lat="-29.468606581140037" lon="115.29684771228709"><ele>214.0</ele><time>2026-04-13T04:57:03.001Z</time></trkpt><trkpt lat="-29.468604237099825" lon="115.29649435211132"><ele>214.0</ele><time>2026-04-13T04:57:04.001Z</time></trkpt><trkpt lat="-29.468605263790803" lon="115.29614183607377"><ele>211.5</ele><time>2026-04-13T04:57:05.001Z</time></trkpt><trkpt lat="-29.468606281044945" lon="115.29578550230212"><ele>209.0</ele><time>2026-04-13T04:57:06.001Z</time></trkpt><trkpt lat="-29.468606596309357" lon="115.29542614442427"><ele>209.0</ele><time>2026-04-13T04:57:07.001Z</time></trkpt><trkpt lat="-29.468603995677494" lon="115.29506639086385"><ele>209.0</ele><time>2026-04-13T04:57:08.001Z</time></trkpt><trkpt lat="-29.468600317649805" lon="115.29470223960935"><ele>209.0</ele><time>2026-04-13T04:57:09.001Z</time></trkpt><trkpt lat="-29.468597151847845" lon="115.29434522617633"><ele>209.0</ele><time>2026-04-13T04:57:10.001Z</time></trkpt><trkpt lat="-29.468597488813742" lon="115.29398090659703"><ele>207.5</ele><time>2026-04-13T04:57:11.001Z</time></trkpt><trkpt lat="-29.46859917982738" lon="115.29361756043652"><ele>206.0</ele><time>2026-04-13T04:57:12.001Z</time></trkpt><trkpt lat="-29.46859945006205" lon="115.29325513020926"><ele>206.0</ele><time>2026-04-13T04:57:13.001Z</time></trkpt><trkpt lat="-29.46860121612022" lon="115.29289159474257"><ele>206.0</ele><time>2026-04-13T04:57:14.001Z</time></trkpt><trkpt lat="-29.468599869783667" lon="115.29253633585748"><ele>205.5</ele><time>2026-04-13T04:57:15.001Z</time></trkpt><trkpt lat="-29.46859971736391" lon="115.29217835115901"><ele>205.0</ele><time>2026-04-13T04:57:16.001Z</time></trkpt><trkpt lat="-29.468600414960868" lon="115.29182483914225"><ele>205.0</ele><time>2026-04-13T04:57:17.001Z</time></trkpt><trkpt lat="-29.468602015140856" lon="115.29146800378797"><ele>205.0</ele><time>2026-04-13T04:57:18.001Z</time></trkpt><trkpt lat="-29.468601544640258" lon="115.2911061132641"><ele>205.0</ele><time>2026-04-13T04:57:19.001Z</time></trkpt><trkpt lat="-29.46859752219421" lon="115.2907431944578"><ele>205.0</ele><time>2026-04-13T04:57:20.001Z</time></trkpt><trkpt lat="-29.468593150787715" lon="115.29037887540633"><ele>204.0</ele><time>2026-04-13T04:57:21.001Z</time></trkpt><trkpt lat="-29.46859157087684" lon="115.2900172665753"><ele>203.0</ele><time>2026-04-13T04:57:22.001Z</time></trkpt><trkpt lat="-29.468592399049015" lon="115.28966024386779"><ele>201.5</ele><time>2026-04-13T04:57:23.001Z</time></trkpt><trkpt lat="-29.46859327677173" lon="115.2893053968343"><ele>200.0</ele><time>2026-04-13T04:57:24.001Z</time></trkpt><trkpt lat="-29.46859523011391" lon="115.28895281568461"><ele>200.5</ele><time>2026-04-13T04:57:25.001Z</time></trkpt><trkpt lat="-29.468595498531243" lon="115.28860298291598"><ele>201.0</ele><time>2026-04-13T04:57:26.001Z</time></trkpt><trkpt lat="-29.468595347435176" lon="115.28825562311219"><ele>200.0</ele><time>2026-04-13T04:57:27.001Z</time></trkpt><trkpt lat="-29.468594737684207" lon="115.28790942095802"><ele>199.0</ele><time>2026-04-13T04:57:28.001Z</time></trkpt><trkpt lat="-29.468593752497178" lon="115.28756517921364"><ele>199.0</ele><time>2026-04-13T04:57:29.001Z</time></trkpt><trkpt lat="-29.46859371290561" lon="115.28721975635987"><ele>199.0</ele><time>2026-04-13T04:57:30.001Z</time></trkpt><trkpt lat="-29.468594290710275" lon="115.28687088988009"><ele>199.0</ele><time>2026-04-13T04:57:31.001Z</time></trkpt><trkpt lat="-29.468593118993933" lon="115.28652468373369"><ele>199.0</ele><time>2026-04-13T04:57:32.001Z</time></trkpt><trkpt lat="-29.468591932438997" lon="115.28618130403476"><ele>200.0</ele><time>2026-04-13T04:57:33.001Z</time></trkpt><trkpt lat="-29.46859021333011" lon="115.28583209259507"><ele>201.0</ele><time>2026-04-13T04:57:34.001Z</time></trkpt><trkpt lat="-29.468590605424616" lon="115.2854897393046"><ele>202.0</ele><time>2026-04-13T04:57:35.001Z</time></trkpt><trkpt lat="-29.468592249853934" lon="115.28514545669726"><ele>203.0</ele><time>2026-04-13T04:57:36.001Z</time></trkpt><trkpt lat="-29.468591718459535" lon="115.28480498247046"><ele>203.5</ele><time>2026-04-13T04:57:37.001Z</time></trkpt><trkpt lat="-29.468594062917255" lon="115.28446807916883"><ele>204.0</ele><time>2026-04-13T04:57:38.001Z</time></trkpt><trkpt lat="-29.468596467124243" lon="115.28413039865856"><ele>205.0</ele><time>2026-04-13T04:57:39.001Z</time></trkpt><trkpt lat="-29.46859751152147" lon="115.28379737337436"><ele>206.0</ele><time>2026-04-13T04:57:40.001Z</time></trkpt><trkpt lat="-29.468596183302804" lon="115.28345805660776"><ele>206.0</ele><time>2026-04-13T04:57:41.001Z</time></trkpt><trkpt lat="-29.468596667566242" lon="115.2831211446456"><ele>206.0</ele><time>2026-04-13T04:57:42.001Z</time></trkpt><trkpt lat="-29.46859601475001" lon="115.28277955948339"><ele>206.0</ele><time>2026-04-13T04:57:43.001Z</time></trkpt><trkpt lat="-29.4685954013573" lon="115.28244028074334"><ele>206.0</ele><time>2026-04-13T04:57:44.001Z</time></trkpt><trkpt lat="-29.468595120878458" lon="115.28210477627587"><ele>206.5</ele><time>2026-04-13T04:57:45.001Z</time></trkpt><trkpt lat="-29.468596008182466" lon="115.28176922067452"><ele>207.0</ele><time>2026-04-13T04:57:46.001Z</time></trkpt><trkpt lat="-29.46859588609283" lon="115.28144878732634"><ele>208.0</ele><time>2026-04-13T04:57:47.001Z</time></trkpt><trkpt lat="-29.468594807494178" lon="115.28115338079711"><ele>209.0</ele><time>2026-04-13T04:57:48.001Z</time></trkpt><trkpt lat="-29.468592819823215" lon="115.28087428997242"><ele>209.5</ele><time>2026-04-13T04:57:49.001Z</time></trkpt><trkpt lat="-29.468589345861925" lon="115.2805885873257"><ele>210.0</ele><time>2026-04-13T04:57:50.001Z</time></trkpt><trkpt lat="-29.46858727211355" lon="115.28028669397148"><ele>210.0</ele><time>2026-04-13T04:57:51.001Z</time></trkpt><trkpt lat="-29.468588738176184" lon="115.27998322922771"><ele>210.0</ele><time>2026-04-13T04:57:52.001Z</time></trkpt><trkpt lat="-29.46858811792754" lon="115.27967915863819"><ele>210.0</ele><time>2026-04-13T04:57:53.001Z</time></trkpt><trkpt lat="-29.468588358507652" lon="115.27938275771507"><ele>210.0</ele><time>2026-04-13T04:57:54.001Z</time></trkpt><trkpt lat="-29.468587857816534" lon="115.27907743282535"><ele>210.0</ele><time>2026-04-13T04:57:55.001Z</time></trkpt><trkpt lat="-29.468590037202265" lon="115.27877561769438"><ele>210.0</ele><time>2026-04-13T04:57:56.001Z</time></trkpt><trkpt lat="-29.468590342088167" lon="115.27847194399229"><ele>210.0</ele><time>2026-04-13T04:57:57.001Z</time></trkpt><trkpt lat="-29.46858896074843" lon="115.2781715333207"><ele>210.0</ele><time>2026-04-13T04:57:58.001Z</time></trkpt><trkpt lat="-29.468586103146617" lon="115.27787626885085"><ele>209.5</ele><time>2026-04-13T04:57:59.001Z</time></trkpt><trkpt lat="-29.468581620254305" lon="115.27758777912643"><ele>209.0</ele><time>2026-04-13T04:58:00.001Z</time></trkpt><trkpt lat="-29.468577566058787" lon="115.27729571715226"><ele>208.0</ele><time>2026-04-13T04:58:01.001Z</time></trkpt><trkpt lat="-29.46857910715754" lon="115.2769960307219"><ele>207.0</ele><time>2026-04-13T04:58:02.001Z</time></trkpt><trkpt lat="-29.468581511329518" lon="115.27669023942866"><ele>205.5</ele><time>2026-04-13T04:58:03.001Z</time></trkpt><trkpt lat="-29.468583406628362" lon="115.27638283988986"><ele>204.0</ele><time>2026-04-13T04:58:04.001Z</time></trkpt><trkpt lat="-29.468581124366697" lon="115.27607596369644"><ele>204.0</ele><time>2026-04-13T04:58:05.001Z</time></trkpt><trkpt lat="-29.468575944476356" lon="115.27576451478328"><ele>204.0</ele><time>2026-04-13T04:58:06.001Z</time></trkpt><trkpt lat="-29.468569432400926" lon="115.2754521116255"><ele>202.0</ele><time>2026-04-13T04:58:07.001Z</time></trkpt><trkpt lat="-29.46856511517622" lon="115.27514564920243"><ele>200.0</ele><time>2026-04-13T04:58:08.001Z</time></trkpt><trkpt lat="-29.468562801160868" lon="115.27484735043564"><ele>197.0</ele><time>2026-04-13T04:58:09.001Z</time></trkpt><trkpt lat="-29.468566034184192" lon="115.27425450843688"><ele>197.0</ele><time>2026-04-13T04:58:11.001Z</time></trkpt><trkpt lat="-29.46856801013817" lon="115.27395944563595"><ele>197.0</ele><time>2026-04-13T04:58:12.001Z</time></trkpt><trkpt lat="-29.468568605239682" lon="115.2736591937329"><ele>196.0</ele><time>2026-04-13T04:58:13.001Z</time></trkpt><trkpt lat="-29.468565615325055" lon="115.27335555876964"><ele>195.0</ele><time>2026-04-13T04:58:14.001Z</time></trkpt><trkpt lat="-29.46856211308097" lon="115.27304886574886"><ele>194.0</ele><time>2026-04-13T04:58:15.001Z</time></trkpt><trkpt lat="-29.468562298992147" lon="115.27274279023993"><ele>193.0</ele><time>2026-04-13T04:58:16.001Z</time></trkpt><trkpt lat="-29.468567260573565" lon="115.27243232495631"><ele>191.0</ele><time>2026-04-13T04:58:17.001Z</time></trkpt><trkpt lat="-29.46856920051005" lon="115.27211827076569"><ele>189.0</ele><time>2026-04-13T04:58:18.001Z</time></trkpt><trkpt lat="-29.468567305936983" lon="115.27180160265145"><ele>189.0</ele><time>2026-04-13T04:58:19.001Z</time></trkpt><trkpt lat="-29.468563364482506" lon="115.27147582848056"><ele>189.0</ele><time>2026-04-13T04:58:20.001Z</time></trkpt><trkpt lat="-29.46856293831576" lon="115.27114310531424"><ele>188.0</ele><time>2026-04-13T04:58:21.001Z</time></trkpt><trkpt lat="-29.468565789431846" lon="115.27080767414354"><ele>187.0</ele><time>2026-04-13T04:58:22.001Z</time></trkpt><trkpt lat="-29.468565315422428" lon="115.27047289182536"><ele>186.5</ele><time>2026-04-13T04:58:23.001Z</time></trkpt><trkpt lat="-29.468563895584644" lon="115.27013868895423"><ele>186.0</ele><time>2026-04-13T04:58:24.001Z</time></trkpt><trkpt lat="-29.468565436464406" lon="115.26980804369305"><ele>185.0</ele><time>2026-04-13T04:58:25.001Z</time></trkpt><trkpt lat="-29.468567703463382" lon="115.26948201377368"><ele>184.0</ele><time>2026-04-13T04:58:26.001Z</time></trkpt><trkpt lat="-29.468569444091468" lon="115.26916219509909"><ele>184.5</ele><time>2026-04-13T04:58:27.001Z</time></trkpt><trkpt lat="-29.468568464391026" lon="115.26884696796752"><ele>185.0</ele><time>2026-04-13T04:58:28.001Z</time></trkpt><trkpt lat="-29.46856483297025" lon="115.26853582865431"><ele>185.0</ele><time>2026-04-13T04:58:29.001Z</time></trkpt><trkpt lat="-29.468564893287862" lon="115.26823170170441"><ele>185.0</ele><time>2026-04-13T04:58:30.001Z</time></trkpt><trkpt lat="-29.468568019189753" lon="115.2679353193638"><ele>186.0</ele><time>2026-04-13T04:58:31.001Z</time></trkpt><trkpt lat="-29.468570217914" lon="115.26763848767094"><ele>187.0</ele><time>2026-04-13T04:58:32.001Z</time></trkpt><trkpt lat="-29.468571168395005" lon="115.26733729235843"><ele>189.0</ele><time>2026-04-13T04:58:33.001Z</time></trkpt><trkpt lat="-29.46857050988701" lon="115.26703066023533"><ele>191.0</ele><time>2026-04-13T04:58:34.001Z</time></trkpt><trkpt lat="-29.46857033853887" lon="115.2667190034646"><ele>193.0</ele><time>2026-04-13T04:58:35.001Z</time></trkpt><trkpt lat="-29.4685695075433" lon="115.26640653766466"><ele>195.0</ele><time>2026-04-13T04:58:36.001Z</time></trkpt><trkpt lat="-29.468569277056282" lon="115.26608923605421"><ele>195.0</ele><time>2026-04-13T04:58:37.001Z</time></trkpt><trkpt lat="-29.46856774179554" lon="115.26577301157987"><ele>195.0</ele><time>2026-04-13T04:58:38.001Z</time></trkpt><trkpt lat="-29.46856634641951" lon="115.26544954506247"><ele>195.5</ele><time>2026-04-13T04:58:39.001Z</time></trkpt><trkpt lat="-29.46856649931548" lon="115.26512495478474"><ele>196.0</ele><time>2026-04-13T04:58:40.001Z</time></trkpt><trkpt lat="-29.46856709568508" lon="115.264804143833"><ele>196.5</ele><time>2026-04-13T04:58:41.001Z</time></trkpt><trkpt lat="-29.468567313980127" lon="115.26448419434408"><ele>197.0</ele><time>2026-04-13T04:58:42.001Z</time></trkpt><trkpt lat="-29.468570599214008" lon="115.26416271165319"><ele>198.0</ele><time>2026-04-13T04:58:43.001Z</time></trkpt><trkpt lat="-29.468571506276252" lon="115.26384019970692"><ele>199.0</ele><time>2026-04-13T04:58:44.001Z</time></trkpt><trkpt lat="-29.468569596610287" lon="115.26351501945119"><ele>199.0</ele><time>2026-04-13T04:58:45.001Z</time></trkpt><trkpt lat="-29.4685652059075" lon="115.26319017154923"><ele>199.0</ele><time>2026-04-13T04:58:46.001Z</time></trkpt><trkpt lat="-29.468559117453275" lon="115.26286700268562"><ele>199.0</ele><time>2026-04-13T04:58:47.001Z</time></trkpt><trkpt lat="-29.468552811542914" lon="115.26254153205525"><ele>199.0</ele><time>2026-04-13T04:58:48.001Z</time></trkpt><trkpt lat="-29.46854933167377" lon="115.26221761183122"><ele>200.0</ele><time>2026-04-13T04:58:49.001Z</time></trkpt><trkpt lat="-29.46855159913198" lon="115.2618928986751"><ele>201.0</ele><time>2026-04-13T04:58:50.001Z</time></trkpt><trkpt lat="-29.46855716928567" lon="115.26156897016227"><ele>202.5</ele><time>2026-04-13T04:58:51.001Z</time></trkpt><trkpt lat="-29.46856106157397" lon="115.26124745985966"><ele>204.0</ele><time>2026-04-13T04:58:52.001Z</time></trkpt><trkpt lat="-29.46856131982779" lon="115.26092981118393"><ele>204.5</ele><time>2026-04-13T04:58:53.001Z</time></trkpt><trkpt lat="-29.4685595251273" lon="115.26061458854905"><ele>205.0</ele><time>2026-04-13T04:58:54.001Z</time></trkpt><trkpt lat="-29.46855765647356" lon="115.2603001448364"><ele>205.0</ele><time>2026-04-13T04:58:55.001Z</time></trkpt><trkpt lat="-29.4685580092079" lon="115.2599884514387"><ele>205.0</ele><time>2026-04-13T04:58:56.001Z</time></trkpt><trkpt lat="-29.468556739772893" lon="115.25967929438421"><ele>207.0</ele><time>2026-04-13T04:58:57.001Z</time></trkpt><trkpt lat="-29.46855507920927" lon="115.25937273612637"><ele>209.0</ele><time>2026-04-13T04:58:58.001Z</time></trkpt><trkpt lat="-29.468555730983738" lon="115.25906400177018"><ele>210.0</ele><time>2026-04-13T04:58:59.001Z</time></trkpt><trkpt lat="-29.46855723008581" lon="115.25875659217897"><ele>211.0</ele><time>2026-04-13T04:59:00.001Z</time></trkpt><trkpt lat="-29.46856279450467" lon="115.25845241481888"><ele>211.0</ele><time>2026-04-13T04:59:01.001Z</time></trkpt><trkpt lat="-29.4685650572759" lon="115.25815173435237"><ele>211.0</ele><time>2026-04-13T04:59:02.001Z</time></trkpt><trkpt lat="-29.468561145234226" lon="115.2578704338695"><ele>211.0</ele><time>2026-04-13T04:59:03.001Z</time></trkpt><trkpt lat="-29.468556780217565" lon="115.257602316309"><ele>211.0</ele><time>2026-04-13T04:59:04.001Z</time></trkpt><trkpt lat="-29.468558026284132" lon="115.25734681465121"><ele>211.0</ele><time>2026-04-13T04:59:05.001Z</time></trkpt><trkpt lat="-29.468566960212666" lon="115.25710004665501"><ele>211.0</ele><time>2026-04-13T04:59:06.001Z</time></trkpt><trkpt lat="-29.46857588590899" lon="115.25685785624015"><ele>211.0</ele><time>2026-04-13T04:59:07.001Z</time></trkpt><trkpt lat="-29.468575020663625" lon="115.25661567343833"><ele>210.33333333333331</ele><time>2026-04-13T04:59:08.001Z</time></trkpt><trkpt lat="-29.468561474798467" lon="115.25637135304102"><ele>209.66666666666669</ele><time>2026-04-13T04:59:09.001Z</time></trkpt><trkpt lat="-29.468531145454723" lon="115.25612836309519"><ele>209.0</ele><time>2026-04-13T04:59:10.001Z</time></trkpt><trkpt lat="-29.468476479211194" lon="115.25588410247306"><ele>209.0</ele><time>2026-04-13T04:59:11.001Z</time></trkpt><trkpt lat="-29.46840276854488" lon="115.25564085579191"><ele>209.0</ele><time>2026-04-13T04:59:12.001Z</time></trkpt><trkpt lat="-29.46829976220074" lon="115.2553941285408"><ele>209.5</ele><time>2026-04-13T04:59:13.001Z</time></trkpt><trkpt lat="-29.468183606141025" lon="115.2551483728403"><ele>210.0</ele><time>2026-04-13T04:59:14.001Z</time></trkpt><trkpt lat="-29.46804451673231" lon="115.25489291861138"><ele>208.0</ele><time>2026-04-13T04:59:15.001Z</time></trkpt><trkpt lat="-29.467889770137084" lon="115.25463147497143"><ele>206.0</ele><time>2026-04-13T04:59:16.001Z</time></trkpt><trkpt lat="-29.46773207766699" lon="115.25436550212626"><ele>206.0</ele><time>2026-04-13T04:59:17.001Z</time></trkpt><trkpt lat="-29.46757394694444" lon="115.25409446602751"><ele>206.0</ele><time>2026-04-13T04:59:18.001Z</time></trkpt><trkpt lat="-29.467412805355714" lon="115.2538148076911"><ele>205.0</ele><time>2026-04-13T04:59:19.001Z</time></trkpt><trkpt lat="-29.46725176311116" lon="115.25352979046083"><ele>204.0</ele><time>2026-04-13T04:59:20.001Z</time></trkpt><trkpt lat="-29.467095074045176" lon="115.25324692227599"><ele>202.0</ele><time>2026-04-13T04:59:21.001Z</time></trkpt><trkpt lat="-29.466933365471714" lon="115.25296420869186"><ele>200.0</ele><time>2026-04-13T04:59:22.001Z</time></trkpt><trkpt lat="-29.466771971700112" lon="115.25268484972125"><ele>200.0</ele><time>2026-04-13T04:59:23.001Z</time></trkpt><trkpt lat="-29.466610934941443" lon="115.25240682121027"><ele>200.0</ele><time>2026-04-13T04:59:24.001Z</time></trkpt><trkpt lat="-29.466450349583003" lon="115.25212737610876"><ele>200.5</ele><time>2026-04-13T04:59:25.001Z</time></trkpt><trkpt lat="-29.466290255348827" lon="115.25184403559577"><ele>201.0</ele><time>2026-04-13T04:59:26.001Z</time></trkpt><trkpt lat="-29.46613138431887" lon="115.25156452790618"><ele>199.5</ele><time>2026-04-13T04:59:27.001Z</time></trkpt><trkpt lat="-29.465970548047068" lon="115.2512872912896"><ele>198.0</ele><time>2026-04-13T04:59:28.001Z</time></trkpt><trkpt lat="-29.465810651256593" lon="115.25100327352673"><ele>198.0</ele><time>2026-04-13T04:59:29.001Z</time></trkpt><trkpt lat="-29.465654030866503" lon="115.25072485668456"><ele>198.0</ele><time>2026-04-13T04:59:30.001Z</time></trkpt><trkpt lat="-29.465494712874754" lon="115.250444580762"><ele>199.0</ele><time>2026-04-13T04:59:31.001Z</time></trkpt><trkpt lat="-29.465333632486516" lon="115.25016754602362"><ele>200.0</ele><time>2026-04-13T04:59:32.001Z</time></trkpt><trkpt lat="-29.465171034355038" lon="115.24989045669794"><ele>199.5</ele><time>2026-04-13T04:59:33.001Z</time></trkpt><trkpt lat="-29.46501124342856" lon="115.24961494989584"><ele>199.0</ele><time>2026-04-13T04:59:34.001Z</time></trkpt><trkpt lat="-29.46485483647933" lon="115.24933532383317"><ele>199.0</ele><time>2026-04-13T04:59:35.001Z</time></trkpt><trkpt lat="-29.46470156471401" lon="115.24906109283546"><ele>199.0</ele><time>2026-04-13T04:59:36.001Z</time></trkpt><trkpt lat="-29.464545570709305" lon="115.24878285219255"><ele>199.0</ele><time>2026-04-13T04:59:37.001Z</time></trkpt><trkpt lat="-29.464390009357622" lon="115.24851002246267"><ele>199.0</ele><time>2026-04-13T04:59:38.001Z</time></trkpt><trkpt lat="-29.464234350217374" lon="115.24823946788752"><ele>198.5</ele><time>2026-04-13T04:59:39.001Z</time></trkpt><trkpt lat="-29.46407776974775" lon="115.24796838282305"><ele>198.0</ele><time>2026-04-13T04:59:40.001Z</time></trkpt><trkpt lat="-29.463920577111967" lon="115.24769656526094"><ele>198.5</ele><time>2026-04-13T04:59:41.001Z</time></trkpt><trkpt lat="-29.463761282601556" lon="115.24742192173395"><ele>199.0</ele><time>2026-04-13T04:59:42.001Z</time></trkpt><trkpt lat="-29.463601030849404" lon="115.24714421200622"><ele>198.0</ele><time>2026-04-13T04:59:43.001Z</time></trkpt><trkpt lat="-29.463441907036295" lon="115.24685996111897"><ele>197.0</ele><time>2026-04-13T04:59:44.001Z</time></trkpt><trkpt lat="-29.46327963629918" lon="115.24657176639624"><ele>196.5</ele><time>2026-04-13T04:59:45.001Z</time></trkpt><trkpt lat="-29.46311709222472" lon="115.24628309142672"><ele>196.0</ele><time>2026-04-13T04:59:46.001Z</time></trkpt><trkpt lat="-29.462951926262622" lon="115.24598913828912"><ele>196.0</ele><time>2026-04-13T04:59:47.001Z</time></trkpt><trkpt lat="-29.46278768739407" lon="115.24569225197234"><ele>196.0</ele><time>2026-04-13T04:59:48.001Z</time></trkpt><trkpt lat="-29.46262359101777" lon="115.24538887165612"><ele>194.0</ele><time>2026-04-13T04:59:49.001Z</time></trkpt><trkpt lat="-29.46245961512567" lon="115.24508841852293"><ele>192.0</ele><time>2026-04-13T04:59:50.001Z</time></trkpt><trkpt lat="-29.462292706878888" lon="115.24478586609891"><ele>190.5</ele><time>2026-04-13T04:59:51.001Z</time></trkpt><trkpt lat="-29.46212795884276" lon="115.2444861645744"><ele>189.0</ele><time>2026-04-13T04:59:52.001Z</time></trkpt><trkpt lat="-29.46196284306565" lon="115.24418560226962"><ele>188.5</ele><time>2026-04-13T04:59:53.001Z</time></trkpt><trkpt lat="-29.461797655426725" lon="115.24388791085713"><ele>188.0</ele><time>2026-04-13T04:59:54.001Z</time></trkpt><trkpt lat="-29.461631602633606" lon="115.24358749574043"><ele>188.0</ele><time>2026-04-13T04:59:55.001Z</time></trkpt><trkpt lat="-29.461464697847507" lon="115.24328992812998"><ele>188.0</ele><time>2026-04-13T04:59:56.001Z</time></trkpt><trkpt lat="-29.461298951143718" lon="115.2429904245292"><ele>187.0</ele><time>2026-04-13T04:59:57.001Z</time></trkpt><trkpt lat="-29.461138748820375" lon="115.2426887899978"><ele>186.0</ele><time>2026-04-13T04:59:58.001Z</time></trkpt><trkpt lat="-29.460980198601906" lon="115.24238952221556"><ele>184.0</ele><time>2026-04-13T04:59:59.001Z</time></trkpt><trkpt lat="-29.460820217210827" lon="115.24209526123494"><ele>182.0</ele><time>2026-04-13T05:00:00.001Z</time></trkpt><trkpt lat="-29.460656730130612" lon="115.24179731629378"><ele>182.0</ele><time>2026-04-13T05:00:01.001Z</time></trkpt><trkpt lat="-29.460494709703966" lon="115.24150135029836"><ele>182.0</ele><time>2026-04-13T05:00:02.001Z</time></trkpt><trkpt lat="-29.46033142265746" lon="115.24120254742783"><ele>180.5</ele><time>2026-04-13T05:00:03.001Z</time></trkpt><trkpt lat="-29.46016997752672" lon="115.24090195643623"><ele>179.0</ele><time>2026-04-13T05:00:04.001Z</time></trkpt><trkpt lat="-29.460007254254414" lon="115.24059950358253"><ele>178.0</ele><time>2026-04-13T05:00:05.001Z</time></trkpt><trkpt lat="-29.459840630430804" lon="115.2402902491661"><ele>177.0</ele><time>2026-04-13T05:00:06.001Z</time></trkpt><trkpt lat="-29.459672188192194" lon="115.23998296122433"><ele>175.5</ele><time>2026-04-13T05:00:07.001Z</time></trkpt><trkpt lat="-29.459502259815302" lon="115.23967981585882"><ele>174.0</ele><time>2026-04-13T05:00:08.001Z</time></trkpt><trkpt lat="-29.45933228757174" lon="115.2393706823815"><ele>174.0</ele><time>2026-04-13T05:00:09.001Z</time></trkpt><trkpt lat="-29.459166484073016" lon="115.23906792393102"><ele>174.0</ele><time>2026-04-13T05:00:10.001Z</time></trkpt><trkpt lat="-29.459000866131724" lon="115.2387602281909"><ele>173.5</ele><time>2026-04-13T05:00:11.001Z</time></trkpt><trkpt lat="-29.458839889004835" lon="115.23845933894212"><ele>173.0</ele><time>2026-04-13T05:00:12.001Z</time></trkpt><trkpt lat="-29.458677667280636" lon="115.23815585522344"><ele>170.5</ele><time>2026-04-13T05:00:13.001Z</time></trkpt><trkpt lat="-29.45851288454434" lon="115.2378536607683"><ele>168.0</ele><time>2026-04-13T05:00:14.001Z</time></trkpt><trkpt lat="-29.45835198167102" lon="115.23755730743457"><ele>166.5</ele><time>2026-04-13T05:00:15.001Z</time></trkpt><trkpt lat="-29.458188922758133" lon="115.237256348383"><ele>165.0</ele><time>2026-04-13T05:00:16.001Z</time></trkpt><trkpt lat="-29.458025394720984" lon="115.23695593902292"><ele>165.0</ele><time>2026-04-13T05:00:17.001Z</time></trkpt><trkpt lat="-29.457860631214235" lon="115.23664975128627"><ele>165.0</ele><time>2026-04-13T05:00:18.001Z</time></trkpt><trkpt lat="-29.457693914525922" lon="115.23634425453369"><ele>164.0</ele><time>2026-04-13T05:00:19.001Z</time></trkpt><trkpt lat="-29.45752876021965" lon="115.23604453961646"><ele>163.0</ele><time>2026-04-13T05:00:20.001Z</time></trkpt><trkpt lat="-29.457367895859022" lon="115.23574635962352"><ele>163.0</ele><time>2026-04-13T05:00:21.001Z</time></trkpt><trkpt lat="-29.457209227753516" lon="115.23545166437188"><ele>163.0</ele><time>2026-04-13T05:00:22.001Z</time></trkpt><trkpt lat="-29.45704753907683" lon="115.23515373580977"><ele>163.0</ele><time>2026-04-13T05:00:23.001Z</time></trkpt><trkpt lat="-29.456887016174914" lon="115.23486260792166"><ele>163.0</ele><time>2026-04-13T05:00:24.001Z</time></trkpt><trkpt lat="-29.456726724159918" lon="115.23457458883762"><ele>162.0</ele><time>2026-04-13T05:00:25.001Z</time></trkpt><trkpt lat="-29.45656780083867" lon="115.23428207170181"><ele>161.0</ele><time>2026-04-13T05:00:26.001Z</time></trkpt><trkpt lat="-29.45640966656378" lon="115.23399345225428"><ele>160.0</ele><time>2026-04-13T05:00:27.001Z</time></trkpt><trkpt lat="-29.45625290730029" lon="115.23370516009857"><ele>159.0</ele><time>2026-04-13T05:00:28.001Z</time></trkpt><trkpt lat="-29.45610042632987" lon="115.23341711937009"><ele>158.0</ele><time>2026-04-13T05:00:29.001Z</time></trkpt><trkpt lat="-29.455948159253122" lon="115.2331313452344"><ele>157.0</ele><time>2026-04-13T05:00:30.001Z</time></trkpt><trkpt lat="-29.455791745257955" lon="115.23284611747309"><ele>157.0</ele><time>2026-04-13T05:00:31.001Z</time></trkpt><trkpt lat="-29.45563481853865" lon="115.23256098640879"><ele>157.0</ele><time>2026-04-13T05:00:32.001Z</time></trkpt><trkpt lat="-29.45547836303715" lon="115.23227456111869"><ele>155.5</ele><time>2026-04-13T05:00:33.001Z</time></trkpt><trkpt lat="-29.455323774839655" lon="115.23198347760908"><ele>154.0</ele><time>2026-04-13T05:00:34.001Z</time></trkpt><trkpt lat="-29.455169637409533" lon="115.2316919238532"><ele>153.0</ele><time>2026-04-13T05:00:35.001Z</time></trkpt><trkpt lat="-29.455015007656417" lon="115.23140398074698"><ele>152.0</ele><time>2026-04-13T05:00:36.001Z</time></trkpt><trkpt lat="-29.45485945127236" lon="115.23111561322895"><ele>152.0</ele><time>2026-04-13T05:00:37.001Z</time></trkpt><trkpt lat="-29.454704417900064" lon="115.23082407969382"><ele>152.0</ele><time>2026-04-13T05:00:38.001Z</time></trkpt><trkpt lat="-29.454548640960482" lon="115.23053710347531"><ele>150.5</ele><time>2026-04-13T05:00:39.001Z</time></trkpt><trkpt lat="-29.454391250530353" lon="115.23025094532775"><ele>149.0</ele><time>2026-04-13T05:00:40.001Z</time></trkpt><trkpt lat="-29.454232950636317" lon="115.22996231427759"><ele>148.0</ele><time>2026-04-13T05:00:41.001Z</time></trkpt><trkpt lat="-29.45407490779764" lon="115.22967137328469"><ele>147.0</ele><time>2026-04-13T05:00:42.001Z</time></trkpt><trkpt lat="-29.453915996012903" lon="115.22937535982808"><ele>147.0</ele><time>2026-04-13T05:00:43.001Z</time></trkpt><trkpt lat="-29.453758285717402" lon="115.22907898965458"><ele>147.0</ele><time>2026-04-13T05:00:44.001Z</time></trkpt><trkpt lat="-29.453598927854696" lon="115.22878063504321"><ele>147.0</ele><time>2026-04-13T05:00:45.001Z</time></trkpt><trkpt lat="-29.45343684810626" lon="115.22848192649673"><ele>147.0</ele><time>2026-04-13T05:00:46.001Z</time></trkpt><trkpt lat="-29.45327135932559" lon="115.22818327993596"><ele>144.5</ele><time>2026-04-13T05:00:47.001Z</time></trkpt><trkpt lat="-29.453105527140224" lon="115.22788267571086"><ele>142.0</ele><time>2026-04-13T05:00:48.001Z</time></trkpt><trkpt lat="-29.45294261891837" lon="115.22758369770489"><ele>140.5</ele><time>2026-04-13T05:00:49.001Z</time></trkpt><trkpt lat="-29.452780880118418" lon="115.22728163361069"><ele>139.0</ele><time>2026-04-13T05:00:50.001Z</time></trkpt><trkpt lat="-29.452620550901234" lon="115.22697998518424"><ele>139.0</ele><time>2026-04-13T05:00:51.001Z</time></trkpt><trkpt lat="-29.452456548306785" lon="115.22667868117549"><ele>139.0</ele><time>2026-04-13T05:00:52.001Z</time></trkpt><trkpt lat="-29.45228938841535" lon="115.22637435440537"><ele>138.0</ele><time>2026-04-13T05:00:53.001Z</time></trkpt><trkpt lat="-29.45212370638426" lon="115.2260699241405"><ele>137.0</ele><time>2026-04-13T05:00:54.001Z</time></trkpt><trkpt lat="-29.451958682571767" lon="115.22576332765962"><ele>136.0</ele><time>2026-04-13T05:00:55.001Z</time></trkpt><trkpt lat="-29.451793188191733" lon="115.22545577420475"><ele>135.0</ele><time>2026-04-13T05:00:56.001Z</time></trkpt><trkpt lat="-29.451626534951345" lon="115.22514783712576"><ele>135.0</ele><time>2026-04-13T05:00:57.001Z</time></trkpt><trkpt lat="-29.451461675732887" lon="115.2248452709497"><ele>135.0</ele><time>2026-04-13T05:00:58.001Z</time></trkpt><trkpt lat="-29.451299402389328" lon="115.22454339468955"><ele>134.5</ele><time>2026-04-13T05:00:59.001Z</time></trkpt><trkpt lat="-29.451138179296024" lon="115.22424240754532"><ele>134.0</ele><time>2026-04-13T05:01:00Z</time></trkpt><trkpt lat="-29.450972044647536" lon="115.22394044276885"><ele>134.0</ele><time>2026-04-13T05:01:01Z</time></trkpt><trkpt lat="-29.45080191629678" lon="115.22363116058577"><ele>134.0</ele><time>2026-04-13T05:01:02Z</time></trkpt><trkpt lat="-29.450637640872824" lon="115.22333506100982"><ele>133.0</ele><time>2026-04-13T05:01:03Z</time></trkpt><trkpt lat="-29.450470307731244" lon="115.22303006620872"><ele>132.0</ele><time>2026-04-13T05:01:04Z</time></trkpt><trkpt lat="-29.450305180480314" lon="115.22272689039897"><ele>132.0</ele><time>2026-04-13T05:01:05Z</time></trkpt><trkpt lat="-29.450137939397912" lon="115.22241691826022"><ele>132.0</ele><time>2026-04-13T05:01:06Z</time></trkpt><trkpt lat="-29.44997243210978" lon="115.22211031510099"><ele>131.5</ele><time>2026-04-13T05:01:07Z</time></trkpt><trkpt lat="-29.449808340043717" lon="115.22180535171255"><ele>131.0</ele><time>2026-04-13T05:01:08Z</time></trkpt><trkpt lat="-29.449641597192734" lon="115.2214999251749"><ele>130.0</ele><time>2026-04-13T05:01:09Z</time></trkpt><trkpt lat="-29.449473454274212" lon="115.22119076200228"><ele>129.0</ele><time>2026-04-13T05:01:10Z</time></trkpt><trkpt lat="-29.449307597264532" lon="115.22088653917834"><ele>129.0</ele><time>2026-04-13T05:01:11Z</time></trkpt><trkpt lat="-29.44914167817509" lon="115.22058676770627"><ele>129.0</ele><time>2026-04-13T05:01:12Z</time></trkpt><trkpt lat="-29.448980789695092" lon="115.22029953557802"><ele>129.0</ele><time>2026-04-13T05:01:13Z</time></trkpt><trkpt lat="-29.44882280008775" lon="115.22001163347306"><ele>129.0</ele><time>2026-04-13T05:01:14Z</time></trkpt><trkpt lat="-29.448663594109995" lon="115.21971427761677"><ele>128.5</ele><time>2026-04-13T05:01:15Z</time></trkpt><trkpt lat="-29.448502263237195" lon="115.21941121975938"><ele>128.0</ele><time>2026-04-13T05:01:16Z</time></trkpt><trkpt lat="-29.448338857581163" lon="115.21910550329696"><ele>128.0</ele><time>2026-04-13T05:01:17Z</time></trkpt><trkpt lat="-29.44817581006937" lon="115.218800991288"><ele>128.0</ele><time>2026-04-13T05:01:18.001Z</time></trkpt><trkpt lat="-29.44801131741905" lon="115.21849716804893"><ele>127.5</ele><time>2026-04-13T05:01:19.001Z</time></trkpt><trkpt lat="-29.447845827030854" lon="115.21819387235736"><ele>127.0</ele><time>2026-04-13T05:01:20.001Z</time></trkpt><trkpt lat="-29.447684594981627" lon="115.21789705788713"><ele>129.5</ele><time>2026-04-13T05:01:21.001Z</time></trkpt><trkpt lat="-29.447525015093944" lon="115.21760616371657"><ele>132.0</ele><time>2026-04-13T05:01:22.001Z</time></trkpt><trkpt lat="-29.447368021691165" lon="115.21732139415795"><ele>132.5</ele><time>2026-04-13T05:01:23.001Z</time></trkpt><trkpt lat="-29.44722324244116" lon="115.21702057837823"><ele>133.0</ele><time>2026-04-13T05:01:24.001Z</time></trkpt><trkpt lat="-29.44706341083084" lon="115.21672511850477"><ele>134.5</ele><time>2026-04-13T05:01:25.001Z</time></trkpt><trkpt lat="-29.446891205959123" lon="115.21643837420001"><ele>136.0</ele><time>2026-04-13T05:01:26.001Z</time></trkpt><trkpt lat="-29.446728727838266" lon="115.21613295369383"><ele>136.0</ele><time>2026-04-13T05:01:27.001Z</time></trkpt><trkpt lat="-29.446564298539453" lon="115.21583243534093"><ele>136.0</ele><time>2026-04-13T05:01:28.001Z</time></trkpt><trkpt lat="-29.446395784864762" lon="115.21552306477865"><ele>134.5</ele><time>2026-04-13T05:01:29.001Z</time></trkpt><trkpt lat="-29.44622604561713" lon="115.21521138728328"><ele>133.0</ele><time>2026-04-13T05:01:30.001Z</time></trkpt><trkpt lat="-29.44605827304863" lon="115.21490126777934"><ele>132.0</ele><time>2026-04-13T05:01:31.001Z</time></trkpt><trkpt lat="-29.445892507533124" lon="115.21459538838599"><ele>131.0</ele><time>2026-04-13T05:01:32.001Z</time></trkpt><trkpt lat="-29.445727649231628" lon="115.21429093185654"><ele>131.0</ele><time>2026-04-13T05:01:33.001Z</time></trkpt><trkpt lat="-29.445563907402455" lon="115.21399134985292"><ele>131.0</ele><time>2026-04-13T05:01:34.001Z</time></trkpt><trkpt lat="-29.44539928538187" lon="115.21369297418119"><ele>129.0</ele><time>2026-04-13T05:01:35.001Z</time></trkpt><trkpt lat="-29.445233161181726" lon="115.21339505971194"><ele>127.0</ele><time>2026-04-13T05:01:36.001Z</time></trkpt><trkpt lat="-29.44506548097749" lon="115.2130927379683"><ele>126.5</ele><time>2026-04-13T05:01:37.001Z</time></trkpt><trkpt lat="-29.444902208220775" lon="115.21278712816847"><ele>126.0</ele><time>2026-04-13T05:01:38.001Z</time></trkpt><trkpt lat="-29.444733708149265" lon="115.21247640205299"><ele>124.5</ele><time>2026-04-13T05:01:39.001Z</time></trkpt><trkpt lat="-29.44456253167349" lon="115.21216250726637"><ele>123.0</ele><time>2026-04-13T05:01:40.001Z</time></trkpt><trkpt lat="-29.444389920520024" lon="115.21184858797817"><ele>123.0</ele><time>2026-04-13T05:01:41.001Z</time></trkpt><trkpt lat="-29.444218500225993" lon="115.2115303494974"><ele>123.0</ele><time>2026-04-13T05:01:42.001Z</time></trkpt><trkpt lat="-29.444045623596786" lon="115.21120959146634"><ele>122.0</ele><time>2026-04-13T05:01:43.001Z</time></trkpt><trkpt lat="-29.443875384742157" lon="115.21089270464753"><ele>121.0</ele><time>2026-04-13T05:01:44.001Z</time></trkpt><trkpt lat="-29.443702121998193" lon="115.21057291829008"><ele>121.0</ele><time>2026-04-13T05:01:45.001Z</time></trkpt><trkpt lat="-29.443528753171762" lon="115.21025394592627"><ele>121.0</ele><time>2026-04-13T05:01:46.001Z</time></trkpt><trkpt lat="-29.443356464476313" lon="115.20993305423347"><ele>118.5</ele><time>2026-04-13T05:01:47.001Z</time></trkpt><trkpt lat="-29.44318632059503" lon="115.20961502393766"><ele>116.0</ele><time>2026-04-13T05:01:48.001Z</time></trkpt><trkpt lat="-29.443014805682964" lon="115.20929911543634"><ele>117.5</ele><time>2026-04-13T05:01:49.001Z</time></trkpt><trkpt lat="-29.44284147280827" lon="115.20898117309497"><ele>119.0</ele><time>2026-04-13T05:01:50.001Z</time></trkpt><trkpt lat="-29.442666221578826" lon="115.2086640276553"><ele>119.0</ele><time>2026-04-13T05:01:51.001Z</time></trkpt><trkpt lat="-29.442490877957443" lon="115.20834286861975"><ele>119.0</ele><time>2026-04-13T05:01:52.001Z</time></trkpt><trkpt lat="-29.442315401625944" lon="115.20802646209397"><ele>118.5</ele><time>2026-04-13T05:01:53.001Z</time></trkpt><trkpt lat="-29.442142082495636" lon="115.20770795755611"><ele>118.0</ele><time>2026-04-13T05:01:54.001Z</time></trkpt><trkpt lat="-29.44196779079235" lon="115.20739149435143"><ele>116.5</ele><time>2026-04-13T05:01:55.001Z</time></trkpt><trkpt lat="-29.441794942190786" lon="115.2070745046625"><ele>115.0</ele><time>2026-04-13T05:01:56.001Z</time></trkpt><trkpt lat="-29.44162311088055" lon="115.20675380700028"><ele>115.0</ele><time>2026-04-13T05:01:57.001Z</time></trkpt><trkpt lat="-29.44144776745141" lon="115.20643175060627"><ele>115.0</ele><time>2026-04-13T05:01:58.001Z</time></trkpt><trkpt lat="-29.44127574396409" lon="115.20611610602424"><ele>115.0</ele><time>2026-04-13T05:01:59.001Z</time></trkpt><trkpt lat="-29.4411037196467" lon="115.20580268818954"><ele>115.0</ele><time>2026-04-13T05:02:00.001Z</time></trkpt><trkpt lat="-29.440933072928562" lon="115.2054887196248"><ele>114.5</ele><time>2026-04-13T05:02:01.001Z</time></trkpt><trkpt lat="-29.440764399584154" lon="115.20517982187111"><ele>114.0</ele><time>2026-04-13T05:02:02.001Z</time></trkpt><trkpt lat="-29.440596989894704" lon="115.20487199797921"><ele>113.0</ele><time>2026-04-13T05:02:03.001Z</time></trkpt><trkpt lat="-29.440433208136824" lon="115.20456896286139"><ele>112.0</ele><time>2026-04-13T05:02:04.001Z</time></trkpt><trkpt lat="-29.440270614776093" lon="115.20426779049934"><ele>112.5</ele><time>2026-04-13T05:02:05.001Z</time></trkpt><trkpt lat="-29.440106810202472" lon="115.20396431329443"><ele>113.0</ele><time>2026-04-13T05:02:06.001Z</time></trkpt><trkpt lat="-29.439946218412754" lon="115.20366499549644"><ele>113.0</ele><time>2026-04-13T05:02:07.001Z</time></trkpt><trkpt lat="-29.439784293112165" lon="115.20336467488674"><ele>113.0</ele><time>2026-04-13T05:02:08.001Z</time></trkpt><trkpt lat="-29.439623942025023" lon="115.20307030022595"><ele>112.5</ele><time>2026-04-13T05:02:09.001Z</time></trkpt><trkpt lat="-29.439461548135466" lon="115.20277463183508"><ele>112.0</ele><time>2026-04-13T05:02:10.001Z</time></trkpt><trkpt lat="-29.439296610394997" lon="115.20247436666882"><ele>111.5</ele><time>2026-04-13T05:02:11.001Z</time></trkpt><trkpt lat="-29.439133208013953" lon="115.20217364366414"><ele>111.0</ele><time>2026-04-13T05:02:12.001Z</time></trkpt><trkpt lat="-29.43897129461444" lon="115.20187293107566"><ele>111.0</ele><time>2026-04-13T05:02:13.001Z</time></trkpt><trkpt lat="-29.43880841365846" lon="115.20157217664124"><ele>111.0</ele><time>2026-04-13T05:02:14.001Z</time></trkpt><trkpt lat="-29.4386468387104" lon="115.20127028681229"><ele>111.0</ele><time>2026-04-13T05:02:15.001Z</time></trkpt><trkpt lat="-29.438485107304945" lon="115.20097046428765"><ele>111.0</ele><time>2026-04-13T05:02:16.001Z</time></trkpt><trkpt lat="-29.438324875802284" lon="115.20067536854759"><ele>111.0</ele><time>2026-04-13T05:02:17.001Z</time></trkpt><trkpt lat="-29.438170168024154" lon="115.20038666319958"><ele>111.0</ele><time>2026-04-13T05:02:18.001Z</time></trkpt><trkpt lat="-29.438019032882245" lon="115.20010679887986"><ele>111.0</ele><time>2026-04-13T05:02:19.001Z</time></trkpt><trkpt lat="-29.437870506747103" lon="115.19983022662363"><ele>111.0</ele><time>2026-04-13T05:02:20.001Z</time></trkpt><trkpt lat="-29.43772506203654" lon="115.19955749714909"><ele>111.0</ele><time>2026-04-13T05:02:21.001Z</time></trkpt><trkpt lat="-29.4375792951754" lon="115.19928658081538"><ele>111.0</ele><time>2026-04-13T05:02:22.001Z</time></trkpt><trkpt lat="-29.437430185993275" lon="115.19901509289933"><ele>110.5</ele><time>2026-04-13T05:02:23.001Z</time></trkpt><trkpt lat="-29.437278902092704" lon="115.1987386353444"><ele>110.0</ele><time>2026-04-13T05:02:24.001Z</time></trkpt><trkpt lat="-29.43713207688862" lon="115.19846634893565"><ele>110.0</ele><time>2026-04-13T05:02:25.001Z</time></trkpt><trkpt lat="-29.43683386476192" lon="115.1979181415027"><ele>110.0</ele><time>2026-04-13T05:02:27.001Z</time></trkpt><trkpt lat="-29.436685870265062" lon="115.197649354502"><ele>110.0</ele><time>2026-04-13T05:02:28.001Z</time></trkpt><trkpt lat="-29.43654357021382" lon="115.19738420558711"><ele>109.0</ele><time>2026-04-13T05:02:29.001Z</time></trkpt><trkpt lat="-29.43640367425187" lon="115.19712219011085"><ele>108.0</ele><time>2026-04-13T05:02:30.001Z</time></trkpt><trkpt lat="-29.436262199214383" lon="115.19686325446554"><ele>107.5</ele><time>2026-04-13T05:02:31.001Z</time></trkpt><trkpt lat="-29.43611883666784" lon="115.19660567895224"><ele>107.0</ele><time>2026-04-13T05:02:32.001Z</time></trkpt><trkpt lat="-29.435975940259762" lon="115.19634801282214"><ele>106.5</ele><time>2026-04-13T05:02:33.001Z</time></trkpt><trkpt lat="-29.435834398416556" lon="115.19608782917688"><ele>106.0</ele><time>2026-04-13T05:02:34.001Z</time></trkpt><trkpt lat="-29.43569570455437" lon="115.19582680793307"><ele>106.5</ele><time>2026-04-13T05:02:35.001Z</time></trkpt><trkpt lat="-29.43555306945178" lon="115.19556170165257"><ele>107.0</ele><time>2026-04-13T05:02:36.001Z</time></trkpt><trkpt lat="-29.43541235159524" lon="115.19530178721665"><ele>107.0</ele><time>2026-04-13T05:02:37.001Z</time></trkpt><trkpt lat="-29.435268889544616" lon="115.19504412864129"><ele>107.0</ele><time>2026-04-13T05:02:38.001Z</time></trkpt><trkpt lat="-29.43512734541591" lon="115.19479196159142"><ele>106.5</ele><time>2026-04-13T05:02:39.001Z</time></trkpt><trkpt lat="-29.434982035376933" lon="115.1945337615047"><ele>106.0</ele><time>2026-04-13T05:02:40.001Z</time></trkpt><trkpt lat="-29.4348424063402" lon="115.19428235510864"><ele>106.0</ele><time>2026-04-13T05:02:41.001Z</time></trkpt><trkpt lat="-29.434707835232484" lon="115.19402828800689"><ele>106.0</ele><time>2026-04-13T05:02:42.001Z</time></trkpt><trkpt lat="-29.43456900285862" lon="115.19377286356924"><ele>106.0</ele><time>2026-04-13T05:02:43.001Z</time></trkpt><trkpt lat="-29.43442982397662" lon="115.1935095906894"><ele>106.0</ele><time>2026-04-13T05:02:44.001Z</time></trkpt><trkpt lat="-29.43428412623214" lon="115.19325365888561"><ele>105.0</ele><time>2026-04-13T05:02:45.001Z</time></trkpt><trkpt lat="-29.434139713697032" lon="115.19298861282543"><ele>104.0</ele><time>2026-04-13T05:02:46.001Z</time></trkpt><trkpt lat="-29.433996060385375" lon="115.19272499307367"><ele>104.0</ele><time>2026-04-13T05:02:47.001Z</time></trkpt><trkpt lat="-29.433850307849088" lon="115.19246041137329"><ele>104.0</ele><time>2026-04-13T05:02:48.001Z</time></trkpt><trkpt lat="-29.43370775084942" lon="115.19219528570706"><ele>104.0</ele><time>2026-04-13T05:02:49.001Z</time></trkpt><trkpt lat="-29.43356383028025" lon="115.19192546837982"><ele>104.0</ele><time>2026-04-13T05:02:50.001Z</time></trkpt><trkpt lat="-29.433422489462373" lon="115.19165864707273"><ele>102.5</ele><time>2026-04-13T05:02:51.001Z</time></trkpt><trkpt lat="-29.433278382536532" lon="115.19139100627436"><ele>101.0</ele><time>2026-04-13T05:02:52.001Z</time></trkpt><trkpt lat="-29.433133433137776" lon="115.19112892361979"><ele>101.0</ele><time>2026-04-13T05:02:53.001Z</time></trkpt><trkpt lat="-29.43298828372979" lon="115.19086537200403"><ele>101.0</ele><time>2026-04-13T05:02:54.001Z</time></trkpt><trkpt lat="-29.432843900629294" lon="115.19059846151369"><ele>102.5</ele><time>2026-04-13T05:02:55.001Z</time></trkpt><trkpt lat="-29.432697289524782" lon="115.19032430125964"><ele>104.0</ele><time>2026-04-13T05:02:56.001Z</time></trkpt><trkpt lat="-29.43255254392499" lon="115.19004993455002"><ele>103.5</ele><time>2026-04-13T05:02:57.001Z</time></trkpt><trkpt lat="-29.432408939985248" lon="115.18978602378291"><ele>103.0</ele><time>2026-04-13T05:02:58.001Z</time></trkpt><trkpt lat="-29.432268148434336" lon="115.18953020205718"><ele>103.0</ele><time>2026-04-13T05:02:59.001Z</time></trkpt><trkpt lat="-29.432130647597873" lon="115.18927591201293"><ele>103.0</ele><time>2026-04-13T05:03:00.001Z</time></trkpt><trkpt lat="-29.431992171776997" lon="115.18901806280593"><ele>103.5</ele><time>2026-04-13T05:03:01.001Z</time></trkpt><trkpt lat="-29.431854275871373" lon="115.18876072815016"><ele>104.0</ele><time>2026-04-13T05:03:02.001Z</time></trkpt><trkpt lat="-29.431716878197538" lon="115.18850218838404"><ele>104.0</ele><time>2026-04-13T05:03:03.001Z</time></trkpt><trkpt lat="-29.431579181639606" lon="115.18824228452344"><ele>104.0</ele><time>2026-04-13T05:03:04.001Z</time></trkpt><trkpt lat="-29.431440285646616" lon="115.18797856913358"><ele>103.5</ele><time>2026-04-13T05:03:05.001Z</time></trkpt><trkpt lat="-29.431297144460338" lon="115.18771480175326"><ele>103.0</ele><time>2026-04-13T05:03:06.001Z</time></trkpt><trkpt lat="-29.431151531470036" lon="115.18744590581923"><ele>103.0</ele><time>2026-04-13T05:03:07.001Z</time></trkpt><trkpt lat="-29.431004979185992" lon="115.18717701270488"><ele>103.0</ele><time>2026-04-13T05:03:08.001Z</time></trkpt><trkpt lat="-29.430856675497196" lon="115.1869062593806"><ele>103.0</ele><time>2026-04-13T05:03:09.001Z</time></trkpt><trkpt lat="-29.430707873727414" lon="115.18663726420748"><ele>103.0</ele><time>2026-04-13T05:03:10.001Z</time></trkpt><trkpt lat="-29.43055855261029" lon="115.18636062520936"><ele>103.0</ele><time>2026-04-13T05:03:11.001Z</time></trkpt><trkpt lat="-29.430407178412853" lon="115.18607822876646"><ele>103.0</ele><time>2026-04-13T05:03:12.001Z</time></trkpt><trkpt lat="-29.430261454491088" lon="115.18580196744992"><ele>102.0</ele><time>2026-04-13T05:03:13.001Z</time></trkpt><trkpt lat="-29.430116297708647" lon="115.18553409597892"><ele>101.0</ele><time>2026-04-13T05:03:14.001Z</time></trkpt><trkpt lat="-29.429971607473465" lon="115.18526743806626"><ele>101.0</ele><time>2026-04-13T05:03:15.001Z</time></trkpt><trkpt lat="-29.429823779664872" lon="115.18499301439675"><ele>101.0</ele><time>2026-04-13T05:03:16.001Z</time></trkpt><trkpt lat="-29.429674973378525" lon="115.18471412184239"><ele>100.5</ele><time>2026-04-13T05:03:17.001Z</time></trkpt><trkpt lat="-29.429527500227554" lon="115.18444056264407"><ele>100.0</ele><time>2026-04-13T05:03:18.001Z</time></trkpt><trkpt lat="-29.4293777976232" lon="115.18416684807235"><ele>98.5</ele><time>2026-04-13T05:03:19.001Z</time></trkpt><trkpt lat="-29.429225612020566" lon="115.18388937051067"><ele>97.0</ele><time>2026-04-13T05:03:20.001Z</time></trkpt><trkpt lat="-29.429072253703243" lon="115.18360794110652"><ele>97.0</ele><time>2026-04-13T05:03:21.001Z</time></trkpt><trkpt lat="-29.428920807004058" lon="115.18332605366805"><ele>97.0</ele><time>2026-04-13T05:03:22.001Z</time></trkpt><trkpt lat="-29.428769092952848" lon="115.18304785256238"><ele>97.5</ele><time>2026-04-13T05:03:23.001Z</time></trkpt><trkpt lat="-29.428620016467896" lon="115.18277476781647"><ele>98.0</ele><time>2026-04-13T05:03:24.001Z</time></trkpt><trkpt lat="-29.428470212695206" lon="115.18250063033919"><ele>97.5</ele><time>2026-04-13T05:03:25.001Z</time></trkpt><trkpt lat="-29.428322391021744" lon="115.18222528680035"><ele>97.0</ele><time>2026-04-13T05:03:26.001Z</time></trkpt><trkpt lat="-29.428178110962936" lon="115.18195383709529"><ele>97.0</ele><time>2026-04-13T05:03:27.001Z</time></trkpt><trkpt lat="-29.428038791125946" lon="115.1816867392798"><ele>97.0</ele><time>2026-04-13T05:03:28.001Z</time></trkpt><trkpt lat="-29.427892750548153" lon="115.18141756474714"><ele>96.5</ele><time>2026-04-13T05:03:29.001Z</time></trkpt><trkpt lat="-29.42774818534226" lon="115.18115101115657"><ele>96.0</ele><time>2026-04-13T05:03:30.001Z</time></trkpt><trkpt lat="-29.42760223697887" lon="115.18087994720341"><ele>95.5</ele><time>2026-04-13T05:03:31.001Z</time></trkpt><trkpt lat="-29.427457387209344" lon="115.18060817862766"><ele>95.0</ele><time>2026-04-13T05:03:32.001Z</time></trkpt><trkpt lat="-29.427312502620826" lon="115.180336459402"><ele>95.0</ele><time>2026-04-13T05:03:33.001Z</time></trkpt><trkpt lat="-29.427167789002205" lon="115.18006544204053"><ele>95.0</ele><time>2026-04-13T05:03:34.001Z</time></trkpt><trkpt lat="-29.427025626254164" lon="115.17979647407897"><ele>95.0</ele><time>2026-04-13T05:03:35.001Z</time></trkpt><trkpt lat="-29.426879788567213" lon="115.17952338736856"><ele>95.0</ele><time>2026-04-13T05:03:36.001Z</time></trkpt><trkpt lat="-29.42673551699537" lon="115.17925599653785"><ele>93.5</ele><time>2026-04-13T05:03:37.001Z</time></trkpt><trkpt lat="-29.426586296574243" lon="115.17899038147809"><ele>92.0</ele><time>2026-04-13T05:03:38.001Z</time></trkpt><trkpt lat="-29.426435124854432" lon="115.17872361747139"><ele>92.5</ele><time>2026-04-13T05:03:39.001Z</time></trkpt><trkpt lat="-29.426282050483465" lon="115.17845592259948"><ele>93.0</ele><time>2026-04-13T05:03:40.001Z</time></trkpt><trkpt lat="-29.42613183859763" lon="115.17818521426535"><ele>91.5</ele><time>2026-04-13T05:03:41.001Z</time></trkpt><trkpt lat="-29.42598640244766" lon="115.17791044268441"><ele>90.0</ele><time>2026-04-13T05:03:42.001Z</time></trkpt><trkpt lat="-29.42584061612841" lon="115.1776345695447"><ele>90.0</ele><time>2026-04-13T05:03:43.001Z</time></trkpt><trkpt lat="-29.42569491763596" lon="115.17735960127519"><ele>90.0</ele><time>2026-04-13T05:03:44.001Z</time></trkpt><trkpt lat="-29.425549596495" lon="115.17708694931872"><ele>90.0</ele><time>2026-04-13T05:03:45.001Z</time></trkpt><trkpt lat="-29.4254021859823" lon="115.17681252076609"><ele>90.0</ele><time>2026-04-13T05:03:46.001Z</time></trkpt><trkpt lat="-29.42525564688293" lon="115.17654394908314"><ele>89.5</ele><time>2026-04-13T05:03:47.001Z</time></trkpt><trkpt lat="-29.42511668967349" lon="115.17628788767573"><ele>89.0</ele><time>2026-04-13T05:03:48.001Z</time></trkpt><trkpt lat="-29.42498734310678" lon="115.1760510482425"><ele>89.0</ele><time>2026-04-13T05:03:49.001Z</time></trkpt><trkpt lat="-29.424863611316013" lon="115.17582237952438"><ele>89.0</ele><time>2026-04-13T05:03:50.001Z</time></trkpt><trkpt lat="-29.42473476619799" lon="115.17558583485167"><ele>89.0</ele><time>2026-04-13T05:03:51.001Z</time></trkpt><trkpt lat="-29.424600046280503" lon="115.17534206628875"><ele>89.0</ele><time>2026-04-13T05:03:52.001Z</time></trkpt><trkpt lat="-29.424468905860703" lon="115.17510174137682"><ele>89.0</ele><time>2026-04-13T05:03:53.001Z</time></trkpt><trkpt lat="-29.42434051927476" lon="115.17486905470405"><ele>89.0</ele><time>2026-04-13T05:03:54.001Z</time></trkpt><trkpt lat="-29.424214993934463" lon="115.17464212955477"><ele>88.33333333333334</ele><time>2026-04-13T05:03:55.001Z</time></trkpt><trkpt lat="-29.424096610700133" lon="115.17442313410525"><ele>87.66666666666667</ele><time>2026-04-13T05:03:56.001Z</time></trkpt><trkpt lat="-29.423986273357098" lon="115.1742109485719"><ele>87.0</ele><time>2026-04-13T05:03:57.001Z</time></trkpt><trkpt lat="-29.423868427634403" lon="115.17400184429448"><ele>86.33333333333333</ele><time>2026-04-13T05:03:58.001Z</time></trkpt><trkpt lat="-29.423742220252922" lon="115.17380382602254"><ele>85.66666666666666</ele><time>2026-04-13T05:03:59.001Z</time></trkpt><trkpt lat="-29.42360750435854" lon="115.17361070282814"><ele>85.0</ele><time>2026-04-13T05:04:00.001Z</time></trkpt><trkpt lat="-29.423465165437545" lon="115.1734199633686"><ele>85.0</ele><time>2026-04-13T05:04:01.001Z</time></trkpt><trkpt lat="-29.42331658062545" lon="115.1732370456029"><ele>85.0</ele><time>2026-04-13T05:04:02.001Z</time></trkpt><trkpt lat="-29.423163790370047" lon="115.17306762423131"><ele>85.0</ele><time>2026-04-13T05:04:03.001Z</time></trkpt><trkpt lat="-29.42299951288604" lon="115.17291007225082"><ele>85.0</ele><time>2026-04-13T05:04:04.001Z</time></trkpt><trkpt lat="-29.422822685594454" lon="115.17275962181336"><ele>85.0</ele><time>2026-04-13T05:04:05.001Z</time></trkpt><trkpt lat="-29.42263160334627" lon="115.17261160233933"><ele>85.0</ele><time>2026-04-13T05:04:06.001Z</time></trkpt><trkpt lat="-29.422433898298095" lon="115.17246514820397"><ele>85.0</ele><time>2026-04-13T05:04:07.001Z</time></trkpt><trkpt lat="-29.422238825270714" lon="115.17232875197588"><ele>85.66666666666666</ele><time>2026-04-13T05:04:08.001Z</time></trkpt><trkpt lat="-29.422048244470126" lon="115.17220590782196"><ele>86.33333333333333</ele><time>2026-04-13T05:04:09.001Z</time></trkpt><trkpt lat="-29.42185749780169" lon="115.17209732986596"><ele>87.0</ele><time>2026-04-13T05:04:10.001Z</time></trkpt><trkpt lat="-29.421658358869543" lon="115.17199469295417"><ele>87.0</ele><time>2026-04-13T05:04:11.001Z</time></trkpt><trkpt lat="-29.4214540292431" lon="115.17190083119571"><ele>87.0</ele><time>2026-04-13T05:04:12.001Z</time></trkpt><trkpt lat="-29.421240682815014" lon="115.17181743937513"><ele>87.0</ele><time>2026-04-13T05:04:13.001Z</time></trkpt><trkpt lat="-29.42102132415633" lon="115.17174482944425"><ele>87.33333333333333</ele><time>2026-04-13T05:04:14.001Z</time></trkpt><trkpt lat="-29.42081262797245" lon="115.17168967567838"><ele>87.66666666666666</ele><time>2026-04-13T05:04:15.001Z</time></trkpt><trkpt lat="-29.420619923296623" lon="115.17164675462966"><ele>88.0</ele><time>2026-04-13T05:04:16.001Z</time></trkpt><trkpt lat="-29.420429333203323" lon="115.17161390495481"><ele>88.66666666666666</ele><time>2026-04-13T05:04:17.001Z</time></trkpt><trkpt lat="-29.420228302397803" lon="115.17158907387527"><ele>89.33333333333333</ele><time>2026-04-13T05:04:18.001Z</time></trkpt><trkpt lat="-29.42001995412235" lon="115.17157417526141"><ele>90.0</ele><time>2026-04-13T05:04:19.001Z</time></trkpt><trkpt lat="-29.419808610493018" lon="115.17157005967424"><ele>89.66666666666667</ele><time>2026-04-13T05:04:20.001Z</time></trkpt><trkpt lat="-29.419592616237423" lon="115.17157138707583"><ele>89.33333333333334</ele><time>2026-04-13T05:04:21.001Z</time></trkpt><trkpt lat="-29.419364158050477" lon="115.17156996192625"><ele>89.0</ele><time>2026-04-13T05:04:22.001Z</time></trkpt><trkpt lat="-29.419129021241563" lon="115.17156658731936"><ele>89.0</ele><time>2026-04-13T05:04:23.001Z</time></trkpt><trkpt lat="-29.41888385582901" lon="115.17156350518819"><ele>89.0</ele><time>2026-04-13T05:04:24.001Z</time></trkpt><trkpt lat="-29.418634606591198" lon="115.1715630299833"><ele>89.5</ele><time>2026-04-13T05:04:25.001Z</time></trkpt><trkpt lat="-29.418394194626696" lon="115.17156864670486"><ele>90.0</ele><time>2026-04-13T05:04:26.001Z</time></trkpt><trkpt lat="-29.418142668692973" lon="115.17157067363983"><ele>89.5</ele><time>2026-04-13T05:04:27.001Z</time></trkpt><trkpt lat="-29.41789538724601" lon="115.17157169801732"><ele>89.0</ele><time>2026-04-13T05:04:28.001Z</time></trkpt><trkpt lat="-29.417642308789567" lon="115.17156846245474"><ele>89.0</ele><time>2026-04-13T05:04:29.001Z</time></trkpt><trkpt lat="-29.417393908399546" lon="115.17156847415028"><ele>89.0</ele><time>2026-04-13T05:04:30.001Z</time></trkpt><trkpt lat="-29.417141988698813" lon="115.17157279928905"><ele>89.5</ele><time>2026-04-13T05:04:31.001Z</time></trkpt><trkpt lat="-29.416892778746735" lon="115.17157740517929"><ele>90.0</ele><time>2026-04-13T05:04:32.001Z</time></trkpt><trkpt lat="-29.416647435898284" lon="115.17157627684594"><ele>90.0</ele><time>2026-04-13T05:04:33.001Z</time></trkpt><trkpt lat="-29.416412922504268" lon="115.17157246935331"><ele>90.0</ele><time>2026-04-13T05:04:34.001Z</time></trkpt><trkpt lat="-29.416174834862318" lon="115.17156955762292"><ele>90.0</ele><time>2026-04-13T05:04:35.001Z</time></trkpt><trkpt lat="-29.415926362812545" lon="115.17156643057095"><ele>90.0</ele><time>2026-04-13T05:04:36.001Z</time></trkpt><trkpt lat="-29.415676022413322" lon="115.17156542303948"><ele>89.0</ele><time>2026-04-13T05:04:37.001Z</time></trkpt><trkpt lat="-29.415421194717577" lon="115.17156473844787"><ele>88.0</ele><time>2026-04-13T05:04:38.001Z</time></trkpt><trkpt lat="-29.41516778633419" lon="115.17156284280236"><ele>88.0</ele><time>2026-04-13T05:04:39.001Z</time></trkpt><trkpt lat="-29.41491471370115" lon="115.17155953383698"><ele>88.0</ele><time>2026-04-13T05:04:40.001Z</time></trkpt><trkpt lat="-29.414667758862283" lon="115.17156210839786"><ele>89.0</ele><time>2026-04-13T05:04:41.001Z</time></trkpt><trkpt lat="-29.414416074342384" lon="115.17156726374597"><ele>90.0</ele><time>2026-04-13T05:04:42.001Z</time></trkpt><trkpt lat="-29.41416343185398" lon="115.17156973309534"><ele>90.0</ele><time>2026-04-13T05:04:43.001Z</time></trkpt><trkpt lat="-29.413911334762105" lon="115.17156869750919"><ele>90.0</ele><time>2026-04-13T05:04:44.001Z</time></trkpt><trkpt lat="-29.413660438077542" lon="115.17156565146232"><ele>90.0</ele><time>2026-04-13T05:04:45.001Z</time></trkpt><trkpt lat="-29.413415670552794" lon="115.17156416053663"><ele>90.0</ele><time>2026-04-13T05:04:46.001Z</time></trkpt><trkpt lat="-29.413163677852808" lon="115.1715669375176"><ele>89.5</ele><time>2026-04-13T05:04:47.001Z</time></trkpt><trkpt lat="-29.412915323905935" lon="115.17157212245651"><ele>89.0</ele><time>2026-04-13T05:04:48.001Z</time></trkpt><trkpt lat="-29.412668662642563" lon="115.17157431072829"><ele>89.0</ele><time>2026-04-13T05:04:49.001Z</time></trkpt><trkpt lat="-29.412421736347518" lon="115.17157463154376"><ele>89.0</ele><time>2026-04-13T05:04:50.001Z</time></trkpt><trkpt lat="-29.41217219772368" lon="115.17157202961485"><ele>89.5</ele><time>2026-04-13T05:04:51.001Z</time></trkpt><trkpt lat="-29.41192127549455" lon="115.17157054471241"><ele>90.0</ele><time>2026-04-13T05:04:52.001Z</time></trkpt><trkpt lat="-29.41166545081852" lon="115.17157053152901"><ele>90.0</ele><time>2026-04-13T05:04:53.001Z</time></trkpt><trkpt lat="-29.41140581389837" lon="115.17157127517311"><ele>90.0</ele><time>2026-04-13T05:04:54.001Z</time></trkpt><trkpt lat="-29.41114383070381" lon="115.17157076514168"><ele>91.0</ele><time>2026-04-13T05:04:55.001Z</time></trkpt><trkpt lat="-29.410879519221822" lon="115.1715707199252"><ele>92.0</ele><time>2026-04-13T05:04:56.001Z</time></trkpt><trkpt lat="-29.410617413528136" lon="115.17157316764737"><ele>91.5</ele><time>2026-04-13T05:04:57.001Z</time></trkpt><trkpt lat="-29.410358463176397" lon="115.17157862035255"><ele>91.0</ele><time>2026-04-13T05:04:58.001Z</time></trkpt><trkpt lat="-29.410091788312965" lon="115.17158104391487"><ele>91.0</ele><time>2026-04-13T05:04:59.001Z</time></trkpt><trkpt lat="-29.409826295540253" lon="115.17157990524865"><ele>91.0</ele><time>2026-04-13T05:05:00.001Z</time></trkpt><trkpt lat="-29.409583136274453" lon="115.17158006226897"><ele>91.33333333333333</ele><time>2026-04-13T05:05:01.001Z</time></trkpt><trkpt lat="-29.40935408577459" lon="115.17158189680335"><ele>91.66666666666667</ele><time>2026-04-13T05:05:02.001Z</time></trkpt><trkpt lat="-29.40914182991765" lon="115.17158461515301"><ele>92.0</ele><time>2026-04-13T05:05:03.001Z</time></trkpt><trkpt lat="-29.408939337979927" lon="115.1715911801214"><ele>91.66666666666667</ele><time>2026-04-13T05:05:04.001Z</time></trkpt><trkpt lat="-29.408746305367753" lon="115.17159480492023"><ele>91.33333333333333</ele><time>2026-04-13T05:05:05.001Z</time></trkpt><trkpt lat="-29.408552194324056" lon="115.17159395393347"><ele>91.0</ele><time>2026-04-13T05:05:06.001Z</time></trkpt><trkpt lat="-29.408357376381957" lon="115.1715955722409"><ele>91.0</ele><time>2026-04-13T05:05:07.001Z</time></trkpt><trkpt lat="-29.40817513050009" lon="115.17157803829066"><ele>91.0</ele><time>2026-04-13T05:05:08.001Z</time></trkpt><trkpt lat="-29.408011618880725" lon="115.1715758739066"><ele>91.0</ele><time>2026-04-13T05:05:09.001Z</time></trkpt><trkpt lat="-29.407868852149647" lon="115.17157368694927"><ele>91.0</ele><time>2026-04-13T05:05:10.001Z</time></trkpt><trkpt lat="-29.407742993740563" lon="115.17157175900167"><ele>91.0</ele><time>2026-04-13T05:05:11.001Z</time></trkpt><trkpt lat="-29.40763815528082" lon="115.17157015304238"><ele>91.0</ele><time>2026-04-13T05:05:12.001Z</time></trkpt><trkpt lat="-29.407541103956323" lon="115.17156983598738"><ele>91.0</ele><time>2026-04-13T05:05:13.001Z</time></trkpt><trkpt lat="-29.407450384207486" lon="115.17154821326623"><ele>91.0</ele><time>2026-04-13T05:05:14.001Z</time></trkpt><trkpt lat="-29.40738654309004" lon="115.17154723532052"><ele>90.66666666666666</ele><time>2026-04-13T05:05:15.001Z</time></trkpt><trkpt lat="-29.407379590102508" lon="115.17127036247862"><ele>90.33333333333333</ele><time>2026-04-13T05:05:16.001Z</time></trkpt><trkpt lat="-29.40737959010148" lon="115.1711061509215"><ele>90.0</ele><time>2026-04-13T05:05:17.001Z</time></trkpt><trkpt lat="-29.407379020282516" lon="115.17090237026545"><ele>90.33333333333333</ele><time>2026-04-13T05:05:18.001Z</time></trkpt><trkpt lat="-29.40737794585809" lon="115.17066992079964"><ele>90.66666666666666</ele><time>2026-04-13T05:05:19.001Z</time></trkpt><trkpt lat="-29.407377748516435" lon="115.17042809095447"><ele>91.0</ele><time>2026-04-13T05:05:20.001Z</time></trkpt><trkpt lat="-29.407382447251848" lon="115.1701639047371"><ele>91.0</ele><time>2026-04-13T05:05:21.001Z</time></trkpt><trkpt lat="-29.407394066593103" lon="115.16988134937594"><ele>91.0</ele><time>2026-04-13T05:05:22.001Z</time></trkpt><trkpt lat="-29.407401493148196" lon="115.16959511512056"><ele>90.0</ele><time>2026-04-13T05:05:23.001Z</time></trkpt><trkpt lat="-29.407394379880277" lon="115.1692871322101"><ele>89.0</ele><time>2026-04-13T05:05:24.001Z</time></trkpt><trkpt lat="-29.407377113702577" lon="115.168969477248"><ele>88.5</ele><time>2026-04-13T05:05:25.001Z</time></trkpt><trkpt lat="-29.40735928928199" lon="115.1686423847776"><ele>88.0</ele><time>2026-04-13T05:05:26.001Z</time></trkpt><trkpt lat="-29.40734687753875" lon="115.16832103576996"><ele>88.0</ele><time>2026-04-13T05:05:27.001Z</time></trkpt><trkpt lat="-29.40733690859675" lon="115.16800261991081"><ele>88.0</ele><time>2026-04-13T05:05:28.001Z</time></trkpt><trkpt lat="-29.40732773446214" lon="115.16767449406278"><ele>88.0</ele><time>2026-04-13T05:05:29.001Z</time></trkpt><trkpt lat="-29.407318881921725" lon="115.16734829156626"><ele>88.0</ele><time>2026-04-13T05:05:30.001Z</time></trkpt><trkpt lat="-29.40731086870002" lon="115.16703365270719"><ele>88.0</ele><time>2026-04-13T05:05:31.001Z</time></trkpt><trkpt lat="-29.407303061615654" lon="115.16672710782304"><ele>88.0</ele><time>2026-04-13T05:05:32.001Z</time></trkpt><trkpt lat="-29.407295960866335" lon="115.16642590377492"><ele>86.5</ele><time>2026-04-13T05:05:33.001Z</time></trkpt><trkpt lat="-29.407289876109303" lon="115.16611227796353"><ele>85.0</ele><time>2026-04-13T05:05:34.001Z</time></trkpt><trkpt lat="-29.407278001651473" lon="115.1655002343657"><ele>85.0</ele><time>2026-04-13T05:05:36.001Z</time></trkpt><trkpt lat="-29.407272482693344" lon="115.1652009240666"><ele>85.0</ele><time>2026-04-13T05:05:37.001Z</time></trkpt><trkpt lat="-29.407267013360574" lon="115.16490014969884"><ele>84.0</ele><time>2026-04-13T05:05:38.001Z</time></trkpt><trkpt lat="-29.40726191179455" lon="115.16460153907708"><ele>83.0</ele><time>2026-04-13T05:05:39.001Z</time></trkpt><trkpt lat="-29.407258090128035" lon="115.16430068224399"><ele>82.5</ele><time>2026-04-13T05:05:40.001Z</time></trkpt><trkpt lat="-29.407255688232503" lon="115.16399576735233"><ele>82.0</ele><time>2026-04-13T05:05:41.001Z</time></trkpt><trkpt lat="-29.407252773427963" lon="115.16369756786928"><ele>82.0</ele><time>2026-04-13T05:05:42.001Z</time></trkpt><trkpt lat="-29.407249199249815" lon="115.16339833726485"><ele>82.0</ele><time>2026-04-13T05:05:43.001Z</time></trkpt><trkpt lat="-29.407245406872807" lon="115.16309959109108"><ele>82.5</ele><time>2026-04-13T05:05:44.001Z</time></trkpt><trkpt lat="-29.40723987296909" lon="115.16280068500294"><ele>83.0</ele><time>2026-04-13T05:05:45.001Z</time></trkpt><trkpt lat="-29.407233436088553" lon="115.16250352684449"><ele>82.5</ele><time>2026-04-13T05:05:46.001Z</time></trkpt><trkpt lat="-29.40722616289052" lon="115.16220821223958"><ele>82.0</ele><time>2026-04-13T05:05:47.001Z</time></trkpt><trkpt lat="-29.407218932061607" lon="115.16191461798124"><ele>82.0</ele><time>2026-04-13T05:05:48.001Z</time></trkpt><trkpt lat="-29.40721162038988" lon="115.16161774127335"><ele>82.0</ele><time>2026-04-13T05:05:49.001Z</time></trkpt><trkpt lat="-29.407205905534887" lon="115.16131120683524"><ele>81.5</ele><time>2026-04-13T05:05:50.001Z</time></trkpt><trkpt lat="-29.407187332012708" lon="115.16100108423106"><ele>81.0</ele><time>2026-04-13T05:05:51.001Z</time></trkpt><trkpt lat="-29.40718038791023" lon="115.16068219634583"><ele>81.0</ele><time>2026-04-13T05:05:52.001Z</time></trkpt><trkpt lat="-29.407189329659097" lon="115.16036147450235"><ele>81.0</ele><time>2026-04-13T05:05:53.001Z</time></trkpt><trkpt lat="-29.407183736529117" lon="115.16003956617902"><ele>80.0</ele><time>2026-04-13T05:05:54.001Z</time></trkpt><trkpt lat="-29.40717796398576" lon="115.15971744608956"><ele>79.0</ele><time>2026-04-13T05:05:55.001Z</time></trkpt><trkpt lat="-29.407171669175128" lon="115.15939533160184"><ele>79.0</ele><time>2026-04-13T05:05:56.001Z</time></trkpt><trkpt lat="-29.40716493102296" lon="115.15907144530792"><ele>79.0</ele><time>2026-04-13T05:05:57.001Z</time></trkpt><trkpt lat="-29.407157294949343" lon="115.15874418590275"><ele>78.0</ele><time>2026-04-13T05:05:58.001Z</time></trkpt><trkpt lat="-29.40714090607452" lon="115.15841977275427"><ele>77.0</ele><time>2026-04-13T05:05:59.001Z</time></trkpt><trkpt lat="-29.40715639014846" lon="115.15809365029395"><ele>76.5</ele><time>2026-04-13T05:06:00.001Z</time></trkpt><trkpt lat="-29.407125192547607" lon="115.15776504724478"><ele>76.0</ele><time>2026-04-13T05:06:01.001Z</time></trkpt><trkpt lat="-29.40711950172084" lon="115.15743481401665"><ele>75.5</ele><time>2026-04-13T05:06:02.001Z</time></trkpt><trkpt lat="-29.407113375385524" lon="115.1571077640397"><ele>75.0</ele><time>2026-04-13T05:06:03.001Z</time></trkpt><trkpt lat="-29.407107971690117" lon="115.15677564156194"><ele>74.0</ele><time>2026-04-13T05:06:04.001Z</time></trkpt><trkpt lat="-29.407103693463803" lon="115.15643829787629"><ele>73.0</ele><time>2026-04-13T05:06:05.001Z</time></trkpt><trkpt lat="-29.407097881609936" lon="115.15610362625442"><ele>73.0</ele><time>2026-04-13T05:06:06.001Z</time></trkpt><trkpt lat="-29.40709007457137" lon="115.15576478357268"><ele>73.0</ele><time>2026-04-13T05:06:07.001Z</time></trkpt><trkpt lat="-29.40708467357904" lon="115.15542535758183"><ele>72.5</ele><time>2026-04-13T05:06:08.001Z</time></trkpt><trkpt lat="-29.407079148249927" lon="115.15508221838626"><ele>72.0</ele><time>2026-04-13T05:06:09.001Z</time></trkpt><trkpt lat="-29.407075575504837" lon="115.15475104057973"><ele>70.5</ele><time>2026-04-13T05:06:10.001Z</time></trkpt><trkpt lat="-29.407071791336257" lon="115.15442542360755"><ele>69.0</ele><time>2026-04-13T05:06:11.001Z</time></trkpt><trkpt lat="-29.40706601995057" lon="115.15410884222271"><ele>70.0</ele><time>2026-04-13T05:06:12.001Z</time></trkpt><trkpt lat="-29.407061359222766" lon="115.15379472976095"><ele>71.0</ele><time>2026-04-13T05:06:13.001Z</time></trkpt><trkpt lat="-29.407057678338937" lon="115.1534740218073"><ele>70.5</ele><time>2026-04-13T05:06:14.001Z</time></trkpt><trkpt lat="-29.40705293585019" lon="115.15316014666915"><ele>70.0</ele><time>2026-04-13T05:06:15.001Z</time></trkpt><trkpt lat="-29.4070469688098" lon="115.15284779388391"><ele>70.0</ele><time>2026-04-13T05:06:16.001Z</time></trkpt><trkpt lat="-29.40704219730021" lon="115.15253657509247"><ele>70.0</ele><time>2026-04-13T05:06:17.001Z</time></trkpt><trkpt lat="-29.407038092948905" lon="115.15223084316429"><ele>70.0</ele><time>2026-04-13T05:06:18.001Z</time></trkpt><trkpt lat="-29.407033328052975" lon="115.15192833683153"><ele>70.0</ele><time>2026-04-13T05:06:19.001Z</time></trkpt><trkpt lat="-29.407026923278675" lon="115.15162114282218"><ele>69.0</ele><time>2026-04-13T05:06:20.001Z</time></trkpt><trkpt lat="-29.40702092589133" lon="115.15130952286495"><ele>68.0</ele><time>2026-04-13T05:06:21.001Z</time></trkpt><trkpt lat="-29.40701359107875" lon="115.15099513302543"><ele>66.5</ele><time>2026-04-13T05:06:22.001Z</time></trkpt><trkpt lat="-29.407005922400664" lon="115.15067651648859"><ele>65.0</ele><time>2026-04-13T05:06:23.001Z</time></trkpt><trkpt lat="-29.40700021539368" lon="115.15035605619653"><ele>65.0</ele><time>2026-04-13T05:06:24.001Z</time></trkpt><trkpt lat="-29.40699571850211" lon="115.15003973685141"><ele>65.0</ele><time>2026-04-13T05:06:25.001Z</time></trkpt><trkpt lat="-29.40699011138689" lon="115.14972638697758"><ele>64.5</ele><time>2026-04-13T05:06:26.001Z</time></trkpt><trkpt lat="-29.40698454645906" lon="115.1494122649469"><ele>64.0</ele><time>2026-04-13T05:06:27.001Z</time></trkpt><trkpt lat="-29.40697905172721" lon="115.14909947854159"><ele>63.0</ele><time>2026-04-13T05:06:28.001Z</time></trkpt><trkpt lat="-29.40697261854817" lon="115.14878916191658"><ele>62.0</ele><time>2026-04-13T05:06:29.001Z</time></trkpt><trkpt lat="-29.40696718769406" lon="115.14848165217911"><ele>62.5</ele><time>2026-04-13T05:06:30.001Z</time></trkpt><trkpt lat="-29.406963362689392" lon="115.14817034062489"><ele>63.0</ele><time>2026-04-13T05:06:31.001Z</time></trkpt><trkpt lat="-29.406959241902047" lon="115.14786324002067"><ele>63.0</ele><time>2026-04-13T05:06:32.001Z</time></trkpt><trkpt lat="-29.406953469354228" lon="115.14755924955202"><ele>63.0</ele><time>2026-04-13T05:06:33.001Z</time></trkpt><trkpt lat="-29.406945895752962" lon="115.1472519960693"><ele>62.0</ele><time>2026-04-13T05:06:34.001Z</time></trkpt><trkpt lat="-29.406938854380464" lon="115.14694718256965"><ele>61.0</ele><time>2026-04-13T05:06:35.001Z</time></trkpt><trkpt lat="-29.406932965682152" lon="115.14663942863781"><ele>61.5</ele><time>2026-04-13T05:06:36.001Z</time></trkpt><trkpt lat="-29.406926114266387" lon="115.14632542396782"><ele>62.0</ele><time>2026-04-13T05:06:37.001Z</time></trkpt><trkpt lat="-29.406919048523562" lon="115.14601483182388"><ele>60.5</ele><time>2026-04-13T05:06:38.001Z</time></trkpt><trkpt lat="-29.40691350780419" lon="115.14569966593352"><ele>59.0</ele><time>2026-04-13T05:06:39.001Z</time></trkpt><trkpt lat="-29.406908757320117" lon="115.1453884358357"><ele>59.0</ele><time>2026-04-13T05:06:40.001Z</time></trkpt><trkpt lat="-29.40690155152272" lon="115.14508211305822"><ele>59.0</ele><time>2026-04-13T05:06:41.001Z</time></trkpt><trkpt lat="-29.406894654279192" lon="115.1447733585636"><ele>59.5</ele><time>2026-04-13T05:06:42.001Z</time></trkpt><trkpt lat="-29.406887564580163" lon="115.14446615847378"><ele>60.0</ele><time>2026-04-13T05:06:43.001Z</time></trkpt><trkpt lat="-29.40688274274654" lon="115.14415957914579"><ele>59.0</ele><time>2026-04-13T05:06:44.001Z</time></trkpt><trkpt lat="-29.406877986227027" lon="115.14385852928203"><ele>58.0</ele><time>2026-04-13T05:06:45.001Z</time></trkpt><trkpt lat="-29.406875345955555" lon="115.14355507041618"><ele>58.0</ele><time>2026-04-13T05:06:46.001Z</time></trkpt><trkpt lat="-29.406870576010704" lon="115.1432536774708"><ele>58.0</ele><time>2026-04-13T05:06:47.001Z</time></trkpt><trkpt lat="-29.406864648315896" lon="115.14294287428359"><ele>57.0</ele><time>2026-04-13T05:06:48.001Z</time></trkpt><trkpt lat="-29.406859783450585" lon="115.1426256636102"><ele>56.0</ele><time>2026-04-13T05:06:49.001Z</time></trkpt><trkpt lat="-29.40685407920371" lon="115.14230304869517"><ele>55.5</ele><time>2026-04-13T05:06:50.001Z</time></trkpt><trkpt lat="-29.406848390516387" lon="115.14197748876133"><ele>55.0</ele><time>2026-04-13T05:06:51.001Z</time></trkpt><trkpt lat="-29.406842755913274" lon="115.14165333176896"><ele>54.5</ele><time>2026-04-13T05:06:52.001Z</time></trkpt><trkpt lat="-29.406835768534513" lon="115.1413290618655"><ele>54.0</ele><time>2026-04-13T05:06:53.001Z</time></trkpt><trkpt lat="-29.406828194773116" lon="115.14100864124929"><ele>54.0</ele><time>2026-04-13T05:06:54.001Z</time></trkpt><trkpt lat="-29.40682296163862" lon="115.14068308887428"><ele>54.0</ele><time>2026-04-13T05:06:55.001Z</time></trkpt><trkpt lat="-29.406821284547316" lon="115.14035450819215"><ele>54.0</ele><time>2026-04-13T05:06:56.001Z</time></trkpt><trkpt lat="-29.406818881035175" lon="115.14002882067106"><ele>54.0</ele><time>2026-04-13T05:06:57.001Z</time></trkpt><trkpt lat="-29.406816789499562" lon="115.13970432053463"><ele>53.0</ele><time>2026-04-13T05:06:58.001Z</time></trkpt><trkpt lat="-29.406810199658928" lon="115.1393816565528"><ele>52.0</ele><time>2026-04-13T05:06:59.001Z</time></trkpt><trkpt lat="-29.40680168809718" lon="115.13905590757498"><ele>51.0</ele><time>2026-04-13T05:07:00.001Z</time></trkpt><trkpt lat="-29.40679347088329" lon="115.13872365214935"><ele>50.0</ele><time>2026-04-13T05:07:01.001Z</time></trkpt><trkpt lat="-29.40678682248046" lon="115.1383942751266"><ele>49.5</ele><time>2026-04-13T05:07:02.001Z</time></trkpt><trkpt lat="-29.406781373756697" lon="115.13806084136948"><ele>49.0</ele><time>2026-04-13T05:07:03.001Z</time></trkpt><trkpt lat="-29.406774248782472" lon="115.13772915177186"><ele>49.0</ele><time>2026-04-13T05:07:04.001Z</time></trkpt><trkpt lat="-29.406766651253704" lon="115.13739054584758"><ele>49.0</ele><time>2026-04-13T05:07:05.001Z</time></trkpt><trkpt lat="-29.40677749454607" lon="115.13705270964861"><ele>49.0</ele><time>2026-04-13T05:07:06.001Z</time></trkpt><trkpt lat="-29.40675702790406" lon="115.13671602813547"><ele>49.0</ele><time>2026-04-13T05:07:07.001Z</time></trkpt><trkpt lat="-29.406752799051926" lon="115.13638422302361"><ele>49.0</ele><time>2026-04-13T05:07:08.001Z</time></trkpt><trkpt lat="-29.40674565471895" lon="115.13604976916123"><ele>49.0</ele><time>2026-04-13T05:07:09.001Z</time></trkpt><trkpt lat="-29.40673781751395" lon="115.13571797825271"><ele>49.0</ele><time>2026-04-13T05:07:10.001Z</time></trkpt><trkpt lat="-29.406732143768604" lon="115.13538553130556"><ele>49.0</ele><time>2026-04-13T05:07:11.001Z</time></trkpt><trkpt lat="-29.40672631315594" lon="115.13505862587985"><ele>48.5</ele><time>2026-04-13T05:07:12.001Z</time></trkpt><trkpt lat="-29.40672058258485" lon="115.13474106414617"><ele>48.0</ele><time>2026-04-13T05:07:13.001Z</time></trkpt><trkpt lat="-29.406727517213668" lon="115.13443162837005"><ele>48.0</ele><time>2026-04-13T05:07:14.001Z</time></trkpt><trkpt lat="-29.406721875912787" lon="115.13412360763432"><ele>48.0</ele><time>2026-04-13T05:07:15.001Z</time></trkpt><trkpt lat="-29.406716233202125" lon="115.13381550992963"><ele>47.5</ele><time>2026-04-13T05:07:16.001Z</time></trkpt><trkpt lat="-29.406711576258136" lon="115.13350774904909"><ele>47.0</ele><time>2026-04-13T05:07:17.001Z</time></trkpt><trkpt lat="-29.40670782687445" lon="115.13320333099736"><ele>46.0</ele><time>2026-04-13T05:07:18Z</time></trkpt><trkpt lat="-29.40670411054142" lon="115.13290343002495"><ele>45.0</ele><time>2026-04-13T05:07:19Z</time></trkpt><trkpt lat="-29.406698911025046" lon="115.13260453223039"><ele>45.5</ele><time>2026-04-13T05:07:20Z</time></trkpt><trkpt lat="-29.406692760724653" lon="115.13230830359252"><ele>46.0</ele><time>2026-04-13T05:07:21Z</time></trkpt><trkpt lat="-29.406685955741008" lon="115.13200526784193"><ele>46.0</ele><time>2026-04-13T05:07:22Z</time></trkpt><trkpt lat="-29.40666302070533" lon="115.13169545740062"><ele>46.0</ele><time>2026-04-13T05:07:23Z</time></trkpt><trkpt lat="-29.406658012096788" lon="115.13138079797618"><ele>45.0</ele><time>2026-04-13T05:07:24Z</time></trkpt><trkpt lat="-29.40665071966529" lon="115.13106586081547"><ele>44.0</ele><time>2026-04-13T05:07:25Z</time></trkpt><trkpt lat="-29.406646191704198" lon="115.13074579502576"><ele>43.5</ele><time>2026-04-13T05:07:26Z</time></trkpt><trkpt lat="-29.406641735795528" lon="115.13042722729139"><ele>43.0</ele><time>2026-04-13T05:07:27Z</time></trkpt><trkpt lat="-29.40663994297896" lon="115.13010866449235"><ele>43.5</ele><time>2026-04-13T05:07:28Z</time></trkpt><trkpt lat="-29.406637957516196" lon="115.12979719298204"><ele>44.0</ele><time>2026-04-13T05:07:29Z</time></trkpt><trkpt lat="-29.40663634527253" lon="115.12948486046656"><ele>44.0</ele><time>2026-04-13T05:07:30Z</time></trkpt><trkpt lat="-29.406630388986315" lon="115.12917302100159"><ele>44.0</ele><time>2026-04-13T05:07:31Z</time></trkpt><trkpt lat="-29.406625775407427" lon="115.12885631578291"><ele>44.0</ele><time>2026-04-13T05:07:32Z</time></trkpt><trkpt lat="-29.40661949402697" lon="115.12853994146812"><ele>44.0</ele><time>2026-04-13T05:07:33Z</time></trkpt><trkpt lat="-29.406613649164616" lon="115.12822174185514"><ele>43.5</ele><time>2026-04-13T05:07:34Z</time></trkpt><trkpt lat="-29.406607355999753" lon="115.1279066324092"><ele>43.0</ele><time>2026-04-13T05:07:35Z</time></trkpt><trkpt lat="-29.406600056768212" lon="115.12758687160476"><ele>42.5</ele><time>2026-04-13T05:07:36Z</time></trkpt><trkpt lat="-29.406589013234797" lon="115.12726459680603"><ele>42.0</ele><time>2026-04-13T05:07:37Z</time></trkpt><trkpt lat="-29.40659938743781" lon="115.12694741722169"><ele>42.0</ele><time>2026-04-13T05:07:38Z</time></trkpt><trkpt lat="-29.406592859887766" lon="115.12663217024958"><ele>42.0</ele><time>2026-04-13T05:07:39Z</time></trkpt><trkpt lat="-29.406586608470537" lon="115.12632383547458"><ele>41.5</ele><time>2026-04-13T05:07:40Z</time></trkpt><trkpt lat="-29.406563662154024" lon="115.12601463671649"><ele>41.0</ele><time>2026-04-13T05:07:41Z</time></trkpt><trkpt lat="-29.406560486562807" lon="115.12570340665691"><ele>40.0</ele><time>2026-04-13T05:07:42Z</time></trkpt><trkpt lat="-29.40655514149099" lon="115.12538826551491"><ele>39.0</ele><time>2026-04-13T05:07:43Z</time></trkpt><trkpt lat="-29.406548228482492" lon="115.12507214922928"><ele>39.0</ele><time>2026-04-13T05:07:44Z</time></trkpt><trkpt lat="-29.406555999175627" lon="115.12475869732262"><ele>39.0</ele><time>2026-04-13T05:07:45Z</time></trkpt><trkpt lat="-29.406549998552656" lon="115.12444517267461"><ele>39.0</ele><time>2026-04-13T05:07:46Z</time></trkpt><trkpt lat="-29.406530135947936" lon="115.12413291444514"><ele>39.0</ele><time>2026-04-13T05:07:47Z</time></trkpt><trkpt lat="-29.406528257752065" lon="115.12382010202086"><ele>39.0</ele><time>2026-04-13T05:07:48Z</time></trkpt><trkpt lat="-29.4065220768442" lon="115.12350541459091"><ele>39.0</ele><time>2026-04-13T05:07:49Z</time></trkpt><trkpt lat="-29.40651390828827" lon="115.12319395851982"><ele>39.0</ele><time>2026-04-13T05:07:50Z</time></trkpt><trkpt lat="-29.4065063545158" lon="115.12288300478625"><ele>39.0</ele><time>2026-04-13T05:07:51Z</time></trkpt><trkpt lat="-29.406500763801358" lon="115.12257337604963"><ele>38.0</ele><time>2026-04-13T05:07:52Z</time></trkpt><trkpt lat="-29.40649199562788" lon="115.12226834674924"><ele>37.0</ele><time>2026-04-13T05:07:53Z</time></trkpt><trkpt lat="-29.406483535123332" lon="115.12195963878816"><ele>37.0</ele><time>2026-04-13T05:07:54Z</time></trkpt><trkpt lat="-29.40647564922217" lon="115.12164593615324"><ele>37.0</ele><time>2026-04-13T05:07:55Z</time></trkpt><trkpt lat="-29.40646989081441" lon="115.12132047274179"><ele>36.0</ele><time>2026-04-13T05:07:56Z</time></trkpt><trkpt lat="-29.40646849259901" lon="115.12098988753931"><ele>35.0</ele><time>2026-04-13T05:07:57Z</time></trkpt><trkpt lat="-29.406467726526895" lon="115.12066217976641"><ele>35.0</ele><time>2026-04-13T05:07:58Z</time></trkpt><trkpt lat="-29.406462854656894" lon="115.12033771747988"><ele>35.0</ele><time>2026-04-13T05:07:59Z</time></trkpt><trkpt lat="-29.40645607756377" lon="115.1200140362436"><ele>34.0</ele><time>2026-04-13T05:08:00Z</time></trkpt><trkpt lat="-29.40644896714442" lon="115.11968769564517"><ele>33.0</ele><time>2026-04-13T05:08:01Z</time></trkpt><trkpt lat="-29.406441000235215" lon="115.11936457870785"><ele>33.0</ele><time>2026-04-13T05:08:02Z</time></trkpt><trkpt lat="-29.406433153660238" lon="115.1190385640069"><ele>33.0</ele><time>2026-04-13T05:08:03.001Z</time></trkpt><trkpt lat="-29.406444158102616" lon="115.11871549599887"><ele>33.0</ele><time>2026-04-13T05:08:04.001Z</time></trkpt><trkpt lat="-29.406439961960515" lon="115.11839374302593"><ele>33.0</ele><time>2026-04-13T05:08:05.001Z</time></trkpt><trkpt lat="-29.406434444929257" lon="115.1180693975135"><ele>32.0</ele><time>2026-04-13T05:08:06.001Z</time></trkpt><trkpt lat="-29.406428057288583" lon="115.1177486770117"><ele>31.0</ele><time>2026-04-13T05:08:07.001Z</time></trkpt><trkpt lat="-29.40640529847157" lon="115.11743107858872"><ele>31.5</ele><time>2026-04-13T05:08:08.001Z</time></trkpt><trkpt lat="-29.40641443275205" lon="115.11711187866801"><ele>32.0</ele><time>2026-04-13T05:08:09.001Z</time></trkpt><trkpt lat="-29.406408019846705" lon="115.11679296582206"><ele>31.0</ele><time>2026-04-13T05:08:10.001Z</time></trkpt><trkpt lat="-29.40640166595775" lon="115.11647714310399"><ele>30.0</ele><time>2026-04-13T05:08:11.001Z</time></trkpt><trkpt lat="-29.406394801187684" lon="115.11616023828726"><ele>30.0</ele><time>2026-04-13T05:08:12.001Z</time></trkpt><trkpt lat="-29.406371148679373" lon="115.11584142543981"><ele>30.0</ele><time>2026-04-13T05:08:13.001Z</time></trkpt><trkpt lat="-29.406365598674395" lon="115.1155279566764"><ele>30.5</ele><time>2026-04-13T05:08:14.001Z</time></trkpt><trkpt lat="-29.40635826526217" lon="115.11521050274366"><ele>31.0</ele><time>2026-04-13T05:08:15.001Z</time></trkpt><trkpt lat="-29.406350523517904" lon="115.1148967552576"><ele>31.0</ele><time>2026-04-13T05:08:16.001Z</time></trkpt><trkpt lat="-29.406342391500644" lon="115.11458118993862"><ele>31.0</ele><time>2026-04-13T05:08:17.001Z</time></trkpt><trkpt lat="-29.406334678636288" lon="115.11425690570063"><ele>30.0</ele><time>2026-04-13T05:08:18.001Z</time></trkpt><trkpt lat="-29.406326227391542" lon="115.11393185691612"><ele>29.0</ele><time>2026-04-13T05:08:19.001Z</time></trkpt><trkpt lat="-29.406320663150638" lon="115.11360622751953"><ele>29.0</ele><time>2026-04-13T05:08:20.001Z</time></trkpt><trkpt lat="-29.406315392322316" lon="115.11329554468367"><ele>29.0</ele><time>2026-04-13T05:08:21.001Z</time></trkpt><trkpt lat="-29.406310184601875" lon="115.11298525039814"><ele>30.0</ele><time>2026-04-13T05:08:22.001Z</time></trkpt><trkpt lat="-29.406305850506005" lon="115.1126728441772"><ele>31.0</ele><time>2026-04-13T05:08:23.001Z</time></trkpt><trkpt lat="-29.406300893620134" lon="115.11236408791083"><ele>32.0</ele><time>2026-04-13T05:08:24.001Z</time></trkpt><trkpt lat="-29.40629553196493" lon="115.11205823096668"><ele>33.0</ele><time>2026-04-13T05:08:25.001Z</time></trkpt><trkpt lat="-29.406289719921038" lon="115.11175408740722"><ele>31.5</ele><time>2026-04-13T05:08:26.001Z</time></trkpt><trkpt lat="-29.406283418872952" lon="115.11145151925616"><ele>30.0</ele><time>2026-04-13T05:08:27.001Z</time></trkpt><trkpt lat="-29.406276794856183" lon="115.11114956703092"><ele>30.0</ele><time>2026-04-13T05:08:28.001Z</time></trkpt><trkpt lat="-29.406268027293745" lon="115.11084226669283"><ele>30.0</ele><time>2026-04-13T05:08:29.001Z</time></trkpt><trkpt lat="-29.4062635603012" lon="115.11053532618588"><ele>30.5</ele><time>2026-04-13T05:08:30.001Z</time></trkpt><trkpt lat="-29.406263203461016" lon="115.11022792829297"><ele>31.0</ele><time>2026-04-13T05:08:31.001Z</time></trkpt><trkpt lat="-29.406260943945316" lon="115.10991858565069"><ele>31.5</ele><time>2026-04-13T05:08:32.001Z</time></trkpt><trkpt lat="-29.406253774506414" lon="115.10960244482705"><ele>32.0</ele><time>2026-04-13T05:08:33.001Z</time></trkpt><trkpt lat="-29.406245930014883" lon="115.10928166782875"><ele>32.5</ele><time>2026-04-13T05:08:34.001Z</time></trkpt><trkpt lat="-29.406237804330633" lon="115.10895950999405"><ele>33.0</ele><time>2026-04-13T05:08:35.001Z</time></trkpt><trkpt lat="-29.406231658109547" lon="115.1086337766009"><ele>33.0</ele><time>2026-04-13T05:08:36.001Z</time></trkpt><trkpt lat="-29.40622907823829" lon="115.10830348730667"><ele>33.0</ele><time>2026-04-13T05:08:37.001Z</time></trkpt><trkpt lat="-29.406225236945318" lon="115.10797480098287"><ele>32.5</ele><time>2026-04-13T05:08:38.001Z</time></trkpt><trkpt lat="-29.406219953841035" lon="115.10764384160537"><ele>32.0</ele><time>2026-04-13T05:08:39.001Z</time></trkpt><trkpt lat="-29.406214026594878" lon="115.1073130275391"><ele>31.5</ele><time>2026-04-13T05:08:40.001Z</time></trkpt><trkpt lat="-29.406207509778273" lon="115.10698557909909"><ele>31.0</ele><time>2026-04-13T05:08:41.001Z</time></trkpt><trkpt lat="-29.406199352373765" lon="115.1066574816662"><ele>29.5</ele><time>2026-04-13T05:08:42.001Z</time></trkpt><trkpt lat="-29.406193005233092" lon="115.1063329382998"><ele>28.0</ele><time>2026-04-13T05:08:43.001Z</time></trkpt><trkpt lat="-29.406187961119468" lon="115.10600039660382"><ele>27.0</ele><time>2026-04-13T05:08:44.001Z</time></trkpt><trkpt lat="-29.406182848253717" lon="115.10566734239842"><ele>26.0</ele><time>2026-04-13T05:08:45.001Z</time></trkpt><trkpt lat="-29.406176328616333" lon="115.10533093808661"><ele>26.0</ele><time>2026-04-13T05:08:46.001Z</time></trkpt><trkpt lat="-29.406170331548182" lon="115.10499741190222"><ele>26.0</ele><time>2026-04-13T05:08:47.001Z</time></trkpt><trkpt lat="-29.40616580693065" lon="115.10466384121924"><ele>28.0</ele><time>2026-04-13T05:08:48.001Z</time></trkpt><trkpt lat="-29.40616409249392" lon="115.10433017983274"><ele>30.0</ele><time>2026-04-13T05:08:49.001Z</time></trkpt><trkpt lat="-29.40616121581745" lon="115.10400383918868"><ele>30.0</ele><time>2026-04-13T05:08:50.001Z</time></trkpt><trkpt lat="-29.406157817625818" lon="115.10367519919534"><ele>30.0</ele><time>2026-04-13T05:08:51.001Z</time></trkpt><trkpt lat="-29.40615489263799" lon="115.10334821493188"><ele>30.0</ele><time>2026-04-13T05:08:52.001Z</time></trkpt><trkpt lat="-29.40614973735695" lon="115.10302289970592"><ele>30.0</ele><time>2026-04-13T05:08:53.001Z</time></trkpt><trkpt lat="-29.406144742573474" lon="115.10269563809584"><ele>30.5</ele><time>2026-04-13T05:08:54.001Z</time></trkpt><trkpt lat="-29.40614203046682" lon="115.10236845812821"><ele>31.0</ele><time>2026-04-13T05:08:55.001Z</time></trkpt><trkpt lat="-29.406139743236224" lon="115.10205223219243"><ele>31.0</ele><time>2026-04-13T05:08:56.001Z</time></trkpt><trkpt lat="-29.406133455151043" lon="115.10172963175549"><ele>31.0</ele><time>2026-04-13T05:08:57.001Z</time></trkpt><trkpt lat="-29.406123282122035" lon="115.10140527333316"><ele>32.0</ele><time>2026-04-13T05:08:58.001Z</time></trkpt><trkpt lat="-29.406111372434403" lon="115.10107745858899"><ele>33.0</ele><time>2026-04-13T05:08:59.001Z</time></trkpt><trkpt lat="-29.406100798145186" lon="115.10076508555908"><ele>32.0</ele><time>2026-04-13T05:09:00.001Z</time></trkpt><trkpt lat="-29.406092860364303" lon="115.10045994041938"><ele>31.0</ele><time>2026-04-13T05:09:01.001Z</time></trkpt><trkpt lat="-29.406086078821904" lon="115.10015455065103"><ele>30.0</ele><time>2026-04-13T05:09:02.001Z</time></trkpt><trkpt lat="-29.4060827206148" lon="115.09984402437254"><ele>29.0</ele><time>2026-04-13T05:09:03.001Z</time></trkpt><trkpt lat="-29.40608180132914" lon="115.09952907289639"><ele>29.0</ele><time>2026-04-13T05:09:04.001Z</time></trkpt><trkpt lat="-29.406080636009833" lon="115.09921369757369"><ele>29.0</ele><time>2026-04-13T05:09:05.001Z</time></trkpt><trkpt lat="-29.406079259148466" lon="115.0988947947869"><ele>28.5</ele><time>2026-04-13T05:09:06.001Z</time></trkpt><trkpt lat="-29.406072981931235" lon="115.09858611287457"><ele>28.0</ele><time>2026-04-13T05:09:07.001Z</time></trkpt><trkpt lat="-29.406066096028155" lon="115.09827651318473"><ele>29.0</ele><time>2026-04-13T05:09:08.001Z</time></trkpt><trkpt lat="-29.406056532284204" lon="115.09795197347566"><ele>30.0</ele><time>2026-04-13T05:09:09.001Z</time></trkpt><trkpt lat="-29.40604532552815" lon="115.09763668519349"><ele>31.0</ele><time>2026-04-13T05:09:10.001Z</time></trkpt><trkpt lat="-29.406035837376315" lon="115.09732015362921"><ele>32.0</ele><time>2026-04-13T05:09:11.001Z</time></trkpt><trkpt lat="-29.40602842241662" lon="115.09700391529837"><ele>32.0</ele><time>2026-04-13T05:09:12.001Z</time></trkpt><trkpt lat="-29.406022026120738" lon="115.09667683473678"><ele>32.0</ele><time>2026-04-13T05:09:13.001Z</time></trkpt><trkpt lat="-29.406015208020836" lon="115.0963568360702"><ele>32.0</ele><time>2026-04-13T05:09:14.001Z</time></trkpt><trkpt lat="-29.406010344959952" lon="115.09602769948718"><ele>32.0</ele><time>2026-04-13T05:09:15.001Z</time></trkpt><trkpt lat="-29.406009470338642" lon="115.09569940260843"><ele>32.0</ele><time>2026-04-13T05:09:16.001Z</time></trkpt><trkpt lat="-29.40600556041198" lon="115.09538373271144"><ele>32.0</ele><time>2026-04-13T05:09:17.001Z</time></trkpt><trkpt lat="-29.40599921269587" lon="115.0950548199231"><ele>32.5</ele><time>2026-04-13T05:09:18.001Z</time></trkpt><trkpt lat="-29.40599530640932" lon="115.09473071043936"><ele>33.0</ele><time>2026-04-13T05:09:19.001Z</time></trkpt><trkpt lat="-29.405991979242746" lon="115.09441255876462"><ele>33.0</ele><time>2026-04-13T05:09:20.001Z</time></trkpt><trkpt lat="-29.405987413115817" lon="115.09410000500196"><ele>33.0</ele><time>2026-04-13T05:09:21.001Z</time></trkpt><trkpt lat="-29.405981372792834" lon="115.09377888370238"><ele>34.0</ele><time>2026-04-13T05:09:22.001Z</time></trkpt><trkpt lat="-29.405973407315486" lon="115.0934541896551"><ele>35.0</ele><time>2026-04-13T05:09:23.001Z</time></trkpt><trkpt lat="-29.40596817829069" lon="115.09311570890233"><ele>35.0</ele><time>2026-04-13T05:09:24Z</time></trkpt><trkpt lat="-29.405962929176116" lon="115.09278657052909"><ele>35.0</ele><time>2026-04-13T05:09:25Z</time></trkpt><trkpt lat="-29.405958094881125" lon="115.09245875188492"><ele>35.5</ele><time>2026-04-13T05:09:26Z</time></trkpt><trkpt lat="-29.40595553380456" lon="115.09212866641835"><ele>36.0</ele><time>2026-04-13T05:09:27Z</time></trkpt><trkpt lat="-29.405952746617942" lon="115.09179913455347"><ele>37.0</ele><time>2026-04-13T05:09:28Z</time></trkpt><trkpt lat="-29.40594879185876" lon="115.09146992742227"><ele>38.0</ele><time>2026-04-13T05:09:29Z</time></trkpt><trkpt lat="-29.40594151531685" lon="115.09114659766695"><ele>38.0</ele><time>2026-04-13T05:09:30Z</time></trkpt><trkpt lat="-29.4059323680693" lon="115.09081759822121"><ele>38.0</ele><time>2026-04-13T05:09:31Z</time></trkpt><trkpt lat="-29.40592094434551" lon="115.09048876049476"><ele>40.0</ele><time>2026-04-13T05:09:32Z</time></trkpt><trkpt lat="-29.40591433876087" lon="115.0901603815878"><ele>42.0</ele><time>2026-04-13T05:09:33Z</time></trkpt><trkpt lat="-29.405909589209582" lon="115.08982330241172"><ele>44.5</ele><time>2026-04-13T05:09:34Z</time></trkpt><trkpt lat="-29.405905468134087" lon="115.08948804053709"><ele>47.0</ele><time>2026-04-13T05:09:35Z</time></trkpt><trkpt lat="-29.405901311214848" lon="115.08915612993394"><ele>47.5</ele><time>2026-04-13T05:09:36Z</time></trkpt><trkpt lat="-29.405896649212828" lon="115.08881899651631"><ele>48.0</ele><time>2026-04-13T05:09:37Z</time></trkpt><trkpt lat="-29.40589292158196" lon="115.08848139549647"><ele>47.5</ele><time>2026-04-13T05:09:38Z</time></trkpt><trkpt lat="-29.405886943223617" lon="115.08815428133944"><ele>47.0</ele><time>2026-04-13T05:09:39Z</time></trkpt><trkpt lat="-29.405876215278667" lon="115.08783293779835"><ele>47.0</ele><time>2026-04-13T05:09:40Z</time></trkpt><trkpt lat="-29.40586842628398" lon="115.08749635117414"><ele>47.0</ele><time>2026-04-13T05:09:41Z</time></trkpt><trkpt lat="-29.405880101534063" lon="115.08715578585068"><ele>45.0</ele><time>2026-04-13T05:09:42Z</time></trkpt><trkpt lat="-29.405860387831705" lon="115.08682307088573"><ele>43.0</ele><time>2026-04-13T05:09:43Z</time></trkpt><trkpt lat="-29.40585837541899" lon="115.08649024583235"><ele>41.5</ele><time>2026-04-13T05:09:44Z</time></trkpt><trkpt lat="-29.40585719184574" lon="115.08615713411675"><ele>40.0</ele><time>2026-04-13T05:09:45Z</time></trkpt><trkpt lat="-29.405852108847213" lon="115.08583242335159"><ele>39.5</ele><time>2026-04-13T05:09:46Z</time></trkpt><trkpt lat="-29.40584604859487" lon="115.08550895725334"><ele>39.0</ele><time>2026-04-13T05:09:47Z</time></trkpt><trkpt lat="-29.4058422412572" lon="115.0851842101606"><ele>37.0</ele><time>2026-04-13T05:09:48Z</time></trkpt><trkpt lat="-29.40583973137455" lon="115.08486122616154"><ele>35.0</ele><time>2026-04-13T05:09:49Z</time></trkpt><trkpt lat="-29.405833501102475" lon="115.08453946772516"><ele>35.0</ele><time>2026-04-13T05:09:50Z</time></trkpt><trkpt lat="-29.405824253631167" lon="115.08421618123096"><ele>35.0</ele><time>2026-04-13T05:09:51Z</time></trkpt><trkpt lat="-29.40581459792633" lon="115.08389280536821"><ele>35.0</ele><time>2026-04-13T05:09:52Z</time></trkpt><trkpt lat="-29.405809650657613" lon="115.08356151272002"><ele>35.0</ele><time>2026-04-13T05:09:53Z</time></trkpt><trkpt lat="-29.405808537874268" lon="115.08322561219362"><ele>35.0</ele><time>2026-04-13T05:09:54Z</time></trkpt><trkpt lat="-29.405806483183234" lon="115.08289446091203"><ele>35.0</ele><time>2026-04-13T05:09:55Z</time></trkpt><trkpt lat="-29.405799862691094" lon="115.08257278625715"><ele>35.0</ele><time>2026-04-13T05:09:56Z</time></trkpt><trkpt lat="-29.405794094031865" lon="115.08225388348964"><ele>35.0</ele><time>2026-04-13T05:09:57Z</time></trkpt><trkpt lat="-29.405788492751807" lon="115.08193288156862"><ele>35.0</ele><time>2026-04-13T05:09:58Z</time></trkpt><trkpt lat="-29.40578333571127" lon="115.08160693777891"><ele>35.0</ele><time>2026-04-13T05:09:59Z</time></trkpt><trkpt lat="-29.405776806728234" lon="115.08128516319607"><ele>36.5</ele><time>2026-04-13T05:10:00Z</time></trkpt><trkpt lat="-29.405767090733804" lon="115.08096504572757"><ele>38.0</ele><time>2026-04-13T05:10:01Z</time></trkpt><trkpt lat="-29.405759022581247" lon="115.0806430737856"><ele>38.5</ele><time>2026-04-13T05:10:02Z</time></trkpt><trkpt lat="-29.405751302610646" lon="115.0803173329596"><ele>39.0</ele><time>2026-04-13T05:10:03Z</time></trkpt><trkpt lat="-29.40574500878418" lon="115.07998439911799"><ele>36.0</ele><time>2026-04-13T05:10:04Z</time></trkpt><trkpt lat="-29.40573775150134" lon="115.07964841297981"><ele>33.0</ele><time>2026-04-13T05:10:05Z</time></trkpt><trkpt lat="-29.405731562238337" lon="115.07930606700614"><ele>30.5</ele><time>2026-04-13T05:10:06Z</time></trkpt><trkpt lat="-29.405725750798105" lon="115.07895998752869"><ele>28.0</ele><time>2026-04-13T05:10:07Z</time></trkpt><trkpt lat="-29.405717264095706" lon="115.07861354468658"><ele>27.0</ele><time>2026-04-13T05:10:08Z</time></trkpt><trkpt lat="-29.405706876302457" lon="115.0782666310133"><ele>26.0</ele><time>2026-04-13T05:10:09Z</time></trkpt><trkpt lat="-29.405698034019547" lon="115.0779256197304"><ele>26.0</ele><time>2026-04-13T05:10:10Z</time></trkpt><trkpt lat="-29.405692405376925" lon="115.07757926300346"><ele>26.0</ele><time>2026-04-13T05:10:11Z</time></trkpt><trkpt lat="-29.40568715010333" lon="115.07723445666389"><ele>25.0</ele><time>2026-04-13T05:10:12Z</time></trkpt><trkpt lat="-29.40568348511622" lon="115.07688729972544"><ele>24.0</ele><time>2026-04-13T05:10:13Z</time></trkpt><trkpt lat="-29.405677606587275" lon="115.07653761673252"><ele>23.5</ele><time>2026-04-13T05:10:14Z</time></trkpt><trkpt lat="-29.405669859591665" lon="115.07619344556933"><ele>23.0</ele><time>2026-04-13T05:10:15Z</time></trkpt><trkpt lat="-29.40566510029669" lon="115.07584750252012"><ele>24.5</ele><time>2026-04-13T05:10:16Z</time></trkpt><trkpt lat="-29.405662006000465" lon="115.0755108907481"><ele>26.0</ele><time>2026-04-13T05:10:17Z</time></trkpt><trkpt lat="-29.405664262809164" lon="115.07516942993483"><ele>27.0</ele><time>2026-04-13T05:10:18Z</time></trkpt><trkpt lat="-29.405664683490592" lon="115.07483113054265"><ele>28.0</ele><time>2026-04-13T05:10:19Z</time></trkpt><trkpt lat="-29.40565703930735" lon="115.07449629030735"><ele>28.0</ele><time>2026-04-13T05:10:20Z</time></trkpt><trkpt lat="-29.40564737486191" lon="115.07416605046393"><ele>28.0</ele><time>2026-04-13T05:10:21Z</time></trkpt><trkpt lat="-29.4056334420059" lon="115.07384152132232"><ele>28.0</ele><time>2026-04-13T05:10:22Z</time></trkpt><trkpt lat="-29.405624848233515" lon="115.07351550440241"><ele>28.0</ele><time>2026-04-13T05:10:23Z</time></trkpt><trkpt lat="-29.405620015925532" lon="115.07318059530228"><ele>27.5</ele><time>2026-04-13T05:10:24Z</time></trkpt><trkpt lat="-29.405616660913033" lon="115.07284629706159"><ele>27.0</ele><time>2026-04-13T05:10:25Z</time></trkpt><trkpt lat="-29.40561822143464" lon="115.07251136662505"><ele>28.5</ele><time>2026-04-13T05:10:26Z</time></trkpt><trkpt lat="-29.405625680937444" lon="115.0721802966519"><ele>30.0</ele><time>2026-04-13T05:10:27Z</time></trkpt><trkpt lat="-29.405652967305777" lon="115.0718581313499"><ele>32.0</ele><time>2026-04-13T05:10:28Z</time></trkpt><trkpt lat="-29.405697216231225" lon="115.0715320457583"><ele>34.0</ele><time>2026-04-13T05:10:29Z</time></trkpt><trkpt lat="-29.405770170742063" lon="115.07121656766361"><ele>34.0</ele><time>2026-04-13T05:10:30Z</time></trkpt><trkpt lat="-29.405855522399833" lon="115.0709296142336"><ele>34.0</ele><time>2026-04-13T05:10:31Z</time></trkpt><trkpt lat="-29.405960805155498" lon="115.0706613430698"><ele>36.5</ele><time>2026-04-13T05:10:32.001Z</time></trkpt><trkpt lat="-29.406084280204432" lon="115.0703943324762"><ele>39.0</ele><time>2026-04-13T05:10:33.001Z</time></trkpt><trkpt lat="-29.406213920135787" lon="115.0701355047855"><ele>38.5</ele><time>2026-04-13T05:10:34.001Z</time></trkpt><trkpt lat="-29.40635250758271" lon="115.06987552555394"><ele>38.0</ele><time>2026-04-13T05:10:35.001Z</time></trkpt><trkpt lat="-29.406490574241957" lon="115.06961325969517"><ele>38.0</ele><time>2026-04-13T05:10:36.001Z</time></trkpt><trkpt lat="-29.40662920579076" lon="115.06935085936169"><ele>38.0</ele><time>2026-04-13T05:10:37.001Z</time></trkpt><trkpt lat="-29.40676460738271" lon="115.06908422826173"><ele>40.5</ele><time>2026-04-13T05:10:38.001Z</time></trkpt><trkpt lat="-29.406897021930973" lon="115.06881299727986"><ele>43.0</ele><time>2026-04-13T05:10:39.001Z</time></trkpt><trkpt lat="-29.407035389391783" lon="115.06853536637311"><ele>42.5</ele><time>2026-04-13T05:10:40.001Z</time></trkpt><trkpt lat="-29.407170477892095" lon="115.06826861917035"><ele>42.0</ele><time>2026-04-13T05:10:41.001Z</time></trkpt><trkpt lat="-29.407306146888082" lon="115.06799626921895"><ele>42.0</ele><time>2026-04-13T05:10:42.001Z</time></trkpt><trkpt lat="-29.40743461024446" lon="115.06772523495616"><ele>42.0</ele><time>2026-04-13T05:10:43.001Z</time></trkpt><trkpt lat="-29.40756637833062" lon="115.06745372121212"><ele>42.5</ele><time>2026-04-13T05:10:44.001Z</time></trkpt><trkpt lat="-29.407702102257975" lon="115.06717613981799"><ele>43.0</ele><time>2026-04-13T05:10:45.001Z</time></trkpt><trkpt lat="-29.407836631131648" lon="115.06690362308555"><ele>43.0</ele><time>2026-04-13T05:10:46.001Z</time></trkpt><trkpt lat="-29.40797310931005" lon="115.06663551829013"><ele>43.0</ele><time>2026-04-13T05:10:47.001Z</time></trkpt><trkpt lat="-29.408114396700878" lon="115.06636906864561"><ele>42.0</ele><time>2026-04-13T05:10:48.001Z</time></trkpt><trkpt lat="-29.408254167318358" lon="115.06610198175568"><ele>41.0</ele><time>2026-04-13T05:10:49.001Z</time></trkpt><trkpt lat="-29.40839078889911" lon="115.06583406818159"><ele>41.5</ele><time>2026-04-13T05:10:50.001Z</time></trkpt><trkpt lat="-29.408521927499407" lon="115.06556778688909"><ele>42.0</ele><time>2026-04-13T05:10:51.001Z</time></trkpt><trkpt lat="-29.408654545962968" lon="115.06530324327058"><ele>42.0</ele><time>2026-04-13T05:10:52.001Z</time></trkpt><trkpt lat="-29.408787347492687" lon="115.06504605770999"><ele>42.0</ele><time>2026-04-13T05:10:53.001Z</time></trkpt><trkpt lat="-29.408918976454867" lon="115.06479200915963"><ele>40.5</ele><time>2026-04-13T05:10:54.001Z</time></trkpt><trkpt lat="-29.40905371700767" lon="115.06453805474816"><ele>39.0</ele><time>2026-04-13T05:10:55.001Z</time></trkpt><trkpt lat="-29.40918879473514" lon="115.06428070648111"><ele>38.5</ele><time>2026-04-13T05:10:56.001Z</time></trkpt><trkpt lat="-29.40932669840667" lon="115.06401763047934"><ele>38.0</ele><time>2026-04-13T05:10:57.001Z</time></trkpt><trkpt lat="-29.409463919565873" lon="115.0637490709652"><ele>38.0</ele><time>2026-04-13T05:10:58.001Z</time></trkpt><trkpt lat="-29.40959923898104" lon="115.06348043232612"><ele>38.0</ele><time>2026-04-13T05:10:59.001Z</time></trkpt><trkpt lat="-29.409727399276058" lon="115.06320824127113"><ele>37.0</ele><time>2026-04-13T05:11:00.001Z</time></trkpt><trkpt lat="-29.409841538996698" lon="115.06292946964155"><ele>36.0</ele><time>2026-04-13T05:11:01.001Z</time></trkpt><trkpt lat="-29.409945646540613" lon="115.06264366629765"><ele>37.5</ele><time>2026-04-13T05:11:02.001Z</time></trkpt><trkpt lat="-29.410037232712487" lon="115.06235528481217"><ele>39.0</ele><time>2026-04-13T05:11:03.001Z</time></trkpt><trkpt lat="-29.41011042180282" lon="115.06206816942672"><ele>39.0</ele><time>2026-04-13T05:11:04.001Z</time></trkpt><trkpt lat="-29.41015436310465" lon="115.06178168507627"><ele>39.0</ele><time>2026-04-13T05:11:05.001Z</time></trkpt><trkpt lat="-29.410172246941315" lon="115.06150150919358"><ele>40.0</ele><time>2026-04-13T05:11:06.001Z</time></trkpt><trkpt lat="-29.41017176424157" lon="115.06123360399782"><ele>41.0</ele><time>2026-04-13T05:11:07.001Z</time></trkpt><trkpt lat="-29.410157792981956" lon="115.06095908523986"><ele>41.0</ele><time>2026-04-13T05:11:08.001Z</time></trkpt><trkpt lat="-29.41014180755634" lon="115.06067639355643"><ele>41.0</ele><time>2026-04-13T05:11:09.001Z</time></trkpt><trkpt lat="-29.41013146621388" lon="115.06038518985505"><ele>41.0</ele><time>2026-04-13T05:11:10.001Z</time></trkpt><trkpt lat="-29.41012423854473" lon="115.06009587545527"><ele>41.0</ele><time>2026-04-13T05:11:11.001Z</time></trkpt><trkpt lat="-29.410123625392288" lon="115.0598033113677"><ele>40.0</ele><time>2026-04-13T05:11:12.001Z</time></trkpt><trkpt lat="-29.410123744330633" lon="115.05951417730806"><ele>39.0</ele><time>2026-04-13T05:11:13.001Z</time></trkpt><trkpt lat="-29.410123044035302" lon="115.05922598576258"><ele>39.0</ele><time>2026-04-13T05:11:14.001Z</time></trkpt><trkpt lat="-29.410123481594766" lon="115.05893369687632"><ele>39.0</ele><time>2026-04-13T05:11:15.001Z</time></trkpt><trkpt lat="-29.410123887160278" lon="115.05863488463801"><ele>39.0</ele><time>2026-04-13T05:11:16.001Z</time></trkpt><trkpt lat="-29.41012054146711" lon="115.05833423882937"><ele>39.0</ele><time>2026-04-13T05:11:17.001Z</time></trkpt><trkpt lat="-29.41012213194415" lon="115.05803194871241"><ele>39.5</ele><time>2026-04-13T05:11:18.001Z</time></trkpt><trkpt lat="-29.410127177225185" lon="115.05773413589576"><ele>40.0</ele><time>2026-04-13T05:11:19.001Z</time></trkpt><trkpt lat="-29.41013210555113" lon="115.05744267218019"><ele>41.5</ele><time>2026-04-13T05:11:20.001Z</time></trkpt><trkpt lat="-29.410134028941957" lon="115.05715576844236"><ele>43.0</ele><time>2026-04-13T05:11:21.001Z</time></trkpt><trkpt lat="-29.4101347460704" lon="115.05686396888699"><ele>43.0</ele><time>2026-04-13T05:11:22.001Z</time></trkpt><trkpt lat="-29.4101354224183" lon="115.05656774022877"><ele>43.0</ele><time>2026-04-13T05:11:23.001Z</time></trkpt><trkpt lat="-29.41013444554733" lon="115.05627158134311"><ele>43.0</ele><time>2026-04-13T05:11:24.001Z</time></trkpt><trkpt lat="-29.41015094348185" lon="115.05596993140217"><ele>43.0</ele><time>2026-04-13T05:11:25.001Z</time></trkpt><trkpt lat="-29.4101520819828" lon="115.05566320364514"><ele>43.0</ele><time>2026-04-13T05:11:26.001Z</time></trkpt><trkpt lat="-29.41015320161172" lon="115.05535721772888"><ele>43.0</ele><time>2026-04-13T05:11:27.001Z</time></trkpt><trkpt lat="-29.410138396066383" lon="115.0550476274524"><ele>41.5</ele><time>2026-04-13T05:11:28.001Z</time></trkpt><trkpt lat="-29.410140313609507" lon="115.05474088221119"><ele>40.0</ele><time>2026-04-13T05:11:29Z</time></trkpt><trkpt lat="-29.410156990238406" lon="115.05442438840089"><ele>39.0</ele><time>2026-04-13T05:11:30Z</time></trkpt><trkpt lat="-29.410158198037266" lon="115.05410218561305"><ele>38.0</ele><time>2026-04-13T05:11:31Z</time></trkpt><trkpt lat="-29.410159272509283" lon="115.05378271022364"><ele>38.0</ele><time>2026-04-13T05:11:32Z</time></trkpt><trkpt lat="-29.410159894632802" lon="115.05345518355954"><ele>38.0</ele><time>2026-04-13T05:11:33Z</time></trkpt><trkpt lat="-29.410144822067753" lon="115.05312924839504"><ele>36.5</ele><time>2026-04-13T05:11:34Z</time></trkpt><trkpt lat="-29.41014700933621" lon="115.0528014584068"><ele>35.0</ele><time>2026-04-13T05:11:35Z</time></trkpt><trkpt lat="-29.410149093230874" lon="115.05247311785149"><ele>33.0</ele><time>2026-04-13T05:11:36Z</time></trkpt><trkpt lat="-29.410149961297954" lon="115.05214934324437"><ele>31.0</ele><time>2026-04-13T05:11:37Z</time></trkpt><trkpt lat="-29.410150843006562" lon="115.05182391965764"><ele>30.5</ele><time>2026-04-13T05:11:38Z</time></trkpt><trkpt lat="-29.410150367342144" lon="115.05150606947669"><ele>30.0</ele><time>2026-04-13T05:11:39Z</time></trkpt><trkpt lat="-29.410147716404342" lon="115.05118314107827"><ele>30.0</ele><time>2026-04-13T05:11:40Z</time></trkpt><trkpt lat="-29.410146550318483" lon="115.05087142175853"><ele>30.0</ele><time>2026-04-13T05:11:41Z</time></trkpt><trkpt lat="-29.41014414919814" lon="115.0505543489868"><ele>30.0</ele><time>2026-04-13T05:11:42Z</time></trkpt><trkpt lat="-29.410141064959845" lon="115.05023852481384"><ele>30.0</ele><time>2026-04-13T05:11:43Z</time></trkpt><trkpt lat="-29.410141129346894" lon="115.04992468672356"><ele>30.0</ele><time>2026-04-13T05:11:44Z</time></trkpt><trkpt lat="-29.410141359831744" lon="115.04961017927312"><ele>30.0</ele><time>2026-04-13T05:11:45Z</time></trkpt><trkpt lat="-29.410140104003226" lon="115.04929677539323"><ele>32.0</ele><time>2026-04-13T05:11:46Z</time></trkpt><trkpt lat="-29.410138115433405" lon="115.04898257796992"><ele>34.0</ele><time>2026-04-13T05:11:47Z</time></trkpt><trkpt lat="-29.410138643989885" lon="115.04866889771998"><ele>34.0</ele><time>2026-04-13T05:11:48Z</time></trkpt><trkpt lat="-29.410140831626403" lon="115.04835735255188"><ele>34.0</ele><time>2026-04-13T05:11:49Z</time></trkpt><trkpt lat="-29.41014288809749" lon="115.0480465272106"><ele>36.5</ele><time>2026-04-13T05:11:50Z</time></trkpt><trkpt lat="-29.410145418308844" lon="115.04773830228653"><ele>39.0</ele><time>2026-04-13T05:11:51Z</time></trkpt><trkpt lat="-29.410147106177167" lon="115.04742623541729"><ele>41.5</ele><time>2026-04-13T05:11:52Z</time></trkpt><trkpt lat="-29.41014789149473" lon="115.04711597696334"><ele>44.0</ele><time>2026-04-13T05:11:53Z</time></trkpt><trkpt lat="-29.41014576461173" lon="115.04680610154742"><ele>43.5</ele><time>2026-04-13T05:11:54Z</time></trkpt><trkpt lat="-29.410140711570833" lon="115.04650327961475"><ele>43.0</ele><time>2026-04-13T05:11:55Z</time></trkpt><trkpt lat="-29.410133981502273" lon="115.04620392725613"><ele>43.0</ele><time>2026-04-13T05:11:56Z</time></trkpt><trkpt lat="-29.41014989024104" lon="115.04589716513512"><ele>43.0</ele><time>2026-04-13T05:11:57Z</time></trkpt><trkpt lat="-29.410148313298464" lon="115.04559216762146"><ele>43.0</ele><time>2026-04-13T05:11:58Z</time></trkpt><trkpt lat="-29.41014759024391" lon="115.04528696425584"><ele>43.0</ele><time>2026-04-13T05:11:59Z</time></trkpt><trkpt lat="-29.41013088865963" lon="115.0449782097141"><ele>43.0</ele><time>2026-04-13T05:12:00Z</time></trkpt><trkpt lat="-29.41013804286494" lon="115.0446638409306"><ele>43.0</ele><time>2026-04-13T05:12:01Z</time></trkpt><trkpt lat="-29.41014157255061" lon="115.04434466564709"><ele>44.0</ele><time>2026-04-13T05:12:02Z</time></trkpt><trkpt lat="-29.410139517524335" lon="115.04403961392161"><ele>45.0</ele><time>2026-04-13T05:12:03Z</time></trkpt><trkpt lat="-29.410131376049563" lon="115.04372370156062"><ele>45.0</ele><time>2026-04-13T05:12:04Z</time></trkpt><trkpt lat="-29.410144090229828" lon="115.04342173586882"><ele>45.0</ele><time>2026-04-13T05:12:05Z</time></trkpt><trkpt lat="-29.41014409022944" lon="115.04311814795068"><ele>46.0</ele><time>2026-04-13T05:12:06Z</time></trkpt><trkpt lat="-29.410144090227266" lon="115.04281725156996"><ele>47.0</ele><time>2026-04-13T05:12:07Z</time></trkpt><trkpt lat="-29.410144452054407" lon="115.04251388759498"><ele>48.0</ele><time>2026-04-13T05:12:08Z</time></trkpt><trkpt lat="-29.410135751508637" lon="115.042199601783"><ele>49.0</ele><time>2026-04-13T05:12:09Z</time></trkpt><trkpt lat="-29.410140108983043" lon="115.04189421808609"><ele>48.5</ele><time>2026-04-13T05:12:10Z</time></trkpt><trkpt lat="-29.410140919466567" lon="115.0416025537785"><ele>48.0</ele><time>2026-04-13T05:12:11Z</time></trkpt><trkpt lat="-29.41013934705286" lon="115.04133148946015"><ele>48.0</ele><time>2026-04-13T05:12:12Z</time></trkpt><trkpt lat="-29.410136362596955" lon="115.04108334916424"><ele>48.0</ele><time>2026-04-13T05:12:13Z</time></trkpt><trkpt lat="-29.410138754147777" lon="115.04081036396265"><ele>47.5</ele><time>2026-04-13T05:12:14Z</time></trkpt><trkpt lat="-29.41013897842009" lon="115.04052506500848"><ele>47.0</ele><time>2026-04-13T05:12:15Z</time></trkpt><trkpt lat="-29.410141036576157" lon="115.04022604020126"><ele>45.5</ele><time>2026-04-13T05:12:16Z</time></trkpt><trkpt lat="-29.410144937578004" lon="115.03993144449842"><ele>44.0</ele><time>2026-04-13T05:12:17Z</time></trkpt><trkpt lat="-29.4101464572771" lon="115.03963369004143"><ele>44.0</ele><time>2026-04-13T05:12:18Z</time></trkpt><trkpt lat="-29.410144839283447" lon="115.03934113836091"><ele>44.0</ele><time>2026-04-13T05:12:19Z</time></trkpt><trkpt lat="-29.410139424465097" lon="115.0390509988632"><ele>42.0</ele><time>2026-04-13T05:12:20Z</time></trkpt><trkpt lat="-29.41013635012318" lon="115.0387603062858"><ele>40.0</ele><time>2026-04-13T05:12:21Z</time></trkpt><trkpt lat="-29.410135873764986" lon="115.03846681818477"><ele>38.5</ele><time>2026-04-13T05:12:22Z</time></trkpt><trkpt lat="-29.410136943655402" lon="115.03817249047336"><ele>37.0</ele><time>2026-04-13T05:12:23Z</time></trkpt><trkpt lat="-29.41014334606019" lon="115.03787025037458"><ele>37.0</ele><time>2026-04-13T05:12:24Z</time></trkpt><trkpt lat="-29.41014777676308" lon="115.03756391753258"><ele>37.0</ele><time>2026-04-13T05:12:25Z</time></trkpt><trkpt lat="-29.410151488932133" lon="115.03725154021593"><ele>37.0</ele><time>2026-04-13T05:12:26Z</time></trkpt><trkpt lat="-29.410152065962826" lon="115.03693918461525"><ele>37.0</ele><time>2026-04-13T05:12:27Z</time></trkpt><trkpt lat="-29.410152274213672" lon="115.03662799731883"><ele>36.5</ele><time>2026-04-13T05:12:28Z</time></trkpt><trkpt lat="-29.410152905902823" lon="115.03631733780098"><ele>36.0</ele><time>2026-04-13T05:12:29Z</time></trkpt><trkpt lat="-29.410152324178743" lon="115.03601305970143"><ele>35.5</ele><time>2026-04-13T05:12:30Z</time></trkpt><trkpt lat="-29.410151405630327" lon="115.03570972867983"><ele>35.0</ele><time>2026-04-13T05:12:31Z</time></trkpt><trkpt lat="-29.41015345668585" lon="115.03541015561315"><ele>35.0</ele><time>2026-04-13T05:12:32Z</time></trkpt><trkpt lat="-29.410151850152747" lon="115.03510966694616"><ele>35.0</ele><time>2026-04-13T05:12:33Z</time></trkpt><trkpt lat="-29.410148078672155" lon="115.03480758630167"><ele>35.0</ele><time>2026-04-13T05:12:34Z</time></trkpt><trkpt lat="-29.410144423610998" lon="115.03450459656567"><ele>35.0</ele><time>2026-04-13T05:12:35Z</time></trkpt><trkpt lat="-29.41014162407269" lon="115.03419547954502"><ele>34.5</ele><time>2026-04-13T05:12:36Z</time></trkpt><trkpt lat="-29.41013926598847" lon="115.03388606558804"><ele>34.0</ele><time>2026-04-13T05:12:37Z</time></trkpt><trkpt lat="-29.410138385388937" lon="115.03358123848477"><ele>34.5</ele><time>2026-04-13T05:12:38Z</time></trkpt><trkpt lat="-29.410140536156156" lon="115.03326889712099"><ele>35.0</ele><time>2026-04-13T05:12:39Z</time></trkpt><trkpt lat="-29.410143270837604" lon="115.0329594005689"><ele>35.0</ele><time>2026-04-13T05:12:40Z</time></trkpt><trkpt lat="-29.410145020654596" lon="115.03265151141606"><ele>35.0</ele><time>2026-04-13T05:12:41Z</time></trkpt><trkpt lat="-29.410150561376717" lon="115.03233915310216"><ele>34.0</ele><time>2026-04-13T05:12:42Z</time></trkpt><trkpt lat="-29.410153880962806" lon="115.03202755431842"><ele>33.0</ele><time>2026-04-13T05:12:43Z</time></trkpt><trkpt lat="-29.410153522020035" lon="115.03171304533002"><ele>33.0</ele><time>2026-04-13T05:12:44.001Z</time></trkpt><trkpt lat="-29.41015354463601" lon="115.03139370378"><ele>33.0</ele><time>2026-04-13T05:12:45.001Z</time></trkpt><trkpt lat="-29.41015610989152" lon="115.03107049695112"><ele>31.5</ele><time>2026-04-13T05:12:46.001Z</time></trkpt><trkpt lat="-29.410154315528175" lon="115.03075020293915"><ele>30.0</ele><time>2026-04-13T05:12:47.001Z</time></trkpt><trkpt lat="-29.41015055954186" lon="115.03042605048874"><ele>30.0</ele><time>2026-04-13T05:12:48.001Z</time></trkpt><trkpt lat="-29.410144548783904" lon="115.03009197394125"><ele>30.0</ele><time>2026-04-13T05:12:49.001Z</time></trkpt><trkpt lat="-29.410142926808543" lon="115.02975063949528"><ele>29.0</ele><time>2026-04-13T05:12:50.001Z</time></trkpt><trkpt lat="-29.41014725153337" lon="115.02941659000524"><ele>28.0</ele><time>2026-04-13T05:12:51.001Z</time></trkpt><trkpt lat="-29.410154991359132" lon="115.02908368119495"><ele>28.0</ele><time>2026-04-13T05:12:52.001Z</time></trkpt><trkpt lat="-29.410162889016597" lon="115.02875586864596"><ele>28.0</ele><time>2026-04-13T05:12:53.001Z</time></trkpt><trkpt lat="-29.41016645562917" lon="115.02842420163562"><ele>28.5</ele><time>2026-04-13T05:12:54.001Z</time></trkpt><trkpt lat="-29.410167297650723" lon="115.02809103120127"><ele>29.0</ele><time>2026-04-13T05:12:55.001Z</time></trkpt><trkpt lat="-29.410163025533866" lon="115.02776061978616"><ele>30.5</ele><time>2026-04-13T05:12:56.001Z</time></trkpt><trkpt lat="-29.410163252005496" lon="115.02743061829877"><ele>32.0</ele><time>2026-04-13T05:12:57.001Z</time></trkpt><trkpt lat="-29.410163756723286" lon="115.0270990946978"><ele>32.0</ele><time>2026-04-13T05:12:58.001Z</time></trkpt><trkpt lat="-29.41016341938979" lon="115.0267701092662"><ele>32.0</ele><time>2026-04-13T05:12:59.001Z</time></trkpt><trkpt lat="-29.410160786423436" lon="115.0264362945303"><ele>33.0</ele><time>2026-04-13T05:13:00.001Z</time></trkpt><trkpt lat="-29.41015982190873" lon="115.02610916463732"><ele>34.0</ele><time>2026-04-13T05:13:01.001Z</time></trkpt><trkpt lat="-29.410159446338504" lon="115.0257810441144"><ele>35.5</ele><time>2026-04-13T05:13:02.001Z</time></trkpt><trkpt lat="-29.410157742344815" lon="115.02545488666682"><ele>37.0</ele><time>2026-04-13T05:13:03.001Z</time></trkpt><trkpt lat="-29.410157327948458" lon="115.02513256853584"><ele>36.5</ele><time>2026-04-13T05:13:04.001Z</time></trkpt><trkpt lat="-29.41015595325275" lon="115.02481129122252"><ele>36.0</ele><time>2026-04-13T05:13:05.001Z</time></trkpt><trkpt lat="-29.410153668494832" lon="115.02449341123618"><ele>36.0</ele><time>2026-04-13T05:13:06.001Z</time></trkpt><trkpt lat="-29.41014852129486" lon="115.02417671508074"><ele>36.0</ele><time>2026-04-13T05:13:07.001Z</time></trkpt><trkpt lat="-29.410142807580705" lon="115.02386234416316"><ele>36.0</ele><time>2026-04-13T05:13:08.001Z</time></trkpt><trkpt lat="-29.41014236865507" lon="115.02354055419858"><ele>36.0</ele><time>2026-04-13T05:13:09.001Z</time></trkpt><trkpt lat="-29.410140339745716" lon="115.02321729195224"><ele>37.0</ele><time>2026-04-13T05:13:10.001Z</time></trkpt><trkpt lat="-29.4101359456798" lon="115.02289592115788"><ele>38.0</ele><time>2026-04-13T05:13:11.001Z</time></trkpt><trkpt lat="-29.410135458237367" lon="115.02258622580281"><ele>37.5</ele><time>2026-04-13T05:13:12.001Z</time></trkpt><trkpt lat="-29.410135582705493" lon="115.02229039767846"><ele>37.0</ele><time>2026-04-13T05:13:13.001Z</time></trkpt><trkpt lat="-29.410136549239155" lon="115.02200092010479"><ele>37.0</ele><time>2026-04-13T05:13:14.001Z</time></trkpt><trkpt lat="-29.410138245746005" lon="115.0217096330934"><ele>37.0</ele><time>2026-04-13T05:13:15.001Z</time></trkpt><trkpt lat="-29.410136314834215" lon="115.02141814104"><ele>39.5</ele><time>2026-04-13T05:13:16.001Z</time></trkpt><trkpt lat="-29.410134338675828" lon="115.02112118499518"><ele>42.0</ele><time>2026-04-13T05:13:17.001Z</time></trkpt><trkpt lat="-29.410134189559294" lon="115.0208245982054"><ele>39.0</ele><time>2026-04-13T05:13:18.001Z</time></trkpt><trkpt lat="-29.410134527108553" lon="115.02053075096299"><ele>36.0</ele><time>2026-04-13T05:13:19.001Z</time></trkpt><trkpt lat="-29.410135819645983" lon="115.02023836303225"><ele>33.5</ele><time>2026-04-13T05:13:20.001Z</time></trkpt><trkpt lat="-29.41013549140027" lon="115.01994474086142"><ele>31.0</ele><time>2026-04-13T05:13:21.001Z</time></trkpt><trkpt lat="-29.410133512903887" lon="115.0196495558929"><ele>31.0</ele><time>2026-04-13T05:13:22.001Z</time></trkpt><trkpt lat="-29.41013080978499" lon="115.01934839027483"><ele>31.0</ele><time>2026-04-13T05:13:23.001Z</time></trkpt><trkpt lat="-29.410129408751374" lon="115.01904492272017"><ele>28.0</ele><time>2026-04-13T05:13:24.001Z</time></trkpt><trkpt lat="-29.410128898221217" lon="115.01873847180093"><ele>25.0</ele><time>2026-04-13T05:13:25.001Z</time></trkpt><trkpt lat="-29.410130487014612" lon="115.01843088799934"><ele>25.0</ele><time>2026-04-13T05:13:26.001Z</time></trkpt><trkpt lat="-29.410131047953787" lon="115.01811827526875"><ele>25.0</ele><time>2026-04-13T05:13:27.001Z</time></trkpt><trkpt lat="-29.410129272285438" lon="115.01780174676709"><ele>23.5</ele><time>2026-04-13T05:13:28.001Z</time></trkpt><trkpt lat="-29.410127291899848" lon="115.01747448885844"><ele>22.0</ele><time>2026-04-13T05:13:29.001Z</time></trkpt><trkpt lat="-29.410122295047934" lon="115.01714405285566"><ele>22.0</ele><time>2026-04-13T05:13:30.001Z</time></trkpt><trkpt lat="-29.410121559278746" lon="115.01681700150189"><ele>22.0</ele><time>2026-04-13T05:13:31.001Z</time></trkpt><trkpt lat="-29.410124556915452" lon="115.01648885749215"><ele>20.0</ele><time>2026-04-13T05:13:32.001Z</time></trkpt><trkpt lat="-29.41012890087748" lon="115.01616863481982"><ele>18.0</ele><time>2026-04-13T05:13:33.001Z</time></trkpt><trkpt lat="-29.41015579030854" lon="115.01585032213701"><ele>17.0</ele><time>2026-04-13T05:13:34.001Z</time></trkpt><trkpt lat="-29.41015579031167" lon="115.01553194108736"><ele>16.0</ele><time>2026-04-13T05:13:35Z</time></trkpt><trkpt lat="-29.410155210168863" lon="115.01521397466414"><ele>13.5</ele><time>2026-04-13T05:13:36Z</time></trkpt><trkpt lat="-29.41013822735977" lon="115.01489860023862"><ele>11.0</ele><time>2026-04-13T05:13:37Z</time></trkpt><trkpt lat="-29.41013788608611" lon="115.01459112650394"><ele>11.0</ele><time>2026-04-13T05:13:38Z</time></trkpt><trkpt lat="-29.410153490321125" lon="115.0143086988733"><ele>11.0</ele><time>2026-04-13T05:13:39Z</time></trkpt><trkpt lat="-29.410153490323403" lon="115.01404857657148"><ele>9.666666666666666</ele><time>2026-04-13T05:13:40Z</time></trkpt><trkpt lat="-29.410142283598" lon="115.01380539653583"><ele>8.333333333333334</ele><time>2026-04-13T05:13:41Z</time></trkpt><trkpt lat="-29.41014560992276" lon="115.0135850537954"><ele>7.0</ele><time>2026-04-13T05:13:42Z</time></trkpt><trkpt lat="-29.4101479674617" lon="115.01338283204869"><ele>7.0</ele><time>2026-04-13T05:13:43Z</time></trkpt><trkpt lat="-29.410148116442528" lon="115.01319500056263"><ele>7.0</ele><time>2026-04-13T05:13:44Z</time></trkpt><trkpt lat="-29.410148023858316" lon="115.01302220770104"><ele>7.0</ele><time>2026-04-13T05:13:45Z</time></trkpt><trkpt lat="-29.41014803162374" lon="115.01287576238782"><ele>7.0</ele><time>2026-04-13T05:13:46Z</time></trkpt><trkpt lat="-29.41015185295452" lon="115.01274431188703"><ele>7.000000000000001</ele><time>2026-04-13T05:13:47Z</time></trkpt><trkpt lat="-29.410155076733343" lon="115.01264291107097"><ele>7.0</ele><time>2026-04-13T05:13:48Z</time></trkpt><trkpt lat="-29.410160661865095" lon="115.01256641439191"><ele>7.0</ele><time>2026-04-13T05:13:49Z</time></trkpt><trkpt lat="-29.410182513027397" lon="115.01249008708872"><ele>7.0</ele><time>2026-04-13T05:13:51Z</time></trkpt><trkpt lat="-29.410175965442967" lon="115.0123845452849"><ele>7.000000000000001</ele><time>2026-04-13T05:13:53Z</time></trkpt><trkpt lat="-29.410165535735068" lon="115.01230387018157"><ele>7.0</ele><time>2026-04-13T05:13:54Z</time></trkpt><trkpt lat="-29.41017905444359" lon="115.01215075684844"><ele>7.0</ele><time>2026-04-13T05:13:56Z</time></trkpt><trkpt lat="-29.410191182354076" lon="115.01203518192023"><ele>7.0</ele><time>2026-04-13T05:13:57Z</time></trkpt><trkpt lat="-29.410195146659024" lon="115.01190084392002"><ele>7.0</ele><time>2026-04-13T05:13:58Z</time></trkpt><trkpt lat="-29.410194949687234" lon="115.01175633819125"><ele>7.0</ele><time>2026-04-13T05:13:59Z</time></trkpt><trkpt lat="-29.410209579806455" lon="115.0115834083697"><ele>7.666666666666667</ele><time>2026-04-13T05:14:00Z</time></trkpt><trkpt lat="-29.410204905137213" lon="115.01139604373255"><ele>8.333333333333334</ele><time>2026-04-13T05:14:01Z</time></trkpt><trkpt lat="-29.41021849548692" lon="115.01120295318026"><ele>9.0</ele><time>2026-04-13T05:14:02Z</time></trkpt><trkpt lat="-29.410219947997113" lon="115.01099376010684"><ele>9.333333333333334</ele><time>2026-04-13T05:14:03Z</time></trkpt><trkpt lat="-29.410225623929485" lon="115.01080574355298"><ele>9.666666666666668</ele><time>2026-04-13T05:14:04Z</time></trkpt><trkpt lat="-29.41023416557733" lon="115.01063389891668"><ele>10.0</ele><time>2026-04-13T05:14:05Z</time></trkpt><trkpt lat="-29.410238300674607" lon="115.01047468229886"><ele>10.0</ele><time>2026-04-13T05:14:06Z</time></trkpt><trkpt lat="-29.410239628668315" lon="115.01033685952521"><ele>10.0</ele><time>2026-04-13T05:14:07Z</time></trkpt><trkpt lat="-29.410234502626754" lon="115.01022059122984"><ele>10.0</ele><time>2026-04-13T05:14:08Z</time></trkpt><trkpt lat="-29.410225815819793" lon="115.01012427785648"><ele>10.0</ele><time>2026-04-13T05:14:10Z</time></trkpt><trkpt lat="-29.410156762215305" lon="115.0101084956683"><ele>10.0</ele><time>2026-04-13T05:14:13Z</time></trkpt><trkpt lat="-29.410217087812608" lon="115.01016954704092"><ele>10.0</ele><time>2026-04-13T05:14:38.001Z</time></trkpt><trkpt lat="-29.410264305288973" lon="115.01023939781305"><ele>10.0</ele><time>2026-04-13T05:14:39.001Z</time></trkpt><trkpt lat="-29.410193688431452" lon="115.01050844301193"><ele>10.0</ele><time>2026-04-13T05:14:40.001Z</time></trkpt><trkpt lat="-29.41018614559066" lon="115.01065243033973"><ele>10.0</ele><time>2026-04-13T05:14:41.001Z</time></trkpt><trkpt lat="-29.410182014373135" lon="115.01082020573664"><ele>9.666666666666668</ele><time>2026-04-13T05:14:42.001Z</time></trkpt><trkpt lat="-29.410181740637842" lon="115.01100961252546"><ele>9.333333333333334</ele><time>2026-04-13T05:14:43.001Z</time></trkpt><trkpt lat="-29.410184018965996" lon="115.01120516520274"><ele>9.0</ele><time>2026-04-13T05:14:44.001Z</time></trkpt><trkpt lat="-29.41018192529411" lon="115.01139258091129"><ele>9.0</ele><time>2026-04-13T05:14:45.001Z</time></trkpt><trkpt lat="-29.41017837159743" lon="115.01156499556836"><ele>9.0</ele><time>2026-04-13T05:14:46.001Z</time></trkpt><trkpt lat="-29.410173270929864" lon="115.01172275496869"><ele>9.0</ele><time>2026-04-13T05:14:47.001Z</time></trkpt><trkpt lat="-29.410170449462218" lon="115.01187306308674"><ele>9.0</ele><time>2026-04-13T05:14:48.001Z</time></trkpt><trkpt lat="-29.410158497069006" lon="115.01201106678414"><ele>8.5</ele><time>2026-04-13T05:14:49.001Z</time></trkpt><trkpt lat="-29.410146447157036" lon="115.01214066754272"><ele>8.0</ele><time>2026-04-13T05:14:50.001Z</time></trkpt><trkpt lat="-29.410136247066962" lon="115.01224964637933"><ele>7.5</ele><time>2026-04-13T05:14:51.001Z</time></trkpt><trkpt lat="-29.41012947735058" lon="115.01233655341413"><ele>7.0</ele><time>2026-04-13T05:14:53.001Z</time></trkpt><trkpt lat="-29.409913260654633" lon="115.01232579382145"><ele>7.0</ele><time>2026-04-13T05:14:58.001Z</time></trkpt><trkpt lat="-29.409804796699568" lon="115.0123265264374"><ele>7.0</ele><time>2026-04-13T05:14:59.001Z</time></trkpt><trkpt lat="-29.409678254866545" lon="115.01229091814687"><ele>7.0</ele><time>2026-04-13T05:15:00.001Z</time></trkpt><trkpt lat="-29.409526986049343" lon="115.01226787045329"><ele>7.0</ele><time>2026-04-13T05:15:01.001Z</time></trkpt><trkpt lat="-29.409350890053293" lon="115.01225967918872"><ele>7.333333333333334</ele><time>2026-04-13T05:15:02.001Z</time></trkpt><trkpt lat="-29.409171413809553" lon="115.01222697411112"><ele>7.666666666666666</ele><time>2026-04-13T05:15:03.001Z</time></trkpt><trkpt lat="-29.40897875000977" lon="115.01219368147241"><ele>8.0</ele><time>2026-04-13T05:15:04.001Z</time></trkpt><trkpt lat="-29.40877904462192" lon="115.0121618534838"><ele>8.0</ele><time>2026-04-13T05:15:05.001Z</time></trkpt><trkpt lat="-29.408572429881193" lon="115.01212734664584"><ele>8.0</ele><time>2026-04-13T05:15:06.001Z</time></trkpt><trkpt lat="-29.40835709292043" lon="115.012093693652"><ele>8.0</ele><time>2026-04-13T05:15:07.001Z</time></trkpt><trkpt lat="-29.40812836757814" lon="115.01205593691932"><ele>7.5</ele><time>2026-04-13T05:15:08.001Z</time></trkpt><trkpt lat="-29.407900456210157" lon="115.01201807755201"><ele>7.0</ele><time>2026-04-13T05:15:09.001Z</time></trkpt><trkpt lat="-29.407664042724946" lon="115.01197974431652"><ele>7.0</ele><time>2026-04-13T05:15:10.001Z</time></trkpt><trkpt lat="-29.407420940339584" lon="115.0119375381256"><ele>7.0</ele><time>2026-04-13T05:15:11.001Z</time></trkpt><trkpt lat="-29.40716275112335" lon="115.0118942572925"><ele>6.5</ele><time>2026-04-13T05:15:12.001Z</time></trkpt><trkpt lat="-29.406903267903065" lon="115.01185291384157"><ele>6.0</ele><time>2026-04-13T05:15:13.001Z</time></trkpt><trkpt lat="-29.406651694056" lon="115.01181422875426"><ele>6.0</ele><time>2026-04-13T05:15:14.001Z</time></trkpt><trkpt lat="-29.40639299010593" lon="115.0117732313049"><ele>6.0</ele><time>2026-04-13T05:15:15.001Z</time></trkpt><trkpt lat="-29.40613655059697" lon="115.01173051729373"><ele>6.5</ele><time>2026-04-13T05:15:16.001Z</time></trkpt><trkpt lat="-29.40588605948883" lon="115.01169231686184"><ele>7.0</ele><time>2026-04-13T05:15:17.001Z</time></trkpt><trkpt lat="-29.40564033755311" lon="115.01165502374943"><ele>8.0</ele><time>2026-04-13T05:15:18.001Z</time></trkpt><trkpt lat="-29.40539348302931" lon="115.01161463018019"><ele>9.0</ele><time>2026-04-13T05:15:19.001Z</time></trkpt><trkpt lat="-29.405146187281673" lon="115.01157593100022"><ele>9.0</ele><time>2026-04-13T05:15:20.001Z</time></trkpt><trkpt lat="-29.404894193166704" lon="115.01153550792375"><ele>9.0</ele><time>2026-04-13T05:15:21.001Z</time></trkpt><trkpt lat="-29.404641693798034" lon="115.01149351810032"><ele>8.0</ele><time>2026-04-13T05:15:22.001Z</time></trkpt><trkpt lat="-29.404382696237946" lon="115.01145383188918"><ele>7.0</ele><time>2026-04-13T05:15:23.001Z</time></trkpt><trkpt lat="-29.404122867310257" lon="115.01141248835374"><ele>7.0</ele><time>2026-04-13T05:15:24.001Z</time></trkpt><trkpt lat="-29.40386548181988" lon="115.01136982472983"><ele>7.0</ele><time>2026-04-13T05:15:25.001Z</time></trkpt><trkpt lat="-29.403608273883826" lon="115.01132838386641"><ele>7.5</ele><time>2026-04-13T05:15:26.001Z</time></trkpt><trkpt lat="-29.403348959440027" lon="115.01128652030914"><ele>8.0</ele><time>2026-04-13T05:15:27.001Z</time></trkpt><trkpt lat="-29.403090543385638" lon="115.01124360021973"><ele>9.0</ele><time>2026-04-13T05:15:28.001Z</time></trkpt><trkpt lat="-29.402828773610988" lon="115.0111967552397"><ele>10.0</ele><time>2026-04-13T05:15:29.001Z</time></trkpt><trkpt lat="-29.4025669580296" lon="115.01115222862089"><ele>10.0</ele><time>2026-04-13T05:15:30.001Z</time></trkpt><trkpt lat="-29.40230357360398" lon="115.01111292896432"><ele>10.0</ele><time>2026-04-13T05:15:31.001Z</time></trkpt><trkpt lat="-29.402038116562682" lon="115.0110726697259"><ele>9.5</ele><time>2026-04-13T05:15:32.001Z</time></trkpt><trkpt lat="-29.401774199718425" lon="115.01101456879849"><ele>9.0</ele><time>2026-04-13T05:15:33.001Z</time></trkpt><trkpt lat="-29.401502491502757" lon="115.01096857089307"><ele>9.0</ele><time>2026-04-13T05:15:34.001Z</time></trkpt><trkpt lat="-29.401226902069748" lon="115.01092273835609"><ele>9.0</ele><time>2026-04-13T05:15:35.001Z</time></trkpt><trkpt lat="-29.400947644123544" lon="115.01087629601875"><ele>9.0</ele><time>2026-04-13T05:15:36.001Z</time></trkpt><trkpt lat="-29.400664625471393" lon="115.01083027630831"><ele>9.0</ele><time>2026-04-13T05:15:37.001Z</time></trkpt><trkpt lat="-29.400376041538028" lon="115.01079984390074"><ele>9.5</ele><time>2026-04-13T05:15:38.001Z</time></trkpt><trkpt lat="-29.400089000827084" lon="115.01074951268644"><ele>10.0</ele><time>2026-04-13T05:15:39.001Z</time></trkpt><trkpt lat="-29.399800450294894" lon="115.0107009085404"><ele>10.0</ele><time>2026-04-13T05:15:40.001Z</time></trkpt><trkpt lat="-29.399510800520577" lon="115.01065379251342"><ele>10.0</ele><time>2026-04-13T05:15:41Z</time></trkpt><trkpt lat="-29.39921737831463" lon="115.01060616387106"><ele>10.0</ele><time>2026-04-13T05:15:42Z</time></trkpt><trkpt lat="-29.398923722646735" lon="115.01055677885708"><ele>10.0</ele><time>2026-04-13T05:15:43Z</time></trkpt><trkpt lat="-29.398627980720963" lon="115.01050785638431"><ele>11.0</ele><time>2026-04-13T05:15:44Z</time></trkpt><trkpt lat="-29.398331015192817" lon="115.01046023670254"><ele>12.0</ele><time>2026-04-13T05:15:45Z</time></trkpt><trkpt lat="-29.398030531427533" lon="115.01041456653329"><ele>12.5</ele><time>2026-04-13T05:15:46Z</time></trkpt><trkpt lat="-29.39772995776108" lon="115.01036801721263"><ele>13.0</ele><time>2026-04-13T05:15:47Z</time></trkpt><trkpt lat="-29.39742834720728" lon="115.01031930023348"><ele>13.0</ele><time>2026-04-13T05:15:48Z</time></trkpt><trkpt lat="-29.397129954558523" lon="115.01026824772747"><ele>13.0</ele><time>2026-04-13T05:15:49Z</time></trkpt><trkpt lat="-29.396830192760603" lon="115.01021688193073"><ele>13.0</ele><time>2026-04-13T05:15:50Z</time></trkpt><trkpt lat="-29.396531515129062" lon="115.01016715414214"><ele>13.0</ele><time>2026-04-13T05:15:51Z</time></trkpt><trkpt lat="-29.396229998750336" lon="115.01011824068209"><ele>13.0</ele><time>2026-04-13T05:15:52Z</time></trkpt><trkpt lat="-29.39593087848315" lon="115.01007144141228"><ele>13.0</ele><time>2026-04-13T05:15:53Z</time></trkpt><trkpt lat="-29.395625338982423" lon="115.01002739838059"><ele>13.5</ele><time>2026-04-13T05:15:54Z</time></trkpt><trkpt lat="-29.395322711130564" lon="115.00998089293118"><ele>14.0</ele><time>2026-04-13T05:15:55Z</time></trkpt><trkpt lat="-29.395015954805263" lon="115.0099298719974"><ele>14.0</ele><time>2026-04-13T05:15:56Z</time></trkpt><trkpt lat="-29.39470714848745" lon="115.00987842737881"><ele>14.0</ele><time>2026-04-13T05:15:57Z</time></trkpt><trkpt lat="-29.394401090128905" lon="115.00982616617051"><ele>14.0</ele><time>2026-04-13T05:15:58Z</time></trkpt><trkpt lat="-29.39409385045165" lon="115.00977073673107"><ele>14.0</ele><time>2026-04-13T05:15:59Z</time></trkpt><trkpt lat="-29.39378912505306" lon="115.0097160624055"><ele>14.0</ele><time>2026-04-13T05:16:00Z</time></trkpt><trkpt lat="-29.393487532858764" lon="115.00966620887428"><ele>14.0</ele><time>2026-04-13T05:16:01Z</time></trkpt><trkpt lat="-29.3931878010867" lon="115.0096231282201"><ele>15.0</ele><time>2026-04-13T05:16:02Z</time></trkpt><trkpt lat="-29.392893157811834" lon="115.00957816223628"><ele>16.0</ele><time>2026-04-13T05:16:03Z</time></trkpt><trkpt lat="-29.392601562383753" lon="115.00953093711736"><ele>16.0</ele><time>2026-04-13T05:16:04Z</time></trkpt><trkpt lat="-29.39231030146244" lon="115.00948036843144"><ele>16.0</ele><time>2026-04-13T05:16:05Z</time></trkpt><trkpt lat="-29.39201786375377" lon="115.00943017943172"><ele>16.5</ele><time>2026-04-13T05:16:06Z</time></trkpt><trkpt lat="-29.391724807261177" lon="115.00938539866539"><ele>17.0</ele><time>2026-04-13T05:16:07Z</time></trkpt><trkpt lat="-29.39143043633474" lon="115.00934318238183"><ele>18.0</ele><time>2026-04-13T05:16:08Z</time></trkpt><trkpt lat="-29.39113735334801" lon="115.00930104851778"><ele>19.0</ele><time>2026-04-13T05:16:09Z</time></trkpt><trkpt lat="-29.390846029731872" lon="115.00925699477693"><ele>19.0</ele><time>2026-04-13T05:16:10Z</time></trkpt><trkpt lat="-29.390551057625157" lon="115.009208625986"><ele>19.0</ele><time>2026-04-13T05:16:11Z</time></trkpt><trkpt lat="-29.390254220934626" lon="115.0091568858316"><ele>17.5</ele><time>2026-04-13T05:16:12Z</time></trkpt><trkpt lat="-29.389953591258692" lon="115.0091032167568"><ele>16.0</ele><time>2026-04-13T05:16:13Z</time></trkpt><trkpt lat="-29.389654887365626" lon="115.00905408626208"><ele>16.0</ele><time>2026-04-13T05:16:14Z</time></trkpt><trkpt lat="-29.389352741631225" lon="115.00900680893585"><ele>16.0</ele><time>2026-04-13T05:16:15Z</time></trkpt><trkpt lat="-29.389050871122052" lon="115.00895704187853"><ele>16.0</ele><time>2026-04-13T05:16:16Z</time></trkpt><trkpt lat="-29.388747986894096" lon="115.00890650151683"><ele>16.0</ele><time>2026-04-13T05:16:17Z</time></trkpt><trkpt lat="-29.388443573854197" lon="115.00885759430768"><ele>16.0</ele><time>2026-04-13T05:16:18Z</time></trkpt><trkpt lat="-29.38813943833678" lon="115.00880712861758"><ele>16.0</ele><time>2026-04-13T05:16:19Z</time></trkpt><trkpt lat="-29.38783495441775" lon="115.00875664056355"><ele>15.5</ele><time>2026-04-13T05:16:20Z</time></trkpt><trkpt lat="-29.387532413675807" lon="115.00870628809197"><ele>15.0</ele><time>2026-04-13T05:16:21Z</time></trkpt><trkpt lat="-29.387224688572385" lon="115.00865677158372"><ele>15.0</ele><time>2026-04-13T05:16:22Z</time></trkpt><trkpt lat="-29.386915940040723" lon="115.00860669391055"><ele>15.0</ele><time>2026-04-13T05:16:23Z</time></trkpt><trkpt lat="-29.38661017048348" lon="115.00855425882064"><ele>14.5</ele><time>2026-04-13T05:16:24Z</time></trkpt><trkpt lat="-29.3863011202887" lon="115.00850477733711"><ele>14.0</ele><time>2026-04-13T05:16:25Z</time></trkpt><trkpt lat="-29.385990260493898" lon="115.0084588049289"><ele>14.0</ele><time>2026-04-13T05:16:26Z</time></trkpt><trkpt lat="-29.385677615048586" lon="115.00840735859353"><ele>14.0</ele><time>2026-04-13T05:16:27Z</time></trkpt><trkpt lat="-29.385361691419636" lon="115.0083507756679"><ele>15.0</ele><time>2026-04-13T05:16:28Z</time></trkpt><trkpt lat="-29.38504864254272" lon="115.00829820756408"><ele>16.0</ele><time>2026-04-13T05:16:29Z</time></trkpt><trkpt lat="-29.384735037425898" lon="115.00824538126899"><ele>14.0</ele><time>2026-04-13T05:16:30Z</time></trkpt><trkpt lat="-29.384110714466576" lon="115.00813939838245"><ele>14.5</ele><time>2026-04-13T05:16:32Z</time></trkpt><trkpt lat="-29.383802777599584" lon="115.00808949379864"><ele>15.0</ele><time>2026-04-13T05:16:33Z</time></trkpt><trkpt lat="-29.383495170844693" lon="115.008038534502"><ele>15.0</ele><time>2026-04-13T05:16:34Z</time></trkpt><trkpt lat="-29.383189907916584" lon="115.00798966184888"><ele>15.0</ele><time>2026-04-13T05:16:35Z</time></trkpt><trkpt lat="-29.382887282022825" lon="115.00794261484143"><ele>15.0</ele><time>2026-04-13T05:16:36Z</time></trkpt><trkpt lat="-29.382587524044784" lon="115.00789754478605"><ele>15.0</ele><time>2026-04-13T05:16:37Z</time></trkpt><trkpt lat="-29.382288876787275" lon="115.00784975609318"><ele>15.0</ele><time>2026-04-13T05:16:38Z</time></trkpt><trkpt lat="-29.381994253954844" lon="115.00780269888192"><ele>15.0</ele><time>2026-04-13T05:16:39Z</time></trkpt><trkpt lat="-29.381697954368143" lon="115.00775066194745"><ele>15.0</ele><time>2026-04-13T05:16:40Z</time></trkpt><trkpt lat="-29.38140591564973" lon="115.00769527902682"><ele>15.0</ele><time>2026-04-13T05:16:41Z</time></trkpt><trkpt lat="-29.381118697474744" lon="115.00764509557854"><ele>14.5</ele><time>2026-04-13T05:16:42Z</time></trkpt><trkpt lat="-29.380833346971453" lon="115.0076018103301"><ele>14.0</ele><time>2026-04-13T05:16:43Z</time></trkpt><trkpt lat="-29.380540437435815" lon="115.00755890035371"><ele>14.5</ele><time>2026-04-13T05:16:44Z</time></trkpt><trkpt lat="-29.380247044437407" lon="115.0075123761923"><ele>15.0</ele><time>2026-04-13T05:16:45Z</time></trkpt><trkpt lat="-29.379952847591227" lon="115.00746253886696"><ele>13.5</ele><time>2026-04-13T05:16:46Z</time></trkpt><trkpt lat="-29.379660352300217" lon="115.00741493662447"><ele>12.0</ele><time>2026-04-13T05:16:47Z</time></trkpt><trkpt lat="-29.379371160342256" lon="115.00735096285104"><ele>12.0</ele><time>2026-04-13T05:16:48Z</time></trkpt><trkpt lat="-29.37908262288717" lon="115.00730295135476"><ele>12.0</ele><time>2026-04-13T05:16:49Z</time></trkpt><trkpt lat="-29.378795535069933" lon="115.00725679230912"><ele>11.5</ele><time>2026-04-13T05:16:50Z</time></trkpt><trkpt lat="-29.37850578013125" lon="115.00720855888999"><ele>11.0</ele><time>2026-04-13T05:16:51Z</time></trkpt><trkpt lat="-29.37821274399658" lon="115.0071771253014"><ele>12.0</ele><time>2026-04-13T05:16:52Z</time></trkpt><trkpt lat="-29.377920492236033" lon="115.00713330482205"><ele>13.0</ele><time>2026-04-13T05:16:53Z</time></trkpt><trkpt lat="-29.377626116578767" lon="115.0070918703384"><ele>13.0</ele><time>2026-04-13T05:16:54Z</time></trkpt><trkpt lat="-29.37732951901067" lon="115.00705905351818"><ele>13.0</ele><time>2026-04-13T05:16:55Z</time></trkpt><trkpt lat="-29.37703232992059" lon="115.00703730617356"><ele>13.5</ele><time>2026-04-13T05:16:56Z</time></trkpt><trkpt lat="-29.376733505492382" lon="115.00702520022939"><ele>14.0</ele><time>2026-04-13T05:16:57Z</time></trkpt><trkpt lat="-29.376435264065684" lon="115.00701941263536"><ele>14.5</ele><time>2026-04-13T05:16:58Z</time></trkpt><trkpt lat="-29.37613847492529" lon="115.00701375981542"><ele>15.0</ele><time>2026-04-13T05:16:59Z</time></trkpt><trkpt lat="-29.375842250444652" lon="115.00698351670476"><ele>15.0</ele><time>2026-04-13T05:17:00Z</time></trkpt><trkpt lat="-29.37554421086395" lon="115.00697115709417"><ele>15.0</ele><time>2026-04-13T05:17:01Z</time></trkpt><trkpt lat="-29.375246873806894" lon="115.00697799579089"><ele>14.5</ele><time>2026-04-13T05:17:02Z</time></trkpt><trkpt lat="-29.374948859015806" lon="115.00696432245222"><ele>14.0</ele><time>2026-04-13T05:17:03Z</time></trkpt><trkpt lat="-29.3746497688669" lon="115.00695109007168"><ele>14.0</ele><time>2026-04-13T05:17:04Z</time></trkpt><trkpt lat="-29.374349899235355" lon="115.00693925940432"><ele>14.0</ele><time>2026-04-13T05:17:05Z</time></trkpt><trkpt lat="-29.374051122022195" lon="115.0069290910539"><ele>13.5</ele><time>2026-04-13T05:17:06Z</time></trkpt><trkpt lat="-29.373752131580602" lon="115.00692047581111"><ele>13.0</ele><time>2026-04-13T05:17:07Z</time></trkpt><trkpt lat="-29.37345491882071" lon="115.00691102533472"><ele>13.0</ele><time>2026-04-13T05:17:08.001Z</time></trkpt><trkpt lat="-29.373159935301405" lon="115.00690182139591"><ele>13.0</ele><time>2026-04-13T05:17:09.001Z</time></trkpt><trkpt lat="-29.37286564189163" lon="115.00689116797274"><ele>13.0</ele><time>2026-04-13T05:17:10.001Z</time></trkpt><trkpt lat="-29.37256989190999" lon="115.00687846992163"><ele>13.0</ele><time>2026-04-13T05:17:11.001Z</time></trkpt><trkpt lat="-29.37227376498573" lon="115.00686650127666"><ele>14.0</ele><time>2026-04-13T05:17:12.001Z</time></trkpt><trkpt lat="-29.371976633784318" lon="115.00685548282449"><ele>15.0</ele><time>2026-04-13T05:17:13.001Z</time></trkpt><trkpt lat="-29.371677203371664" lon="115.00684268897623"><ele>15.0</ele><time>2026-04-13T05:17:14.001Z</time></trkpt><trkpt lat="-29.37137807220884" lon="115.00682986884327"><ele>15.0</ele><time>2026-04-13T05:17:15.001Z</time></trkpt><trkpt lat="-29.371075963049975" lon="115.00682049351313"><ele>14.5</ele><time>2026-04-13T05:17:16.001Z</time></trkpt><trkpt lat="-29.37077201827647" lon="115.00680998255945"><ele>14.0</ele><time>2026-04-13T05:17:17.001Z</time></trkpt><trkpt lat="-29.37046778863642" lon="115.00679917310768"><ele>15.0</ele><time>2026-04-13T05:17:18.001Z</time></trkpt><trkpt lat="-29.37016264783975" lon="115.00679048250086"><ele>16.0</ele><time>2026-04-13T05:17:19.001Z</time></trkpt><trkpt lat="-29.369859901462288" lon="115.00678106985512"><ele>15.5</ele><time>2026-04-13T05:17:20.001Z</time></trkpt><trkpt lat="-29.36955361961717" lon="115.00676794216196"><ele>15.0</ele><time>2026-04-13T05:17:21.001Z</time></trkpt><trkpt lat="-29.369244272798078" lon="115.00675365178878"><ele>15.0</ele><time>2026-04-13T05:17:22.001Z</time></trkpt><trkpt lat="-29.368936074517467" lon="115.0067438318745"><ele>15.0</ele><time>2026-04-13T05:17:23.001Z</time></trkpt><trkpt lat="-29.368627376892654" lon="115.00673269337122"><ele>15.0</ele><time>2026-04-13T05:17:24.001Z</time></trkpt><trkpt lat="-29.36831656641466" lon="115.00672085613569"><ele>15.0</ele><time>2026-04-13T05:17:25.001Z</time></trkpt><trkpt lat="-29.368006234134647" lon="115.00670939746189"><ele>17.0</ele><time>2026-04-13T05:17:26.001Z</time></trkpt><trkpt lat="-29.367696563296867" lon="115.00669627542302"><ele>19.0</ele><time>2026-04-13T05:17:27.001Z</time></trkpt><trkpt lat="-29.367391092301588" lon="115.00668660385517"><ele>19.0</ele><time>2026-04-13T05:17:28.001Z</time></trkpt><trkpt lat="-29.367090099300402" lon="115.00668945887743"><ele>19.0</ele><time>2026-04-13T05:17:29.001Z</time></trkpt><trkpt lat="-29.366785392722694" lon="115.00670199988365"><ele>19.0</ele><time>2026-04-13T05:17:30.001Z</time></trkpt><trkpt lat="-29.36648566326138" lon="115.00672329198058"><ele>19.0</ele><time>2026-04-13T05:17:31.001Z</time></trkpt><trkpt lat="-29.36618905838659" lon="115.00675491523414"><ele>19.0</ele><time>2026-04-13T05:17:32.001Z</time></trkpt><trkpt lat="-29.36589728412847" lon="115.00680528177585"><ele>19.0</ele><time>2026-04-13T05:17:33.001Z</time></trkpt><trkpt lat="-29.36560647210614" lon="115.00686998040668"><ele>20.5</ele><time>2026-04-13T05:17:34.001Z</time></trkpt><trkpt lat="-29.365315884223268" lon="115.00694507298417"><ele>22.0</ele><time>2026-04-13T05:17:35.001Z</time></trkpt><trkpt lat="-29.36502309016582" lon="115.00703013753"><ele>22.0</ele><time>2026-04-13T05:17:36.001Z</time></trkpt><trkpt lat="-29.364730062647595" lon="115.00712633868824"><ele>22.0</ele><time>2026-04-13T05:17:37.001Z</time></trkpt><trkpt lat="-29.364442108394307" lon="115.00723991420472"><ele>22.5</ele><time>2026-04-13T05:17:38.001Z</time></trkpt><trkpt lat="-29.364158220075794" lon="115.00736810524559"><ele>23.0</ele><time>2026-04-13T05:17:39.001Z</time></trkpt><trkpt lat="-29.363878281942494" lon="115.0075068497295"><ele>26.5</ele><time>2026-04-13T05:17:40.001Z</time></trkpt><trkpt lat="-29.363600488305316" lon="115.00765460036565"><ele>30.0</ele><time>2026-04-13T05:17:41.001Z</time></trkpt><trkpt lat="-29.36333096567979" lon="115.00781239627909"><ele>30.0</ele><time>2026-04-13T05:17:42.001Z</time></trkpt><trkpt lat="-29.363061814925924" lon="115.00798044867709"><ele>30.0</ele><time>2026-04-13T05:17:43.001Z</time></trkpt><trkpt lat="-29.362796193212187" lon="115.00815572310377"><ele>30.5</ele><time>2026-04-13T05:17:44.001Z</time></trkpt><trkpt lat="-29.362528241962117" lon="115.00833340496374"><ele>31.0</ele><time>2026-04-13T05:17:45.001Z</time></trkpt><trkpt lat="-29.362263908047233" lon="115.00850832237107"><ele>31.5</ele><time>2026-04-13T05:17:46.001Z</time></trkpt><trkpt lat="-29.361997459092912" lon="115.00868421781867"><ele>32.0</ele><time>2026-04-13T05:17:47Z</time></trkpt><trkpt lat="-29.36173227662474" lon="115.00885986106657"><ele>32.0</ele><time>2026-04-13T05:17:48Z</time></trkpt><trkpt lat="-29.361462409531736" lon="115.0090329276195"><ele>32.0</ele><time>2026-04-13T05:17:49Z</time></trkpt><trkpt lat="-29.361188389690053" lon="115.00920171557088"><ele>31.5</ele><time>2026-04-13T05:17:50Z</time></trkpt><trkpt lat="-29.36091446192707" lon="115.00937116820178"><ele>31.0</ele><time>2026-04-13T05:17:51Z</time></trkpt><trkpt lat="-29.360641098155437" lon="115.00954776380567"><ele>28.0</ele><time>2026-04-13T05:17:52Z</time></trkpt><trkpt lat="-29.3603642268641" lon="115.00972902123368"><ele>25.0</ele><time>2026-04-13T05:17:53Z</time></trkpt><trkpt lat="-29.36008607178873" lon="115.0099080440007"><ele>24.5</ele><time>2026-04-13T05:17:54Z</time></trkpt><trkpt lat="-29.359808131539037" lon="115.01008847911083"><ele>24.0</ele><time>2026-04-13T05:17:55Z</time></trkpt><trkpt lat="-29.359534549193114" lon="115.01026862181975"><ele>24.0</ele><time>2026-04-13T05:17:56Z</time></trkpt><trkpt lat="-29.35926072138475" lon="115.01044603311124"><ele>24.0</ele><time>2026-04-13T05:17:57Z</time></trkpt><trkpt lat="-29.358986424272324" lon="115.01062048077483"><ele>25.0</ele><time>2026-04-13T05:17:58Z</time></trkpt><trkpt lat="-29.3587150862947" lon="115.010795114543"><ele>26.0</ele><time>2026-04-13T05:17:59Z</time></trkpt><trkpt lat="-29.35844639840556" lon="115.01097198056108"><ele>23.0</ele><time>2026-04-13T05:18:00Z</time></trkpt><trkpt lat="-29.35817755584626" lon="115.01114971071712"><ele>20.0</ele><time>2026-04-13T05:18:01Z</time></trkpt><trkpt lat="-29.35791075583027" lon="115.01132093127488"><ele>19.0</ele><time>2026-04-13T05:18:02Z</time></trkpt><trkpt lat="-29.357644440319014" lon="115.01149123434959"><ele>18.0</ele><time>2026-04-13T05:18:03Z</time></trkpt><trkpt lat="-29.357379562948196" lon="115.01166284585625"><ele>19.5</ele><time>2026-04-13T05:18:04Z</time></trkpt><trkpt lat="-29.357111309724374" lon="115.01183387147925"><ele>21.0</ele><time>2026-04-13T05:18:05Z</time></trkpt><trkpt lat="-29.3568384357841" lon="115.01200754750981"><ele>21.0</ele><time>2026-04-13T05:18:06Z</time></trkpt><trkpt lat="-29.356563264760723" lon="115.01217659493717"><ele>21.0</ele><time>2026-04-13T05:18:07Z</time></trkpt><trkpt lat="-29.3562853558434" lon="115.0123375505613"><ele>21.0</ele><time>2026-04-13T05:18:08Z</time></trkpt><trkpt lat="-29.35599639948351" lon="115.01248250667479"><ele>21.0</ele><time>2026-04-13T05:18:09Z</time></trkpt><trkpt lat="-29.35570223365449" lon="115.01260454226268"><ele>21.5</ele><time>2026-04-13T05:18:10Z</time></trkpt><trkpt lat="-29.355402685419023" lon="115.01270905532691"><ele>22.0</ele><time>2026-04-13T05:18:11Z</time></trkpt><trkpt lat="-29.355101663535184" lon="115.01280455057604"><ele>22.0</ele><time>2026-04-13T05:18:12Z</time></trkpt><trkpt lat="-29.354800383380905" lon="115.01289255479861"><ele>22.0</ele><time>2026-04-13T05:18:13Z</time></trkpt><trkpt lat="-29.354500863906352" lon="115.01296787013266"><ele>24.5</ele><time>2026-04-13T05:18:14Z</time></trkpt><trkpt lat="-29.354200569045197" lon="115.01302514157206"><ele>27.0</ele><time>2026-04-13T05:18:15Z</time></trkpt><trkpt lat="-29.35389813376292" lon="115.01306633641501"><ele>28.5</ele><time>2026-04-13T05:18:16Z</time></trkpt><trkpt lat="-29.353593515179877" lon="115.01309140750926"><ele>30.0</ele><time>2026-04-13T05:18:17Z</time></trkpt><trkpt lat="-29.35328736774186" lon="115.01310487282998"><ele>31.0</ele><time>2026-04-13T05:18:18Z</time></trkpt><trkpt lat="-29.352979873887058" lon="115.01310777052883"><ele>32.0</ele><time>2026-04-13T05:18:19Z</time></trkpt><trkpt lat="-29.352670525534258" lon="115.01310541814792"><ele>32.0</ele><time>2026-04-13T05:18:20Z</time></trkpt><trkpt lat="-29.352362622282307" lon="115.01310293373596"><ele>32.0</ele><time>2026-04-13T05:18:21Z</time></trkpt><trkpt lat="-29.35205288910953" lon="115.01309893750015"><ele>33.0</ele><time>2026-04-13T05:18:22Z</time></trkpt><trkpt lat="-29.35174467082121" lon="115.01310041539077"><ele>34.0</ele><time>2026-04-13T05:18:23Z</time></trkpt><trkpt lat="-29.351435374142763" lon="115.013107902635"><ele>34.0</ele><time>2026-04-13T05:18:24Z</time></trkpt><trkpt lat="-29.351124552009193" lon="115.01311526561481"><ele>34.0</ele><time>2026-04-13T05:18:25Z</time></trkpt><trkpt lat="-29.350815788542516" lon="115.01312290362497"><ele>36.0</ele><time>2026-04-13T05:18:26Z</time></trkpt><trkpt lat="-29.350509240477468" lon="115.01313030869287"><ele>38.0</ele><time>2026-04-13T05:18:27Z</time></trkpt><trkpt lat="-29.35020034569643" lon="115.01313544549232"><ele>38.0</ele><time>2026-04-13T05:18:28Z</time></trkpt><trkpt lat="-29.349894999614857" lon="115.01313642583676"><ele>38.0</ele><time>2026-04-13T05:18:29Z</time></trkpt><trkpt lat="-29.349591113508353" lon="115.01314086086546"><ele>37.0</ele><time>2026-04-13T05:18:30Z</time></trkpt><trkpt lat="-29.349288975174606" lon="115.01314597075219"><ele>36.0</ele><time>2026-04-13T05:18:31Z</time></trkpt><trkpt lat="-29.348988250961444" lon="115.01314773529907"><ele>34.0</ele><time>2026-04-13T05:18:32Z</time></trkpt><trkpt lat="-29.34868599733273" lon="115.0131438189052"><ele>32.0</ele><time>2026-04-13T05:18:33Z</time></trkpt><trkpt lat="-29.348386954898675" lon="115.01313388726271"><ele>32.0</ele><time>2026-04-13T05:18:34Z</time></trkpt><trkpt lat="-29.34808816486277" lon="115.0131136950565"><ele>32.0</ele><time>2026-04-13T05:18:35Z</time></trkpt><trkpt lat="-29.34778518624387" lon="115.01307935749347"><ele>33.5</ele><time>2026-04-13T05:18:36Z</time></trkpt><trkpt lat="-29.34748407641883" lon="115.01303195148606"><ele>35.0</ele><time>2026-04-13T05:18:37Z</time></trkpt><trkpt lat="-29.347180443874553" lon="115.012968377505"><ele>35.0</ele><time>2026-04-13T05:18:38Z</time></trkpt><trkpt lat="-29.34687740460261" lon="115.01290474955573"><ele>35.0</ele><time>2026-04-13T05:18:39Z</time></trkpt><trkpt lat="-29.34657688623024" lon="115.01283958575851"><ele>35.0</ele><time>2026-04-13T05:18:40Z</time></trkpt><trkpt lat="-29.34627555889134" lon="115.0127735374771"><ele>35.0</ele><time>2026-04-13T05:18:41Z</time></trkpt><trkpt lat="-29.345973738126343" lon="115.01270767513142"><ele>35.0</ele><time>2026-04-13T05:18:42Z</time></trkpt><trkpt lat="-29.345673728556534" lon="115.0126431191188"><ele>35.0</ele><time>2026-04-13T05:18:43Z</time></trkpt><trkpt lat="-29.345376169930113" lon="115.0125770352993"><ele>34.5</ele><time>2026-04-13T05:18:44Z</time></trkpt><trkpt lat="-29.34508016842212" lon="115.01251496437042"><ele>34.0</ele><time>2026-04-13T05:18:45Z</time></trkpt><trkpt lat="-29.344785359126075" lon="115.01245440864142"><ele>34.0</ele><time>2026-04-13T05:18:46Z</time></trkpt><trkpt lat="-29.344490113643204" lon="115.01239630084419"><ele>34.0</ele><time>2026-04-13T05:18:47Z</time></trkpt><trkpt lat="-29.34419257589616" lon="115.0123368271926"><ele>34.0</ele><time>2026-04-13T05:18:48Z</time></trkpt><trkpt lat="-29.343895856693244" lon="115.012275761022"><ele>34.0</ele><time>2026-04-13T05:18:49Z</time></trkpt><trkpt lat="-29.343600969382297" lon="115.01221309859017"><ele>34.5</ele><time>2026-04-13T05:18:50Z</time></trkpt><trkpt lat="-29.34331039900417" lon="115.01215178760539"><ele>35.0</ele><time>2026-04-13T05:18:51Z</time></trkpt><trkpt lat="-29.343019803731604" lon="115.01209375618632"><ele>36.0</ele><time>2026-04-13T05:18:52Z</time></trkpt><trkpt lat="-29.3427270918918" lon="115.01203630409775"><ele>37.0</ele><time>2026-04-13T05:18:53Z</time></trkpt><trkpt lat="-29.342435057190066" lon="115.01198054751616"><ele>36.5</ele><time>2026-04-13T05:18:54Z</time></trkpt><trkpt lat="-29.342140821230252" lon="115.01192346388002"><ele>36.0</ele><time>2026-04-13T05:18:55Z</time></trkpt><trkpt lat="-29.341845881653146" lon="115.01186360474287"><ele>36.0</ele><time>2026-04-13T05:18:56Z</time></trkpt><trkpt lat="-29.341549075808743" lon="115.01180480503396"><ele>36.0</ele><time>2026-04-13T05:18:57Z</time></trkpt><trkpt lat="-29.34125105296751" lon="115.01174860567431"><ele>35.5</ele><time>2026-04-13T05:18:58Z</time></trkpt><trkpt lat="-29.340951132511922" lon="115.011691631355"><ele>35.0</ele><time>2026-04-13T05:18:59Z</time></trkpt><trkpt lat="-29.340651967842017" lon="115.01163273679103"><ele>33.5</ele><time>2026-04-13T05:19:00Z</time></trkpt><trkpt lat="-29.340351512504018" lon="115.0115744770222"><ele>32.0</ele><time>2026-04-13T05:19:01Z</time></trkpt><trkpt lat="-29.340049189907162" lon="115.01151956227825"><ele>32.0</ele><time>2026-04-13T05:19:02Z</time></trkpt><trkpt lat="-29.33974684234837" lon="115.01146451565502"><ele>32.0</ele><time>2026-04-13T05:19:03Z</time></trkpt><trkpt lat="-29.33944415798311" lon="115.01140898805997"><ele>32.0</ele><time>2026-04-13T05:19:04Z</time></trkpt><trkpt lat="-29.339144334947772" lon="115.01133251609167"><ele>32.0</ele><time>2026-04-13T05:19:05Z</time></trkpt><trkpt lat="-29.338840475084943" lon="115.01127309783733"><ele>31.5</ele><time>2026-04-13T05:19:06Z</time></trkpt><trkpt lat="-29.33853818785417" lon="115.01121195291991"><ele>31.0</ele><time>2026-04-13T05:19:07Z</time></trkpt><trkpt lat="-29.338235486887037" lon="115.01115024370377"><ele>31.5</ele><time>2026-04-13T05:19:08Z</time></trkpt><trkpt lat="-29.337929742376613" lon="115.0111046201878"><ele>32.0</ele><time>2026-04-13T05:19:09Z</time></trkpt><trkpt lat="-29.3376270329877" lon="115.01104220564265"><ele>32.0</ele><time>2026-04-13T05:19:10Z</time></trkpt><trkpt lat="-29.3373267684077" lon="115.01098236914116"><ele>32.0</ele><time>2026-04-13T05:19:11Z</time></trkpt><trkpt lat="-29.337025420682757" lon="115.01092500015945"><ele>30.0</ele><time>2026-04-13T05:19:12Z</time></trkpt><trkpt lat="-29.336727293275562" lon="115.01086833327055"><ele>28.0</ele><time>2026-04-13T05:19:13.001Z</time></trkpt><trkpt lat="-29.33643100115141" lon="115.01078912967758"><ele>26.5</ele><time>2026-04-13T05:19:14.001Z</time></trkpt><trkpt lat="-29.33613169439284" lon="115.01072810123567"><ele>25.0</ele><time>2026-04-13T05:19:15.001Z</time></trkpt><trkpt lat="-29.335829552481858" lon="115.01066798157294"><ele>24.5</ele><time>2026-04-13T05:19:16.001Z</time></trkpt><trkpt lat="-29.335526108665967" lon="115.01062207719109"><ele>24.0</ele><time>2026-04-13T05:19:17.001Z</time></trkpt><trkpt lat="-29.335226738185423" lon="115.01055835058429"><ele>24.0</ele><time>2026-04-13T05:19:18.001Z</time></trkpt><trkpt lat="-29.334925351288337" lon="115.01050053836714"><ele>24.0</ele><time>2026-04-13T05:19:19.001Z</time></trkpt><trkpt lat="-29.334626386177764" lon="115.01044214156403"><ele>23.0</ele><time>2026-04-13T05:19:20.001Z</time></trkpt><trkpt lat="-29.334326622090042" lon="115.01038314195715"><ele>22.0</ele><time>2026-04-13T05:19:21.001Z</time></trkpt><trkpt lat="-29.334023261268445" lon="115.01032223233662"><ele>22.0</ele><time>2026-04-13T05:19:22.001Z</time></trkpt><trkpt lat="-29.333720525298112" lon="115.0102622040223"><ele>22.0</ele><time>2026-04-13T05:19:23.001Z</time></trkpt><trkpt lat="-29.33310478854349" lon="115.01014102378845"><ele>23.0</ele><time>2026-04-13T05:19:25.001Z</time></trkpt><trkpt lat="-29.332798788162577" lon="115.01007778412097"><ele>24.0</ele><time>2026-04-13T05:19:26.001Z</time></trkpt><trkpt lat="-29.332490398068433" lon="115.0100147044147"><ele>23.5</ele><time>2026-04-13T05:19:27.001Z</time></trkpt><trkpt lat="-29.33218345344443" lon="115.00995537980451"><ele>23.0</ele><time>2026-04-13T05:19:28.001Z</time></trkpt><trkpt lat="-29.33187950486184" lon="115.00989661961009"><ele>23.0</ele><time>2026-04-13T05:19:29.001Z</time></trkpt><trkpt lat="-29.331581782557876" lon="115.00981902518059"><ele>23.0</ele><time>2026-04-13T05:19:30.001Z</time></trkpt><trkpt lat="-29.331280683860225" lon="115.00975927878028"><ele>23.0</ele><time>2026-04-13T05:19:31.001Z</time></trkpt><trkpt lat="-29.330976966218753" lon="115.00971822591549"><ele>23.0</ele><time>2026-04-13T05:19:32.001Z</time></trkpt><trkpt lat="-29.33067712563097" lon="115.00965584240625"><ele>22.5</ele><time>2026-04-13T05:19:33.001Z</time></trkpt><trkpt lat="-29.330378346456474" lon="115.00959175279468"><ele>22.0</ele><time>2026-04-13T05:19:34.001Z</time></trkpt><trkpt lat="-29.33007485755167" lon="115.00952859047703"><ele>22.0</ele><time>2026-04-13T05:19:35.001Z</time></trkpt><trkpt lat="-29.32977069046095" lon="115.00946751318789"><ele>22.0</ele><time>2026-04-13T05:19:36.001Z</time></trkpt><trkpt lat="-29.329466832129803" lon="115.00940814938232"><ele>22.5</ele><time>2026-04-13T05:19:37.001Z</time></trkpt><trkpt lat="-29.329159727947495" lon="115.0093507013526"><ele>23.0</ele><time>2026-04-13T05:19:38.001Z</time></trkpt><trkpt lat="-29.32885868478715" lon="115.00927226910686"><ele>24.0</ele><time>2026-04-13T05:19:39.001Z</time></trkpt><trkpt lat="-29.328552123906093" lon="115.00921011622027"><ele>25.0</ele><time>2026-04-13T05:19:40.001Z</time></trkpt><trkpt lat="-29.328245792727852" lon="115.00914863970098"><ele>26.5</ele><time>2026-04-13T05:19:41.001Z</time></trkpt><trkpt lat="-29.327942043459235" lon="115.00908785911125"><ele>28.0</ele><time>2026-04-13T05:19:42.001Z</time></trkpt><trkpt lat="-29.32763506651419" lon="115.00904403072063"><ele>28.0</ele><time>2026-04-13T05:19:43.001Z</time></trkpt><trkpt lat="-29.327332629946465" lon="115.00898193939386"><ele>28.0</ele><time>2026-04-13T05:19:44.001Z</time></trkpt><trkpt lat="-29.32702885641549" lon="115.00892236617231"><ele>28.0</ele><time>2026-04-13T05:19:45.001Z</time></trkpt><trkpt lat="-29.32672606134234" lon="115.008843264304"><ele>28.0</ele><time>2026-04-13T05:19:46.001Z</time></trkpt><trkpt lat="-29.3264186220146" lon="115.0087827130601"><ele>28.5</ele><time>2026-04-13T05:19:47.001Z</time></trkpt><trkpt lat="-29.32611145710781" lon="115.00872179006114"><ele>29.0</ele><time>2026-04-13T05:19:48.001Z</time></trkpt><trkpt lat="-29.325796941005468" lon="115.00867886110244"><ele>29.0</ele><time>2026-04-13T05:19:49.001Z</time></trkpt><trkpt lat="-29.325485745783535" lon="115.00861368382351"><ele>29.0</ele><time>2026-04-13T05:19:50.001Z</time></trkpt><trkpt lat="-29.325173116924702" lon="115.00855225151979"><ele>29.0</ele><time>2026-04-13T05:19:51.001Z</time></trkpt><trkpt lat="-29.324862964698827" lon="115.00847048511552"><ele>29.0</ele><time>2026-04-13T05:19:52.001Z</time></trkpt><trkpt lat="-29.324549525212202" lon="115.00841100122993"><ele>30.5</ele><time>2026-04-13T05:19:53Z</time></trkpt><trkpt lat="-29.324235272736782" lon="115.00835136291106"><ele>32.0</ele><time>2026-04-13T05:19:54Z</time></trkpt><trkpt lat="-29.32392334806163" lon="115.00829455616959"><ele>33.5</ele><time>2026-04-13T05:19:55Z</time></trkpt><trkpt lat="-29.32359685419707" lon="115.00830651985031"><ele>35.0</ele><time>2026-04-13T05:19:56Z</time></trkpt><trkpt lat="-29.323274822318645" lon="115.0082923862041"><ele>35.0</ele><time>2026-04-13T05:19:57Z</time></trkpt><trkpt lat="-29.32295121169509" lon="115.00829132718796"><ele>35.0</ele><time>2026-04-13T05:19:58Z</time></trkpt><trkpt lat="-29.322628265891787" lon="115.00829758240451"><ele>35.0</ele><time>2026-04-13T05:19:59Z</time></trkpt><trkpt lat="-29.322305511644178" lon="115.00830854632146"><ele>35.0</ele><time>2026-04-13T05:20:00Z</time></trkpt><trkpt lat="-29.321989619867058" lon="115.00831445382119"><ele>35.5</ele><time>2026-04-13T05:20:01Z</time></trkpt><trkpt lat="-29.32167444045377" lon="115.00831389484522"><ele>36.0</ele><time>2026-04-13T05:20:02Z</time></trkpt><trkpt lat="-29.32136430811434" lon="115.00830888226635"><ele>36.5</ele><time>2026-04-13T05:20:03Z</time></trkpt><trkpt lat="-29.32105012721706" lon="115.0083036434932"><ele>37.0</ele><time>2026-04-13T05:20:04Z</time></trkpt><trkpt lat="-29.3207346241907" lon="115.00829688903144"><ele>37.0</ele><time>2026-04-13T05:20:05Z</time></trkpt><trkpt lat="-29.32041800372158" lon="115.00829314744333"><ele>37.0</ele><time>2026-04-13T05:20:06Z</time></trkpt><trkpt lat="-29.320102316050114" lon="115.00829434893481"><ele>37.0</ele><time>2026-04-13T05:20:07Z</time></trkpt><trkpt lat="-29.31978248542847" lon="115.0082982087823"><ele>37.0</ele><time>2026-04-13T05:20:08Z</time></trkpt><trkpt lat="-29.319468525700973" lon="115.00829924581758"><ele>37.5</ele><time>2026-04-13T05:20:09Z</time></trkpt><trkpt lat="-29.3191551984846" lon="115.00829971889583"><ele>38.0</ele><time>2026-04-13T05:20:10Z</time></trkpt><trkpt lat="-29.31884726381916" lon="115.00830130264745"><ele>39.5</ele><time>2026-04-13T05:20:11Z</time></trkpt><trkpt lat="-29.318546045320495" lon="115.00830160046958"><ele>41.0</ele><time>2026-04-13T05:20:12Z</time></trkpt><trkpt lat="-29.31825153663884" lon="115.00829462156592"><ele>40.0</ele><time>2026-04-13T05:20:13Z</time></trkpt><trkpt lat="-29.317972189664992" lon="115.00828182121926"><ele>39.0</ele><time>2026-04-13T05:20:14Z</time></trkpt><trkpt lat="-29.317722625350786" lon="115.00827290753477"><ele>39.0</ele><time>2026-04-13T05:20:15Z</time></trkpt><trkpt lat="-29.31750986079299" lon="115.00826946011982"><ele>39.0</ele><time>2026-04-13T05:20:16Z</time></trkpt><trkpt lat="-29.317327314469868" lon="115.00826931036234"><ele>39.0</ele><time>2026-04-13T05:20:17Z</time></trkpt><trkpt lat="-29.31718740624252" lon="115.00826926472675"><ele>38.333333333333336</ele><time>2026-04-13T05:20:18Z</time></trkpt><trkpt lat="-29.31708045696598" lon="115.00826176738937"><ele>37.666666666666664</ele><time>2026-04-13T05:20:19Z</time></trkpt><trkpt lat="-29.31701007852017" lon="115.00823403901252"><ele>37.0</ele><time>2026-04-13T05:20:20Z</time></trkpt><trkpt lat="-29.316969198347774" lon="115.00816939948663"><ele>36.33333333333333</ele><time>2026-04-13T05:20:21Z</time></trkpt><trkpt lat="-29.316936026890392" lon="115.00808198703727"><ele>35.666666666666664</ele><time>2026-04-13T05:20:22Z</time></trkpt><trkpt lat="-29.316926374406197" lon="115.0079594550031"><ele>35.0</ele><time>2026-04-13T05:20:23Z</time></trkpt><trkpt lat="-29.316937244326162" lon="115.00782675343463"><ele>35.0</ele><time>2026-04-13T05:20:24Z</time></trkpt><trkpt lat="-29.316962191114513" lon="115.00767159705525"><ele>35.0</ele><time>2026-04-13T05:20:25Z</time></trkpt><trkpt lat="-29.31697092525406" lon="115.0074994590125"><ele>35.0</ele><time>2026-04-13T05:20:26Z</time></trkpt><trkpt lat="-29.316972978867653" lon="115.00731907493709"><ele>35.0</ele><time>2026-04-13T05:20:27Z</time></trkpt><trkpt lat="-29.31698221613093" lon="115.00713900525253"><ele>35.0</ele><time>2026-04-13T05:20:28Z</time></trkpt><trkpt lat="-29.31700158130928" lon="115.006946378949"><ele>35.0</ele><time>2026-04-13T05:20:29Z</time></trkpt><trkpt lat="-29.31702695077168" lon="115.00674599599877"><ele>35.0</ele><time>2026-04-13T05:20:30Z</time></trkpt><trkpt lat="-29.317057580774197" lon="115.00653779689387"><ele>35.33333333333333</ele><time>2026-04-13T05:20:31Z</time></trkpt><trkpt lat="-29.317094008102245" lon="115.00632564603922"><ele>35.666666666666664</ele><time>2026-04-13T05:20:32Z</time></trkpt><trkpt lat="-29.31713969700207" lon="115.00610792035603"><ele>36.0</ele><time>2026-04-13T05:20:33Z</time></trkpt><trkpt lat="-29.317254091732522" lon="115.00566314236865"><ele>37.0</ele><time>2026-04-13T05:20:35Z</time></trkpt><trkpt lat="-29.317311072204234" lon="115.00543671050613"><ele>38.0</ele><time>2026-04-13T05:20:36Z</time></trkpt><trkpt lat="-29.31734744683021" lon="115.00519638275088"><ele>39.0</ele><time>2026-04-13T05:20:37Z</time></trkpt><trkpt lat="-29.317366872437976" lon="115.00495628287479"><ele>39.0</ele><time>2026-04-13T05:20:38Z</time></trkpt><trkpt lat="-29.31738763230338" lon="115.00470818497438"><ele>39.0</ele><time>2026-04-13T05:20:39Z</time></trkpt><trkpt lat="-29.317408093907893" lon="115.00444063352626"><ele>39.0</ele><time>2026-04-13T05:20:40Z</time></trkpt><trkpt lat="-29.317414598899596" lon="115.0041654551053"><ele>39.0</ele><time>2026-04-13T05:20:41Z</time></trkpt><trkpt lat="-29.317417745400014" lon="115.0039004292339"><ele>40.0</ele><time>2026-04-13T05:20:42Z</time></trkpt><trkpt lat="-29.317420429780967" lon="115.00362103269482"><ele>41.0</ele><time>2026-04-13T05:20:43Z</time></trkpt><trkpt lat="-29.317418929544772" lon="115.00333361092096"><ele>43.0</ele><time>2026-04-13T05:20:44Z</time></trkpt><trkpt lat="-29.317421054868245" lon="115.00303696593019"><ele>45.0</ele><time>2026-04-13T05:20:45Z</time></trkpt><trkpt lat="-29.317424811121956" lon="115.00273516503242"><ele>44.0</ele><time>2026-04-13T05:20:46Z</time></trkpt><trkpt lat="-29.317424931321376" lon="115.00242729652732"><ele>43.0</ele><time>2026-04-13T05:20:47Z</time></trkpt><trkpt lat="-29.31742423158227" lon="115.00212115514388"><ele>43.0</ele><time>2026-04-13T05:20:48Z</time></trkpt><trkpt lat="-29.317424337794417" lon="115.0018139703415"><ele>43.0</ele><time>2026-04-13T05:20:49Z</time></trkpt><trkpt lat="-29.317423844479368" lon="115.00150696100536"><ele>43.5</ele><time>2026-04-13T05:20:50Z</time></trkpt><trkpt lat="-29.317421425173848" lon="115.00120092502836"><ele>44.0</ele><time>2026-04-13T05:20:51Z</time></trkpt><trkpt lat="-29.317417733489144" lon="115.00089449086396"><ele>42.5</ele><time>2026-04-13T05:20:52Z</time></trkpt><trkpt lat="-29.317418082137973" lon="115.00058606211947"><ele>41.0</ele><time>2026-04-13T05:20:53Z</time></trkpt><trkpt lat="-29.31742018005361" lon="115.00027436307323"><ele>41.0</ele><time>2026-04-13T05:20:54Z</time></trkpt><trkpt lat="-29.31742072768685" lon="114.9999660690064"><ele>41.0</ele><time>2026-04-13T05:20:55Z</time></trkpt><trkpt lat="-29.317418373135297" lon="114.99965617819903"><ele>41.0</ele><time>2026-04-13T05:20:56Z</time></trkpt><trkpt lat="-29.31741865613643" lon="114.99934568525163"><ele>41.0</ele><time>2026-04-13T05:20:57Z</time></trkpt><trkpt lat="-29.317420464548807" lon="114.99903481604984"><ele>40.5</ele><time>2026-04-13T05:20:58Z</time></trkpt><trkpt lat="-29.317420875311477" lon="114.99872535555171"><ele>40.0</ele><time>2026-04-13T05:20:59Z</time></trkpt><trkpt lat="-29.317419978386727" lon="114.998408195401"><ele>42.0</ele><time>2026-04-13T05:21:00Z</time></trkpt><trkpt lat="-29.317421118382732" lon="114.99808917239987"><ele>44.0</ele><time>2026-04-13T05:21:01Z</time></trkpt><trkpt lat="-29.31742481987658" lon="114.99777512103715"><ele>44.5</ele><time>2026-04-13T05:21:02Z</time></trkpt><trkpt lat="-29.317429623113284" lon="114.99746638164022"><ele>45.0</ele><time>2026-04-13T05:21:03Z</time></trkpt><trkpt lat="-29.31742895890438" lon="114.99715947244698"><ele>45.0</ele><time>2026-04-13T05:21:04Z</time></trkpt><trkpt lat="-29.317423733956772" lon="114.99685410789978"><ele>45.0</ele><time>2026-04-13T05:21:05Z</time></trkpt><trkpt lat="-29.317418030513835" lon="114.99654508398739"><ele>45.0</ele><time>2026-04-13T05:21:06Z</time></trkpt><trkpt lat="-29.317418512976598" lon="114.99623425069277"><ele>45.0</ele><time>2026-04-13T05:21:07Z</time></trkpt><trkpt lat="-29.31742065795901" lon="114.99592193150538"><ele>46.0</ele><time>2026-04-13T05:21:08Z</time></trkpt><trkpt lat="-29.317424934115458" lon="114.9956087289544"><ele>47.0</ele><time>2026-04-13T05:21:09Z</time></trkpt><trkpt lat="-29.317428377138402" lon="114.99529542743362"><ele>48.0</ele><time>2026-04-13T05:21:10.001Z</time></trkpt><trkpt lat="-29.317428249177507" lon="114.9949816265452"><ele>49.0</ele><time>2026-04-13T05:21:11.001Z</time></trkpt><trkpt lat="-29.31742630560727" lon="114.9946656904748"><ele>49.0</ele><time>2026-04-13T05:21:12.001Z</time></trkpt><trkpt lat="-29.31742499429952" lon="114.99434752179921"><ele>49.0</ele><time>2026-04-13T05:21:13.001Z</time></trkpt><trkpt lat="-29.317422080202704" lon="114.9940272051983"><ele>50.5</ele><time>2026-04-13T05:21:14.001Z</time></trkpt><trkpt lat="-29.317421561523844" lon="114.99370441024165"><ele>52.0</ele><time>2026-04-13T05:21:15.001Z</time></trkpt><trkpt lat="-29.317424934749813" lon="114.99338005992888"><ele>53.0</ele><time>2026-04-13T05:21:16.001Z</time></trkpt><trkpt lat="-29.317428477574616" lon="114.99305439168812"><ele>54.0</ele><time>2026-04-13T05:21:17.001Z</time></trkpt><trkpt lat="-29.317430760821058" lon="114.99273009809808"><ele>54.0</ele><time>2026-04-13T05:21:18.001Z</time></trkpt><trkpt lat="-29.317432097489633" lon="114.99240095254773"><ele>54.0</ele><time>2026-04-13T05:21:19.001Z</time></trkpt><trkpt lat="-29.317432437555873" lon="114.99207500672759"><ele>54.0</ele><time>2026-04-13T05:21:20.001Z</time></trkpt><trkpt lat="-29.317430948013666" lon="114.99174672835912"><ele>54.0</ele><time>2026-04-13T05:21:21.001Z</time></trkpt><trkpt lat="-29.317428165867675" lon="114.99141989596104"><ele>53.0</ele><time>2026-04-13T05:21:22.001Z</time></trkpt><trkpt lat="-29.317425814379224" lon="114.9910896407904"><ele>52.0</ele><time>2026-04-13T05:21:23.001Z</time></trkpt><trkpt lat="-29.31742589375935" lon="114.99075646993874"><ele>52.0</ele><time>2026-04-13T05:21:24.001Z</time></trkpt><trkpt lat="-29.317429611286975" lon="114.99042235287394"><ele>52.0</ele><time>2026-04-13T05:21:25.001Z</time></trkpt><trkpt lat="-29.317430316496328" lon="114.99008825634664"><ele>50.5</ele><time>2026-04-13T05:21:26.001Z</time></trkpt><trkpt lat="-29.317429071177216" lon="114.98975260201752"><ele>49.0</ele><time>2026-04-13T05:21:27.001Z</time></trkpt><trkpt lat="-29.317429934365126" lon="114.98941429481923"><ele>48.0</ele><time>2026-04-13T05:21:28.001Z</time></trkpt><trkpt lat="-29.317430644473763" lon="114.98907317469123"><ele>47.0</ele><time>2026-04-13T05:21:29.001Z</time></trkpt><trkpt lat="-29.31743018569352" lon="114.98872864237335"><ele>47.0</ele><time>2026-04-13T05:21:30.001Z</time></trkpt><trkpt lat="-29.31742836018755" lon="114.98838296919894"><ele>47.0</ele><time>2026-04-13T05:21:31.001Z</time></trkpt><trkpt lat="-29.317429517567216" lon="114.98803479098419"><ele>44.5</ele><time>2026-04-13T05:21:32.001Z</time></trkpt><trkpt lat="-29.317430082857175" lon="114.98768933943637"><ele>42.0</ele><time>2026-04-13T05:21:33.001Z</time></trkpt><trkpt lat="-29.317429609407803" lon="114.98734276644696"><ele>39.5</ele><time>2026-04-13T05:21:34.001Z</time></trkpt><trkpt lat="-29.31742789219115" lon="114.9869967680572"><ele>37.0</ele><time>2026-04-13T05:21:35.001Z</time></trkpt><trkpt lat="-29.317425688836835" lon="114.98665204274857"><ele>36.0</ele><time>2026-04-13T05:21:36.001Z</time></trkpt><trkpt lat="-29.31742364241508" lon="114.98631006165422"><ele>35.0</ele><time>2026-04-13T05:21:37.001Z</time></trkpt><trkpt lat="-29.317423037152405" lon="114.98596831272454"><ele>33.5</ele><time>2026-04-13T05:21:38.001Z</time></trkpt><trkpt lat="-29.317415379287173" lon="114.98563175492254"><ele>32.0</ele><time>2026-04-13T05:21:39.001Z</time></trkpt><trkpt lat="-29.317396076862078" lon="114.98529618302395"><ele>31.0</ele><time>2026-04-13T05:21:40.001Z</time></trkpt><trkpt lat="-29.3173623267525" lon="114.98496240958626"><ele>30.0</ele><time>2026-04-13T05:21:41.001Z</time></trkpt><trkpt lat="-29.31732232753152" lon="114.98462424921507"><ele>30.0</ele><time>2026-04-13T05:21:42.001Z</time></trkpt><trkpt lat="-29.31727905364954" lon="114.98428354421381"><ele>30.0</ele><time>2026-04-13T05:21:43.001Z</time></trkpt><trkpt lat="-29.31723021582137" lon="114.9839492250692"><ele>29.5</ele><time>2026-04-13T05:21:44.001Z</time></trkpt><trkpt lat="-29.317173143174667" lon="114.98361677816858"><ele>29.0</ele><time>2026-04-13T05:21:45.001Z</time></trkpt><trkpt lat="-29.317109121527153" lon="114.98329032479663"><ele>29.0</ele><time>2026-04-13T05:21:46.001Z</time></trkpt><trkpt lat="-29.317039226726035" lon="114.98296659666875"><ele>29.0</ele><time>2026-04-13T05:21:47.001Z</time></trkpt><trkpt lat="-29.3169625043037" lon="114.98264663861877"><ele>30.5</ele><time>2026-04-13T05:21:48.001Z</time></trkpt><trkpt lat="-29.31688483942543" lon="114.98233049392894"><ele>32.0</ele><time>2026-04-13T05:21:49.001Z</time></trkpt><trkpt lat="-29.31681632943587" lon="114.98201122118438"><ele>32.0</ele><time>2026-04-13T05:21:50.001Z</time></trkpt><trkpt lat="-29.316758736999944" lon="114.98169491860384"><ele>32.0</ele><time>2026-04-13T05:21:51.001Z</time></trkpt><trkpt lat="-29.316709143615824" lon="114.98137545716541"><ele>30.5</ele><time>2026-04-13T05:21:52.001Z</time></trkpt><trkpt lat="-29.316666034345907" lon="114.98105267457387"><ele>29.0</ele><time>2026-04-13T05:21:53.001Z</time></trkpt><trkpt lat="-29.316628247902003" lon="114.98072630927076"><ele>28.0</ele><time>2026-04-13T05:21:54.001Z</time></trkpt><trkpt lat="-29.316600735889015" lon="114.98039702084515"><ele>27.0</ele><time>2026-04-13T05:21:55.001Z</time></trkpt><trkpt lat="-29.316581955843944" lon="114.98006569702551"><ele>23.5</ele><time>2026-04-13T05:21:56.001Z</time></trkpt><trkpt lat="-29.31656719705207" lon="114.9797344589784"><ele>20.0</ele><time>2026-04-13T05:21:57.001Z</time></trkpt><trkpt lat="-29.316557409368553" lon="114.97940293552342"><ele>18.0</ele><time>2026-04-13T05:21:58.001Z</time></trkpt><trkpt lat="-29.316556101787633" lon="114.97906894968055"><ele>16.0</ele><time>2026-04-13T05:21:59Z</time></trkpt><trkpt lat="-29.316558897807997" lon="114.97873567835062"><ele>16.0</ele><time>2026-04-13T05:22:00Z</time></trkpt><trkpt lat="-29.316561321193763" lon="114.97839766340569"><ele>16.0</ele><time>2026-04-13T05:22:01Z</time></trkpt><trkpt lat="-29.316561576884148" lon="114.9780608805066"><ele>17.0</ele><time>2026-04-13T05:22:02Z</time></trkpt><trkpt lat="-29.316563042355604" lon="114.97772083205223"><ele>18.0</ele><time>2026-04-13T05:22:03Z</time></trkpt><trkpt lat="-29.3165634671548" lon="114.97738365612403"><ele>18.0</ele><time>2026-04-13T05:22:04Z</time></trkpt><trkpt lat="-29.316563427121572" lon="114.9770475892477"><ele>18.0</ele><time>2026-04-13T05:22:05Z</time></trkpt><trkpt lat="-29.31656408125355" lon="114.97671379303993"><ele>17.5</ele><time>2026-04-13T05:22:06Z</time></trkpt><trkpt lat="-29.316562992181638" lon="114.97638160772513"><ele>17.0</ele><time>2026-04-13T05:22:07Z</time></trkpt><trkpt lat="-29.316559360737102" lon="114.97604873395166"><ele>18.0</ele><time>2026-04-13T05:22:08Z</time></trkpt><trkpt lat="-29.316553254486593" lon="114.97572228153452"><ele>19.0</ele><time>2026-04-13T05:22:09Z</time></trkpt><trkpt lat="-29.316550484333707" lon="114.97540044518773"><ele>19.0</ele><time>2026-04-13T05:22:10Z</time></trkpt><trkpt lat="-29.316553929707982" lon="114.97508698511194"><ele>19.0</ele><time>2026-04-13T05:22:11Z</time></trkpt><trkpt lat="-29.316556094148932" lon="114.97477421109252"><ele>19.0</ele><time>2026-04-13T05:22:12Z</time></trkpt><trkpt lat="-29.316554465494413" lon="114.97445463167863"><ele>19.0</ele><time>2026-04-13T05:22:13Z</time></trkpt><trkpt lat="-29.316550450424568" lon="114.97413169493292"><ele>19.0</ele><time>2026-04-13T05:22:14Z</time></trkpt><trkpt lat="-29.316553475503184" lon="114.97380684658879"><ele>19.0</ele><time>2026-04-13T05:22:15Z</time></trkpt><trkpt lat="-29.316557936502807" lon="114.97348497641383"><ele>20.0</ele><time>2026-04-13T05:22:16Z</time></trkpt><trkpt lat="-29.31655917657499" lon="114.97316796757089"><ele>21.0</ele><time>2026-04-13T05:22:17Z</time></trkpt><trkpt lat="-29.3165587324351" lon="114.97285755226773"><ele>21.0</ele><time>2026-04-13T05:22:18Z</time></trkpt><trkpt lat="-29.316556957845094" lon="114.97254689630124"><ele>21.0</ele><time>2026-04-13T05:22:19Z</time></trkpt><trkpt lat="-29.3165558431431" lon="114.97223745582573"><ele>20.5</ele><time>2026-04-13T05:22:20Z</time></trkpt><trkpt lat="-29.31655766185858" lon="114.97193151906386"><ele>20.0</ele><time>2026-04-13T05:22:21Z</time></trkpt><trkpt lat="-29.316563643070854" lon="114.97162701515559"><ele>23.0</ele><time>2026-04-13T05:22:22Z</time></trkpt><trkpt lat="-29.316567755648784" lon="114.97132388317814"><ele>26.0</ele><time>2026-04-13T05:22:23Z</time></trkpt><trkpt lat="-29.31656837003538" lon="114.97102295654301"><ele>28.0</ele><time>2026-04-13T05:22:24Z</time></trkpt><trkpt lat="-29.31656831342511" lon="114.97071926756462"><ele>30.0</ele><time>2026-04-13T05:22:25Z</time></trkpt><trkpt lat="-29.31656641147197" lon="114.97041442782657"><ele>30.0</ele><time>2026-04-13T05:22:26Z</time></trkpt><trkpt lat="-29.31656474539181" lon="114.97011122392372"><ele>30.0</ele><time>2026-04-13T05:22:27Z</time></trkpt><trkpt lat="-29.31656037040706" lon="114.96980906807448"><ele>30.0</ele><time>2026-04-13T05:22:28Z</time></trkpt><trkpt lat="-29.316556871604412" lon="114.96950597475256"><ele>30.0</ele><time>2026-04-13T05:22:29Z</time></trkpt><trkpt lat="-29.31655754701077" lon="114.96920416950624"><ele>31.5</ele><time>2026-04-13T05:22:30Z</time></trkpt><trkpt lat="-29.3165579206258" lon="114.96890486617912"><ele>33.0</ele><time>2026-04-13T05:22:31Z</time></trkpt><trkpt lat="-29.316563290555514" lon="114.96860656776744"><ele>34.0</ele><time>2026-04-13T05:22:32Z</time></trkpt><trkpt lat="-29.316575237634485" lon="114.96830409298742"><ele>35.0</ele><time>2026-04-13T05:22:33Z</time></trkpt><trkpt lat="-29.316592738534123" lon="114.96799655901235"><ele>35.0</ele><time>2026-04-13T05:22:34Z</time></trkpt><trkpt lat="-29.316612451483678" lon="114.96768688240564"><ele>35.0</ele><time>2026-04-13T05:22:35Z</time></trkpt><trkpt lat="-29.31662824625981" lon="114.96737719998745"><ele>35.0</ele><time>2026-04-13T05:22:36Z</time></trkpt><trkpt lat="-29.316644367709927" lon="114.96706432725549"><ele>35.0</ele><time>2026-04-13T05:22:37Z</time></trkpt><trkpt lat="-29.316661075362898" lon="114.96675127915331"><ele>34.0</ele><time>2026-04-13T05:22:38Z</time></trkpt><trkpt lat="-29.316681594207086" lon="114.96643715257798"><ele>33.0</ele><time>2026-04-13T05:22:39Z</time></trkpt><trkpt lat="-29.316711193477524" lon="114.96612365259523"><ele>30.5</ele><time>2026-04-13T05:22:40Z</time></trkpt><trkpt lat="-29.316744801648383" lon="114.96581257264089"><ele>28.0</ele><time>2026-04-13T05:22:41Z</time></trkpt><trkpt lat="-29.31678322549608" lon="114.9654999824323"><ele>28.0</ele><time>2026-04-13T05:22:42Z</time></trkpt><trkpt lat="-29.316828416471896" lon="114.96518800851541"><ele>28.0</ele><time>2026-04-13T05:22:43Z</time></trkpt><trkpt lat="-29.316875069721185" lon="114.96487591549307"><ele>28.0</ele><time>2026-04-13T05:22:44Z</time></trkpt><trkpt lat="-29.31692149722968" lon="114.96456318276427"><ele>28.0</ele><time>2026-04-13T05:22:45Z</time></trkpt><trkpt lat="-29.31696983165343" lon="114.96425450077712"><ele>28.5</ele><time>2026-04-13T05:22:46Z</time></trkpt><trkpt lat="-29.31702233788643" lon="114.96394578564943"><ele>29.0</ele><time>2026-04-13T05:22:47Z</time></trkpt><trkpt lat="-29.317073108345355" lon="114.96363648815125"><ele>28.0</ele><time>2026-04-13T05:22:48Z</time></trkpt><trkpt lat="-29.31711657299854" lon="114.96332690758852"><ele>27.0</ele><time>2026-04-13T05:22:49Z</time></trkpt><trkpt lat="-29.31715521134936" lon="114.96301801678975"><ele>27.0</ele><time>2026-04-13T05:22:50Z</time></trkpt><trkpt lat="-29.31719051225147" lon="114.9627118525022"><ele>27.0</ele><time>2026-04-13T05:22:51Z</time></trkpt><trkpt lat="-29.317220489925113" lon="114.96240845817587"><ele>25.0</ele><time>2026-04-13T05:22:52Z</time></trkpt><trkpt lat="-29.31724681905909" lon="114.96210561483343"><ele>23.0</ele><time>2026-04-13T05:22:53Z</time></trkpt><trkpt lat="-29.317272855912872" lon="114.96180110843348"><ele>21.5</ele><time>2026-04-13T05:22:54Z</time></trkpt><trkpt lat="-29.317297693844377" lon="114.96149456225847"><ele>20.0</ele><time>2026-04-13T05:22:55Z</time></trkpt><trkpt lat="-29.317321966332912" lon="114.9611858708885"><ele>20.0</ele><time>2026-04-13T05:22:56Z</time></trkpt><trkpt lat="-29.317341829183707" lon="114.96087760725888"><ele>20.0</ele><time>2026-04-13T05:22:57Z</time></trkpt><trkpt lat="-29.3173543896873" lon="114.96056625763418"><ele>18.5</ele><time>2026-04-13T05:22:58Z</time></trkpt><trkpt lat="-29.317365013444157" lon="114.9602530705394"><ele>17.0</ele><time>2026-04-13T05:22:59Z</time></trkpt><trkpt lat="-29.317376211982292" lon="114.95994365413247"><ele>16.0</ele><time>2026-04-13T05:23:00Z</time></trkpt><trkpt lat="-29.31738206926292" lon="114.959635569643"><ele>15.0</ele><time>2026-04-13T05:23:01Z</time></trkpt><trkpt lat="-29.31738033020673" lon="114.95932773823586"><ele>12.5</ele><time>2026-04-13T05:23:02Z</time></trkpt><trkpt lat="-29.317373608780738" lon="114.95902172362842"><ele>10.0</ele><time>2026-04-13T05:23:03Z</time></trkpt><trkpt lat="-29.317363661459755" lon="114.95871515950294"><ele>10.0</ele><time>2026-04-13T05:23:04Z</time></trkpt><trkpt lat="-29.317354401593473" lon="114.95840638132938"><ele>10.0</ele><time>2026-04-13T05:23:05Z</time></trkpt><trkpt lat="-29.317344604574643" lon="114.95809424066442"><ele>8.5</ele><time>2026-04-13T05:23:06Z</time></trkpt><trkpt lat="-29.3173310647374" lon="114.957782134612"><ele>7.0</ele><time>2026-04-13T05:23:07Z</time></trkpt><trkpt lat="-29.317311249173674" lon="114.957471760165"><ele>6.5</ele><time>2026-04-13T05:23:08Z</time></trkpt><trkpt lat="-29.317284992921802" lon="114.95716572278694"><ele>6.0</ele><time>2026-04-13T05:23:09Z</time></trkpt><trkpt lat="-29.317257460753613" lon="114.95685981926822"><ele>8.0</ele><time>2026-04-13T05:23:10Z</time></trkpt><trkpt lat="-29.317228112624193" lon="114.95655201296039"><ele>10.0</ele><time>2026-04-13T05:23:11Z</time></trkpt><trkpt lat="-29.317196206567143" lon="114.95624485321747"><ele>10.0</ele><time>2026-04-13T05:23:12Z</time></trkpt><trkpt lat="-29.317159693149225" lon="114.95594033151967"><ele>10.0</ele><time>2026-04-13T05:23:13Z</time></trkpt><trkpt lat="-29.317126933419505" lon="114.95563154275169"><ele>10.0</ele><time>2026-04-13T05:23:14Z</time></trkpt><trkpt lat="-29.31709127866545" lon="114.95532094614687"><ele>10.0</ele><time>2026-04-13T05:23:15Z</time></trkpt><trkpt lat="-29.317047789065573" lon="114.95501084590451"><ele>10.0</ele><time>2026-04-13T05:23:16Z</time></trkpt><trkpt lat="-29.31699588482924" lon="114.95469854173803"><ele>10.0</ele><time>2026-04-13T05:23:17Z</time></trkpt><trkpt lat="-29.316936144178804" lon="114.9543826722008"><ele>8.0</ele><time>2026-04-13T05:23:18Z</time></trkpt><trkpt lat="-29.31687293210127" lon="114.95406571418663"><ele>6.0</ele><time>2026-04-13T05:23:19Z</time></trkpt><trkpt lat="-29.316812340650838" lon="114.95374709141724"><ele>6.0</ele><time>2026-04-13T05:23:20Z</time></trkpt><trkpt lat="-29.316751980738818" lon="114.95342606279733"><ele>6.0</ele><time>2026-04-13T05:23:21Z</time></trkpt><trkpt lat="-29.31668399796164" lon="114.95310642747931"><ele>4.5</ele><time>2026-04-13T05:23:22Z</time></trkpt><trkpt lat="-29.316607664245616" lon="114.95278886453332"><ele>3.0</ele><time>2026-04-13T05:23:23Z</time></trkpt><trkpt lat="-29.31653049243575" lon="114.95247389473462"><ele>3.0</ele><time>2026-04-13T05:23:24Z</time></trkpt><trkpt lat="-29.316452037580135" lon="114.95216109923406"><ele>3.0</ele><time>2026-04-13T05:23:25Z</time></trkpt><trkpt lat="-29.316369543148497" lon="114.95185411221162"><ele>3.5</ele><time>2026-04-13T05:23:26Z</time></trkpt><trkpt lat="-29.316285135176674" lon="114.95155155597831"><ele>4.0</ele><time>2026-04-13T05:23:27Z</time></trkpt><trkpt lat="-29.31620389042566" lon="114.95125197574467"><ele>4.0</ele><time>2026-04-13T05:23:28Z</time></trkpt><trkpt lat="-29.31612231113698" lon="114.95095375787143"><ele>4.0</ele><time>2026-04-13T05:23:29Z</time></trkpt><trkpt lat="-29.31603374240941" lon="114.95066182125326"><ele>6.0</ele><time>2026-04-13T05:23:30Z</time></trkpt><trkpt lat="-29.31594171338794" lon="114.95037263794156"><ele>8.0</ele><time>2026-04-13T05:23:31Z</time></trkpt><trkpt lat="-29.31584589187256" lon="114.95008688170455"><ele>7.0</ele><time>2026-04-13T05:23:32Z</time></trkpt><trkpt lat="-29.315742429439293" lon="114.94980490395935"><ele>6.0</ele><time>2026-04-13T05:23:33Z</time></trkpt><trkpt lat="-29.31563277063512" lon="114.94952636423841"><ele>5.0</ele><time>2026-04-13T05:23:34Z</time></trkpt><trkpt lat="-29.31553818317048" lon="114.94923842243976"><ele>4.0</ele><time>2026-04-13T05:23:35Z</time></trkpt><trkpt lat="-29.31541456690948" lon="114.94896417775006"><ele>4.0</ele><time>2026-04-13T05:23:36Z</time></trkpt><trkpt lat="-29.315308104088956" lon="114.94867992553193"><ele>4.0</ele><time>2026-04-13T05:23:37Z</time></trkpt><trkpt lat="-29.315195535522285" lon="114.94840023302704"><ele>5.5</ele><time>2026-04-13T05:23:38Z</time></trkpt><trkpt lat="-29.31508176554591" lon="114.94812059122076"><ele>7.0</ele><time>2026-04-13T05:23:39Z</time></trkpt><trkpt lat="-29.314963859332853" lon="114.94784101305044"><ele>7.0</ele><time>2026-04-13T05:23:40Z</time></trkpt><trkpt lat="-29.31483625346018" lon="114.94756180862997"><ele>7.0</ele><time>2026-04-13T05:23:41Z</time></trkpt><trkpt lat="-29.314703686625318" lon="114.94728664872513"><ele>7.0</ele><time>2026-04-13T05:23:42Z</time></trkpt><trkpt lat="-29.314566151105993" lon="114.94701398657106"><ele>7.0</ele><time>2026-04-13T05:23:43Z</time></trkpt><trkpt lat="-29.314443719118366" lon="114.94672821101054"><ele>6.5</ele><time>2026-04-13T05:23:44Z</time></trkpt><trkpt lat="-29.314303929791688" lon="114.94645070380835"><ele>6.0</ele><time>2026-04-13T05:23:45Z</time></trkpt><trkpt lat="-29.314148927506192" lon="114.9461786272152"><ele>6.0</ele><time>2026-04-13T05:23:46Z</time></trkpt><trkpt lat="-29.314004168133778" lon="114.94590084649175"><ele>6.0</ele><time>2026-04-13T05:23:47Z</time></trkpt><trkpt lat="-29.31385487215692" lon="114.94562231689575"><ele>5.0</ele><time>2026-04-13T05:23:48Z</time></trkpt><trkpt lat="-29.313703329556287" lon="114.945344144227"><ele>4.0</ele><time>2026-04-13T05:23:49Z</time></trkpt><trkpt lat="-29.313548451798777" lon="114.94506702182233"><ele>5.0</ele><time>2026-04-13T05:23:50Z</time></trkpt><trkpt lat="-29.31339125090917" lon="114.94479153215717"><ele>6.0</ele><time>2026-04-13T05:23:51Z</time></trkpt><trkpt lat="-29.313235930220742" lon="114.94451075936745"><ele>6.0</ele><time>2026-04-13T05:23:52Z</time></trkpt><trkpt lat="-29.313081744864707" lon="114.94422670088832"><ele>6.0</ele><time>2026-04-13T05:23:53Z</time></trkpt><trkpt lat="-29.31292898218544" lon="114.94394481812836"><ele>5.0</ele><time>2026-04-13T05:23:54Z</time></trkpt><trkpt lat="-29.312777027345177" lon="114.94366303613386"><ele>4.0</ele><time>2026-04-13T05:23:55Z</time></trkpt><trkpt lat="-29.312625407324987" lon="114.94338245220662"><ele>4.0</ele><time>2026-04-13T05:23:56Z</time></trkpt><trkpt lat="-29.312471635724048" lon="114.94310602316926"><ele>4.0</ele><time>2026-04-13T05:23:57Z</time></trkpt><trkpt lat="-29.31231264730982" lon="114.9428293374744"><ele>4.5</ele><time>2026-04-13T05:23:58Z</time></trkpt><trkpt lat="-29.31215787224503" lon="114.94255040576174"><ele>5.0</ele><time>2026-04-13T05:23:59Z</time></trkpt><trkpt lat="-29.31200523172049" lon="114.94226961184476"><ele>5.0</ele><time>2026-04-13T05:24:00Z</time></trkpt><trkpt lat="-29.311853349343227" lon="114.94198849997231"><ele>5.0</ele><time>2026-04-13T05:24:01Z</time></trkpt><trkpt lat="-29.311699557989378" lon="114.9417079710931"><ele>5.5</ele><time>2026-04-13T05:24:02Z</time></trkpt><trkpt lat="-29.311544791131293" lon="114.94142941398682"><ele>6.0</ele><time>2026-04-13T05:24:03Z</time></trkpt><trkpt lat="-29.31139031441491" lon="114.9411514705797"><ele>7.0</ele><time>2026-04-13T05:24:04Z</time></trkpt><trkpt lat="-29.31123550027091" lon="114.94087361714456"><ele>8.0</ele><time>2026-04-13T05:24:05Z</time></trkpt><trkpt lat="-29.31093523227214" lon="114.94032155406417"><ele>8.0</ele><time>2026-04-13T05:24:07Z</time></trkpt><trkpt lat="-29.310789832474935" lon="114.9400456386219"><ele>8.0</ele><time>2026-04-13T05:24:08Z</time></trkpt><trkpt lat="-29.310641734172787" lon="114.93977193153056"><ele>8.0</ele><time>2026-04-13T05:24:09Z</time></trkpt><trkpt lat="-29.310489731253536" lon="114.93949952436472"><ele>8.0</ele><time>2026-04-13T05:24:10Z</time></trkpt><trkpt lat="-29.310334729040942" lon="114.93922813139133"><ele>7.5</ele><time>2026-04-13T05:24:11Z</time></trkpt><trkpt lat="-29.310183063784212" lon="114.93895249620317"><ele>7.0</ele><time>2026-04-13T05:24:12Z</time></trkpt><trkpt lat="-29.310031493850577" lon="114.938675018485"><ele>7.0</ele><time>2026-04-13T05:24:13Z</time></trkpt><trkpt lat="-29.309875895521724" lon="114.93839870006335"><ele>7.0</ele><time>2026-04-13T05:24:14Z</time></trkpt><trkpt lat="-29.309723939898646" lon="114.93811771908577"><ele>6.0</ele><time>2026-04-13T05:24:15Z</time></trkpt><trkpt lat="-29.309570727525372" lon="114.93783585688918"><ele>5.0</ele><time>2026-04-13T05:24:16Z</time></trkpt><trkpt lat="-29.309417478520782" lon="114.93755029178608"><ele>5.0</ele><time>2026-04-13T05:24:17Z</time></trkpt><trkpt lat="-29.30926097358805" lon="114.93726823835674"><ele>5.0</ele><time>2026-04-13T05:24:18Z</time></trkpt><trkpt lat="-29.309102207961942" lon="114.93698663923914"><ele>5.5</ele><time>2026-04-13T05:24:19Z</time></trkpt><trkpt lat="-29.308944006803575" lon="114.936703337135"><ele>6.0</ele><time>2026-04-13T05:24:20Z</time></trkpt><trkpt lat="-29.308785725736314" lon="114.93641876566397"><ele>6.0</ele><time>2026-04-13T05:24:21Z</time></trkpt><trkpt lat="-29.30862774276523" lon="114.93613368774332"><ele>6.0</ele><time>2026-04-13T05:24:22Z</time></trkpt><trkpt lat="-29.30847053132858" lon="114.93585076486453"><ele>5.5</ele><time>2026-04-13T05:24:23Z</time></trkpt><trkpt lat="-29.308314220782798" lon="114.9355639000915"><ele>5.0</ele><time>2026-04-13T05:24:24Z</time></trkpt><trkpt lat="-29.308158906298008" lon="114.93527832609558"><ele>4.0</ele><time>2026-04-13T05:24:25Z</time></trkpt><trkpt lat="-29.30800101651398" lon="114.934992950619"><ele>3.0</ele><time>2026-04-13T05:24:26Z</time></trkpt><trkpt lat="-29.30784393164778" lon="114.93470686969002"><ele>3.0</ele><time>2026-04-13T05:24:27Z</time></trkpt><trkpt lat="-29.30768264707872" lon="114.93442299283849"><ele>3.0</ele><time>2026-04-13T05:24:28Z</time></trkpt><trkpt lat="-29.30751397186348" lon="114.93414318394932"><ele>3.0</ele><time>2026-04-13T05:24:29Z</time></trkpt><trkpt lat="-29.307337428131852" lon="114.93386911997122"><ele>3.0</ele><time>2026-04-13T05:24:30Z</time></trkpt><trkpt lat="-29.307151422200654" lon="114.93360543654988"><ele>4.0</ele><time>2026-04-13T05:24:31Z</time></trkpt><trkpt lat="-29.306953094136144" lon="114.93335297491693"><ele>5.0</ele><time>2026-04-13T05:24:32Z</time></trkpt><trkpt lat="-29.30674568895904" lon="114.93310437314992"><ele>5.0</ele><time>2026-04-13T05:24:33Z</time></trkpt><trkpt lat="-29.3065339318932" lon="114.9328579558468"><ele>5.0</ele><time>2026-04-13T05:24:34Z</time></trkpt><trkpt lat="-29.306317837036545" lon="114.93261353961537"><ele>5.0</ele><time>2026-04-13T05:24:35Z</time></trkpt><trkpt lat="-29.306092860862513" lon="114.93237671497813"><ele>5.0</ele><time>2026-04-13T05:24:36Z</time></trkpt><trkpt lat="-29.305858359044763" lon="114.93215393499742"><ele>5.0</ele><time>2026-04-13T05:24:37Z</time></trkpt><trkpt lat="-29.305613017756734" lon="114.93194237488872"><ele>5.0</ele><time>2026-04-13T05:24:38Z</time></trkpt><trkpt lat="-29.30536130945795" lon="114.93173744711451"><ele>5.5</ele><time>2026-04-13T05:24:39Z</time></trkpt><trkpt lat="-29.305104505021863" lon="114.93154128827854"><ele>6.0</ele><time>2026-04-13T05:24:40Z</time></trkpt><trkpt lat="-29.304841300734026" lon="114.93135321567085"><ele>6.0</ele><time>2026-04-13T05:24:41Z</time></trkpt><trkpt lat="-29.304570808733565" lon="114.93117285211162"><ele>6.0</ele><time>2026-04-13T05:24:42Z</time></trkpt><trkpt lat="-29.304293853456482" lon="114.93100601396252"><ele>5.5</ele><time>2026-04-13T05:24:43Z</time></trkpt><trkpt lat="-29.304008124990727" lon="114.93085183427657"><ele>5.0</ele><time>2026-04-13T05:24:44Z</time></trkpt><trkpt lat="-29.30371700964757" lon="114.93071032957046"><ele>5.0</ele><time>2026-04-13T05:24:45Z</time></trkpt><trkpt lat="-29.303413381088866" lon="114.93057966250555"><ele>5.0</ele><time>2026-04-13T05:24:46Z</time></trkpt><trkpt lat="-29.30310496644239" lon="114.93045376567002"><ele>5.0</ele><time>2026-04-13T05:24:47Z</time></trkpt><trkpt lat="-29.3027929846171" lon="114.93033893886172"><ele>5.0</ele><time>2026-04-13T05:24:48Z</time></trkpt><trkpt lat="-29.302481409155096" lon="114.93023230111751"><ele>5.0</ele><time>2026-04-13T05:24:49Z</time></trkpt><trkpt lat="-29.302167483390505" lon="114.93013569297722"><ele>5.0</ele><time>2026-04-13T05:24:50Z</time></trkpt><trkpt lat="-29.301850739357075" lon="114.9300532115661"><ele>5.0</ele><time>2026-04-13T05:24:51Z</time></trkpt><trkpt lat="-29.30153432435747" lon="114.92999154457594"><ele>5.0</ele><time>2026-04-13T05:24:52Z</time></trkpt><trkpt lat="-29.301216254662386" lon="114.92995041872382"><ele>5.0</ele><time>2026-04-13T05:24:53Z</time></trkpt><trkpt lat="-29.300898537960283" lon="114.92992163521753"><ele>5.0</ele><time>2026-04-13T05:24:54Z</time></trkpt><trkpt lat="-29.30058167365786" lon="114.92990673738838"><ele>5.5</ele><time>2026-04-13T05:24:55Z</time></trkpt><trkpt lat="-29.300263582579994" lon="114.92990130560511"><ele>6.0</ele><time>2026-04-13T05:24:56Z</time></trkpt><trkpt lat="-29.299943861730256" lon="114.9299010455351"><ele>6.5</ele><time>2026-04-13T05:24:57Z</time></trkpt><trkpt lat="-29.299624881239307" lon="114.92991510993933"><ele>7.0</ele><time>2026-04-13T05:24:58Z</time></trkpt><trkpt lat="-29.29930571512586" lon="114.92993132564138"><ele>7.0</ele><time>2026-04-13T05:24:59Z</time></trkpt><trkpt lat="-29.298986833034295" lon="114.92995158829741"><ele>7.0</ele><time>2026-04-13T05:25:00Z</time></trkpt><trkpt lat="-29.298667667153385" lon="114.92996946999355"><ele>7.0</ele><time>2026-04-13T05:25:01Z</time></trkpt><trkpt lat="-29.298345179184263" lon="114.92998168940142"><ele>7.0</ele><time>2026-04-13T05:25:02Z</time></trkpt><trkpt lat="-29.298021337728517" lon="114.92999161977426"><ele>6.0</ele><time>2026-04-13T05:25:03Z</time></trkpt><trkpt lat="-29.297695331442974" lon="114.930001634056"><ele>5.0</ele><time>2026-04-13T05:25:04Z</time></trkpt><trkpt lat="-29.29737083675435" lon="114.93001466205793"><ele>5.0</ele><time>2026-04-13T05:25:05Z</time></trkpt><trkpt lat="-29.29704472480067" lon="114.93002548194762"><ele>5.0</ele><time>2026-04-13T05:25:06Z</time></trkpt><trkpt lat="-29.296722448554732" lon="114.93003253099343"><ele>5.5</ele><time>2026-04-13T05:25:07Z</time></trkpt><trkpt lat="-29.296407671874793" lon="114.93002853708194"><ele>6.0</ele><time>2026-04-13T05:25:08Z</time></trkpt><trkpt lat="-29.296098810340137" lon="114.93000894198221"><ele>6.0</ele><time>2026-04-13T05:25:09Z</time></trkpt><trkpt lat="-29.295791771700152" lon="114.92997268393914"><ele>6.0</ele><time>2026-04-13T05:25:10Z</time></trkpt><trkpt lat="-29.29548531126531" lon="114.92992437970277"><ele>5.5</ele><time>2026-04-13T05:25:11Z</time></trkpt><trkpt lat="-29.295179735215466" lon="114.9298636343267"><ele>5.0</ele><time>2026-04-13T05:25:12Z</time></trkpt><trkpt lat="-29.29487561424316" lon="114.92978914741286"><ele>5.0</ele><time>2026-04-13T05:25:13Z</time></trkpt><trkpt lat="-29.29457330328046" lon="114.92970459665032"><ele>5.0</ele><time>2026-04-13T05:25:14Z</time></trkpt><trkpt lat="-29.29427207989923" lon="114.92961569860222"><ele>5.0</ele><time>2026-04-13T05:25:15Z</time></trkpt><trkpt lat="-29.29396968403347" lon="114.92952969941189"><ele>5.0</ele><time>2026-04-13T05:25:16Z</time></trkpt><trkpt lat="-29.293665579123022" lon="114.92944566534148"><ele>6.0</ele><time>2026-04-13T05:25:17Z</time></trkpt><trkpt lat="-29.293359527900627" lon="114.92936464906936"><ele>7.0</ele><time>2026-04-13T05:25:18Z</time></trkpt><trkpt lat="-29.293050629580243" lon="114.92928474454355"><ele>6.5</ele><time>2026-04-13T05:25:19Z</time></trkpt><trkpt lat="-29.29274292365296" lon="114.92920704524089"><ele>6.0</ele><time>2026-04-13T05:25:20Z</time></trkpt><trkpt lat="-29.292435861643668" lon="114.9291262441861"><ele>5.5</ele><time>2026-04-13T05:25:21Z</time></trkpt><trkpt lat="-29.292134721547544" lon="114.9290463539808"><ele>5.0</ele><time>2026-04-13T05:25:22Z</time></trkpt><trkpt lat="-29.291839045000184" lon="114.92896565482216"><ele>5.0</ele><time>2026-04-13T05:25:23Z</time></trkpt><trkpt lat="-29.2915452283509" lon="114.9288869280612"><ele>5.0</ele><time>2026-04-13T05:25:24Z</time></trkpt><trkpt lat="-29.291252973538874" lon="114.92880738252911"><ele>5.5</ele><time>2026-04-13T05:25:25Z</time></trkpt><trkpt lat="-29.290960553727103" lon="114.92872733719399"><ele>6.0</ele><time>2026-04-13T05:25:26Z</time></trkpt><trkpt lat="-29.290670214080414" lon="114.92864719737364"><ele>6.0</ele><time>2026-04-13T05:25:27Z</time></trkpt><trkpt lat="-29.290380472651385" lon="114.92856345861527"><ele>6.0</ele><time>2026-04-13T05:25:28Z</time></trkpt><trkpt lat="-29.290090359514817" lon="114.92846617545672"><ele>5.5</ele><time>2026-04-13T05:25:29Z</time></trkpt><trkpt lat="-29.289803841923995" lon="114.92835279154663"><ele>5.0</ele><time>2026-04-13T05:25:30Z</time></trkpt><trkpt lat="-29.28951760165774" lon="114.92822753929853"><ele>5.0</ele><time>2026-04-13T05:25:31Z</time></trkpt><trkpt lat="-29.28923502731659" lon="114.92809230432965"><ele>5.0</ele><time>2026-04-13T05:25:32Z</time></trkpt><trkpt lat="-29.288953842992544" lon="114.92794687609131"><ele>5.0</ele><time>2026-04-13T05:25:33Z</time></trkpt><trkpt lat="-29.288674577204535" lon="114.92779018255587"><ele>5.0</ele><time>2026-04-13T05:25:34Z</time></trkpt><trkpt lat="-29.288402272043417" lon="114.92762269691063"><ele>5.0</ele><time>2026-04-13T05:25:35Z</time></trkpt><trkpt lat="-29.288132890571326" lon="114.92744282460313"><ele>5.0</ele><time>2026-04-13T05:25:36Z</time></trkpt><trkpt lat="-29.28787125338081" lon="114.9272508195666"><ele>5.0</ele><time>2026-04-13T05:25:37Z</time></trkpt><trkpt lat="-29.287615187284114" lon="114.92704964899407"><ele>5.0</ele><time>2026-04-13T05:25:38Z</time></trkpt><trkpt lat="-29.28736532619652" lon="114.92683883990996"><ele>5.0</ele><time>2026-04-13T05:25:39Z</time></trkpt><trkpt lat="-29.28712243965463" lon="114.92661981148176"><ele>5.0</ele><time>2026-04-13T05:25:40Z</time></trkpt><trkpt lat="-29.286887519652836" lon="114.9263914936641"><ele>5.0</ele><time>2026-04-13T05:25:41Z</time></trkpt><trkpt lat="-29.286659556228024" lon="114.9261526518158"><ele>5.0</ele><time>2026-04-13T05:25:42Z</time></trkpt><trkpt lat="-29.286435430874917" lon="114.92590696886458"><ele>5.0</ele><time>2026-04-13T05:25:43Z</time></trkpt><trkpt lat="-29.286233477489223" lon="114.92563883077204"><ele>5.0</ele><time>2026-04-13T05:25:44Z</time></trkpt><trkpt lat="-29.286026628852458" lon="114.92537413578815"><ele>5.0</ele><time>2026-04-13T05:25:45Z</time></trkpt><trkpt lat="-29.285829891856256" lon="114.92510498969037"><ele>5.0</ele><time>2026-04-13T05:25:46Z</time></trkpt><trkpt lat="-29.28564026698657" lon="114.92483156937182"><ele>5.5</ele><time>2026-04-13T05:25:47Z</time></trkpt><trkpt lat="-29.28545039348137" lon="114.92457390510769"><ele>6.0</ele><time>2026-04-13T05:25:48Z</time></trkpt><trkpt lat="-29.285279892656565" lon="114.92431913080726"><ele>7.0</ele><time>2026-04-13T05:25:49Z</time></trkpt><trkpt lat="-29.285111639534637" lon="114.92408215568035"><ele>8.0</ele><time>2026-04-13T05:25:50Z</time></trkpt><trkpt lat="-29.284929973525326" lon="114.92386372038386"><ele>7.5</ele><time>2026-04-13T05:25:51Z</time></trkpt><trkpt lat="-29.284725282339764" lon="114.92366973866969"><ele>7.0</ele><time>2026-04-13T05:25:52Z</time></trkpt><trkpt lat="-29.284499087843397" lon="114.92350516695748"><ele>8.0</ele><time>2026-04-13T05:25:53Z</time></trkpt><trkpt lat="-29.284257057206734" lon="114.92337453333806"><ele>9.0</ele><time>2026-04-13T05:25:54Z</time></trkpt><trkpt lat="-29.283998011373168" lon="114.92327346099465"><ele>7.5</ele><time>2026-04-13T05:25:55Z</time></trkpt><trkpt lat="-29.283726972242743" lon="114.9231877687146"><ele>6.0</ele><time>2026-04-13T05:25:56Z</time></trkpt><trkpt lat="-29.28344862321736" lon="114.92309688363183"><ele>6.0</ele><time>2026-04-13T05:25:57Z</time></trkpt><trkpt lat="-29.28317504539776" lon="114.92299595581311"><ele>6.0</ele><time>2026-04-13T05:25:58Z</time></trkpt><trkpt lat="-29.28291009865617" lon="114.92289032440098"><ele>7.0</ele><time>2026-04-13T05:25:59Z</time></trkpt><trkpt lat="-29.282653916458575" lon="114.92278573843775"><ele>8.0</ele><time>2026-04-13T05:26:00Z</time></trkpt><trkpt lat="-29.282408353668327" lon="114.92268398205835"><ele>8.0</ele><time>2026-04-13T05:26:01Z</time></trkpt><trkpt lat="-29.282169887407164" lon="114.9225900653323"><ele>8.0</ele><time>2026-04-13T05:26:02Z</time></trkpt><trkpt lat="-29.281684710384106" lon="114.92239918216535"><ele>8.0</ele><time>2026-04-13T05:26:04Z</time></trkpt><trkpt lat="-29.281442258210586" lon="114.92230326258444"><ele>8.0</ele><time>2026-04-13T05:26:05Z</time></trkpt><trkpt lat="-29.281200938914154" lon="114.92220951873071"><ele>8.666666666666666</ele><time>2026-04-13T05:26:06Z</time></trkpt><trkpt lat="-29.280977970725754" lon="114.92211859503533"><ele>9.333333333333334</ele><time>2026-04-13T05:26:07Z</time></trkpt><trkpt lat="-29.280796732299603" lon="114.9220198249726"><ele>10.0</ele><time>2026-04-13T05:26:08Z</time></trkpt><trkpt lat="-29.280673623557558" lon="114.92187171169591"><ele>10.666666666666668</ele><time>2026-04-13T05:26:09.001Z</time></trkpt><trkpt lat="-29.280558956265555" lon="114.92170951332545"><ele>11.333333333333334</ele><time>2026-04-13T05:26:10.001Z</time></trkpt><trkpt lat="-29.28045909486133" lon="114.92152230490066"><ele>12.0</ele><time>2026-04-13T05:26:11Z</time></trkpt><trkpt lat="-29.280382458725477" lon="114.92132270033363"><ele>12.0</ele><time>2026-04-13T05:26:12Z</time></trkpt><trkpt lat="-29.28030299482535" lon="114.92111940155903"><ele>12.0</ele><time>2026-04-13T05:26:13Z</time></trkpt><trkpt lat="-29.280249644311706" lon="114.92091291076302"><ele>12.0</ele><time>2026-04-13T05:26:14Z</time></trkpt><trkpt lat="-29.280183984479446" lon="114.92072089551341"><ele>12.666666666666668</ele><time>2026-04-13T05:26:15Z</time></trkpt><trkpt lat="-29.280115397907256" lon="114.92053883481354"><ele>13.333333333333334</ele><time>2026-04-13T05:26:16Z</time></trkpt><trkpt lat="-29.28004417025127" lon="114.92036475269614"><ele>14.0</ele><time>2026-04-13T05:26:17Z</time></trkpt><trkpt lat="-29.279963832605073" lon="114.92020117083045"><ele>12.666666666666668</ele><time>2026-04-13T05:26:18Z</time></trkpt><trkpt lat="-29.279867952141398" lon="114.92004442080682"><ele>11.333333333333334</ele><time>2026-04-13T05:26:19Z</time></trkpt><trkpt lat="-29.27975148520789" lon="114.91990185455188"><ele>10.0</ele><time>2026-04-13T05:26:20Z</time></trkpt><trkpt lat="-29.279614531343494" lon="114.9197662954412"><ele>9.333333333333334</ele><time>2026-04-13T05:26:21Z</time></trkpt><trkpt lat="-29.27946775609483" lon="114.9196392645089"><ele>8.666666666666666</ele><time>2026-04-13T05:26:22Z</time></trkpt><trkpt lat="-29.279316222908847" lon="114.91951555671113"><ele>8.0</ele><time>2026-04-13T05:26:23Z</time></trkpt><trkpt lat="-29.279160056191678" lon="114.91938814875292"><ele>8.0</ele><time>2026-04-13T05:26:24Z</time></trkpt><trkpt lat="-29.27899536120938" lon="114.91926019104889"><ele>8.0</ele><time>2026-04-13T05:26:25Z</time></trkpt><trkpt lat="-29.27881835879499" lon="114.91912240989481"><ele>8.0</ele><time>2026-04-13T05:26:26Z</time></trkpt><trkpt lat="-29.278638559927117" lon="114.91898038671182"><ele>7.666666666666666</ele><time>2026-04-13T05:26:27Z</time></trkpt><trkpt lat="-29.278460765919622" lon="114.91883405743641"><ele>7.333333333333334</ele><time>2026-04-13T05:26:28Z</time></trkpt><trkpt lat="-29.27829212644586" lon="114.91869729526456"><ele>7.0</ele><time>2026-04-13T05:26:29Z</time></trkpt><trkpt lat="-29.278133688613377" lon="114.91857361587597"><ele>6.666666666666667</ele><time>2026-04-13T05:26:30Z</time></trkpt><trkpt lat="-29.27798380174567" lon="114.91845712783915"><ele>6.333333333333334</ele><time>2026-04-13T05:26:31Z</time></trkpt><trkpt lat="-29.277841918473577" lon="114.91834744368873"><ele>6.0</ele><time>2026-04-13T05:26:32Z</time></trkpt><trkpt lat="-29.277705390193603" lon="114.91824075299496"><ele>6.0</ele><time>2026-04-13T05:26:33Z</time></trkpt><trkpt lat="-29.27757105024857" lon="114.91813592685077"><ele>6.0</ele><time>2026-04-13T05:26:34Z</time></trkpt><trkpt lat="-29.27743966470488" lon="114.91803381588205"><ele>6.0</ele><time>2026-04-13T05:26:35Z</time></trkpt><trkpt lat="-29.277311754824485" lon="114.91793155229627"><ele>5.5</ele><time>2026-04-13T05:26:36Z</time></trkpt><trkpt lat="-29.27719386195107" lon="114.9178383675821"><ele>5.0</ele><time>2026-04-13T05:26:37Z</time></trkpt><trkpt lat="-29.277081354559783" lon="114.91774884210454"><ele>4.5</ele><time>2026-04-13T05:26:38Z</time></trkpt><trkpt lat="-29.276976231092405" lon="114.91766670768108"><ele>4.0</ele><time>2026-04-13T05:26:39Z</time></trkpt><trkpt lat="-29.276879108181024" lon="114.91759249553945"><ele>3.833333333333333</ele><time>2026-04-13T05:26:40Z</time></trkpt><trkpt lat="-29.276793553172254" lon="114.91752460889403"><ele>3.6666666666666665</ele><time>2026-04-13T05:26:41Z</time></trkpt><trkpt lat="-29.276721952539102" lon="114.91746271717848"><ele>3.5</ele><time>2026-04-13T05:26:42Z</time></trkpt><trkpt lat="-29.27666595449281" lon="114.91741275001473"><ele>3.333333333333333</ele><time>2026-04-13T05:26:43Z</time></trkpt><trkpt lat="-29.2766148502987" lon="114.91736756099026"><ele>3.1666666666666665</ele><time>2026-04-13T05:26:45Z</time></trkpt><trkpt lat="-29.276537482153937" lon="114.91737703483238"><ele>3.0</ele><time>2026-04-13T05:26:48Z</time></trkpt><trkpt lat="-29.276483312920675" lon="114.91751113215415"><ele>3.0</ele><time>2026-04-13T05:26:50Z</time></trkpt><trkpt lat="-29.276450815907392" lon="114.91757612338671"><ele>3.0</ele><time>2026-04-13T05:26:51Z</time></trkpt><trkpt lat="-29.276399665984904" lon="114.91766237876433"><ele>3.0</ele><time>2026-04-13T05:26:52Z</time></trkpt><trkpt lat="-29.27634516493936" lon="114.91775249144281"><ele>3.0</ele><time>2026-04-13T05:26:53Z</time></trkpt><trkpt lat="-29.276286477229764" lon="114.91785598356272"><ele>3.0</ele><time>2026-04-13T05:26:54Z</time></trkpt><trkpt lat="-29.27622599602964" lon="114.917960056611"><ele>3.0</ele><time>2026-04-13T05:26:55Z</time></trkpt><trkpt lat="-29.276160567531598" lon="114.91806574148717"><ele>3.0</ele><time>2026-04-13T05:26:56Z</time></trkpt><trkpt lat="-29.27608455386703" lon="114.9181836666354"><ele>3.0</ele><time>2026-04-13T05:26:57Z</time></trkpt><trkpt lat="-29.276017765640425" lon="114.91830278683221"><ele>3.0</ele><time>2026-04-13T05:26:58Z</time></trkpt><trkpt lat="-29.275945433618958" lon="114.91842474348383"><ele>3.25</ele><time>2026-04-13T05:26:59Z</time></trkpt><trkpt lat="-29.27586587769578" lon="114.91855563977464"><ele>3.5</ele><time>2026-04-13T05:27:00Z</time></trkpt><trkpt lat="-29.27578103693383" lon="114.91869362804354"><ele>3.75</ele><time>2026-04-13T05:27:01Z</time></trkpt><trkpt lat="-29.275694907318424" lon="114.9188342692215"><ele>4.0</ele><time>2026-04-13T05:27:02Z</time></trkpt><trkpt lat="-29.275605066273197" lon="114.91897365331388"><ele>3.6666666666666665</ele><time>2026-04-13T05:27:03Z</time></trkpt><trkpt lat="-29.2755147440321" lon="114.9191138302866"><ele>3.333333333333333</ele><time>2026-04-13T05:27:04Z</time></trkpt><trkpt lat="-29.275426047290658" lon="114.91925266674433"><ele>3.0</ele><time>2026-04-13T05:27:05Z</time></trkpt><trkpt lat="-29.275258919465582" lon="114.91953104429071"><ele>3.75</ele><time>2026-04-13T05:27:07Z</time></trkpt><trkpt lat="-29.2751709319115" lon="114.91966713695996"><ele>4.5</ele><time>2026-04-13T05:27:08Z</time></trkpt><trkpt lat="-29.27507806349884" lon="114.91979859415868"><ele>5.25</ele><time>2026-04-13T05:27:09Z</time></trkpt><trkpt lat="-29.274985435504302" lon="114.91992114638984"><ele>6.0</ele><time>2026-04-13T05:27:10Z</time></trkpt><trkpt lat="-29.274895603071013" lon="114.92003923670345"><ele>6.5</ele><time>2026-04-13T05:27:11Z</time></trkpt><trkpt lat="-29.274810110577675" lon="114.92015663642951"><ele>7.0</ele><time>2026-04-13T05:27:12Z</time></trkpt><trkpt lat="-29.27472563276202" lon="114.92026823899162"><ele>7.5</ele><time>2026-04-13T05:27:13Z</time></trkpt><trkpt lat="-29.274644593971516" lon="114.9203754077437"><ele>8.0</ele><time>2026-04-13T05:27:14Z</time></trkpt><trkpt lat="-29.274570563489295" lon="114.92048214119718"><ele>8.0</ele><time>2026-04-13T05:27:15Z</time></trkpt><trkpt lat="-29.274498058693357" lon="114.92058208577468"><ele>8.0</ele><time>2026-04-13T05:27:16Z</time></trkpt><trkpt lat="-29.274429035405195" lon="114.92067937803105"><ele>8.0</ele><time>2026-04-13T05:27:17Z</time></trkpt><trkpt lat="-29.27436042654518" lon="114.92077092800446"><ele>8.0</ele><time>2026-04-13T05:27:18Z</time></trkpt><trkpt lat="-29.2742923767638" lon="114.92085877965032"><ele>8.0</ele><time>2026-04-13T05:27:19Z</time></trkpt><trkpt lat="-29.274221692278797" lon="114.92094397750022"><ele>8.0</ele><time>2026-04-13T05:27:20Z</time></trkpt><trkpt lat="-29.274137660158726" lon="114.92102709973798"><ele>8.0</ele><time>2026-04-13T05:27:21Z</time></trkpt><trkpt lat="-29.274040843054802" lon="114.92110167864165"><ele>8.0</ele><time>2026-04-13T05:27:22Z</time></trkpt><trkpt lat="-29.273929488605116" lon="114.9211646769811"><ele>8.0</ele><time>2026-04-13T05:27:23Z</time></trkpt><trkpt lat="-29.273806390217246" lon="114.92121584212572"><ele>7.25</ele><time>2026-04-13T05:27:24Z</time></trkpt><trkpt lat="-29.273674229434423" lon="114.9212652919841"><ele>6.5</ele><time>2026-04-13T05:27:25Z</time></trkpt><trkpt lat="-29.273536788001643" lon="114.92131580123021"><ele>5.75</ele><time>2026-04-13T05:27:26Z</time></trkpt><trkpt lat="-29.273394319213722" lon="114.9213699898437"><ele>5.0</ele><time>2026-04-13T05:27:27Z</time></trkpt><trkpt lat="-29.27325069700712" lon="114.92142325361334"><ele>5.0</ele><time>2026-04-13T05:27:28Z</time></trkpt><trkpt lat="-29.273108373030745" lon="114.92147223826221"><ele>5.0</ele><time>2026-04-13T05:27:29Z</time></trkpt><trkpt lat="-29.27297598146365" lon="114.92151897045912"><ele>5.0</ele><time>2026-04-13T05:27:30Z</time></trkpt><trkpt lat="-29.272846881808917" lon="114.92155939144703"><ele>5.0</ele><time>2026-04-13T05:27:31Z</time></trkpt><trkpt lat="-29.27272398177604" lon="114.92158873056509"><ele>5.0</ele><time>2026-04-13T05:27:32Z</time></trkpt><trkpt lat="-29.27260746355666" lon="114.92161648706086"><ele>5.0</ele><time>2026-04-13T05:27:33Z</time></trkpt><trkpt lat="-29.27250434424156" lon="114.92164254906082"><ele>5.0</ele><time>2026-04-13T05:27:34Z</time></trkpt><trkpt lat="-29.272405136601233" lon="114.9216704839577"><ele>5.0</ele><time>2026-04-13T05:27:35Z</time></trkpt><trkpt lat="-29.272313159528764" lon="114.92170192446966"><ele>5.0</ele><time>2026-04-13T05:27:36Z</time></trkpt><trkpt lat="-29.272227314809573" lon="114.92174085438484"><ele>5.0</ele><time>2026-04-13T05:27:37Z</time></trkpt><trkpt lat="-29.27215280657446" lon="114.92178615908668"><ele>5.0</ele><time>2026-04-13T05:27:38Z</time></trkpt><trkpt lat="-29.272090155274125" lon="114.92183922484048"><ele>5.0</ele><time>2026-04-13T05:27:39Z</time></trkpt><trkpt lat="-29.272035740793715" lon="114.92189090561803"><ele>5.0</ele><time>2026-04-13T05:27:40Z</time></trkpt><trkpt lat="-29.271979511947105" lon="114.92193113610767"><ele>5.0</ele><time>2026-04-13T05:27:41Z</time></trkpt><trkpt lat="-29.271861666932658" lon="114.92195843313583"><ele>5.0</ele><time>2026-04-13T05:27:43Z</time></trkpt><trkpt lat="-29.27174678324818" lon="114.92195700419488"><ele>5.0</ele><time>2026-04-13T05:27:45Z</time></trkpt><trkpt lat="-29.271684295544773" lon="114.92196648564511"><ele>5.0</ele><time>2026-04-13T05:27:46Z</time></trkpt><trkpt lat="-29.271578244764353" lon="114.92199483557621"><ele>5.0</ele><time>2026-04-13T05:27:48Z</time></trkpt><trkpt lat="-29.271566475931227" lon="114.9221250007386"><ele>5.0</ele><time>2026-04-13T05:27:49Z</time></trkpt><trkpt lat="-29.27157104410055" lon="114.92220792078415"><ele>5.0</ele><time>2026-04-13T05:27:50Z</time></trkpt><trkpt lat="-29.271598227080734" lon="114.922285502421"><ele>5.0</ele><time>2026-04-13T05:27:51Z</time></trkpt><trkpt lat="-29.271644341223823" lon="114.9223633418315"><ele>5.0</ele><time>2026-04-13T05:27:52Z</time></trkpt><trkpt lat="-29.271696598970205" lon="114.92244778257646"><ele>5.0</ele><time>2026-04-13T05:27:53Z</time></trkpt><trkpt lat="-29.27172507288706" lon="114.92253796729374"><ele>5.0</ele><time>2026-04-13T05:27:54Z</time></trkpt><trkpt lat="-29.271771374755982" lon="114.9226339032915"><ele>5.0</ele><time>2026-04-13T05:27:55Z</time></trkpt><trkpt lat="-29.271705314862263" lon="114.9227780528045"><ele>5.0</ele><time>2026-04-13T05:27:56Z</time></trkpt><trkpt lat="-29.271669143773572" lon="114.92291406425728"><ele>5.75</ele><time>2026-04-13T05:27:57Z</time></trkpt><trkpt lat="-29.271631647995573" lon="114.92306340140325"><ele>6.5</ele><time>2026-04-13T05:27:58.001Z</time></trkpt><trkpt lat="-29.27159389755031" lon="114.92321913451029"><ele>7.25</ele><time>2026-04-13T05:27:59.001Z</time></trkpt><trkpt lat="-29.271552268562292" lon="114.9233897218064"><ele>8.0</ele><time>2026-04-13T05:28:00.001Z</time></trkpt><trkpt lat="-29.271503508278414" lon="114.92357041371825"><ele>8.333333333333332</ele><time>2026-04-13T05:28:01.001Z</time></trkpt><trkpt lat="-29.271442431430177" lon="114.92374110287055"><ele>8.666666666666666</ele><time>2026-04-13T05:28:02.001Z</time></trkpt><trkpt lat="-29.271353844735035" lon="114.92390131709925"><ele>9.0</ele><time>2026-04-13T05:28:03.001Z</time></trkpt><trkpt lat="-29.271242837003705" lon="114.92404642164786"><ele>10.0</ele><time>2026-04-13T05:28:04.001Z</time></trkpt><trkpt lat="-29.271114555811856" lon="114.92417530191906"><ele>11.0</ele><time>2026-04-13T05:28:05.001Z</time></trkpt><trkpt lat="-29.27096415167155" lon="114.92427971141316"><ele>12.0</ele><time>2026-04-13T05:28:06.001Z</time></trkpt><trkpt lat="-29.27079743046947" lon="114.92436083731674"><ele>12.0</ele><time>2026-04-13T05:28:07.001Z</time></trkpt><trkpt lat="-29.27063650956931" lon="114.92441811408492"><ele>12.0</ele><time>2026-04-13T05:28:08.001Z</time></trkpt><trkpt lat="-29.2704821435761" lon="114.92447846734885"><ele>12.0</ele><time>2026-04-13T05:28:09.001Z</time></trkpt><trkpt lat="-29.27032548693273" lon="114.92454165633737"><ele>11.333333333333334</ele><time>2026-04-13T05:28:10.001Z</time></trkpt><trkpt lat="-29.270172818560496" lon="114.92460338783219"><ele>10.666666666666668</ele><time>2026-04-13T05:28:11.001Z</time></trkpt><trkpt lat="-29.270028775889553" lon="114.92466104351757"><ele>10.0</ele><time>2026-04-13T05:28:12.001Z</time></trkpt><trkpt lat="-29.26989120851735" lon="114.92471639493621"><ele>9.75</ele><time>2026-04-13T05:28:13.001Z</time></trkpt><trkpt lat="-29.269755064061844" lon="114.92477065653367"><ele>9.5</ele><time>2026-04-13T05:28:14.001Z</time></trkpt><trkpt lat="-29.26961838033306" lon="114.92482778789805"><ele>9.25</ele><time>2026-04-13T05:28:15.001Z</time></trkpt><trkpt lat="-29.269478070952612" lon="114.9248849950574"><ele>9.0</ele><time>2026-04-13T05:28:16Z</time></trkpt><trkpt lat="-29.26932327977505" lon="114.92494479816244"><ele>9.0</ele><time>2026-04-13T05:28:17Z</time></trkpt><trkpt lat="-29.26916511111082" lon="114.9250070047119"><ele>9.0</ele><time>2026-04-13T05:28:18Z</time></trkpt><trkpt lat="-29.269012720573723" lon="114.92507588116638"><ele>9.0</ele><time>2026-04-13T05:28:19Z</time></trkpt><trkpt lat="-29.26886474446067" lon="114.92516196700007"><ele>8.666666666666666</ele><time>2026-04-13T05:28:20Z</time></trkpt><trkpt lat="-29.26871780200948" lon="114.92527875461512"><ele>8.333333333333332</ele><time>2026-04-13T05:28:21Z</time></trkpt><trkpt lat="-29.268552311903957" lon="114.92539181490903"><ele>8.0</ele><time>2026-04-13T05:28:22Z</time></trkpt><trkpt lat="-29.26839053081706" lon="114.92552694840928"><ele>8.0</ele><time>2026-04-13T05:28:23Z</time></trkpt><trkpt lat="-29.268236756778325" lon="114.92566007685707"><ele>8.0</ele><time>2026-04-13T05:28:24Z</time></trkpt><trkpt lat="-29.268088441335443" lon="114.92577005821178"><ele>8.0</ele><time>2026-04-13T05:28:25Z</time></trkpt><trkpt lat="-29.26795234886122" lon="114.92588251728863"><ele>8.25</ele><time>2026-04-13T05:28:26Z</time></trkpt><trkpt lat="-29.26783601893363" lon="114.92599132931092"><ele>8.5</ele><time>2026-04-13T05:28:27Z</time></trkpt><trkpt lat="-29.267733186765227" lon="114.92609597697722"><ele>8.75</ele><time>2026-04-13T05:28:28Z</time></trkpt><trkpt lat="-29.267639552855197" lon="114.92619112569932"><ele>9.0</ele><time>2026-04-13T05:28:29Z</time></trkpt><trkpt lat="-29.267540883957516" lon="114.92627333137843"><ele>9.0</ele><time>2026-04-13T05:28:30Z</time></trkpt><trkpt lat="-29.267443882856004" lon="114.92634855741078"><ele>9.0</ele><time>2026-04-13T05:28:31Z</time></trkpt><trkpt lat="-29.267357388124747" lon="114.92641767856756"><ele>9.0</ele><time>2026-04-13T05:28:32Z</time></trkpt><trkpt lat="-29.267271992407977" lon="114.92649225834697"><ele>9.0</ele><time>2026-04-13T05:28:33Z</time></trkpt><trkpt lat="-29.267187145011775" lon="114.92656857811336"><ele>9.0</ele><time>2026-04-13T05:28:34Z</time></trkpt><trkpt lat="-29.267096430515956" lon="114.92665076608266"><ele>9.5</ele><time>2026-04-13T05:28:35Z</time></trkpt><trkpt lat="-29.266996112355656" lon="114.92674235339636"><ele>10.0</ele><time>2026-04-13T05:28:36Z</time></trkpt><trkpt lat="-29.266888213389098" lon="114.92684369678585"><ele>10.5</ele><time>2026-04-13T05:28:37Z</time></trkpt><trkpt lat="-29.266760027691753" lon="114.92693354639891"><ele>11.0</ele><time>2026-04-13T05:28:38Z</time></trkpt><trkpt lat="-29.266639734503652" lon="114.92705999868402"><ele>11.0</ele><time>2026-04-13T05:28:39Z</time></trkpt><trkpt lat="-29.266503361096923" lon="114.92717715524904"><ele>11.0</ele><time>2026-04-13T05:28:40Z</time></trkpt><trkpt lat="-29.266345265123775" lon="114.92729275156854"><ele>11.0</ele><time>2026-04-13T05:28:41Z</time></trkpt><trkpt lat="-29.266188558239794" lon="114.92742681473311"><ele>11.666666666666666</ele><time>2026-04-13T05:28:42Z</time></trkpt><trkpt lat="-29.266035405181498" lon="114.9275570378936"><ele>12.333333333333332</ele><time>2026-04-13T05:28:43Z</time></trkpt><trkpt lat="-29.265887292681285" lon="114.92770512856633"><ele>13.0</ele><time>2026-04-13T05:28:44Z</time></trkpt><trkpt lat="-29.265734380096" lon="114.92783290913988"><ele>13.666666666666666</ele><time>2026-04-13T05:28:45Z</time></trkpt><trkpt lat="-29.26559461199804" lon="114.92796110610917"><ele>14.333333333333332</ele><time>2026-04-13T05:28:46Z</time></trkpt><trkpt lat="-29.26546203433686" lon="114.92810357589823"><ele>15.0</ele><time>2026-04-13T05:28:47Z</time></trkpt><trkpt lat="-29.26533683629027" lon="114.92824344446124"><ele>15.0</ele><time>2026-04-13T05:28:48Z</time></trkpt><trkpt lat="-29.265218922004294" lon="114.92837643843424"><ele>15.0</ele><time>2026-04-13T05:28:49Z</time></trkpt><trkpt lat="-29.265103941607062" lon="114.92849997380362"><ele>15.0</ele><time>2026-04-13T05:28:50Z</time></trkpt><trkpt lat="-29.26499425311554" lon="114.92861483380047"><ele>15.0</ele><time>2026-04-13T05:28:51Z</time></trkpt><trkpt lat="-29.264892105992786" lon="114.92871901990841"><ele>15.0</ele><time>2026-04-13T05:28:52Z</time></trkpt><trkpt lat="-29.264799999979456" lon="114.92881745448778"><ele>15.0</ele><time>2026-04-13T05:28:53Z</time></trkpt><trkpt lat="-29.264708492136304" lon="114.9289076692908"><ele>15.0</ele><time>2026-04-13T05:28:54Z</time></trkpt><trkpt lat="-29.264605790726023" lon="114.92896909808934"><ele>15.0</ele><time>2026-04-13T05:28:55Z</time></trkpt><trkpt lat="-29.264499053623595" lon="114.92900421755873"><ele>15.0</ele><time>2026-04-13T05:28:56Z</time></trkpt><trkpt lat="-29.264406308591298" lon="114.92906212118324"><ele>15.0</ele><time>2026-04-13T05:28:57Z</time></trkpt><trkpt lat="-29.264328696487205" lon="114.92916414165452"><ele>15.0</ele><time>2026-04-13T05:28:58Z</time></trkpt><trkpt lat="-29.264308458055748" lon="114.92932108347682"><ele>15.666666666666668</ele><time>2026-04-13T05:28:59Z</time></trkpt><trkpt lat="-29.26414977305794" lon="114.92942687220312"><ele>16.333333333333336</ele><time>2026-04-13T05:29:00Z</time></trkpt><trkpt lat="-29.264013453184333" lon="114.9295361588426"><ele>17.0</ele><time>2026-04-13T05:29:01Z</time></trkpt><trkpt lat="-29.263859185709354" lon="114.9296440091098"><ele>18.0</ele><time>2026-04-13T05:29:02Z</time></trkpt><trkpt lat="-29.263703561629498" lon="114.9297696213582"><ele>19.0</ele><time>2026-04-13T05:29:03Z</time></trkpt><trkpt lat="-29.263556128987855" lon="114.92989946778569"><ele>20.0</ele><time>2026-04-13T05:29:04Z</time></trkpt><trkpt lat="-29.263401610341184" lon="114.9300402362915"><ele>19.666666666666668</ele><time>2026-04-13T05:29:05Z</time></trkpt><trkpt lat="-29.263232269379348" lon="114.93018424840373"><ele>19.333333333333332</ele><time>2026-04-13T05:29:06Z</time></trkpt><trkpt lat="-29.263051691431578" lon="114.93032528522437"><ele>19.0</ele><time>2026-04-13T05:29:07Z</time></trkpt><trkpt lat="-29.2628715039312" lon="114.93045214527696"><ele>19.666666666666664</ele><time>2026-04-13T05:29:08Z</time></trkpt><trkpt lat="-29.262686441574022" lon="114.93057992489143"><ele>20.333333333333332</ele><time>2026-04-13T05:29:09Z</time></trkpt><trkpt lat="-29.262499507069258" lon="114.93071310882321"><ele>21.0</ele><time>2026-04-13T05:29:10Z</time></trkpt><trkpt lat="-29.262310349812047" lon="114.93085005022668"><ele>19.0</ele><time>2026-04-13T05:29:11Z</time></trkpt><trkpt lat="-29.262112615755633" lon="114.93099403667318"><ele>17.0</ele><time>2026-04-13T05:29:12Z</time></trkpt><trkpt lat="-29.261908914138697" lon="114.93113625176265"><ele>17.0</ele><time>2026-04-13T05:29:13Z</time></trkpt><trkpt lat="-29.261716075355626" lon="114.93127156486979"><ele>17.0</ele><time>2026-04-13T05:29:14Z</time></trkpt><trkpt lat="-29.261524601960577" lon="114.93140810554797"><ele>20.0</ele><time>2026-04-13T05:29:15Z</time></trkpt><trkpt lat="-29.261131818017837" lon="114.93168967437154"><ele>20.5</ele><time>2026-04-13T05:29:17Z</time></trkpt><trkpt lat="-29.260935168378182" lon="114.93182934595164"><ele>21.0</ele><time>2026-04-13T05:29:18Z</time></trkpt><trkpt lat="-29.260740892529455" lon="114.93196444208907"><ele>21.333333333333332</ele><time>2026-04-13T05:29:19Z</time></trkpt><trkpt lat="-29.260550818052543" lon="114.93209983600654"><ele>21.666666666666664</ele><time>2026-04-13T05:29:20Z</time></trkpt><trkpt lat="-29.26036991501276" lon="114.93223266216351"><ele>22.0</ele><time>2026-04-13T05:29:21Z</time></trkpt><trkpt lat="-29.260193707924742" lon="114.93236124881159"><ele>22.0</ele><time>2026-04-13T05:29:22Z</time></trkpt><trkpt lat="-29.260014843087795" lon="114.93249168948917"><ele>22.0</ele><time>2026-04-13T05:29:23Z</time></trkpt><trkpt lat="-29.25983070385221" lon="114.93262392885897"><ele>22.0</ele><time>2026-04-13T05:29:24Z</time></trkpt><trkpt lat="-29.259647538473985" lon="114.93275780458346"><ele>22.0</ele><time>2026-04-13T05:29:25Z</time></trkpt><trkpt lat="-29.259477774032554" lon="114.93288160099956"><ele>22.0</ele><time>2026-04-13T05:29:26Z</time></trkpt><trkpt lat="-29.259316133751433" lon="114.93299410609721"><ele>22.0</ele><time>2026-04-13T05:29:27Z</time></trkpt><trkpt lat="-29.259148684870596" lon="114.93310011837721"><ele>22.0</ele><time>2026-04-13T05:29:28Z</time></trkpt><trkpt lat="-29.258964819653013" lon="114.93319610181057"><ele>22.0</ele><time>2026-04-13T05:29:29Z</time></trkpt><trkpt lat="-29.25876161437113" lon="114.9332790351515"><ele>22.0</ele><time>2026-04-13T05:29:30Z</time></trkpt><trkpt lat="-29.258541150469842" lon="114.9333496204787"><ele>19.5</ele><time>2026-04-13T05:29:31Z</time></trkpt><trkpt lat="-29.258311350159516" lon="114.93341793439684"><ele>17.0</ele><time>2026-04-13T05:29:32Z</time></trkpt><trkpt lat="-29.258086470394307" lon="114.93349093965212"><ele>17.0</ele><time>2026-04-13T05:29:33Z</time></trkpt><trkpt lat="-29.257865045997487" lon="114.93356728979884"><ele>17.0</ele><time>2026-04-13T05:29:34Z</time></trkpt><trkpt lat="-29.25764593185079" lon="114.93363746878232"><ele>17.0</ele><time>2026-04-13T05:29:35Z</time></trkpt><trkpt lat="-29.25742897663656" lon="114.93369991333563"><ele>17.0</ele><time>2026-04-13T05:29:36Z</time></trkpt><trkpt lat="-29.257224202550415" lon="114.93375287542699"><ele>17.0</ele><time>2026-04-13T05:29:37Z</time></trkpt><trkpt lat="-29.257021512770752" lon="114.93380324800464"><ele>16.0</ele><time>2026-04-13T05:29:38Z</time></trkpt><trkpt lat="-29.25682812989491" lon="114.93384982824762"><ele>15.0</ele><time>2026-04-13T05:29:39Z</time></trkpt><trkpt lat="-29.256641275264496" lon="114.93389559496678"><ele>14.0</ele><time>2026-04-13T05:29:40Z</time></trkpt><trkpt lat="-29.256453009573768" lon="114.93393456766591"><ele>13.666666666666668</ele><time>2026-04-13T05:29:41Z</time></trkpt><trkpt lat="-29.256258935052287" lon="114.93397713076816"><ele>13.333333333333332</ele><time>2026-04-13T05:29:42Z</time></trkpt><trkpt lat="-29.256061377552516" lon="114.93401909433908"><ele>13.0</ele><time>2026-04-13T05:29:43Z</time></trkpt><trkpt lat="-29.255863790818495" lon="114.93406070016825"><ele>13.0</ele><time>2026-04-13T05:29:44Z</time></trkpt><trkpt lat="-29.25567210677085" lon="114.9341031113699"><ele>13.0</ele><time>2026-04-13T05:29:45Z</time></trkpt><trkpt lat="-29.255474720581816" lon="114.93415338910714"><ele>13.0</ele><time>2026-04-13T05:29:46Z</time></trkpt><trkpt lat="-29.255274033834613" lon="114.93420735923682"><ele>12.333333333333332</ele><time>2026-04-13T05:29:47Z</time></trkpt><trkpt lat="-29.255068653314805" lon="114.93426930621213"><ele>11.666666666666666</ele><time>2026-04-13T05:29:48Z</time></trkpt><trkpt lat="-29.254856851497085" lon="114.9343389617031"><ele>11.0</ele><time>2026-04-13T05:29:49Z</time></trkpt><trkpt lat="-29.254642748748438" lon="114.93441218600113"><ele>10.5</ele><time>2026-04-13T05:29:50Z</time></trkpt><trkpt lat="-29.254426044727264" lon="114.93448790472637"><ele>10.0</ele><time>2026-04-13T05:29:51Z</time></trkpt><trkpt lat="-29.25420774360006" lon="114.93456095868912"><ele>10.0</ele><time>2026-04-13T05:29:52Z</time></trkpt><trkpt lat="-29.25398873271622" lon="114.93462739028828"><ele>10.0</ele><time>2026-04-13T05:29:53Z</time></trkpt><trkpt lat="-29.25376966734793" lon="114.93468852284117"><ele>9.333333333333334</ele><time>2026-04-13T05:29:54Z</time></trkpt><trkpt lat="-29.253556957997525" lon="114.93474541440978"><ele>8.666666666666666</ele><time>2026-04-13T05:29:55Z</time></trkpt><trkpt lat="-29.25334973833087" lon="114.93480246435081"><ele>8.0</ele><time>2026-04-13T05:29:56Z</time></trkpt><trkpt lat="-29.253157719890424" lon="114.93485788554614"><ele>9.0</ele><time>2026-04-13T05:29:57Z</time></trkpt><trkpt lat="-29.252973371075434" lon="114.93491218986213"><ele>10.0</ele><time>2026-04-13T05:29:58Z</time></trkpt><trkpt lat="-29.25280289260503" lon="114.93496385737978"><ele>11.0</ele><time>2026-04-13T05:29:59Z</time></trkpt><trkpt lat="-29.25263316492599" lon="114.93501031447954"><ele>11.0</ele><time>2026-04-13T05:30:00Z</time></trkpt><trkpt lat="-29.25246084907941" lon="114.93505157492956"><ele>11.0</ele><time>2026-04-13T05:30:01Z</time></trkpt><trkpt lat="-29.252292993297022" lon="114.93507823740984"><ele>11.0</ele><time>2026-04-13T05:30:02Z</time></trkpt><trkpt lat="-29.25213583944508" lon="114.93508551185583"><ele>11.5</ele><time>2026-04-13T05:30:03Z</time></trkpt><trkpt lat="-29.251990234649487" lon="114.93507958443685"><ele>12.0</ele><time>2026-04-13T05:30:04Z</time></trkpt><trkpt lat="-29.25185009660836" lon="114.93507213208852"><ele>12.5</ele><time>2026-04-13T05:30:05Z</time></trkpt><trkpt lat="-29.251719196612836" lon="114.93506660407192"><ele>13.0</ele><time>2026-04-13T05:30:06Z</time></trkpt><trkpt lat="-29.251599729417343" lon="114.93506685995848"><ele>13.0</ele><time>2026-04-13T05:30:07Z</time></trkpt><trkpt lat="-29.25149476736465" lon="114.9350689141403"><ele>13.0</ele><time>2026-04-13T05:30:08Z</time></trkpt><trkpt lat="-29.251403693495465" lon="114.93506543057698"><ele>13.0</ele><time>2026-04-13T05:30:09Z</time></trkpt><trkpt lat="-29.251338453676436" lon="114.93506580895361"><ele>13.0</ele><time>2026-04-13T05:30:10Z</time></trkpt><trkpt lat="-29.25122910354312" lon="114.93505438422623"><ele>13.0</ele><time>2026-04-13T05:30:12Z</time></trkpt><trkpt lat="-29.251155731611135" lon="114.93512157601812"><ele>13.0</ele><time>2026-04-13T05:30:14Z</time></trkpt><trkpt lat="-29.251174758409796" lon="114.93524883464526"><ele>13.0</ele><time>2026-04-13T05:30:16Z</time></trkpt><trkpt lat="-29.2511658639831" lon="114.93539777848844"><ele>13.0</ele><time>2026-04-13T05:30:18Z</time></trkpt><trkpt lat="-29.25114829665112" lon="114.93548617663649"><ele>13.0</ele><time>2026-04-13T05:30:19.001Z</time></trkpt><trkpt lat="-29.25114314410101" lon="114.9355871152616"><ele>13.0</ele><time>2026-04-13T05:30:20.001Z</time></trkpt><trkpt lat="-29.251136937890482" lon="114.93570061715505"><ele>13.0</ele><time>2026-04-13T05:30:21.001Z</time></trkpt><trkpt lat="-29.251135356599512" lon="114.93582945276259"><ele>13.0</ele><time>2026-04-13T05:30:22Z</time></trkpt><trkpt lat="-29.251137875245995" lon="114.93597300696203"><ele>13.0</ele><time>2026-04-13T05:30:23Z</time></trkpt><trkpt lat="-29.25113505328103" lon="114.93612667109852"><ele>13.0</ele><time>2026-04-13T05:30:24Z</time></trkpt><trkpt lat="-29.251127234736995" lon="114.93628319362874"><ele>12.75</ele><time>2026-04-13T05:30:25Z</time></trkpt><trkpt lat="-29.25111015862233" lon="114.93645368906343"><ele>12.5</ele><time>2026-04-13T05:30:26Z</time></trkpt><trkpt lat="-29.25108631086273" lon="114.9366250522538"><ele>12.25</ele><time>2026-04-13T05:30:27Z</time></trkpt><trkpt lat="-29.251049869569634" lon="114.93678238032139"><ele>12.0</ele><time>2026-04-13T05:30:28Z</time></trkpt><trkpt lat="-29.25099203783144" lon="114.9369296469883"><ele>12.75</ele><time>2026-04-13T05:30:29Z</time></trkpt><trkpt lat="-29.250919064684666" lon="114.93706364546692"><ele>13.5</ele><time>2026-04-13T05:30:30Z</time></trkpt><trkpt lat="-29.250842992732228" lon="114.93718004946663"><ele>14.25</ele><time>2026-04-13T05:30:31Z</time></trkpt><trkpt lat="-29.250768865242005" lon="114.93728311418944"><ele>15.0</ele><time>2026-04-13T05:30:32Z</time></trkpt><trkpt lat="-29.250699480133797" lon="114.93737185141384"><ele>15.0</ele><time>2026-04-13T05:30:33Z</time></trkpt><trkpt lat="-29.250641827787238" lon="114.93742887172053"><ele>15.0</ele><time>2026-04-13T05:30:34Z</time></trkpt><trkpt lat="-29.25058415940943" lon="114.93749918008764"><ele>15.0</ele><time>2026-04-13T05:30:36Z</time></trkpt><trkpt lat="-29.25055637637469" lon="114.93761951449851"><ele>15.0</ele><time>2026-04-13T05:30:45Z</time></trkpt><trkpt lat="-29.250575728232835" lon="114.9377011792543"><ele>15.0</ele><time>2026-04-13T05:30:46Z</time></trkpt><trkpt lat="-29.25061793107262" lon="114.93779971504433"><ele>15.0</ele><time>2026-04-13T05:30:47Z</time></trkpt><trkpt lat="-29.250674065319153" lon="114.93790782856112"><ele>15.25</ele><time>2026-04-13T05:30:48Z</time></trkpt><trkpt lat="-29.25073804467089" lon="114.9380339108164"><ele>15.5</ele><time>2026-04-13T05:30:49Z</time></trkpt><trkpt lat="-29.250808082829483" lon="114.93818368774306"><ele>15.75</ele><time>2026-04-13T05:30:50Z</time></trkpt><trkpt lat="-29.250877479294267" lon="114.93833966316534"><ele>16.0</ele><time>2026-04-13T05:30:51Z</time></trkpt><trkpt lat="-29.250949368284235" lon="114.93851110391721"><ele>16.0</ele><time>2026-04-13T05:30:52Z</time></trkpt><trkpt lat="-29.251031463258915" lon="114.93870467838254"><ele>16.0</ele><time>2026-04-13T05:30:53Z</time></trkpt><trkpt lat="-29.251111952448106" lon="114.9389033996907"><ele>16.0</ele><time>2026-04-13T05:30:54Z</time></trkpt><trkpt lat="-29.251179431535412" lon="114.93908599223451"><ele>16.333333333333332</ele><time>2026-04-13T05:30:55Z</time></trkpt><trkpt lat="-29.251238615078712" lon="114.93926058052038"><ele>16.666666666666668</ele><time>2026-04-13T05:30:56Z</time></trkpt><trkpt lat="-29.251286657962737" lon="114.93942048741403"><ele>17.0</ele><time>2026-04-13T05:30:57Z</time></trkpt><trkpt lat="-29.251325874967893" lon="114.93957746334206"><ele>17.0</ele><time>2026-04-13T05:30:58Z</time></trkpt><trkpt lat="-29.251364061743292" lon="114.93971928464055"><ele>17.0</ele><time>2026-04-13T05:30:59Z</time></trkpt><trkpt lat="-29.251403746828583" lon="114.93986388027288"><ele>17.0</ele><time>2026-04-13T05:31:00Z</time></trkpt><trkpt lat="-29.251441577669407" lon="114.94000490954645"><ele>17.0</ele><time>2026-04-13T05:31:01Z</time></trkpt><trkpt lat="-29.25147467405075" lon="114.94012936474655"><ele>16.5</ele><time>2026-04-13T05:31:02Z</time></trkpt><trkpt lat="-29.251501713322654" lon="114.94024167956259"><ele>16.0</ele><time>2026-04-13T05:31:03Z</time></trkpt><trkpt lat="-29.251526764679436" lon="114.94034255864014"><ele>15.5</ele><time>2026-04-13T05:31:04Z</time></trkpt><trkpt lat="-29.25154954957619" lon="114.94043098164558"><ele>15.0</ele><time>2026-04-13T05:31:05Z</time></trkpt><trkpt lat="-29.25157466196172" lon="114.94050209812654"><ele>14.500000000000002</ele><time>2026-04-13T05:31:06Z</time></trkpt><trkpt lat="-29.251650556718648" lon="114.94057744546484"><ele>14.0</ele><time>2026-04-13T05:31:08Z</time></trkpt><trkpt lat="-29.25172278036695" lon="114.94054005712324"><ele>14.0</ele><time>2026-04-13T05:31:10Z</time></trkpt><trkpt lat="-29.251720175268716" lon="114.94045902949988"><ele>14.0</ele><time>2026-04-13T05:31:12Z</time></trkpt><trkpt lat="-29.251754512362993" lon="114.94039031315529"><ele>14.0</ele><time>2026-04-13T05:31:14Z</time></trkpt><trkpt lat="-29.251792682457197" lon="114.94044931538478"><ele>14.0</ele><time>2026-04-13T05:31:21Z</time></trkpt><trkpt lat="-29.251819440752826" lon="114.94052498114803"><ele>14.0</ele><time>2026-04-13T05:31:44Z</time></trkpt><trkpt lat="-29.251750710332402" lon="114.94055459726425"><ele>14.0</ele><time>2026-04-13T05:31:48Z</time></trkpt><trkpt lat="-29.251719738632772" lon="114.94048247061238"><ele>14.0</ele><time>2026-04-13T05:31:52Z</time></trkpt><trkpt lat="-29.251721085682107" lon="114.94038222935798"><ele>14.0</ele><time>2026-04-13T05:32:51Z</time></trkpt><trkpt lat="-29.251665691446277" lon="114.94024854703247"><ele>13.999999999999998</ele><time>2026-04-13T05:32:53Z</time></trkpt><trkpt lat="-29.251633337673645" lon="114.94018270016106"><ele>13.999999999999998</ele><time>2026-04-13T05:32:54Z</time></trkpt><trkpt lat="-29.251590917295342" lon="114.94008997806213"><ele>14.0</ele><time>2026-04-13T05:32:55Z</time></trkpt><trkpt lat="-29.251547405517552" lon="114.93998917905284"><ele>14.0</ele><time>2026-04-13T05:32:56Z</time></trkpt><trkpt lat="-29.251499059124512" lon="114.93988486950128"><ele>14.75</ele><time>2026-04-13T05:32:57Z</time></trkpt><trkpt lat="-29.25145054983893" lon="114.93976148759079"><ele>15.5</ele><time>2026-04-13T05:32:58Z</time></trkpt><trkpt lat="-29.251407933924348" lon="114.93961562488349"><ele>16.25</ele><time>2026-04-13T05:32:59Z</time></trkpt><trkpt lat="-29.251369160672862" lon="114.93945512199512"><ele>17.0</ele><time>2026-04-13T05:33:00Z</time></trkpt><trkpt lat="-29.251323272435858" lon="114.93928500302628"><ele>16.666666666666668</ele><time>2026-04-13T05:33:01Z</time></trkpt><trkpt lat="-29.25127261297159" lon="114.93911091193606"><ele>16.333333333333332</ele><time>2026-04-13T05:33:02Z</time></trkpt><trkpt lat="-29.2512146356512" lon="114.93892319724227"><ele>16.0</ele><time>2026-04-13T05:33:03Z</time></trkpt><trkpt lat="-29.251151530939765" lon="114.93873939188612"><ele>16.0</ele><time>2026-04-13T05:33:04Z</time></trkpt><trkpt lat="-29.251081073180433" lon="114.93856500760535"><ele>16.0</ele><time>2026-04-13T05:33:05Z</time></trkpt><trkpt lat="-29.251010464476202" lon="114.93839376939947"><ele>16.0</ele><time>2026-04-13T05:33:06Z</time></trkpt><trkpt lat="-29.250939595271873" lon="114.93822512145498"><ele>16.0</ele><time>2026-04-13T05:33:07Z</time></trkpt><trkpt lat="-29.250881192589745" lon="114.93806860787433"><ele>16.0</ele><time>2026-04-13T05:33:08Z</time></trkpt><trkpt lat="-29.25083676840334" lon="114.93791078424795"><ele>16.0</ele><time>2026-04-13T05:33:09Z</time></trkpt><trkpt lat="-29.25081361214041" lon="114.9377472339419"><ele>16.0</ele><time>2026-04-13T05:33:10Z</time></trkpt><trkpt lat="-29.25082477572302" lon="114.93759189211724"><ele>15.666666666666666</ele><time>2026-04-13T05:33:11Z</time></trkpt><trkpt lat="-29.25086279514418" lon="114.93742713652532"><ele>15.333333333333332</ele><time>2026-04-13T05:33:12Z</time></trkpt><trkpt lat="-29.25092122532257" lon="114.93724725940966"><ele>15.0</ele><time>2026-04-13T05:33:13Z</time></trkpt><trkpt lat="-29.2509650272799" lon="114.93705501699124"><ele>15.0</ele><time>2026-04-13T05:33:14Z</time></trkpt><trkpt lat="-29.251072527673998" lon="114.93688090205978"><ele>15.0</ele><time>2026-04-13T05:33:15Z</time></trkpt><trkpt lat="-29.251134122046242" lon="114.93669450764895"><ele>15.0</ele><time>2026-04-13T05:33:16Z</time></trkpt><trkpt lat="-29.251178573466575" lon="114.93650777905995"><ele>14.25</ele><time>2026-04-13T05:33:17Z</time></trkpt><trkpt lat="-29.25119752541645" lon="114.93633445937427"><ele>13.5</ele><time>2026-04-13T05:33:18Z</time></trkpt><trkpt lat="-29.25120757729753" lon="114.93617246978526"><ele>12.75</ele><time>2026-04-13T05:33:19Z</time></trkpt><trkpt lat="-29.25121244479377" lon="114.93603290399535"><ele>12.0</ele><time>2026-04-13T05:33:20Z</time></trkpt><trkpt lat="-29.251211669203677" lon="114.93591470865786"><ele>12.2</ele><time>2026-04-13T05:33:21Z</time></trkpt><trkpt lat="-29.25120818706863" lon="114.93581431506031"><ele>12.399999999999999</ele><time>2026-04-13T05:33:22Z</time></trkpt><trkpt lat="-29.251202660443816" lon="114.93574043231023"><ele>12.600000000000001</ele><time>2026-04-13T05:33:23Z</time></trkpt><trkpt lat="-29.25118687166672" lon="114.93561023019855"><ele>12.8</ele><time>2026-04-13T05:33:25Z</time></trkpt><trkpt lat="-29.251214453435747" lon="114.93549656558127"><ele>13.0</ele><time>2026-04-13T05:33:27Z</time></trkpt><trkpt lat="-29.25111857050595" lon="114.93542488078803"><ele>13.0</ele><time>2026-04-13T05:33:28Z</time></trkpt><trkpt lat="-29.251099069527022" lon="114.9353059655302"><ele>13.0</ele><time>2026-04-13T05:33:30Z</time></trkpt><trkpt lat="-29.251098912164963" lon="114.93521271646236"><ele>13.0</ele><time>2026-04-13T05:33:33Z</time></trkpt></trkseg></trk></gpx>